<?xml version='1.0' encoding='UTF-8'?><gpx version="1.1" creator="JPX - https://github.com/jenetics/jpx" xmlns="http://www.topografix.com/GPX/1/1"><trk><trkseg><trkpt lat="37.67750537539344" lon="-4.557913769437447"><ele>366.0</ele><time>2026-04-05T13:46:01.001Z</time></trkpt><trkpt lat="37.677427614131325" lon="-4.5579477181937476"><ele>366.0</ele><time>2026-04-05T13:46:03.001Z</time></trkpt><trkpt lat="37.67735210395484" lon="-4.558003196145011"><ele>366.0</ele><time>2026-04-05T13:46:05.001Z</time></trkpt><trkpt lat="37.67726062932069" lon="-4.55805681514129"><ele>366.0</ele><time>2026-04-05T13:46:07.001Z</time></trkpt><trkpt lat="37.67716720075467" lon="-4.5581197471391395"><ele>366.0</ele><time>2026-04-05T13:46:09.001Z</time></trkpt><trkpt lat="37.67711549241259" lon="-4.558180358028477"><ele>366.0</ele><time>2026-04-05T13:46:10.001Z</time></trkpt><trkpt lat="37.677047514573665" lon="-4.558214510194171"><ele>364.3333333333333</ele><time>2026-04-05T13:46:11.001Z</time></trkpt><trkpt lat="37.6769237732125" lon="-4.558275256158828"><ele>362.6666666666667</ele><time>2026-04-05T13:46:13.001Z</time></trkpt><trkpt lat="37.67686155614442" lon="-4.558308204407752"><ele>361.0</ele><time>2026-04-05T13:46:14.001Z</time></trkpt><trkpt lat="37.67679889577979" lon="-4.558349882407193"><ele>359.33333333333337</ele><time>2026-04-05T13:46:15.001Z</time></trkpt><trkpt lat="37.67673542102915" lon="-4.55838927860053"><ele>357.6666666666667</ele><time>2026-04-05T13:46:16.001Z</time></trkpt><trkpt lat="37.67666992896234" lon="-4.55842220266908"><ele>356.0</ele><time>2026-04-05T13:46:17.001Z</time></trkpt><trkpt lat="37.676608977669005" lon="-4.558461470502956"><ele>356.0</ele><time>2026-04-05T13:46:18.001Z</time></trkpt><trkpt lat="37.67649357478143" lon="-4.558544137488801"><ele>356.0</ele><time>2026-04-05T13:46:20.001Z</time></trkpt><trkpt lat="37.67643098309989" lon="-4.558586991189735"><ele>356.0</ele><time>2026-04-05T13:46:21.001Z</time></trkpt><trkpt lat="37.6763677630284" lon="-4.558618066095629"><ele>356.0</ele><time>2026-04-05T13:46:22.001Z</time></trkpt><trkpt lat="37.67629211026629" lon="-4.558618354229811"><ele>356.0</ele><time>2026-04-05T13:46:23.001Z</time></trkpt><trkpt lat="37.67621125951322" lon="-4.558602370832087"><ele>356.0</ele><time>2026-04-05T13:46:24.001Z</time></trkpt><trkpt lat="37.67613214455281" lon="-4.558602925231455"><ele>354.85714285714283</ele><time>2026-04-05T13:46:25.001Z</time></trkpt><trkpt lat="37.67606086394653" lon="-4.558612231426606"><ele>353.7142857142857</ele><time>2026-04-05T13:46:26.001Z</time></trkpt><trkpt lat="37.67599253360106" lon="-4.558619041865136"><ele>352.57142857142856</ele><time>2026-04-05T13:46:27.001Z</time></trkpt><trkpt lat="37.67592447697971" lon="-4.558638649084149"><ele>351.42857142857144</ele><time>2026-04-05T13:46:28.001Z</time></trkpt><trkpt lat="37.67585388771991" lon="-4.5586535419586856"><ele>350.2857142857143</ele><time>2026-04-05T13:46:29.001Z</time></trkpt><trkpt lat="37.675790174872674" lon="-4.558671458387557"><ele>349.1428571428571</ele><time>2026-04-05T13:46:30.001Z</time></trkpt><trkpt lat="37.67572273782053" lon="-4.55869396159003"><ele>348.0</ele><time>2026-04-05T13:46:31.001Z</time></trkpt><trkpt lat="37.67565995652992" lon="-4.558716007183404"><ele>348.0</ele><time>2026-04-05T13:46:32.001Z</time></trkpt><trkpt lat="37.6755357569307" lon="-4.55876486138971"><ele>348.0</ele><time>2026-04-05T13:46:34.001Z</time></trkpt><trkpt lat="37.67547211462504" lon="-4.558796221986895"><ele>348.0</ele><time>2026-04-05T13:46:35.001Z</time></trkpt><trkpt lat="37.67540805981039" lon="-4.558826339410728"><ele>348.0</ele><time>2026-04-05T13:46:36.001Z</time></trkpt><trkpt lat="37.675341951871246" lon="-4.558859645470381"><ele>348.0</ele><time>2026-04-05T13:46:37.001Z</time></trkpt><trkpt lat="37.67528400259217" lon="-4.558897848776215"><ele>348.0</ele><time>2026-04-05T13:46:38.001Z</time></trkpt><trkpt lat="37.67522397196966" lon="-4.558934928032965"><ele>347.0</ele><time>2026-04-05T13:46:39.001Z</time></trkpt><trkpt lat="37.675164225184666" lon="-4.558965788014309"><ele>346.0</ele><time>2026-04-05T13:46:40.001Z</time></trkpt><trkpt lat="37.67510794357374" lon="-4.559010194478185"><ele>345.0</ele><time>2026-04-05T13:46:41.001Z</time></trkpt><trkpt lat="37.6750521776904" lon="-4.559048124110898"><ele>344.0</ele><time>2026-04-05T13:46:42.001Z</time></trkpt><trkpt lat="37.67495084253099" lon="-4.559151238057657"><ele>343.0</ele><time>2026-04-05T13:46:44.001Z</time></trkpt><trkpt lat="37.6748965753049" lon="-4.559203405042933"><ele>342.0</ele><time>2026-04-05T13:46:45.001Z</time></trkpt><trkpt lat="37.674833342515704" lon="-4.55926201707864"><ele>341.99999999999994</ele><time>2026-04-05T13:46:46.001Z</time></trkpt><trkpt lat="37.6747804953242" lon="-4.559315956394379"><ele>342.0</ele><time>2026-04-05T13:46:47.001Z</time></trkpt><trkpt lat="37.674727004050226" lon="-4.559377275803009"><ele>342.0</ele><time>2026-04-05T13:46:48.001Z</time></trkpt><trkpt lat="37.674670326231414" lon="-4.55943338415272"><ele>342.0</ele><time>2026-04-05T13:46:49.001Z</time></trkpt><trkpt lat="37.674614099420324" lon="-4.559495001490557"><ele>342.0</ele><time>2026-04-05T13:46:50.001Z</time></trkpt><trkpt lat="37.67456111668351" lon="-4.559544804070958"><ele>341.99999999999994</ele><time>2026-04-05T13:46:51.001Z</time></trkpt><trkpt lat="37.674508420753604" lon="-4.5595972277137555"><ele>342.0</ele><time>2026-04-05T13:46:52.001Z</time></trkpt><trkpt lat="37.674451132777484" lon="-4.559678877506833"><ele>342.0</ele><time>2026-04-05T13:46:54.001Z</time></trkpt><trkpt lat="37.674427201566054" lon="-4.559776145615965"><ele>342.0</ele><time>2026-04-05T13:46:56.001Z</time></trkpt><trkpt lat="37.67445178914993" lon="-4.55986353139671"><ele>342.0</ele><time>2026-04-05T13:46:57.001Z</time></trkpt><trkpt lat="37.67450345412892" lon="-4.559972303014411"><ele>342.0</ele><time>2026-04-05T13:46:58.001Z</time></trkpt><trkpt lat="37.674565838228524" lon="-4.560093713072248"><ele>342.0</ele><time>2026-04-05T13:46:59.001Z</time></trkpt><trkpt lat="37.67465302864586" lon="-4.560198124775446"><ele>342.0</ele><time>2026-04-05T13:47:00.001Z</time></trkpt><trkpt lat="37.67474297258517" lon="-4.560287421320745"><ele>342.0</ele><time>2026-04-05T13:47:01.001Z</time></trkpt><trkpt lat="37.67483960709514" lon="-4.560368303307999"><ele>342.0</ele><time>2026-04-05T13:47:02.001Z</time></trkpt><trkpt lat="37.67494206367303" lon="-4.560463007227291"><ele>342.0</ele><time>2026-04-05T13:47:03.001Z</time></trkpt><trkpt lat="37.67505033414092" lon="-4.560557864497095"><ele>340.0</ele><time>2026-04-05T13:47:04.001Z</time></trkpt><trkpt lat="37.67516424147494" lon="-4.560658504827686"><ele>338.0</ele><time>2026-04-05T13:47:05.001Z</time></trkpt><trkpt lat="37.67528887177303" lon="-4.560768654535569"><ele>336.0</ele><time>2026-04-05T13:47:06.001Z</time></trkpt><trkpt lat="37.67542491364857" lon="-4.560887330719659"><ele>335.0</ele><time>2026-04-05T13:47:07.001Z</time></trkpt><trkpt lat="37.67555959261515" lon="-4.561007285935942"><ele>334.0</ele><time>2026-04-05T13:47:08.001Z</time></trkpt><trkpt lat="37.67569800466577" lon="-4.5611296378311375"><ele>333.0</ele><time>2026-04-05T13:47:09.001Z</time></trkpt><trkpt lat="37.675837829676006" lon="-4.561250462937204"><ele>332.6666666666667</ele><time>2026-04-05T13:47:10.001Z</time></trkpt><trkpt lat="37.67597348567906" lon="-4.561368383999877"><ele>332.33333333333337</ele><time>2026-04-05T13:47:11.001Z</time></trkpt><trkpt lat="37.676110740051534" lon="-4.561492363225929"><ele>332.0</ele><time>2026-04-05T13:47:12.001Z</time></trkpt><trkpt lat="37.67624614198627" lon="-4.561613266610337"><ele>332.0</ele><time>2026-04-05T13:47:13.001Z</time></trkpt><trkpt lat="37.67638653471466" lon="-4.561736719584689"><ele>332.0</ele><time>2026-04-05T13:47:14.001Z</time></trkpt><trkpt lat="37.676529233034024" lon="-4.561864448607305"><ele>332.0</ele><time>2026-04-05T13:47:15.001Z</time></trkpt><trkpt lat="37.67667429261458" lon="-4.561998222644484"><ele>331.33333333333337</ele><time>2026-04-05T13:47:16.002Z</time></trkpt><trkpt lat="37.676823977551635" lon="-4.562151828886606"><ele>330.6666666666667</ele><time>2026-04-05T13:47:17.002Z</time></trkpt><trkpt lat="37.67697335600345" lon="-4.562314863711486"><ele>330.0</ele><time>2026-04-05T13:47:18.002Z</time></trkpt><trkpt lat="37.677101988786944" lon="-4.562489608265436"><ele>330.0</ele><time>2026-04-05T13:47:19.002Z</time></trkpt><trkpt lat="37.67723007853354" lon="-4.562678361606143"><ele>330.0</ele><time>2026-04-05T13:47:20.002Z</time></trkpt><trkpt lat="37.67735716126002" lon="-4.562865824730779"><ele>330.0</ele><time>2026-04-05T13:47:21.002Z</time></trkpt><trkpt lat="37.67748748469883" lon="-4.563054339827417"><ele>330.3333333333333</ele><time>2026-04-05T13:47:22.002Z</time></trkpt><trkpt lat="37.677622928601906" lon="-4.563241392937348"><ele>330.66666666666663</ele><time>2026-04-05T13:47:23.002Z</time></trkpt><trkpt lat="37.67775796969837" lon="-4.563434772306276"><ele>331.0</ele><time>2026-04-05T13:47:24.002Z</time></trkpt><trkpt lat="37.67789189324488" lon="-4.563631097239746"><ele>327.66666666666663</ele><time>2026-04-05T13:47:25.002Z</time></trkpt><trkpt lat="37.678030374082354" lon="-4.563829010678455"><ele>324.3333333333333</ele><time>2026-04-05T13:47:26.002Z</time></trkpt><trkpt lat="37.678173260868135" lon="-4.564020084328076"><ele>321.0</ele><time>2026-04-05T13:47:27.002Z</time></trkpt><trkpt lat="37.67831146063001" lon="-4.5642213000564915"><ele>321.0</ele><time>2026-04-05T13:47:28.002Z</time></trkpt><trkpt lat="37.67844883029773" lon="-4.564419498308772"><ele>321.0</ele><time>2026-04-05T13:47:29.002Z</time></trkpt><trkpt lat="37.67858634548443" lon="-4.564616407411807"><ele>321.0</ele><time>2026-04-05T13:47:30.002Z</time></trkpt><trkpt lat="37.67872239885051" lon="-4.564811952239458"><ele>320.0</ele><time>2026-04-05T13:47:31.002Z</time></trkpt><trkpt lat="37.6788546796418" lon="-4.565009112109306"><ele>319.0</ele><time>2026-04-05T13:47:32.002Z</time></trkpt><trkpt lat="37.6789847558209" lon="-4.565205146952138"><ele>318.0</ele><time>2026-04-05T13:47:33.002Z</time></trkpt><trkpt lat="37.67911671935256" lon="-4.565400218964051"><ele>317.6666666666667</ele><time>2026-04-05T13:47:34.002Z</time></trkpt><trkpt lat="37.67925153323811" lon="-4.565599510296038"><ele>317.33333333333337</ele><time>2026-04-05T13:47:35.002Z</time></trkpt><trkpt lat="37.67938592819526" lon="-4.565797726887492"><ele>317.0</ele><time>2026-04-05T13:47:36.002Z</time></trkpt><trkpt lat="37.67952546984147" lon="-4.565993482554738"><ele>315.33333333333337</ele><time>2026-04-05T13:47:37.002Z</time></trkpt><trkpt lat="37.67966060413343" lon="-4.566191990355088"><ele>313.6666666666667</ele><time>2026-04-05T13:47:38.002Z</time></trkpt><trkpt lat="37.679794817507855" lon="-4.566384258898303"><ele>312.0</ele><time>2026-04-05T13:47:39.002Z</time></trkpt><trkpt lat="37.67992567115903" lon="-4.566576972490354"><ele>312.0</ele><time>2026-04-05T13:47:40.002Z</time></trkpt><trkpt lat="37.68005617205462" lon="-4.566769288588096"><ele>312.0</ele><time>2026-04-05T13:47:41.002Z</time></trkpt><trkpt lat="37.68018756885104" lon="-4.566963399847991"><ele>312.0</ele><time>2026-04-05T13:47:42.002Z</time></trkpt><trkpt lat="37.68031030075886" lon="-4.567160589992786"><ele>309.3333333333333</ele><time>2026-04-05T13:47:43.002Z</time></trkpt><trkpt lat="37.680418843431646" lon="-4.567375565223639"><ele>306.66666666666663</ele><time>2026-04-05T13:47:44.002Z</time></trkpt><trkpt lat="37.680514583479294" lon="-4.56760669231302"><ele>304.0</ele><time>2026-04-05T13:47:45.002Z</time></trkpt><trkpt lat="37.68060752927429" lon="-4.567848438383122"><ele>305.66666666666663</ele><time>2026-04-05T13:47:46.002Z</time></trkpt><trkpt lat="37.68070811689816" lon="-4.568076964667692"><ele>307.3333333333333</ele><time>2026-04-05T13:47:47.002Z</time></trkpt><trkpt lat="37.68082962858833" lon="-4.568285330021262"><ele>309.0</ele><time>2026-04-05T13:47:48.002Z</time></trkpt><trkpt lat="37.68098332735223" lon="-4.56846352764391"><ele>307.0</ele><time>2026-04-05T13:47:49.002Z</time></trkpt><trkpt lat="37.68115949042198" lon="-4.568629934559955"><ele>305.0</ele><time>2026-04-05T13:47:50.002Z</time></trkpt><trkpt lat="37.68134344485088" lon="-4.568793058406247"><ele>303.0</ele><time>2026-04-05T13:47:51.002Z</time></trkpt><trkpt lat="37.681517649434085" lon="-4.568968270616413"><ele>303.0</ele><time>2026-04-05T13:47:52.002Z</time></trkpt><trkpt lat="37.681683697066816" lon="-4.569153889752448"><ele>303.0</ele><time>2026-04-05T13:47:53.002Z</time></trkpt><trkpt lat="37.6818407136615" lon="-4.569349776074827"><ele>303.0</ele><time>2026-04-05T13:47:54.002Z</time></trkpt><trkpt lat="37.681990117451875" lon="-4.56956113566646"><ele>300.6666666666667</ele><time>2026-04-05T13:47:55.002Z</time></trkpt><trkpt lat="37.68213656690029" lon="-4.569775377789892"><ele>298.33333333333337</ele><time>2026-04-05T13:47:56.002Z</time></trkpt><trkpt lat="37.682276489557864" lon="-4.569978822145104"><ele>296.0</ele><time>2026-04-05T13:47:57.002Z</time></trkpt><trkpt lat="37.682414966030365" lon="-4.570171587978341"><ele>296.0</ele><time>2026-04-05T13:47:58.002Z</time></trkpt><trkpt lat="37.682546970982685" lon="-4.570356278563649"><ele>296.0</ele><time>2026-04-05T13:47:59.002Z</time></trkpt><trkpt lat="37.68267725471639" lon="-4.570540197628416"><ele>296.0</ele><time>2026-04-05T13:48:00.002Z</time></trkpt><trkpt lat="37.68279408956318" lon="-4.570737501820508"><ele>292.33333333333337</ele><time>2026-04-05T13:48:01.002Z</time></trkpt><trkpt lat="37.68289610584558" lon="-4.570950386822582"><ele>288.6666666666667</ele><time>2026-04-05T13:48:02.002Z</time></trkpt><trkpt lat="37.682975588924386" lon="-4.571186462249448"><ele>285.0</ele><time>2026-04-05T13:48:03.002Z</time></trkpt><trkpt lat="37.683033139056626" lon="-4.571430062091405"><ele>284.0</ele><time>2026-04-05T13:48:04.002Z</time></trkpt><trkpt lat="37.6830626277041" lon="-4.571688693472497"><ele>283.0</ele><time>2026-04-05T13:48:05.002Z</time></trkpt><trkpt lat="37.68308339713888" lon="-4.571945917976047"><ele>282.0</ele><time>2026-04-05T13:48:06.002Z</time></trkpt><trkpt lat="37.68310609507347" lon="-4.572211068354251"><ele>281.0</ele><time>2026-04-05T13:48:07.002Z</time></trkpt><trkpt lat="37.6831369731697" lon="-4.572472371529729"><ele>280.0</ele><time>2026-04-05T13:48:08.002Z</time></trkpt><trkpt lat="37.683162826215586" lon="-4.572725866928412"><ele>279.0</ele><time>2026-04-05T13:48:09.002Z</time></trkpt><trkpt lat="37.68319778760293" lon="-4.572974880198486"><ele>278.6666666666667</ele><time>2026-04-05T13:48:10.002Z</time></trkpt><trkpt lat="37.68324376913668" lon="-4.573220550697438"><ele>278.33333333333337</ele><time>2026-04-05T13:48:11.002Z</time></trkpt><trkpt lat="37.68330938275751" lon="-4.573470188472551"><ele>278.0</ele><time>2026-04-05T13:48:12.002Z</time></trkpt><trkpt lat="37.683396736777226" lon="-4.5737081404793205"><ele>277.33333333333337</ele><time>2026-04-05T13:48:13.002Z</time></trkpt><trkpt lat="37.683488552453206" lon="-4.573942174000676"><ele>276.6666666666667</ele><time>2026-04-05T13:48:14.002Z</time></trkpt><trkpt lat="37.6835791958226" lon="-4.574183502796859"><ele>276.0</ele><time>2026-04-05T13:48:15.002Z</time></trkpt><trkpt lat="37.68366674820715" lon="-4.574414767541699"><ele>272.0</ele><time>2026-04-05T13:48:16.002Z</time></trkpt><trkpt lat="37.68375210042781" lon="-4.574646234206766"><ele>268.0</ele><time>2026-04-05T13:48:17.002Z</time></trkpt><trkpt lat="37.68383667598927" lon="-4.574875989579718"><ele>264.0</ele><time>2026-04-05T13:48:18.002Z</time></trkpt><trkpt lat="37.68391673127625" lon="-4.575101118764935"><ele>264.0</ele><time>2026-04-05T13:48:19.002Z</time></trkpt><trkpt lat="37.684004811580465" lon="-4.575327077561591"><ele>264.0</ele><time>2026-04-05T13:48:20.002Z</time></trkpt><trkpt lat="37.68408521009715" lon="-4.575540279057781"><ele>264.0</ele><time>2026-04-05T13:48:21.002Z</time></trkpt><trkpt lat="37.68416616975318" lon="-4.575748284885429"><ele>264.3333333333333</ele><time>2026-04-05T13:48:22.002Z</time></trkpt><trkpt lat="37.684240882364804" lon="-4.575951577527438"><ele>264.66666666666663</ele><time>2026-04-05T13:48:23.002Z</time></trkpt><trkpt lat="37.68430759411087" lon="-4.576156317051454"><ele>265.0</ele><time>2026-04-05T13:48:24.002Z</time></trkpt><trkpt lat="37.68435778784035" lon="-4.5763601392637066"><ele>265.0</ele><time>2026-04-05T13:48:25.002Z</time></trkpt><trkpt lat="37.684392948673825" lon="-4.576564150849626"><ele>265.0</ele><time>2026-04-05T13:48:26.002Z</time></trkpt><trkpt lat="37.684412133330426" lon="-4.576768327923753"><ele>265.0</ele><time>2026-04-05T13:48:27.002Z</time></trkpt><trkpt lat="37.68442564400053" lon="-4.576967413007326"><ele>258.66666666666663</ele><time>2026-04-05T13:48:28.002Z</time></trkpt><trkpt lat="37.684438533909976" lon="-4.577169409718072"><ele>252.33333333333331</ele><time>2026-04-05T13:48:29.002Z</time></trkpt><trkpt lat="37.68444704275633" lon="-4.577364384774848"><ele>246.0</ele><time>2026-04-05T13:48:30.002Z</time></trkpt><trkpt lat="37.68445143616355" lon="-4.5775534497970805"><ele>246.0</ele><time>2026-04-05T13:48:31.002Z</time></trkpt><trkpt lat="37.68444681336227" lon="-4.577745921686636"><ele>246.0</ele><time>2026-04-05T13:48:32.002Z</time></trkpt><trkpt lat="37.68441819117195" lon="-4.577940219695576"><ele>246.0</ele><time>2026-04-05T13:48:33.002Z</time></trkpt><trkpt lat="37.684368047757296" lon="-4.578133128895426"><ele>246.66666666666669</ele><time>2026-04-05T13:48:34.002Z</time></trkpt><trkpt lat="37.68431916415114" lon="-4.578323291113895"><ele>247.33333333333334</ele><time>2026-04-05T13:48:35.002Z</time></trkpt><trkpt lat="37.68428377915437" lon="-4.578512214106752"><ele>248.0</ele><time>2026-04-05T13:48:36.002Z</time></trkpt><trkpt lat="37.684263211730695" lon="-4.578712390862675"><ele>248.0</ele><time>2026-04-05T13:48:37.002Z</time></trkpt><trkpt lat="37.684268584956754" lon="-4.578920245587315"><ele>248.0</ele><time>2026-04-05T13:48:38.002Z</time></trkpt><trkpt lat="37.684290809543235" lon="-4.579123322049234"><ele>248.0</ele><time>2026-04-05T13:48:39.002Z</time></trkpt><trkpt lat="37.684333761969924" lon="-4.579333875434418"><ele>248.33333333333334</ele><time>2026-04-05T13:48:40.003Z</time></trkpt><trkpt lat="37.684387947565575" lon="-4.5795390983431234"><ele>248.66666666666669</ele><time>2026-04-05T13:48:41.003Z</time></trkpt><trkpt lat="37.68444285525888" lon="-4.579751579364192"><ele>249.0</ele><time>2026-04-05T13:48:42.003Z</time></trkpt><trkpt lat="37.684490751926276" lon="-4.579966525775666"><ele>245.66666666666669</ele><time>2026-04-05T13:48:43.003Z</time></trkpt><trkpt lat="37.684539904776095" lon="-4.580190881438008"><ele>242.33333333333334</ele><time>2026-04-05T13:48:44.003Z</time></trkpt><trkpt lat="37.68459034007633" lon="-4.580406573622455"><ele>239.0</ele><time>2026-04-05T13:48:45.003Z</time></trkpt><trkpt lat="37.68463796699002" lon="-4.580633224643609"><ele>239.0</ele><time>2026-04-05T13:48:46.003Z</time></trkpt><trkpt lat="37.68468997171768" lon="-4.580864972951962"><ele>239.0</ele><time>2026-04-05T13:48:47.003Z</time></trkpt><trkpt lat="37.684742947442885" lon="-4.581096687332545"><ele>239.0</ele><time>2026-04-05T13:48:48.003Z</time></trkpt><trkpt lat="37.68479988396123" lon="-4.581329921483982"><ele>239.33333333333334</ele><time>2026-04-05T13:48:49.003Z</time></trkpt><trkpt lat="37.68485469511241" lon="-4.581561607645273"><ele>239.66666666666669</ele><time>2026-04-05T13:48:50.003Z</time></trkpt><trkpt lat="37.68491231032252" lon="-4.581796540278737"><ele>240.0</ele><time>2026-04-05T13:48:51.003Z</time></trkpt><trkpt lat="37.684967331791206" lon="-4.582039292356631"><ele>239.33333333333331</ele><time>2026-04-05T13:48:52.003Z</time></trkpt><trkpt lat="37.68502295419831" lon="-4.582283817711988"><ele>238.66666666666666</ele><time>2026-04-05T13:48:53.003Z</time></trkpt><trkpt lat="37.68508146137534" lon="-4.582530383777225"><ele>238.0</ele><time>2026-04-05T13:48:54.003Z</time></trkpt><trkpt lat="37.68513585464495" lon="-4.582787731310456"><ele>237.0</ele><time>2026-04-05T13:48:55.003Z</time></trkpt><trkpt lat="37.68519856127442" lon="-4.583062140134225"><ele>236.0</ele><time>2026-04-05T13:48:56.003Z</time></trkpt><trkpt lat="37.6852621845661" lon="-4.583348398698122"><ele>235.5</ele><time>2026-04-05T13:48:57.003Z</time></trkpt><trkpt lat="37.685337882426" lon="-4.583645849509535"><ele>235.0</ele><time>2026-04-05T13:48:58.003Z</time></trkpt><trkpt lat="37.68541028828511" lon="-4.583957089055678"><ele>235.0</ele><time>2026-04-05T13:48:59.003Z</time></trkpt><trkpt lat="37.68547772136438" lon="-4.584281360801294"><ele>235.0</ele><time>2026-04-05T13:49:00.003Z</time></trkpt><trkpt lat="37.68556514026191" lon="-4.584615854579835"><ele>232.0</ele><time>2026-04-05T13:49:01.003Z</time></trkpt><trkpt lat="37.68564484421735" lon="-4.584960429997742"><ele>229.0</ele><time>2026-04-05T13:49:02.003Z</time></trkpt><trkpt lat="37.68571854157245" lon="-4.585311976521389"><ele>227.0</ele><time>2026-04-05T13:49:03.003Z</time></trkpt><trkpt lat="37.68580354609963" lon="-4.585660077953258"><ele>225.0</ele><time>2026-04-05T13:49:04.003Z</time></trkpt><trkpt lat="37.685888636232846" lon="-4.586004408995884"><ele>222.5</ele><time>2026-04-05T13:49:05.003Z</time></trkpt><trkpt lat="37.68596948903488" lon="-4.5863393904235235"><ele>220.0</ele><time>2026-04-05T13:49:06.003Z</time></trkpt><trkpt lat="37.68604937013191" lon="-4.586668523081428"><ele>221.5</ele><time>2026-04-05T13:49:07.003Z</time></trkpt><trkpt lat="37.68612511820282" lon="-4.586994000653356"><ele>223.0</ele><time>2026-04-05T13:49:08.003Z</time></trkpt><trkpt lat="37.686196448162185" lon="-4.587314722397982"><ele>220.0</ele><time>2026-04-05T13:49:09.003Z</time></trkpt><trkpt lat="37.68626506470087" lon="-4.587635212815617"><ele>217.0</ele><time>2026-04-05T13:49:10.003Z</time></trkpt><trkpt lat="37.68632999030972" lon="-4.587951910118372"><ele>216.5</ele><time>2026-04-05T13:49:11.003Z</time></trkpt><trkpt lat="37.6863861903654" lon="-4.5882704799023735"><ele>216.0</ele><time>2026-04-05T13:49:12.003Z</time></trkpt><trkpt lat="37.68642795770744" lon="-4.5885948877020715"><ele>215.0</ele><time>2026-04-05T13:49:13.003Z</time></trkpt><trkpt lat="37.686460873300476" lon="-4.588921672201604"><ele>214.0</ele><time>2026-04-05T13:49:14.003Z</time></trkpt><trkpt lat="37.68648611877417" lon="-4.589247146071786"><ele>213.0</ele><time>2026-04-05T13:49:15.003Z</time></trkpt><trkpt lat="37.68650698935743" lon="-4.589565565609936"><ele>212.0</ele><time>2026-04-05T13:49:16.003Z</time></trkpt><trkpt lat="37.6865332197724" lon="-4.589894886734473"><ele>212.0</ele><time>2026-04-05T13:49:17.003Z</time></trkpt><trkpt lat="37.686561975610026" lon="-4.590224679020107"><ele>212.0</ele><time>2026-04-05T13:49:18.003Z</time></trkpt><trkpt lat="37.686592795258235" lon="-4.590542711338786"><ele>211.0</ele><time>2026-04-05T13:49:19.003Z</time></trkpt><trkpt lat="37.68662359402386" lon="-4.59086464283975"><ele>210.0</ele><time>2026-04-05T13:49:20.003Z</time></trkpt><trkpt lat="37.68665059888889" lon="-4.591188350544233"><ele>208.5</ele><time>2026-04-05T13:49:21.003Z</time></trkpt><trkpt lat="37.686679330122516" lon="-4.591521221560857"><ele>207.0</ele><time>2026-04-05T13:49:22.003Z</time></trkpt><trkpt lat="37.686708930597995" lon="-4.591844733698285"><ele>205.5</ele><time>2026-04-05T13:49:23.003Z</time></trkpt><trkpt lat="37.68675151400552" lon="-4.592175927407869"><ele>204.0</ele><time>2026-04-05T13:49:24.003Z</time></trkpt><trkpt lat="37.68679214373657" lon="-4.592504314589112"><ele>204.0</ele><time>2026-04-05T13:49:25.003Z</time></trkpt><trkpt lat="37.686844101090244" lon="-4.592824506013046"><ele>204.0</ele><time>2026-04-05T13:49:26.003Z</time></trkpt><trkpt lat="37.686888021527515" lon="-4.593138991098575"><ele>203.0</ele><time>2026-04-05T13:49:27.003Z</time></trkpt><trkpt lat="37.686916738196096" lon="-4.593459086397842"><ele>202.0</ele><time>2026-04-05T13:49:28.003Z</time></trkpt><trkpt lat="37.68699537534118" lon="-4.593737903170709"><ele>202.0</ele><time>2026-04-05T13:49:29.003Z</time></trkpt><trkpt lat="37.68697730877731" lon="-4.593994162583104"><ele>202.0</ele><time>2026-04-05T13:49:30.003Z</time></trkpt><trkpt lat="37.687083969453575" lon="-4.594263948374342"><ele>202.0</ele><time>2026-04-05T13:49:31.003Z</time></trkpt><trkpt lat="37.68721660411832" lon="-4.594506271818485"><ele>198.0</ele><time>2026-04-05T13:49:32.003Z</time></trkpt><trkpt lat="37.687371915592166" lon="-4.5947273660185095"><ele>194.0</ele><time>2026-04-05T13:49:33.003Z</time></trkpt><trkpt lat="37.68755199210354" lon="-4.594928924761994"><ele>194.0</ele><time>2026-04-05T13:49:34.003Z</time></trkpt><trkpt lat="37.6877495939583" lon="-4.5950943285251125"><ele>194.0</ele><time>2026-04-05T13:49:35.003Z</time></trkpt><trkpt lat="37.68797124597519" lon="-4.595239430807521"><ele>191.5</ele><time>2026-04-05T13:49:36.003Z</time></trkpt><trkpt lat="37.688201183117506" lon="-4.595393362624636"><ele>189.0</ele><time>2026-04-05T13:49:37.003Z</time></trkpt><trkpt lat="37.6884304532178" lon="-4.595549512219749"><ele>188.0</ele><time>2026-04-05T13:49:38.003Z</time></trkpt><trkpt lat="37.688659758877726" lon="-4.595705687030424"><ele>187.0</ele><time>2026-04-05T13:49:39.003Z</time></trkpt><trkpt lat="37.68889571309695" lon="-4.595866390177645"><ele>187.0</ele><time>2026-04-05T13:49:40.003Z</time></trkpt><trkpt lat="37.689115583839154" lon="-4.596037648544345"><ele>187.0</ele><time>2026-04-05T13:49:41.003Z</time></trkpt><trkpt lat="37.68933728736904" lon="-4.596175407605368"><ele>185.66666666666669</ele><time>2026-04-05T13:49:42.003Z</time></trkpt><trkpt lat="37.689540467160995" lon="-4.59630580072073"><ele>184.33333333333334</ele><time>2026-04-05T13:49:43.003Z</time></trkpt><trkpt lat="37.68972336707638" lon="-4.596425853896478"><ele>183.0</ele><time>2026-04-05T13:49:44.003Z</time></trkpt><trkpt lat="37.689886551197176" lon="-4.596535463248575"><ele>183.0</ele><time>2026-04-05T13:49:45.003Z</time></trkpt><trkpt lat="37.690047479070614" lon="-4.596644664285945"><ele>183.0</ele><time>2026-04-05T13:49:46.003Z</time></trkpt><trkpt lat="37.69020098161411" lon="-4.596749507345766"><ele>183.0</ele><time>2026-04-05T13:49:47.003Z</time></trkpt><trkpt lat="37.690357108501814" lon="-4.596853235335579"><ele>183.66666666666666</ele><time>2026-04-05T13:49:48.003Z</time></trkpt><trkpt lat="37.69051780607553" lon="-4.596958064496732"><ele>184.33333333333331</ele><time>2026-04-05T13:49:49.003Z</time></trkpt><trkpt lat="37.690682976202865" lon="-4.597067275697657"><ele>185.0</ele><time>2026-04-05T13:49:50.003Z</time></trkpt><trkpt lat="37.69085336386017" lon="-4.5971831550342825"><ele>183.33333333333331</ele><time>2026-04-05T13:49:51.003Z</time></trkpt><trkpt lat="37.69102586265537" lon="-4.597302632282289"><ele>181.66666666666666</ele><time>2026-04-05T13:49:52.003Z</time></trkpt><trkpt lat="37.691217296037436" lon="-4.597435336605837"><ele>180.0</ele><time>2026-04-05T13:49:53.003Z</time></trkpt><trkpt lat="37.69141540650006" lon="-4.597569681918625"><ele>179.5</ele><time>2026-04-05T13:49:54.003Z</time></trkpt><trkpt lat="37.69161155646606" lon="-4.597700368780579"><ele>179.0</ele><time>2026-04-05T13:49:55.003Z</time></trkpt><trkpt lat="37.69181819961515" lon="-4.597838535081344"><ele>177.0</ele><time>2026-04-05T13:49:56.003Z</time></trkpt><trkpt lat="37.69203246225729" lon="-4.597984346263696"><ele>175.0</ele><time>2026-04-05T13:49:57.003Z</time></trkpt><trkpt lat="37.69224531388127" lon="-4.598131943844449"><ele>175.0</ele><time>2026-04-05T13:49:58.003Z</time></trkpt><trkpt lat="37.69245627689799" lon="-4.598281205209095"><ele>175.0</ele><time>2026-04-05T13:49:59.003Z</time></trkpt><trkpt lat="37.692660568514334" lon="-4.598450906190287"><ele>175.0</ele><time>2026-04-05T13:50:00.003Z</time></trkpt><trkpt lat="37.692845612755875" lon="-4.5986435934887355"><ele>175.0</ele><time>2026-04-05T13:50:01.003Z</time></trkpt><trkpt lat="37.69301178770735" lon="-4.598865198049424"><ele>175.0</ele><time>2026-04-05T13:50:02.003Z</time></trkpt><trkpt lat="37.693154428276735" lon="-4.599113734628618"><ele>175.0</ele><time>2026-04-05T13:50:03.003Z</time></trkpt><trkpt lat="37.69328524110013" lon="-4.599370641375409"><ele>175.5</ele><time>2026-04-05T13:50:04.003Z</time></trkpt><trkpt lat="37.693415885424955" lon="-4.599626693038802"><ele>176.0</ele><time>2026-04-05T13:50:05.004Z</time></trkpt><trkpt lat="37.69352255049543" lon="-4.599897533940803"><ele>179.0</ele><time>2026-04-05T13:50:06.004Z</time></trkpt><trkpt lat="37.69363416636891" lon="-4.600164482336619"><ele>182.0</ele><time>2026-04-05T13:50:07.004Z</time></trkpt><trkpt lat="37.693747853108064" lon="-4.600428049095251"><ele>182.0</ele><time>2026-04-05T13:50:08.004Z</time></trkpt><trkpt lat="37.693867974889194" lon="-4.600684702211687"><ele>182.0</ele><time>2026-04-05T13:50:09.004Z</time></trkpt><trkpt lat="37.69399503964447" lon="-4.600931696853996"><ele>182.0</ele><time>2026-04-05T13:50:10.004Z</time></trkpt><trkpt lat="37.69413582898545" lon="-4.601159979131138"><ele>182.0</ele><time>2026-04-05T13:50:11.004Z</time></trkpt><trkpt lat="37.694307248059836" lon="-4.601369401146216"><ele>180.0</ele><time>2026-04-05T13:50:12.004Z</time></trkpt><trkpt lat="37.6944892523391" lon="-4.60154743140617"><ele>178.0</ele><time>2026-04-05T13:50:13.004Z</time></trkpt><trkpt lat="37.69468944550804" lon="-4.601708008004011"><ele>178.0</ele><time>2026-04-05T13:50:14.004Z</time></trkpt><trkpt lat="37.694899097470255" lon="-4.601843968322313"><ele>178.0</ele><time>2026-04-05T13:50:15.004Z</time></trkpt><trkpt lat="37.69512044851077" lon="-4.601954399128715"><ele>174.5</ele><time>2026-04-05T13:50:16.004Z</time></trkpt><trkpt lat="37.69535896329025" lon="-4.6020450284690115"><ele>171.0</ele><time>2026-04-05T13:50:17.004Z</time></trkpt><trkpt lat="37.69560147782493" lon="-4.602114308300473"><ele>171.0</ele><time>2026-04-05T13:50:18.004Z</time></trkpt><trkpt lat="37.695844014895336" lon="-4.602192398125517"><ele>171.0</ele><time>2026-04-05T13:50:19.004Z</time></trkpt><trkpt lat="37.696083571501795" lon="-4.60228108505077"><ele>170.5</ele><time>2026-04-05T13:50:20.004Z</time></trkpt><trkpt lat="37.696319182215994" lon="-4.60238249463928"><ele>170.0</ele><time>2026-04-05T13:50:21.004Z</time></trkpt><trkpt lat="37.69655073086509" lon="-4.602509580757543"><ele>170.0</ele><time>2026-04-05T13:50:22.004Z</time></trkpt><trkpt lat="37.696772504879064" lon="-4.602677522432476"><ele>170.0</ele><time>2026-04-05T13:50:23.004Z</time></trkpt><trkpt lat="37.6969864083905" lon="-4.602870082525934"><ele>169.0</ele><time>2026-04-05T13:50:24.004Z</time></trkpt><trkpt lat="37.697197250157984" lon="-4.603076554738794"><ele>168.0</ele><time>2026-04-05T13:50:25.004Z</time></trkpt><trkpt lat="37.697408933020846" lon="-4.603286378060829"><ele>168.0</ele><time>2026-04-05T13:50:26.004Z</time></trkpt><trkpt lat="37.697617314210575" lon="-4.603496140743037"><ele>168.0</ele><time>2026-04-05T13:50:27.004Z</time></trkpt><trkpt lat="37.69782649953176" lon="-4.603702912149505"><ele>168.5</ele><time>2026-04-05T13:50:28.004Z</time></trkpt><trkpt lat="37.69803714414431" lon="-4.603904046419943"><ele>169.0</ele><time>2026-04-05T13:50:29.004Z</time></trkpt><trkpt lat="37.6982432806047" lon="-4.604102744991722"><ele>169.0</ele><time>2026-04-05T13:50:30.004Z</time></trkpt><trkpt lat="37.69844628243661" lon="-4.604298990621885"><ele>169.0</ele><time>2026-04-05T13:50:31.004Z</time></trkpt><trkpt lat="37.69864739224875" lon="-4.604496505173404"><ele>168.5</ele><time>2026-04-05T13:50:32.004Z</time></trkpt><trkpt lat="37.69883602992643" lon="-4.60470676972249"><ele>168.0</ele><time>2026-04-05T13:50:33.004Z</time></trkpt><trkpt lat="37.69900466819165" lon="-4.6049463342036825"><ele>168.0</ele><time>2026-04-05T13:50:34.004Z</time></trkpt><trkpt lat="37.699150083255006" lon="-4.605219480615177"><ele>168.0</ele><time>2026-04-05T13:50:35.004Z</time></trkpt><trkpt lat="37.69928542202483" lon="-4.605497477252244"><ele>167.5</ele><time>2026-04-05T13:50:36.004Z</time></trkpt><trkpt lat="37.69942557537064" lon="-4.605773136385548"><ele>167.0</ele><time>2026-04-05T13:50:37.004Z</time></trkpt><trkpt lat="37.699572363675784" lon="-4.60604706363653"><ele>167.0</ele><time>2026-04-05T13:50:38.004Z</time></trkpt><trkpt lat="37.69971610190392" lon="-4.606314613571945"><ele>167.0</ele><time>2026-04-05T13:50:39.004Z</time></trkpt><trkpt lat="37.699862756771516" lon="-4.606582727993714"><ele>167.0</ele><time>2026-04-05T13:50:40.004Z</time></trkpt><trkpt lat="37.70000700500985" lon="-4.606850586904162"><ele>167.0</ele><time>2026-04-05T13:50:41.004Z</time></trkpt><trkpt lat="37.70015075871685" lon="-4.607123989188684"><ele>167.0</ele><time>2026-04-05T13:50:42.004Z</time></trkpt><trkpt lat="37.70030111402738" lon="-4.607402151000641"><ele>167.0</ele><time>2026-04-05T13:50:43.004Z</time></trkpt><trkpt lat="37.70044860734146" lon="-4.607681428951537"><ele>167.0</ele><time>2026-04-05T13:50:44.004Z</time></trkpt><trkpt lat="37.700593631567116" lon="-4.607958495701493"><ele>167.0</ele><time>2026-04-05T13:50:45.004Z</time></trkpt><trkpt lat="37.700738819002545" lon="-4.608234065453653"><ele>167.0</ele><time>2026-04-05T13:50:46.004Z</time></trkpt><trkpt lat="37.7008829165526" lon="-4.608507682631152"><ele>167.0</ele><time>2026-04-05T13:50:47.004Z</time></trkpt><trkpt lat="37.701028469116274" lon="-4.6087842451526"><ele>167.0</ele><time>2026-04-05T13:50:48.004Z</time></trkpt><trkpt lat="37.701172308321105" lon="-4.609060558928121"><ele>167.0</ele><time>2026-04-05T13:50:49.004Z</time></trkpt><trkpt lat="37.701318186559334" lon="-4.609335459286279"><ele>169.0</ele><time>2026-04-05T13:50:50.004Z</time></trkpt><trkpt lat="37.70146755905067" lon="-4.6096124424298335"><ele>171.0</ele><time>2026-04-05T13:50:51.004Z</time></trkpt><trkpt lat="37.70161028870506" lon="-4.609882963569547"><ele>171.0</ele><time>2026-04-05T13:50:52.004Z</time></trkpt><trkpt lat="37.70175324763681" lon="-4.61015039492186"><ele>171.0</ele><time>2026-04-05T13:50:53.004Z</time></trkpt><trkpt lat="37.70190597641705" lon="-4.610409757409565"><ele>171.5</ele><time>2026-04-05T13:50:54.004Z</time></trkpt><trkpt lat="37.70206751994719" lon="-4.610663759823206"><ele>172.0</ele><time>2026-04-05T13:50:55.004Z</time></trkpt><trkpt lat="37.70224582637209" lon="-4.610905305909303"><ele>172.0</ele><time>2026-04-05T13:50:56.004Z</time></trkpt><trkpt lat="37.702435052912364" lon="-4.6111407168204"><ele>172.0</ele><time>2026-04-05T13:50:57.004Z</time></trkpt><trkpt lat="37.70262245786318" lon="-4.611375460272994"><ele>170.5</ele><time>2026-04-05T13:50:58.004Z</time></trkpt><trkpt lat="37.70280644695744" lon="-4.611620164920667"><ele>169.0</ele><time>2026-04-05T13:50:59.004Z</time></trkpt><trkpt lat="37.7029878539594" lon="-4.611865895161419"><ele>170.5</ele><time>2026-04-05T13:51:00.004Z</time></trkpt><trkpt lat="37.70315988526533" lon="-4.612111378019197"><ele>172.0</ele><time>2026-04-05T13:51:01.004Z</time></trkpt><trkpt lat="37.70332018282983" lon="-4.612370152966282"><ele>172.0</ele><time>2026-04-05T13:51:02.004Z</time></trkpt><trkpt lat="37.70346982010475" lon="-4.612645096692177"><ele>172.0</ele><time>2026-04-05T13:51:03.004Z</time></trkpt><trkpt lat="37.70361582019038" lon="-4.612939908649789"><ele>168.5</ele><time>2026-04-05T13:51:04.004Z</time></trkpt><trkpt lat="37.703756684396524" lon="-4.613241217360933"><ele>165.0</ele><time>2026-04-05T13:51:05.004Z</time></trkpt><trkpt lat="37.703900663417336" lon="-4.6135388861901845"><ele>165.5</ele><time>2026-04-05T13:51:06.004Z</time></trkpt><trkpt lat="37.704045052538234" lon="-4.613835722322977"><ele>166.0</ele><time>2026-04-05T13:51:07.004Z</time></trkpt><trkpt lat="37.70418297613263" lon="-4.614132504333774"><ele>166.0</ele><time>2026-04-05T13:51:08.004Z</time></trkpt><trkpt lat="37.70430903187484" lon="-4.614429916831305"><ele>166.0</ele><time>2026-04-05T13:51:09.004Z</time></trkpt><trkpt lat="37.70440542701988" lon="-4.614733169162885"><ele>166.0</ele><time>2026-04-05T13:51:10.004Z</time></trkpt><trkpt lat="37.704486707500536" lon="-4.615045690014381"><ele>166.0</ele><time>2026-04-05T13:51:11.004Z</time></trkpt><trkpt lat="37.70456458954628" lon="-4.615362172268811"><ele>166.0</ele><time>2026-04-05T13:51:12.004Z</time></trkpt><trkpt lat="37.70464523145656" lon="-4.615680927081157"><ele>166.0</ele><time>2026-04-05T13:51:13.004Z</time></trkpt><trkpt lat="37.70472591368627" lon="-4.615992873096024"><ele>166.0</ele><time>2026-04-05T13:51:14.004Z</time></trkpt><trkpt lat="37.704807284793105" lon="-4.616299381330555"><ele>166.0</ele><time>2026-04-05T13:51:15.004Z</time></trkpt><trkpt lat="37.70488731524966" lon="-4.616606352113374"><ele>166.0</ele><time>2026-04-05T13:51:16.004Z</time></trkpt><trkpt lat="37.7049683989846" lon="-4.616908011075314"><ele>166.0</ele><time>2026-04-05T13:51:17.004Z</time></trkpt><trkpt lat="37.70504775484824" lon="-4.617220946772429"><ele>165.5</ele><time>2026-04-05T13:51:18.004Z</time></trkpt><trkpt lat="37.705126096551766" lon="-4.617532471733595"><ele>165.0</ele><time>2026-04-05T13:51:19.004Z</time></trkpt><trkpt lat="37.70520470200144" lon="-4.617841573633876"><ele>163.5</ele><time>2026-04-05T13:51:20.004Z</time></trkpt><trkpt lat="37.70528950625377" lon="-4.618150926627596"><ele>162.0</ele><time>2026-04-05T13:51:21.004Z</time></trkpt><trkpt lat="37.705381876586664" lon="-4.618457572565049"><ele>162.5</ele><time>2026-04-05T13:51:22.004Z</time></trkpt><trkpt lat="37.70549075169946" lon="-4.61875340404773"><ele>163.0</ele><time>2026-04-05T13:51:23.004Z</time></trkpt><trkpt lat="37.705624502839235" lon="-4.6190382351023676"><ele>163.0</ele><time>2026-04-05T13:51:24.004Z</time></trkpt><trkpt lat="37.70578348748487" lon="-4.6193015468476615"><ele>163.0</ele><time>2026-04-05T13:51:25.004Z</time></trkpt><trkpt lat="37.7059782454745" lon="-4.619537284232506"><ele>164.5</ele><time>2026-04-05T13:51:26.004Z</time></trkpt><trkpt lat="37.706189897210166" lon="-4.619756901027836"><ele>166.0</ele><time>2026-04-05T13:51:27.004Z</time></trkpt><trkpt lat="37.706420528366394" lon="-4.619950273887549"><ele>166.0</ele><time>2026-04-05T13:51:28.004Z</time></trkpt><trkpt lat="37.7066620793683" lon="-4.620127388672313"><ele>166.0</ele><time>2026-04-05T13:51:29.005Z</time></trkpt><trkpt lat="37.706906466330196" lon="-4.620306854062009"><ele>165.5</ele><time>2026-04-05T13:51:30.005Z</time></trkpt><trkpt lat="37.70714917005488" lon="-4.6204935646732395"><ele>165.0</ele><time>2026-04-05T13:51:31.005Z</time></trkpt><trkpt lat="37.70739399497631" lon="-4.620686252065619"><ele>165.0</ele><time>2026-04-05T13:51:32.005Z</time></trkpt><trkpt lat="37.70764106090491" lon="-4.620878377979978"><ele>165.0</ele><time>2026-04-05T13:51:33.005Z</time></trkpt><trkpt lat="37.707883296652255" lon="-4.621067449620909"><ele>165.5</ele><time>2026-04-05T13:51:34.005Z</time></trkpt><trkpt lat="37.70812495628198" lon="-4.621255770204254"><ele>166.0</ele><time>2026-04-05T13:51:35.005Z</time></trkpt><trkpt lat="37.70836208592212" lon="-4.621439716067038"><ele>164.5</ele><time>2026-04-05T13:51:36.005Z</time></trkpt><trkpt lat="37.70859986959662" lon="-4.621621515528181"><ele>163.0</ele><time>2026-04-05T13:51:37.005Z</time></trkpt><trkpt lat="37.70883320258276" lon="-4.621804081622035"><ele>163.5</ele><time>2026-04-05T13:51:38.005Z</time></trkpt><trkpt lat="37.70906361460498" lon="-4.621986648279578"><ele>164.0</ele><time>2026-04-05T13:51:39.005Z</time></trkpt><trkpt lat="37.70928993912553" lon="-4.622166864945746"><ele>163.0</ele><time>2026-04-05T13:51:40.005Z</time></trkpt><trkpt lat="37.70951627342355" lon="-4.622345396014148"><ele>162.0</ele><time>2026-04-05T13:51:41.005Z</time></trkpt><trkpt lat="37.70974285080623" lon="-4.622522208442306"><ele>162.0</ele><time>2026-04-05T13:51:42.005Z</time></trkpt><trkpt lat="37.709967465903105" lon="-4.622696878441664"><ele>162.0</ele><time>2026-04-05T13:51:43.005Z</time></trkpt><trkpt lat="37.71019093656446" lon="-4.622867390431787"><ele>163.5</ele><time>2026-04-05T13:51:44.005Z</time></trkpt><trkpt lat="37.710417394605" lon="-4.6230437331079965"><ele>165.0</ele><time>2026-04-05T13:51:45.005Z</time></trkpt><trkpt lat="37.71063616490142" lon="-4.623219071705534"><ele>165.0</ele><time>2026-04-05T13:51:46.005Z</time></trkpt><trkpt lat="37.71084873859154" lon="-4.623409497632239"><ele>165.0</ele><time>2026-04-05T13:51:47.005Z</time></trkpt><trkpt lat="37.711048500676974" lon="-4.623620691240664"><ele>164.0</ele><time>2026-04-05T13:51:48.005Z</time></trkpt><trkpt lat="37.7112282064615" lon="-4.623865686344633"><ele>163.0</ele><time>2026-04-05T13:51:49.005Z</time></trkpt><trkpt lat="37.711381991520966" lon="-4.62413644197649"><ele>163.0</ele><time>2026-04-05T13:51:50.005Z</time></trkpt><trkpt lat="37.71150792319483" lon="-4.624420927797349"><ele>163.0</ele><time>2026-04-05T13:51:51.005Z</time></trkpt><trkpt lat="37.71160565089237" lon="-4.624724988835338"><ele>164.5</ele><time>2026-04-05T13:51:52.005Z</time></trkpt><trkpt lat="37.71169212325294" lon="-4.625036278338619"><ele>166.0</ele><time>2026-04-05T13:51:53.005Z</time></trkpt><trkpt lat="37.7117719658958" lon="-4.625349289144407"><ele>167.0</ele><time>2026-04-05T13:51:54.005Z</time></trkpt><trkpt lat="37.71185363192715" lon="-4.625674738376588"><ele>168.0</ele><time>2026-04-05T13:51:55.005Z</time></trkpt><trkpt lat="37.711936577269014" lon="-4.625991080335869"><ele>164.5</ele><time>2026-04-05T13:51:56.005Z</time></trkpt><trkpt lat="37.71202151119558" lon="-4.626309260761428"><ele>161.0</ele><time>2026-04-05T13:51:57.005Z</time></trkpt><trkpt lat="37.712108327158205" lon="-4.626626995186793"><ele>161.0</ele><time>2026-04-05T13:51:58.005Z</time></trkpt><trkpt lat="37.71219728133228" lon="-4.626939073440986"><ele>161.0</ele><time>2026-04-05T13:51:59.005Z</time></trkpt><trkpt lat="37.712292076425015" lon="-4.627243889210339"><ele>161.5</ele><time>2026-04-05T13:52:00.005Z</time></trkpt><trkpt lat="37.71240549666937" lon="-4.627532464746245"><ele>162.0</ele><time>2026-04-05T13:52:01.005Z</time></trkpt><trkpt lat="37.71254958455744" lon="-4.627803104243"><ele>163.0</ele><time>2026-04-05T13:52:02.005Z</time></trkpt><trkpt lat="37.71274221969899" lon="-4.628027191877219"><ele>164.0</ele><time>2026-04-05T13:52:03.005Z</time></trkpt><trkpt lat="37.71294456410228" lon="-4.628230645427377"><ele>164.0</ele><time>2026-04-05T13:52:04.005Z</time></trkpt><trkpt lat="37.71316585396461" lon="-4.628404983593204"><ele>164.0</ele><time>2026-04-05T13:52:05.005Z</time></trkpt><trkpt lat="37.71340681653512" lon="-4.628553483065419"><ele>167.0</ele><time>2026-04-05T13:52:06.005Z</time></trkpt><trkpt lat="37.71365201204385" lon="-4.62868414229952"><ele>170.0</ele><time>2026-04-05T13:52:07.005Z</time></trkpt><trkpt lat="37.713872128618114" lon="-4.628801365066225"><ele>170.0</ele><time>2026-04-05T13:52:08.005Z</time></trkpt><trkpt lat="37.71408304097807" lon="-4.628924829422709"><ele>170.0</ele><time>2026-04-05T13:52:09.005Z</time></trkpt><trkpt lat="37.71429517343111" lon="-4.629046181158813"><ele>168.0</ele><time>2026-04-05T13:52:10.005Z</time></trkpt><trkpt lat="37.71450324746913" lon="-4.62916776780208"><ele>166.0</ele><time>2026-04-05T13:52:11.005Z</time></trkpt><trkpt lat="37.714717410271355" lon="-4.629297640659482"><ele>166.0</ele><time>2026-04-05T13:52:12.005Z</time></trkpt><trkpt lat="37.71492957631023" lon="-4.6294218087163514"><ele>166.0</ele><time>2026-04-05T13:52:13.005Z</time></trkpt><trkpt lat="37.71514317780318" lon="-4.629540462842284"><ele>166.5</ele><time>2026-04-05T13:52:14.005Z</time></trkpt><trkpt lat="37.71535974374033" lon="-4.62965284845256"><ele>167.0</ele><time>2026-04-05T13:52:15.005Z</time></trkpt><trkpt lat="37.715577128303266" lon="-4.6297658952868925"><ele>167.0</ele><time>2026-04-05T13:52:16.005Z</time></trkpt><trkpt lat="37.7157945838711" lon="-4.629885933415026"><ele>167.0</ele><time>2026-04-05T13:52:17.005Z</time></trkpt><trkpt lat="37.71600941599582" lon="-4.630018436853517"><ele>165.0</ele><time>2026-04-05T13:52:18.005Z</time></trkpt><trkpt lat="37.71621188176227" lon="-4.6301689379613284"><ele>163.0</ele><time>2026-04-05T13:52:19.005Z</time></trkpt><trkpt lat="37.716403742956274" lon="-4.630343714831866"><ele>163.0</ele><time>2026-04-05T13:52:20.005Z</time></trkpt><trkpt lat="37.716584814132624" lon="-4.630543355198943"><ele>163.0</ele><time>2026-04-05T13:52:21.005Z</time></trkpt><trkpt lat="37.716761404503195" lon="-4.630759111407367"><ele>161.0</ele><time>2026-04-05T13:52:22.005Z</time></trkpt><trkpt lat="37.71693920810879" lon="-4.630978549639306"><ele>159.0</ele><time>2026-04-05T13:52:23.005Z</time></trkpt><trkpt lat="37.7171204451847" lon="-4.631198063991544"><ele>158.5</ele><time>2026-04-05T13:52:24.005Z</time></trkpt><trkpt lat="37.71730013539266" lon="-4.631416559038952"><ele>158.0</ele><time>2026-04-05T13:52:25.005Z</time></trkpt><trkpt lat="37.71748138024902" lon="-4.631637796390085"><ele>158.0</ele><time>2026-04-05T13:52:26.005Z</time></trkpt><trkpt lat="37.71766163163343" lon="-4.63185859134404"><ele>158.0</ele><time>2026-04-05T13:52:27.005Z</time></trkpt><trkpt lat="37.7178431024715" lon="-4.632080921488901"><ele>157.5</ele><time>2026-04-05T13:52:28.005Z</time></trkpt><trkpt lat="37.71802402061548" lon="-4.632303157684038"><ele>157.0</ele><time>2026-04-05T13:52:29.005Z</time></trkpt><trkpt lat="37.71820734595319" lon="-4.632526001532379"><ele>157.0</ele><time>2026-04-05T13:52:30.005Z</time></trkpt><trkpt lat="37.718394621061016" lon="-4.632754295825232"><ele>157.0</ele><time>2026-04-05T13:52:31.005Z</time></trkpt><trkpt lat="37.71858073643269" lon="-4.6329812667939905"><ele>156.5</ele><time>2026-04-05T13:52:32.005Z</time></trkpt><trkpt lat="37.71876632336301" lon="-4.633210664574188"><ele>156.0</ele><time>2026-04-05T13:52:33.005Z</time></trkpt><trkpt lat="37.71895655672681" lon="-4.633443317132023"><ele>155.5</ele><time>2026-04-05T13:52:34.005Z</time></trkpt><trkpt lat="37.719149889495355" lon="-4.633674831672605"><ele>155.0</ele><time>2026-04-05T13:52:35.005Z</time></trkpt><trkpt lat="37.71934484011278" lon="-4.633912808269167"><ele>155.5</ele><time>2026-04-05T13:52:36.005Z</time></trkpt><trkpt lat="37.719542578140064" lon="-4.634150964341488"><ele>156.0</ele><time>2026-04-05T13:52:37.005Z</time></trkpt><trkpt lat="37.719734593947706" lon="-4.634390515682088"><ele>155.5</ele><time>2026-04-05T13:52:38.005Z</time></trkpt><trkpt lat="37.71992944526383" lon="-4.634629488101161"><ele>155.0</ele><time>2026-04-05T13:52:39.005Z</time></trkpt><trkpt lat="37.720122090727266" lon="-4.634865702652151"><ele>155.5</ele><time>2026-04-05T13:52:40.005Z</time></trkpt><trkpt lat="37.72031432380532" lon="-4.635102035048191"><ele>156.0</ele><time>2026-04-05T13:52:41.005Z</time></trkpt><trkpt lat="37.72050620825564" lon="-4.635336982148619"><ele>157.0</ele><time>2026-04-05T13:52:42.005Z</time></trkpt><trkpt lat="37.720699342925926" lon="-4.635566536048242"><ele>158.0</ele><time>2026-04-05T13:52:43.005Z</time></trkpt><trkpt lat="37.7208973664559" lon="-4.635788722242374"><ele>157.5</ele><time>2026-04-05T13:52:44.005Z</time></trkpt><trkpt lat="37.72110707309201" lon="-4.635992475300227"><ele>157.0</ele><time>2026-04-05T13:52:45.005Z</time></trkpt><trkpt lat="37.72133749573562" lon="-4.636174190048691"><ele>157.0</ele><time>2026-04-05T13:52:46.005Z</time></trkpt><trkpt lat="37.721580765065895" lon="-4.636338912078013"><ele>157.0</ele><time>2026-04-05T13:52:47.005Z</time></trkpt><trkpt lat="37.72183070099206" lon="-4.636481958981202"><ele>157.0</ele><time>2026-04-05T13:52:48.005Z</time></trkpt><trkpt lat="37.722087733315206" lon="-4.6366002826490025"><ele>157.0</ele><time>2026-04-05T13:52:49.005Z</time></trkpt><trkpt lat="37.72235053014156" lon="-4.636699250343066"><ele>157.0</ele><time>2026-04-05T13:52:50.005Z</time></trkpt><trkpt lat="37.72261592724957" lon="-4.636791576219544"><ele>157.0</ele><time>2026-04-05T13:52:51.005Z</time></trkpt><trkpt lat="37.722879177338136" lon="-4.636882495915337"><ele>156.5</ele><time>2026-04-05T13:52:52.005Z</time></trkpt><trkpt lat="37.723142835293935" lon="-4.63697174405647"><ele>156.0</ele><time>2026-04-05T13:52:53.005Z</time></trkpt><trkpt lat="37.7234043181915" lon="-4.6370621850142"><ele>155.5</ele><time>2026-04-05T13:52:54.006Z</time></trkpt><trkpt lat="37.72366604661091" lon="-4.637151994867663"><ele>155.0</ele><time>2026-04-05T13:52:55.006Z</time></trkpt><trkpt lat="37.72392258887364" lon="-4.637240530530897"><ele>155.0</ele><time>2026-04-05T13:52:56.006Z</time></trkpt><trkpt lat="37.72417364065179" lon="-4.63732565305175"><ele>155.0</ele><time>2026-04-05T13:52:57.006Z</time></trkpt><trkpt lat="37.72442383258126" lon="-4.637409177085993"><ele>157.0</ele><time>2026-04-05T13:52:58.006Z</time></trkpt><trkpt lat="37.724671038300265" lon="-4.637495993210578"><ele>159.0</ele><time>2026-04-05T13:52:59.006Z</time></trkpt><trkpt lat="37.72491889143072" lon="-4.637580619644468"><ele>159.0</ele><time>2026-04-05T13:53:00.006Z</time></trkpt><trkpt lat="37.72516496906542" lon="-4.637655588227801"><ele>159.0</ele><time>2026-04-05T13:53:01.006Z</time></trkpt><trkpt lat="37.72541507027567" lon="-4.637714941315251"><ele>160.0</ele><time>2026-04-05T13:53:02.006Z</time></trkpt><trkpt lat="37.72566514904041" lon="-4.637749905260179"><ele>161.0</ele><time>2026-04-05T13:53:03.006Z</time></trkpt><trkpt lat="37.72591985547581" lon="-4.6377527207408225"><ele>160.5</ele><time>2026-04-05T13:53:04.006Z</time></trkpt><trkpt lat="37.726173541403675" lon="-4.6377095736028275"><ele>160.0</ele><time>2026-04-05T13:53:05.006Z</time></trkpt><trkpt lat="37.72642637105713" lon="-4.637631215805356"><ele>160.0</ele><time>2026-04-05T13:53:06.006Z</time></trkpt><trkpt lat="37.72667232203954" lon="-4.6375179319287225"><ele>160.0</ele><time>2026-04-05T13:53:07.006Z</time></trkpt><trkpt lat="37.72691098549993" lon="-4.63736980462396"><ele>159.5</ele><time>2026-04-05T13:53:08.006Z</time></trkpt><trkpt lat="37.72714271241159" lon="-4.637203740495301"><ele>159.0</ele><time>2026-04-05T13:53:09.006Z</time></trkpt><trkpt lat="37.72738133070619" lon="-4.637036551605544"><ele>159.0</ele><time>2026-04-05T13:53:10.006Z</time></trkpt><trkpt lat="37.72761876768533" lon="-4.636869705265898"><ele>159.0</ele><time>2026-04-05T13:53:11.006Z</time></trkpt><trkpt lat="37.7278605660515" lon="-4.636703992062252"><ele>159.0</ele><time>2026-04-05T13:53:12.006Z</time></trkpt><trkpt lat="37.72810078796338" lon="-4.6365360612764235"><ele>159.0</ele><time>2026-04-05T13:53:13.006Z</time></trkpt><trkpt lat="37.72833856170305" lon="-4.63636703385598"><ele>160.0</ele><time>2026-04-05T13:53:14.006Z</time></trkpt><trkpt lat="37.72857266070309" lon="-4.636202544346892"><ele>161.0</ele><time>2026-04-05T13:53:15.006Z</time></trkpt><trkpt lat="37.7288041585126" lon="-4.636042256447203"><ele>161.5</ele><time>2026-04-05T13:53:16.006Z</time></trkpt><trkpt lat="37.72903220876828" lon="-4.6358845996785005"><ele>162.0</ele><time>2026-04-05T13:53:17.006Z</time></trkpt><trkpt lat="37.72925111353695" lon="-4.635710039420554"><ele>166.0</ele><time>2026-04-05T13:53:18.006Z</time></trkpt><trkpt lat="37.729476472476556" lon="-4.635574976946067"><ele>170.0</ele><time>2026-04-05T13:53:19.006Z</time></trkpt><trkpt lat="37.7296940057258" lon="-4.63542145757105"><ele>169.5</ele><time>2026-04-05T13:53:20.006Z</time></trkpt><trkpt lat="37.729912511717146" lon="-4.635283471099899"><ele>169.0</ele><time>2026-04-05T13:53:21.006Z</time></trkpt><trkpt lat="37.73013521875399" lon="-4.635167149326311"><ele>172.5</ele><time>2026-04-05T13:53:22.006Z</time></trkpt><trkpt lat="37.730362966014056" lon="-4.6350842318887935"><ele>176.0</ele><time>2026-04-05T13:53:23.006Z</time></trkpt><trkpt lat="37.730592278419444" lon="-4.635042419434481"><ele>176.0</ele><time>2026-04-05T13:53:24.006Z</time></trkpt><trkpt lat="37.73082060298802" lon="-4.635043446405104"><ele>176.0</ele><time>2026-04-05T13:53:25.006Z</time></trkpt><trkpt lat="37.73104397158494" lon="-4.635082657471998"><ele>176.66666666666666</ele><time>2026-04-05T13:53:26.006Z</time></trkpt><trkpt lat="37.73125946981305" lon="-4.6351495497833515"><ele>177.33333333333334</ele><time>2026-04-05T13:53:27.006Z</time></trkpt><trkpt lat="37.731457882406474" lon="-4.63524298085498"><ele>178.0</ele><time>2026-04-05T13:53:28.006Z</time></trkpt><trkpt lat="37.731640421476385" lon="-4.63535518738029"><ele>180.66666666666669</ele><time>2026-04-05T13:53:29.006Z</time></trkpt><trkpt lat="37.731803048085176" lon="-4.635488879864838"><ele>183.33333333333334</ele><time>2026-04-05T13:53:30.006Z</time></trkpt><trkpt lat="37.7319521381067" lon="-4.6356361757175835"><ele>186.0</ele><time>2026-04-05T13:53:31.006Z</time></trkpt><trkpt lat="37.73209148928113" lon="-4.635788668228589"><ele>186.66666666666666</ele><time>2026-04-05T13:53:32.006Z</time></trkpt><trkpt lat="37.7322276559055" lon="-4.635946655275656"><ele>187.33333333333331</ele><time>2026-04-05T13:53:33.006Z</time></trkpt><trkpt lat="37.732358818324435" lon="-4.6361001235216905"><ele>188.0</ele><time>2026-04-05T13:53:34.006Z</time></trkpt><trkpt lat="37.73249041816039" lon="-4.636254901765823"><ele>188.0</ele><time>2026-04-05T13:53:35.006Z</time></trkpt><trkpt lat="37.73262303404922" lon="-4.636404404211201"><ele>188.0</ele><time>2026-04-05T13:53:36.006Z</time></trkpt><trkpt lat="37.7327545147339" lon="-4.636560639065331"><ele>188.0</ele><time>2026-04-05T13:53:37.006Z</time></trkpt><trkpt lat="37.73288757187022" lon="-4.6367240541071135"><ele>188.33333333333331</ele><time>2026-04-05T13:53:38.006Z</time></trkpt><trkpt lat="37.73302450015368" lon="-4.636894565643802"><ele>188.66666666666666</ele><time>2026-04-05T13:53:39.006Z</time></trkpt><trkpt lat="37.73316311551766" lon="-4.6370630034028935"><ele>189.0</ele><time>2026-04-05T13:53:40.006Z</time></trkpt><trkpt lat="37.73330516196357" lon="-4.637233246514633"><ele>188.33333333333334</ele><time>2026-04-05T13:53:41.006Z</time></trkpt><trkpt lat="37.7334498282307" lon="-4.637400175161546"><ele>187.66666666666669</ele><time>2026-04-05T13:53:42.006Z</time></trkpt><trkpt lat="37.73359678131064" lon="-4.637572351341308"><ele>187.0</ele><time>2026-04-05T13:53:43.006Z</time></trkpt><trkpt lat="37.73374414420979" lon="-4.637742681350526"><ele>187.66666666666669</ele><time>2026-04-05T13:53:44.006Z</time></trkpt><trkpt lat="37.733890543445476" lon="-4.637917985414805"><ele>188.33333333333334</ele><time>2026-04-05T13:53:45.006Z</time></trkpt><trkpt lat="37.73403763351032" lon="-4.638098326749273"><ele>189.0</ele><time>2026-04-05T13:53:46.006Z</time></trkpt><trkpt lat="37.73418403250474" lon="-4.638287474138129"><ele>189.0</ele><time>2026-04-05T13:53:47.006Z</time></trkpt><trkpt lat="37.73431098971717" lon="-4.638497745253867"><ele>189.0</ele><time>2026-04-05T13:53:48.006Z</time></trkpt><trkpt lat="37.73440491405275" lon="-4.638735783155768"><ele>189.0</ele><time>2026-04-05T13:53:49.006Z</time></trkpt><trkpt lat="37.734470385693676" lon="-4.638994921823614"><ele>188.66666666666666</ele><time>2026-04-05T13:53:50.006Z</time></trkpt><trkpt lat="37.73452628736413" lon="-4.639262642580835"><ele>188.33333333333331</ele><time>2026-04-05T13:53:51.006Z</time></trkpt><trkpt lat="37.73458017152681" lon="-4.639536125269414"><ele>188.0</ele><time>2026-04-05T13:53:52.006Z</time></trkpt><trkpt lat="37.73463961154785" lon="-4.639820686732971"><ele>188.0</ele><time>2026-04-05T13:53:53.006Z</time></trkpt><trkpt lat="37.734697699002616" lon="-4.640113811878686"><ele>188.0</ele><time>2026-04-05T13:53:54.006Z</time></trkpt><trkpt lat="37.734753629808516" lon="-4.6404113115085535"><ele>187.0</ele><time>2026-04-05T13:53:55.006Z</time></trkpt><trkpt lat="37.734809807116456" lon="-4.640708939714333"><ele>186.0</ele><time>2026-04-05T13:53:56.006Z</time></trkpt><trkpt lat="37.734867644299584" lon="-4.641006849913657"><ele>184.5</ele><time>2026-04-05T13:53:57.006Z</time></trkpt><trkpt lat="37.734926899661204" lon="-4.641302867017081"><ele>183.0</ele><time>2026-04-05T13:53:58.006Z</time></trkpt><trkpt lat="37.73498619082707" lon="-4.641596678611069"><ele>183.0</ele><time>2026-04-05T13:53:59.006Z</time></trkpt><trkpt lat="37.73504587207575" lon="-4.641885306265238"><ele>183.0</ele><time>2026-04-05T13:54:00.006Z</time></trkpt><trkpt lat="37.73510875347088" lon="-4.642170508791834"><ele>183.5</ele><time>2026-04-05T13:54:01.006Z</time></trkpt><trkpt lat="37.73517681202833" lon="-4.642453698491268"><ele>184.0</ele><time>2026-04-05T13:54:02.006Z</time></trkpt><trkpt lat="37.735253183376074" lon="-4.64273277910838"><ele>185.5</ele><time>2026-04-05T13:54:03.006Z</time></trkpt><trkpt lat="37.73535769754232" lon="-4.642999317372079"><ele>187.0</ele><time>2026-04-05T13:54:04.006Z</time></trkpt><trkpt lat="37.735488458611144" lon="-4.643247960272683"><ele>187.0</ele><time>2026-04-05T13:54:05.006Z</time></trkpt><trkpt lat="37.73562800628851" lon="-4.6434971710198765"><ele>187.0</ele><time>2026-04-05T13:54:06.006Z</time></trkpt><trkpt lat="37.735766996481686" lon="-4.6437509071334535"><ele>187.0</ele><time>2026-04-05T13:54:07.006Z</time></trkpt><trkpt lat="37.735910828901396" lon="-4.644012974377679"><ele>187.0</ele><time>2026-04-05T13:54:08.006Z</time></trkpt><trkpt lat="37.73605758981974" lon="-4.64427714208683"><ele>185.5</ele><time>2026-04-05T13:54:09.006Z</time></trkpt><trkpt lat="37.736208563407715" lon="-4.644545293737645"><ele>184.0</ele><time>2026-04-05T13:54:10.006Z</time></trkpt><trkpt lat="37.736365184656606" lon="-4.6448197875950585"><ele>184.0</ele><time>2026-04-05T13:54:11.006Z</time></trkpt><trkpt lat="37.73651978631854" lon="-4.645095920041759"><ele>184.0</ele><time>2026-04-05T13:54:12.006Z</time></trkpt><trkpt lat="37.73666932540675" lon="-4.645362679534055"><ele>182.5</ele><time>2026-04-05T13:54:13.006Z</time></trkpt><trkpt lat="37.73681823475782" lon="-4.645627165836464"><ele>181.0</ele><time>2026-04-05T13:54:14.006Z</time></trkpt><trkpt lat="37.73696352102102" lon="-4.645883496171928"><ele>182.5</ele><time>2026-04-05T13:54:15.006Z</time></trkpt><trkpt lat="37.73710673115854" lon="-4.646136965587471"><ele>184.0</ele><time>2026-04-05T13:54:16.006Z</time></trkpt><trkpt lat="37.73725198821659" lon="-4.646390124136564"><ele>184.0</ele><time>2026-04-05T13:54:17.006Z</time></trkpt><trkpt lat="37.73739566398954" lon="-4.646645344180491"><ele>184.0</ele><time>2026-04-05T13:54:18.006Z</time></trkpt><trkpt lat="37.73753782104705" lon="-4.646901139848868"><ele>184.5</ele><time>2026-04-05T13:54:19.007Z</time></trkpt><trkpt lat="37.73768167979924" lon="-4.647154523859799"><ele>185.0</ele><time>2026-04-05T13:54:20.007Z</time></trkpt><trkpt lat="37.737823982915494" lon="-4.647411499568399"><ele>185.0</ele><time>2026-04-05T13:54:21.007Z</time></trkpt><trkpt lat="37.73796780446318" lon="-4.64767153330503"><ele>185.0</ele><time>2026-04-05T13:54:22.007Z</time></trkpt><trkpt lat="37.7381123275821" lon="-4.647934212070444"><ele>184.5</ele><time>2026-04-05T13:54:23.007Z</time></trkpt><trkpt lat="37.73825876460748" lon="-4.6481982228827805"><ele>184.0</ele><time>2026-04-05T13:54:24.007Z</time></trkpt><trkpt lat="37.738405994896276" lon="-4.648462842783011"><ele>184.0</ele><time>2026-04-05T13:54:25.007Z</time></trkpt><trkpt lat="37.738554322623834" lon="-4.6487272549691365"><ele>184.0</ele><time>2026-04-05T13:54:26.007Z</time></trkpt><trkpt lat="37.738704112027314" lon="-4.649003431513579"><ele>184.0</ele><time>2026-04-05T13:54:27.007Z</time></trkpt><trkpt lat="37.73885494751206" lon="-4.6492782677890085"><ele>184.0</ele><time>2026-04-05T13:54:28.007Z</time></trkpt><trkpt lat="37.7390087077325" lon="-4.649550990437026"><ele>183.0</ele><time>2026-04-05T13:54:29.007Z</time></trkpt><trkpt lat="37.73916694833288" lon="-4.649819110303821"><ele>182.0</ele><time>2026-04-05T13:54:30.007Z</time></trkpt><trkpt lat="37.739330501077724" lon="-4.65007397778584"><ele>182.0</ele><time>2026-04-05T13:54:31.007Z</time></trkpt><trkpt lat="37.739514159480834" lon="-4.650307413012923"><ele>182.0</ele><time>2026-04-05T13:54:32.007Z</time></trkpt><trkpt lat="37.739711716283516" lon="-4.650509786374469"><ele>182.0</ele><time>2026-04-05T13:54:33.007Z</time></trkpt><trkpt lat="37.73992369477156" lon="-4.650682783403017"><ele>182.0</ele><time>2026-04-05T13:54:34.007Z</time></trkpt><trkpt lat="37.74016100025047" lon="-4.650843564223516"><ele>182.0</ele><time>2026-04-05T13:54:35.007Z</time></trkpt><trkpt lat="37.74040774552626" lon="-4.650996885913075"><ele>182.0</ele><time>2026-04-05T13:54:36.007Z</time></trkpt><trkpt lat="37.740658762557814" lon="-4.6511474247060205"><ele>179.5</ele><time>2026-04-05T13:54:37.007Z</time></trkpt><trkpt lat="37.740911405101336" lon="-4.651299126850684"><ele>177.0</ele><time>2026-04-05T13:54:38.007Z</time></trkpt><trkpt lat="37.74116451905443" lon="-4.651452077882209"><ele>176.5</ele><time>2026-04-05T13:54:39.007Z</time></trkpt><trkpt lat="37.74141689489312" lon="-4.6516058407004435"><ele>176.0</ele><time>2026-04-05T13:54:40.007Z</time></trkpt><trkpt lat="37.74166672273159" lon="-4.651760647276712"><ele>176.5</ele><time>2026-04-05T13:54:41.007Z</time></trkpt><trkpt lat="37.74191821444525" lon="-4.651913600837266"><ele>177.0</ele><time>2026-04-05T13:54:42.007Z</time></trkpt><trkpt lat="37.74217179369583" lon="-4.652065439919596"><ele>175.0</ele><time>2026-04-05T13:54:43.007Z</time></trkpt><trkpt lat="37.74242611106885" lon="-4.652215133177409"><ele>173.0</ele><time>2026-04-05T13:54:44.007Z</time></trkpt><trkpt lat="37.74268304434897" lon="-4.652362417002665"><ele>175.0</ele><time>2026-04-05T13:54:45.007Z</time></trkpt><trkpt lat="37.74294123868824" lon="-4.652514351603381"><ele>177.0</ele><time>2026-04-05T13:54:46.007Z</time></trkpt><trkpt lat="37.7431971638149" lon="-4.652667943720209"><ele>175.0</ele><time>2026-04-05T13:54:47.007Z</time></trkpt><trkpt lat="37.743455202318835" lon="-4.652821401738157"><ele>173.0</ele><time>2026-04-05T13:54:48.007Z</time></trkpt><trkpt lat="37.7437120716396" lon="-4.652979223024048"><ele>173.0</ele><time>2026-04-05T13:54:49.007Z</time></trkpt><trkpt lat="37.74397242136106" lon="-4.653140213464986"><ele>173.0</ele><time>2026-04-05T13:54:50.007Z</time></trkpt><trkpt lat="37.74423275211802" lon="-4.653300599688315"><ele>170.5</ele><time>2026-04-05T13:54:51.007Z</time></trkpt><trkpt lat="37.7444914054527" lon="-4.653458868656158"><ele>168.0</ele><time>2026-04-05T13:54:52.007Z</time></trkpt><trkpt lat="37.74474891705915" lon="-4.653614065102573"><ele>167.0</ele><time>2026-04-05T13:54:53.007Z</time></trkpt><trkpt lat="37.74500544141045" lon="-4.653767680826978"><ele>166.0</ele><time>2026-04-05T13:54:54.007Z</time></trkpt><trkpt lat="37.74526574533395" lon="-4.653921179292202"><ele>165.0</ele><time>2026-04-05T13:54:55.007Z</time></trkpt><trkpt lat="37.74552041544909" lon="-4.654077597611462"><ele>164.0</ele><time>2026-04-05T13:54:56.007Z</time></trkpt><trkpt lat="37.745770242843946" lon="-4.654238947899495"><ele>164.0</ele><time>2026-04-05T13:54:57.007Z</time></trkpt><trkpt lat="37.74602059484655" lon="-4.654413761562973"><ele>164.0</ele><time>2026-04-05T13:54:58.007Z</time></trkpt><trkpt lat="37.74625910753536" lon="-4.654602971551618"><ele>168.5</ele><time>2026-04-05T13:54:59.007Z</time></trkpt><trkpt lat="37.7464873942436" lon="-4.654805283688164"><ele>173.0</ele><time>2026-04-05T13:55:00.007Z</time></trkpt><trkpt lat="37.746698366556004" lon="-4.655025752452585"><ele>174.0</ele><time>2026-04-05T13:55:01.007Z</time></trkpt><trkpt lat="37.746901816214354" lon="-4.655255432222907"><ele>175.0</ele><time>2026-04-05T13:55:02.007Z</time></trkpt><trkpt lat="37.747104932812036" lon="-4.65548346334439"><ele>175.0</ele><time>2026-04-05T13:55:03.007Z</time></trkpt><trkpt lat="37.747308874049956" lon="-4.655708265653598"><ele>175.0</ele><time>2026-04-05T13:55:04.007Z</time></trkpt><trkpt lat="37.747510599534806" lon="-4.655930279663422"><ele>175.0</ele><time>2026-04-05T13:55:05.007Z</time></trkpt><trkpt lat="37.74770975898478" lon="-4.656150567050412"><ele>175.0</ele><time>2026-04-05T13:55:06.007Z</time></trkpt><trkpt lat="37.747906205454264" lon="-4.656367377810518"><ele>175.0</ele><time>2026-04-05T13:55:07.007Z</time></trkpt><trkpt lat="37.74809895613047" lon="-4.6565822840966025"><ele>175.0</ele><time>2026-04-05T13:55:08.007Z</time></trkpt><trkpt lat="37.748293765684096" lon="-4.65678981274684"><ele>174.5</ele><time>2026-04-05T13:55:09.007Z</time></trkpt><trkpt lat="37.74849062654145" lon="-4.656977755514738"><ele>174.0</ele><time>2026-04-05T13:55:10.007Z</time></trkpt><trkpt lat="37.748697899603314" lon="-4.657137785703722"><ele>174.0</ele><time>2026-04-05T13:55:11.007Z</time></trkpt><trkpt lat="37.74890990821492" lon="-4.6572604440048035"><ele>174.0</ele><time>2026-04-05T13:55:12.007Z</time></trkpt><trkpt lat="37.74912874238637" lon="-4.657356961233004"><ele>174.0</ele><time>2026-04-05T13:55:13.007Z</time></trkpt><trkpt lat="37.74935344574095" lon="-4.657430457883844"><ele>174.0</ele><time>2026-04-05T13:55:14.007Z</time></trkpt><trkpt lat="37.74958076058379" lon="-4.6574690634357365"><ele>174.0</ele><time>2026-04-05T13:55:15.007Z</time></trkpt><trkpt lat="37.74981279082363" lon="-4.657471881055767"><ele>174.0</ele><time>2026-04-05T13:55:16.007Z</time></trkpt><trkpt lat="37.750044911927006" lon="-4.657440207481108"><ele>174.5</ele><time>2026-04-05T13:55:17.007Z</time></trkpt><trkpt lat="37.75027270040319" lon="-4.657382862937504"><ele>175.0</ele><time>2026-04-05T13:55:18.007Z</time></trkpt><trkpt lat="37.750488267744274" lon="-4.657278833478588"><ele>175.0</ele><time>2026-04-05T13:55:19.007Z</time></trkpt><trkpt lat="37.75069689049217" lon="-4.657171120166151"><ele>175.0</ele><time>2026-04-05T13:55:20.007Z</time></trkpt><trkpt lat="37.75090013104672" lon="-4.657053224239804"><ele>175.0</ele><time>2026-04-05T13:55:21.007Z</time></trkpt><trkpt lat="37.75110745048503" lon="-4.656931092584402"><ele>175.5</ele><time>2026-04-05T13:55:22.007Z</time></trkpt><trkpt lat="37.75133683026094" lon="-4.656816412926412"><ele>176.0</ele><time>2026-04-05T13:55:23.007Z</time></trkpt><trkpt lat="37.75156399000187" lon="-4.656659345243946"><ele>176.0</ele><time>2026-04-05T13:55:24.007Z</time></trkpt><trkpt lat="37.751801210390006" lon="-4.6565181440289605"><ele>176.0</ele><time>2026-04-05T13:55:25.007Z</time></trkpt><trkpt lat="37.752039085699685" lon="-4.6563765516876465"><ele>175.5</ele><time>2026-04-05T13:55:26.007Z</time></trkpt><trkpt lat="37.7522781680203" lon="-4.656234242106317"><ele>175.0</ele><time>2026-04-05T13:55:27.007Z</time></trkpt><trkpt lat="37.75251903957679" lon="-4.656089740720346"><ele>176.5</ele><time>2026-04-05T13:55:28.007Z</time></trkpt><trkpt lat="37.752763963031846" lon="-4.655940523824727"><ele>178.0</ele><time>2026-04-05T13:55:29.007Z</time></trkpt><trkpt lat="37.75301041864391" lon="-4.655807934636866"><ele>178.0</ele><time>2026-04-05T13:55:30.007Z</time></trkpt><trkpt lat="37.75324926347979" lon="-4.655658677599268"><ele>178.0</ele><time>2026-04-05T13:55:31.007Z</time></trkpt><trkpt lat="37.75348995743765" lon="-4.655507937728903"><ele>178.5</ele><time>2026-04-05T13:55:32.007Z</time></trkpt><trkpt lat="37.75373284160625" lon="-4.6553600470627075"><ele>179.0</ele><time>2026-04-05T13:55:33.007Z</time></trkpt><trkpt lat="37.7539695391224" lon="-4.655218815400808"><ele>179.5</ele><time>2026-04-05T13:55:34.007Z</time></trkpt><trkpt lat="37.75420318011414" lon="-4.6550839883092285"><ele>180.0</ele><time>2026-04-05T13:55:35.007Z</time></trkpt><trkpt lat="37.754440115272224" lon="-4.654967298462257"><ele>180.0</ele><time>2026-04-05T13:55:36.007Z</time></trkpt><trkpt lat="37.75468735207182" lon="-4.654890008997605"><ele>180.0</ele><time>2026-04-05T13:55:37.007Z</time></trkpt><trkpt lat="37.75493531105098" lon="-4.6548488193371345"><ele>180.0</ele><time>2026-04-05T13:55:38.007Z</time></trkpt><trkpt lat="37.75518426945612" lon="-4.654838064471794"><ele>180.0</ele><time>2026-04-05T13:55:39.007Z</time></trkpt><trkpt lat="37.75543452162321" lon="-4.654862292381083"><ele>178.0</ele><time>2026-04-05T13:55:40.007Z</time></trkpt><trkpt lat="37.755680351050366" lon="-4.65492156109147"><ele>176.0</ele><time>2026-04-05T13:55:41.007Z</time></trkpt><trkpt lat="37.755921782326496" lon="-4.6550148423043165"><ele>176.5</ele><time>2026-04-05T13:55:42.007Z</time></trkpt><trkpt lat="37.756155521911346" lon="-4.655143382810115"><ele>177.0</ele><time>2026-04-05T13:55:43.008Z</time></trkpt><trkpt lat="37.756381459726825" lon="-4.655300507183411"><ele>176.0</ele><time>2026-04-05T13:55:44.008Z</time></trkpt><trkpt lat="37.756600323156874" lon="-4.655476408861311"><ele>175.0</ele><time>2026-04-05T13:55:45.008Z</time></trkpt><trkpt lat="37.75681618749013" lon="-4.655660689007744"><ele>178.0</ele><time>2026-04-05T13:55:46.008Z</time></trkpt><trkpt lat="37.75703522833916" lon="-4.655847859893707"><ele>181.0</ele><time>2026-04-05T13:55:47.008Z</time></trkpt><trkpt lat="37.75725382303526" lon="-4.656033361457795"><ele>180.0</ele><time>2026-04-05T13:55:48.008Z</time></trkpt><trkpt lat="37.75747510876802" lon="-4.656217934882925"><ele>179.0</ele><time>2026-04-05T13:55:49.008Z</time></trkpt><trkpt lat="37.75769740307506" lon="-4.656405007226441"><ele>180.0</ele><time>2026-04-05T13:55:50.008Z</time></trkpt><trkpt lat="37.75792242440473" lon="-4.65659118337581"><ele>181.0</ele><time>2026-04-05T13:55:51.008Z</time></trkpt><trkpt lat="37.75814090534724" lon="-4.656774556582969"><ele>181.0</ele><time>2026-04-05T13:55:52.008Z</time></trkpt><trkpt lat="37.75835653899301" lon="-4.656951852317562"><ele>181.0</ele><time>2026-04-05T13:55:53.008Z</time></trkpt><trkpt lat="37.75856957822998" lon="-4.65713471293631"><ele>182.0</ele><time>2026-04-05T13:55:54.008Z</time></trkpt><trkpt lat="37.758773347483725" lon="-4.657330001000044"><ele>183.0</ele><time>2026-04-05T13:55:55.008Z</time></trkpt><trkpt lat="37.7589599496587" lon="-4.657540004705513"><ele>183.0</ele><time>2026-04-05T13:55:56.008Z</time></trkpt><trkpt lat="37.75912124745922" lon="-4.6577740938882055"><ele>183.0</ele><time>2026-04-05T13:55:57.008Z</time></trkpt><trkpt lat="37.75926355955345" lon="-4.658030470706729"><ele>179.5</ele><time>2026-04-05T13:55:58.008Z</time></trkpt><trkpt lat="37.75938711169994" lon="-4.658302444022029"><ele>176.0</ele><time>2026-04-05T13:55:59.008Z</time></trkpt><trkpt lat="37.75948842107654" lon="-4.658595013478117"><ele>175.5</ele><time>2026-04-05T13:56:00.008Z</time></trkpt><trkpt lat="37.75956648941534" lon="-4.658900334658474"><ele>175.0</ele><time>2026-04-05T13:56:01.008Z</time></trkpt><trkpt lat="37.75962506934495" lon="-4.659222101378945"><ele>175.0</ele><time>2026-04-05T13:56:02.008Z</time></trkpt><trkpt lat="37.75967376950138" lon="-4.6595553895822714"><ele>175.0</ele><time>2026-04-05T13:56:03.008Z</time></trkpt><trkpt lat="37.75972196930992" lon="-4.659903477090267"><ele>175.0</ele><time>2026-04-05T13:56:04.008Z</time></trkpt><trkpt lat="37.75977399356244" lon="-4.66025529630848"><ele>175.0</ele><time>2026-04-05T13:56:05.008Z</time></trkpt><trkpt lat="37.75982570527807" lon="-4.660596579891251"><ele>175.0</ele><time>2026-04-05T13:56:06.008Z</time></trkpt><trkpt lat="37.759874082540065" lon="-4.660931820348899"><ele>175.0</ele><time>2026-04-05T13:56:07.008Z</time></trkpt><trkpt lat="37.75991564978554" lon="-4.661260487951812"><ele>174.5</ele><time>2026-04-05T13:56:08.008Z</time></trkpt><trkpt lat="37.759942380737954" lon="-4.661580794662224"><ele>174.0</ele><time>2026-04-05T13:56:09.008Z</time></trkpt><trkpt lat="37.75994109846517" lon="-4.661903767509027"><ele>173.0</ele><time>2026-04-05T13:56:10.008Z</time></trkpt><trkpt lat="37.75991913546952" lon="-4.662231383185127"><ele>172.0</ele><time>2026-04-05T13:56:11.008Z</time></trkpt><trkpt lat="37.759884485213895" lon="-4.662565334639142"><ele>170.0</ele><time>2026-04-05T13:56:12.008Z</time></trkpt><trkpt lat="37.75984737462994" lon="-4.662898897772583"><ele>168.0</ele><time>2026-04-05T13:56:13.008Z</time></trkpt><trkpt lat="37.75980835605981" lon="-4.663229743100212"><ele>168.0</ele><time>2026-04-05T13:56:14.008Z</time></trkpt><trkpt lat="37.75977133457077" lon="-4.6635567373245586"><ele>168.0</ele><time>2026-04-05T13:56:15.008Z</time></trkpt><trkpt lat="37.75973280543483" lon="-4.6638796515758125"><ele>166.5</ele><time>2026-04-05T13:56:16.008Z</time></trkpt><trkpt lat="37.75969482268012" lon="-4.664201779513458"><ele>165.0</ele><time>2026-04-05T13:56:17.008Z</time></trkpt><trkpt lat="37.75966336203205" lon="-4.664525912781599"><ele>163.0</ele><time>2026-04-05T13:56:18.008Z</time></trkpt><trkpt lat="37.7596445363307" lon="-4.664852866067161"><ele>161.0</ele><time>2026-04-05T13:56:19.008Z</time></trkpt><trkpt lat="37.75965049976181" lon="-4.66516832796319"><ele>159.5</ele><time>2026-04-05T13:56:20.008Z</time></trkpt><trkpt lat="37.7596939102992" lon="-4.665482342489665"><ele>158.0</ele><time>2026-04-05T13:56:21.008Z</time></trkpt><trkpt lat="37.759763377702505" lon="-4.665780242006691"><ele>158.0</ele><time>2026-04-05T13:56:22.008Z</time></trkpt><trkpt lat="37.75984846340087" lon="-4.666083762058177"><ele>158.0</ele><time>2026-04-05T13:56:23.008Z</time></trkpt><trkpt lat="37.75993708888304" lon="-4.666396486353019"><ele>157.0</ele><time>2026-04-05T13:56:24.008Z</time></trkpt><trkpt lat="37.760037003341374" lon="-4.66670276379825"><ele>156.0</ele><time>2026-04-05T13:56:25.008Z</time></trkpt><trkpt lat="37.760130999112874" lon="-4.6670115494112165"><ele>159.0</ele><time>2026-04-05T13:56:26.008Z</time></trkpt><trkpt lat="37.760231167367444" lon="-4.667309083094562"><ele>162.0</ele><time>2026-04-05T13:56:27.008Z</time></trkpt><trkpt lat="37.76033134149408" lon="-4.6676045605020535"><ele>159.0</ele><time>2026-04-05T13:56:28.008Z</time></trkpt><trkpt lat="37.76048494773476" lon="-4.667859556361192"><ele>156.0</ele><time>2026-04-05T13:56:29.008Z</time></trkpt><trkpt lat="37.76064483401211" lon="-4.668097023106923"><ele>156.0</ele><time>2026-04-05T13:56:30.008Z</time></trkpt><trkpt lat="37.7608267044511" lon="-4.668312246728491"><ele>156.0</ele><time>2026-04-05T13:56:31.008Z</time></trkpt><trkpt lat="37.761022422962924" lon="-4.668516731494156"><ele>154.5</ele><time>2026-04-05T13:56:32.008Z</time></trkpt><trkpt lat="37.76124751238889" lon="-4.66868777839926"><ele>153.0</ele><time>2026-04-05T13:56:33.008Z</time></trkpt><trkpt lat="37.76148630418678" lon="-4.668847621923307"><ele>153.0</ele><time>2026-04-05T13:56:34.008Z</time></trkpt><trkpt lat="37.76173407464214" lon="-4.669008846926549"><ele>153.0</ele><time>2026-04-05T13:56:35.008Z</time></trkpt><trkpt lat="37.761983288781316" lon="-4.66917335497363"><ele>153.5</ele><time>2026-04-05T13:56:36.008Z</time></trkpt><trkpt lat="37.762235136725145" lon="-4.669340562859785"><ele>154.0</ele><time>2026-04-05T13:56:37.008Z</time></trkpt><trkpt lat="37.762488292474224" lon="-4.669506871078409"><ele>153.5</ele><time>2026-04-05T13:56:38.008Z</time></trkpt><trkpt lat="37.76273650179674" lon="-4.669675144720054"><ele>153.0</ele><time>2026-04-05T13:56:39.008Z</time></trkpt><trkpt lat="37.762984288156" lon="-4.669840548938021"><ele>153.0</ele><time>2026-04-05T13:56:40.008Z</time></trkpt><trkpt lat="37.76322938877611" lon="-4.670003192162731"><ele>153.0</ele><time>2026-04-05T13:56:41.008Z</time></trkpt><trkpt lat="37.76346842727831" lon="-4.670163608695094"><ele>152.5</ele><time>2026-04-05T13:56:42.008Z</time></trkpt><trkpt lat="37.763706378728976" lon="-4.670323838360788"><ele>152.0</ele><time>2026-04-05T13:56:43.008Z</time></trkpt><trkpt lat="37.763945147743016" lon="-4.670488216695733"><ele>152.0</ele><time>2026-04-05T13:56:44.008Z</time></trkpt><trkpt lat="37.764178106650014" lon="-4.670661519687565"><ele>152.0</ele><time>2026-04-05T13:56:45.008Z</time></trkpt><trkpt lat="37.76439844841698" lon="-4.670859233006096"><ele>152.5</ele><time>2026-04-05T13:56:46.008Z</time></trkpt><trkpt lat="37.764602656193084" lon="-4.671084122263374"><ele>153.0</ele><time>2026-04-05T13:56:47.008Z</time></trkpt><trkpt lat="37.76479776891931" lon="-4.671324615194767"><ele>153.0</ele><time>2026-04-05T13:56:48.008Z</time></trkpt><trkpt lat="37.76498998618105" lon="-4.671563743076702"><ele>153.0</ele><time>2026-04-05T13:56:49.008Z</time></trkpt><trkpt lat="37.765183577832865" lon="-4.671807315996085"><ele>151.5</ele><time>2026-04-05T13:56:50.008Z</time></trkpt><trkpt lat="37.76537694841981" lon="-4.672052354961327"><ele>150.0</ele><time>2026-04-05T13:56:51.008Z</time></trkpt><trkpt lat="37.765570185289825" lon="-4.672297039241081"><ele>150.0</ele><time>2026-04-05T13:56:52.008Z</time></trkpt><trkpt lat="37.765767018320794" lon="-4.672541134910795"><ele>150.0</ele><time>2026-04-05T13:56:53.008Z</time></trkpt><trkpt lat="37.765962742387096" lon="-4.672787306714842"><ele>149.0</ele><time>2026-04-05T13:56:54.008Z</time></trkpt><trkpt lat="37.76616091859419" lon="-4.6730343444780065"><ele>148.0</ele><time>2026-04-05T13:56:55.008Z</time></trkpt><trkpt lat="37.76635751890127" lon="-4.6732775358909"><ele>148.0</ele><time>2026-04-05T13:56:56.008Z</time></trkpt><trkpt lat="37.76655043246105" lon="-4.673516084253478"><ele>148.0</ele><time>2026-04-05T13:56:57.008Z</time></trkpt><trkpt lat="37.7667428816203" lon="-4.673752826865071"><ele>149.5</ele><time>2026-04-05T13:56:58.008Z</time></trkpt><trkpt lat="37.76693681130457" lon="-4.673990786578323"><ele>151.0</ele><time>2026-04-05T13:56:59.008Z</time></trkpt><trkpt lat="37.76713141177701" lon="-4.6742312214093555"><ele>150.0</ele><time>2026-04-05T13:57:00.008Z</time></trkpt><trkpt lat="37.76732600528745" lon="-4.674472772954832"><ele>149.0</ele><time>2026-04-05T13:57:01.008Z</time></trkpt><trkpt lat="37.7675236926185" lon="-4.674720206482998"><ele>152.5</ele><time>2026-04-05T13:57:02.008Z</time></trkpt><trkpt lat="37.76772575407089" lon="-4.674973730026069"><ele>156.0</ele><time>2026-04-05T13:57:03.008Z</time></trkpt><trkpt lat="37.767930256310336" lon="-4.675230990199873"><ele>154.5</ele><time>2026-04-05T13:57:04.008Z</time></trkpt><trkpt lat="37.76814112031555" lon="-4.675494230185124"><ele>153.0</ele><time>2026-04-05T13:57:05.008Z</time></trkpt><trkpt lat="37.76835684306413" lon="-4.675764648624063"><ele>153.5</ele><time>2026-04-05T13:57:06.008Z</time></trkpt><trkpt lat="37.76857293121941" lon="-4.676031088314579"><ele>154.0</ele><time>2026-04-05T13:57:07.008Z</time></trkpt><trkpt lat="37.7687879037966" lon="-4.676286758532596"><ele>154.0</ele><time>2026-04-05T13:57:08.009Z</time></trkpt><trkpt lat="37.76901014445623" lon="-4.676529782721925"><ele>154.0</ele><time>2026-04-05T13:57:09.009Z</time></trkpt><trkpt lat="37.76924505397026" lon="-4.676751843334727"><ele>154.0</ele><time>2026-04-05T13:57:10.009Z</time></trkpt><trkpt lat="37.76949456028165" lon="-4.676957895323057"><ele>154.0</ele><time>2026-04-05T13:57:11.009Z</time></trkpt><trkpt lat="37.76975107361482" lon="-4.677166243769993"><ele>154.0</ele><time>2026-04-05T13:57:12.009Z</time></trkpt><trkpt lat="37.77000924368877" lon="-4.677371510077315"><ele>154.0</ele><time>2026-04-05T13:57:13.009Z</time></trkpt><trkpt lat="37.77026689893114" lon="-4.677574013271389"><ele>152.5</ele><time>2026-04-05T13:57:14.009Z</time></trkpt><trkpt lat="37.77052599332713" lon="-4.677771963783915"><ele>151.0</ele><time>2026-04-05T13:57:15.009Z</time></trkpt><trkpt lat="37.77078374157115" lon="-4.677970098711431"><ele>150.5</ele><time>2026-04-05T13:57:16.009Z</time></trkpt><trkpt lat="37.77104062636973" lon="-4.67816952384204"><ele>150.0</ele><time>2026-04-05T13:57:17.009Z</time></trkpt><trkpt lat="37.771300275993" lon="-4.6783700253660205"><ele>150.0</ele><time>2026-04-05T13:57:18.009Z</time></trkpt><trkpt lat="37.771564490462865" lon="-4.678569572604808"><ele>150.0</ele><time>2026-04-05T13:57:19.009Z</time></trkpt><trkpt lat="37.771832639825156" lon="-4.678765862849524"><ele>148.5</ele><time>2026-04-05T13:57:20.009Z</time></trkpt><trkpt lat="37.77210701574374" lon="-4.678951510088362"><ele>147.0</ele><time>2026-04-05T13:57:21.009Z</time></trkpt><trkpt lat="37.77238643276402" lon="-4.679120044772592"><ele>147.0</ele><time>2026-04-05T13:57:22.009Z</time></trkpt><trkpt lat="37.77267518856463" lon="-4.679275379134019"><ele>147.0</ele><time>2026-04-05T13:57:23.009Z</time></trkpt><trkpt lat="37.77297207415879" lon="-4.679423710323538"><ele>146.5</ele><time>2026-04-05T13:57:24.009Z</time></trkpt><trkpt lat="37.77327412071358" lon="-4.679570907788963"><ele>146.0</ele><time>2026-04-05T13:57:25.009Z</time></trkpt><trkpt lat="37.77358397638617" lon="-4.679719638091558"><ele>146.0</ele><time>2026-04-05T13:57:26.009Z</time></trkpt><trkpt lat="37.773901327391556" lon="-4.679869834332386"><ele>146.0</ele><time>2026-04-05T13:57:27.009Z</time></trkpt><trkpt lat="37.77422330950956" lon="-4.680022207478884"><ele>145.5</ele><time>2026-04-05T13:57:28.009Z</time></trkpt><trkpt lat="37.77454059075619" lon="-4.680172242411772"><ele>145.0</ele><time>2026-04-05T13:57:29.009Z</time></trkpt><trkpt lat="37.774831656560494" lon="-4.680313089294614"><ele>145.0</ele><time>2026-04-05T13:57:30.009Z</time></trkpt><trkpt lat="37.775107518066584" lon="-4.680443718738869"><ele>145.0</ele><time>2026-04-05T13:57:31.009Z</time></trkpt><trkpt lat="37.775369092999156" lon="-4.680565090989304"><ele>146.0</ele><time>2026-04-05T13:57:32.009Z</time></trkpt><trkpt lat="37.77562530292191" lon="-4.680685471166822"><ele>147.0</ele><time>2026-04-05T13:57:33.009Z</time></trkpt><trkpt lat="37.775872770237534" lon="-4.680803525032756"><ele>147.5</ele><time>2026-04-05T13:57:34.009Z</time></trkpt><trkpt lat="37.77610852256088" lon="-4.680929042992338"><ele>148.0</ele><time>2026-04-05T13:57:35.009Z</time></trkpt><trkpt lat="37.77633281811768" lon="-4.681078401774202"><ele>147.0</ele><time>2026-04-05T13:57:36.009Z</time></trkpt><trkpt lat="37.77654144218842" lon="-4.681254072398002"><ele>146.0</ele><time>2026-04-05T13:57:37.009Z</time></trkpt><trkpt lat="37.7767333944626" lon="-4.681453376821432"><ele>147.0</ele><time>2026-04-05T13:57:38.009Z</time></trkpt><trkpt lat="37.776912081054164" lon="-4.681676748575137"><ele>148.0</ele><time>2026-04-05T13:57:39.009Z</time></trkpt><trkpt lat="37.777071568740354" lon="-4.681924479652919"><ele>147.5</ele><time>2026-04-05T13:57:40.009Z</time></trkpt><trkpt lat="37.77721433399622" lon="-4.682191898285453"><ele>147.0</ele><time>2026-04-05T13:57:41.009Z</time></trkpt><trkpt lat="37.77734575268538" lon="-4.6824760390987645"><ele>145.5</ele><time>2026-04-05T13:57:42.009Z</time></trkpt><trkpt lat="37.77747495444807" lon="-4.6827687344041005"><ele>144.0</ele><time>2026-04-05T13:57:43.009Z</time></trkpt><trkpt lat="37.77760538969624" lon="-4.683055514509295"><ele>146.0</ele><time>2026-04-05T13:57:44.009Z</time></trkpt><trkpt lat="37.7777430942462" lon="-4.683330266361777"><ele>148.0</ele><time>2026-04-05T13:57:45.009Z</time></trkpt><trkpt lat="37.777898011238264" lon="-4.683585231356257"><ele>146.5</ele><time>2026-04-05T13:57:46.009Z</time></trkpt><trkpt lat="37.77807975273756" lon="-4.683812546267448"><ele>145.0</ele><time>2026-04-05T13:57:47.009Z</time></trkpt><trkpt lat="37.778279835210824" lon="-4.684023837544044"><ele>145.0</ele><time>2026-04-05T13:57:48.009Z</time></trkpt><trkpt lat="37.77849030420981" lon="-4.684240507472808"><ele>145.0</ele><time>2026-04-05T13:57:49.009Z</time></trkpt><trkpt lat="37.778696200863976" lon="-4.68445207446084"><ele>145.5</ele><time>2026-04-05T13:57:50.009Z</time></trkpt><trkpt lat="37.77889904248846" lon="-4.68467256389487"><ele>146.0</ele><time>2026-04-05T13:57:51.009Z</time></trkpt><trkpt lat="37.77909004013785" lon="-4.684907454804978"><ele>146.0</ele><time>2026-04-05T13:57:52.009Z</time></trkpt><trkpt lat="37.779262649907295" lon="-4.685165128252922"><ele>146.0</ele><time>2026-04-05T13:57:53.009Z</time></trkpt><trkpt lat="37.77940756918777" lon="-4.685452278177822"><ele>146.0</ele><time>2026-04-05T13:57:54.009Z</time></trkpt><trkpt lat="37.779534638092244" lon="-4.685766485000313"><ele>146.0</ele><time>2026-04-05T13:57:55.009Z</time></trkpt><trkpt lat="37.77965041664551" lon="-4.686084876972179"><ele>143.0</ele><time>2026-04-05T13:57:56.009Z</time></trkpt><trkpt lat="37.77976547451577" lon="-4.686399566835562"><ele>140.0</ele><time>2026-04-05T13:57:57.009Z</time></trkpt><trkpt lat="37.779877845392434" lon="-4.686712372450992"><ele>140.0</ele><time>2026-04-05T13:57:58.009Z</time></trkpt><trkpt lat="37.779987550076015" lon="-4.687026015875184"><ele>140.0</ele><time>2026-04-05T13:57:59.009Z</time></trkpt><trkpt lat="37.78009944339144" lon="-4.687335640361872"><ele>142.5</ele><time>2026-04-05T13:58:00.009Z</time></trkpt><trkpt lat="37.780211917654384" lon="-4.687643324357088"><ele>145.0</ele><time>2026-04-05T13:58:01.009Z</time></trkpt><trkpt lat="37.78032388436774" lon="-4.687949482517007"><ele>145.0</ele><time>2026-04-05T13:58:02.009Z</time></trkpt><trkpt lat="37.78044133610667" lon="-4.688247429806551"><ele>145.0</ele><time>2026-04-05T13:58:03.009Z</time></trkpt><trkpt lat="37.78057370352874" lon="-4.688532898064326"><ele>142.5</ele><time>2026-04-05T13:58:04.009Z</time></trkpt><trkpt lat="37.78073410146892" lon="-4.688783089200373"><ele>140.0</ele><time>2026-04-05T13:58:05.009Z</time></trkpt><trkpt lat="37.78092522087593" lon="-4.689005372806514"><ele>144.0</ele><time>2026-04-05T13:58:06.009Z</time></trkpt><trkpt lat="37.781131648468026" lon="-4.689209550342391"><ele>148.0</ele><time>2026-04-05T13:58:07.009Z</time></trkpt><trkpt lat="37.78133692911388" lon="-4.689416435414703"><ele>144.0</ele><time>2026-04-05T13:58:08.009Z</time></trkpt><trkpt lat="37.78155385610587" lon="-4.689621076087981"><ele>140.0</ele><time>2026-04-05T13:58:09.009Z</time></trkpt><trkpt lat="37.7817723942121" lon="-4.689830529309903"><ele>140.5</ele><time>2026-04-05T13:58:10.009Z</time></trkpt><trkpt lat="37.7819969555315" lon="-4.69002801976839"><ele>141.0</ele><time>2026-04-05T13:58:11.009Z</time></trkpt><trkpt lat="37.782244246238434" lon="-4.690209005387799"><ele>139.5</ele><time>2026-04-05T13:58:12.009Z</time></trkpt><trkpt lat="37.78249395707" lon="-4.690363963224516"><ele>138.0</ele><time>2026-04-05T13:58:13.009Z</time></trkpt><trkpt lat="37.782754934543775" lon="-4.690500701285689"><ele>138.0</ele><time>2026-04-05T13:58:14.009Z</time></trkpt><trkpt lat="37.78301469109303" lon="-4.690623653797616"><ele>138.0</ele><time>2026-04-05T13:58:15.009Z</time></trkpt><trkpt lat="37.78327929218508" lon="-4.690731222511115"><ele>140.5</ele><time>2026-04-05T13:58:16.009Z</time></trkpt><trkpt lat="37.78354274528776" lon="-4.690835404772225"><ele>143.0</ele><time>2026-04-05T13:58:17.009Z</time></trkpt><trkpt lat="37.78380699312406" lon="-4.690936608225456"><ele>143.0</ele><time>2026-04-05T13:58:18.009Z</time></trkpt><trkpt lat="37.78406924215278" lon="-4.691037489234461"><ele>143.0</ele><time>2026-04-05T13:58:19.009Z</time></trkpt><trkpt lat="37.78433012009495" lon="-4.691138117072949"><ele>142.0</ele><time>2026-04-05T13:58:20.009Z</time></trkpt><trkpt lat="37.78459003673921" lon="-4.691242659477324"><ele>141.0</ele><time>2026-04-05T13:58:21.009Z</time></trkpt><trkpt lat="37.784848154360574" lon="-4.691346938997651"><ele>141.0</ele><time>2026-04-05T13:58:22.009Z</time></trkpt><trkpt lat="37.785099859253904" lon="-4.691452164352435"><ele>141.0</ele><time>2026-04-05T13:58:23.009Z</time></trkpt><trkpt lat="37.785345478228066" lon="-4.6915609770969535"><ele>140.0</ele><time>2026-04-05T13:58:24.009Z</time></trkpt><trkpt lat="37.78558463428772" lon="-4.69168347964716"><ele>139.0</ele><time>2026-04-05T13:58:25.009Z</time></trkpt><trkpt lat="37.78580871113661" lon="-4.6918368597440905"><ele>142.0</ele><time>2026-04-05T13:58:26.009Z</time></trkpt><trkpt lat="37.786014717228475" lon="-4.6920257862429136"><ele>145.0</ele><time>2026-04-05T13:58:27.009Z</time></trkpt><trkpt lat="37.78620241055054" lon="-4.692245369345331"><ele>145.0</ele><time>2026-04-05T13:58:28.009Z</time></trkpt><trkpt lat="37.78637114634855" lon="-4.692484697976056"><ele>145.0</ele><time>2026-04-05T13:58:29.009Z</time></trkpt><trkpt lat="37.78653331727533" lon="-4.692743592788732"><ele>142.5</ele><time>2026-04-05T13:58:30.009Z</time></trkpt><trkpt lat="37.786694993683874" lon="-4.693007050935228"><ele>140.0</ele><time>2026-04-05T13:58:31.009Z</time></trkpt><trkpt lat="37.78685175742835" lon="-4.693272958620776"><ele>141.0</ele><time>2026-04-05T13:58:32.01Z</time></trkpt><trkpt lat="37.78701490739538" lon="-4.693553174295041"><ele>142.0</ele><time>2026-04-05T13:58:33.01Z</time></trkpt><trkpt lat="37.78718972378702" lon="-4.693849437613441"><ele>142.0</ele><time>2026-04-05T13:58:34.01Z</time></trkpt><trkpt lat="37.78736866022506" lon="-4.694140573069558"><ele>142.0</ele><time>2026-04-05T13:58:35.01Z</time></trkpt><trkpt lat="37.78753467181597" lon="-4.694404504966856"><ele>143.0</ele><time>2026-04-05T13:58:36.01Z</time></trkpt><trkpt lat="37.78769631316927" lon="-4.694648189572529"><ele>144.0</ele><time>2026-04-05T13:58:37.01Z</time></trkpt><trkpt lat="37.78786003355145" lon="-4.694883114226837"><ele>144.0</ele><time>2026-04-05T13:58:38.01Z</time></trkpt><trkpt lat="37.7880177814303" lon="-4.695106097780129"><ele>144.0</ele><time>2026-04-05T13:58:39.01Z</time></trkpt><trkpt lat="37.788164788127034" lon="-4.69532305259608"><ele>144.33333333333334</ele><time>2026-04-05T13:58:40.01Z</time></trkpt><trkpt lat="37.788285510424586" lon="-4.695556348147299"><ele>144.66666666666669</ele><time>2026-04-05T13:58:41.01Z</time></trkpt><trkpt lat="37.78837703313258" lon="-4.695809016743429"><ele>145.0</ele><time>2026-04-05T13:58:42.01Z</time></trkpt><trkpt lat="37.788442733645866" lon="-4.696068175518333"><ele>144.0</ele><time>2026-04-05T13:58:43.01Z</time></trkpt><trkpt lat="37.788491340462315" lon="-4.696336681353922"><ele>143.0</ele><time>2026-04-05T13:58:44.01Z</time></trkpt><trkpt lat="37.78853337257002" lon="-4.696604917305807"><ele>142.0</ele><time>2026-04-05T13:58:45.01Z</time></trkpt><trkpt lat="37.78857551977953" lon="-4.696889807407064"><ele>151.0</ele><time>2026-04-05T13:58:46.01Z</time></trkpt><trkpt lat="37.78861850614505" lon="-4.697171915571456"><ele>160.0</ele><time>2026-04-05T13:58:47.01Z</time></trkpt><trkpt lat="37.78866753285539" lon="-4.697451348831091"><ele>160.0</ele><time>2026-04-05T13:58:48.01Z</time></trkpt><trkpt lat="37.788730353065155" lon="-4.697718508943599"><ele>160.0</ele><time>2026-04-05T13:58:49.01Z</time></trkpt><trkpt lat="37.7888088697678" lon="-4.697976700061895"><ele>160.0</ele><time>2026-04-05T13:58:50.01Z</time></trkpt><trkpt lat="37.78890247772077" lon="-4.698233252880627"><ele>157.0</ele><time>2026-04-05T13:58:51.01Z</time></trkpt><trkpt lat="37.78900504926597" lon="-4.698487175122965"><ele>154.0</ele><time>2026-04-05T13:58:52.01Z</time></trkpt><trkpt lat="37.78911349721554" lon="-4.698747236405946"><ele>151.0</ele><time>2026-04-05T13:58:53.01Z</time></trkpt><trkpt lat="37.789222686125754" lon="-4.699019802469056"><ele>148.0</ele><time>2026-04-05T13:58:54.01Z</time></trkpt><trkpt lat="37.78933607246605" lon="-4.699285332745412"><ele>149.0</ele><time>2026-04-05T13:58:55.01Z</time></trkpt><trkpt lat="37.78945068268658" lon="-4.699552143616323"><ele>150.0</ele><time>2026-04-05T13:58:56.01Z</time></trkpt><trkpt lat="37.7895608119295" lon="-4.69982232932638"><ele>150.0</ele><time>2026-04-05T13:58:57.01Z</time></trkpt><trkpt lat="37.7896652540911" lon="-4.700096677694741"><ele>150.0</ele><time>2026-04-05T13:58:58.01Z</time></trkpt><trkpt lat="37.78976958085099" lon="-4.700374171567394"><ele>150.5</ele><time>2026-04-05T13:58:59.01Z</time></trkpt><trkpt lat="37.78987363477667" lon="-4.700648858643545"><ele>151.0</ele><time>2026-04-05T13:59:00.01Z</time></trkpt><trkpt lat="37.78996777649907" lon="-4.700902170439154"><ele>150.33333333333334</ele><time>2026-04-05T13:59:01.01Z</time></trkpt><trkpt lat="37.79005910238226" lon="-4.701136383804263"><ele>149.66666666666666</ele><time>2026-04-05T13:59:02.01Z</time></trkpt><trkpt lat="37.790157767420894" lon="-4.701358101112838"><ele>149.0</ele><time>2026-04-05T13:59:03.01Z</time></trkpt><trkpt lat="37.790271998560655" lon="-4.701572909186371"><ele>149.0</ele><time>2026-04-05T13:59:04.01Z</time></trkpt><trkpt lat="37.790414814369555" lon="-4.701782302477683"><ele>149.0</ele><time>2026-04-05T13:59:05.01Z</time></trkpt><trkpt lat="37.790583224409865" lon="-4.701997507218111"><ele>149.0</ele><time>2026-04-05T13:59:06.01Z</time></trkpt><trkpt lat="37.790771748648474" lon="-4.702228110413727"><ele>149.0</ele><time>2026-04-05T13:59:07.01Z</time></trkpt><trkpt lat="37.79098274307768" lon="-4.702461491847015"><ele>150.0</ele><time>2026-04-05T13:59:08.01Z</time></trkpt><trkpt lat="37.79121844563325" lon="-4.7026624958206815"><ele>151.0</ele><time>2026-04-05T13:59:09.01Z</time></trkpt><trkpt lat="37.79144799448615" lon="-4.702900213441548"><ele>148.5</ele><time>2026-04-05T13:59:10.01Z</time></trkpt><trkpt lat="37.79168381454277" lon="-4.703155413132588"><ele>146.0</ele><time>2026-04-05T13:59:11.01Z</time></trkpt><trkpt lat="37.791909454526895" lon="-4.7034363277160365"><ele>145.5</ele><time>2026-04-05T13:59:12.01Z</time></trkpt><trkpt lat="37.79210609670565" lon="-4.703762776359671"><ele>145.0</ele><time>2026-04-05T13:59:13.01Z</time></trkpt><trkpt lat="37.792294362812164" lon="-4.704099001615502"><ele>146.5</ele><time>2026-04-05T13:59:14.01Z</time></trkpt><trkpt lat="37.79246834356664" lon="-4.704443651081088"><ele>148.0</ele><time>2026-04-05T13:59:15.01Z</time></trkpt><trkpt lat="37.7926414795554" lon="-4.704786164949811"><ele>148.5</ele><time>2026-04-05T13:59:16.01Z</time></trkpt><trkpt lat="37.79282484419871" lon="-4.705146605419037"><ele>149.0</ele><time>2026-04-05T13:59:17.01Z</time></trkpt><trkpt lat="37.79301608687456" lon="-4.70552136189851"><ele>152.5</ele><time>2026-04-05T13:59:18.01Z</time></trkpt><trkpt lat="37.79319429455689" lon="-4.705886514001951"><ele>156.0</ele><time>2026-04-05T13:59:19.01Z</time></trkpt><trkpt lat="37.793377933201576" lon="-4.706272601831034"><ele>157.0</ele><time>2026-04-05T13:59:20.01Z</time></trkpt><trkpt lat="37.79357313237183" lon="-4.706672213187844"><ele>158.0</ele><time>2026-04-05T13:59:21.01Z</time></trkpt><trkpt lat="37.793654114586424" lon="-4.706782316522228"><ele>155.5</ele><time>2026-04-05T13:59:22.01Z</time></trkpt><trkpt lat="37.7938080262484" lon="-4.707096435785486"><ele>153.0</ele><time>2026-04-05T13:59:23.01Z</time></trkpt><trkpt lat="37.79396143786068" lon="-4.707406823289012"><ele>153.0</ele><time>2026-04-05T13:59:24.01Z</time></trkpt><trkpt lat="37.79411636613041" lon="-4.7077158537504324"><ele>153.0</ele><time>2026-04-05T13:59:25.01Z</time></trkpt><trkpt lat="37.79427129156103" lon="-4.70802003576912"><ele>154.0</ele><time>2026-04-05T13:59:26.01Z</time></trkpt><trkpt lat="37.79442413492054" lon="-4.70832527956308"><ele>155.0</ele><time>2026-04-05T13:59:27.01Z</time></trkpt><trkpt lat="37.794571343053065" lon="-4.7086313733970755"><ele>157.0</ele><time>2026-04-05T13:59:28.01Z</time></trkpt><trkpt lat="37.79471949316968" lon="-4.708934023005016"><ele>159.0</ele><time>2026-04-05T13:59:29.01Z</time></trkpt><trkpt lat="37.794866816021475" lon="-4.709230735615121"><ele>162.0</ele><time>2026-04-05T13:59:30.01Z</time></trkpt><trkpt lat="37.795013121255096" lon="-4.709523193275496"><ele>165.0</ele><time>2026-04-05T13:59:31.01Z</time></trkpt><trkpt lat="37.795154359559" lon="-4.709811225380073"><ele>165.5</ele><time>2026-04-05T13:59:32.01Z</time></trkpt><trkpt lat="37.79528486409445" lon="-4.710105819615414"><ele>166.0</ele><time>2026-04-05T13:59:33.01Z</time></trkpt><trkpt lat="37.79539723579888" lon="-4.710406440753883"><ele>169.0</ele><time>2026-04-05T13:59:34.01Z</time></trkpt><trkpt lat="37.7955036316626" lon="-4.710708244737131"><ele>172.0</ele><time>2026-04-05T13:59:35.01Z</time></trkpt><trkpt lat="37.79560088369441" lon="-4.711009567749686"><ele>173.5</ele><time>2026-04-05T13:59:36.01Z</time></trkpt><trkpt lat="37.795697924803655" lon="-4.711306327849957"><ele>175.0</ele><time>2026-04-05T13:59:37.01Z</time></trkpt><trkpt lat="37.795791118595226" lon="-4.711601965944639"><ele>175.0</ele><time>2026-04-05T13:59:38.01Z</time></trkpt><trkpt lat="37.79587803976576" lon="-4.711901360947676"><ele>175.0</ele><time>2026-04-05T13:59:39.01Z</time></trkpt><trkpt lat="37.79595176742889" lon="-4.712210830242988"><ele>175.0</ele><time>2026-04-05T13:59:40.01Z</time></trkpt><trkpt lat="37.796020060980545" lon="-4.7125345735461135"><ele>175.0</ele><time>2026-04-05T13:59:41.01Z</time></trkpt><trkpt lat="37.79606605776724" lon="-4.712860996220827"><ele>175.0</ele><time>2026-04-05T13:59:42.01Z</time></trkpt><trkpt lat="37.79610890833988" lon="-4.713185343668876"><ele>175.0</ele><time>2026-04-05T13:59:43.01Z</time></trkpt><trkpt lat="37.79615424685677" lon="-4.713512050470159"><ele>173.5</ele><time>2026-04-05T13:59:44.01Z</time></trkpt><trkpt lat="37.796201490398346" lon="-4.713841371917622"><ele>172.0</ele><time>2026-04-05T13:59:45.01Z</time></trkpt><trkpt lat="37.796251065326366" lon="-4.714171046709183"><ele>170.5</ele><time>2026-04-05T13:59:46.01Z</time></trkpt><trkpt lat="37.79629381621238" lon="-4.714503838455082"><ele>169.0</ele><time>2026-04-05T13:59:47.01Z</time></trkpt><trkpt lat="37.79634527603119" lon="-4.714832409098847"><ele>169.0</ele><time>2026-04-05T13:59:48.01Z</time></trkpt><trkpt lat="37.79639291335545" lon="-4.71516180225591"><ele>169.0</ele><time>2026-04-05T13:59:49.01Z</time></trkpt><trkpt lat="37.79643730220979" lon="-4.7154948299674295"><ele>168.0</ele><time>2026-04-05T13:59:50.01Z</time></trkpt><trkpt lat="37.796487100696005" lon="-4.715824322001789"><ele>167.0</ele><time>2026-04-05T13:59:51.01Z</time></trkpt><trkpt lat="37.796538406267736" lon="-4.716151782394965"><ele>166.0</ele><time>2026-04-05T13:59:52.01Z</time></trkpt><trkpt lat="37.796588633549916" lon="-4.716480875751128"><ele>165.0</ele><time>2026-04-05T13:59:53.01Z</time></trkpt><trkpt lat="37.796639484702226" lon="-4.7168089148750925"><ele>163.5</ele><time>2026-04-05T13:59:54.01Z</time></trkpt><trkpt lat="37.79668970365517" lon="-4.7171390642140505"><ele>162.0</ele><time>2026-04-05T13:59:55.01Z</time></trkpt><trkpt lat="37.79674045973257" lon="-4.717471501297112"><ele>161.0</ele><time>2026-04-05T13:59:56.01Z</time></trkpt><trkpt lat="37.79679010896348" lon="-4.71780468844778"><ele>160.0</ele><time>2026-04-05T13:59:57.011Z</time></trkpt><trkpt lat="37.796839458917525" lon="-4.718136039406001"><ele>155.0</ele><time>2026-04-05T13:59:58.011Z</time></trkpt><trkpt lat="37.79688767226677" lon="-4.718471906842872"><ele>150.0</ele><time>2026-04-05T13:59:59.011Z</time></trkpt><trkpt lat="37.796938663888575" lon="-4.718811656194216"><ele>149.5</ele><time>2026-04-05T14:00:00.011Z</time></trkpt><trkpt lat="37.796991447570036" lon="-4.7191492262320605"><ele>149.0</ele><time>2026-04-05T14:00:01.011Z</time></trkpt><trkpt lat="37.797049917100004" lon="-4.719487973156289"><ele>148.0</ele><time>2026-04-05T14:00:02.011Z</time></trkpt><trkpt lat="37.79710984273372" lon="-4.7198210790683515"><ele>147.0</ele><time>2026-04-05T14:00:03.011Z</time></trkpt><trkpt lat="37.79717985171687" lon="-4.720153484541987"><ele>148.0</ele><time>2026-04-05T14:00:04.011Z</time></trkpt><trkpt lat="37.79725950438792" lon="-4.7204830364375026"><ele>149.0</ele><time>2026-04-05T14:00:05.011Z</time></trkpt><trkpt lat="37.79735337851483" lon="-4.720804092871132"><ele>150.5</ele><time>2026-04-05T14:00:06.011Z</time></trkpt><trkpt lat="37.797460243024915" lon="-4.721123467451148"><ele>152.0</ele><time>2026-04-05T14:00:07.011Z</time></trkpt><trkpt lat="37.797582961126885" lon="-4.721429355319303"><ele>155.5</ele><time>2026-04-05T14:00:08.011Z</time></trkpt><trkpt lat="37.797723268198524" lon="-4.72173141185091"><ele>159.0</ele><time>2026-04-05T14:00:09.011Z</time></trkpt><trkpt lat="37.79787920484207" lon="-4.722019470623992"><ele>160.5</ele><time>2026-04-05T14:00:10.011Z</time></trkpt><trkpt lat="37.79804933612063" lon="-4.722294577665952"><ele>162.0</ele><time>2026-04-05T14:00:11.011Z</time></trkpt><trkpt lat="37.79823223892988" lon="-4.722548923255507"><ele>164.0</ele><time>2026-04-05T14:00:12.011Z</time></trkpt><trkpt lat="37.798429532045596" lon="-4.722789122998505"><ele>166.0</ele><time>2026-04-05T14:00:13.011Z</time></trkpt><trkpt lat="37.79863750921239" lon="-4.723012042301016"><ele>166.0</ele><time>2026-04-05T14:00:14.011Z</time></trkpt><trkpt lat="37.79885553779089" lon="-4.723217643825222"><ele>166.0</ele><time>2026-04-05T14:00:15.011Z</time></trkpt><trkpt lat="37.7990819465414" lon="-4.7234088958364895"><ele>165.0</ele><time>2026-04-05T14:00:16.011Z</time></trkpt><trkpt lat="37.79931753844744" lon="-4.7235883451047105"><ele>164.0</ele><time>2026-04-05T14:00:17.011Z</time></trkpt><trkpt lat="37.79956040301328" lon="-4.723753915207759"><ele>161.5</ele><time>2026-04-05T14:00:18.011Z</time></trkpt><trkpt lat="37.79980877656922" lon="-4.723908738132447"><ele>159.0</ele><time>2026-04-05T14:00:19.011Z</time></trkpt><trkpt lat="37.80006129665728" lon="-4.724053453082032"><ele>158.5</ele><time>2026-04-05T14:00:20.011Z</time></trkpt><trkpt lat="37.80031733631087" lon="-4.724193788045361"><ele>158.0</ele><time>2026-04-05T14:00:21.011Z</time></trkpt><trkpt lat="37.800573697795585" lon="-4.724332688785178"><ele>159.0</ele><time>2026-04-05T14:00:22.011Z</time></trkpt><trkpt lat="37.800834372112966" lon="-4.724474238972702"><ele>160.0</ele><time>2026-04-05T14:00:23.011Z</time></trkpt><trkpt lat="37.80109846401022" lon="-4.724615885127325"><ele>158.0</ele><time>2026-04-05T14:00:24.011Z</time></trkpt><trkpt lat="37.80136355265111" lon="-4.724755439141292"><ele>156.0</ele><time>2026-04-05T14:00:25.011Z</time></trkpt><trkpt lat="37.801629873763375" lon="-4.724897380195942"><ele>156.0</ele><time>2026-04-05T14:00:26.011Z</time></trkpt><trkpt lat="37.80190054370869" lon="-4.725042530813305"><ele>156.0</ele><time>2026-04-05T14:00:27.011Z</time></trkpt><trkpt lat="37.80217062055691" lon="-4.725189021743244"><ele>155.0</ele><time>2026-04-05T14:00:28.011Z</time></trkpt><trkpt lat="37.80244192086332" lon="-4.725337075880406"><ele>154.0</ele><time>2026-04-05T14:00:29.011Z</time></trkpt><trkpt lat="37.80271204504083" lon="-4.725484560478941"><ele>154.0</ele><time>2026-04-05T14:00:30.011Z</time></trkpt><trkpt lat="37.80298903689866" lon="-4.725629357286756"><ele>154.0</ele><time>2026-04-05T14:00:31.011Z</time></trkpt><trkpt lat="37.80326461916429" lon="-4.725770440219384"><ele>155.5</ele><time>2026-04-05T14:00:32.011Z</time></trkpt><trkpt lat="37.80353882934292" lon="-4.72591536944979"><ele>157.0</ele><time>2026-04-05T14:00:33.011Z</time></trkpt><trkpt lat="37.80381202248922" lon="-4.726057019644767"><ele>156.5</ele><time>2026-04-05T14:00:34.011Z</time></trkpt><trkpt lat="37.80408469917529" lon="-4.726198593532433"><ele>156.0</ele><time>2026-04-05T14:00:35.011Z</time></trkpt><trkpt lat="37.804357179071985" lon="-4.726337720310097"><ele>158.5</ele><time>2026-04-05T14:00:36.011Z</time></trkpt><trkpt lat="37.8046316411329" lon="-4.726477169060489"><ele>161.0</ele><time>2026-04-05T14:00:37.011Z</time></trkpt><trkpt lat="37.80490459725965" lon="-4.7266170754039205"><ele>162.0</ele><time>2026-04-05T14:00:38.011Z</time></trkpt><trkpt lat="37.805174111327595" lon="-4.726758166531477"><ele>163.0</ele><time>2026-04-05T14:00:39.011Z</time></trkpt><trkpt lat="37.805442770939344" lon="-4.72690050475826"><ele>163.0</ele><time>2026-04-05T14:00:40.011Z</time></trkpt><trkpt lat="37.8057123013337" lon="-4.727041342837334"><ele>163.0</ele><time>2026-04-05T14:00:41.011Z</time></trkpt><trkpt lat="37.805981273182354" lon="-4.72718500593825"><ele>164.0</ele><time>2026-04-05T14:00:42.011Z</time></trkpt><trkpt lat="37.806255021143144" lon="-4.72732679203997"><ele>165.0</ele><time>2026-04-05T14:00:43.011Z</time></trkpt><trkpt lat="37.806529235191405" lon="-4.727468223784099"><ele>165.0</ele><time>2026-04-05T14:00:44.011Z</time></trkpt><trkpt lat="37.8067988634959" lon="-4.727610774044362"><ele>165.0</ele><time>2026-04-05T14:00:45.011Z</time></trkpt><trkpt lat="37.80706994663224" lon="-4.727754746459585"><ele>165.0</ele><time>2026-04-05T14:00:46.011Z</time></trkpt><trkpt lat="37.8073432468447" lon="-4.727901180333409"><ele>165.0</ele><time>2026-04-05T14:00:47.011Z</time></trkpt><trkpt lat="37.80761404482618" lon="-4.728048111628764"><ele>167.0</ele><time>2026-04-05T14:00:48.011Z</time></trkpt><trkpt lat="37.807884387929576" lon="-4.728195715535057"><ele>169.0</ele><time>2026-04-05T14:00:49.011Z</time></trkpt><trkpt lat="37.80815416145123" lon="-4.72833803610966"><ele>169.0</ele><time>2026-04-05T14:00:50.011Z</time></trkpt><trkpt lat="37.808423335383296" lon="-4.728479419462322"><ele>169.0</ele><time>2026-04-05T14:00:51.011Z</time></trkpt><trkpt lat="37.80869074934262" lon="-4.728619112513173"><ele>173.0</ele><time>2026-04-05T14:00:52.011Z</time></trkpt><trkpt lat="37.808958502025796" lon="-4.728760878161029"><ele>177.0</ele><time>2026-04-05T14:00:53.011Z</time></trkpt><trkpt lat="37.80922645142326" lon="-4.728904357682583"><ele>179.5</ele><time>2026-04-05T14:00:54.011Z</time></trkpt><trkpt lat="37.809492814687204" lon="-4.729047698656412"><ele>182.0</ele><time>2026-04-05T14:00:55.011Z</time></trkpt><trkpt lat="37.80975893814965" lon="-4.729191035081643"><ele>182.0</ele><time>2026-04-05T14:00:56.011Z</time></trkpt><trkpt lat="37.810028321781" lon="-4.729334849161933"><ele>182.0</ele><time>2026-04-05T14:00:57.011Z</time></trkpt><trkpt lat="37.810293897232775" lon="-4.729475267973767"><ele>184.5</ele><time>2026-04-05T14:00:58.011Z</time></trkpt><trkpt lat="37.81055871936221" lon="-4.729616923815615"><ele>187.0</ele><time>2026-04-05T14:00:59.011Z</time></trkpt><trkpt lat="37.81081843524602" lon="-4.729757196820676"><ele>187.0</ele><time>2026-04-05T14:01:00.011Z</time></trkpt><trkpt lat="37.81107522042838" lon="-4.729898908198812"><ele>187.0</ele><time>2026-04-05T14:01:01.011Z</time></trkpt><trkpt lat="37.81133339024174" lon="-4.730041127121698"><ele>187.0</ele><time>2026-04-05T14:01:02.011Z</time></trkpt><trkpt lat="37.81159386682889" lon="-4.7301804492872845"><ele>187.0</ele><time>2026-04-05T14:01:03.011Z</time></trkpt><trkpt lat="37.81185410224522" lon="-4.730316666903666"><ele>188.0</ele><time>2026-04-05T14:01:04.011Z</time></trkpt><trkpt lat="37.812115003454494" lon="-4.730453619716061"><ele>189.0</ele><time>2026-04-05T14:01:05.011Z</time></trkpt><trkpt lat="37.81237617176231" lon="-4.730594329442702"><ele>189.0</ele><time>2026-04-05T14:01:06.011Z</time></trkpt><trkpt lat="37.81263933895575" lon="-4.730736494262779"><ele>189.0</ele><time>2026-04-05T14:01:07.011Z</time></trkpt><trkpt lat="37.81290331479124" lon="-4.730876151590531"><ele>191.0</ele><time>2026-04-05T14:01:08.011Z</time></trkpt><trkpt lat="37.813164934670006" lon="-4.731012297048656"><ele>193.0</ele><time>2026-04-05T14:01:09.011Z</time></trkpt><trkpt lat="37.81341471865436" lon="-4.731150355641123"><ele>195.5</ele><time>2026-04-05T14:01:10.011Z</time></trkpt><trkpt lat="37.81365846555937" lon="-4.731308062517374"><ele>198.0</ele><time>2026-04-05T14:01:11.011Z</time></trkpt><trkpt lat="37.81388884446387" lon="-4.73149348351976"><ele>198.0</ele><time>2026-04-05T14:01:12.011Z</time></trkpt><trkpt lat="37.814098701493656" lon="-4.7317138350078025"><ele>198.0</ele><time>2026-04-05T14:01:13.011Z</time></trkpt><trkpt lat="37.814286729522706" lon="-4.731967744344093"><ele>206.0</ele><time>2026-04-05T14:01:14.011Z</time></trkpt><trkpt lat="37.814445372143645" lon="-4.732249995959597"><ele>214.0</ele><time>2026-04-05T14:01:15.011Z</time></trkpt><trkpt lat="37.81458711429421" lon="-4.732551391545423"><ele>215.5</ele><time>2026-04-05T14:01:16.011Z</time></trkpt><trkpt lat="37.81472383883454" lon="-4.732853173277998"><ele>217.0</ele><time>2026-04-05T14:01:17.011Z</time></trkpt><trkpt lat="37.81486271392121" lon="-4.733154704851214"><ele>217.0</ele><time>2026-04-05T14:01:18.011Z</time></trkpt><trkpt lat="37.81500803873001" lon="-4.733450303236526"><ele>217.0</ele><time>2026-04-05T14:01:19.011Z</time></trkpt><trkpt lat="37.815155089142436" lon="-4.73374067961312"><ele>223.5</ele><time>2026-04-05T14:01:20.011Z</time></trkpt><trkpt lat="37.81530936074767" lon="-4.734027920391549"><ele>230.0</ele><time>2026-04-05T14:01:21.011Z</time></trkpt><trkpt lat="37.81548358886447" lon="-4.734291391223215"><ele>226.0</ele><time>2026-04-05T14:01:22.012Z</time></trkpt><trkpt lat="37.81568596852616" lon="-4.734524343095775"><ele>222.0</ele><time>2026-04-05T14:01:23.012Z</time></trkpt><trkpt lat="37.81590772242346" lon="-4.734725756606935"><ele>228.5</ele><time>2026-04-05T14:01:24.012Z</time></trkpt><trkpt lat="37.816144802701196" lon="-4.734897470589214"><ele>235.0</ele><time>2026-04-05T14:01:25.012Z</time></trkpt><trkpt lat="37.81639558852563" lon="-4.735029272708769"><ele>235.0</ele><time>2026-04-05T14:01:26.012Z</time></trkpt><trkpt lat="37.816650916249756" lon="-4.73514115470062"><ele>235.0</ele><time>2026-04-05T14:01:27.012Z</time></trkpt><trkpt lat="37.81690881795122" lon="-4.735254371901135"><ele>236.5</ele><time>2026-04-05T14:01:28.012Z</time></trkpt><trkpt lat="37.81716300637283" lon="-4.735366363327134"><ele>238.0</ele><time>2026-04-05T14:01:29.012Z</time></trkpt><trkpt lat="37.81741749903829" lon="-4.7354807644619905"><ele>235.0</ele><time>2026-04-05T14:01:30.012Z</time></trkpt><trkpt lat="37.817674473835616" lon="-4.7355914513399195"><ele>232.0</ele><time>2026-04-05T14:01:31.012Z</time></trkpt><trkpt lat="37.81792897403704" lon="-4.735701659610414"><ele>232.0</ele><time>2026-04-05T14:01:32.012Z</time></trkpt><trkpt lat="37.818185422597885" lon="-4.735805003270855"><ele>232.0</ele><time>2026-04-05T14:01:33.012Z</time></trkpt><trkpt lat="37.81845193326213" lon="-4.735926420560453"><ele>230.5</ele><time>2026-04-05T14:01:34.012Z</time></trkpt><trkpt lat="37.818720286940234" lon="-4.736047729982269"><ele>229.0</ele><time>2026-04-05T14:01:35.012Z</time></trkpt><trkpt lat="37.8189930113738" lon="-4.736171204447932"><ele>229.0</ele><time>2026-04-05T14:01:36.012Z</time></trkpt><trkpt lat="37.819272852183545" lon="-4.736293211147619"><ele>229.0</ele><time>2026-04-05T14:01:37.012Z</time></trkpt><trkpt lat="37.8195536647395" lon="-4.736412897032116"><ele>225.0</ele><time>2026-04-05T14:01:38.012Z</time></trkpt><trkpt lat="37.81984100942156" lon="-4.736527216018782"><ele>221.0</ele><time>2026-04-05T14:01:39.012Z</time></trkpt><trkpt lat="37.82012000966097" lon="-4.736644721638932"><ele>219.5</ele><time>2026-04-05T14:01:40.012Z</time></trkpt><trkpt lat="37.82039834380938" lon="-4.736746082644951"><ele>218.0</ele><time>2026-04-05T14:01:41.012Z</time></trkpt><trkpt lat="37.820686140467146" lon="-4.736821881828596"><ele>218.0</ele><time>2026-04-05T14:01:42.012Z</time></trkpt><trkpt lat="37.82096991691292" lon="-4.736870926359935"><ele>218.0</ele><time>2026-04-05T14:01:43.012Z</time></trkpt><trkpt lat="37.82125250556752" lon="-4.736903169837491"><ele>220.5</ele><time>2026-04-05T14:01:44.012Z</time></trkpt><trkpt lat="37.82153759969068" lon="-4.736921474716705"><ele>223.0</ele><time>2026-04-05T14:01:45.012Z</time></trkpt><trkpt lat="37.82182177751726" lon="-4.73692457528279"><ele>227.0</ele><time>2026-04-05T14:01:46.012Z</time></trkpt><trkpt lat="37.822104327082585" lon="-4.736925273620252"><ele>231.0</ele><time>2026-04-05T14:01:47.012Z</time></trkpt><trkpt lat="37.82238762235865" lon="-4.736931230665453"><ele>230.5</ele><time>2026-04-05T14:01:48.012Z</time></trkpt><trkpt lat="37.82266686490675" lon="-4.736940082902145"><ele>230.0</ele><time>2026-04-05T14:01:49.012Z</time></trkpt><trkpt lat="37.82294806785161" lon="-4.736952526010077"><ele>230.0</ele><time>2026-04-05T14:01:50.012Z</time></trkpt><trkpt lat="37.82323007492028" lon="-4.736974293905224"><ele>230.0</ele><time>2026-04-05T14:01:51.012Z</time></trkpt><trkpt lat="37.82350854321321" lon="-4.737006373207871"><ele>227.5</ele><time>2026-04-05T14:01:52.012Z</time></trkpt><trkpt lat="37.82378776053855" lon="-4.737049472939465"><ele>225.0</ele><time>2026-04-05T14:01:53.012Z</time></trkpt><trkpt lat="37.82406508516647" lon="-4.737105581985074"><ele>223.0</ele><time>2026-04-05T14:01:54.012Z</time></trkpt><trkpt lat="37.82434044601074" lon="-4.737174285537539"><ele>221.0</ele><time>2026-04-05T14:01:55.012Z</time></trkpt><trkpt lat="37.82461587227751" lon="-4.737253053810261"><ele>221.0</ele><time>2026-04-05T14:01:56.012Z</time></trkpt><trkpt lat="37.824887906098176" lon="-4.737344668350152"><ele>221.0</ele><time>2026-04-05T14:01:57.012Z</time></trkpt><trkpt lat="37.825155074809686" lon="-4.7374413524205465"><ele>221.5</ele><time>2026-04-05T14:01:58.012Z</time></trkpt><trkpt lat="37.82541728169798" lon="-4.737548076004023"><ele>222.0</ele><time>2026-04-05T14:01:59.012Z</time></trkpt><trkpt lat="37.82567580688042" lon="-4.737664585517532"><ele>223.0</ele><time>2026-04-05T14:02:00.012Z</time></trkpt><trkpt lat="37.8259269586167" lon="-4.7377944863880845"><ele>224.0</ele><time>2026-04-05T14:02:01.012Z</time></trkpt><trkpt lat="37.82617795901399" lon="-4.737928187206446"><ele>224.0</ele><time>2026-04-05T14:02:02.012Z</time></trkpt><trkpt lat="37.826422791903525" lon="-4.738069371098716"><ele>224.0</ele><time>2026-04-05T14:02:03.012Z</time></trkpt><trkpt lat="37.826664672424656" lon="-4.738217042673856"><ele>221.5</ele><time>2026-04-05T14:02:04.012Z</time></trkpt><trkpt lat="37.826906852960654" lon="-4.738365030231889"><ele>219.0</ele><time>2026-04-05T14:02:05.012Z</time></trkpt><trkpt lat="37.82714883362909" lon="-4.738513798184734"><ele>221.5</ele><time>2026-04-05T14:02:06.012Z</time></trkpt><trkpt lat="37.82739135999173" lon="-4.738652498582004"><ele>224.0</ele><time>2026-04-05T14:02:07.012Z</time></trkpt><trkpt lat="37.827637977086646" lon="-4.738792240839344"><ele>222.0</ele><time>2026-04-05T14:02:08.012Z</time></trkpt><trkpt lat="37.827874738596385" lon="-4.738933626254448"><ele>220.0</ele><time>2026-04-05T14:02:09.012Z</time></trkpt><trkpt lat="37.82811394062406" lon="-4.739072868031656"><ele>220.0</ele><time>2026-04-05T14:02:10.012Z</time></trkpt><trkpt lat="37.82834776489106" lon="-4.739203334948122"><ele>220.0</ele><time>2026-04-05T14:02:11.012Z</time></trkpt><trkpt lat="37.82857774449901" lon="-4.739313537327704"><ele>216.5</ele><time>2026-04-05T14:02:12.012Z</time></trkpt><trkpt lat="37.828804680623385" lon="-4.739423037516948"><ele>213.0</ele><time>2026-04-05T14:02:13.012Z</time></trkpt><trkpt lat="37.82903363369719" lon="-4.7395142900343155"><ele>213.0</ele><time>2026-04-05T14:02:14.012Z</time></trkpt><trkpt lat="37.82926388632728" lon="-4.739564687849827"><ele>213.0</ele><time>2026-04-05T14:02:15.012Z</time></trkpt><trkpt lat="37.82949178743316" lon="-4.739608864739123"><ele>211.5</ele><time>2026-04-05T14:02:16.012Z</time></trkpt><trkpt lat="37.82972166784141" lon="-4.739635608339629"><ele>210.0</ele><time>2026-04-05T14:02:17.012Z</time></trkpt><trkpt lat="37.829951747733496" lon="-4.739646963527677"><ele>209.66666666666669</ele><time>2026-04-05T14:02:18.012Z</time></trkpt><trkpt lat="37.830175801291446" lon="-4.7396413174454"><ele>209.33333333333334</ele><time>2026-04-05T14:02:19.012Z</time></trkpt><trkpt lat="37.8303975539737" lon="-4.739625782851464"><ele>209.0</ele><time>2026-04-05T14:02:20.012Z</time></trkpt><trkpt lat="37.830614692131164" lon="-4.739600731431358"><ele>209.0</ele><time>2026-04-05T14:02:21.012Z</time></trkpt><trkpt lat="37.830833464653914" lon="-4.739618388384806"><ele>209.0</ele><time>2026-04-05T14:02:22.012Z</time></trkpt><trkpt lat="37.8310425059081" lon="-4.739577953392829"><ele>209.0</ele><time>2026-04-05T14:02:23.012Z</time></trkpt><trkpt lat="37.83124700460383" lon="-4.739530734650189"><ele>211.33333333333334</ele><time>2026-04-05T14:02:24.012Z</time></trkpt><trkpt lat="37.8314520034949" lon="-4.739482729471884"><ele>213.66666666666669</ele><time>2026-04-05T14:02:25.012Z</time></trkpt><trkpt lat="37.8316513206872" lon="-4.739436210859623"><ele>216.0</ele><time>2026-04-05T14:02:26.012Z</time></trkpt><trkpt lat="37.83184098276146" lon="-4.739392811120728"><ele>214.0</ele><time>2026-04-05T14:02:27.012Z</time></trkpt><trkpt lat="37.83203056148889" lon="-4.739345774557236"><ele>212.0</ele><time>2026-04-05T14:02:28.012Z</time></trkpt><trkpt lat="37.83221483326424" lon="-4.739301023637933"><ele>210.0</ele><time>2026-04-05T14:02:29.012Z</time></trkpt><trkpt lat="37.832392407821516" lon="-4.739256760317006"><ele>210.0</ele><time>2026-04-05T14:02:30.012Z</time></trkpt><trkpt lat="37.832561843864234" lon="-4.739218916175911"><ele>210.0</ele><time>2026-04-05T14:02:31.012Z</time></trkpt><trkpt lat="37.832723021069285" lon="-4.739187693332337"><ele>210.0</ele><time>2026-04-05T14:02:32.012Z</time></trkpt><trkpt lat="37.83287792496667" lon="-4.739160833310546"><ele>210.0</ele><time>2026-04-05T14:02:33.012Z</time></trkpt><trkpt lat="37.83302391862541" lon="-4.73915266590223"><ele>210.0</ele><time>2026-04-05T14:02:34.012Z</time></trkpt><trkpt lat="37.83316268930896" lon="-4.739162796330391"><ele>210.0</ele><time>2026-04-05T14:02:35.012Z</time></trkpt><trkpt lat="37.83326566484058" lon="-4.739212394654641"><ele>210.0</ele><time>2026-04-05T14:02:36.012Z</time></trkpt><trkpt lat="37.83338697206241" lon="-4.739252610960191"><ele>210.75</ele><time>2026-04-05T14:02:37.012Z</time></trkpt><trkpt lat="37.83351336111803" lon="-4.739299538220537"><ele>211.5</ele><time>2026-04-05T14:02:38.012Z</time></trkpt><trkpt lat="37.83364114118108" lon="-4.7393592132841835"><ele>212.25</ele><time>2026-04-05T14:02:39.012Z</time></trkpt><trkpt lat="37.83377719989401" lon="-4.739410152576274"><ele>213.0</ele><time>2026-04-05T14:02:40.012Z</time></trkpt><trkpt lat="37.8339162369569" lon="-4.739464338458976"><ele>213.0</ele><time>2026-04-05T14:02:41.012Z</time></trkpt><trkpt lat="37.83406699431195" lon="-4.739518607277697"><ele>213.0</ele><time>2026-04-05T14:02:42.012Z</time></trkpt><trkpt lat="37.83421242787414" lon="-4.7395772105913245"><ele>213.0</ele><time>2026-04-05T14:02:43.012Z</time></trkpt><trkpt lat="37.834357284365474" lon="-4.739635179105364"><ele>210.75</ele><time>2026-04-05T14:02:44.012Z</time></trkpt><trkpt lat="37.83449945843399" lon="-4.739699286299213"><ele>208.5</ele><time>2026-04-05T14:02:45.012Z</time></trkpt><trkpt lat="37.83464228344945" lon="-4.739766574274027"><ele>206.25</ele><time>2026-04-05T14:02:46.013Z</time></trkpt><trkpt lat="37.83477300954064" lon="-4.7398392252933155"><ele>204.0</ele><time>2026-04-05T14:02:47.013Z</time></trkpt><trkpt lat="37.83490540830362" lon="-4.739912641513525"><ele>204.0</ele><time>2026-04-05T14:02:48.013Z</time></trkpt><trkpt lat="37.83503708970509" lon="-4.739997642216672"><ele>204.0</ele><time>2026-04-05T14:02:49.013Z</time></trkpt><trkpt lat="37.83516369159943" lon="-4.740095278503137"><ele>204.0</ele><time>2026-04-05T14:02:50.013Z</time></trkpt><trkpt lat="37.835280280792325" lon="-4.7401957488391835"><ele>204.0</ele><time>2026-04-05T14:02:51.013Z</time></trkpt><trkpt lat="37.83538701878995" lon="-4.74030794197725"><ele>202.33333333333331</ele><time>2026-04-05T14:02:52.013Z</time></trkpt><trkpt lat="37.83549327794037" lon="-4.7404314096888225"><ele>200.66666666666666</ele><time>2026-04-05T14:02:53.013Z</time></trkpt><trkpt lat="37.83560450426287" lon="-4.740566513894827"><ele>199.0</ele><time>2026-04-05T14:02:54.013Z</time></trkpt><trkpt lat="37.83572261293461" lon="-4.740704750581866"><ele>199.0</ele><time>2026-04-05T14:02:55.013Z</time></trkpt><trkpt lat="37.835834860266374" lon="-4.740838029686618"><ele>199.0</ele><time>2026-04-05T14:02:56.013Z</time></trkpt><trkpt lat="37.83594639839465" lon="-4.740964322903473"><ele>199.0</ele><time>2026-04-05T14:02:57.013Z</time></trkpt><trkpt lat="37.83605784154137" lon="-4.741089253702073"><ele>199.0</ele><time>2026-04-05T14:02:58.013Z</time></trkpt><trkpt lat="37.83616219985896" lon="-4.741209161626007"><ele>199.0</ele><time>2026-04-05T14:02:59.013Z</time></trkpt><trkpt lat="37.836274599558934" lon="-4.741334746901757"><ele>199.0</ele><time>2026-04-05T14:03:00.013Z</time></trkpt><trkpt lat="37.83639631642023" lon="-4.741452949459542"><ele>199.0</ele><time>2026-04-05T14:03:01.013Z</time></trkpt><trkpt lat="37.83652002267391" lon="-4.7415742375953505"><ele>199.0</ele><time>2026-04-05T14:03:02.013Z</time></trkpt><trkpt lat="37.836651470212" lon="-4.741690735800388"><ele>199.0</ele><time>2026-04-05T14:03:03.013Z</time></trkpt><trkpt lat="37.836794558716676" lon="-4.741803532233288"><ele>199.0</ele><time>2026-04-05T14:03:04.013Z</time></trkpt><trkpt lat="37.83694584076288" lon="-4.741921178823056"><ele>198.33333333333331</ele><time>2026-04-05T14:03:05.013Z</time></trkpt><trkpt lat="37.83710155804106" lon="-4.742035104731017"><ele>197.66666666666669</ele><time>2026-04-05T14:03:06.013Z</time></trkpt><trkpt lat="37.83726217132137" lon="-4.742159934299287"><ele>197.0</ele><time>2026-04-05T14:03:07.013Z</time></trkpt><trkpt lat="37.83742485841688" lon="-4.7422862636633845"><ele>197.0</ele><time>2026-04-05T14:03:08.013Z</time></trkpt><trkpt lat="37.83758729161763" lon="-4.7424123008631796"><ele>197.0</ele><time>2026-04-05T14:03:09.013Z</time></trkpt><trkpt lat="37.83775251744133" lon="-4.7425404956381385"><ele>197.0</ele><time>2026-04-05T14:03:10.013Z</time></trkpt><trkpt lat="37.83792008073174" lon="-4.742665830003059"><ele>195.0</ele><time>2026-04-05T14:03:11.013Z</time></trkpt><trkpt lat="37.83808735845741" lon="-4.742792116582316"><ele>193.0</ele><time>2026-04-05T14:03:12.013Z</time></trkpt><trkpt lat="37.838251323605064" lon="-4.742912448609676"><ele>191.0</ele><time>2026-04-05T14:03:13.013Z</time></trkpt><trkpt lat="37.83841535544321" lon="-4.743036042803443"><ele>187.33333333333331</ele><time>2026-04-05T14:03:14.013Z</time></trkpt><trkpt lat="37.83857886001437" lon="-4.743163451520642"><ele>183.66666666666666</ele><time>2026-04-05T14:03:15.013Z</time></trkpt><trkpt lat="37.83874187255135" lon="-4.743284173147651"><ele>180.0</ele><time>2026-04-05T14:03:16.013Z</time></trkpt><trkpt lat="37.838914779305895" lon="-4.743413372543765"><ele>180.0</ele><time>2026-04-05T14:03:17.013Z</time></trkpt><trkpt lat="37.83908775975108" lon="-4.743541190099816"><ele>180.0</ele><time>2026-04-05T14:03:18.013Z</time></trkpt><trkpt lat="37.839259967957005" lon="-4.743672401649278"><ele>180.0</ele><time>2026-04-05T14:03:19.013Z</time></trkpt><trkpt lat="37.83943797534257" lon="-4.7438088546116415"><ele>178.66666666666666</ele><time>2026-04-05T14:03:20.013Z</time></trkpt><trkpt lat="37.83961635469049" lon="-4.743944359159659"><ele>177.33333333333331</ele><time>2026-04-05T14:03:21.013Z</time></trkpt><trkpt lat="37.83980150275059" lon="-4.744076949801963"><ele>176.0</ele><time>2026-04-05T14:03:22.013Z</time></trkpt><trkpt lat="37.83998081688907" lon="-4.744209568188652"><ele>175.66666666666666</ele><time>2026-04-05T14:03:23.013Z</time></trkpt><trkpt lat="37.84016746052162" lon="-4.744338273907467"><ele>175.33333333333334</ele><time>2026-04-05T14:03:24.013Z</time></trkpt><trkpt lat="37.84035558252232" lon="-4.7444579646314375"><ele>175.0</ele><time>2026-04-05T14:03:25.013Z</time></trkpt><trkpt lat="37.84054806952437" lon="-4.744563233502901"><ele>175.0</ele><time>2026-04-05T14:03:26.013Z</time></trkpt><trkpt lat="37.84074409914553" lon="-4.744656403404221"><ele>175.0</ele><time>2026-04-05T14:03:27.013Z</time></trkpt><trkpt lat="37.84093998975204" lon="-4.74473923305226"><ele>175.0</ele><time>2026-04-05T14:03:28.013Z</time></trkpt><trkpt lat="37.84114150451751" lon="-4.744817752576837"><ele>173.66666666666669</ele><time>2026-04-05T14:03:29.013Z</time></trkpt><trkpt lat="37.84134003634599" lon="-4.74489067674692"><ele>172.33333333333334</ele><time>2026-04-05T14:03:30.013Z</time></trkpt><trkpt lat="37.841539544270425" lon="-4.744970142417805"><ele>171.0</ele><time>2026-04-05T14:03:31.013Z</time></trkpt><trkpt lat="37.8417360157733" lon="-4.745049581620476"><ele>170.33333333333334</ele><time>2026-04-05T14:03:32.013Z</time></trkpt><trkpt lat="37.84193054334213" lon="-4.745133578974986"><ele>169.66666666666669</ele><time>2026-04-05T14:03:33.013Z</time></trkpt><trkpt lat="37.842127272011254" lon="-4.745214967363524"><ele>169.0</ele><time>2026-04-05T14:03:34.013Z</time></trkpt><trkpt lat="37.84232063524692" lon="-4.745299047152645"><ele>169.0</ele><time>2026-04-05T14:03:35.013Z</time></trkpt><trkpt lat="37.842512880726936" lon="-4.745391549586406"><ele>169.0</ele><time>2026-04-05T14:03:36.013Z</time></trkpt><trkpt lat="37.84269765433427" lon="-4.745496570019281"><ele>169.0</ele><time>2026-04-05T14:03:37.013Z</time></trkpt><trkpt lat="37.84287960713169" lon="-4.7456246072707"><ele>169.0</ele><time>2026-04-05T14:03:38.013Z</time></trkpt><trkpt lat="37.843044874298" lon="-4.745771322326097"><ele>169.0</ele><time>2026-04-05T14:03:39.013Z</time></trkpt><trkpt lat="37.84320155968855" lon="-4.74594607585186"><ele>169.0</ele><time>2026-04-05T14:03:40.013Z</time></trkpt><trkpt lat="37.84334695530437" lon="-4.746134726569486"><ele>166.66666666666669</ele><time>2026-04-05T14:03:41.013Z</time></trkpt><trkpt lat="37.843480055975775" lon="-4.7463427708955725"><ele>164.33333333333334</ele><time>2026-04-05T14:03:42.013Z</time></trkpt><trkpt lat="37.84359510916198" lon="-4.746575462695712"><ele>162.0</ele><time>2026-04-05T14:03:43.013Z</time></trkpt><trkpt lat="37.84370140849034" lon="-4.746814540496915"><ele>161.5</ele><time>2026-04-05T14:03:44.013Z</time></trkpt><trkpt lat="37.84379276680807" lon="-4.747073789526353"><ele>161.0</ele><time>2026-04-05T14:03:45.013Z</time></trkpt><trkpt lat="37.84387759001946" lon="-4.747350923181719"><ele>161.0</ele><time>2026-04-05T14:03:46.013Z</time></trkpt><trkpt lat="37.84395831300849" lon="-4.747617328034534"><ele>161.0</ele><time>2026-04-05T14:03:47.013Z</time></trkpt><trkpt lat="37.844038998035195" lon="-4.747878709027302"><ele>161.0</ele><time>2026-04-05T14:03:48.013Z</time></trkpt><trkpt lat="37.84411788300847" lon="-4.748140561462123"><ele>160.0</ele><time>2026-04-05T14:03:49.013Z</time></trkpt><trkpt lat="37.844199764916" lon="-4.748399782236291"><ele>159.0</ele><time>2026-04-05T14:03:50.013Z</time></trkpt><trkpt lat="37.84427855698109" lon="-4.748661953429839"><ele>158.0</ele><time>2026-04-05T14:03:51.013Z</time></trkpt><trkpt lat="37.844359443599814" lon="-4.748922997287016"><ele>158.0</ele><time>2026-04-05T14:03:52.013Z</time></trkpt><trkpt lat="37.84444065761229" lon="-4.74918000398139"><ele>158.0</ele><time>2026-04-05T14:03:53.013Z</time></trkpt><trkpt lat="37.84452825730539" lon="-4.749437207294344"><ele>158.0</ele><time>2026-04-05T14:03:54.013Z</time></trkpt><trkpt lat="37.84461497021682" lon="-4.749700239738764"><ele>157.5</ele><time>2026-04-05T14:03:55.013Z</time></trkpt><trkpt lat="37.84470066415547" lon="-4.74996856483257"><ele>157.0</ele><time>2026-04-05T14:03:56.013Z</time></trkpt><trkpt lat="37.84478420141745" lon="-4.75024269993635"><ele>154.5</ele><time>2026-04-05T14:03:57.013Z</time></trkpt><trkpt lat="37.84486637625772" lon="-4.750513565698402"><ele>152.0</ele><time>2026-04-05T14:03:58.013Z</time></trkpt><trkpt lat="37.84494968215149" lon="-4.750787581890741"><ele>150.5</ele><time>2026-04-05T14:03:59.013Z</time></trkpt><trkpt lat="37.84503004834302" lon="-4.751062473721374"><ele>149.0</ele><time>2026-04-05T14:04:00.013Z</time></trkpt><trkpt lat="37.84511050292184" lon="-4.751333954820817"><ele>148.0</ele><time>2026-04-05T14:04:01.013Z</time></trkpt><trkpt lat="37.84519010601102" lon="-4.751606358584088"><ele>147.0</ele><time>2026-04-05T14:04:02.013Z</time></trkpt><trkpt lat="37.84527232673145" lon="-4.751878066323382"><ele>147.0</ele><time>2026-04-05T14:04:03.013Z</time></trkpt><trkpt lat="37.84535784057996" lon="-4.752151660314598"><ele>147.0</ele><time>2026-04-05T14:04:04.013Z</time></trkpt><trkpt lat="37.845440040603876" lon="-4.752428735848572"><ele>147.0</ele><time>2026-04-05T14:04:05.013Z</time></trkpt><trkpt lat="37.84552298650271" lon="-4.752694720042487"><ele>147.0</ele><time>2026-04-05T14:04:06.013Z</time></trkpt><trkpt lat="37.84560057290925" lon="-4.752971693827977"><ele>146.66666666666666</ele><time>2026-04-05T14:04:07.013Z</time></trkpt><trkpt lat="37.84568189727914" lon="-4.753238503668172"><ele>146.33333333333331</ele><time>2026-04-05T14:04:08.013Z</time></trkpt><trkpt lat="37.84575587508983" lon="-4.753505617179544"><ele>146.0</ele><time>2026-04-05T14:04:09.013Z</time></trkpt><trkpt lat="37.84583380960389" lon="-4.753780133679131"><ele>145.5</ele><time>2026-04-05T14:04:10.013Z</time></trkpt><trkpt lat="37.84591258922234" lon="-4.754050827205817"><ele>145.0</ele><time>2026-04-05T14:04:11.014Z</time></trkpt><trkpt lat="37.845989693080625" lon="-4.754329697810542"><ele>147.0</ele><time>2026-04-05T14:04:12.014Z</time></trkpt><trkpt lat="37.84607300793807" lon="-4.754609871810805"><ele>149.0</ele><time>2026-04-05T14:04:13.014Z</time></trkpt><trkpt lat="37.84615781057674" lon="-4.754893663710976"><ele>149.0</ele><time>2026-04-05T14:04:14.014Z</time></trkpt><trkpt lat="37.84623783603383" lon="-4.755171980580174"><ele>149.0</ele><time>2026-04-05T14:04:15.014Z</time></trkpt><trkpt lat="37.846313345428534" lon="-4.755432188805595"><ele>148.33333333333331</ele><time>2026-04-05T14:04:16.014Z</time></trkpt><trkpt lat="37.84638787236434" lon="-4.755685795529229"><ele>147.66666666666666</ele><time>2026-04-05T14:04:17.014Z</time></trkpt><trkpt lat="37.846463175647685" lon="-4.755936562423827"><ele>147.0</ele><time>2026-04-05T14:04:18.014Z</time></trkpt><trkpt lat="37.84654160495271" lon="-4.756187454214358"><ele>146.0</ele><time>2026-04-05T14:04:19.014Z</time></trkpt><trkpt lat="37.8466195943767" lon="-4.756446133502806"><ele>145.0</ele><time>2026-04-05T14:04:20.014Z</time></trkpt><trkpt lat="37.84669732686643" lon="-4.756706783913217"><ele>144.0</ele><time>2026-04-05T14:04:21.014Z</time></trkpt><trkpt lat="37.846775853812446" lon="-4.756973058343755"><ele>145.0</ele><time>2026-04-05T14:04:22.014Z</time></trkpt><trkpt lat="37.84685630574163" lon="-4.7572522864144595"><ele>146.0</ele><time>2026-04-05T14:04:23.014Z</time></trkpt><trkpt lat="37.846936175114294" lon="-4.757531520264565"><ele>143.0</ele><time>2026-04-05T14:04:24.014Z</time></trkpt><trkpt lat="37.84701779163391" lon="-4.757814175871265"><ele>140.0</ele><time>2026-04-05T14:04:25.014Z</time></trkpt><trkpt lat="37.84710541968642" lon="-4.758092151975912"><ele>140.0</ele><time>2026-04-05T14:04:26.014Z</time></trkpt><trkpt lat="37.84719419921804" lon="-4.758376557240775"><ele>140.0</ele><time>2026-04-05T14:04:27.014Z</time></trkpt><trkpt lat="37.84729126308912" lon="-4.7586592434287205"><ele>137.0</ele><time>2026-04-05T14:04:28.014Z</time></trkpt><trkpt lat="37.847398078641874" lon="-4.7589358020915125"><ele>134.0</ele><time>2026-04-05T14:04:29.014Z</time></trkpt><trkpt lat="37.84752135987274" lon="-4.759202851707471"><ele>136.0</ele><time>2026-04-05T14:04:30.014Z</time></trkpt><trkpt lat="37.847654389429344" lon="-4.7594564476876124"><ele>138.0</ele><time>2026-04-05T14:04:31.014Z</time></trkpt><trkpt lat="37.8477992152569" lon="-4.759704695793716"><ele>138.0</ele><time>2026-04-05T14:04:32.014Z</time></trkpt><trkpt lat="37.84795919071208" lon="-4.75994024583811"><ele>138.0</ele><time>2026-04-05T14:04:33.014Z</time></trkpt><trkpt lat="37.84812594735046" lon="-4.760165184992541"><ele>137.0</ele><time>2026-04-05T14:04:34.014Z</time></trkpt><trkpt lat="37.84829551394774" lon="-4.760385265866724"><ele>136.0</ele><time>2026-04-05T14:04:35.014Z</time></trkpt><trkpt lat="37.84846451494777" lon="-4.760607562444478"><ele>136.0</ele><time>2026-04-05T14:04:36.014Z</time></trkpt><trkpt lat="37.84863406996187" lon="-4.7608322260410745"><ele>136.0</ele><time>2026-04-05T14:04:37.014Z</time></trkpt><trkpt lat="37.84880340225943" lon="-4.761059431163194"><ele>135.0</ele><time>2026-04-05T14:04:38.014Z</time></trkpt><trkpt lat="37.84897781179916" lon="-4.761294939797772"><ele>134.0</ele><time>2026-04-05T14:04:39.014Z</time></trkpt><trkpt lat="37.84915417236389" lon="-4.7615347013021845"><ele>134.0</ele><time>2026-04-05T14:04:40.014Z</time></trkpt><trkpt lat="37.849337170077774" lon="-4.761779966153695"><ele>134.0</ele><time>2026-04-05T14:04:41.014Z</time></trkpt><trkpt lat="37.849524358582215" lon="-4.762028649303541"><ele>134.0</ele><time>2026-04-05T14:04:42.014Z</time></trkpt><trkpt lat="37.849708348472866" lon="-4.762281252125554"><ele>134.0</ele><time>2026-04-05T14:04:43.014Z</time></trkpt><trkpt lat="37.84989577721264" lon="-4.762540666999222"><ele>132.5</ele><time>2026-04-05T14:04:44.014Z</time></trkpt><trkpt lat="37.85008909885538" lon="-4.762799109150762"><ele>131.0</ele><time>2026-04-05T14:04:45.014Z</time></trkpt><trkpt lat="37.85027744721075" lon="-4.763056082642494"><ele>131.0</ele><time>2026-04-05T14:04:46.014Z</time></trkpt><trkpt lat="37.850471667456745" lon="-4.7633116149347785"><ele>131.0</ele><time>2026-04-05T14:04:47.014Z</time></trkpt><trkpt lat="37.85066798326624" lon="-4.763568281616359"><ele>131.5</ele><time>2026-04-05T14:04:48.014Z</time></trkpt><trkpt lat="37.85086490402934" lon="-4.763822146079048"><ele>132.0</ele><time>2026-04-05T14:04:49.014Z</time></trkpt><trkpt lat="37.85106458348551" lon="-4.764075794305561"><ele>132.0</ele><time>2026-04-05T14:04:50.014Z</time></trkpt><trkpt lat="37.85126621498888" lon="-4.764332435848015"><ele>132.0</ele><time>2026-04-05T14:04:51.014Z</time></trkpt><trkpt lat="37.85146134516478" lon="-4.764591486745584"><ele>130.0</ele><time>2026-04-05T14:04:52.014Z</time></trkpt><trkpt lat="37.8516559321418" lon="-4.764849011062744"><ele>128.0</ele><time>2026-04-05T14:04:53.014Z</time></trkpt><trkpt lat="37.85185004939704" lon="-4.765111860877081"><ele>126.0</ele><time>2026-04-05T14:04:54.014Z</time></trkpt><trkpt lat="37.85204107417151" lon="-4.765364286950149"><ele>124.0</ele><time>2026-04-05T14:04:55.014Z</time></trkpt><trkpt lat="37.852225673526384" lon="-4.765615285391823"><ele>124.0</ele><time>2026-04-05T14:04:56.014Z</time></trkpt><trkpt lat="37.85241171606013" lon="-4.765864841456478"><ele>124.0</ele><time>2026-04-05T14:04:57.014Z</time></trkpt><trkpt lat="37.85259636578057" lon="-4.766109582793156"><ele>123.5</ele><time>2026-04-05T14:04:58.014Z</time></trkpt><trkpt lat="37.8527800095443" lon="-4.766352791500276"><ele>123.0</ele><time>2026-04-05T14:04:59.014Z</time></trkpt><trkpt lat="37.852965612430516" lon="-4.766592468506786"><ele>123.0</ele><time>2026-04-05T14:05:00.014Z</time></trkpt><trkpt lat="37.85315773214247" lon="-4.7668272713627164"><ele>123.0</ele><time>2026-04-05T14:05:01.014Z</time></trkpt><trkpt lat="37.85335774954303" lon="-4.767052726071911"><ele>123.0</ele><time>2026-04-05T14:05:02.014Z</time></trkpt><trkpt lat="37.853572542585695" lon="-4.767261589678899"><ele>123.0</ele><time>2026-04-05T14:05:03.014Z</time></trkpt><trkpt lat="37.85379878806187" lon="-4.767444005378188"><ele>123.0</ele><time>2026-04-05T14:05:04.014Z</time></trkpt><trkpt lat="37.85403607091808" lon="-4.767608984731477"><ele>123.0</ele><time>2026-04-05T14:05:05.014Z</time></trkpt><trkpt lat="37.85427079703759" lon="-4.7677631354870815"><ele>121.5</ele><time>2026-04-05T14:05:05.999Z</time></trkpt><trkpt lat="37.854511494115116" lon="-4.767913704080191"><ele>120.0</ele><time>2026-04-05T14:05:06.999Z</time></trkpt><trkpt lat="37.854747871870075" lon="-4.7680630768773975"><ele>120.0</ele><time>2026-04-05T14:05:07.999Z</time></trkpt><trkpt lat="37.85496514533724" lon="-4.768203990380484"><ele>120.0</ele><time>2026-04-05T14:05:08.999Z</time></trkpt><trkpt lat="37.85516924291757" lon="-4.768335661823627"><ele>119.66666666666666</ele><time>2026-04-05T14:05:09.999Z</time></trkpt><trkpt lat="37.85536326986618" lon="-4.768464043428385"><ele>119.33333333333333</ele><time>2026-04-05T14:05:10.999Z</time></trkpt><trkpt lat="37.85555130756022" lon="-4.768587814536337"><ele>119.0</ele><time>2026-04-05T14:05:11.999Z</time></trkpt><trkpt lat="37.85573456968682" lon="-4.768711345160657"><ele>119.0</ele><time>2026-04-05T14:05:12.999Z</time></trkpt><trkpt lat="37.855917159987854" lon="-4.7688381946144345"><ele>119.0</ele><time>2026-04-05T14:05:13.999Z</time></trkpt><trkpt lat="37.85609747138651" lon="-4.768963785070618"><ele>119.0</ele><time>2026-04-05T14:05:14.999Z</time></trkpt><trkpt lat="37.85627456069061" lon="-4.769084830375014"><ele>118.33333333333333</ele><time>2026-04-05T14:05:15.999Z</time></trkpt><trkpt lat="37.85644583265711" lon="-4.769198077005876"><ele>117.66666666666666</ele><time>2026-04-05T14:05:16.999Z</time></trkpt><trkpt lat="37.856619295023684" lon="-4.769309491080665"><ele>117.0</ele><time>2026-04-05T14:05:17.999Z</time></trkpt><trkpt lat="37.856792122559" lon="-4.769426455364268"><ele>117.0</ele><time>2026-04-05T14:05:18.999Z</time></trkpt><trkpt lat="37.85696239910158" lon="-4.769540160611658"><ele>117.0</ele><time>2026-04-05T14:05:19.999Z</time></trkpt><trkpt lat="37.85713377762342" lon="-4.769650990578566"><ele>117.0</ele><time>2026-04-05T14:05:20.999Z</time></trkpt><trkpt lat="37.85730853767932" lon="-4.769762514279068"><ele>117.0</ele><time>2026-04-05T14:05:21.999Z</time></trkpt><trkpt lat="37.85747610325889" lon="-4.76987230474673"><ele>117.0</ele><time>2026-04-05T14:05:22.999Z</time></trkpt><trkpt lat="37.85764245562564" lon="-4.769978632866825"><ele>117.0</ele><time>2026-04-05T14:05:23.999Z</time></trkpt><trkpt lat="37.857804241109704" lon="-4.7700809080307724"><ele>117.33333333333334</ele><time>2026-04-05T14:05:24.999Z</time></trkpt><trkpt lat="37.8579561897077" lon="-4.770176482202105"><ele>117.66666666666667</ele><time>2026-04-05T14:05:25.999Z</time></trkpt><trkpt lat="37.85810211549875" lon="-4.77026848348114"><ele>118.0</ele><time>2026-04-05T14:05:26.999Z</time></trkpt><trkpt lat="37.85824338786659" lon="-4.770359517376122"><ele>118.0</ele><time>2026-04-05T14:05:27.999Z</time></trkpt><trkpt lat="37.858372003447656" lon="-4.770444374753047"><ele>118.0</ele><time>2026-04-05T14:05:28.999Z</time></trkpt><trkpt lat="37.85849895832778" lon="-4.770523919738132"><ele>118.0</ele><time>2026-04-05T14:05:29.999Z</time></trkpt><trkpt lat="37.85862019541733" lon="-4.770595480351513"><ele>118.0</ele><time>2026-04-05T14:05:30.999Z</time></trkpt><trkpt lat="37.85873353876034" lon="-4.770662980897933"><ele>118.0</ele><time>2026-04-05T14:05:31.999Z</time></trkpt><trkpt lat="37.85883220697383" lon="-4.770726520568541"><ele>118.00000000000001</ele><time>2026-04-05T14:05:32.999Z</time></trkpt><trkpt lat="37.858916269857225" lon="-4.770766912639955"><ele>118.00000000000001</ele><time>2026-04-05T14:05:33.999Z</time></trkpt><trkpt lat="37.8590395328251" lon="-4.770804989009284"><ele>118.0</ele><time>2026-04-05T14:05:34.999Z</time></trkpt><trkpt lat="37.85915402727192" lon="-4.770798859648171"><ele>118.0</ele><time>2026-04-05T14:05:35.999Z</time></trkpt><trkpt lat="37.859263196539544" lon="-4.770792848281037"><ele>118.0</ele><time>2026-04-05T14:05:36.999Z</time></trkpt><trkpt lat="37.85935429032341" lon="-4.77081776561371"><ele>118.00000000000001</ele><time>2026-04-05T14:05:37.999Z</time></trkpt><trkpt lat="37.85942716301498" lon="-4.770878671121407"><ele>118.00000000000001</ele><time>2026-04-05T14:05:38.999Z</time></trkpt><trkpt lat="37.85947847066941" lon="-4.770972916656535"><ele>118.0</ele><time>2026-04-05T14:05:39.999Z</time></trkpt><trkpt lat="37.85954371469962" lon="-4.771086994880312"><ele>118.0</ele><time>2026-04-05T14:05:40.999Z</time></trkpt><trkpt lat="37.859634845246696" lon="-4.771198995839618"><ele>117.75</ele><time>2026-04-05T14:05:41.999Z</time></trkpt><trkpt lat="37.85973694916487" lon="-4.771291528985414"><ele>117.5</ele><time>2026-04-05T14:05:42.999Z</time></trkpt><trkpt lat="37.859836824187994" lon="-4.771366609099044"><ele>117.25</ele><time>2026-04-05T14:05:43.999Z</time></trkpt><trkpt lat="37.85994610078994" lon="-4.771432126470294"><ele>117.0</ele><time>2026-04-05T14:05:44.999Z</time></trkpt><trkpt lat="37.86005730636506" lon="-4.771503019969183"><ele>116.75</ele><time>2026-04-05T14:05:45.999Z</time></trkpt><trkpt lat="37.86017351636143" lon="-4.771579419468894"><ele>116.5</ele><time>2026-04-05T14:05:46.999Z</time></trkpt><trkpt lat="37.86029738190918" lon="-4.771661352915049"><ele>116.25</ele><time>2026-04-05T14:05:47.999Z</time></trkpt><trkpt lat="37.860425888556804" lon="-4.7717431453960275"><ele>116.0</ele><time>2026-04-05T14:05:48.999Z</time></trkpt><trkpt lat="37.8605520055032" lon="-4.7718256817173526"><ele>116.0</ele><time>2026-04-05T14:05:49.999Z</time></trkpt><trkpt lat="37.86068163135556" lon="-4.771906802641813"><ele>116.0</ele><time>2026-04-05T14:05:50.999Z</time></trkpt><trkpt lat="37.86081377180039" lon="-4.7719855344667845"><ele>116.0</ele><time>2026-04-05T14:05:51.997Z</time></trkpt><trkpt lat="37.860948322680855" lon="-4.772064376340271"><ele>116.0</ele><time>2026-04-05T14:05:52.997Z</time></trkpt><trkpt lat="37.861078973195426" lon="-4.772147038531276"><ele>116.0</ele><time>2026-04-05T14:05:53.997Z</time></trkpt><trkpt lat="37.86120337722504" lon="-4.772228793505124"><ele>116.0</ele><time>2026-04-05T14:05:54.997Z</time></trkpt><trkpt lat="37.86132698262477" lon="-4.772306110811399"><ele>116.0</ele><time>2026-04-05T14:05:55.997Z</time></trkpt><trkpt lat="37.86144582337677" lon="-4.772378806296969"><ele>116.0</ele><time>2026-04-05T14:05:56.997Z</time></trkpt><trkpt lat="37.86155698254006" lon="-4.772449550993749"><ele>116.0</ele><time>2026-04-05T14:05:57.998Z</time></trkpt><trkpt lat="37.86166622201063" lon="-4.772516072038704"><ele>116.0</ele><time>2026-04-05T14:05:58.997Z</time></trkpt><trkpt lat="37.8617672276562" lon="-4.772581174709804"><ele>116.0</ele><time>2026-04-05T14:05:59.997Z</time></trkpt><trkpt lat="37.86186722175027" lon="-4.772639569610541"><ele>116.0</ele><time>2026-04-05T14:06:00.997Z</time></trkpt><trkpt lat="37.86195564287563" lon="-4.772703409968826"><ele>116.0</ele><time>2026-04-05T14:06:01.997Z</time></trkpt><trkpt lat="37.86202267386561" lon="-4.7727532855982355"><ele>115.6</ele><time>2026-04-05T14:06:02.997Z</time></trkpt><trkpt lat="37.86210310695146" lon="-4.772874677519036"><ele>115.19999999999999</ele><time>2026-04-05T14:06:04.997Z</time></trkpt><trkpt lat="37.862123227397724" lon="-4.7730266912199735"><ele>114.80000000000001</ele><time>2026-04-05T14:06:06.997Z</time></trkpt><trkpt lat="37.862093208909286" lon="-4.7731069229696175"><ele>114.4</ele><time>2026-04-05T14:06:07.997Z</time></trkpt><trkpt lat="37.862044140238616" lon="-4.773173062105215"><ele>114.0</ele><time>2026-04-05T14:06:08.997Z</time></trkpt><trkpt lat="37.861983669750785" lon="-4.773199943708986"><ele>114.0</ele><time>2026-04-05T14:06:09.997Z</time></trkpt><trkpt lat="37.86191177365088" lon="-4.773212821195063"><ele>114.0</ele><time>2026-04-05T14:06:10.997Z</time></trkpt><trkpt lat="37.86183261358503" lon="-4.773176578749889"><ele>114.0</ele><time>2026-04-05T14:06:11.997Z</time></trkpt><trkpt lat="37.861774551234156" lon="-4.773115494360978"><ele>114.0</ele><time>2026-04-05T14:06:12.997Z</time></trkpt><trkpt lat="37.861734022880924" lon="-4.773020191133387"><ele>114.0</ele><time>2026-04-05T14:06:13.997Z</time></trkpt><trkpt lat="37.86169531839089" lon="-4.77291018235008"><ele>114.0</ele><time>2026-04-05T14:06:14.997Z</time></trkpt><trkpt lat="37.86166276763961" lon="-4.772814716163155"><ele>113.66666666666667</ele><time>2026-04-05T14:06:15.997Z</time></trkpt><trkpt lat="37.86162894284759" lon="-4.772737461090106"><ele>113.33333333333334</ele><time>2026-04-05T14:06:16.997Z</time></trkpt><trkpt lat="37.861571494215625" lon="-4.77268490846171"><ele>113.0</ele><time>2026-04-05T14:06:17.997Z</time></trkpt><trkpt lat="37.861491958042876" lon="-4.772647930795106"><ele>112.66666666666667</ele><time>2026-04-05T14:06:18.997Z</time></trkpt><trkpt lat="37.86139890742659" lon="-4.772637734719403"><ele>112.33333333333334</ele><time>2026-04-05T14:06:19.997Z</time></trkpt><trkpt lat="37.86129929813779" lon="-4.77264788216622"><ele>112.0</ele><time>2026-04-05T14:06:20.997Z</time></trkpt><trkpt lat="37.861193199258864" lon="-4.7726747776027425"><ele>112.0</ele><time>2026-04-05T14:06:21.997Z</time></trkpt><trkpt lat="37.86108322467716" lon="-4.77271406710598"><ele>112.0</ele><time>2026-04-05T14:06:22.997Z</time></trkpt><trkpt lat="37.860979367657265" lon="-4.772759918437943"><ele>112.0</ele><time>2026-04-05T14:06:23.997Z</time></trkpt><trkpt lat="37.860865515129525" lon="-4.772818622146616"><ele>112.0</ele><time>2026-04-05T14:06:24.997Z</time></trkpt><trkpt lat="37.860742360480025" lon="-4.772881504294375"><ele>112.0</ele><time>2026-04-05T14:06:25.997Z</time></trkpt><trkpt lat="37.86061479530136" lon="-4.772925739118089"><ele>112.0</ele><time>2026-04-05T14:06:26.997Z</time></trkpt><trkpt lat="37.86048358497296" lon="-4.772940598564388"><ele>112.0</ele><time>2026-04-05T14:06:27.997Z</time></trkpt><trkpt lat="37.86035578195576" lon="-4.77293204179147"><ele>112.0</ele><time>2026-04-05T14:06:28.997Z</time></trkpt><trkpt lat="37.8602358267911" lon="-4.772900948778848"><ele>112.0</ele><time>2026-04-05T14:06:29.997Z</time></trkpt><trkpt lat="37.86012516290092" lon="-4.772870848401417"><ele>112.0</ele><time>2026-04-05T14:06:30.997Z</time></trkpt><trkpt lat="37.860009805121834" lon="-4.7728473042790585"><ele>112.0</ele><time>2026-04-05T14:06:31.997Z</time></trkpt><trkpt lat="37.859888136563846" lon="-4.772840691368355"><ele>112.0</ele><time>2026-04-05T14:06:32.997Z</time></trkpt><trkpt lat="37.859773162400124" lon="-4.7728597897271134"><ele>111.75</ele><time>2026-04-05T14:06:33.997Z</time></trkpt><trkpt lat="37.85965992381141" lon="-4.7729175670575"><ele>111.5</ele><time>2026-04-05T14:06:34.997Z</time></trkpt><trkpt lat="37.859562861402416" lon="-4.773009264559298"><ele>111.25</ele><time>2026-04-05T14:06:35.997Z</time></trkpt><trkpt lat="37.85945337918638" lon="-4.773125388341894"><ele>111.0</ele><time>2026-04-05T14:06:36.997Z</time></trkpt><trkpt lat="37.85935398836165" lon="-4.7732654722848675"><ele>110.66666666666666</ele><time>2026-04-05T14:06:37.997Z</time></trkpt><trkpt lat="37.85925346152576" lon="-4.773438854220146"><ele>110.33333333333333</ele><time>2026-04-05T14:06:38.997Z</time></trkpt><trkpt lat="37.85911874999395" lon="-4.773617518765898"><ele>110.0</ele><time>2026-04-05T14:06:39.997Z</time></trkpt><trkpt lat="37.85898636549251" lon="-4.773792151093565"><ele>109.33333333333333</ele><time>2026-04-05T14:06:40.997Z</time></trkpt><trkpt lat="37.85885378297372" lon="-4.773962826071666"><ele>108.66666666666666</ele><time>2026-04-05T14:06:41.997Z</time></trkpt><trkpt lat="37.85871713833235" lon="-4.774143999370448"><ele>108.0</ele><time>2026-04-05T14:06:42.997Z</time></trkpt><trkpt lat="37.85858821287265" lon="-4.774317276388297"><ele>107.66666666666666</ele><time>2026-04-05T14:06:43.997Z</time></trkpt><trkpt lat="37.85845671768595" lon="-4.774492437861363"><ele>107.33333333333333</ele><time>2026-04-05T14:06:44.997Z</time></trkpt><trkpt lat="37.858316998925986" lon="-4.774678405992043"><ele>107.0</ele><time>2026-04-05T14:06:45.997Z</time></trkpt><trkpt lat="37.85816777231203" lon="-4.7748796676261"><ele>108.0</ele><time>2026-04-05T14:06:46.997Z</time></trkpt><trkpt lat="37.85800454588592" lon="-4.775098675745044"><ele>109.0</ele><time>2026-04-05T14:06:47.997Z</time></trkpt><trkpt lat="37.857851958128904" lon="-4.775301826121162"><ele>110.0</ele><time>2026-04-05T14:06:48.997Z</time></trkpt><trkpt lat="37.857690282901835" lon="-4.775507695828279"><ele>111.0</ele><time>2026-04-05T14:06:49.997Z</time></trkpt><trkpt lat="37.857520701007196" lon="-4.775720729238526"><ele>111.0</ele><time>2026-04-05T14:06:50.997Z</time></trkpt><trkpt lat="37.857348833490136" lon="-4.7759380100929585"><ele>111.0</ele><time>2026-04-05T14:06:51.997Z</time></trkpt><trkpt lat="37.85717543182139" lon="-4.776155242398695"><ele>112.5</ele><time>2026-04-05T14:06:52.997Z</time></trkpt><trkpt lat="37.85700256440772" lon="-4.776376945333598"><ele>114.0</ele><time>2026-04-05T14:06:53.997Z</time></trkpt><trkpt lat="37.85682492573725" lon="-4.776595664294179"><ele>113.5</ele><time>2026-04-05T14:06:54.997Z</time></trkpt><trkpt lat="37.85664736561875" lon="-4.776815719802514"><ele>113.0</ele><time>2026-04-05T14:06:55.997Z</time></trkpt><trkpt lat="37.85646247643333" lon="-4.777041736560547"><ele>112.5</ele><time>2026-04-05T14:06:56.997Z</time></trkpt><trkpt lat="37.856279472670266" lon="-4.777265094011458"><ele>112.0</ele><time>2026-04-05T14:06:57.997Z</time></trkpt><trkpt lat="37.856098645584694" lon="-4.777484917369317"><ele>112.0</ele><time>2026-04-05T14:06:58.997Z</time></trkpt><trkpt lat="37.855921482134114" lon="-4.77770620844877"><ele>112.0</ele><time>2026-04-05T14:06:59.997Z</time></trkpt><trkpt lat="37.85574773356979" lon="-4.777925760685507"><ele>112.0</ele><time>2026-04-05T14:07:00.997Z</time></trkpt><trkpt lat="37.855576961869886" lon="-4.7781422067483685"><ele>112.0</ele><time>2026-04-05T14:07:01.997Z</time></trkpt><trkpt lat="37.85540498467949" lon="-4.7783551535539965"><ele>111.5</ele><time>2026-04-05T14:07:02.997Z</time></trkpt><trkpt lat="37.855234632630896" lon="-4.778563319936098"><ele>111.0</ele><time>2026-04-05T14:07:03.997Z</time></trkpt><trkpt lat="37.8550687576701" lon="-4.778769577563806"><ele>114.5</ele><time>2026-04-05T14:07:04.997Z</time></trkpt><trkpt lat="37.8549044385883" lon="-4.778975623595178"><ele>118.0</ele><time>2026-04-05T14:07:05.997Z</time></trkpt><trkpt lat="37.85474130914282" lon="-4.779178273034103"><ele>116.0</ele><time>2026-04-05T14:07:06.997Z</time></trkpt><trkpt lat="37.854579784048745" lon="-4.779385304934148"><ele>114.0</ele><time>2026-04-05T14:07:07.997Z</time></trkpt><trkpt lat="37.854426576249246" lon="-4.779595641483072"><ele>115.0</ele><time>2026-04-05T14:07:08.997Z</time></trkpt><trkpt lat="37.85427821134663" lon="-4.779805945091969"><ele>116.0</ele><time>2026-04-05T14:07:09.997Z</time></trkpt><trkpt lat="37.854124713206666" lon="-4.780006727647617"><ele>117.0</ele><time>2026-04-05T14:07:10.997Z</time></trkpt><trkpt lat="37.853977864689135" lon="-4.780209641913683"><ele>117.0</ele><time>2026-04-05T14:07:11.997Z</time></trkpt><trkpt lat="37.85382386439649" lon="-4.7803903295754555"><ele>117.0</ele><time>2026-04-05T14:07:12.997Z</time></trkpt><trkpt lat="37.85372916459138" lon="-4.780628281291726"><ele>117.0</ele><time>2026-04-05T14:07:13.997Z</time></trkpt><trkpt lat="37.85364030801294" lon="-4.780856913102114"><ele>114.0</ele><time>2026-04-05T14:07:14.997Z</time></trkpt><trkpt lat="37.85357775222137" lon="-4.781099782942855"><ele>111.0</ele><time>2026-04-05T14:07:15.997Z</time></trkpt><trkpt lat="37.85354666110946" lon="-4.781360056694165"><ele>108.0</ele><time>2026-04-05T14:07:16.997Z</time></trkpt><trkpt lat="37.85354327198427" lon="-4.781624900407014"><ele>107.33333333333334</ele><time>2026-04-05T14:07:17.997Z</time></trkpt><trkpt lat="37.85358405990154" lon="-4.7818874219507"><ele>106.66666666666667</ele><time>2026-04-05T14:07:18.997Z</time></trkpt><trkpt lat="37.85366425267709" lon="-4.782141519561519"><ele>106.0</ele><time>2026-04-05T14:07:19.997Z</time></trkpt><trkpt lat="37.85377047114172" lon="-4.782385753003415"><ele>106.0</ele><time>2026-04-05T14:07:20.997Z</time></trkpt><trkpt lat="37.853911387527496" lon="-4.782602583730113"><ele>106.0</ele><time>2026-04-05T14:07:21.998Z</time></trkpt><trkpt lat="37.85407620396661" lon="-4.782798617061788"><ele>106.0</ele><time>2026-04-05T14:07:22.998Z</time></trkpt><trkpt lat="37.85425534326783" lon="-4.782994379247662"><ele>104.0</ele><time>2026-04-05T14:07:23.998Z</time></trkpt><trkpt lat="37.85443721791512" lon="-4.783206309803958"><ele>102.0</ele><time>2026-04-05T14:07:24.998Z</time></trkpt><trkpt lat="37.85461149813423" lon="-4.783423430352404"><ele>101.5</ele><time>2026-04-05T14:07:25.998Z</time></trkpt><trkpt lat="37.854780595979925" lon="-4.783651258290144"><ele>101.0</ele><time>2026-04-05T14:07:26.998Z</time></trkpt><trkpt lat="37.854949440830836" lon="-4.783888065750938"><ele>101.0</ele><time>2026-04-05T14:07:27.998Z</time></trkpt><trkpt lat="37.85511452310644" lon="-4.784129432293955"><ele>101.0</ele><time>2026-04-05T14:07:28.998Z</time></trkpt><trkpt lat="37.855278727326194" lon="-4.784379215746178"><ele>101.0</ele><time>2026-04-05T14:07:29.998Z</time></trkpt><trkpt lat="37.85544286330663" lon="-4.784629005026307"><ele>101.0</ele><time>2026-04-05T14:07:30.998Z</time></trkpt><trkpt lat="37.855606536732225" lon="-4.7848790150123435"><ele>101.0</ele><time>2026-04-05T14:07:31.998Z</time></trkpt><trkpt lat="37.855768746020686" lon="-4.78513365572298"><ele>101.0</ele><time>2026-04-05T14:07:32.998Z</time></trkpt><trkpt lat="37.855934397480794" lon="-4.785384494465645"><ele>100.5</ele><time>2026-04-05T14:07:33.998Z</time></trkpt><trkpt lat="37.85610088238414" lon="-4.785633643849347"><ele>100.0</ele><time>2026-04-05T14:07:34.998Z</time></trkpt><trkpt lat="37.85626921436421" lon="-4.785882107480197"><ele>100.0</ele><time>2026-04-05T14:07:35.998Z</time></trkpt><trkpt lat="37.85643207824359" lon="-4.7861329144511835"><ele>100.0</ele><time>2026-04-05T14:07:36.998Z</time></trkpt><trkpt lat="37.85659383481139" lon="-4.7863827936295325"><ele>100.0</ele><time>2026-04-05T14:07:37.998Z</time></trkpt><trkpt lat="37.85675658286755" lon="-4.786640608926229"><ele>100.0</ele><time>2026-04-05T14:07:38.998Z</time></trkpt><trkpt lat="37.85691947818601" lon="-4.786896991916631"><ele>100.0</ele><time>2026-04-05T14:07:39.998Z</time></trkpt><trkpt lat="37.8570826402726" lon="-4.787148322294942"><ele>100.0</ele><time>2026-04-05T14:07:40.998Z</time></trkpt><trkpt lat="37.857247541741614" lon="-4.787403091839513"><ele>100.0</ele><time>2026-04-05T14:07:41.998Z</time></trkpt><trkpt lat="37.85741394318064" lon="-4.787653831249103"><ele>100.0</ele><time>2026-04-05T14:07:42.998Z</time></trkpt><trkpt lat="37.85757974506639" lon="-4.787907864687331"><ele>99.0</ele><time>2026-04-05T14:07:43.998Z</time></trkpt><trkpt lat="37.85774527182618" lon="-4.788156799256368"><ele>98.0</ele><time>2026-04-05T14:07:44.998Z</time></trkpt><trkpt lat="37.85791549009254" lon="-4.788408327272225"><ele>97.0</ele><time>2026-04-05T14:07:45.998Z</time></trkpt><trkpt lat="37.85808591063826" lon="-4.78865860630572"><ele>96.0</ele><time>2026-04-05T14:07:46.998Z</time></trkpt><trkpt lat="37.85826034015448" lon="-4.7889073257149"><ele>96.0</ele><time>2026-04-05T14:07:47.998Z</time></trkpt><trkpt lat="37.85843799958127" lon="-4.789147682484438"><ele>96.0</ele><time>2026-04-05T14:07:48.998Z</time></trkpt><trkpt lat="37.85862220627998" lon="-4.789390344954736"><ele>95.5</ele><time>2026-04-05T14:07:49.998Z</time></trkpt><trkpt lat="37.85880648312989" lon="-4.789631640026388"><ele>95.0</ele><time>2026-04-05T14:07:50.998Z</time></trkpt><trkpt lat="37.85899436642767" lon="-4.789863326798173"><ele>95.0</ele><time>2026-04-05T14:07:51.998Z</time></trkpt><trkpt lat="37.85918179292879" lon="-4.790089044248589"><ele>95.0</ele><time>2026-04-05T14:07:52.998Z</time></trkpt><trkpt lat="37.85936564915068" lon="-4.790314033463989"><ele>91.5</ele><time>2026-04-05T14:07:53.998Z</time></trkpt><trkpt lat="37.85955412165974" lon="-4.790546551999524"><ele>88.0</ele><time>2026-04-05T14:07:54.998Z</time></trkpt><trkpt lat="37.85974038532709" lon="-4.790771591574786"><ele>88.0</ele><time>2026-04-05T14:07:55.998Z</time></trkpt><trkpt lat="37.85992721496317" lon="-4.790994708592691"><ele>88.0</ele><time>2026-04-05T14:07:56.998Z</time></trkpt><trkpt lat="37.86010540278574" lon="-4.791211093043353"><ele>90.5</ele><time>2026-04-05T14:07:57.997Z</time></trkpt><trkpt lat="37.86028321802958" lon="-4.791427834770962"><ele>93.0</ele><time>2026-04-05T14:07:58.997Z</time></trkpt><trkpt lat="37.86045828131474" lon="-4.791643944879876"><ele>92.0</ele><time>2026-04-05T14:07:59.997Z</time></trkpt><trkpt lat="37.86063567681343" lon="-4.791856164353747"><ele>91.0</ele><time>2026-04-05T14:08:00.996Z</time></trkpt><trkpt lat="37.86080905817131" lon="-4.792062321719925"><ele>93.0</ele><time>2026-04-05T14:08:01.997Z</time></trkpt><trkpt lat="37.86097799047585" lon="-4.792269427017863"><ele>95.0</ele><time>2026-04-05T14:08:02.997Z</time></trkpt><trkpt lat="37.861149274621546" lon="-4.792473958281259"><ele>92.5</ele><time>2026-04-05T14:08:03.996Z</time></trkpt><trkpt lat="37.861320485875524" lon="-4.79268667765986"><ele>90.0</ele><time>2026-04-05T14:08:04.996Z</time></trkpt><trkpt lat="37.86148902921876" lon="-4.792901620390952"><ele>90.0</ele><time>2026-04-05T14:08:05.996Z</time></trkpt><trkpt lat="37.861657845540364" lon="-4.793117234984448"><ele>90.0</ele><time>2026-04-05T14:08:06.997Z</time></trkpt><trkpt lat="37.861823275097045" lon="-4.793332628343531"><ele>92.0</ele><time>2026-04-05T14:08:07.997Z</time></trkpt><trkpt lat="37.86199179518506" lon="-4.793549241221452"><ele>94.0</ele><time>2026-04-05T14:08:08.997Z</time></trkpt><trkpt lat="37.862162498400394" lon="-4.7937676132453815"><ele>94.0</ele><time>2026-04-05T14:08:09.996Z</time></trkpt><trkpt lat="37.86233561492457" lon="-4.793988022862163"><ele>94.0</ele><time>2026-04-05T14:08:10.997Z</time></trkpt><trkpt lat="37.86250471258887" lon="-4.794208854978534"><ele>98.0</ele><time>2026-04-05T14:08:11.997Z</time></trkpt><trkpt lat="37.86267317807032" lon="-4.794434558689838"><ele>102.0</ele><time>2026-04-05T14:08:12.997Z</time></trkpt><trkpt lat="37.8628427961258" lon="-4.794660075199746"><ele>102.0</ele><time>2026-04-05T14:08:13.997Z</time></trkpt><trkpt lat="37.86301194824988" lon="-4.794886765116269"><ele>102.0</ele><time>2026-04-05T14:08:14.997Z</time></trkpt><trkpt lat="37.863179011806686" lon="-4.795117709975912"><ele>103.0</ele><time>2026-04-05T14:08:15.997Z</time></trkpt><trkpt lat="37.86334070650055" lon="-4.79535371318849"><ele>104.0</ele><time>2026-04-05T14:08:16.997Z</time></trkpt><trkpt lat="37.863492861147925" lon="-4.795599120973053"><ele>105.0</ele><time>2026-04-05T14:08:17.997Z</time></trkpt><trkpt lat="37.86363905362495" lon="-4.79585035061708"><ele>106.0</ele><time>2026-04-05T14:08:18.997Z</time></trkpt><trkpt lat="37.863779488003686" lon="-4.79610558485591"><ele>106.0</ele><time>2026-04-05T14:08:19.997Z</time></trkpt><trkpt lat="37.86391902165273" lon="-4.796356391213829"><ele>106.0</ele><time>2026-04-05T14:08:20.997Z</time></trkpt><trkpt lat="37.864054756900956" lon="-4.7966118823816135"><ele>106.5</ele><time>2026-04-05T14:08:21.997Z</time></trkpt><trkpt lat="37.864183646330616" lon="-4.796865804511997"><ele>107.0</ele><time>2026-04-05T14:08:22.997Z</time></trkpt><trkpt lat="37.86431646829215" lon="-4.797126287744396"><ele>107.0</ele><time>2026-04-05T14:08:23.997Z</time></trkpt><trkpt lat="37.86444511466682" lon="-4.797388354325133"><ele>107.0</ele><time>2026-04-05T14:08:24.997Z</time></trkpt><trkpt lat="37.86457666356828" lon="-4.797654801442873"><ele>106.0</ele><time>2026-04-05T14:08:25.997Z</time></trkpt><trkpt lat="37.864708117245875" lon="-4.797917474141551"><ele>105.0</ele><time>2026-04-05T14:08:26.997Z</time></trkpt><trkpt lat="37.86484339205647" lon="-4.798178120628369"><ele>105.0</ele><time>2026-04-05T14:08:27.997Z</time></trkpt><trkpt lat="37.864980252137514" lon="-4.798443571185644"><ele>105.0</ele><time>2026-04-05T14:08:28.997Z</time></trkpt><trkpt lat="37.865118943790634" lon="-4.798707529645496"><ele>105.5</ele><time>2026-04-05T14:08:29.997Z</time></trkpt><trkpt lat="37.865262129651754" lon="-4.798967686873613"><ele>106.0</ele><time>2026-04-05T14:08:30.997Z</time></trkpt><trkpt lat="37.86540692719591" lon="-4.799225931567941"><ele>105.5</ele><time>2026-04-05T14:08:31.997Z</time></trkpt><trkpt lat="37.86555494298635" lon="-4.799481496669459"><ele>105.0</ele><time>2026-04-05T14:08:32.997Z</time></trkpt><trkpt lat="37.86570690879124" lon="-4.799734491204334"><ele>105.0</ele><time>2026-04-05T14:08:33.997Z</time></trkpt><trkpt lat="37.865859193432115" lon="-4.799989751802412"><ele>105.0</ele><time>2026-04-05T14:08:34.997Z</time></trkpt><trkpt lat="37.866016141777486" lon="-4.8002415780564895"><ele>105.5</ele><time>2026-04-05T14:08:35.997Z</time></trkpt><trkpt lat="37.86618223302705" lon="-4.8004889282848815"><ele>106.0</ele><time>2026-04-05T14:08:36.997Z</time></trkpt><trkpt lat="37.86635837527936" lon="-4.800732020549055"><ele>106.0</ele><time>2026-04-05T14:08:37.997Z</time></trkpt><trkpt lat="37.8665395620825" lon="-4.800963031270025"><ele>106.0</ele><time>2026-04-05T14:08:38.997Z</time></trkpt><trkpt lat="37.86672363101339" lon="-4.8011843925617"><ele>110.0</ele><time>2026-04-05T14:08:39.997Z</time></trkpt><trkpt lat="37.86691733321694" lon="-4.801400597946604"><ele>114.0</ele><time>2026-04-05T14:08:40.997Z</time></trkpt><trkpt lat="37.867114727974936" lon="-4.8016227165735925"><ele>114.5</ele><time>2026-04-05T14:08:41.997Z</time></trkpt><trkpt lat="37.86731637206844" lon="-4.801832328634287"><ele>115.0</ele><time>2026-04-05T14:08:42.997Z</time></trkpt><trkpt lat="37.8675197132255" lon="-4.802016862837329"><ele>116.0</ele><time>2026-04-05T14:08:43.997Z</time></trkpt><trkpt lat="37.86772658343271" lon="-4.802188048327805"><ele>117.0</ele><time>2026-04-05T14:08:44.997Z</time></trkpt><trkpt lat="37.86793643281296" lon="-4.8023515614465335"><ele>117.0</ele><time>2026-04-05T14:08:45.997Z</time></trkpt><trkpt lat="37.86814919613524" lon="-4.802513368968084"><ele>117.0</ele><time>2026-04-05T14:08:46.997Z</time></trkpt><trkpt lat="37.86836436211772" lon="-4.802663754822013"><ele>116.5</ele><time>2026-04-05T14:08:47.997Z</time></trkpt><trkpt lat="37.86858818702155" lon="-4.802805695845926"><ele>116.0</ele><time>2026-04-05T14:08:48.997Z</time></trkpt><trkpt lat="37.86881429578167" lon="-4.802940414081805"><ele>116.0</ele><time>2026-04-05T14:08:49.997Z</time></trkpt><trkpt lat="37.86904201815176" lon="-4.803071221748003"><ele>116.0</ele><time>2026-04-05T14:08:50.997Z</time></trkpt><trkpt lat="37.869274072973944" lon="-4.803195354705599"><ele>115.5</ele><time>2026-04-05T14:08:51.997Z</time></trkpt><trkpt lat="37.8695112975567" lon="-4.803307430398031"><ele>115.0</ele><time>2026-04-05T14:08:52.997Z</time></trkpt><trkpt lat="37.869748213791894" lon="-4.8034172647242315"><ele>115.0</ele><time>2026-04-05T14:08:53.997Z</time></trkpt><trkpt lat="37.86999224377118" lon="-4.80351427129188"><ele>115.0</ele><time>2026-04-05T14:08:54.997Z</time></trkpt><trkpt lat="37.870238820355304" lon="-4.803602905218083"><ele>115.5</ele><time>2026-04-05T14:08:55.997Z</time></trkpt><trkpt lat="37.87048661904212" lon="-4.803679317921858"><ele>116.0</ele><time>2026-04-05T14:08:56.997Z</time></trkpt><trkpt lat="37.870733284484125" lon="-4.803749244367255"><ele>116.0</ele><time>2026-04-05T14:08:57.997Z</time></trkpt><trkpt lat="37.87098410009184" lon="-4.803806787752568"><ele>116.0</ele><time>2026-04-05T14:08:58.997Z</time></trkpt><trkpt lat="37.871236234145016" lon="-4.803851988044667"><ele>116.0</ele><time>2026-04-05T14:08:59.997Z</time></trkpt><trkpt lat="37.87148855226605" lon="-4.803888623814885"><ele>116.0</ele><time>2026-04-05T14:09:00.997Z</time></trkpt><trkpt lat="37.871740466515575" lon="-4.803925532799483"><ele>115.5</ele><time>2026-04-05T14:09:01.997Z</time></trkpt><trkpt lat="37.871991115081194" lon="-4.803970376611003"><ele>115.0</ele><time>2026-04-05T14:09:02.997Z</time></trkpt><trkpt lat="37.87224300554881" lon="-4.804000190991444"><ele>115.0</ele><time>2026-04-05T14:09:03.997Z</time></trkpt><trkpt lat="37.87249792990804" lon="-4.8040120815345695"><ele>115.0</ele><time>2026-04-05T14:09:04.997Z</time></trkpt><trkpt lat="37.87275214975092" lon="-4.804014851903578"><ele>115.5</ele><time>2026-04-05T14:09:05.997Z</time></trkpt><trkpt lat="37.87300676908066" lon="-4.804004342437034"><ele>116.0</ele><time>2026-04-05T14:09:06.997Z</time></trkpt><trkpt lat="37.87325733285351" lon="-4.803983871232485"><ele>115.0</ele><time>2026-04-05T14:09:07.997Z</time></trkpt><trkpt lat="37.873508371980165" lon="-4.803955297316959"><ele>114.0</ele><time>2026-04-05T14:09:08.997Z</time></trkpt><trkpt lat="37.87375280215658" lon="-4.80392080797861"><ele>114.0</ele><time>2026-04-05T14:09:09.997Z</time></trkpt><trkpt lat="37.87399942777192" lon="-4.803887772666047"><ele>114.0</ele><time>2026-04-05T14:09:10.997Z</time></trkpt><trkpt lat="37.874247999031574" lon="-4.803849014194486"><ele>114.0</ele><time>2026-04-05T14:09:11.997Z</time></trkpt><trkpt lat="37.874493729551055" lon="-4.803811417525915"><ele>114.0</ele><time>2026-04-05T14:09:12.997Z</time></trkpt><trkpt lat="37.874740657961" lon="-4.803772994816557"><ele>114.0</ele><time>2026-04-05T14:09:13.997Z</time></trkpt><trkpt lat="37.87498631840185" lon="-4.803734525940394"><ele>114.0</ele><time>2026-04-05T14:09:14.997Z</time></trkpt><trkpt lat="37.87523353647452" lon="-4.803700558384402"><ele>113.5</ele><time>2026-04-05T14:09:15.997Z</time></trkpt><trkpt lat="37.87548126859194" lon="-4.803666893550342"><ele>113.0</ele><time>2026-04-05T14:09:16.997Z</time></trkpt><trkpt lat="37.87573045810806" lon="-4.803635770161069"><ele>114.5</ele><time>2026-04-05T14:09:17.997Z</time></trkpt><trkpt lat="37.87597760258321" lon="-4.803608578192461"><ele>116.0</ele><time>2026-04-05T14:09:18.997Z</time></trkpt><trkpt lat="37.87622389474699" lon="-4.803595196250425"><ele>116.0</ele><time>2026-04-05T14:09:19.997Z</time></trkpt><trkpt lat="37.8764704301622" lon="-4.803602251039803"><ele>116.0</ele><time>2026-04-05T14:09:20.997Z</time></trkpt><trkpt lat="37.876722000591194" lon="-4.803627289119178"><ele>116.5</ele><time>2026-04-05T14:09:21.997Z</time></trkpt><trkpt lat="37.8769719334582" lon="-4.803661323999901"><ele>117.0</ele><time>2026-04-05T14:09:22.997Z</time></trkpt><trkpt lat="37.87722216237071" lon="-4.8037072573349535"><ele>117.0</ele><time>2026-04-05T14:09:23.998Z</time></trkpt><trkpt lat="37.877464847345905" lon="-4.803765800797108"><ele>117.0</ele><time>2026-04-05T14:09:24.998Z</time></trkpt><trkpt lat="37.8777112456759" lon="-4.8038391564516285"><ele>115.5</ele><time>2026-04-05T14:09:25.998Z</time></trkpt><trkpt lat="37.87795769807912" lon="-4.803928492711718"><ele>114.0</ele><time>2026-04-05T14:09:26.998Z</time></trkpt><trkpt lat="37.87821935587566" lon="-4.804033288959073"><ele>114.5</ele><time>2026-04-05T14:09:27.998Z</time></trkpt><trkpt lat="37.87846996927105" lon="-4.804137215914164"><ele>115.0</ele><time>2026-04-05T14:09:28.998Z</time></trkpt><trkpt lat="37.87870982898294" lon="-4.804255260195864"><ele>116.5</ele><time>2026-04-05T14:09:29.998Z</time></trkpt><trkpt lat="37.87894289662968" lon="-4.804380440573482"><ele>118.0</ele><time>2026-04-05T14:09:30.998Z</time></trkpt><trkpt lat="37.879164425755484" lon="-4.804507430074319"><ele>118.0</ele><time>2026-04-05T14:09:31.998Z</time></trkpt><trkpt lat="37.87938598595089" lon="-4.804635349574518"><ele>118.0</ele><time>2026-04-05T14:09:32.998Z</time></trkpt><trkpt lat="37.87961516694434" lon="-4.804770075684334"><ele>118.0</ele><time>2026-04-05T14:09:33.998Z</time></trkpt><trkpt lat="37.87985189902608" lon="-4.804912182589147"><ele>118.0</ele><time>2026-04-05T14:09:34.998Z</time></trkpt><trkpt lat="37.88008820361292" lon="-4.805056066889825"><ele>117.0</ele><time>2026-04-05T14:09:35.998Z</time></trkpt><trkpt lat="37.88032080306618" lon="-4.805187702190004"><ele>116.0</ele><time>2026-04-05T14:09:36.998Z</time></trkpt><trkpt lat="37.88054804241617" lon="-4.805318139316875"><ele>116.0</ele><time>2026-04-05T14:09:37.998Z</time></trkpt><trkpt lat="37.880768800210475" lon="-4.80545399708495"><ele>116.0</ele><time>2026-04-05T14:09:38.998Z</time></trkpt><trkpt lat="37.88098726678908" lon="-4.805577009671068"><ele>117.5</ele><time>2026-04-05T14:09:39.998Z</time></trkpt><trkpt lat="37.88120993189048" lon="-4.80569566783795"><ele>119.0</ele><time>2026-04-05T14:09:40.998Z</time></trkpt><trkpt lat="37.88143109957923" lon="-4.805807148626599"><ele>119.0</ele><time>2026-04-05T14:09:41.998Z</time></trkpt><trkpt lat="37.88165171239068" lon="-4.805908624751033"><ele>119.0</ele><time>2026-04-05T14:09:42.998Z</time></trkpt><trkpt lat="37.88187351101788" lon="-4.806002542221792"><ele>119.5</ele><time>2026-04-05T14:09:43.998Z</time></trkpt><trkpt lat="37.88209878677251" lon="-4.806089153403814"><ele>120.0</ele><time>2026-04-05T14:09:44.998Z</time></trkpt><trkpt lat="37.882301075697846" lon="-4.806224148750394"><ele>120.0</ele><time>2026-04-05T14:09:45.998Z</time></trkpt><trkpt lat="37.882510553627064" lon="-4.806344979627315"><ele>120.0</ele><time>2026-04-05T14:09:46.998Z</time></trkpt><trkpt lat="37.88271830729092" lon="-4.806464729521186"><ele>120.5</ele><time>2026-04-05T14:09:47.998Z</time></trkpt><trkpt lat="37.882925615333214" lon="-4.806588005211779"><ele>121.0</ele><time>2026-04-05T14:09:48.998Z</time></trkpt><trkpt lat="37.88348745137342" lon="-4.806919833069222"><ele>122.0</ele><time>2026-04-05T14:09:49.998Z</time></trkpt><trkpt lat="37.88390096955529" lon="-4.807118998867708"><ele>123.0</ele><time>2026-04-05T14:09:50.998Z</time></trkpt><trkpt lat="37.88415290023082" lon="-4.807390146304514"><ele>122.5</ele><time>2026-04-05T14:09:51.998Z</time></trkpt><trkpt lat="37.88439628203029" lon="-4.807545977432836"><ele>122.0</ele><time>2026-04-05T14:09:52.998Z</time></trkpt><trkpt lat="37.88464290364349" lon="-4.807684180940353"><ele>122.0</ele><time>2026-04-05T14:09:53.998Z</time></trkpt><trkpt lat="37.8848936726929" lon="-4.807805610596567"><ele>122.0</ele><time>2026-04-05T14:09:54.998Z</time></trkpt><trkpt lat="37.885144770140684" lon="-4.8079136364225805"><ele>122.0</ele><time>2026-04-05T14:09:55.998Z</time></trkpt><trkpt lat="37.88539643114335" lon="-4.808015881408447"><ele>122.0</ele><time>2026-04-05T14:09:56.998Z</time></trkpt><trkpt lat="37.88565039040932" lon="-4.808107883290895"><ele>122.0</ele><time>2026-04-05T14:09:57.998Z</time></trkpt><trkpt lat="37.88590291265352" lon="-4.808188606338129"><ele>122.0</ele><time>2026-04-05T14:09:58.998Z</time></trkpt><trkpt lat="37.88616335379223" lon="-4.808262443369306"><ele>122.0</ele><time>2026-04-05T14:09:59.998Z</time></trkpt><trkpt lat="37.88642308583912" lon="-4.808333048164622"><ele>122.0</ele><time>2026-04-05T14:10:00.998Z</time></trkpt><trkpt lat="37.88668351392185" lon="-4.8083911132208215"><ele>122.5</ele><time>2026-04-05T14:10:01.998Z</time></trkpt><trkpt lat="37.88694223948068" lon="-4.808445251358386"><ele>123.0</ele><time>2026-04-05T14:10:02.998Z</time></trkpt><trkpt lat="37.88719853590342" lon="-4.808483582340788"><ele>123.0</ele><time>2026-04-05T14:10:03.996Z</time></trkpt><trkpt lat="37.88745657122874" lon="-4.8085095136594465"><ele>123.0</ele><time>2026-04-05T14:10:04.995Z</time></trkpt><trkpt lat="37.88771323282628" lon="-4.808537363959841"><ele>123.0</ele><time>2026-04-05T14:10:05.995Z</time></trkpt><trkpt lat="37.88796998009289" lon="-4.808572113907895"><ele>123.0</ele><time>2026-04-05T14:10:06.996Z</time></trkpt><trkpt lat="37.88822529979232" lon="-4.808603132809479"><ele>124.0</ele><time>2026-04-05T14:10:07.995Z</time></trkpt><trkpt lat="37.88848337615293" lon="-4.8086353448371915"><ele>125.0</ele><time>2026-04-05T14:10:08.995Z</time></trkpt><trkpt lat="37.88873716575181" lon="-4.808669267730444"><ele>125.0</ele><time>2026-04-05T14:10:09.996Z</time></trkpt><trkpt lat="37.888990925632335" lon="-4.808707903736016"><ele>125.0</ele><time>2026-04-05T14:10:10.995Z</time></trkpt><trkpt lat="37.889244011694906" lon="-4.808743343064345"><ele>125.5</ele><time>2026-04-05T14:10:11.995Z</time></trkpt><trkpt lat="37.889486287934815" lon="-4.808777270257932"><ele>126.0</ele><time>2026-04-05T14:10:12.996Z</time></trkpt><trkpt lat="37.889723466695536" lon="-4.808813227235599"><ele>126.0</ele><time>2026-04-05T14:10:13.996Z</time></trkpt><trkpt lat="37.8899544052114" lon="-4.808845420496823"><ele>126.0</ele><time>2026-04-05T14:10:14.996Z</time></trkpt><trkpt lat="37.89018232836634" lon="-4.808880254678254"><ele>127.0</ele><time>2026-04-05T14:10:15.996Z</time></trkpt><trkpt lat="37.89040605898328" lon="-4.808914405975597"><ele>128.0</ele><time>2026-04-05T14:10:16.995Z</time></trkpt><trkpt lat="37.890633359258665" lon="-4.808955285326764"><ele>128.0</ele><time>2026-04-05T14:10:17.995Z</time></trkpt><trkpt lat="37.89086002785624" lon="-4.808994098783344"><ele>128.0</ele><time>2026-04-05T14:10:18.995Z</time></trkpt><trkpt lat="37.89107434976998" lon="-4.809026554287309"><ele>128.0</ele><time>2026-04-05T14:10:19.995Z</time></trkpt><trkpt lat="37.89127620972719" lon="-4.809057748899751"><ele>128.33333333333331</ele><time>2026-04-05T14:10:20.995Z</time></trkpt><trkpt lat="37.8914593431204" lon="-4.809080043431845"><ele>128.66666666666666</ele><time>2026-04-05T14:10:21.995Z</time></trkpt><trkpt lat="37.89162372344382" lon="-4.809089774175033"><ele>129.0</ele><time>2026-04-05T14:10:22.995Z</time></trkpt><trkpt lat="37.89176230225423" lon="-4.809091359918714"><ele>129.0</ele><time>2026-04-05T14:10:23.995Z</time></trkpt><trkpt lat="37.89188948041194" lon="-4.809078993839482"><ele>129.0</ele><time>2026-04-05T14:10:24.995Z</time></trkpt><trkpt lat="37.89199920972052" lon="-4.809047062999737"><ele>129.0</ele><time>2026-04-05T14:10:25.995Z</time></trkpt><trkpt lat="37.89209588061406" lon="-4.808991867081735"><ele>129.0</ele><time>2026-04-05T14:10:26.995Z</time></trkpt><trkpt lat="37.89217938012762" lon="-4.808919723872312"><ele>129.0</ele><time>2026-04-05T14:10:27.995Z</time></trkpt><trkpt lat="37.89226270955741" lon="-4.808849332175367"><ele>129.0</ele><time>2026-04-05T14:10:28.995Z</time></trkpt><trkpt lat="37.89234969558274" lon="-4.808798960567161"><ele>129.0</ele><time>2026-04-05T14:10:29.996Z</time></trkpt><trkpt lat="37.8924375429927" lon="-4.808775783792105"><ele>129.0</ele><time>2026-04-05T14:10:30.996Z</time></trkpt><trkpt lat="37.89252995868096" lon="-4.808791241134015"><ele>129.0</ele><time>2026-04-05T14:10:31.996Z</time></trkpt><trkpt lat="37.89260591525686" lon="-4.808854650138407"><ele>129.0</ele><time>2026-04-05T14:10:32.996Z</time></trkpt><trkpt lat="37.8926571497652" lon="-4.808945819408168"><ele>129.4</ele><time>2026-04-05T14:10:33.996Z</time></trkpt><trkpt lat="37.89267104962939" lon="-4.809057498496968"><ele>129.8</ele><time>2026-04-05T14:10:34.996Z</time></trkpt><trkpt lat="37.89265385755796" lon="-4.809167390697105"><ele>130.2</ele><time>2026-04-05T14:10:35.996Z</time></trkpt><trkpt lat="37.892614489295035" lon="-4.809266824600416"><ele>130.6</ele><time>2026-04-05T14:10:36.996Z</time></trkpt><trkpt lat="37.89255571700268" lon="-4.809356381566318"><ele>131.0</ele><time>2026-04-05T14:10:37.996Z</time></trkpt><trkpt lat="37.89246967957433" lon="-4.809430331665682"><ele>131.0</ele><time>2026-04-05T14:10:38.996Z</time></trkpt><trkpt lat="37.8924364665181" lon="-4.809526199071633"><ele>131.0</ele><time>2026-04-05T14:10:39.996Z</time></trkpt><trkpt lat="37.89250039251833" lon="-4.809642869200256"><ele>131.0</ele><time>2026-04-05T14:10:40.996Z</time></trkpt><trkpt lat="37.892511048018115" lon="-4.809731472781294"><ele>131.0</ele><time>2026-04-05T14:10:41.996Z</time></trkpt><trkpt lat="37.892512829497086" lon="-4.8098114182483265"><ele>131.0</ele><time>2026-04-05T14:10:42.996Z</time></trkpt><trkpt lat="37.8925163536287" lon="-4.8099560332704545"><ele>131.0</ele><time>2026-04-05T14:10:44.996Z</time></trkpt><trkpt lat="37.8925622310976" lon="-4.8100255737619"><ele>131.4</ele><time>2026-04-05T14:10:46.996Z</time></trkpt><trkpt lat="37.892655330267324" lon="-4.81001869764754"><ele>131.8</ele><time>2026-04-05T14:10:48.996Z</time></trkpt><trkpt lat="37.892735677183424" lon="-4.810010322634573"><ele>132.20000000000002</ele><time>2026-04-05T14:10:50.996Z</time></trkpt><trkpt lat="37.89280467254336" lon="-4.809976720477044"><ele>132.6</ele><time>2026-04-05T14:10:52.996Z</time></trkpt><trkpt lat="37.89280842193403" lon="-4.8098620995798"><ele>133.0</ele><time>2026-04-05T14:10:53.996Z</time></trkpt><trkpt lat="37.892811191639716" lon="-4.809720665536701"><ele>133.0</ele><time>2026-04-05T14:10:55.996Z</time></trkpt><trkpt lat="37.892830713756524" lon="-4.809602434462242"><ele>133.0</ele><time>2026-04-05T14:10:57.996Z</time></trkpt><trkpt lat="37.89289900547498" lon="-4.809526451581764"><ele>133.0</ele><time>2026-04-05T14:10:59.996Z</time></trkpt><trkpt lat="37.89295413331371" lon="-4.809469696353961"><ele>133.0</ele><time>2026-04-05T14:11:04.996Z</time></trkpt><trkpt lat="37.89303744400999" lon="-4.809514362434192"><ele>133.0</ele><time>2026-04-05T14:11:05.996Z</time></trkpt><trkpt lat="37.89310096484476" lon="-4.809507047029268"><ele>133.0</ele><time>2026-04-05T14:11:16.996Z</time></trkpt></trkseg><trkseg><trkpt lat="37.896954409298175" lon="-4.801707813584279"><ele>134.0</ele><time>2026-04-05T14:18:42.993Z</time></trkpt><trkpt lat="37.89700827843505" lon="-4.801603376431583"><ele>134.0</ele><time>2026-04-05T14:18:43.993Z</time></trkpt><trkpt lat="37.89706663352493" lon="-4.801490060103949"><ele>134.0</ele><time>2026-04-05T14:18:44.993Z</time></trkpt><trkpt lat="37.89712504876675" lon="-4.80137261054894"><ele>134.0</ele><time>2026-04-05T14:18:45.993Z</time></trkpt><trkpt lat="37.89719162139485" lon="-4.801253656250467"><ele>134.0</ele><time>2026-04-05T14:18:46.993Z</time></trkpt><trkpt lat="37.89725954567471" lon="-4.80113275749349"><ele>134.0</ele><time>2026-04-05T14:18:47.993Z</time></trkpt><trkpt lat="37.897325712775704" lon="-4.801008956500784"><ele>134.0</ele><time>2026-04-05T14:18:48.993Z</time></trkpt><trkpt lat="37.897390044358026" lon="-4.800886348213417"><ele>134.0</ele><time>2026-04-05T14:18:49.993Z</time></trkpt><trkpt lat="37.89745473952714" lon="-4.800763824998228"><ele>134.0</ele><time>2026-04-05T14:18:50.993Z</time></trkpt><trkpt lat="37.89751806867364" lon="-4.800644442576267"><ele>133.75</ele><time>2026-04-05T14:18:51.993Z</time></trkpt><trkpt lat="37.8975842546715" lon="-4.800526189754098"><ele>133.5</ele><time>2026-04-05T14:18:52.993Z</time></trkpt><trkpt lat="37.89764965214629" lon="-4.800410237459762"><ele>133.25</ele><time>2026-04-05T14:18:53.993Z</time></trkpt><trkpt lat="37.89771846115882" lon="-4.80029835393124"><ele>133.0</ele><time>2026-04-05T14:18:54.993Z</time></trkpt><trkpt lat="37.89778749837728" lon="-4.8001852986495575"><ele>133.20000000000002</ele><time>2026-04-05T14:18:55.993Z</time></trkpt><trkpt lat="37.89785044660562" lon="-4.800075089920014"><ele>133.4</ele><time>2026-04-05T14:18:56.993Z</time></trkpt><trkpt lat="37.89791472819086" lon="-4.799963123883654"><ele>133.60000000000002</ele><time>2026-04-05T14:18:57.993Z</time></trkpt><trkpt lat="37.89797343175126" lon="-4.799861292647802"><ele>133.8</ele><time>2026-04-05T14:18:58.993Z</time></trkpt><trkpt lat="37.8980241575354" lon="-4.799763580178432"><ele>134.0</ele><time>2026-04-05T14:18:59.993Z</time></trkpt><trkpt lat="37.89806785911586" lon="-4.799650316649665"><ele>134.0</ele><time>2026-04-05T14:19:00.993Z</time></trkpt><trkpt lat="37.89809805134766" lon="-4.79952956727106"><ele>134.0</ele><time>2026-04-05T14:19:01.993Z</time></trkpt><trkpt lat="37.89812876928218" lon="-4.799410138958024"><ele>134.0</ele><time>2026-04-05T14:19:02.993Z</time></trkpt><trkpt lat="37.89817301102095" lon="-4.79929667550355"><ele>134.0</ele><time>2026-04-05T14:19:03.993Z</time></trkpt><trkpt lat="37.89822811898444" lon="-4.799185755588337"><ele>134.0</ele><time>2026-04-05T14:19:04.993Z</time></trkpt><trkpt lat="37.89832837932106" lon="-4.799120265581107"><ele>134.4</ele><time>2026-04-05T14:19:05.993Z</time></trkpt><trkpt lat="37.89842631856748" lon="-4.7990751869925985"><ele>134.8</ele><time>2026-04-05T14:19:06.993Z</time></trkpt><trkpt lat="37.89852542973907" lon="-4.799067249493394"><ele>135.2</ele><time>2026-04-05T14:19:07.993Z</time></trkpt><trkpt lat="37.89863170108498" lon="-4.7990983785381784"><ele>135.6</ele><time>2026-04-05T14:19:08.993Z</time></trkpt><trkpt lat="37.898755365483275" lon="-4.7991396805397395"><ele>136.0</ele><time>2026-04-05T14:19:09.993Z</time></trkpt><trkpt lat="37.898882986303725" lon="-4.799164724806261"><ele>136.0</ele><time>2026-04-05T14:19:10.993Z</time></trkpt><trkpt lat="37.899014242699224" lon="-4.799175735725266"><ele>136.0</ele><time>2026-04-05T14:19:11.993Z</time></trkpt><trkpt lat="37.89914051909301" lon="-4.799175149865171"><ele>136.0</ele><time>2026-04-05T14:19:12.993Z</time></trkpt><trkpt lat="37.89926646671916" lon="-4.79917442442303"><ele>136.0</ele><time>2026-04-05T14:19:13.993Z</time></trkpt><trkpt lat="37.89937813254852" lon="-4.799173501845578"><ele>136.4</ele><time>2026-04-05T14:19:14.992Z</time></trkpt><trkpt lat="37.899479669880144" lon="-4.799167197157643"><ele>136.8</ele><time>2026-04-05T14:19:15.991Z</time></trkpt><trkpt lat="37.89957062729576" lon="-4.799145156694483"><ele>137.20000000000002</ele><time>2026-04-05T14:19:16.991Z</time></trkpt><trkpt lat="37.89965485802524" lon="-4.799087087516302"><ele>137.6</ele><time>2026-04-05T14:19:17.991Z</time></trkpt><trkpt lat="37.899739254186876" lon="-4.799021555773912"><ele>138.0</ele><time>2026-04-05T14:19:18.992Z</time></trkpt><trkpt lat="37.89981457771296" lon="-4.798968576017938"><ele>138.0</ele><time>2026-04-05T14:19:19.992Z</time></trkpt><trkpt lat="37.89987589739812" lon="-4.798926332353892"><ele>138.0</ele><time>2026-04-05T14:19:20.992Z</time></trkpt><trkpt lat="37.89993225307882" lon="-4.798890017631779"><ele>138.0</ele><time>2026-04-05T14:19:21.991Z</time></trkpt><trkpt lat="37.900006211701054" lon="-4.798884636065388"><ele>138.0</ele><time>2026-04-05T14:19:25.992Z</time></trkpt><trkpt lat="37.9000013435363" lon="-4.798768225524135"><ele>138.0</ele><time>2026-04-05T14:19:26.991Z</time></trkpt><trkpt lat="37.90003646801369" lon="-4.798687765927864"><ele>138.0</ele><time>2026-04-05T14:19:28.991Z</time></trkpt><trkpt lat="37.90007454744535" lon="-4.798600691109631"><ele>138.20000000000002</ele><time>2026-04-05T14:19:29.991Z</time></trkpt><trkpt lat="37.900120025908066" lon="-4.798495422056341"><ele>138.4</ele><time>2026-04-05T14:19:30.991Z</time></trkpt><trkpt lat="37.90017241479984" lon="-4.798374588242587"><ele>138.60000000000002</ele><time>2026-04-05T14:19:31.991Z</time></trkpt><trkpt lat="37.90023012871555" lon="-4.7982414724660645"><ele>138.8</ele><time>2026-04-05T14:19:32.991Z</time></trkpt><trkpt lat="37.90028995960241" lon="-4.7981034739775765"><ele>139.0</ele><time>2026-04-05T14:19:33.991Z</time></trkpt><trkpt lat="37.90035441369312" lon="-4.797954841831229"><ele>139.0</ele><time>2026-04-05T14:19:34.991Z</time></trkpt><trkpt lat="37.90042076122884" lon="-4.797801870504644"><ele>139.0</ele><time>2026-04-05T14:19:35.991Z</time></trkpt><trkpt lat="37.90048645124213" lon="-4.797650415155011"><ele>139.0</ele><time>2026-04-05T14:19:36.991Z</time></trkpt><trkpt lat="37.90055573772721" lon="-4.797490667719136"><ele>139.0</ele><time>2026-04-05T14:19:37.991Z</time></trkpt><trkpt lat="37.900622833191996" lon="-4.7973359719649835"><ele>139.0</ele><time>2026-04-05T14:19:38.991Z</time></trkpt><trkpt lat="37.90068747799121" lon="-4.797186926445441"><ele>139.0</ele><time>2026-04-05T14:19:39.991Z</time></trkpt><trkpt lat="37.90075549314417" lon="-4.797044147004842"><ele>139.0</ele><time>2026-04-05T14:19:40.991Z</time></trkpt><trkpt lat="37.900821388093675" lon="-4.796895741384621"><ele>139.0</ele><time>2026-04-05T14:19:41.991Z</time></trkpt><trkpt lat="37.900892424146306" lon="-4.796751569972822"><ele>140.0</ele><time>2026-04-05T14:19:42.991Z</time></trkpt><trkpt lat="37.90097135834121" lon="-4.796614659098215"><ele>141.0</ele><time>2026-04-05T14:19:43.991Z</time></trkpt><trkpt lat="37.90105390630283" lon="-4.796476820884209"><ele>142.0</ele><time>2026-04-05T14:19:44.991Z</time></trkpt><trkpt lat="37.90113467500079" lon="-4.7963265329441915"><ele>143.0</ele><time>2026-04-05T14:19:45.991Z</time></trkpt><trkpt lat="37.901211081580335" lon="-4.796178952025261"><ele>143.0</ele><time>2026-04-05T14:19:46.991Z</time></trkpt><trkpt lat="37.901276071368" lon="-4.79604013174823"><ele>143.0</ele><time>2026-04-05T14:19:47.991Z</time></trkpt><trkpt lat="37.90131630219801" lon="-4.795875593652352"><ele>143.0</ele><time>2026-04-05T14:19:48.991Z</time></trkpt><trkpt lat="37.90135831088659" lon="-4.7957157141610685"><ele>143.0</ele><time>2026-04-05T14:19:49.991Z</time></trkpt><trkpt lat="37.901399141778214" lon="-4.795564685544947"><ele>142.75</ele><time>2026-04-05T14:19:50.991Z</time></trkpt><trkpt lat="37.901426368129236" lon="-4.795405398870082"><ele>142.5</ele><time>2026-04-05T14:19:51.991Z</time></trkpt><trkpt lat="37.90144821197151" lon="-4.795238760573878"><ele>142.25</ele><time>2026-04-05T14:19:52.991Z</time></trkpt><trkpt lat="37.90146422319374" lon="-4.795070365491687"><ele>142.0</ele><time>2026-04-05T14:19:53.991Z</time></trkpt><trkpt lat="37.90147632182292" lon="-4.794900600779766"><ele>141.75</ele><time>2026-04-05T14:19:54.991Z</time></trkpt><trkpt lat="37.90147650248211" lon="-4.794728485045792"><ele>141.5</ele><time>2026-04-05T14:19:55.991Z</time></trkpt><trkpt lat="37.90147822844601" lon="-4.794554716271946"><ele>141.25</ele><time>2026-04-05T14:19:56.991Z</time></trkpt><trkpt lat="37.90147519259045" lon="-4.794389605817134"><ele>141.0</ele><time>2026-04-05T14:19:57.991Z</time></trkpt><trkpt lat="37.901472820008145" lon="-4.794216256443822"><ele>140.75</ele><time>2026-04-05T14:19:58.991Z</time></trkpt><trkpt lat="37.901473054269324" lon="-4.794039452354371"><ele>140.5</ele><time>2026-04-05T14:19:59.991Z</time></trkpt><trkpt lat="37.901454660720276" lon="-4.793868488521763"><ele>140.25</ele><time>2026-04-05T14:20:00.991Z</time></trkpt><trkpt lat="37.901456060753404" lon="-4.793671172641831"><ele>140.0</ele><time>2026-04-05T14:20:01.991Z</time></trkpt><trkpt lat="37.90145508024793" lon="-4.793491110564211"><ele>140.0</ele><time>2026-04-05T14:20:02.991Z</time></trkpt><trkpt lat="37.90145907874679" lon="-4.793311954371235"><ele>140.0</ele><time>2026-04-05T14:20:03.991Z</time></trkpt><trkpt lat="37.90146376684342" lon="-4.79313917491507"><ele>140.0</ele><time>2026-04-05T14:20:04.991Z</time></trkpt><trkpt lat="37.901472018066535" lon="-4.792967473033465"><ele>140.0</ele><time>2026-04-05T14:20:05.991Z</time></trkpt><trkpt lat="37.901484874566314" lon="-4.792792785773331"><ele>139.5</ele><time>2026-04-05T14:20:06.991Z</time></trkpt><trkpt lat="37.90150153920628" lon="-4.792625498828805"><ele>139.0</ele><time>2026-04-05T14:20:07.991Z</time></trkpt><trkpt lat="37.901534056787774" lon="-4.792465807491234"><ele>138.5</ele><time>2026-04-05T14:20:08.991Z</time></trkpt><trkpt lat="37.901569702666556" lon="-4.792303179527797"><ele>138.0</ele><time>2026-04-05T14:20:09.991Z</time></trkpt><trkpt lat="37.90162238850004" lon="-4.792135558213903"><ele>138.0</ele><time>2026-04-05T14:20:10.991Z</time></trkpt><trkpt lat="37.901673612098705" lon="-4.791973397246067"><ele>138.0</ele><time>2026-04-05T14:20:11.991Z</time></trkpt><trkpt lat="37.90172938876884" lon="-4.791820607729933"><ele>138.0</ele><time>2026-04-05T14:20:12.991Z</time></trkpt><trkpt lat="37.901798608350504" lon="-4.791680270828748"><ele>138.0</ele><time>2026-04-05T14:20:13.991Z</time></trkpt><trkpt lat="37.901860583281106" lon="-4.79153927606598"><ele>139.25</ele><time>2026-04-05T14:20:14.991Z</time></trkpt><trkpt lat="37.90192809176319" lon="-4.791400746925754"><ele>140.5</ele><time>2026-04-05T14:20:15.991Z</time></trkpt><trkpt lat="37.901996329244604" lon="-4.791276412465238"><ele>141.75</ele><time>2026-04-05T14:20:16.992Z</time></trkpt><trkpt lat="37.902065067134274" lon="-4.791154196509434"><ele>143.0</ele><time>2026-04-05T14:20:17.992Z</time></trkpt><trkpt lat="37.902134492517824" lon="-4.791030814988878"><ele>143.0</ele><time>2026-04-05T14:20:18.992Z</time></trkpt><trkpt lat="37.90220438701824" lon="-4.7909100781770855"><ele>143.0</ele><time>2026-04-05T14:20:19.992Z</time></trkpt><trkpt lat="37.90227532521594" lon="-4.790792395815928"><ele>143.0</ele><time>2026-04-05T14:20:20.992Z</time></trkpt><trkpt lat="37.90234643907437" lon="-4.79067341439825"><ele>143.0</ele><time>2026-04-05T14:20:21.992Z</time></trkpt><trkpt lat="37.90241462512081" lon="-4.790566089155505"><ele>143.0</ele><time>2026-04-05T14:20:22.992Z</time></trkpt><trkpt lat="37.90247757169638" lon="-4.790471282890636"><ele>143.0</ele><time>2026-04-05T14:20:23.992Z</time></trkpt><trkpt lat="37.9025309450601" lon="-4.7903912146024945"><ele>143.0</ele><time>2026-04-05T14:20:24.992Z</time></trkpt><trkpt lat="37.902576677215684" lon="-4.790314543540376"><ele>143.0</ele><time>2026-04-05T14:20:25.992Z</time></trkpt><trkpt lat="37.90261091267844" lon="-4.790219009792502"><ele>143.0</ele><time>2026-04-05T14:20:27.992Z</time></trkpt><trkpt lat="37.90266414730864" lon="-4.790138182507292"><ele>143.0</ele><time>2026-04-05T14:20:31.992Z</time></trkpt><trkpt lat="37.902718928969385" lon="-4.7900656178848"><ele>143.4</ele><time>2026-04-05T14:20:34.992Z</time></trkpt><trkpt lat="37.902770597667185" lon="-4.789967919958195"><ele>143.8</ele><time>2026-04-05T14:20:36.992Z</time></trkpt><trkpt lat="37.902828794691594" lon="-4.789878715432394"><ele>144.2</ele><time>2026-04-05T14:20:39.992Z</time></trkpt><trkpt lat="37.90287422199217" lon="-4.789792601079618"><ele>144.6</ele><time>2026-04-05T14:20:41.992Z</time></trkpt><trkpt lat="37.90292007567902" lon="-4.789663892679159"><ele>145.0</ele><time>2026-04-05T14:20:43.992Z</time></trkpt><trkpt lat="37.90294405419729" lon="-4.7895366187554"><ele>145.0</ele><time>2026-04-05T14:20:45.992Z</time></trkpt><trkpt lat="37.90298106957445" lon="-4.7894389309561936"><ele>145.0</ele><time>2026-04-05T14:20:47.992Z</time></trkpt><trkpt lat="37.90313321064975" lon="-4.789524861133265"><ele>145.0</ele><time>2026-04-05T14:20:48.992Z</time></trkpt><trkpt lat="37.903219178722054" lon="-4.789581090754186"><ele>145.0</ele><time>2026-04-05T14:20:49.992Z</time></trkpt><trkpt lat="37.90332543606641" lon="-4.789658478297734"><ele>145.6</ele><time>2026-04-05T14:20:50.992Z</time></trkpt><trkpt lat="37.90342676375303" lon="-4.789731077980059"><ele>146.2</ele><time>2026-04-05T14:20:51.992Z</time></trkpt><trkpt lat="37.90352831327914" lon="-4.789796046821976"><ele>146.8</ele><time>2026-04-05T14:20:52.992Z</time></trkpt><trkpt lat="37.903625000143855" lon="-4.789864857506591"><ele>147.4</ele><time>2026-04-05T14:20:53.992Z</time></trkpt><trkpt lat="37.90371684058268" lon="-4.789928180142066"><ele>148.0</ele><time>2026-04-05T14:20:54.992Z</time></trkpt><trkpt lat="37.90381127976102" lon="-4.789988107966034"><ele>148.0</ele><time>2026-04-05T14:20:55.992Z</time></trkpt><trkpt lat="37.903895122359906" lon="-4.790049169317908"><ele>148.0</ele><time>2026-04-05T14:20:56.992Z</time></trkpt><trkpt lat="37.90396745912682" lon="-4.790098775460443"><ele>148.0</ele><time>2026-04-05T14:20:57.992Z</time></trkpt><trkpt lat="37.90403406990217" lon="-4.790139208413336"><ele>148.0</ele><time>2026-04-05T14:20:58.992Z</time></trkpt><trkpt lat="37.90409323098376" lon="-4.790173639966945"><ele>148.0</ele><time>2026-04-05T14:20:59.992Z</time></trkpt><trkpt lat="37.904184350280126" lon="-4.790229275165804"><ele>148.0</ele><time>2026-04-05T14:21:01.992Z</time></trkpt><trkpt lat="37.90424636319116" lon="-4.790275642278617"><ele>148.8</ele><time>2026-04-05T14:21:03.992Z</time></trkpt><trkpt lat="37.904330089769424" lon="-4.790320542774425"><ele>149.60000000000002</ele><time>2026-04-05T14:21:29.99Z</time></trkpt><trkpt lat="37.90438930838538" lon="-4.79036395416054"><ele>150.39999999999998</ele><time>2026-04-05T14:21:30.99Z</time></trkpt><trkpt lat="37.904471459245364" lon="-4.790423746199531"><ele>151.2</ele><time>2026-04-05T14:21:31.99Z</time></trkpt><trkpt lat="37.90457388795622" lon="-4.790500334731537"><ele>152.0</ele><time>2026-04-05T14:21:32.99Z</time></trkpt><trkpt lat="37.904682826402876" lon="-4.790576888990442"><ele>152.0</ele><time>2026-04-05T14:21:33.99Z</time></trkpt><trkpt lat="37.90480405709354" lon="-4.790665988761136"><ele>152.0</ele><time>2026-04-05T14:21:34.99Z</time></trkpt><trkpt lat="37.904931267807534" lon="-4.790759046968604"><ele>152.0</ele><time>2026-04-05T14:21:35.99Z</time></trkpt><trkpt lat="37.90506566441597" lon="-4.790852672235449"><ele>152.0</ele><time>2026-04-05T14:21:36.99Z</time></trkpt><trkpt lat="37.90521078293761" lon="-4.790955442895644"><ele>155.0</ele><time>2026-04-05T14:21:37.99Z</time></trkpt><trkpt lat="37.905355002879844" lon="-4.791060264153463"><ele>158.0</ele><time>2026-04-05T14:21:38.99Z</time></trkpt><trkpt lat="37.90550497577918" lon="-4.79115943734369"><ele>161.0</ele><time>2026-04-05T14:21:39.99Z</time></trkpt><trkpt lat="37.90565507592129" lon="-4.791261138247609"><ele>161.0</ele><time>2026-04-05T14:21:40.99Z</time></trkpt><trkpt lat="37.905798501427995" lon="-4.791371931691002"><ele>161.0</ele><time>2026-04-05T14:21:41.99Z</time></trkpt><trkpt lat="37.905948047094476" lon="-4.791476827632985"><ele>161.0</ele><time>2026-04-05T14:21:42.99Z</time></trkpt><trkpt lat="37.90609589784159" lon="-4.7915807781595054"><ele>162.33333333333331</ele><time>2026-04-05T14:21:43.99Z</time></trkpt><trkpt lat="37.90624857739615" lon="-4.79168708841995"><ele>163.66666666666666</ele><time>2026-04-05T14:21:44.99Z</time></trkpt><trkpt lat="37.90641440327998" lon="-4.79179643388669"><ele>165.0</ele><time>2026-04-05T14:21:45.99Z</time></trkpt><trkpt lat="37.90657250846506" lon="-4.791905261235958"><ele>166.0</ele><time>2026-04-05T14:21:46.99Z</time></trkpt><trkpt lat="37.90673501021116" lon="-4.792017865355778"><ele>167.0</ele><time>2026-04-05T14:21:47.99Z</time></trkpt><trkpt lat="37.90689573114396" lon="-4.79212744047483"><ele>168.0</ele><time>2026-04-05T14:21:48.99Z</time></trkpt><trkpt lat="37.907048711536085" lon="-4.792231063072507"><ele>168.66666666666666</ele><time>2026-04-05T14:21:49.99Z</time></trkpt><trkpt lat="37.9071975734729" lon="-4.792335655188559"><ele>169.33333333333331</ele><time>2026-04-05T14:21:50.99Z</time></trkpt><trkpt lat="37.90734052837303" lon="-4.792433386128107"><ele>170.0</ele><time>2026-04-05T14:21:51.99Z</time></trkpt><trkpt lat="37.907478075849355" lon="-4.792526144192797"><ele>170.33333333333331</ele><time>2026-04-05T14:21:52.99Z</time></trkpt><trkpt lat="37.90761703275702" lon="-4.792615571977006"><ele>170.66666666666666</ele><time>2026-04-05T14:21:53.99Z</time></trkpt><trkpt lat="37.907751863476335" lon="-4.792708831142364"><ele>171.0</ele><time>2026-04-05T14:21:54.99Z</time></trkpt><trkpt lat="37.907887492612495" lon="-4.792804654995858"><ele>172.0</ele><time>2026-04-05T14:21:55.99Z</time></trkpt><trkpt lat="37.9080227659677" lon="-4.792899299750106"><ele>173.0</ele><time>2026-04-05T14:21:56.99Z</time></trkpt><trkpt lat="37.90815528196747" lon="-4.79299582758758"><ele>174.0</ele><time>2026-04-05T14:21:57.99Z</time></trkpt><trkpt lat="37.908297568331406" lon="-4.793090150028382"><ele>175.66666666666666</ele><time>2026-04-05T14:21:58.99Z</time></trkpt><trkpt lat="37.90843359076093" lon="-4.793187419664538"><ele>177.33333333333331</ele><time>2026-04-05T14:21:59.99Z</time></trkpt><trkpt lat="37.90856669802555" lon="-4.793284078868174"><ele>179.0</ele><time>2026-04-05T14:22:00.99Z</time></trkpt><trkpt lat="37.90870329013923" lon="-4.793382754422965"><ele>179.0</ele><time>2026-04-05T14:22:01.99Z</time></trkpt><trkpt lat="37.90883694116398" lon="-4.793476200155785"><ele>179.0</ele><time>2026-04-05T14:22:02.99Z</time></trkpt><trkpt lat="37.9089565253287" lon="-4.793559324494237"><ele>179.0</ele><time>2026-04-05T14:22:03.99Z</time></trkpt><trkpt lat="37.90904958664575" lon="-4.793624786467451"><ele>179.0</ele><time>2026-04-05T14:22:04.99Z</time></trkpt><trkpt lat="37.909111338805964" lon="-4.793664202962579"><ele>179.6</ele><time>2026-04-05T14:22:05.99Z</time></trkpt><trkpt lat="37.90918451809726" lon="-4.793703865601543"><ele>180.2</ele><time>2026-04-05T14:22:43.991Z</time></trkpt><trkpt lat="37.90924186340191" lon="-4.793744284196203"><ele>180.79999999999998</ele><time>2026-04-05T14:22:44.991Z</time></trkpt><trkpt lat="37.90932677331822" lon="-4.79379694979783"><ele>181.39999999999998</ele><time>2026-04-05T14:22:45.991Z</time></trkpt><trkpt lat="37.90942049049832" lon="-4.793859345186682"><ele>182.0</ele><time>2026-04-05T14:22:46.991Z</time></trkpt><trkpt lat="37.909517131034775" lon="-4.793927005846554"><ele>183.0</ele><time>2026-04-05T14:22:47.991Z</time></trkpt><trkpt lat="37.90962205862777" lon="-4.794001712985745"><ele>184.0</ele><time>2026-04-05T14:22:48.991Z</time></trkpt><trkpt lat="37.90974326337687" lon="-4.794086738768609"><ele>185.0</ele><time>2026-04-05T14:22:49.991Z</time></trkpt><trkpt lat="37.90987820060822" lon="-4.794186829523849"><ele>186.0</ele><time>2026-04-05T14:22:50.991Z</time></trkpt><trkpt lat="37.91001341510545" lon="-4.7942785951758085"><ele>189.0</ele><time>2026-04-05T14:22:51.991Z</time></trkpt><trkpt lat="37.91015203808244" lon="-4.7943736568808095"><ele>192.0</ele><time>2026-04-05T14:22:52.991Z</time></trkpt><trkpt lat="37.91029760810314" lon="-4.794469578457005"><ele>195.0</ele><time>2026-04-05T14:22:53.991Z</time></trkpt><trkpt lat="37.91044696332088" lon="-4.794572691117212"><ele>195.0</ele><time>2026-04-05T14:22:54.991Z</time></trkpt><trkpt lat="37.91059023534259" lon="-4.794669138125421"><ele>195.0</ele><time>2026-04-05T14:22:55.991Z</time></trkpt><trkpt lat="37.910716147578206" lon="-4.794756462892574"><ele>195.0</ele><time>2026-04-05T14:22:56.991Z</time></trkpt><trkpt lat="37.91083708968609" lon="-4.794844480010244"><ele>195.0</ele><time>2026-04-05T14:22:57.991Z</time></trkpt><trkpt lat="37.91096021604406" lon="-4.794930917512285"><ele>196.25</ele><time>2026-04-05T14:22:58.991Z</time></trkpt><trkpt lat="37.91107994281612" lon="-4.795013493111988"><ele>197.5</ele><time>2026-04-05T14:22:59.991Z</time></trkpt><trkpt lat="37.91119677202648" lon="-4.7950932825851345"><ele>198.75</ele><time>2026-04-05T14:23:00.991Z</time></trkpt><trkpt lat="37.91131835805844" lon="-4.79517693925426"><ele>200.0</ele><time>2026-04-05T14:23:01.991Z</time></trkpt><trkpt lat="37.91144098493291" lon="-4.795261042309702"><ele>200.25</ele><time>2026-04-05T14:23:02.991Z</time></trkpt><trkpt lat="37.91156226904201" lon="-4.795340631392242"><ele>200.5</ele><time>2026-04-05T14:23:03.991Z</time></trkpt><trkpt lat="37.911681248017736" lon="-4.795425976233375"><ele>200.75</ele><time>2026-04-05T14:23:04.991Z</time></trkpt><trkpt lat="37.91179460048965" lon="-4.795508533142049"><ele>201.0</ele><time>2026-04-05T14:23:05.991Z</time></trkpt><trkpt lat="37.91190909836844" lon="-4.795590907259996"><ele>202.75</ele><time>2026-04-05T14:23:06.991Z</time></trkpt><trkpt lat="37.912026384186014" lon="-4.795668860181343"><ele>204.5</ele><time>2026-04-05T14:23:07.991Z</time></trkpt><trkpt lat="37.912144655010984" lon="-4.795753594781724"><ele>206.25</ele><time>2026-04-05T14:23:08.991Z</time></trkpt><trkpt lat="37.9122704666952" lon="-4.7958420659817635"><ele>208.0</ele><time>2026-04-05T14:23:09.991Z</time></trkpt><trkpt lat="37.912398582229144" lon="-4.795933305182571"><ele>209.0</ele><time>2026-04-05T14:23:10.991Z</time></trkpt><trkpt lat="37.912531715533675" lon="-4.796026866284964"><ele>210.0</ele><time>2026-04-05T14:23:11.991Z</time></trkpt><trkpt lat="37.91266711193411" lon="-4.79612413476991"><ele>211.0</ele><time>2026-04-05T14:23:12.991Z</time></trkpt><trkpt lat="37.912807926090615" lon="-4.796221045756125"><ele>212.66666666666666</ele><time>2026-04-05T14:23:13.991Z</time></trkpt><trkpt lat="37.912949015669845" lon="-4.7963342268052065"><ele>214.33333333333331</ele><time>2026-04-05T14:23:14.991Z</time></trkpt><trkpt lat="37.91310324143472" lon="-4.796447425887169"><ele>216.0</ele><time>2026-04-05T14:23:15.991Z</time></trkpt><trkpt lat="37.91326938327815" lon="-4.796555612443203"><ele>216.66666666666669</ele><time>2026-04-05T14:23:16.991Z</time></trkpt><trkpt lat="37.91343461926639" lon="-4.796667352573543"><ele>217.33333333333334</ele><time>2026-04-05T14:23:17.991Z</time></trkpt><trkpt lat="37.91358797196276" lon="-4.796766611285748"><ele>218.0</ele><time>2026-04-05T14:23:18.991Z</time></trkpt><trkpt lat="37.91371119479473" lon="-4.796841366491063"><ele>218.4</ele><time>2026-04-05T14:23:19.991Z</time></trkpt><trkpt lat="37.913809473267264" lon="-4.796907151654723"><ele>218.8</ele><time>2026-04-05T14:23:20.991Z</time></trkpt><trkpt lat="37.9138946673714" lon="-4.796966601397763"><ele>219.2</ele><time>2026-04-05T14:23:21.991Z</time></trkpt><trkpt lat="37.9139781848459" lon="-4.797029797984407"><ele>219.6</ele><time>2026-04-05T14:23:22.991Z</time></trkpt><trkpt lat="37.914075136110945" lon="-4.7970992465523015"><ele>220.0</ele><time>2026-04-05T14:23:23.991Z</time></trkpt><trkpt lat="37.91417958204454" lon="-4.797173268066952"><ele>220.25</ele><time>2026-04-05T14:23:24.991Z</time></trkpt><trkpt lat="37.914291510569264" lon="-4.797251317843827"><ele>220.5</ele><time>2026-04-05T14:23:25.991Z</time></trkpt><trkpt lat="37.914400315577936" lon="-4.797326120677946"><ele>220.75</ele><time>2026-04-05T14:23:26.988Z</time></trkpt><trkpt lat="37.9145138663433" lon="-4.797403819825673"><ele>221.0</ele><time>2026-04-05T14:23:27.988Z</time></trkpt><trkpt lat="37.91461840832155" lon="-4.797477897725085"><ele>221.0</ele><time>2026-04-05T14:23:28.988Z</time></trkpt><trkpt lat="37.91472555467225" lon="-4.797556691122893"><ele>221.0</ele><time>2026-04-05T14:23:29.988Z</time></trkpt><trkpt lat="37.91483063719856" lon="-4.797643117458805"><ele>221.0</ele><time>2026-04-05T14:23:30.987Z</time></trkpt><trkpt lat="37.91493226574105" lon="-4.7977380713399596"><ele>221.0</ele><time>2026-04-05T14:23:31.987Z</time></trkpt><trkpt lat="37.915028612970566" lon="-4.797841703190875"><ele>221.5</ele><time>2026-04-05T14:23:32.988Z</time></trkpt><trkpt lat="37.91511961512134" lon="-4.79795471485513"><ele>222.0</ele><time>2026-04-05T14:23:33.988Z</time></trkpt><trkpt lat="37.91520383353689" lon="-4.79807308617743"><ele>222.5</ele><time>2026-04-05T14:23:34.988Z</time></trkpt><trkpt lat="37.91528261318859" lon="-4.798200241878895"><ele>223.0</ele><time>2026-04-05T14:23:35.988Z</time></trkpt><trkpt lat="37.91535708297628" lon="-4.7983373875734445"><ele>223.0</ele><time>2026-04-05T14:23:36.988Z</time></trkpt><trkpt lat="37.91542330107705" lon="-4.798478730853329"><ele>223.0</ele><time>2026-04-05T14:23:37.988Z</time></trkpt><trkpt lat="37.915481693151385" lon="-4.798622160837522"><ele>223.0</ele><time>2026-04-05T14:23:38.988Z</time></trkpt><trkpt lat="37.91554115689324" lon="-4.798770068071009"><ele>223.0</ele><time>2026-04-05T14:23:39.988Z</time></trkpt><trkpt lat="37.9155991607616" lon="-4.798916448796907"><ele>224.5</ele><time>2026-04-05T14:23:40.988Z</time></trkpt><trkpt lat="37.91563744333237" lon="-4.799080312609996"><ele>226.0</ele><time>2026-04-05T14:23:41.988Z</time></trkpt><trkpt lat="37.91569450723548" lon="-4.79923485857483"><ele>227.5</ele><time>2026-04-05T14:23:42.988Z</time></trkpt><trkpt lat="37.91575154354943" lon="-4.79939057015528"><ele>229.0</ele><time>2026-04-05T14:23:43.988Z</time></trkpt><trkpt lat="37.91581099323714" lon="-4.799548749136278"><ele>229.0</ele><time>2026-04-05T14:23:44.988Z</time></trkpt><trkpt lat="37.91586230832681" lon="-4.799685659651833"><ele>228.99999999999997</ele><time>2026-04-05T14:23:45.988Z</time></trkpt><trkpt lat="37.91590472288873" lon="-4.799810014962993"><ele>228.99999999999997</ele><time>2026-04-05T14:23:46.988Z</time></trkpt><trkpt lat="37.915941701395305" lon="-4.799915524495182"><ele>229.0</ele><time>2026-04-05T14:23:47.988Z</time></trkpt><trkpt lat="37.915970018922465" lon="-4.800001477943545"><ele>229.0</ele><time>2026-04-05T14:23:48.988Z</time></trkpt><trkpt lat="37.916009172767126" lon="-4.800079813424767"><ele>229.79999999999998</ele><time>2026-04-05T14:23:50.988Z</time></trkpt><trkpt lat="37.91605660969455" lon="-4.800208448652587"><ele>230.59999999999997</ele><time>2026-04-05T14:24:34.989Z</time></trkpt><trkpt lat="37.91609430655242" lon="-4.8003012415364665"><ele>231.4</ele><time>2026-04-05T14:24:35.989Z</time></trkpt><trkpt lat="37.91614220767854" lon="-4.800423002565662"><ele>232.2</ele><time>2026-04-05T14:24:36.989Z</time></trkpt><trkpt lat="37.916194291054715" lon="-4.80055460207958"><ele>233.0</ele><time>2026-04-05T14:24:37.989Z</time></trkpt><trkpt lat="37.91624549027461" lon="-4.800695734645127"><ele>233.0</ele><time>2026-04-05T14:24:38.989Z</time></trkpt><trkpt lat="37.91630637942416" lon="-4.8008468677149"><ele>233.0</ele><time>2026-04-05T14:24:39.989Z</time></trkpt><trkpt lat="37.916368581392234" lon="-4.801014867307697"><ele>233.0</ele><time>2026-04-05T14:24:40.989Z</time></trkpt><trkpt lat="37.91642622052478" lon="-4.8011787485764374"><ele>233.0</ele><time>2026-04-05T14:24:41.989Z</time></trkpt><trkpt lat="37.916475353191395" lon="-4.801338246033192"><ele>233.75</ele><time>2026-04-05T14:24:42.989Z</time></trkpt><trkpt lat="37.91652969198335" lon="-4.801493580531625"><ele>234.5</ele><time>2026-04-05T14:24:43.989Z</time></trkpt><trkpt lat="37.91658818191101" lon="-4.801657381755213"><ele>235.25</ele><time>2026-04-05T14:24:44.989Z</time></trkpt><trkpt lat="37.91664722189554" lon="-4.801817284765219"><ele>236.0</ele><time>2026-04-05T14:24:45.989Z</time></trkpt><trkpt lat="37.91671003947332" lon="-4.801985588899385"><ele>238.33333333333334</ele><time>2026-04-05T14:24:46.989Z</time></trkpt><trkpt lat="37.916772813565665" lon="-4.802155007106342"><ele>240.66666666666669</ele><time>2026-04-05T14:24:47.989Z</time></trkpt><trkpt lat="37.91683382078328" lon="-4.802333755985877"><ele>243.0</ele><time>2026-04-05T14:24:48.989Z</time></trkpt><trkpt lat="37.91689876452245" lon="-4.802509507793164"><ele>243.5</ele><time>2026-04-05T14:24:49.989Z</time></trkpt><trkpt lat="37.916961309996346" lon="-4.802679823053089"><ele>244.0</ele><time>2026-04-05T14:24:50.989Z</time></trkpt><trkpt lat="37.91702126096434" lon="-4.8028524978657"><ele>244.5</ele><time>2026-04-05T14:24:51.989Z</time></trkpt><trkpt lat="37.91708690134934" lon="-4.803014474189225"><ele>245.0</ele><time>2026-04-05T14:24:52.989Z</time></trkpt><trkpt lat="37.91716003939139" lon="-4.803155976217242"><ele>245.0</ele><time>2026-04-05T14:24:53.989Z</time></trkpt><trkpt lat="37.91723183781674" lon="-4.803269778877622"><ele>245.0</ele><time>2026-04-05T14:24:54.989Z</time></trkpt><trkpt lat="37.91734091260778" lon="-4.803358464083771"><ele>245.0</ele><time>2026-04-05T14:24:55.989Z</time></trkpt><trkpt lat="37.917454141935714" lon="-4.803411079452375"><ele>245.0</ele><time>2026-04-05T14:24:56.989Z</time></trkpt><trkpt lat="37.917574192320004" lon="-4.8034297994724025"><ele>246.75</ele><time>2026-04-05T14:24:57.989Z</time></trkpt><trkpt lat="37.917695548663595" lon="-4.80341414856622"><ele>248.5</ele><time>2026-04-05T14:24:58.989Z</time></trkpt><trkpt lat="37.917821988537185" lon="-4.80337609886076"><ele>250.25</ele><time>2026-04-05T14:24:59.989Z</time></trkpt><trkpt lat="37.917945666621556" lon="-4.8033420296665135"><ele>252.0</ele><time>2026-04-05T14:25:00.989Z</time></trkpt><trkpt lat="37.91806803221615" lon="-4.803310210104457"><ele>252.0</ele><time>2026-04-05T14:25:01.989Z</time></trkpt><trkpt lat="37.91819092654933" lon="-4.803290424728234"><ele>252.0</ele><time>2026-04-05T14:25:02.989Z</time></trkpt><trkpt lat="37.91831340000063" lon="-4.803301087026388"><ele>252.0</ele><time>2026-04-05T14:25:03.989Z</time></trkpt><trkpt lat="37.91842595457192" lon="-4.803353411862963"><ele>252.0</ele><time>2026-04-05T14:25:04.989Z</time></trkpt><trkpt lat="37.91853509813988" lon="-4.803434796748373"><ele>253.0</ele><time>2026-04-05T14:25:05.989Z</time></trkpt><trkpt lat="37.91864936239606" lon="-4.803528704833265"><ele>254.0</ele><time>2026-04-05T14:25:06.989Z</time></trkpt><trkpt lat="37.918769377798476" lon="-4.8036226460980425"><ele>255.0</ele><time>2026-04-05T14:25:07.989Z</time></trkpt><trkpt lat="37.91889604385621" lon="-4.803718233658369"><ele>256.0</ele><time>2026-04-05T14:25:08.989Z</time></trkpt><trkpt lat="37.9190335967279" lon="-4.803804601325117"><ele>256.0</ele><time>2026-04-05T14:25:09.989Z</time></trkpt><trkpt lat="37.919177479172035" lon="-4.803879956146449"><ele>256.0</ele><time>2026-04-05T14:25:10.989Z</time></trkpt><trkpt lat="37.91932336163768" lon="-4.803960185463237"><ele>256.0</ele><time>2026-04-05T14:25:11.989Z</time></trkpt><trkpt lat="37.91946973183965" lon="-4.804035948327378"><ele>258.3333333333333</ele><time>2026-04-05T14:25:12.989Z</time></trkpt><trkpt lat="37.91961308699354" lon="-4.804111187692084"><ele>260.6666666666667</ele><time>2026-04-05T14:25:13.989Z</time></trkpt><trkpt lat="37.91975166960189" lon="-4.8041913677595875"><ele>263.0</ele><time>2026-04-05T14:25:14.989Z</time></trkpt><trkpt lat="37.91988611789375" lon="-4.804272161050078"><ele>264.25</ele><time>2026-04-05T14:25:15.989Z</time></trkpt><trkpt lat="37.9200191627961" lon="-4.80436100587645"><ele>265.5</ele><time>2026-04-05T14:25:16.989Z</time></trkpt><trkpt lat="37.92015034508079" lon="-4.8044540448143485"><ele>266.75</ele><time>2026-04-05T14:25:17.989Z</time></trkpt><trkpt lat="37.920278470859515" lon="-4.804549858742095"><ele>268.0</ele><time>2026-04-05T14:25:18.989Z</time></trkpt><trkpt lat="37.92040581447457" lon="-4.804648117599363"><ele>268.0</ele><time>2026-04-05T14:25:19.989Z</time></trkpt><trkpt lat="37.92053681867158" lon="-4.804751076243153"><ele>268.0</ele><time>2026-04-05T14:25:20.989Z</time></trkpt><trkpt lat="37.92067691581394" lon="-4.804840735450222"><ele>268.0</ele><time>2026-04-05T14:25:21.989Z</time></trkpt><trkpt lat="37.92082030699776" lon="-4.804912061673425"><ele>270.25</ele><time>2026-04-05T14:25:22.989Z</time></trkpt><trkpt lat="37.92097021071448" lon="-4.804939231548072"><ele>272.5</ele><time>2026-04-05T14:25:23.989Z</time></trkpt><trkpt lat="37.921103096368945" lon="-4.804952363621339"><ele>274.75</ele><time>2026-04-05T14:25:24.989Z</time></trkpt><trkpt lat="37.92123666391491" lon="-4.804958108416727"><ele>277.0</ele><time>2026-04-05T14:25:25.989Z</time></trkpt><trkpt lat="37.92137455932937" lon="-4.804977500896849"><ele>277.0</ele><time>2026-04-05T14:25:26.989Z</time></trkpt><trkpt lat="37.92149188268565" lon="-4.805034703189516"><ele>277.0</ele><time>2026-04-05T14:25:27.989Z</time></trkpt><trkpt lat="37.92160587152773" lon="-4.805124821541129"><ele>277.0</ele><time>2026-04-05T14:25:28.989Z</time></trkpt><trkpt lat="37.921709886186754" lon="-4.805250949742494"><ele>277.0</ele><time>2026-04-05T14:25:29.989Z</time></trkpt><trkpt lat="37.92180282442026" lon="-4.805391394531605"><ele>276.66666666666663</ele><time>2026-04-05T14:25:30.989Z</time></trkpt><trkpt lat="37.92189469496766" lon="-4.805562439686632"><ele>276.3333333333333</ele><time>2026-04-05T14:25:31.989Z</time></trkpt><trkpt lat="37.92198604867497" lon="-4.805737869675519"><ele>276.0</ele><time>2026-04-05T14:25:32.987Z</time></trkpt><trkpt lat="37.922076959162986" lon="-4.805901588213356"><ele>278.0</ele><time>2026-04-05T14:25:33.987Z</time></trkpt><trkpt lat="37.92218633818549" lon="-4.80603667383139"><ele>280.0</ele><time>2026-04-05T14:25:34.987Z</time></trkpt><trkpt lat="37.922320730209265" lon="-4.806140967049535"><ele>282.0</ele><time>2026-04-05T14:25:35.987Z</time></trkpt><trkpt lat="37.922459797037654" lon="-4.806234772489852"><ele>284.3333333333333</ele><time>2026-04-05T14:25:36.987Z</time></trkpt><trkpt lat="37.92262114845458" lon="-4.806311502499211"><ele>286.66666666666663</ele><time>2026-04-05T14:25:37.987Z</time></trkpt><trkpt lat="37.922791441591485" lon="-4.806387589179849"><ele>289.0</ele><time>2026-04-05T14:25:38.987Z</time></trkpt><trkpt lat="37.922955204472196" lon="-4.806444187681617"><ele>289.0</ele><time>2026-04-05T14:25:39.986Z</time></trkpt><trkpt lat="37.92312055531402" lon="-4.806472391263084"><ele>289.0</ele><time>2026-04-05T14:25:40.986Z</time></trkpt><trkpt lat="37.92330626974202" lon="-4.806446722007822"><ele>289.0</ele><time>2026-04-05T14:25:41.987Z</time></trkpt><trkpt lat="37.92350991231381" lon="-4.806400544710611"><ele>290.3333333333333</ele><time>2026-04-05T14:25:42.987Z</time></trkpt><trkpt lat="37.92370002904103" lon="-4.80633648651762"><ele>291.6666666666667</ele><time>2026-04-05T14:25:43.987Z</time></trkpt><trkpt lat="37.923889511396304" lon="-4.806328711317845"><ele>293.0</ele><time>2026-04-05T14:25:44.987Z</time></trkpt><trkpt lat="37.9240647465608" lon="-4.806329089353346"><ele>293.6666666666667</ele><time>2026-04-05T14:25:45.987Z</time></trkpt><trkpt lat="37.92423276833039" lon="-4.806361831743914"><ele>294.3333333333333</ele><time>2026-04-05T14:25:46.987Z</time></trkpt><trkpt lat="37.92439849184533" lon="-4.806426576225278"><ele>295.0</ele><time>2026-04-05T14:25:47.987Z</time></trkpt><trkpt lat="37.924573171108065" lon="-4.806505780110048"><ele>295.0</ele><time>2026-04-05T14:25:48.987Z</time></trkpt><trkpt lat="37.924743570065154" lon="-4.806589850657366"><ele>295.0</ele><time>2026-04-05T14:25:49.987Z</time></trkpt><trkpt lat="37.924907447589874" lon="-4.806671709859387"><ele>295.0</ele><time>2026-04-05T14:25:50.987Z</time></trkpt><trkpt lat="37.925071249948296" lon="-4.806754822890415"><ele>295.3333333333333</ele><time>2026-04-05T14:25:51.987Z</time></trkpt><trkpt lat="37.92522845546042" lon="-4.806813423972112"><ele>295.6666666666667</ele><time>2026-04-05T14:25:52.987Z</time></trkpt><trkpt lat="37.92539071438277" lon="-4.806838600930269"><ele>296.0</ele><time>2026-04-05T14:25:53.987Z</time></trkpt><trkpt lat="37.925553973218896" lon="-4.806820222575461"><ele>296.0</ele><time>2026-04-05T14:25:54.987Z</time></trkpt><trkpt lat="37.92572427663874" lon="-4.806770470389117"><ele>296.0</ele><time>2026-04-05T14:25:55.987Z</time></trkpt><trkpt lat="37.92589232895165" lon="-4.806712505900362"><ele>296.0</ele><time>2026-04-05T14:25:56.987Z</time></trkpt><trkpt lat="37.92606001990611" lon="-4.806669112006692"><ele>298.33333333333337</ele><time>2026-04-05T14:25:57.987Z</time></trkpt><trkpt lat="37.92622772603706" lon="-4.80665815968763"><ele>300.6666666666667</ele><time>2026-04-05T14:25:58.987Z</time></trkpt><trkpt lat="37.92639983097396" lon="-4.8066842780602785"><ele>303.0</ele><time>2026-04-05T14:25:59.987Z</time></trkpt><trkpt lat="37.92656586893272" lon="-4.806741772181833"><ele>303.6666666666667</ele><time>2026-04-05T14:26:00.987Z</time></trkpt><trkpt lat="37.926716532758405" lon="-4.806835563362519"><ele>304.33333333333337</ele><time>2026-04-05T14:26:01.987Z</time></trkpt><trkpt lat="37.92685185314331" lon="-4.806969128963313"><ele>305.0</ele><time>2026-04-05T14:26:02.987Z</time></trkpt><trkpt lat="37.92697175524559" lon="-4.807139663887005"><ele>308.0</ele><time>2026-04-05T14:26:03.987Z</time></trkpt><trkpt lat="37.92708220937594" lon="-4.807338206242335"><ele>311.0</ele><time>2026-04-05T14:26:04.987Z</time></trkpt><trkpt lat="37.92718228413389" lon="-4.807551956996668"><ele>314.0</ele><time>2026-04-05T14:26:05.987Z</time></trkpt><trkpt lat="37.92727859170465" lon="-4.807774255165769"><ele>314.6666666666667</ele><time>2026-04-05T14:26:06.987Z</time></trkpt><trkpt lat="37.92736647469419" lon="-4.808018067840387"><ele>315.3333333333333</ele><time>2026-04-05T14:26:07.987Z</time></trkpt><trkpt lat="37.92743247483742" lon="-4.80829087720776"><ele>316.0</ele><time>2026-04-05T14:26:08.987Z</time></trkpt><trkpt lat="37.927479956492704" lon="-4.808568200744786"><ele>317.75</ele><time>2026-04-05T14:26:09.987Z</time></trkpt><trkpt lat="37.927515030755934" lon="-4.808810285968576"><ele>319.5</ele><time>2026-04-05T14:26:10.987Z</time></trkpt><trkpt lat="37.9275263079318" lon="-4.808988815839208"><ele>321.25</ele><time>2026-04-05T14:26:11.987Z</time></trkpt><trkpt lat="37.9275592608842" lon="-4.809121921702086"><ele>323.0</ele><time>2026-04-05T14:26:12.987Z</time></trkpt><trkpt lat="37.9275646901785" lon="-4.809276604308441"><ele>324.0</ele><time>2026-04-05T14:26:13.987Z</time></trkpt><trkpt lat="37.92749908355006" lon="-4.809467410674747"><ele>325.0</ele><time>2026-04-05T14:26:14.987Z</time></trkpt><trkpt lat="37.92739443126413" lon="-4.8095777828709245"><ele>326.0</ele><time>2026-04-05T14:26:15.987Z</time></trkpt><trkpt lat="37.927284549960525" lon="-4.809673487365295"><ele>327.0</ele><time>2026-04-05T14:26:16.987Z</time></trkpt><trkpt lat="37.92716540500229" lon="-4.809774223828115"><ele>327.0</ele><time>2026-04-05T14:26:17.987Z</time></trkpt><trkpt lat="37.927067767708174" lon="-4.809861235776332"><ele>327.0</ele><time>2026-04-05T14:26:18.987Z</time></trkpt><trkpt lat="37.92696515284774" lon="-4.809938526383375"><ele>327.0</ele><time>2026-04-05T14:26:19.987Z</time></trkpt><trkpt lat="37.926861662269715" lon="-4.810012766147899"><ele>327.0</ele><time>2026-04-05T14:26:20.987Z</time></trkpt><trkpt lat="37.92674297554169" lon="-4.810088016734199"><ele>327.5</ele><time>2026-04-05T14:26:21.987Z</time></trkpt><trkpt lat="37.926598204086595" lon="-4.810089365738717"><ele>328.0</ele><time>2026-04-05T14:26:22.987Z</time></trkpt><trkpt lat="37.9264652183609" lon="-4.810041076598252"><ele>328.5</ele><time>2026-04-05T14:26:23.987Z</time></trkpt><trkpt lat="37.926335917303454" lon="-4.809999955789792"><ele>329.0</ele><time>2026-04-05T14:26:24.987Z</time></trkpt><trkpt lat="37.92622203720286" lon="-4.8100276522707395"><ele>329.0</ele><time>2026-04-05T14:26:25.987Z</time></trkpt><trkpt lat="37.92612326365812" lon="-4.810070869577356"><ele>329.0</ele><time>2026-04-05T14:26:26.987Z</time></trkpt><trkpt lat="37.92604693754555" lon="-4.810140750560039"><ele>329.0</ele><time>2026-04-05T14:26:27.987Z</time></trkpt><trkpt lat="37.92599431578407" lon="-4.810248785478992"><ele>329.0</ele><time>2026-04-05T14:26:28.987Z</time></trkpt><trkpt lat="37.925977708461936" lon="-4.810390122454099"><ele>329.0</ele><time>2026-04-05T14:26:29.987Z</time></trkpt><trkpt lat="37.925986675716906" lon="-4.810554075641309"><ele>332.0</ele><time>2026-04-05T14:26:30.987Z</time></trkpt><trkpt lat="37.9259950923477" lon="-4.810741453271775"><ele>335.0</ele><time>2026-04-05T14:26:31.987Z</time></trkpt><trkpt lat="37.92600622740612" lon="-4.810940312460126"><ele>338.0</ele><time>2026-04-05T14:26:32.987Z</time></trkpt><trkpt lat="37.926009413370714" lon="-4.811168831638021"><ele>341.25</ele><time>2026-04-05T14:26:33.987Z</time></trkpt><trkpt lat="37.92600635710202" lon="-4.811370463688198"><ele>344.5</ele><time>2026-04-05T14:26:34.987Z</time></trkpt><trkpt lat="37.925990484751345" lon="-4.8115518547630405"><ele>347.75</ele><time>2026-04-05T14:26:35.987Z</time></trkpt><trkpt lat="37.92596448728591" lon="-4.811715301698827"><ele>351.0</ele><time>2026-04-05T14:26:36.987Z</time></trkpt><trkpt lat="37.92592554716396" lon="-4.811851222136074"><ele>353.20000000000005</ele><time>2026-04-05T14:26:37.987Z</time></trkpt><trkpt lat="37.92586795583971" lon="-4.811959886915369"><ele>355.40000000000003</ele><time>2026-04-05T14:26:38.987Z</time></trkpt><trkpt lat="37.92579452065391" lon="-4.8120345471599855"><ele>357.6</ele><time>2026-04-05T14:26:39.987Z</time></trkpt><trkpt lat="37.925715234584516" lon="-4.8120882272509675"><ele>359.8</ele><time>2026-04-05T14:26:40.987Z</time></trkpt><trkpt lat="37.925620169620174" lon="-4.8120970948221276"><ele>362.0</ele><time>2026-04-05T14:26:41.987Z</time></trkpt><trkpt lat="37.9255214207286" lon="-4.8120119063852105"><ele>362.0</ele><time>2026-04-05T14:26:42.987Z</time></trkpt><trkpt lat="37.92544964281261" lon="-4.811892938297782"><ele>362.0</ele><time>2026-04-05T14:26:43.987Z</time></trkpt><trkpt lat="37.925369366515284" lon="-4.8117601503375536"><ele>362.0</ele><time>2026-04-05T14:26:44.987Z</time></trkpt><trkpt lat="37.92528140773592" lon="-4.811647211909126"><ele>362.0</ele><time>2026-04-05T14:26:45.987Z</time></trkpt><trkpt lat="37.92519442216229" lon="-4.811554014986064"><ele>358.8</ele><time>2026-04-05T14:26:46.987Z</time></trkpt><trkpt lat="37.92511627260667" lon="-4.8114902191411195"><ele>355.6</ele><time>2026-04-05T14:26:47.987Z</time></trkpt><trkpt lat="37.925048200492135" lon="-4.811472305759549"><ele>352.40000000000003</ele><time>2026-04-05T14:26:48.987Z</time></trkpt><trkpt lat="37.92495477777129" lon="-4.811578112032086"><ele>349.20000000000005</ele><time>2026-04-05T14:26:50.987Z</time></trkpt><trkpt lat="37.92493762377215" lon="-4.811686139186806"><ele>346.0</ele><time>2026-04-05T14:26:51.987Z</time></trkpt><trkpt lat="37.92492445493821" lon="-4.811823381876746"><ele>349.25</ele><time>2026-04-05T14:26:52.988Z</time></trkpt><trkpt lat="37.92490897244611" lon="-4.811980948358756"><ele>352.5</ele><time>2026-04-05T14:26:53.988Z</time></trkpt><trkpt lat="37.92489099267553" lon="-4.8121318760516045"><ele>355.75</ele><time>2026-04-05T14:26:54.988Z</time></trkpt><trkpt lat="37.9248567699737" lon="-4.812264955690115"><ele>359.0</ele><time>2026-04-05T14:26:55.988Z</time></trkpt><trkpt lat="37.92478278810148" lon="-4.812364410048176"><ele>359.0</ele><time>2026-04-05T14:26:56.988Z</time></trkpt><trkpt lat="37.92467761213006" lon="-4.812439925368661"><ele>359.0</ele><time>2026-04-05T14:26:57.988Z</time></trkpt><trkpt lat="37.92457313903276" lon="-4.812495084704082"><ele>359.0</ele><time>2026-04-05T14:26:58.988Z</time></trkpt><trkpt lat="37.92445163633051" lon="-4.812494438721785"><ele>359.0</ele><time>2026-04-05T14:26:59.988Z</time></trkpt><trkpt lat="37.9243203521521" lon="-4.812419302524787"><ele>360.6666666666667</ele><time>2026-04-05T14:27:00.988Z</time></trkpt><trkpt lat="37.92420697904773" lon="-4.812286870109835"><ele>362.3333333333333</ele><time>2026-04-05T14:27:01.988Z</time></trkpt><trkpt lat="37.924086419690056" lon="-4.8121532230287904"><ele>364.0</ele><time>2026-04-05T14:27:02.988Z</time></trkpt><trkpt lat="37.923971618673185" lon="-4.8120300193910355"><ele>364.0</ele><time>2026-04-05T14:27:03.988Z</time></trkpt><trkpt lat="37.923862444495924" lon="-4.811928402574198"><ele>364.0</ele><time>2026-04-05T14:27:04.988Z</time></trkpt><trkpt lat="37.92376281158296" lon="-4.811838892825963"><ele>364.0</ele><time>2026-04-05T14:27:05.988Z</time></trkpt><trkpt lat="37.92367549043431" lon="-4.811776608578378"><ele>364.0</ele><time>2026-04-05T14:27:06.988Z</time></trkpt><trkpt lat="37.923597642284186" lon="-4.811748908190493"><ele>364.0</ele><time>2026-04-05T14:27:07.988Z</time></trkpt><trkpt lat="37.92350866548757" lon="-4.811753600087462"><ele>364.0</ele><time>2026-04-05T14:27:08.988Z</time></trkpt><trkpt lat="37.9234094247202" lon="-4.8118396125483285"><ele>364.0</ele><time>2026-04-05T14:27:09.988Z</time></trkpt><trkpt lat="37.92331134538602" lon="-4.811951692629338"><ele>364.0</ele><time>2026-04-05T14:27:10.988Z</time></trkpt><trkpt lat="37.92322312243412" lon="-4.812087925031729"><ele>364.0</ele><time>2026-04-05T14:27:11.988Z</time></trkpt><trkpt lat="37.92315328841552" lon="-4.8122444981397905"><ele>365.0</ele><time>2026-04-05T14:27:12.988Z</time></trkpt><trkpt lat="37.923092869179236" lon="-4.812399882208584"><ele>366.0</ele><time>2026-04-05T14:27:13.988Z</time></trkpt><trkpt lat="37.92304542862563" lon="-4.81256050733739"><ele>367.0</ele><time>2026-04-05T14:27:14.988Z</time></trkpt><trkpt lat="37.923010441440745" lon="-4.812723808490468"><ele>368.0</ele><time>2026-04-05T14:27:15.988Z</time></trkpt><trkpt lat="37.92298959712204" lon="-4.812891288674457"><ele>370.5</ele><time>2026-04-05T14:27:16.988Z</time></trkpt><trkpt lat="37.92299292746842" lon="-4.813053500408148"><ele>373.0</ele><time>2026-04-05T14:27:17.988Z</time></trkpt><trkpt lat="37.92301874430669" lon="-4.8131955844941805"><ele>375.5</ele><time>2026-04-05T14:27:18.988Z</time></trkpt><trkpt lat="37.92304988295586" lon="-4.81332530583063"><ele>378.0</ele><time>2026-04-05T14:27:19.988Z</time></trkpt><trkpt lat="37.92306446472892" lon="-4.813450507996135"><ele>379.79999999999995</ele><time>2026-04-05T14:27:20.988Z</time></trkpt><trkpt lat="37.923051259246776" lon="-4.813560888501976"><ele>381.6</ele><time>2026-04-05T14:27:21.988Z</time></trkpt><trkpt lat="37.92300671136865" lon="-4.813649519887284"><ele>383.4</ele><time>2026-04-05T14:27:22.988Z</time></trkpt><trkpt lat="37.922929096612506" lon="-4.813701053639186"><ele>385.20000000000005</ele><time>2026-04-05T14:27:23.987Z</time></trkpt><trkpt lat="37.922829973784175" lon="-4.813707430830959"><ele>387.0</ele><time>2026-04-05T14:27:24.987Z</time></trkpt><trkpt lat="37.92270940446029" lon="-4.813689056667118"><ele>387.0</ele><time>2026-04-05T14:27:25.987Z</time></trkpt><trkpt lat="37.92258254148147" lon="-4.813660290639562"><ele>387.0</ele><time>2026-04-05T14:27:26.987Z</time></trkpt><trkpt lat="37.92245774913979" lon="-4.813644035513419"><ele>387.0</ele><time>2026-04-05T14:27:27.987Z</time></trkpt><trkpt lat="37.92234901434877" lon="-4.813598852474315"><ele>387.0</ele><time>2026-04-05T14:27:28.987Z</time></trkpt><trkpt lat="37.92226507292529" lon="-4.813542583261062"><ele>386.0</ele><time>2026-04-05T14:27:29.987Z</time></trkpt><trkpt lat="37.92218317480858" lon="-4.813542958037818"><ele>385.0</ele><time>2026-04-05T14:27:30.987Z</time></trkpt><trkpt lat="37.92211769280612" lon="-4.813569719886643"><ele>384.0</ele><time>2026-04-05T14:27:31.987Z</time></trkpt><trkpt lat="37.922058262828195" lon="-4.8136402273243455"><ele>383.0</ele><time>2026-04-05T14:27:32.987Z</time></trkpt><trkpt lat="37.92202605697616" lon="-4.813756161462729"><ele>382.0</ele><time>2026-04-05T14:27:33.987Z</time></trkpt><trkpt lat="37.922017702289594" lon="-4.813896162876582"><ele>381.0</ele><time>2026-04-05T14:27:34.987Z</time></trkpt><trkpt lat="37.92203737230209" lon="-4.814055931175619"><ele>381.0</ele><time>2026-04-05T14:27:35.987Z</time></trkpt><trkpt lat="37.92206883444052" lon="-4.814216986932298"><ele>381.0</ele><time>2026-04-05T14:27:36.987Z</time></trkpt><trkpt lat="37.92211168175458" lon="-4.8143731292869285"><ele>381.0</ele><time>2026-04-05T14:27:37.987Z</time></trkpt><trkpt lat="37.922144328630615" lon="-4.814517012660346"><ele>381.0</ele><time>2026-04-05T14:27:38.984Z</time></trkpt><trkpt lat="37.922160055485314" lon="-4.814649703482593"><ele>382.5</ele><time>2026-04-05T14:27:39.984Z</time></trkpt><trkpt lat="37.922150062028926" lon="-4.814765133752305"><ele>384.0</ele><time>2026-04-05T14:27:40.984Z</time></trkpt><trkpt lat="37.92211067775372" lon="-4.814840946468799"><ele>385.5</ele><time>2026-04-05T14:27:41.984Z</time></trkpt><trkpt lat="37.922034280180945" lon="-4.814875239915356"><ele>387.0</ele><time>2026-04-05T14:27:42.984Z</time></trkpt><trkpt lat="37.92194177769964" lon="-4.814870893725571"><ele>388.5</ele><time>2026-04-05T14:27:43.984Z</time></trkpt><trkpt lat="37.92184855590465" lon="-4.814831773897059"><ele>390.0</ele><time>2026-04-05T14:27:44.984Z</time></trkpt><trkpt lat="37.92177055689166" lon="-4.814806736184014"><ele>389.0</ele><time>2026-04-05T14:27:45.984Z</time></trkpt><trkpt lat="37.92170988688612" lon="-4.814860893549946"><ele>388.0</ele><time>2026-04-05T14:27:46.984Z</time></trkpt><trkpt lat="37.921685053826764" lon="-4.814953005735987"><ele>387.0</ele><time>2026-04-05T14:27:47.984Z</time></trkpt><trkpt lat="37.921694935858625" lon="-4.815086258713163"><ele>386.0</ele><time>2026-04-05T14:27:48.984Z</time></trkpt><trkpt lat="37.921709245708676" lon="-4.8152319693788685"><ele>385.0</ele><time>2026-04-05T14:27:49.984Z</time></trkpt><trkpt lat="37.9217314809677" lon="-4.81537823969577"><ele>388.25</ele><time>2026-04-05T14:27:50.984Z</time></trkpt><trkpt lat="37.92178057181434" lon="-4.815505087077471"><ele>391.5</ele><time>2026-04-05T14:27:51.984Z</time></trkpt><trkpt lat="37.921855334160014" lon="-4.815602193284165"><ele>394.75</ele><time>2026-04-05T14:27:52.984Z</time></trkpt><trkpt lat="37.92196200442685" lon="-4.815660175468271"><ele>398.0</ele><time>2026-04-05T14:27:53.984Z</time></trkpt><trkpt lat="37.922076573683746" lon="-4.815684151384327"><ele>398.0</ele><time>2026-04-05T14:27:54.983Z</time></trkpt><trkpt lat="37.92218312497347" lon="-4.815666860439765"><ele>398.0</ele><time>2026-04-05T14:27:55.983Z</time></trkpt><trkpt lat="37.922286907797776" lon="-4.81560705681336"><ele>398.0</ele><time>2026-04-05T14:27:56.983Z</time></trkpt><trkpt lat="37.922370672743874" lon="-4.815496563292298"><ele>398.0</ele><time>2026-04-05T14:27:57.983Z</time></trkpt><trkpt lat="37.92243483366613" lon="-4.815359952366663"><ele>398.0</ele><time>2026-04-05T14:27:58.983Z</time></trkpt><trkpt lat="37.92248464839094" lon="-4.815190262129645"><ele>398.0</ele><time>2026-04-05T14:27:59.983Z</time></trkpt><trkpt lat="37.922515079152525" lon="-4.814990552893973"><ele>398.0</ele><time>2026-04-05T14:28:00.983Z</time></trkpt><trkpt lat="37.92252573343311" lon="-4.814810993405061"><ele>398.0</ele><time>2026-04-05T14:28:01.983Z</time></trkpt><trkpt lat="37.92251371344768" lon="-4.814653921291034"><ele>399.4</ele><time>2026-04-05T14:28:02.983Z</time></trkpt><trkpt lat="37.92252235897798" lon="-4.814516611258012"><ele>400.79999999999995</ele><time>2026-04-05T14:28:03.983Z</time></trkpt><trkpt lat="37.92256480699358" lon="-4.814405647998486"><ele>402.2</ele><time>2026-04-05T14:28:04.983Z</time></trkpt><trkpt lat="37.922653196797754" lon="-4.814351971541384"><ele>403.6</ele><time>2026-04-05T14:28:05.983Z</time></trkpt><trkpt lat="37.92274448630837" lon="-4.814329617257092"><ele>405.0</ele><time>2026-04-05T14:28:06.983Z</time></trkpt><trkpt lat="37.92284186572585" lon="-4.814360529666862"><ele>405.0</ele><time>2026-04-05T14:28:07.984Z</time></trkpt><trkpt lat="37.92294560609487" lon="-4.8144265576808"><ele>405.0</ele><time>2026-04-05T14:28:08.984Z</time></trkpt><trkpt lat="37.92306043636747" lon="-4.814506925995291"><ele>405.0</ele><time>2026-04-05T14:28:09.984Z</time></trkpt><trkpt lat="37.923182012909606" lon="-4.8145861176735885"><ele>405.0</ele><time>2026-04-05T14:28:10.984Z</time></trkpt><trkpt lat="37.92330997773451" lon="-4.814652158314865"><ele>404.5</ele><time>2026-04-05T14:28:11.984Z</time></trkpt><trkpt lat="37.92344301674008" lon="-4.814691158374129"><ele>404.0</ele><time>2026-04-05T14:28:12.984Z</time></trkpt><trkpt lat="37.92357691812873" lon="-4.814687797038669"><ele>403.5</ele><time>2026-04-05T14:28:13.984Z</time></trkpt><trkpt lat="37.923692930316406" lon="-4.814656935378529"><ele>403.0</ele><time>2026-04-05T14:28:14.984Z</time></trkpt><trkpt lat="37.923799932895186" lon="-4.814609747055714"><ele>403.0</ele><time>2026-04-05T14:28:15.984Z</time></trkpt><trkpt lat="37.92389906192263" lon="-4.814593174101774"><ele>403.0</ele><time>2026-04-05T14:28:16.984Z</time></trkpt><trkpt lat="37.92399295227711" lon="-4.814615012902443"><ele>403.0</ele><time>2026-04-05T14:28:17.984Z</time></trkpt><trkpt lat="37.92406646354336" lon="-4.814696486992352"><ele>403.0</ele><time>2026-04-05T14:28:18.984Z</time></trkpt><trkpt lat="37.92412549157765" lon="-4.81482479642971"><ele>403.0</ele><time>2026-04-05T14:28:19.984Z</time></trkpt><trkpt lat="37.92418529300732" lon="-4.814978063152655"><ele>401.33333333333337</ele><time>2026-04-05T14:28:20.984Z</time></trkpt><trkpt lat="37.92425917860278" lon="-4.815147942679179"><ele>399.66666666666663</ele><time>2026-04-05T14:28:21.984Z</time></trkpt><trkpt lat="37.92434770185978" lon="-4.8153515687183255"><ele>398.0</ele><time>2026-04-05T14:28:22.984Z</time></trkpt><trkpt lat="37.9244331557258" lon="-4.815551504087787"><ele>398.0</ele><time>2026-04-05T14:28:23.984Z</time></trkpt><trkpt lat="37.92452057763186" lon="-4.81575034574602"><ele>398.0</ele><time>2026-04-05T14:28:24.984Z</time></trkpt><trkpt lat="37.92461532251562" lon="-4.8159498379535215"><ele>398.0</ele><time>2026-04-05T14:28:25.984Z</time></trkpt><trkpt lat="37.92471672787381" lon="-4.816144278218017"><ele>405.3333333333333</ele><time>2026-04-05T14:28:26.984Z</time></trkpt><trkpt lat="37.92483318889225" lon="-4.81632855319775"><ele>412.66666666666663</ele><time>2026-04-05T14:28:27.984Z</time></trkpt><trkpt lat="37.92494745432047" lon="-4.816509152854932"><ele>420.0</ele><time>2026-04-05T14:28:28.984Z</time></trkpt><trkpt lat="37.92506379596667" lon="-4.816686668087441"><ele>423.66666666666663</ele><time>2026-04-05T14:28:29.984Z</time></trkpt><trkpt lat="37.925187470291455" lon="-4.816853840918736"><ele>427.3333333333333</ele><time>2026-04-05T14:28:30.984Z</time></trkpt><trkpt lat="37.925314340905146" lon="-4.81701244803376"><ele>431.0</ele><time>2026-04-05T14:28:31.984Z</time></trkpt><trkpt lat="37.92542925660785" lon="-4.817162820365622"><ele>431.0</ele><time>2026-04-05T14:28:32.984Z</time></trkpt><trkpt lat="37.925530260695986" lon="-4.817309527287276"><ele>431.0</ele><time>2026-04-05T14:28:33.984Z</time></trkpt><trkpt lat="37.92559897230353" lon="-4.817455918991694"><ele>431.0</ele><time>2026-04-05T14:28:34.984Z</time></trkpt><trkpt lat="37.92563743872877" lon="-4.817593060783482"><ele>431.0</ele><time>2026-04-05T14:28:35.984Z</time></trkpt><trkpt lat="37.92567375371393" lon="-4.817711627979683"><ele>432.49999999999994</ele><time>2026-04-05T14:28:36.984Z</time></trkpt><trkpt lat="37.925716651521164" lon="-4.817807664718573"><ele>434.0</ele><time>2026-04-05T14:28:37.984Z</time></trkpt><trkpt lat="37.92578358060669" lon="-4.817848799863353"><ele>435.5</ele><time>2026-04-05T14:28:38.984Z</time></trkpt><trkpt lat="37.92586718902763" lon="-4.817843424275147"><ele>437.0</ele><time>2026-04-05T14:28:39.984Z</time></trkpt><trkpt lat="37.92592834883751" lon="-4.81778937530095"><ele>438.49999999999994</ele><time>2026-04-05T14:28:40.984Z</time></trkpt><trkpt lat="37.925964735143964" lon="-4.817682079890845"><ele>440.0</ele><time>2026-04-05T14:28:41.984Z</time></trkpt><trkpt lat="37.925988067217816" lon="-4.817553314320167"><ele>444.25</ele><time>2026-04-05T14:28:42.984Z</time></trkpt><trkpt lat="37.92600043047736" lon="-4.817408601108466"><ele>448.5</ele><time>2026-04-05T14:28:43.984Z</time></trkpt><trkpt lat="37.92601363783734" lon="-4.81724927105701"><ele>452.75</ele><time>2026-04-05T14:28:44.984Z</time></trkpt><trkpt lat="37.92601622930319" lon="-4.817093851015693"><ele>457.0</ele><time>2026-04-05T14:28:45.984Z</time></trkpt><trkpt lat="37.9260066459381" lon="-4.816963339952001"><ele>457.0</ele><time>2026-04-05T14:28:46.984Z</time></trkpt><trkpt lat="37.92600206477259" lon="-4.816834454620477"><ele>457.0</ele><time>2026-04-05T14:28:47.984Z</time></trkpt><trkpt lat="37.92598035127888" lon="-4.816700950780862"><ele>457.0</ele><time>2026-04-05T14:28:48.984Z</time></trkpt><trkpt lat="37.925967871097974" lon="-4.816527029360107"><ele>457.0</ele><time>2026-04-05T14:28:49.984Z</time></trkpt><trkpt lat="37.92594849863377" lon="-4.816358071730109"><ele>456.5</ele><time>2026-04-05T14:28:50.984Z</time></trkpt><trkpt lat="37.9259508586996" lon="-4.816176079701836"><ele>456.0</ele><time>2026-04-05T14:28:51.984Z</time></trkpt><trkpt lat="37.92597316160923" lon="-4.8160038353100605"><ele>455.5</ele><time>2026-04-05T14:28:52.984Z</time></trkpt><trkpt lat="37.92601120043105" lon="-4.815847720790853"><ele>455.0</ele><time>2026-04-05T14:28:53.984Z</time></trkpt><trkpt lat="37.92606442820729" lon="-4.815718396227408"><ele>452.0</ele><time>2026-04-05T14:28:54.984Z</time></trkpt><trkpt lat="37.92613885157446" lon="-4.815620514107045"><ele>449.0</ele><time>2026-04-05T14:28:55.984Z</time></trkpt><trkpt lat="37.92624096228945" lon="-4.815564373330787"><ele>446.0</ele><time>2026-04-05T14:28:56.984Z</time></trkpt><trkpt lat="37.92636849484574" lon="-4.815540155145387"><ele>443.0</ele><time>2026-04-05T14:28:57.984Z</time></trkpt><trkpt lat="37.92652382193319" lon="-4.815531431496937"><ele>443.0</ele><time>2026-04-05T14:28:58.984Z</time></trkpt><trkpt lat="37.926684047589454" lon="-4.815510510423012"><ele>443.0</ele><time>2026-04-05T14:28:59.984Z</time></trkpt><trkpt lat="37.92682530835539" lon="-4.815500896683003"><ele>443.0</ele><time>2026-04-05T14:29:00.984Z</time></trkpt><trkpt lat="37.926942900046676" lon="-4.8155057848951905"><ele>443.0</ele><time>2026-04-05T14:29:01.984Z</time></trkpt><trkpt lat="37.92703966136147" lon="-4.815543072197664"><ele>442.75</ele><time>2026-04-05T14:29:02.984Z</time></trkpt><trkpt lat="37.92712762291223" lon="-4.815616246284846"><ele>442.5</ele><time>2026-04-05T14:29:03.984Z</time></trkpt><trkpt lat="37.92716879950397" lon="-4.815769266327209"><ele>442.25</ele><time>2026-04-05T14:29:04.984Z</time></trkpt><trkpt lat="37.92720112297974" lon="-4.815946830160862"><ele>442.0</ele><time>2026-04-05T14:29:05.984Z</time></trkpt><trkpt lat="37.92723062919387" lon="-4.81614898173593"><ele>442.0</ele><time>2026-04-05T14:29:06.984Z</time></trkpt><trkpt lat="37.927258411214005" lon="-4.816345759983965"><ele>442.0</ele><time>2026-04-05T14:29:07.984Z</time></trkpt><trkpt lat="37.927286366740056" lon="-4.816539931115"><ele>442.0</ele><time>2026-04-05T14:29:08.984Z</time></trkpt><trkpt lat="37.92736060231789" lon="-4.8167060082980235"><ele>442.6666666666667</ele><time>2026-04-05T14:29:09.984Z</time></trkpt><trkpt lat="37.9274745411651" lon="-4.816854831551947"><ele>443.33333333333337</ele><time>2026-04-05T14:29:10.984Z</time></trkpt><trkpt lat="37.92759963788494" lon="-4.817019288772883"><ele>444.0</ele><time>2026-04-05T14:29:11.984Z</time></trkpt><trkpt lat="37.92773696162822" lon="-4.817200841956706"><ele>444.0</ele><time>2026-04-05T14:29:12.984Z</time></trkpt><trkpt lat="37.927879754457" lon="-4.8173865612418965"><ele>444.0</ele><time>2026-04-05T14:29:13.984Z</time></trkpt><trkpt lat="37.92801949811629" lon="-4.817569205498173"><ele>444.0</ele><time>2026-04-05T14:29:14.984Z</time></trkpt><trkpt lat="37.928158680129734" lon="-4.817756960509921"><ele>452.33333333333337</ele><time>2026-04-05T14:29:15.984Z</time></trkpt><trkpt lat="37.928276871782316" lon="-4.817950924657206"><ele>460.6666666666667</ele><time>2026-04-05T14:29:16.984Z</time></trkpt><trkpt lat="37.92837177425548" lon="-4.81813701385597"><ele>469.0</ele><time>2026-04-05T14:29:17.984Z</time></trkpt><trkpt lat="37.928447743074635" lon="-4.818318063367287"><ele>470.2</ele><time>2026-04-05T14:29:18.984Z</time></trkpt><trkpt lat="37.928512719776556" lon="-4.818468673265168"><ele>471.4</ele><time>2026-04-05T14:29:19.984Z</time></trkpt><trkpt lat="37.92856073110295" lon="-4.818612015369772"><ele>472.6</ele><time>2026-04-05T14:29:20.984Z</time></trkpt><trkpt lat="37.928622427204374" lon="-4.818716645406976"><ele>473.8</ele><time>2026-04-05T14:29:21.984Z</time></trkpt><trkpt lat="37.92866553360825" lon="-4.818813538650774"><ele>475.0</ele><time>2026-04-05T14:29:22.984Z</time></trkpt><trkpt lat="37.928695071994326" lon="-4.818911470416988"><ele>477.33333333333337</ele><time>2026-04-05T14:29:23.984Z</time></trkpt><trkpt lat="37.92874934170817" lon="-4.818974537158752"><ele>479.6666666666667</ele><time>2026-04-05T14:29:24.984Z</time></trkpt><trkpt lat="37.928829724988745" lon="-4.819001778702961"><ele>482.0</ele><time>2026-04-05T14:29:25.984Z</time></trkpt><trkpt lat="37.92890574080933" lon="-4.81895508311366"><ele>484.33333333333337</ele><time>2026-04-05T14:29:26.984Z</time></trkpt><trkpt lat="37.92896777467194" lon="-4.818860417309865"><ele>486.6666666666667</ele><time>2026-04-05T14:29:27.984Z</time></trkpt><trkpt lat="37.92898633374643" lon="-4.818722950970784"><ele>489.0</ele><time>2026-04-05T14:29:28.984Z</time></trkpt><trkpt lat="37.92900076127045" lon="-4.818572240840553"><ele>484.33333333333337</ele><time>2026-04-05T14:29:29.984Z</time></trkpt><trkpt lat="37.929021001627866" lon="-4.81837475799675"><ele>479.6666666666667</ele><time>2026-04-05T14:29:30.984Z</time></trkpt><trkpt lat="37.92904638942484" lon="-4.81816461305359"><ele>475.0</ele><time>2026-04-05T14:29:31.984Z</time></trkpt><trkpt lat="37.92908819219998" lon="-4.8179551293850515"><ele>475.0</ele><time>2026-04-05T14:29:32.984Z</time></trkpt><trkpt lat="37.929120614832605" lon="-4.817748319909748"><ele>475.0</ele><time>2026-04-05T14:29:33.984Z</time></trkpt><trkpt lat="37.92913498394189" lon="-4.817556367174315"><ele>475.0</ele><time>2026-04-05T14:29:34.984Z</time></trkpt><trkpt lat="37.929142270223174" lon="-4.817385116423365"><ele>473.0</ele><time>2026-04-05T14:29:35.984Z</time></trkpt><trkpt lat="37.92915738749156" lon="-4.817180837902147"><ele>471.0</ele><time>2026-04-05T14:29:36.984Z</time></trkpt><trkpt lat="37.929221079168414" lon="-4.816980112674473"><ele>469.0</ele><time>2026-04-05T14:29:37.984Z</time></trkpt><trkpt lat="37.92930086282162" lon="-4.816814412490252"><ele>467.79999999999995</ele><time>2026-04-05T14:29:38.984Z</time></trkpt><trkpt lat="37.92937373766297" lon="-4.816708249299696"><ele>466.59999999999997</ele><time>2026-04-05T14:29:39.984Z</time></trkpt><trkpt lat="37.929431715256094" lon="-4.816605939016259"><ele>465.4</ele><time>2026-04-05T14:29:40.984Z</time></trkpt><trkpt lat="37.92951050765258" lon="-4.816545191856811"><ele>464.2</ele><time>2026-04-05T14:29:41.984Z</time></trkpt><trkpt lat="37.929602793039436" lon="-4.81652845963294"><ele>463.0</ele><time>2026-04-05T14:29:42.984Z</time></trkpt><trkpt lat="37.92971204551669" lon="-4.816568865263594"><ele>463.0</ele><time>2026-04-05T14:29:43.984Z</time></trkpt><trkpt lat="37.929816515261045" lon="-4.816677682052471"><ele>463.0</ele><time>2026-04-05T14:29:44.982Z</time></trkpt><trkpt lat="37.92993154770921" lon="-4.816821003809433"><ele>463.0</ele><time>2026-04-05T14:29:45.983Z</time></trkpt><trkpt lat="37.93006878988432" lon="-4.816971866480186"><ele>464.0</ele><time>2026-04-05T14:29:46.983Z</time></trkpt><trkpt lat="37.93021990560727" lon="-4.817136996039043"><ele>465.0</ele><time>2026-04-05T14:29:47.983Z</time></trkpt><trkpt lat="37.93038452978815" lon="-4.817319891064773"><ele>466.0</ele><time>2026-04-05T14:29:48.983Z</time></trkpt><trkpt lat="37.93054772061151" lon="-4.817494915942629"><ele>463.6666666666667</ele><time>2026-04-05T14:29:49.983Z</time></trkpt><trkpt lat="37.930698077454956" lon="-4.8176687012800725"><ele>461.33333333333337</ele><time>2026-04-05T14:29:50.983Z</time></trkpt><trkpt lat="37.93082907913694" lon="-4.817840570383478"><ele>459.0</ele><time>2026-04-05T14:29:51.983Z</time></trkpt><trkpt lat="37.930938839099255" lon="-4.818026660994592"><ele>459.0</ele><time>2026-04-05T14:29:52.983Z</time></trkpt><trkpt lat="37.93101670696997" lon="-4.818214113544133"><ele>459.0</ele><time>2026-04-05T14:29:53.983Z</time></trkpt><trkpt lat="37.93106919310482" lon="-4.818398108704853"><ele>459.0</ele><time>2026-04-05T14:29:54.982Z</time></trkpt><trkpt lat="37.93111804834377" lon="-4.818562549495705"><ele>466.25</ele><time>2026-04-05T14:29:55.982Z</time></trkpt><trkpt lat="37.93118154252648" lon="-4.818703263703105"><ele>473.5</ele><time>2026-04-05T14:29:56.983Z</time></trkpt><trkpt lat="37.93128653677635" lon="-4.818812613122921"><ele>480.75</ele><time>2026-04-05T14:29:57.983Z</time></trkpt><trkpt lat="37.931422526058356" lon="-4.818919294400675"><ele>488.0</ele><time>2026-04-05T14:29:58.983Z</time></trkpt><trkpt lat="37.931562739674334" lon="-4.819058773944816"><ele>488.0</ele><time>2026-04-05T14:29:59.983Z</time></trkpt><trkpt lat="37.93170780705433" lon="-4.8192271113027"><ele>488.0</ele><time>2026-04-05T14:30:00.983Z</time></trkpt><trkpt lat="37.93184608835" lon="-4.819372382567318"><ele>488.0</ele><time>2026-04-05T14:30:01.983Z</time></trkpt><trkpt lat="37.931957142435444" lon="-4.819504451193155"><ele>487.75</ele><time>2026-04-05T14:30:02.983Z</time></trkpt><trkpt lat="37.932042187750824" lon="-4.819641523788285"><ele>487.5</ele><time>2026-04-05T14:30:03.983Z</time></trkpt><trkpt lat="37.93209730734061" lon="-4.819804628724641"><ele>487.25</ele><time>2026-04-05T14:30:04.983Z</time></trkpt><trkpt lat="37.93212543076731" lon="-4.819996576875763"><ele>487.0</ele><time>2026-04-05T14:30:05.983Z</time></trkpt><trkpt lat="37.9321380776817" lon="-4.8201716718822185"><ele>490.6</ele><time>2026-04-05T14:30:06.983Z</time></trkpt><trkpt lat="37.932153999941754" lon="-4.82032715867411"><ele>494.20000000000005</ele><time>2026-04-05T14:30:07.983Z</time></trkpt><trkpt lat="37.932184344718664" lon="-4.820458744806707"><ele>497.8</ele><time>2026-04-05T14:30:08.983Z</time></trkpt><trkpt lat="37.932249674092795" lon="-4.820549151049387"><ele>501.4</ele><time>2026-04-05T14:30:09.983Z</time></trkpt><trkpt lat="37.93235089028085" lon="-4.820587199233653"><ele>505.0</ele><time>2026-04-05T14:30:10.983Z</time></trkpt><trkpt lat="37.93246509183689" lon="-4.82059780624908"><ele>504.5</ele><time>2026-04-05T14:30:11.983Z</time></trkpt><trkpt lat="37.932582809549466" lon="-4.820649539339527"><ele>504.0</ele><time>2026-04-05T14:30:12.983Z</time></trkpt><trkpt lat="37.93269712853866" lon="-4.820742347881746"><ele>503.5</ele><time>2026-04-05T14:30:13.983Z</time></trkpt><trkpt lat="37.93280320848827" lon="-4.820864289009101"><ele>503.0</ele><time>2026-04-05T14:30:14.983Z</time></trkpt><trkpt lat="37.932893571480065" lon="-4.821021187325184"><ele>503.0</ele><time>2026-04-05T14:30:15.983Z</time></trkpt><trkpt lat="37.93295698236697" lon="-4.821195841466094"><ele>503.0</ele><time>2026-04-05T14:30:16.983Z</time></trkpt><trkpt lat="37.93300445377199" lon="-4.821365896493492"><ele>503.0</ele><time>2026-04-05T14:30:17.983Z</time></trkpt><trkpt lat="37.933035330506485" lon="-4.821529080426236"><ele>503.0</ele><time>2026-04-05T14:30:18.983Z</time></trkpt><trkpt lat="37.93304754368864" lon="-4.821695223160757"><ele>506.25</ele><time>2026-04-05T14:30:19.983Z</time></trkpt><trkpt lat="37.93304722622009" lon="-4.821864649251362"><ele>509.5</ele><time>2026-04-05T14:30:20.983Z</time></trkpt><trkpt lat="37.93303955694201" lon="-4.822022964009249"><ele>512.75</ele><time>2026-04-05T14:30:21.983Z</time></trkpt><trkpt lat="37.933033564444465" lon="-4.822157620860257"><ele>516.0</ele><time>2026-04-05T14:30:22.983Z</time></trkpt><trkpt lat="37.93304855874535" lon="-4.822271268893366"><ele>516.0</ele><time>2026-04-05T14:30:23.983Z</time></trkpt><trkpt lat="37.93308890853816" lon="-4.822355059625361"><ele>516.0</ele><time>2026-04-05T14:30:24.983Z</time></trkpt><trkpt lat="37.93316573929728" lon="-4.822393479377128"><ele>516.0</ele><time>2026-04-05T14:30:25.983Z</time></trkpt><trkpt lat="37.93325250357458" lon="-4.8223731100085825"><ele>516.0</ele><time>2026-04-05T14:30:26.983Z</time></trkpt><trkpt lat="37.93332871178446" lon="-4.822274563315637"><ele>516.0</ele><time>2026-04-05T14:30:27.983Z</time></trkpt><trkpt lat="37.933427408723425" lon="-4.822182398493881"><ele>519.0</ele><time>2026-04-05T14:30:28.983Z</time></trkpt><trkpt lat="37.933540475081024" lon="-4.822115135789808"><ele>522.0</ele><time>2026-04-05T14:30:29.983Z</time></trkpt><trkpt lat="37.933652257914694" lon="-4.8221097822140395"><ele>525.0</ele><time>2026-04-05T14:30:30.983Z</time></trkpt><trkpt lat="37.93377166354156" lon="-4.822115031160358"><ele>528.0</ele><time>2026-04-05T14:30:31.983Z</time></trkpt><trkpt lat="37.933866185844074" lon="-4.822111746336048"><ele>528.0</ele><time>2026-04-05T14:30:32.983Z</time></trkpt><trkpt lat="37.93392186073085" lon="-4.822033344879199"><ele>528.0</ele><time>2026-04-05T14:30:33.983Z</time></trkpt><trkpt lat="37.93393734937045" lon="-4.821912145645978"><ele>528.0</ele><time>2026-04-05T14:30:34.983Z</time></trkpt><trkpt lat="37.933953405541025" lon="-4.82176823004479"><ele>528.0</ele><time>2026-04-05T14:30:35.983Z</time></trkpt><trkpt lat="37.9340081301548" lon="-4.821604632396274"><ele>528.0</ele><time>2026-04-05T14:30:36.983Z</time></trkpt><trkpt lat="37.93409524330113" lon="-4.821469354871561"><ele>525.25</ele><time>2026-04-05T14:30:37.983Z</time></trkpt><trkpt lat="37.93420525290225" lon="-4.821367599244257"><ele>522.5</ele><time>2026-04-05T14:30:38.983Z</time></trkpt><trkpt lat="37.934326775864335" lon="-4.821324410071405"><ele>519.75</ele><time>2026-04-05T14:30:39.983Z</time></trkpt><trkpt lat="37.93444936740201" lon="-4.8213346668630335"><ele>517.0</ele><time>2026-04-05T14:30:40.983Z</time></trkpt><trkpt lat="37.934568720250354" lon="-4.821392265722453"><ele>515.75</ele><time>2026-04-05T14:30:41.983Z</time></trkpt><trkpt lat="37.93468575287951" lon="-4.82148854090665"><ele>514.5</ele><time>2026-04-05T14:30:42.983Z</time></trkpt><trkpt lat="37.934786354297934" lon="-4.82161108675274"><ele>513.25</ele><time>2026-04-05T14:30:43.983Z</time></trkpt><trkpt lat="37.934865995248074" lon="-4.821757053970821"><ele>512.0</ele><time>2026-04-05T14:30:44.983Z</time></trkpt><trkpt lat="37.93491229720124" lon="-4.821921489199999"><ele>515.6666666666666</ele><time>2026-04-05T14:30:45.983Z</time></trkpt><trkpt lat="37.93495287236481" lon="-4.822107915197493"><ele>519.3333333333334</ele><time>2026-04-05T14:30:46.983Z</time></trkpt><trkpt lat="37.93499507544975" lon="-4.822311199676269"><ele>523.0</ele><time>2026-04-05T14:30:47.983Z</time></trkpt><trkpt lat="37.93504329312512" lon="-4.822502653203903"><ele>523.0</ele><time>2026-04-05T14:30:48.983Z</time></trkpt><trkpt lat="37.93510861743321" lon="-4.822690844807971"><ele>523.0</ele><time>2026-04-05T14:30:49.983Z</time></trkpt><trkpt lat="37.93520135354144" lon="-4.822863362626897"><ele>523.0</ele><time>2026-04-05T14:30:50.984Z</time></trkpt><trkpt lat="37.93532066202265" lon="-4.823020380638277"><ele>523.0</ele><time>2026-04-05T14:30:51.984Z</time></trkpt><trkpt lat="37.9354462994925" lon="-4.8231845856637685"><ele>523.0</ele><time>2026-04-05T14:30:52.984Z</time></trkpt><trkpt lat="37.93556672242867" lon="-4.823328309313519"><ele>523.0</ele><time>2026-04-05T14:30:53.984Z</time></trkpt><trkpt lat="37.93569431707416" lon="-4.823449225655598"><ele>527.3333333333334</ele><time>2026-04-05T14:30:54.984Z</time></trkpt><trkpt lat="37.93584666070223" lon="-4.823541682663772"><ele>531.6666666666666</ele><time>2026-04-05T14:30:55.984Z</time></trkpt><trkpt lat="37.936009594339374" lon="-4.823600612992037"><ele>536.0</ele><time>2026-04-05T14:30:56.984Z</time></trkpt><trkpt lat="37.93617327824455" lon="-4.823665681368362"><ele>536.0</ele><time>2026-04-05T14:30:57.984Z</time></trkpt><trkpt lat="37.936342354213664" lon="-4.823760808017732"><ele>536.0</ele><time>2026-04-05T14:30:58.984Z</time></trkpt><trkpt lat="37.93652072275371" lon="-4.823890233567733"><ele>536.0</ele><time>2026-04-05T14:30:59.984Z</time></trkpt><trkpt lat="37.93670984179455" lon="-4.824034200712988"><ele>534.0</ele><time>2026-04-05T14:31:00.984Z</time></trkpt><trkpt lat="37.93690998839207" lon="-4.824193929122966"><ele>532.0</ele><time>2026-04-05T14:31:01.984Z</time></trkpt><trkpt lat="37.93713565035194" lon="-4.824370880581349"><ele>536.0</ele><time>2026-04-05T14:31:02.984Z</time></trkpt><trkpt lat="37.937336581629346" lon="-4.824540928949474"><ele>540.0</ele><time>2026-04-05T14:31:03.984Z</time></trkpt><trkpt lat="37.93752640572808" lon="-4.824694378445079"><ele>539.6666666666666</ele><time>2026-04-05T14:31:04.984Z</time></trkpt><trkpt lat="37.9376827608343" lon="-4.824810598127956"><ele>539.3333333333333</ele><time>2026-04-05T14:31:05.984Z</time></trkpt><trkpt lat="37.937826823164364" lon="-4.824889719102872"><ele>539.0</ele><time>2026-04-05T14:31:06.984Z</time></trkpt><trkpt lat="37.93798463886309" lon="-4.824922511941567"><ele>539.0</ele><time>2026-04-05T14:31:07.984Z</time></trkpt><trkpt lat="37.938145792522135" lon="-4.824915391743338"><ele>539.0</ele><time>2026-04-05T14:31:08.984Z</time></trkpt><trkpt lat="37.93831665165224" lon="-4.824909660555274"><ele>539.0</ele><time>2026-04-05T14:31:09.984Z</time></trkpt><trkpt lat="37.938493716252125" lon="-4.824974880451726"><ele>540.6666666666666</ele><time>2026-04-05T14:31:10.984Z</time></trkpt><trkpt lat="37.93867499840609" lon="-4.825075722977118"><ele>542.3333333333334</ele><time>2026-04-05T14:31:11.984Z</time></trkpt><trkpt lat="37.93886362269332" lon="-4.8251558094295754"><ele>544.0</ele><time>2026-04-05T14:31:12.984Z</time></trkpt><trkpt lat="37.93904617122613" lon="-4.825241414584905"><ele>545.0</ele><time>2026-04-05T14:31:13.984Z</time></trkpt><trkpt lat="37.93921709001995" lon="-4.8253245718966085"><ele>546.0</ele><time>2026-04-05T14:31:14.984Z</time></trkpt><trkpt lat="37.939379497161546" lon="-4.825400836736849"><ele>547.0</ele><time>2026-04-05T14:31:15.984Z</time></trkpt><trkpt lat="37.93954244519867" lon="-4.825463688701051"><ele>547.3333333333334</ele><time>2026-04-05T14:31:16.984Z</time></trkpt><trkpt lat="37.93970699238983" lon="-4.825504059883407"><ele>547.6666666666666</ele><time>2026-04-05T14:31:17.984Z</time></trkpt><trkpt lat="37.93987858828857" lon="-4.825520560476562"><ele>548.0</ele><time>2026-04-05T14:31:18.984Z</time></trkpt><trkpt lat="37.940062317217965" lon="-4.825521381870631"><ele>547.0</ele><time>2026-04-05T14:31:19.984Z</time></trkpt><trkpt lat="37.9402627590601" lon="-4.825518154889382"><ele>546.0</ele><time>2026-04-05T14:31:20.984Z</time></trkpt><trkpt lat="37.94047908914621" lon="-4.82552289426287"><ele>545.0</ele><time>2026-04-05T14:31:21.984Z</time></trkpt><trkpt lat="37.94071394075129" lon="-4.825540356275424"><ele>545.0</ele><time>2026-04-05T14:31:22.984Z</time></trkpt><trkpt lat="37.940942936538896" lon="-4.825565281905219"><ele>545.0</ele><time>2026-04-05T14:31:23.984Z</time></trkpt><trkpt lat="37.94117427890215" lon="-4.82558730928622"><ele>545.0</ele><time>2026-04-05T14:31:24.984Z</time></trkpt><trkpt lat="37.9414065466164" lon="-4.825606669867464"><ele>545.0</ele><time>2026-04-05T14:31:25.984Z</time></trkpt><trkpt lat="37.941644074853656" lon="-4.825624789651475"><ele>546.0</ele><time>2026-04-05T14:31:26.984Z</time></trkpt><trkpt lat="37.94188217815256" lon="-4.82564712324975"><ele>547.0</ele><time>2026-04-05T14:31:27.984Z</time></trkpt><trkpt lat="37.942103701059025" lon="-4.8256682039766154"><ele>547.0</ele><time>2026-04-05T14:31:28.984Z</time></trkpt><trkpt lat="37.942313198771394" lon="-4.825690756543989"><ele>547.0</ele><time>2026-04-05T14:31:29.984Z</time></trkpt><trkpt lat="37.94251855876377" lon="-4.825731412868598"><ele>547.0</ele><time>2026-04-05T14:31:30.984Z</time></trkpt><trkpt lat="37.942726613218184" lon="-4.825784465363201"><ele>546.3333333333334</ele><time>2026-04-05T14:31:31.984Z</time></trkpt><trkpt lat="37.942928304069326" lon="-4.825856250591284"><ele>545.6666666666666</ele><time>2026-04-05T14:31:32.984Z</time></trkpt><trkpt lat="37.94313229855512" lon="-4.825936579126878"><ele>545.0</ele><time>2026-04-05T14:31:33.984Z</time></trkpt><trkpt lat="37.943331726830365" lon="-4.826013747248779"><ele>548.0</ele><time>2026-04-05T14:31:34.984Z</time></trkpt><trkpt lat="37.943533352580246" lon="-4.826091396484142"><ele>551.0</ele><time>2026-04-05T14:31:35.984Z</time></trkpt><trkpt lat="37.943729981584525" lon="-4.826173386820809"><ele>554.0</ele><time>2026-04-05T14:31:36.984Z</time></trkpt><trkpt lat="37.94393341388216" lon="-4.826248165236435"><ele>554.0</ele><time>2026-04-05T14:31:37.984Z</time></trkpt><trkpt lat="37.94413483490376" lon="-4.826325167439228"><ele>554.0</ele><time>2026-04-05T14:31:38.984Z</time></trkpt><trkpt lat="37.944340145213836" lon="-4.826401439314003"><ele>554.0</ele><time>2026-04-05T14:31:39.984Z</time></trkpt><trkpt lat="37.94453574275526" lon="-4.826464934103029"><ele>554.0</ele><time>2026-04-05T14:31:40.984Z</time></trkpt><trkpt lat="37.94472051221703" lon="-4.826532236269305"><ele>554.0</ele><time>2026-04-05T14:31:41.984Z</time></trkpt><trkpt lat="37.944896235868114" lon="-4.826599855223934"><ele>554.0</ele><time>2026-04-05T14:31:42.984Z</time></trkpt><trkpt lat="37.945066874820135" lon="-4.826672477033914"><ele>554.0</ele><time>2026-04-05T14:31:43.984Z</time></trkpt><trkpt lat="37.945226106422794" lon="-4.826732145412266"><ele>554.0</ele><time>2026-04-05T14:31:44.984Z</time></trkpt><trkpt lat="37.94537688698969" lon="-4.826790348101747"><ele>554.0</ele><time>2026-04-05T14:31:45.984Z</time></trkpt><trkpt lat="37.945523876582754" lon="-4.826851843352853"><ele>554.0</ele><time>2026-04-05T14:31:46.984Z</time></trkpt><trkpt lat="37.94566324004385" lon="-4.82690463780794"><ele>554.0</ele><time>2026-04-05T14:31:47.984Z</time></trkpt><trkpt lat="37.945800771654255" lon="-4.826959024040353"><ele>554.0</ele><time>2026-04-05T14:31:48.984Z</time></trkpt><trkpt lat="37.94594508585762" lon="-4.827017121912899"><ele>554.0</ele><time>2026-04-05T14:31:49.984Z</time></trkpt><trkpt lat="37.9460788837666" lon="-4.8270659862776935"><ele>553.25</ele><time>2026-04-05T14:31:50.982Z</time></trkpt><trkpt lat="37.94620038021447" lon="-4.827110768778692"><ele>552.5</ele><time>2026-04-05T14:31:51.982Z</time></trkpt><trkpt lat="37.9463122377536" lon="-4.827158169725477"><ele>551.75</ele><time>2026-04-05T14:31:52.982Z</time></trkpt><trkpt lat="37.94641201031812" lon="-4.827201671631413"><ele>551.0</ele><time>2026-04-05T14:31:53.982Z</time></trkpt><trkpt lat="37.946505008223355" lon="-4.827262250024591"><ele>551.0</ele><time>2026-04-05T14:31:54.982Z</time></trkpt><trkpt lat="37.94658846783352" lon="-4.82735217781398"><ele>551.0</ele><time>2026-04-05T14:31:55.982Z</time></trkpt><trkpt lat="37.94666374420046" lon="-4.827470784276208"><ele>551.0</ele><time>2026-04-05T14:31:56.982Z</time></trkpt><trkpt lat="37.946736127750825" lon="-4.827600974230641"><ele>551.0</ele><time>2026-04-05T14:31:57.982Z</time></trkpt><trkpt lat="37.94681682320924" lon="-4.8277462462063125"><ele>549.75</ele><time>2026-04-05T14:31:58.982Z</time></trkpt><trkpt lat="37.94688772635486" lon="-4.827881495442808"><ele>548.5</ele><time>2026-04-05T14:31:59.982Z</time></trkpt><trkpt lat="37.946951586149666" lon="-4.828012319020666"><ele>547.25</ele><time>2026-04-05T14:32:00.981Z</time></trkpt><trkpt lat="37.947011998384305" lon="-4.828135374165376"><ele>546.0</ele><time>2026-04-05T14:32:01.981Z</time></trkpt><trkpt lat="37.94708366748172" lon="-4.828249023470454"><ele>546.0</ele><time>2026-04-05T14:32:02.982Z</time></trkpt><trkpt lat="37.94717314480507" lon="-4.828348889020419"><ele>546.0</ele><time>2026-04-05T14:32:03.982Z</time></trkpt><trkpt lat="37.947287248568834" lon="-4.828416587654055"><ele>546.0</ele><time>2026-04-05T14:32:04.982Z</time></trkpt><trkpt lat="37.947411812208266" lon="-4.828463640957636"><ele>546.0</ele><time>2026-04-05T14:32:05.982Z</time></trkpt><trkpt lat="37.94753115862808" lon="-4.828504452878867"><ele>546.25</ele><time>2026-04-05T14:32:06.982Z</time></trkpt><trkpt lat="37.94765417715508" lon="-4.82853279825106"><ele>546.5</ele><time>2026-04-05T14:32:07.982Z</time></trkpt><trkpt lat="37.94777953121359" lon="-4.828551613689417"><ele>546.75</ele><time>2026-04-05T14:32:08.982Z</time></trkpt><trkpt lat="37.947921756336015" lon="-4.828559529450957"><ele>547.0</ele><time>2026-04-05T14:32:09.982Z</time></trkpt><trkpt lat="37.948065055984735" lon="-4.828512051249551"><ele>547.0</ele><time>2026-04-05T14:32:10.982Z</time></trkpt><trkpt lat="37.948200646251564" lon="-4.828480143854756"><ele>547.0</ele><time>2026-04-05T14:32:11.982Z</time></trkpt><trkpt lat="37.948325886544396" lon="-4.828463877889293"><ele>547.0</ele><time>2026-04-05T14:32:12.982Z</time></trkpt><trkpt lat="37.94842644354308" lon="-4.828403898948734"><ele>547.0</ele><time>2026-04-05T14:32:13.982Z</time></trkpt><trkpt lat="37.94851486245907" lon="-4.8283593418853865"><ele>545.4</ele><time>2026-04-05T14:32:14.982Z</time></trkpt><trkpt lat="37.94859402080165" lon="-4.828271660925026"><ele>543.8000000000001</ele><time>2026-04-05T14:32:15.982Z</time></trkpt><trkpt lat="37.94863420002216" lon="-4.828159881412753"><ele>542.2</ele><time>2026-04-05T14:32:16.982Z</time></trkpt><trkpt lat="37.948689230353516" lon="-4.828041340295775"><ele>540.6</ele><time>2026-04-05T14:32:17.982Z</time></trkpt><trkpt lat="37.94874682470757" lon="-4.8279066420314045"><ele>539.0</ele><time>2026-04-05T14:32:18.982Z</time></trkpt><trkpt lat="37.94880065765654" lon="-4.82777913208011"><ele>539.0</ele><time>2026-04-05T14:32:19.982Z</time></trkpt><trkpt lat="37.94885226391057" lon="-4.827659931375889"><ele>539.0</ele><time>2026-04-05T14:32:20.982Z</time></trkpt><trkpt lat="37.94890254783199" lon="-4.827543784884417"><ele>539.0</ele><time>2026-04-05T14:32:21.982Z</time></trkpt><trkpt lat="37.9489521367105" lon="-4.82742792035263"><ele>539.0</ele><time>2026-04-05T14:32:22.982Z</time></trkpt><trkpt lat="37.949016843294125" lon="-4.8273184831238485"><ele>539.0</ele><time>2026-04-05T14:32:23.982Z</time></trkpt><trkpt lat="37.94910497061751" lon="-4.82723721742043"><ele>537.2</ele><time>2026-04-05T14:32:24.982Z</time></trkpt><trkpt lat="37.94921205220505" lon="-4.827194294854143"><ele>535.4</ele><time>2026-04-05T14:32:25.982Z</time></trkpt><trkpt lat="37.949324416926224" lon="-4.827181021975396"><ele>533.6</ele><time>2026-04-05T14:32:26.982Z</time></trkpt><trkpt lat="37.94943810337327" lon="-4.827189097988745"><ele>531.8</ele><time>2026-04-05T14:32:27.982Z</time></trkpt><trkpt lat="37.949546966829836" lon="-4.827204763781994"><ele>530.0</ele><time>2026-04-05T14:32:28.982Z</time></trkpt><trkpt lat="37.94965590202817" lon="-4.827218344820668"><ele>530.0</ele><time>2026-04-05T14:32:29.982Z</time></trkpt><trkpt lat="37.94974747199837" lon="-4.827247775559095"><ele>530.0</ele><time>2026-04-05T14:32:30.982Z</time></trkpt><trkpt lat="37.94982866781961" lon="-4.827313546856172"><ele>530.0</ele><time>2026-04-05T14:32:31.982Z</time></trkpt><trkpt lat="37.94989476043717" lon="-4.827414131841841"><ele>530.0</ele><time>2026-04-05T14:32:32.982Z</time></trkpt><trkpt lat="37.949948055726225" lon="-4.827531540791154"><ele>530.0</ele><time>2026-04-05T14:32:33.982Z</time></trkpt><trkpt lat="37.94999876835904" lon="-4.827646689006955"><ele>529.4</ele><time>2026-04-05T14:32:34.982Z</time></trkpt><trkpt lat="37.95003614232762" lon="-4.827765177585935"><ele>528.8</ele><time>2026-04-05T14:32:35.982Z</time></trkpt><trkpt lat="37.950095877986264" lon="-4.827864281689969"><ele>528.2</ele><time>2026-04-05T14:32:36.982Z</time></trkpt><trkpt lat="37.950174420055205" lon="-4.827932310111176"><ele>527.6</ele><time>2026-04-05T14:32:37.982Z</time></trkpt><trkpt lat="37.95026292161561" lon="-4.827942996213482"><ele>527.0</ele><time>2026-04-05T14:32:38.982Z</time></trkpt><trkpt lat="37.950364682503434" lon="-4.8279254613524545"><ele>525.75</ele><time>2026-04-05T14:32:39.982Z</time></trkpt><trkpt lat="37.950469204395205" lon="-4.827872691537055"><ele>524.5</ele><time>2026-04-05T14:32:40.982Z</time></trkpt><trkpt lat="37.95058665320669" lon="-4.827833539625096"><ele>523.25</ele><time>2026-04-05T14:32:41.982Z</time></trkpt><trkpt lat="37.95070360656596" lon="-4.82780767709625"><ele>522.0</ele><time>2026-04-05T14:32:42.982Z</time></trkpt><trkpt lat="37.950812133501856" lon="-4.827755095133939"><ele>521.5</ele><time>2026-04-05T14:32:43.982Z</time></trkpt><trkpt lat="37.95092531285209" lon="-4.8277227657343955"><ele>521.0</ele><time>2026-04-05T14:32:44.982Z</time></trkpt><trkpt lat="37.95103464646249" lon="-4.8277031097006455"><ele>520.5</ele><time>2026-04-05T14:32:45.982Z</time></trkpt><trkpt lat="37.95115141856863" lon="-4.827714411710629"><ele>520.0</ele><time>2026-04-05T14:32:46.982Z</time></trkpt><trkpt lat="37.951264093673366" lon="-4.827763755720217"><ele>520.0</ele><time>2026-04-05T14:32:47.982Z</time></trkpt><trkpt lat="37.95137783072791" lon="-4.8278195652281175"><ele>520.0</ele><time>2026-04-05T14:32:48.982Z</time></trkpt><trkpt lat="37.95149562508167" lon="-4.827877218770041"><ele>520.0</ele><time>2026-04-05T14:32:49.982Z</time></trkpt><trkpt lat="37.951610831855795" lon="-4.827941384698524"><ele>520.0</ele><time>2026-04-05T14:32:50.982Z</time></trkpt><trkpt lat="37.951744927988535" lon="-4.827948772053011"><ele>518.0</ele><time>2026-04-05T14:32:51.982Z</time></trkpt><trkpt lat="37.951874144414376" lon="-4.827948772045662"><ele>516.0</ele><time>2026-04-05T14:32:52.982Z</time></trkpt><trkpt lat="37.95197620586961" lon="-4.827961905403161"><ele>514.0</ele><time>2026-04-05T14:32:53.982Z</time></trkpt><trkpt lat="37.95207525746269" lon="-4.828000556542983"><ele>512.0</ele><time>2026-04-05T14:32:54.982Z</time></trkpt><trkpt lat="37.95217325790234" lon="-4.828068366619872"><ele>510.0</ele><time>2026-04-05T14:32:55.982Z</time></trkpt><trkpt lat="37.95226398353003" lon="-4.828159785233925"><ele>510.0</ele><time>2026-04-05T14:32:56.982Z</time></trkpt><trkpt lat="37.952317937247486" lon="-4.828269989668857"><ele>510.0</ele><time>2026-04-05T14:32:57.982Z</time></trkpt><trkpt lat="37.95233703789293" lon="-4.82839564131383"><ele>510.0</ele><time>2026-04-05T14:32:58.982Z</time></trkpt><trkpt lat="37.95233829210541" lon="-4.828523184165164"><ele>510.0</ele><time>2026-04-05T14:32:59.982Z</time></trkpt><trkpt lat="37.95235370128114" lon="-4.82864657088624"><ele>510.0</ele><time>2026-04-05T14:33:00.982Z</time></trkpt><trkpt lat="37.95240139756783" lon="-4.828753086098289"><ele>509.6</ele><time>2026-04-05T14:33:01.982Z</time></trkpt><trkpt lat="37.95247592786906" lon="-4.828819434718509"><ele>509.2</ele><time>2026-04-05T14:33:02.982Z</time></trkpt><trkpt lat="37.95257850589094" lon="-4.828852886836782"><ele>508.79999999999995</ele><time>2026-04-05T14:33:03.982Z</time></trkpt><trkpt lat="37.952688274899344" lon="-4.828873485644433"><ele>508.4</ele><time>2026-04-05T14:33:04.982Z</time></trkpt><trkpt lat="37.952800525771536" lon="-4.8289059439977065"><ele>508.0</ele><time>2026-04-05T14:33:05.982Z</time></trkpt><trkpt lat="37.952904226369924" lon="-4.828958694991337"><ele>508.0</ele><time>2026-04-05T14:33:06.982Z</time></trkpt><trkpt lat="37.952991455049215" lon="-4.829047669171476"><ele>508.0</ele><time>2026-04-05T14:33:07.982Z</time></trkpt><trkpt lat="37.953067125322946" lon="-4.82917275218871"><ele>508.0</ele><time>2026-04-05T14:33:08.982Z</time></trkpt><trkpt lat="37.95313755576904" lon="-4.829305617809509"><ele>508.0</ele><time>2026-04-05T14:33:09.982Z</time></trkpt><trkpt lat="37.95321337926457" lon="-4.829435464181233"><ele>508.25</ele><time>2026-04-05T14:33:10.982Z</time></trkpt><trkpt lat="37.95330102521562" lon="-4.829563967566322"><ele>508.5</ele><time>2026-04-05T14:33:11.982Z</time></trkpt><trkpt lat="37.953391501526156" lon="-4.829691577095313"><ele>508.75</ele><time>2026-04-05T14:33:12.983Z</time></trkpt><trkpt lat="37.9534750867846" lon="-4.82981668510236"><ele>509.0</ele><time>2026-04-05T14:33:13.983Z</time></trkpt><trkpt lat="37.95353692154106" lon="-4.829941279326745"><ele>509.25</ele><time>2026-04-05T14:33:14.983Z</time></trkpt><trkpt lat="37.953567135989815" lon="-4.830072776119161"><ele>509.5</ele><time>2026-04-05T14:33:15.983Z</time></trkpt><trkpt lat="37.953573631732425" lon="-4.83021698627396"><ele>509.75</ele><time>2026-04-05T14:33:16.983Z</time></trkpt><trkpt lat="37.953531678341335" lon="-4.830353105279172"><ele>510.0</ele><time>2026-04-05T14:33:17.983Z</time></trkpt><trkpt lat="37.953513904644325" lon="-4.830499103246771"><ele>508.8</ele><time>2026-04-05T14:33:18.983Z</time></trkpt><trkpt lat="37.95349757720725" lon="-4.830636817242007"><ele>507.6</ele><time>2026-04-05T14:33:19.983Z</time></trkpt><trkpt lat="37.95347926569815" lon="-4.8307647840670835"><ele>506.4</ele><time>2026-04-05T14:33:20.983Z</time></trkpt><trkpt lat="37.9534904258067" lon="-4.830887970801627"><ele>505.2</ele><time>2026-04-05T14:33:21.983Z</time></trkpt><trkpt lat="37.95352966373736" lon="-4.830991582091177"><ele>504.0</ele><time>2026-04-05T14:33:22.983Z</time></trkpt><trkpt lat="37.95360070917078" lon="-4.83106425412762"><ele>502.75</ele><time>2026-04-05T14:33:23.983Z</time></trkpt><trkpt lat="37.95369986678496" lon="-4.831104572038034"><ele>501.5</ele><time>2026-04-05T14:33:24.983Z</time></trkpt><trkpt lat="37.95381565531082" lon="-4.831120647763799"><ele>500.25</ele><time>2026-04-05T14:33:25.983Z</time></trkpt><trkpt lat="37.953935119657444" lon="-4.831166969436141"><ele>499.0</ele><time>2026-04-05T14:33:26.983Z</time></trkpt><trkpt lat="37.95404040124583" lon="-4.831247338807275"><ele>499.0</ele><time>2026-04-05T14:33:27.983Z</time></trkpt><trkpt lat="37.954143287722125" lon="-4.8313355738617325"><ele>499.0</ele><time>2026-04-05T14:33:28.983Z</time></trkpt><trkpt lat="37.95424544538668" lon="-4.831407525358236"><ele>499.0</ele><time>2026-04-05T14:33:29.983Z</time></trkpt><trkpt lat="37.9543489259228" lon="-4.831463349902421"><ele>499.0</ele><time>2026-04-05T14:33:30.983Z</time></trkpt><trkpt lat="37.95445513294926" lon="-4.831481082677742"><ele>497.25</ele><time>2026-04-05T14:33:31.983Z</time></trkpt><trkpt lat="37.95456968912816" lon="-4.8314618511962975"><ele>495.5</ele><time>2026-04-05T14:33:32.983Z</time></trkpt><trkpt lat="37.95469185042259" lon="-4.8314391441289395"><ele>493.75</ele><time>2026-04-05T14:33:33.983Z</time></trkpt><trkpt lat="37.954817780220125" lon="-4.8314499866444285"><ele>492.0</ele><time>2026-04-05T14:33:34.983Z</time></trkpt><trkpt lat="37.954943632954816" lon="-4.831499494625964"><ele>492.40000000000003</ele><time>2026-04-05T14:33:35.983Z</time></trkpt><trkpt lat="37.95504954760278" lon="-4.831556410564319"><ele>492.80000000000007</ele><time>2026-04-05T14:33:36.983Z</time></trkpt><trkpt lat="37.95515525491238" lon="-4.831593413588653"><ele>493.2</ele><time>2026-04-05T14:33:37.983Z</time></trkpt><trkpt lat="37.95525726766212" lon="-4.831589221532618"><ele>493.6</ele><time>2026-04-05T14:33:38.983Z</time></trkpt><trkpt lat="37.95536063997586" lon="-4.831509465414329"><ele>494.0</ele><time>2026-04-05T14:33:39.983Z</time></trkpt><trkpt lat="37.95549512021785" lon="-4.831463102746511"><ele>494.0</ele><time>2026-04-05T14:33:40.983Z</time></trkpt><trkpt lat="37.95564838179685" lon="-4.8314585158697545"><ele>494.0</ele><time>2026-04-05T14:33:41.983Z</time></trkpt><trkpt lat="37.95579216930668" lon="-4.8314727140782034"><ele>494.0</ele><time>2026-04-05T14:33:42.983Z</time></trkpt><trkpt lat="37.955933975445284" lon="-4.831505090570758"><ele>494.0</ele><time>2026-04-05T14:33:43.983Z</time></trkpt><trkpt lat="37.956082561216085" lon="-4.8315094810484025"><ele>493.25</ele><time>2026-04-05T14:33:44.983Z</time></trkpt><trkpt lat="37.956221559243325" lon="-4.831513587521578"><ele>492.5</ele><time>2026-04-05T14:33:45.983Z</time></trkpt><trkpt lat="37.95635712909377" lon="-4.831508366517038"><ele>491.75</ele><time>2026-04-05T14:33:46.983Z</time></trkpt><trkpt lat="37.956490968785054" lon="-4.831512935269766"><ele>491.0</ele><time>2026-04-05T14:33:47.983Z</time></trkpt><trkpt lat="37.956613910749056" lon="-4.831501749304498"><ele>488.75</ele><time>2026-04-05T14:33:48.983Z</time></trkpt><trkpt lat="37.95672723234347" lon="-4.831517962813571"><ele>486.5</ele><time>2026-04-05T14:33:49.983Z</time></trkpt><trkpt lat="37.95684681898209" lon="-4.831555631263973"><ele>484.25</ele><time>2026-04-05T14:33:50.983Z</time></trkpt><trkpt lat="37.95695833632577" lon="-4.831632899731579"><ele>482.0</ele><time>2026-04-05T14:33:51.983Z</time></trkpt><trkpt lat="37.957056468214354" lon="-4.831709489647939"><ele>482.0</ele><time>2026-04-05T14:33:52.983Z</time></trkpt><trkpt lat="37.957149542135774" lon="-4.831806608919493"><ele>482.0</ele><time>2026-04-05T14:33:53.983Z</time></trkpt><trkpt lat="37.9572566434737" lon="-4.831878293536602"><ele>482.0</ele><time>2026-04-05T14:33:54.983Z</time></trkpt><trkpt lat="37.95737223429899" lon="-4.831934003252201"><ele>482.0</ele><time>2026-04-05T14:33:55.983Z</time></trkpt><trkpt lat="37.95749810750803" lon="-4.8319677352565025"><ele>482.66666666666663</ele><time>2026-04-05T14:33:56.981Z</time></trkpt><trkpt lat="37.957641290356335" lon="-4.831989752493232"><ele>483.33333333333337</ele><time>2026-04-05T14:33:57.981Z</time></trkpt><trkpt lat="37.95779928680163" lon="-4.832001774196957"><ele>484.0</ele><time>2026-04-05T14:33:58.981Z</time></trkpt><trkpt lat="37.957948698807094" lon="-4.832018686511824"><ele>484.0</ele><time>2026-04-05T14:33:59.981Z</time></trkpt><trkpt lat="37.958108677379215" lon="-4.832044417294502"><ele>484.0</ele><time>2026-04-05T14:34:00.981Z</time></trkpt><trkpt lat="37.95827440941458" lon="-4.832054489754135"><ele>484.0</ele><time>2026-04-05T14:34:01.981Z</time></trkpt><trkpt lat="37.95844709967808" lon="-4.832090117675601"><ele>483.6666666666667</ele><time>2026-04-05T14:34:02.981Z</time></trkpt><trkpt lat="37.95862245443901" lon="-4.832137237306247"><ele>483.33333333333337</ele><time>2026-04-05T14:34:03.982Z</time></trkpt><trkpt lat="37.9588041248056" lon="-4.83217689138267"><ele>483.0</ele><time>2026-04-05T14:34:04.982Z</time></trkpt><trkpt lat="37.95898297151649" lon="-4.832208787843178"><ele>483.0</ele><time>2026-04-05T14:34:05.982Z</time></trkpt><trkpt lat="37.95914912251043" lon="-4.832235703829179"><ele>483.0</ele><time>2026-04-05T14:34:06.981Z</time></trkpt><trkpt lat="37.95930371391609" lon="-4.832262834548731"><ele>483.0</ele><time>2026-04-05T14:34:07.981Z</time></trkpt><trkpt lat="37.95945115046343" lon="-4.832285713234764"><ele>483.25</ele><time>2026-04-05T14:34:08.981Z</time></trkpt><trkpt lat="37.959593808890176" lon="-4.832295816852918"><ele>483.5</ele><time>2026-04-05T14:34:09.981Z</time></trkpt><trkpt lat="37.959735477003726" lon="-4.832278532358327"><ele>483.75</ele><time>2026-04-05T14:34:10.981Z</time></trkpt><trkpt lat="37.95988026926395" lon="-4.8322286976835995"><ele>484.0</ele><time>2026-04-05T14:34:11.981Z</time></trkpt><trkpt lat="37.96003535568887" lon="-4.8321779457566905"><ele>481.33333333333337</ele><time>2026-04-05T14:34:12.981Z</time></trkpt><trkpt lat="37.96021010486652" lon="-4.832145045416417"><ele>478.66666666666663</ele><time>2026-04-05T14:34:13.981Z</time></trkpt><trkpt lat="37.96037968404193" lon="-4.832132913270401"><ele>476.0</ele><time>2026-04-05T14:34:14.981Z</time></trkpt><trkpt lat="37.96055896653562" lon="-4.832120382296978"><ele>476.0</ele><time>2026-04-05T14:34:15.981Z</time></trkpt><trkpt lat="37.96073765897279" lon="-4.832098660165172"><ele>476.0</ele><time>2026-04-05T14:34:16.981Z</time></trkpt><trkpt lat="37.960896676642186" lon="-4.83209943895745"><ele>476.0</ele><time>2026-04-05T14:34:17.981Z</time></trkpt><trkpt lat="37.96106528344144" lon="-4.832103116050532"><ele>474.3333333333333</ele><time>2026-04-05T14:34:18.981Z</time></trkpt><trkpt lat="37.9612211010513" lon="-4.832128934859342"><ele>472.66666666666663</ele><time>2026-04-05T14:34:19.981Z</time></trkpt><trkpt lat="37.96138380907063" lon="-4.832193053421858"><ele>471.0</ele><time>2026-04-05T14:34:20.981Z</time></trkpt><trkpt lat="37.96155051689103" lon="-4.8322779856836995"><ele>470.0</ele><time>2026-04-05T14:34:21.981Z</time></trkpt><trkpt lat="37.96171635280778" lon="-4.832350602382451"><ele>469.0</ele><time>2026-04-05T14:34:22.981Z</time></trkpt><trkpt lat="37.9618880698107" lon="-4.832411943058285"><ele>468.0</ele><time>2026-04-05T14:34:23.981Z</time></trkpt><trkpt lat="37.9620683800249" lon="-4.832458117916395"><ele>468.0</ele><time>2026-04-05T14:34:24.981Z</time></trkpt><trkpt lat="37.96223995697065" lon="-4.832550048583924"><ele>468.0</ele><time>2026-04-05T14:34:25.981Z</time></trkpt><trkpt lat="37.96241229828775" lon="-4.832624856268774"><ele>468.0</ele><time>2026-04-05T14:34:26.981Z</time></trkpt><trkpt lat="37.96257391016404" lon="-4.832692760933824"><ele>467.75</ele><time>2026-04-05T14:34:27.981Z</time></trkpt><trkpt lat="37.962722624967256" lon="-4.832751199101053"><ele>467.5</ele><time>2026-04-05T14:34:28.981Z</time></trkpt><trkpt lat="37.96284719225831" lon="-4.832805267319263"><ele>467.25</ele><time>2026-04-05T14:34:29.981Z</time></trkpt><trkpt lat="37.96296368656635" lon="-4.83285362157884"><ele>467.0</ele><time>2026-04-05T14:34:30.981Z</time></trkpt><trkpt lat="37.96305803332851" lon="-4.832930358210503"><ele>467.0</ele><time>2026-04-05T14:34:31.981Z</time></trkpt><trkpt lat="37.96314410067978" lon="-4.83302932510763"><ele>467.0</ele><time>2026-04-05T14:34:32.981Z</time></trkpt><trkpt lat="37.963213171460716" lon="-4.833148677322821"><ele>467.0</ele><time>2026-04-05T14:34:33.981Z</time></trkpt><trkpt lat="37.96328017957033" lon="-4.833279613339139"><ele>467.0</ele><time>2026-04-05T14:34:34.982Z</time></trkpt><trkpt lat="37.96334545994119" lon="-4.833404494132705"><ele>468.0</ele><time>2026-04-05T14:34:35.982Z</time></trkpt><trkpt lat="37.96342190901551" lon="-4.833527335010329"><ele>469.0</ele><time>2026-04-05T14:34:36.982Z</time></trkpt><trkpt lat="37.963500954435915" lon="-4.833653047457324"><ele>470.0</ele><time>2026-04-05T14:34:37.982Z</time></trkpt><trkpt lat="37.96357844142368" lon="-4.83378632877368"><ele>471.0</ele><time>2026-04-05T14:34:38.982Z</time></trkpt><trkpt lat="37.96364503651899" lon="-4.833916085227769"><ele>471.0</ele><time>2026-04-05T14:34:39.982Z</time></trkpt><trkpt lat="37.96370088733624" lon="-4.834034016113114"><ele>471.0</ele><time>2026-04-05T14:34:40.982Z</time></trkpt><trkpt lat="37.96374660944275" lon="-4.834139012298012"><ele>471.0</ele><time>2026-04-05T14:34:41.982Z</time></trkpt><trkpt lat="37.963784102169214" lon="-4.834217363310735"><ele>471.0</ele><time>2026-04-05T14:34:42.982Z</time></trkpt><trkpt lat="37.96382983303367" lon="-4.83433178096923"><ele>471.0</ele><time>2026-04-05T14:34:44.982Z</time></trkpt><trkpt lat="37.96389089786221" lon="-4.83447157486898"><ele>469.20000000000005</ele><time>2026-04-05T14:34:46.982Z</time></trkpt><trkpt lat="37.96384490706762" lon="-4.834586485519607"><ele>467.40000000000003</ele><time>2026-04-05T14:34:47.982Z</time></trkpt><trkpt lat="37.9638575120707" lon="-4.834692560583372"><ele>465.6</ele><time>2026-04-05T14:34:48.982Z</time></trkpt><trkpt lat="37.96388582878814" lon="-4.834805475824531"><ele>463.8</ele><time>2026-04-05T14:34:49.982Z</time></trkpt><trkpt lat="37.96390236428469" lon="-4.834932992953221"><ele>462.0</ele><time>2026-04-05T14:34:50.982Z</time></trkpt><trkpt lat="37.96394584949793" lon="-4.835040980208924"><ele>462.0</ele><time>2026-04-05T14:34:51.982Z</time></trkpt><trkpt lat="37.963986112682186" lon="-4.835157412155256"><ele>462.00000000000006</ele><time>2026-04-05T14:34:52.982Z</time></trkpt><trkpt lat="37.964022900910436" lon="-4.835277959999074"><ele>462.00000000000006</ele><time>2026-04-05T14:34:53.982Z</time></trkpt><trkpt lat="37.964045004635416" lon="-4.83541280139394"><ele>462.0</ele><time>2026-04-05T14:34:54.982Z</time></trkpt><trkpt lat="37.96408393641152" lon="-4.83553981229444"><ele>462.0</ele><time>2026-04-05T14:34:55.982Z</time></trkpt><trkpt lat="37.964124411619345" lon="-4.835672862560254"><ele>462.0</ele><time>2026-04-05T14:34:56.982Z</time></trkpt><trkpt lat="37.964177006149015" lon="-4.8358025791449375"><ele>462.00000000000006</ele><time>2026-04-05T14:34:57.982Z</time></trkpt><trkpt lat="37.96421094419615" lon="-4.835930678429093"><ele>462.00000000000006</ele><time>2026-04-05T14:34:58.982Z</time></trkpt><trkpt lat="37.964247241024985" lon="-4.836042551338344"><ele>462.0</ele><time>2026-04-05T14:34:59.982Z</time></trkpt><trkpt lat="37.964286171569384" lon="-4.836140584864399"><ele>462.0</ele><time>2026-04-05T14:35:00.982Z</time></trkpt><trkpt lat="37.964318006490146" lon="-4.836224037978203"><ele>462.5</ele><time>2026-04-05T14:35:01.982Z</time></trkpt><trkpt lat="37.96433678957784" lon="-4.836303384095705"><ele>463.0</ele><time>2026-04-05T14:35:02.982Z</time></trkpt><trkpt lat="37.964380684820796" lon="-4.836360949314314"><ele>463.5</ele><time>2026-04-05T14:35:03.982Z</time></trkpt><trkpt lat="37.96440940860993" lon="-4.836447846584442"><ele>464.0</ele><time>2026-04-05T14:35:04.982Z</time></trkpt><trkpt lat="37.964455543827476" lon="-4.836534488247983"><ele>464.5</ele><time>2026-04-05T14:35:05.982Z</time></trkpt><trkpt lat="37.96452220676485" lon="-4.836627190434647"><ele>465.0</ele><time>2026-04-05T14:35:06.982Z</time></trkpt><trkpt lat="37.964593905956015" lon="-4.8367322971706885"><ele>465.5</ele><time>2026-04-05T14:35:07.982Z</time></trkpt><trkpt lat="37.96468135493056" lon="-4.836864361771469"><ele>466.0</ele><time>2026-04-05T14:35:08.982Z</time></trkpt><trkpt lat="37.96477153569347" lon="-4.836997190200126"><ele>466.5</ele><time>2026-04-05T14:35:09.982Z</time></trkpt><trkpt lat="37.96488075726637" lon="-4.8371095122278245"><ele>467.0</ele><time>2026-04-05T14:35:10.982Z</time></trkpt><trkpt lat="37.96497825557505" lon="-4.837222821311527"><ele>467.0</ele><time>2026-04-05T14:35:11.982Z</time></trkpt><trkpt lat="37.96507717391882" lon="-4.837337474460356"><ele>467.0</ele><time>2026-04-05T14:35:12.982Z</time></trkpt><trkpt lat="37.96516756057417" lon="-4.837460052366811"><ele>467.0</ele><time>2026-04-05T14:35:13.982Z</time></trkpt><trkpt lat="37.965276123627305" lon="-4.837553951438202"><ele>467.0</ele><time>2026-04-05T14:35:14.982Z</time></trkpt><trkpt lat="37.965378427369544" lon="-4.837645790753049"><ele>466.75</ele><time>2026-04-05T14:35:15.982Z</time></trkpt><trkpt lat="37.965476313854886" lon="-4.83773928435704"><ele>466.5</ele><time>2026-04-05T14:35:16.982Z</time></trkpt><trkpt lat="37.96558281803845" lon="-4.837829443754764"><ele>466.25</ele><time>2026-04-05T14:35:17.982Z</time></trkpt><trkpt lat="37.965692375807336" lon="-4.837896177596675"><ele>466.0</ele><time>2026-04-05T14:35:18.982Z</time></trkpt><trkpt lat="37.96579000289535" lon="-4.837974674923326"><ele>464.20000000000005</ele><time>2026-04-05T14:35:19.982Z</time></trkpt><trkpt lat="37.965889802337706" lon="-4.83805380078943"><ele>462.40000000000003</ele><time>2026-04-05T14:35:20.982Z</time></trkpt><trkpt lat="37.96598484084057" lon="-4.838125069888562"><ele>460.6</ele><time>2026-04-05T14:35:21.982Z</time></trkpt><trkpt lat="37.96607552330972" lon="-4.838203243329905"><ele>458.8</ele><time>2026-04-05T14:35:22.982Z</time></trkpt><trkpt lat="37.96616702769274" lon="-4.838238573152242"><ele>457.0</ele><time>2026-04-05T14:35:23.982Z</time></trkpt><trkpt lat="37.96626631585713" lon="-4.838251664060709"><ele>457.0</ele><time>2026-04-05T14:35:24.982Z</time></trkpt><trkpt lat="37.96635520809402" lon="-4.838210193469481"><ele>457.0</ele><time>2026-04-05T14:35:25.982Z</time></trkpt><trkpt lat="37.966473585194684" lon="-4.838221821873514"><ele>457.0</ele><time>2026-04-05T14:35:26.982Z</time></trkpt><trkpt lat="37.966616523780544" lon="-4.838196368519694"><ele>457.0</ele><time>2026-04-05T14:35:27.982Z</time></trkpt><trkpt lat="37.966769856107334" lon="-4.838147339109558"><ele>456.25</ele><time>2026-04-05T14:35:28.982Z</time></trkpt><trkpt lat="37.96693152408653" lon="-4.838081190049782"><ele>455.5</ele><time>2026-04-05T14:35:29.982Z</time></trkpt><trkpt lat="37.96705410724482" lon="-4.837979146682782"><ele>454.75</ele><time>2026-04-05T14:35:30.982Z</time></trkpt><trkpt lat="37.96717887591405" lon="-4.8379210622247415"><ele>454.0</ele><time>2026-04-05T14:35:31.982Z</time></trkpt><trkpt lat="37.96729482325781" lon="-4.837864956744261"><ele>454.0</ele><time>2026-04-05T14:35:32.982Z</time></trkpt><trkpt lat="37.96741146102771" lon="-4.837808156208748"><ele>454.0</ele><time>2026-04-05T14:35:33.982Z</time></trkpt><trkpt lat="37.967514244791" lon="-4.837756867159221"><ele>454.0</ele><time>2026-04-05T14:35:34.982Z</time></trkpt><trkpt lat="37.96759066175147" lon="-4.837683591484511"><ele>454.0</ele><time>2026-04-05T14:35:35.982Z</time></trkpt><trkpt lat="37.96764695142064" lon="-4.837590641738765"><ele>454.0</ele><time>2026-04-05T14:35:36.982Z</time></trkpt><trkpt lat="37.9677143876462" lon="-4.83749322268075"><ele>454.33333333333337</ele><time>2026-04-05T14:35:37.982Z</time></trkpt><trkpt lat="37.96776044042588" lon="-4.837382982570766"><ele>454.6666666666667</ele><time>2026-04-05T14:35:38.982Z</time></trkpt><trkpt lat="37.96780287489563" lon="-4.837274576908745"><ele>455.0</ele><time>2026-04-05T14:35:39.982Z</time></trkpt><trkpt lat="37.967840636675525" lon="-4.837180781752331"><ele>455.33333333333337</ele><time>2026-04-05T14:35:40.982Z</time></trkpt><trkpt lat="37.96787975206628" lon="-4.837103981834979"><ele>455.6666666666667</ele><time>2026-04-05T14:35:41.982Z</time></trkpt><trkpt lat="37.96793002103157" lon="-4.837014951414813"><ele>456.0</ele><time>2026-04-05T14:35:43.982Z</time></trkpt><trkpt lat="37.967993022520616" lon="-4.836952413445484"><ele>456.0</ele><time>2026-04-05T14:35:45.982Z</time></trkpt><trkpt lat="37.9681115753211" lon="-4.837022819806576"><ele>456.0</ele><time>2026-04-05T14:35:46.982Z</time></trkpt><trkpt lat="37.968215575497965" lon="-4.837068836163021"><ele>456.0</ele><time>2026-04-05T14:35:47.982Z</time></trkpt><trkpt lat="37.96832703434823" lon="-4.837110932334428"><ele>456.0</ele><time>2026-04-05T14:35:48.982Z</time></trkpt><trkpt lat="37.96844520090528" lon="-4.837161563131684"><ele>456.0</ele><time>2026-04-05T14:35:49.982Z</time></trkpt><trkpt lat="37.96856847520469" lon="-4.837209621340185"><ele>456.0</ele><time>2026-04-05T14:35:50.982Z</time></trkpt><trkpt lat="37.96869701477549" lon="-4.837251118498785"><ele>456.0</ele><time>2026-04-05T14:35:51.982Z</time></trkpt><trkpt lat="37.96881783490659" lon="-4.837289982504689"><ele>456.0</ele><time>2026-04-05T14:35:52.982Z</time></trkpt><trkpt lat="37.96892956546128" lon="-4.837322774454256"><ele>456.0</ele><time>2026-04-05T14:35:53.982Z</time></trkpt><trkpt lat="37.9690503655583" lon="-4.8373391019343615"><ele>456.0</ele><time>2026-04-05T14:35:54.982Z</time></trkpt><trkpt lat="37.9691611962016" lon="-4.837360450847963"><ele>456.0</ele><time>2026-04-05T14:35:55.982Z</time></trkpt><trkpt lat="37.969272293781685" lon="-4.837384473221554"><ele>456.0</ele><time>2026-04-05T14:35:56.982Z</time></trkpt><trkpt lat="37.96937850371598" lon="-4.837413952507916"><ele>456.6666666666667</ele><time>2026-04-05T14:35:57.982Z</time></trkpt><trkpt lat="37.9694645270149" lon="-4.837465020780007"><ele>457.33333333333337</ele><time>2026-04-05T14:35:58.982Z</time></trkpt><trkpt lat="37.96952942686574" lon="-4.837538922054208"><ele>458.0</ele><time>2026-04-05T14:35:59.982Z</time></trkpt><trkpt lat="37.9695697008012" lon="-4.83761793967339"><ele>458.6666666666667</ele><time>2026-04-05T14:36:00.982Z</time></trkpt><trkpt lat="37.969575862479594" lon="-4.837705178879876"><ele>459.33333333333337</ele><time>2026-04-05T14:36:01.982Z</time></trkpt><trkpt lat="37.96955898829045" lon="-4.837800449606842"><ele>460.0</ele><time>2026-04-05T14:36:02.981Z</time></trkpt><trkpt lat="37.969528788658714" lon="-4.837902382867436"><ele>460.1666666666667</ele><time>2026-04-05T14:36:03.981Z</time></trkpt><trkpt lat="37.96948633164736" lon="-4.837994532398815"><ele>460.33333333333337</ele><time>2026-04-05T14:36:04.981Z</time></trkpt><trkpt lat="37.9694406830808" lon="-4.83808715714554"><ele>460.5</ele><time>2026-04-05T14:36:05.981Z</time></trkpt><trkpt lat="37.96939165665521" lon="-4.8381806695697875"><ele>460.66666666666663</ele><time>2026-04-05T14:36:06.981Z</time></trkpt><trkpt lat="37.9693534180952" lon="-4.838283314497494"><ele>460.8333333333333</ele><time>2026-04-05T14:36:07.981Z</time></trkpt><trkpt lat="37.96932122520919" lon="-4.838386975153456"><ele>461.0</ele><time>2026-04-05T14:36:08.981Z</time></trkpt><trkpt lat="37.96929927897941" lon="-4.838497827684942"><ele>460.66666666666663</ele><time>2026-04-05T14:36:09.981Z</time></trkpt><trkpt lat="37.96928185986165" lon="-4.838602958737152"><ele>460.3333333333333</ele><time>2026-04-05T14:36:10.981Z</time></trkpt><trkpt lat="37.96927108611337" lon="-4.838705457955382"><ele>460.0</ele><time>2026-04-05T14:36:11.98Z</time></trkpt><trkpt lat="37.969252380901125" lon="-4.838807596880438"><ele>459.66666666666663</ele><time>2026-04-05T14:36:12.981Z</time></trkpt><trkpt lat="37.969219355534634" lon="-4.838895598992186"><ele>459.3333333333333</ele><time>2026-04-05T14:36:13.981Z</time></trkpt><trkpt lat="37.96915548584765" lon="-4.838964918596931"><ele>459.0</ele><time>2026-04-05T14:36:14.981Z</time></trkpt><trkpt lat="37.96906317154009" lon="-4.839019416269823"><ele>458.75</ele><time>2026-04-05T14:36:15.981Z</time></trkpt><trkpt lat="37.96895702841177" lon="-4.83907548310599"><ele>458.5</ele><time>2026-04-05T14:36:16.981Z</time></trkpt><trkpt lat="37.96884641066687" lon="-4.839133726375736"><ele>458.25</ele><time>2026-04-05T14:36:17.981Z</time></trkpt><trkpt lat="37.96874784794996" lon="-4.839200809195954"><ele>458.0</ele><time>2026-04-05T14:36:18.981Z</time></trkpt><trkpt lat="37.968650850113356" lon="-4.839281640719307"><ele>458.0</ele><time>2026-04-05T14:36:19.981Z</time></trkpt><trkpt lat="37.96855769608334" lon="-4.839370136095045"><ele>457.99999999999994</ele><time>2026-04-05T14:36:20.981Z</time></trkpt><trkpt lat="37.96846991814446" lon="-4.839457798658161"><ele>457.99999999999994</ele><time>2026-04-05T14:36:21.981Z</time></trkpt><trkpt lat="37.968387061323334" lon="-4.8395485380480405"><ele>458.0</ele><time>2026-04-05T14:36:22.981Z</time></trkpt><trkpt lat="37.9683081888943" lon="-4.839634033370643"><ele>458.0</ele><time>2026-04-05T14:36:23.981Z</time></trkpt><trkpt lat="37.968242701782074" lon="-4.839710373634969"><ele>458.0</ele><time>2026-04-05T14:36:24.981Z</time></trkpt><trkpt lat="37.9681847809144" lon="-4.83977787056252"><ele>457.99999999999994</ele><time>2026-04-05T14:36:25.981Z</time></trkpt><trkpt lat="37.968141511143614" lon="-4.839840770408443"><ele>457.99999999999994</ele><time>2026-04-05T14:36:26.981Z</time></trkpt><trkpt lat="37.968074411174406" lon="-4.839950642831604"><ele>458.0</ele><time>2026-04-05T14:36:28.981Z</time></trkpt><trkpt lat="37.96805086733393" lon="-4.840123497676939"><ele>458.0</ele><time>2026-04-05T14:36:30.981Z</time></trkpt><trkpt lat="37.968112029014364" lon="-4.840225552085693"><ele>457.59999999999997</ele><time>2026-04-05T14:36:31.981Z</time></trkpt><trkpt lat="37.968181853875684" lon="-4.840318651045313"><ele>457.19999999999993</ele><time>2026-04-05T14:36:32.981Z</time></trkpt><trkpt lat="37.968260809258354" lon="-4.840408921450021"><ele>456.8</ele><time>2026-04-05T14:36:33.981Z</time></trkpt><trkpt lat="37.96835013379795" lon="-4.840482836414636"><ele>456.4</ele><time>2026-04-05T14:36:34.981Z</time></trkpt><trkpt lat="37.96842312528494" lon="-4.840574291929936"><ele>456.0</ele><time>2026-04-05T14:36:35.981Z</time></trkpt><trkpt lat="37.968512451723505" lon="-4.840665922269275"><ele>457.25</ele><time>2026-04-05T14:36:36.981Z</time></trkpt><trkpt lat="37.968602937706905" lon="-4.840756856083651"><ele>458.5</ele><time>2026-04-05T14:36:37.981Z</time></trkpt><trkpt lat="37.968690175844586" lon="-4.840837692658852"><ele>459.75</ele><time>2026-04-05T14:36:38.981Z</time></trkpt><trkpt lat="37.968785998010674" lon="-4.840926922497291"><ele>461.0</ele><time>2026-04-05T14:36:39.981Z</time></trkpt><trkpt lat="37.96888064868014" lon="-4.841017154471914"><ele>461.0</ele><time>2026-04-05T14:36:40.981Z</time></trkpt><trkpt lat="37.968984026311865" lon="-4.841107734851802"><ele>461.0</ele><time>2026-04-05T14:36:41.981Z</time></trkpt><trkpt lat="37.969080159879795" lon="-4.841207440218362"><ele>461.0</ele><time>2026-04-05T14:36:42.981Z</time></trkpt><trkpt lat="37.969162060797586" lon="-4.841316737965542"><ele>461.0</ele><time>2026-04-05T14:36:43.981Z</time></trkpt><trkpt lat="37.96923395837034" lon="-4.841425482929063"><ele>460.8</ele><time>2026-04-05T14:36:44.981Z</time></trkpt><trkpt lat="37.96929294343242" lon="-4.841541956809821"><ele>460.6</ele><time>2026-04-05T14:36:45.981Z</time></trkpt><trkpt lat="37.96934893952348" lon="-4.841667239374536"><ele>460.4</ele><time>2026-04-05T14:36:46.981Z</time></trkpt><trkpt lat="37.96937919420624" lon="-4.841811515712677"><ele>460.2</ele><time>2026-04-05T14:36:47.981Z</time></trkpt><trkpt lat="37.96940653243719" lon="-4.841934938751612"><ele>460.0</ele><time>2026-04-05T14:36:48.981Z</time></trkpt><trkpt lat="37.96942824662229" lon="-4.842067998559265"><ele>460.0</ele><time>2026-04-05T14:36:49.981Z</time></trkpt><trkpt lat="37.96944041527112" lon="-4.842200625635934"><ele>460.0</ele><time>2026-04-05T14:36:50.981Z</time></trkpt><trkpt lat="37.96943839519726" lon="-4.842314431227124"><ele>460.0</ele><time>2026-04-05T14:36:51.981Z</time></trkpt><trkpt lat="37.96942597642117" lon="-4.842424249643192"><ele>460.0</ele><time>2026-04-05T14:36:52.981Z</time></trkpt><trkpt lat="37.969405529792255" lon="-4.842541271807518"><ele>460.0</ele><time>2026-04-05T14:36:53.981Z</time></trkpt><trkpt lat="37.96937030505149" lon="-4.84265166759815"><ele>460.6</ele><time>2026-04-05T14:36:54.981Z</time></trkpt><trkpt lat="37.96931667877547" lon="-4.842748932039799"><ele>461.2</ele><time>2026-04-05T14:36:55.981Z</time></trkpt><trkpt lat="37.96925475529857" lon="-4.842843040309369"><ele>461.79999999999995</ele><time>2026-04-05T14:36:56.981Z</time></trkpt><trkpt lat="37.96916155781947" lon="-4.842890495147149"><ele>462.4</ele><time>2026-04-05T14:36:57.981Z</time></trkpt><trkpt lat="37.969058666350506" lon="-4.842930829627126"><ele>463.0</ele><time>2026-04-05T14:36:58.981Z</time></trkpt><trkpt lat="37.968959584078696" lon="-4.842975571790082"><ele>463.0</ele><time>2026-04-05T14:36:59.981Z</time></trkpt><trkpt lat="37.96886701993469" lon="-4.843032869557994"><ele>462.99999999999994</ele><time>2026-04-05T14:37:00.981Z</time></trkpt><trkpt lat="37.96877790865987" lon="-4.843101284450341"><ele>462.99999999999994</ele><time>2026-04-05T14:37:01.981Z</time></trkpt><trkpt lat="37.96870243468277" lon="-4.84317488900534"><ele>463.0</ele><time>2026-04-05T14:37:02.981Z</time></trkpt><trkpt lat="37.96863273956355" lon="-4.843252953271779"><ele>463.0</ele><time>2026-04-05T14:37:03.981Z</time></trkpt><trkpt lat="37.968567948841454" lon="-4.843333447722889"><ele>463.0</ele><time>2026-04-05T14:37:04.981Z</time></trkpt><trkpt lat="37.96849872075201" lon="-4.843419366803097"><ele>462.99999999999994</ele><time>2026-04-05T14:37:05.981Z</time></trkpt><trkpt lat="37.968428351113296" lon="-4.843510514958317"><ele>462.99999999999994</ele><time>2026-04-05T14:37:06.981Z</time></trkpt><trkpt lat="37.9683589931856" lon="-4.843589058905695"><ele>463.0</ele><time>2026-04-05T14:37:07.981Z</time></trkpt><trkpt lat="37.96829488903953" lon="-4.843658659953087"><ele>463.0</ele><time>2026-04-05T14:37:08.981Z</time></trkpt><trkpt lat="37.96823473528034" lon="-4.843722251999015"><ele>463.33333333333337</ele><time>2026-04-05T14:37:09.981Z</time></trkpt><trkpt lat="37.968170760573386" lon="-4.843788251160075"><ele>463.6666666666667</ele><time>2026-04-05T14:37:10.981Z</time></trkpt><trkpt lat="37.968101932443" lon="-4.84384870557509"><ele>464.0</ele><time>2026-04-05T14:37:11.981Z</time></trkpt><trkpt lat="37.96803015908845" lon="-4.843909358044149"><ele>464.33333333333337</ele><time>2026-04-05T14:37:12.981Z</time></trkpt><trkpt lat="37.967971688879246" lon="-4.843973353013356"><ele>464.6666666666667</ele><time>2026-04-05T14:37:13.982Z</time></trkpt><trkpt lat="37.96792411039237" lon="-4.844031444489551"><ele>465.0</ele><time>2026-04-05T14:37:14.982Z</time></trkpt><trkpt lat="37.96786355465894" lon="-4.844075746883316"><ele>465.0</ele><time>2026-04-05T14:37:15.982Z</time></trkpt><trkpt lat="37.967778784556195" lon="-4.844179146577488"><ele>465.0</ele><time>2026-04-05T14:37:17.982Z</time></trkpt><trkpt lat="37.967725084258014" lon="-4.8443008043392055"><ele>465.0</ele><time>2026-04-05T14:37:19.982Z</time></trkpt><trkpt lat="37.967708001713284" lon="-4.844389806458936"><ele>465.0</ele><time>2026-04-05T14:37:20.982Z</time></trkpt><trkpt lat="37.96770535561426" lon="-4.844480272255309"><ele>465.0</ele><time>2026-04-05T14:37:21.982Z</time></trkpt><trkpt lat="37.96770780040845" lon="-4.844579304965905"><ele>465.0</ele><time>2026-04-05T14:37:22.982Z</time></trkpt><trkpt lat="37.96771751415556" lon="-4.844676465712906"><ele>464.8333333333333</ele><time>2026-04-05T14:37:23.982Z</time></trkpt><trkpt lat="37.967729174822" lon="-4.844767345911148"><ele>464.66666666666663</ele><time>2026-04-05T14:37:24.982Z</time></trkpt><trkpt lat="37.967764647767616" lon="-4.844925752977051"><ele>464.5</ele><time>2026-04-05T14:37:26.982Z</time></trkpt><trkpt lat="37.96778857452737" lon="-4.845002277050727"><ele>464.3333333333333</ele><time>2026-04-05T14:37:27.982Z</time></trkpt><trkpt lat="37.96781585535056" lon="-4.845078840076142"><ele>464.16666666666663</ele><time>2026-04-05T14:37:28.982Z</time></trkpt><trkpt lat="37.967845410216064" lon="-4.845160341290972"><ele>464.0</ele><time>2026-04-05T14:37:29.982Z</time></trkpt><trkpt lat="37.967875122404145" lon="-4.8452508927331674"><ele>463.66666666666663</ele><time>2026-04-05T14:37:30.982Z</time></trkpt><trkpt lat="37.96790855083492" lon="-4.845332642489338"><ele>463.3333333333333</ele><time>2026-04-05T14:37:31.982Z</time></trkpt><trkpt lat="37.96794712465681" lon="-4.845414534885364"><ele>463.0</ele><time>2026-04-05T14:37:32.982Z</time></trkpt><trkpt lat="37.96798616824107" lon="-4.845484033891312"><ele>462.66666666666663</ele><time>2026-04-05T14:37:33.982Z</time></trkpt><trkpt lat="37.968042403239025" lon="-4.845633054715187"><ele>462.3333333333333</ele><time>2026-04-05T14:37:35.982Z</time></trkpt><trkpt lat="37.9680573341496" lon="-4.845732100567927"><ele>462.0</ele><time>2026-04-05T14:37:36.982Z</time></trkpt><trkpt lat="37.968070140670285" lon="-4.845839336673721"><ele>462.0</ele><time>2026-04-05T14:37:37.982Z</time></trkpt><trkpt lat="37.96808676400802" lon="-4.845950411782849"><ele>462.0</ele><time>2026-04-05T14:37:38.982Z</time></trkpt><trkpt lat="37.96811330882589" lon="-4.846048151764274"><ele>462.0</ele><time>2026-04-05T14:37:39.982Z</time></trkpt><trkpt lat="37.9681637452691" lon="-4.846131169019963"><ele>462.0</ele><time>2026-04-05T14:37:40.982Z</time></trkpt><trkpt lat="37.9682382668972" lon="-4.846202756781399"><ele>462.0</ele><time>2026-04-05T14:37:41.982Z</time></trkpt><trkpt lat="37.9683161797225" lon="-4.846266206447884"><ele>462.0</ele><time>2026-04-05T14:37:42.982Z</time></trkpt><trkpt lat="37.968387997387424" lon="-4.846345480736743"><ele>463.0</ele><time>2026-04-05T14:37:43.982Z</time></trkpt><trkpt lat="37.96845630629185" lon="-4.846428318125629"><ele>464.00000000000006</ele><time>2026-04-05T14:37:44.982Z</time></trkpt><trkpt lat="37.96852618275273" lon="-4.846510342211031"><ele>465.00000000000006</ele><time>2026-04-05T14:37:45.982Z</time></trkpt><trkpt lat="37.96860056036022" lon="-4.846579425205904"><ele>466.0</ele><time>2026-04-05T14:37:46.982Z</time></trkpt><trkpt lat="37.96867161777843" lon="-4.846649542949517"><ele>467.0</ele><time>2026-04-05T14:37:47.982Z</time></trkpt><trkpt lat="37.96873683376127" lon="-4.846717789117583"><ele>466.99999999999994</ele><time>2026-04-05T14:37:48.982Z</time></trkpt><trkpt lat="37.96880300538099" lon="-4.846783274959882"><ele>467.0</ele><time>2026-04-05T14:37:49.982Z</time></trkpt><trkpt lat="37.96886410391284" lon="-4.846854862917196"><ele>467.0</ele><time>2026-04-05T14:37:50.982Z</time></trkpt><trkpt lat="37.968903645875294" lon="-4.846928664803929"><ele>467.0</ele><time>2026-04-05T14:37:51.982Z</time></trkpt><trkpt lat="37.96891775711754" lon="-4.8470676872602825"><ele>466.99999999999994</ele><time>2026-04-05T14:37:53.982Z</time></trkpt><trkpt lat="37.968846056452456" lon="-4.847128620339801"><ele>467.0</ele><time>2026-04-05T14:37:55.982Z</time></trkpt><trkpt lat="37.96878196394477" lon="-4.847113193932954"><ele>467.0</ele><time>2026-04-05T14:37:56.982Z</time></trkpt><trkpt lat="37.9687214099787" lon="-4.847053373322509"><ele>467.00000000000006</ele><time>2026-04-05T14:37:57.982Z</time></trkpt><trkpt lat="37.96865207825356" lon="-4.84697947949296"><ele>467.00000000000006</ele><time>2026-04-05T14:37:58.982Z</time></trkpt><trkpt lat="37.96857723704117" lon="-4.846906349364902"><ele>467.0</ele><time>2026-04-05T14:37:59.982Z</time></trkpt><trkpt lat="37.968500578836704" lon="-4.846831684899221"><ele>467.0</ele><time>2026-04-05T14:38:00.982Z</time></trkpt><trkpt lat="37.96840787868029" lon="-4.846784803796756"><ele>467.40000000000003</ele><time>2026-04-05T14:38:01.982Z</time></trkpt><trkpt lat="37.96829401246654" lon="-4.846776131462582"><ele>467.80000000000007</ele><time>2026-04-05T14:38:02.982Z</time></trkpt><trkpt lat="37.968181945111915" lon="-4.846782794004603"><ele>468.2</ele><time>2026-04-05T14:38:03.982Z</time></trkpt><trkpt lat="37.968069781356974" lon="-4.8467989929591875"><ele>468.6</ele><time>2026-04-05T14:38:04.982Z</time></trkpt><trkpt lat="37.96796270912792" lon="-4.846812499971541"><ele>469.0</ele><time>2026-04-05T14:38:05.982Z</time></trkpt><trkpt lat="37.96786831978077" lon="-4.846832248514797"><ele>469.0</ele><time>2026-04-05T14:38:06.982Z</time></trkpt><trkpt lat="37.96778193415831" lon="-4.84687581107081"><ele>469.0</ele><time>2026-04-05T14:38:07.982Z</time></trkpt><trkpt lat="37.96770128187609" lon="-4.846927054467147"><ele>469.0</ele><time>2026-04-05T14:38:08.981Z</time></trkpt><trkpt lat="37.96762937054989" lon="-4.846995166477204"><ele>469.0</ele><time>2026-04-05T14:38:09.981Z</time></trkpt><trkpt lat="37.96755194611059" lon="-4.847059133269599"><ele>469.0</ele><time>2026-04-05T14:38:10.981Z</time></trkpt><trkpt lat="37.967482469286864" lon="-4.847129486732773"><ele>468.33333333333337</ele><time>2026-04-05T14:38:11.981Z</time></trkpt><trkpt lat="37.96740397025242" lon="-4.847200619137629"><ele>467.6666666666667</ele><time>2026-04-05T14:38:12.981Z</time></trkpt><trkpt lat="37.96732534465192" lon="-4.847269731640241"><ele>467.0</ele><time>2026-04-05T14:38:13.981Z</time></trkpt><trkpt lat="37.96725141407064" lon="-4.847337558331895"><ele>466.33333333333337</ele><time>2026-04-05T14:38:14.981Z</time></trkpt><trkpt lat="37.96718634613365" lon="-4.847401772064891"><ele>465.6666666666667</ele><time>2026-04-05T14:38:15.98Z</time></trkpt><trkpt lat="37.96712562340943" lon="-4.8474456109901185"><ele>465.0</ele><time>2026-04-05T14:38:16.98Z</time></trkpt><trkpt lat="37.96700741499403" lon="-4.847476877045534"><ele>465.0</ele><time>2026-04-05T14:38:18.98Z</time></trkpt><trkpt lat="37.96689794390261" lon="-4.8473908772127325"><ele>465.0</ele><time>2026-04-05T14:38:20.981Z</time></trkpt><trkpt lat="37.96685124698714" lon="-4.8473279376439065"><ele>465.0</ele><time>2026-04-05T14:38:21.981Z</time></trkpt><trkpt lat="37.96680489359468" lon="-4.847259881477912"><ele>465.0</ele><time>2026-04-05T14:38:22.981Z</time></trkpt><trkpt lat="37.966759241536415" lon="-4.847184894225921"><ele>465.0</ele><time>2026-04-05T14:38:23.981Z</time></trkpt><trkpt lat="37.9667221046408" lon="-4.8471184059974695"><ele>465.0</ele><time>2026-04-05T14:38:24.981Z</time></trkpt><trkpt lat="37.966650203913225" lon="-4.847019832610459"><ele>464.0</ele><time>2026-04-05T14:38:26.981Z</time></trkpt><trkpt lat="37.96653311138819" lon="-4.846964666321091"><ele>463.0</ele><time>2026-04-05T14:38:28.981Z</time></trkpt><trkpt lat="37.966446233541454" lon="-4.846942514226904"><ele>462.0</ele><time>2026-04-05T14:38:29.981Z</time></trkpt><trkpt lat="37.96635827785899" lon="-4.846960123974078"><ele>461.0</ele><time>2026-04-05T14:38:30.981Z</time></trkpt><trkpt lat="37.9662831208347" lon="-4.847019979958994"><ele>460.0</ele><time>2026-04-05T14:38:31.981Z</time></trkpt><trkpt lat="37.96621301029116" lon="-4.847082065529622"><ele>460.00000000000006</ele><time>2026-04-05T14:38:32.981Z</time></trkpt><trkpt lat="37.96614525999677" lon="-4.847134998269076"><ele>460.0</ele><time>2026-04-05T14:38:33.981Z</time></trkpt><trkpt lat="37.96607805938838" lon="-4.847181490043671"><ele>460.0</ele><time>2026-04-05T14:38:34.981Z</time></trkpt><trkpt lat="37.966015220366835" lon="-4.84720489465837"><ele>460.0</ele><time>2026-04-05T14:38:35.981Z</time></trkpt><trkpt lat="37.96588949029157" lon="-4.847148583422167"><ele>460.00000000000006</ele><time>2026-04-05T14:38:37.981Z</time></trkpt><trkpt lat="37.965850402998925" lon="-4.847068292743103"><ele>460.0</ele><time>2026-04-05T14:38:38.981Z</time></trkpt><trkpt lat="37.96582078285759" lon="-4.84697242363178"><ele>459.1666666666667</ele><time>2026-04-05T14:38:39.981Z</time></trkpt><trkpt lat="37.96579430374585" lon="-4.846892701098166"><ele>458.33333333333337</ele><time>2026-04-05T14:38:40.981Z</time></trkpt><trkpt lat="37.96572310660024" lon="-4.846774193797003"><ele>457.5</ele><time>2026-04-05T14:38:42.981Z</time></trkpt><trkpt lat="37.96564497593199" lon="-4.846701374233984"><ele>456.66666666666663</ele><time>2026-04-05T14:38:44.981Z</time></trkpt><trkpt lat="37.96558069648929" lon="-4.846666597716445"><ele>455.8333333333333</ele><time>2026-04-05T14:38:46.981Z</time></trkpt><trkpt lat="37.9655085313181" lon="-4.846658341678935"><ele>455.0</ele><time>2026-04-05T14:38:49.981Z</time></trkpt><trkpt lat="37.965441501308376" lon="-4.846666331543379"><ele>454.99999999999994</ele><time>2026-04-05T14:38:51.981Z</time></trkpt><trkpt lat="37.96535825750997" lon="-4.846666837563077"><ele>455.0</ele><time>2026-04-05T14:38:53.981Z</time></trkpt><trkpt lat="37.965267386244214" lon="-4.846679332314691"><ele>455.0</ele><time>2026-04-05T14:38:55.981Z</time></trkpt><trkpt lat="37.96516899352044" lon="-4.846722377754659"><ele>455.0</ele><time>2026-04-05T14:38:57.981Z</time></trkpt><trkpt lat="37.96509425193348" lon="-4.846780610075611"><ele>454.99999999999994</ele><time>2026-04-05T14:38:59.981Z</time></trkpt><trkpt lat="37.96502552488231" lon="-4.846833482101351"><ele>455.0</ele><time>2026-04-05T14:39:01.981Z</time></trkpt><trkpt lat="37.96494688856804" lon="-4.846898004968723"><ele>457.99999999999994</ele><time>2026-04-05T14:39:03.981Z</time></trkpt><trkpt lat="37.96484624870433" lon="-4.84700154634173"><ele>461.0</ele><time>2026-04-05T14:39:05.981Z</time></trkpt><trkpt lat="37.96479929477569" lon="-4.847064975836408"><ele>464.0</ele><time>2026-04-05T14:39:06.981Z</time></trkpt><trkpt lat="37.96475444488033" lon="-4.847123775038725"><ele>467.0</ele><time>2026-04-05T14:39:07.981Z</time></trkpt><trkpt lat="37.96469232454043" lon="-4.8471745396092665"><ele>469.99999999999994</ele><time>2026-04-05T14:39:09.981Z</time></trkpt><trkpt lat="37.9647023578345" lon="-4.84708968676292"><ele>473.0</ele><time>2026-04-05T14:39:13.981Z</time></trkpt><trkpt lat="37.964755131423736" lon="-4.847041514021899"><ele>472.99999999999994</ele><time>2026-04-05T14:39:14.981Z</time></trkpt><trkpt lat="37.964845373597164" lon="-4.8469603431735155"><ele>473.0</ele><time>2026-04-05T14:39:15.981Z</time></trkpt><trkpt lat="37.96490467053058" lon="-4.846902874885655"><ele>473.0</ele><time>2026-04-05T14:39:16.981Z</time></trkpt><trkpt lat="37.96495685939097" lon="-4.846850555740902"><ele>473.0</ele><time>2026-04-05T14:39:17.981Z</time></trkpt><trkpt lat="37.96501273596756" lon="-4.84680047965308"><ele>472.99999999999994</ele><time>2026-04-05T14:39:18.981Z</time></trkpt><trkpt lat="37.96511981911152" lon="-4.846723391327932"><ele>473.0</ele><time>2026-04-05T14:39:20.981Z</time></trkpt><trkpt lat="37.96517714656593" lon="-4.84668802732673"><ele>469.99999999999994</ele><time>2026-04-05T14:39:21.981Z</time></trkpt><trkpt lat="37.965281618894345" lon="-4.846644248775272"><ele>467.0</ele><time>2026-04-05T14:39:23.981Z</time></trkpt><trkpt lat="37.96535629636484" lon="-4.846622744373779"><ele>464.0</ele><time>2026-04-05T14:39:25.981Z</time></trkpt><trkpt lat="37.965425120396624" lon="-4.846613966528231"><ele>461.0</ele><time>2026-04-05T14:39:28.981Z</time></trkpt><trkpt lat="37.96549065935685" lon="-4.846602087845892"><ele>457.99999999999994</ele><time>2026-04-05T14:39:32.981Z</time></trkpt><trkpt lat="37.9655826864795" lon="-4.846642355438222"><ele>455.0</ele><time>2026-04-05T14:39:36.982Z</time></trkpt><trkpt lat="37.96564063474608" lon="-4.846681988343204"><ele>455.0</ele><time>2026-04-05T14:39:42.982Z</time></trkpt><trkpt lat="37.96555555600929" lon="-4.846696146694246"><ele>455.0</ele><time>2026-04-05T14:39:51.982Z</time></trkpt><trkpt lat="37.96546878590143" lon="-4.846696712810464"><ele>455.0</ele><time>2026-04-05T14:39:54.982Z</time></trkpt></trkseg><trkseg><trkpt lat="37.96555089332946" lon="-4.846633837979801"><ele>454.99999999999994</ele><time>2026-04-05T15:04:13.984Z</time></trkpt><trkpt lat="37.96562122346552" lon="-4.846661782142165"><ele>455.0</ele><time>2026-04-05T15:04:14.984Z</time></trkpt><trkpt lat="37.96567528886695" lon="-4.8467104121578695"><ele>455.0</ele><time>2026-04-05T15:04:15.984Z</time></trkpt><trkpt lat="37.96573567455654" lon="-4.846836035908565"><ele>455.0</ele><time>2026-04-05T15:04:17.984Z</time></trkpt><trkpt lat="37.96579460378815" lon="-4.846963628916743"><ele>454.99999999999994</ele><time>2026-04-05T15:04:19.984Z</time></trkpt><trkpt lat="37.96583213636077" lon="-4.847043786718874"><ele>455.0</ele><time>2026-04-05T15:04:20.984Z</time></trkpt><trkpt lat="37.9659051860167" lon="-4.847166091530015"><ele>455.8333333333333</ele><time>2026-04-05T15:04:22.985Z</time></trkpt><trkpt lat="37.965977504457165" lon="-4.847198485451462"><ele>456.66666666666663</ele><time>2026-04-05T15:04:23.985Z</time></trkpt><trkpt lat="37.9660504867234" lon="-4.847175527150695"><ele>457.5</ele><time>2026-04-05T15:04:24.985Z</time></trkpt><trkpt lat="37.966139893831134" lon="-4.847116976134833"><ele>458.33333333333337</ele><time>2026-04-05T15:04:25.985Z</time></trkpt><trkpt lat="37.96621604540922" lon="-4.847013683992907"><ele>459.1666666666667</ele><time>2026-04-05T15:04:26.985Z</time></trkpt><trkpt lat="37.966275817099415" lon="-4.8469470881739944"><ele>460.0</ele><time>2026-04-05T15:04:27.985Z</time></trkpt><trkpt lat="37.96639005979759" lon="-4.846921867053113"><ele>459.99999999999994</ele><time>2026-04-05T15:04:29.985Z</time></trkpt><trkpt lat="37.966454580731344" lon="-4.846934747174901"><ele>460.0</ele><time>2026-04-05T15:04:30.985Z</time></trkpt><trkpt lat="37.966520980678965" lon="-4.846948029282298"><ele>459.99999999999994</ele><time>2026-04-05T15:04:31.985Z</time></trkpt><trkpt lat="37.96658413800735" lon="-4.8469923672746855"><ele>459.99999999999994</ele><time>2026-04-05T15:04:32.985Z</time></trkpt><trkpt lat="37.96663324389594" lon="-4.8470431556400335"><ele>460.0</ele><time>2026-04-05T15:04:33.985Z</time></trkpt><trkpt lat="37.96668863718681" lon="-4.847106233171172"><ele>459.99999999999994</ele><time>2026-04-05T15:04:34.985Z</time></trkpt><trkpt lat="37.96672402387432" lon="-4.847186289765018"><ele>459.99999999999994</ele><time>2026-04-05T15:04:35.985Z</time></trkpt><trkpt lat="37.96677869995117" lon="-4.847317214313292"><ele>461.0</ele><time>2026-04-05T15:04:37.985Z</time></trkpt><trkpt lat="37.966865134657496" lon="-4.8474367701174685"><ele>462.0</ele><time>2026-04-05T15:04:39.985Z</time></trkpt><trkpt lat="37.96698770592412" lon="-4.847480306468892"><ele>463.0</ele><time>2026-04-05T15:04:41.985Z</time></trkpt><trkpt lat="37.9670786171638" lon="-4.847443550010822"><ele>464.0</ele><time>2026-04-05T15:04:42.985Z</time></trkpt><trkpt lat="37.96716198404333" lon="-4.847388973981227"><ele>465.0</ele><time>2026-04-05T15:04:43.983Z</time></trkpt><trkpt lat="37.96724873855638" lon="-4.8473142870096915"><ele>465.0</ele><time>2026-04-05T15:04:44.982Z</time></trkpt><trkpt lat="37.96732866526978" lon="-4.84723086880818"><ele>465.0</ele><time>2026-04-05T15:04:45.982Z</time></trkpt><trkpt lat="37.96740586612752" lon="-4.847144705640148"><ele>465.0</ele><time>2026-04-05T15:04:46.982Z</time></trkpt><trkpt lat="37.96747821140291" lon="-4.847070901114071"><ele>465.0</ele><time>2026-04-05T15:04:47.982Z</time></trkpt><trkpt lat="37.967555860277436" lon="-4.846998776400399"><ele>465.0</ele><time>2026-04-05T15:04:48.982Z</time></trkpt><trkpt lat="37.96763065641206" lon="-4.846927457519325"><ele>465.8</ele><time>2026-04-05T15:04:49.982Z</time></trkpt><trkpt lat="37.96771887502304" lon="-4.846868559569426"><ele>466.6</ele><time>2026-04-05T15:04:50.983Z</time></trkpt><trkpt lat="37.96780919300621" lon="-4.846817703949183"><ele>467.4</ele><time>2026-04-05T15:04:51.983Z</time></trkpt><trkpt lat="37.96790046077667" lon="-4.846788776438919"><ele>468.2</ele><time>2026-04-05T15:04:52.982Z</time></trkpt><trkpt lat="37.96798968174605" lon="-4.8467736690589"><ele>469.0</ele><time>2026-04-05T15:04:53.982Z</time></trkpt><trkpt lat="37.96808208518404" lon="-4.84676526196034"><ele>468.7142857142857</ele><time>2026-04-05T15:04:54.982Z</time></trkpt><trkpt lat="37.968164252907535" lon="-4.846752862019432"><ele>468.42857142857144</ele><time>2026-04-05T15:04:55.982Z</time></trkpt><trkpt lat="37.96824508985641" lon="-4.846742898217664"><ele>468.1428571428571</ele><time>2026-04-05T15:04:56.983Z</time></trkpt><trkpt lat="37.9683227293546" lon="-4.846741826354743"><ele>467.85714285714283</ele><time>2026-04-05T15:04:57.983Z</time></trkpt><trkpt lat="37.96839319265014" lon="-4.846757235187625"><ele>467.57142857142856</ele><time>2026-04-05T15:04:58.983Z</time></trkpt><trkpt lat="37.96845303261663" lon="-4.84679004709168"><ele>467.2857142857142</ele><time>2026-04-05T15:04:59.983Z</time></trkpt><trkpt lat="37.96850313434571" lon="-4.846851836738085"><ele>466.99999999999994</ele><time>2026-04-05T15:05:00.983Z</time></trkpt><trkpt lat="37.96854754632677" lon="-4.846910168626728"><ele>465.99999999999994</ele><time>2026-04-05T15:05:01.983Z</time></trkpt><trkpt lat="37.96860065660418" lon="-4.846969763523165"><ele>465.0</ele><time>2026-04-05T15:05:02.983Z</time></trkpt><trkpt lat="37.968645291239795" lon="-4.8470341103306005"><ele>464.0</ele><time>2026-04-05T15:05:03.983Z</time></trkpt><trkpt lat="37.968693032036505" lon="-4.847096019168647"><ele>463.0</ele><time>2026-04-05T15:05:04.983Z</time></trkpt><trkpt lat="37.96879240492175" lon="-4.847138466647659"><ele>461.99999999999994</ele><time>2026-04-05T15:05:06.983Z</time></trkpt><trkpt lat="37.968863236300706" lon="-4.847082536445633"><ele>461.0</ele><time>2026-04-05T15:05:08.983Z</time></trkpt><trkpt lat="37.968815043465405" lon="-4.846941247421148"><ele>460.99999999999994</ele><time>2026-04-05T15:05:10.983Z</time></trkpt><trkpt lat="37.968769199658915" lon="-4.846877192571603"><ele>461.0</ele><time>2026-04-05T15:05:11.983Z</time></trkpt><trkpt lat="37.968714845857825" lon="-4.846808788746858"><ele>461.0</ele><time>2026-04-05T15:05:12.983Z</time></trkpt><trkpt lat="37.968651202391435" lon="-4.846737236222932"><ele>461.0</ele><time>2026-04-05T15:05:13.983Z</time></trkpt><trkpt lat="37.968594483785274" lon="-4.846659286896182"><ele>460.99999999999994</ele><time>2026-04-05T15:05:14.983Z</time></trkpt><trkpt lat="37.96852702615575" lon="-4.846587316187929"><ele>461.0</ele><time>2026-04-05T15:05:15.983Z</time></trkpt><trkpt lat="37.96845312880548" lon="-4.846521451614392"><ele>460.99999999999994</ele><time>2026-04-05T15:05:16.983Z</time></trkpt><trkpt lat="37.96837990374465" lon="-4.846451126445782"><ele>461.0</ele><time>2026-04-05T15:05:17.983Z</time></trkpt><trkpt lat="37.96830831434241" lon="-4.846383670049559"><ele>461.0</ele><time>2026-04-05T15:05:18.983Z</time></trkpt><trkpt lat="37.968246442353696" lon="-4.846316776317209"><ele>461.0</ele><time>2026-04-05T15:05:19.983Z</time></trkpt><trkpt lat="37.968186416655264" lon="-4.84625028244868"><ele>460.99999999999994</ele><time>2026-04-05T15:05:20.983Z</time></trkpt><trkpt lat="37.96812729051123" lon="-4.84618517093944"><ele>461.0</ele><time>2026-04-05T15:05:21.983Z</time></trkpt><trkpt lat="37.96808739523405" lon="-4.84609600348056"><ele>460.99999999999994</ele><time>2026-04-05T15:05:22.983Z</time></trkpt><trkpt lat="37.96806371386675" lon="-4.845997992592582"><ele>461.0</ele><time>2026-04-05T15:05:23.983Z</time></trkpt><trkpt lat="37.96803805468275" lon="-4.845892602128319"><ele>461.0</ele><time>2026-04-05T15:05:24.983Z</time></trkpt><trkpt lat="37.968016621830614" lon="-4.845794177630254"><ele>461.0</ele><time>2026-04-05T15:05:25.983Z</time></trkpt><trkpt lat="37.96798588608993" lon="-4.845697613625922"><ele>460.99999999999994</ele><time>2026-04-05T15:05:26.983Z</time></trkpt><trkpt lat="37.96794842935944" lon="-4.845608571397563"><ele>461.0</ele><time>2026-04-05T15:05:27.983Z</time></trkpt><trkpt lat="37.96791338501942" lon="-4.845519520313475"><ele>461.16666666666663</ele><time>2026-04-05T15:05:28.983Z</time></trkpt><trkpt lat="37.9678673424022" lon="-4.845422099419542"><ele>461.3333333333333</ele><time>2026-04-05T15:05:29.983Z</time></trkpt><trkpt lat="37.96782227659129" lon="-4.845322174229198"><ele>461.5</ele><time>2026-04-05T15:05:30.983Z</time></trkpt><trkpt lat="37.96778401469833" lon="-4.84523163154256"><ele>461.66666666666663</ele><time>2026-04-05T15:05:31.983Z</time></trkpt><trkpt lat="37.96774682736909" lon="-4.845152926092086"><ele>461.8333333333333</ele><time>2026-04-05T15:05:32.983Z</time></trkpt><trkpt lat="37.96770579584657" lon="-4.845074432319798"><ele>462.0</ele><time>2026-04-05T15:05:33.983Z</time></trkpt><trkpt lat="37.96765916065923" lon="-4.845007626670932"><ele>462.40000000000003</ele><time>2026-04-05T15:05:34.983Z</time></trkpt><trkpt lat="37.96760142045018" lon="-4.844893926103224"><ele>462.80000000000007</ele><time>2026-04-05T15:05:36.983Z</time></trkpt><trkpt lat="37.96760353105064" lon="-4.844768391948106"><ele>463.2</ele><time>2026-04-05T15:05:38.983Z</time></trkpt><trkpt lat="37.96762226004196" lon="-4.844645075689125"><ele>463.6</ele><time>2026-04-05T15:05:40.983Z</time></trkpt><trkpt lat="37.96763242272014" lon="-4.844547776883429"><ele>464.0</ele><time>2026-04-05T15:05:42.983Z</time></trkpt><trkpt lat="37.967644026176025" lon="-4.844449199739949"><ele>464.0</ele><time>2026-04-05T15:05:44.983Z</time></trkpt><trkpt lat="37.96766941680578" lon="-4.844336311837124"><ele>464.0</ele><time>2026-04-05T15:05:46.983Z</time></trkpt><trkpt lat="37.967718215252624" lon="-4.844243500225339"><ele>464.0</ele><time>2026-04-05T15:05:48.983Z</time></trkpt><trkpt lat="37.967789978323296" lon="-4.844162017940181"><ele>464.0</ele><time>2026-04-05T15:05:50.983Z</time></trkpt><trkpt lat="37.96787018147364" lon="-4.844078395334919"><ele>464.0</ele><time>2026-04-05T15:05:52.983Z</time></trkpt><trkpt lat="37.967951328410685" lon="-4.843994025496086"><ele>464.25</ele><time>2026-04-05T15:05:54.983Z</time></trkpt><trkpt lat="37.96800957376963" lon="-4.843853527876605"><ele>464.5</ele><time>2026-04-05T15:05:56.983Z</time></trkpt><trkpt lat="37.968104692160374" lon="-4.8437584935046765"><ele>464.75</ele><time>2026-04-05T15:05:58.983Z</time></trkpt><trkpt lat="37.96819453569152" lon="-4.843667522533202"><ele>465.0</ele><time>2026-04-05T15:06:00.983Z</time></trkpt><trkpt lat="37.96829312266899" lon="-4.843589472465446"><ele>464.6666666666667</ele><time>2026-04-05T15:06:02.983Z</time></trkpt><trkpt lat="37.968378120940315" lon="-4.843475435640133"><ele>464.33333333333337</ele><time>2026-04-05T15:06:04.983Z</time></trkpt><trkpt lat="37.96843720785772" lon="-4.843413533331899"><ele>464.0</ele><time>2026-04-05T15:06:05.983Z</time></trkpt><trkpt lat="37.96849461257737" lon="-4.843349339188435"><ele>463.6666666666667</ele><time>2026-04-05T15:06:06.983Z</time></trkpt><trkpt lat="37.96855586913278" lon="-4.843282783355022"><ele>463.33333333333337</ele><time>2026-04-05T15:06:07.983Z</time></trkpt><trkpt lat="37.968624633955095" lon="-4.8432073200269485"><ele>463.0</ele><time>2026-04-05T15:06:08.983Z</time></trkpt><trkpt lat="37.96868985586391" lon="-4.843137914659767"><ele>463.00000000000006</ele><time>2026-04-05T15:06:09.983Z</time></trkpt><trkpt lat="37.96875442139795" lon="-4.843071625659225"><ele>463.0</ele><time>2026-04-05T15:06:10.983Z</time></trkpt><trkpt lat="37.968822948488025" lon="-4.842987796615386"><ele>463.0</ele><time>2026-04-05T15:06:11.983Z</time></trkpt><trkpt lat="37.96891312119191" lon="-4.842955001007181"><ele>463.0</ele><time>2026-04-05T15:06:12.983Z</time></trkpt><trkpt lat="37.96899656156128" lon="-4.842918307471207"><ele>463.00000000000006</ele><time>2026-04-05T15:06:13.983Z</time></trkpt><trkpt lat="37.96907274332811" lon="-4.84289056997561"><ele>463.0</ele><time>2026-04-05T15:06:14.983Z</time></trkpt><trkpt lat="37.96913651103634" lon="-4.842839654231919"><ele>463.59999999999997</ele><time>2026-04-05T15:06:15.983Z</time></trkpt><trkpt lat="37.9692367354375" lon="-4.842767166513253"><ele>464.19999999999993</ele><time>2026-04-05T15:06:17.983Z</time></trkpt><trkpt lat="37.96929680094131" lon="-4.84267734876193"><ele>464.8</ele><time>2026-04-05T15:06:19.983Z</time></trkpt><trkpt lat="37.969366703445345" lon="-4.842574506439303"><ele>465.4</ele><time>2026-04-05T15:06:21.983Z</time></trkpt><trkpt lat="37.969376614578124" lon="-4.842424289015325"><ele>466.0</ele><time>2026-04-05T15:06:23.984Z</time></trkpt><trkpt lat="37.96938554887166" lon="-4.842338847995563"><ele>465.4</ele><time>2026-04-05T15:06:24.984Z</time></trkpt><trkpt lat="37.96939100513612" lon="-4.84224344910044"><ele>464.8</ele><time>2026-04-05T15:06:25.984Z</time></trkpt><trkpt lat="37.96938794693449" lon="-4.842155724178997"><ele>464.19999999999993</ele><time>2026-04-05T15:06:26.984Z</time></trkpt><trkpt lat="37.96937934109154" lon="-4.841981341432976"><ele>463.59999999999997</ele><time>2026-04-05T15:06:28.984Z</time></trkpt><trkpt lat="37.96934325878927" lon="-4.841840881001233"><ele>463.0</ele><time>2026-04-05T15:06:30.984Z</time></trkpt><trkpt lat="37.96930834776468" lon="-4.841724476584878"><ele>463.0</ele><time>2026-04-05T15:06:32.984Z</time></trkpt><trkpt lat="37.969249375716664" lon="-4.841576540909057"><ele>462.99999999999994</ele><time>2026-04-05T15:06:34.984Z</time></trkpt><trkpt lat="37.969203204495756" lon="-4.841481196390865"><ele>462.99999999999994</ele><time>2026-04-05T15:06:35.984Z</time></trkpt><trkpt lat="37.96915002008247" lon="-4.841385069625451"><ele>463.0</ele><time>2026-04-05T15:06:36.984Z</time></trkpt><trkpt lat="37.96908797811632" lon="-4.841297031471119"><ele>463.0</ele><time>2026-04-05T15:06:37.984Z</time></trkpt><trkpt lat="37.9690152369758" lon="-4.841217211984085"><ele>462.6666666666667</ele><time>2026-04-05T15:06:38.984Z</time></trkpt><trkpt lat="37.96894209619973" lon="-4.84114528925924"><ele>462.33333333333337</ele><time>2026-04-05T15:06:39.984Z</time></trkpt><trkpt lat="37.968868850773156" lon="-4.8410720050077"><ele>462.0</ele><time>2026-04-05T15:06:40.984Z</time></trkpt><trkpt lat="37.96880261890502" lon="-4.8410127782288965"><ele>461.66666666666663</ele><time>2026-04-05T15:06:41.984Z</time></trkpt><trkpt lat="37.96874329603583" lon="-4.840958278225876"><ele>461.3333333333333</ele><time>2026-04-05T15:06:42.984Z</time></trkpt><trkpt lat="37.96868674813089" lon="-4.840906526289908"><ele>461.0</ele><time>2026-04-05T15:06:43.984Z</time></trkpt><trkpt lat="37.96858143011908" lon="-4.840805817855028"><ele>461.66666666666663</ele><time>2026-04-05T15:06:45.984Z</time></trkpt><trkpt lat="37.96852218667366" lon="-4.840753915247007"><ele>462.3333333333333</ele><time>2026-04-05T15:06:46.984Z</time></trkpt><trkpt lat="37.96846248534375" lon="-4.840697031572198"><ele>463.0</ele><time>2026-04-05T15:06:47.984Z</time></trkpt><trkpt lat="37.96840035714754" lon="-4.840640814231234"><ele>463.66666666666663</ele><time>2026-04-05T15:06:48.984Z</time></trkpt><trkpt lat="37.968343554700276" lon="-4.84057922785777"><ele>464.3333333333333</ele><time>2026-04-05T15:06:49.98Z</time></trkpt><trkpt lat="37.96828367183103" lon="-4.840510829187163"><ele>465.0</ele><time>2026-04-05T15:06:50.98Z</time></trkpt><trkpt lat="37.968229620781074" lon="-4.840439035681728"><ele>463.8333333333333</ele><time>2026-04-05T15:06:51.98Z</time></trkpt><trkpt lat="37.968161141983636" lon="-4.840379874313231"><ele>462.66666666666663</ele><time>2026-04-05T15:06:52.98Z</time></trkpt><trkpt lat="37.96810456855025" lon="-4.840311531946298"><ele>461.5</ele><time>2026-04-05T15:06:53.98Z</time></trkpt><trkpt lat="37.96805846250252" lon="-4.840242785212609"><ele>460.3333333333333</ele><time>2026-04-05T15:06:54.98Z</time></trkpt><trkpt lat="37.968014535063496" lon="-4.8401748736216765"><ele>459.16666666666663</ele><time>2026-04-05T15:06:55.98Z</time></trkpt><trkpt lat="37.967983476583186" lon="-4.840074873025792"><ele>458.0</ele><time>2026-04-05T15:06:56.98Z</time></trkpt><trkpt lat="37.96800312546644" lon="-4.839972595643288"><ele>457.99999999999994</ele><time>2026-04-05T15:06:57.98Z</time></trkpt><trkpt lat="37.96804847711667" lon="-4.839905156620099"><ele>458.0</ele><time>2026-04-05T15:06:58.98Z</time></trkpt><trkpt lat="37.968138606011024" lon="-4.839787786340998"><ele>458.0</ele><time>2026-04-05T15:07:00.98Z</time></trkpt><trkpt lat="37.96819011729249" lon="-4.83972510200935"><ele>458.0</ele><time>2026-04-05T15:07:01.98Z</time></trkpt><trkpt lat="37.96825690745946" lon="-4.83967165710137"><ele>457.99999999999994</ele><time>2026-04-05T15:07:02.98Z</time></trkpt><trkpt lat="37.96830954842507" lon="-4.839589683478472"><ele>458.0</ele><time>2026-04-05T15:07:03.98Z</time></trkpt><trkpt lat="37.96837118301277" lon="-4.839521493158269"><ele>457.99999999999994</ele><time>2026-04-05T15:07:04.98Z</time></trkpt><trkpt lat="37.96843193385767" lon="-4.839455025475015"><ele>458.0</ele><time>2026-04-05T15:07:05.98Z</time></trkpt><trkpt lat="37.9684897506996" lon="-4.839387311774575"><ele>458.0</ele><time>2026-04-05T15:07:06.98Z</time></trkpt><trkpt lat="37.968553899494644" lon="-4.839310753971861"><ele>458.0</ele><time>2026-04-05T15:07:07.98Z</time></trkpt><trkpt lat="37.96862202023818" lon="-4.839248897951415"><ele>457.99999999999994</ele><time>2026-04-05T15:07:08.98Z</time></trkpt><trkpt lat="37.96868841747949" lon="-4.839188649836741"><ele>458.0</ele><time>2026-04-05T15:07:09.98Z</time></trkpt><trkpt lat="37.96874951282967" lon="-4.839128001408969"><ele>457.99999999999994</ele><time>2026-04-05T15:07:10.98Z</time></trkpt><trkpt lat="37.968814995718674" lon="-4.839084472196441"><ele>458.0</ele><time>2026-04-05T15:07:11.98Z</time></trkpt><trkpt lat="37.96888563905369" lon="-4.839034654158669"><ele>458.0</ele><time>2026-04-05T15:07:12.98Z</time></trkpt><trkpt lat="37.96895884040562" lon="-4.8389844257567525"><ele>458.0</ele><time>2026-04-05T15:07:13.98Z</time></trkpt><trkpt lat="37.96903440313007" lon="-4.838951334549096"><ele>457.99999999999994</ele><time>2026-04-05T15:07:14.98Z</time></trkpt><trkpt lat="37.96911081675596" lon="-4.83889973915494"><ele>458.0</ele><time>2026-04-05T15:07:15.98Z</time></trkpt><trkpt lat="37.96917096094371" lon="-4.838848156015609"><ele>458.2</ele><time>2026-04-05T15:07:16.98Z</time></trkpt><trkpt lat="37.96921928932587" lon="-4.838762574771379"><ele>458.4</ele><time>2026-04-05T15:07:17.98Z</time></trkpt><trkpt lat="37.96923859518779" lon="-4.8386147505618"><ele>458.59999999999997</ele><time>2026-04-05T15:07:19.98Z</time></trkpt><trkpt lat="37.969254315597055" lon="-4.838491268386898"><ele>458.79999999999995</ele><time>2026-04-05T15:07:20.98Z</time></trkpt><trkpt lat="37.96927875236291" lon="-4.838378561313919"><ele>459.0</ele><time>2026-04-05T15:07:21.98Z</time></trkpt><trkpt lat="37.96930612059596" lon="-4.838275831072733"><ele>459.3333333333333</ele><time>2026-04-05T15:07:22.98Z</time></trkpt><trkpt lat="37.969346613862434" lon="-4.838174940877042"><ele>459.66666666666663</ele><time>2026-04-05T15:07:23.98Z</time></trkpt><trkpt lat="37.96940833707264" lon="-4.838096224031089"><ele>460.0</ele><time>2026-04-05T15:07:24.98Z</time></trkpt><trkpt lat="37.96945094687676" lon="-4.838009373361099"><ele>460.3333333333333</ele><time>2026-04-05T15:07:25.98Z</time></trkpt><trkpt lat="37.96949129375204" lon="-4.8379371576312"><ele>460.66666666666663</ele><time>2026-04-05T15:07:26.98Z</time></trkpt><trkpt lat="37.96950871549808" lon="-4.837840666098935"><ele>461.0</ele><time>2026-04-05T15:07:27.98Z</time></trkpt><trkpt lat="37.96953513802104" lon="-4.8377503331490725"><ele>460.99999999999994</ele><time>2026-04-05T15:07:28.98Z</time></trkpt><trkpt lat="37.96953396590449" lon="-4.837669202950665"><ele>461.0</ele><time>2026-04-05T15:07:29.98Z</time></trkpt><trkpt lat="37.96948859123818" lon="-4.837523069953779"><ele>461.0</ele><time>2026-04-05T15:07:31.98Z</time></trkpt><trkpt lat="37.96943106196871" lon="-4.837463310933899"><ele>461.0</ele><time>2026-04-05T15:07:32.98Z</time></trkpt><trkpt lat="37.96935893242998" lon="-4.83744809237635"><ele>460.99999999999994</ele><time>2026-04-05T15:07:33.98Z</time></trkpt><trkpt lat="37.969270357910055" lon="-4.83742229463489"><ele>461.0</ele><time>2026-04-05T15:07:34.981Z</time></trkpt><trkpt lat="37.969165006150874" lon="-4.837398038863764"><ele>459.75</ele><time>2026-04-05T15:07:35.981Z</time></trkpt><trkpt lat="37.969065671482596" lon="-4.837321389954564"><ele>458.5</ele><time>2026-04-05T15:07:36.981Z</time></trkpt><trkpt lat="37.968950050477204" lon="-4.837301577668583"><ele>457.25</ele><time>2026-04-05T15:07:37.981Z</time></trkpt><trkpt lat="37.96884109910587" lon="-4.83728027867214"><ele>456.0</ele><time>2026-04-05T15:07:38.981Z</time></trkpt><trkpt lat="37.96873493965247" lon="-4.837265717646992"><ele>456.0</ele><time>2026-04-05T15:07:39.981Z</time></trkpt><trkpt lat="37.96864415121083" lon="-4.837253116690551"><ele>456.0</ele><time>2026-04-05T15:07:40.981Z</time></trkpt><trkpt lat="37.968544661652096" lon="-4.837225052877544"><ele>456.0</ele><time>2026-04-05T15:07:41.981Z</time></trkpt><trkpt lat="37.96845435733674" lon="-4.837196846672055"><ele>456.0</ele><time>2026-04-05T15:07:42.981Z</time></trkpt><trkpt lat="37.96834953955108" lon="-4.837156800686004"><ele>456.0</ele><time>2026-04-05T15:07:43.981Z</time></trkpt><trkpt lat="37.968243184066566" lon="-4.837115037871509"><ele>456.0</ele><time>2026-04-05T15:07:44.981Z</time></trkpt><trkpt lat="37.96814006781302" lon="-4.837076244195648"><ele>456.0</ele><time>2026-04-05T15:07:45.981Z</time></trkpt><trkpt lat="37.968037594549244" lon="-4.837031854073647"><ele>456.0</ele><time>2026-04-05T15:07:46.981Z</time></trkpt><trkpt lat="37.96793425381514" lon="-4.836988136817769"><ele>456.0</ele><time>2026-04-05T15:07:47.981Z</time></trkpt><trkpt lat="37.967835717815106" lon="-4.836947387958119"><ele>456.0</ele><time>2026-04-05T15:07:48.981Z</time></trkpt><trkpt lat="37.967740870907" lon="-4.836905771036887"><ele>456.0</ele><time>2026-04-05T15:07:49.981Z</time></trkpt><trkpt lat="37.96764575675344" lon="-4.836861423165636"><ele>456.0</ele><time>2026-04-05T15:07:50.981Z</time></trkpt><trkpt lat="37.96753839279097" lon="-4.836835057497404"><ele>456.0</ele><time>2026-04-05T15:07:51.981Z</time></trkpt><trkpt lat="37.96744149297238" lon="-4.836803835006144"><ele>456.0</ele><time>2026-04-05T15:07:52.981Z</time></trkpt><trkpt lat="37.96734082940836" lon="-4.836765868840791"><ele>456.0</ele><time>2026-04-05T15:07:53.981Z</time></trkpt><trkpt lat="37.967222025376905" lon="-4.83671721632145"><ele>457.25</ele><time>2026-04-05T15:07:54.981Z</time></trkpt><trkpt lat="37.96711294883953" lon="-4.836656785108317"><ele>458.5</ele><time>2026-04-05T15:07:55.981Z</time></trkpt><trkpt lat="37.96699967583691" lon="-4.836607953243872"><ele>459.75</ele><time>2026-04-05T15:07:56.981Z</time></trkpt><trkpt lat="37.966894366569605" lon="-4.836536903612654"><ele>461.0</ele><time>2026-04-05T15:07:57.981Z</time></trkpt><trkpt lat="37.96679504170275" lon="-4.836465753182092"><ele>461.0</ele><time>2026-04-05T15:07:58.981Z</time></trkpt><trkpt lat="37.96669765207307" lon="-4.836389496274803"><ele>461.0</ele><time>2026-04-05T15:07:59.981Z</time></trkpt><trkpt lat="37.966596250625" lon="-4.836300669638787"><ele>461.0</ele><time>2026-04-05T15:08:00.981Z</time></trkpt><trkpt lat="37.96648549036463" lon="-4.83620736373185"><ele>461.0</ele><time>2026-04-05T15:08:01.981Z</time></trkpt><trkpt lat="37.96638035920393" lon="-4.836118354940793"><ele>461.5</ele><time>2026-04-05T15:08:02.981Z</time></trkpt><trkpt lat="37.96628041563268" lon="-4.836044170180496"><ele>462.0</ele><time>2026-04-05T15:08:03.981Z</time></trkpt><trkpt lat="37.966183220414514" lon="-4.835973125316289"><ele>462.5</ele><time>2026-04-05T15:08:04.981Z</time></trkpt><trkpt lat="37.96606606673209" lon="-4.835962993442325"><ele>463.0</ele><time>2026-04-05T15:08:05.981Z</time></trkpt><trkpt lat="37.96594731528778" lon="-4.835955687768116"><ele>463.75</ele><time>2026-04-05T15:08:06.981Z</time></trkpt><trkpt lat="37.965822495746515" lon="-4.8359360505554365"><ele>464.5</ele><time>2026-04-05T15:08:07.981Z</time></trkpt><trkpt lat="37.96571762879117" lon="-4.835944602801063"><ele>465.25</ele><time>2026-04-05T15:08:08.981Z</time></trkpt><trkpt lat="37.96560683616461" lon="-4.83593750990595"><ele>466.0</ele><time>2026-04-05T15:08:09.981Z</time></trkpt><trkpt lat="37.96549684159056" lon="-4.83593709743304"><ele>466.0</ele><time>2026-04-05T15:08:10.981Z</time></trkpt><trkpt lat="37.965389340691466" lon="-4.835943500871277"><ele>466.0</ele><time>2026-04-05T15:08:11.981Z</time></trkpt><trkpt lat="37.965290355236625" lon="-4.835943533486882"><ele>466.0</ele><time>2026-04-05T15:08:12.981Z</time></trkpt><trkpt lat="37.965191536928565" lon="-4.835959576630703"><ele>466.0</ele><time>2026-04-05T15:08:13.981Z</time></trkpt><trkpt lat="37.96510676496757" lon="-4.835981750067366"><ele>466.0</ele><time>2026-04-05T15:08:14.981Z</time></trkpt><trkpt lat="37.96500886633982" lon="-4.836025562394894"><ele>465.8</ele><time>2026-04-05T15:08:15.981Z</time></trkpt><trkpt lat="37.964915779837966" lon="-4.8360970559607726"><ele>465.6</ele><time>2026-04-05T15:08:16.981Z</time></trkpt><trkpt lat="37.964821508459025" lon="-4.836171797653579"><ele>465.4</ele><time>2026-04-05T15:08:17.981Z</time></trkpt><trkpt lat="37.964748974618196" lon="-4.836240901451171"><ele>465.2</ele><time>2026-04-05T15:08:18.981Z</time></trkpt><trkpt lat="37.96468197431369" lon="-4.836299313348868"><ele>465.0</ele><time>2026-04-05T15:08:19.981Z</time></trkpt><trkpt lat="37.964630207164454" lon="-4.836347784567784"><ele>465.0</ele><time>2026-04-05T15:08:20.981Z</time></trkpt><trkpt lat="37.96453977170921" lon="-4.8364270861373635"><ele>465.0</ele><time>2026-04-05T15:08:22.981Z</time></trkpt><trkpt lat="37.96449318854198" lon="-4.836481456787093"><ele>465.0</ele><time>2026-04-05T15:08:24.981Z</time></trkpt><trkpt lat="37.96435374429016" lon="-4.836368656998789"><ele>465.0</ele><time>2026-04-05T15:08:27.981Z</time></trkpt><trkpt lat="37.96431136294106" lon="-4.836286372984388"><ele>465.0</ele><time>2026-04-05T15:08:28.981Z</time></trkpt><trkpt lat="37.96428085825781" lon="-4.836198567480199"><ele>465.0</ele><time>2026-04-05T15:08:29.981Z</time></trkpt><trkpt lat="37.96424729479468" lon="-4.8360998155190575"><ele>465.0</ele><time>2026-04-05T15:08:30.981Z</time></trkpt><trkpt lat="37.96421520734585" lon="-4.8359839792234744"><ele>465.0</ele><time>2026-04-05T15:08:31.981Z</time></trkpt><trkpt lat="37.964165671590884" lon="-4.835862946321514"><ele>465.0</ele><time>2026-04-05T15:08:32.981Z</time></trkpt><trkpt lat="37.96412528698925" lon="-4.835738621146136"><ele>465.0</ele><time>2026-04-05T15:08:33.981Z</time></trkpt><trkpt lat="37.964078980717495" lon="-4.8356022222948685"><ele>464.4</ele><time>2026-04-05T15:08:34.981Z</time></trkpt><trkpt lat="37.9640354741071" lon="-4.835471084120434"><ele>463.8</ele><time>2026-04-05T15:08:35.981Z</time></trkpt><trkpt lat="37.96399477396595" lon="-4.8353446617177855"><ele>463.20000000000005</ele><time>2026-04-05T15:08:36.981Z</time></trkpt><trkpt lat="37.96395598599843" lon="-4.835217638228591"><ele>462.6</ele><time>2026-04-05T15:08:37.981Z</time></trkpt><trkpt lat="37.96391359650324" lon="-4.835087227839004"><ele>462.0</ele><time>2026-04-05T15:08:38.981Z</time></trkpt><trkpt lat="37.96387669721767" lon="-4.834953896666349"><ele>462.0</ele><time>2026-04-05T15:08:39.981Z</time></trkpt><trkpt lat="37.96383921076062" lon="-4.834817262158649"><ele>462.00000000000006</ele><time>2026-04-05T15:08:40.981Z</time></trkpt><trkpt lat="37.96380748940506" lon="-4.834681744834161"><ele>462.00000000000006</ele><time>2026-04-05T15:08:41.981Z</time></trkpt><trkpt lat="37.963772140672184" lon="-4.834557147554781"><ele>462.0</ele><time>2026-04-05T15:08:42.981Z</time></trkpt><trkpt lat="37.963733496232436" lon="-4.834438428207359"><ele>462.0</ele><time>2026-04-05T15:08:43.981Z</time></trkpt><trkpt lat="37.96370118529225" lon="-4.83429922754287"><ele>464.25</ele><time>2026-04-05T15:08:44.981Z</time></trkpt><trkpt lat="37.96366925540991" lon="-4.83416292108224"><ele>466.5</ele><time>2026-04-05T15:08:45.981Z</time></trkpt><trkpt lat="37.96362277391509" lon="-4.834024343807676"><ele>468.75</ele><time>2026-04-05T15:08:46.981Z</time></trkpt><trkpt lat="37.96354966670054" lon="-4.833898407467383"><ele>471.0</ele><time>2026-04-05T15:08:47.981Z</time></trkpt><trkpt lat="37.96347904814009" lon="-4.833759870866736"><ele>471.0</ele><time>2026-04-05T15:08:48.981Z</time></trkpt><trkpt lat="37.96340985473323" lon="-4.833623961781894"><ele>471.0</ele><time>2026-04-05T15:08:49.981Z</time></trkpt><trkpt lat="37.96334590983088" lon="-4.833484206461915"><ele>471.0</ele><time>2026-04-05T15:08:50.981Z</time></trkpt><trkpt lat="37.96326677580163" lon="-4.8333538118101655"><ele>471.0</ele><time>2026-04-05T15:08:51.981Z</time></trkpt><trkpt lat="37.9631882783417" lon="-4.833221779166856"><ele>470.0</ele><time>2026-04-05T15:08:52.981Z</time></trkpt><trkpt lat="37.96311945695236" lon="-4.833086718603241"><ele>469.0</ele><time>2026-04-05T15:08:53.981Z</time></trkpt><trkpt lat="37.96302738673954" lon="-4.832959869603991"><ele>468.0</ele><time>2026-04-05T15:08:54.981Z</time></trkpt><trkpt lat="37.96291124419223" lon="-4.8328709150408"><ele>467.0</ele><time>2026-04-05T15:08:55.977Z</time></trkpt><trkpt lat="37.96277314143215" lon="-4.832800023951015"><ele>467.0</ele><time>2026-04-05T15:08:56.978Z</time></trkpt><trkpt lat="37.962619096164445" lon="-4.832734288862352"><ele>467.0</ele><time>2026-04-05T15:08:57.978Z</time></trkpt><trkpt lat="37.962462115973075" lon="-4.8326880028444785"><ele>467.0</ele><time>2026-04-05T15:08:58.977Z</time></trkpt><trkpt lat="37.96231129131855" lon="-4.832624663081539"><ele>467.3333333333333</ele><time>2026-04-05T15:08:59.977Z</time></trkpt><trkpt lat="37.9621596268211" lon="-4.832556282443472"><ele>467.66666666666663</ele><time>2026-04-05T15:09:00.977Z</time></trkpt><trkpt lat="37.96200501384751" lon="-4.832495948525559"><ele>468.0</ele><time>2026-04-05T15:09:01.978Z</time></trkpt><trkpt lat="37.96185058214822" lon="-4.832437571686578"><ele>468.0</ele><time>2026-04-05T15:09:02.978Z</time></trkpt><trkpt lat="37.96170095592694" lon="-4.832381687070324"><ele>468.0</ele><time>2026-04-05T15:09:03.978Z</time></trkpt><trkpt lat="37.96154583636681" lon="-4.832315327051688"><ele>468.0</ele><time>2026-04-05T15:09:04.978Z</time></trkpt><trkpt lat="37.96139970802576" lon="-4.832246118751213"><ele>469.0</ele><time>2026-04-05T15:09:05.978Z</time></trkpt><trkpt lat="37.9612599344233" lon="-4.832178538742452"><ele>470.0</ele><time>2026-04-05T15:09:06.978Z</time></trkpt><trkpt lat="37.9611090431024" lon="-4.832150826601138"><ele>471.0</ele><time>2026-04-05T15:09:07.978Z</time></trkpt><trkpt lat="37.96094264756908" lon="-4.832143807731863"><ele>472.66666666666663</ele><time>2026-04-05T15:09:08.978Z</time></trkpt><trkpt lat="37.96077283147179" lon="-4.832141068261924"><ele>474.3333333333333</ele><time>2026-04-05T15:09:09.978Z</time></trkpt><trkpt lat="37.96060483261543" lon="-4.832139495350871"><ele>476.0</ele><time>2026-04-05T15:09:10.978Z</time></trkpt><trkpt lat="37.96043177984466" lon="-4.832147828751814"><ele>476.0</ele><time>2026-04-05T15:09:11.978Z</time></trkpt><trkpt lat="37.9602713305678" lon="-4.832163502175941"><ele>476.0</ele><time>2026-04-05T15:09:12.978Z</time></trkpt><trkpt lat="37.96012021178676" lon="-4.832192425083064"><ele>476.0</ele><time>2026-04-05T15:09:13.978Z</time></trkpt><trkpt lat="37.95997751089643" lon="-4.832237993687"><ele>478.0</ele><time>2026-04-05T15:09:14.978Z</time></trkpt><trkpt lat="37.95984172034369" lon="-4.832302635208813"><ele>480.0</ele><time>2026-04-05T15:09:15.978Z</time></trkpt><trkpt lat="37.95969612983505" lon="-4.832348398485399"><ele>482.0</ele><time>2026-04-05T15:09:16.978Z</time></trkpt><trkpt lat="37.959545291080985" lon="-4.832351394803912"><ele>484.0</ele><time>2026-04-05T15:09:17.978Z</time></trkpt><trkpt lat="37.95937576104022" lon="-4.832330247912668"><ele>483.6666666666667</ele><time>2026-04-05T15:09:18.978Z</time></trkpt><trkpt lat="37.9591915685522" lon="-4.832282787289381"><ele>483.33333333333337</ele><time>2026-04-05T15:09:19.978Z</time></trkpt><trkpt lat="37.959006128357935" lon="-4.832245008037046"><ele>483.0</ele><time>2026-04-05T15:09:20.978Z</time></trkpt><trkpt lat="37.95883012321392" lon="-4.83221067219335"><ele>483.0</ele><time>2026-04-05T15:09:21.978Z</time></trkpt><trkpt lat="37.958633688283754" lon="-4.8321832785990075"><ele>483.0</ele><time>2026-04-05T15:09:22.978Z</time></trkpt><trkpt lat="37.95843950780196" lon="-4.832145549817253"><ele>483.0</ele><time>2026-04-05T15:09:23.978Z</time></trkpt><trkpt lat="37.958264531140934" lon="-4.832112058613433"><ele>483.33333333333337</ele><time>2026-04-05T15:09:24.978Z</time></trkpt><trkpt lat="37.95809166812522" lon="-4.832081358439731"><ele>483.6666666666667</ele><time>2026-04-05T15:09:25.978Z</time></trkpt><trkpt lat="37.95792130119749" lon="-4.832052974061436"><ele>484.0</ele><time>2026-04-05T15:09:26.978Z</time></trkpt><trkpt lat="37.95774396435323" lon="-4.832037828479738"><ele>484.0</ele><time>2026-04-05T15:09:27.978Z</time></trkpt><trkpt lat="37.95756832987466" lon="-4.832019470899665"><ele>484.0</ele><time>2026-04-05T15:09:28.978Z</time></trkpt><trkpt lat="37.95738807941438" lon="-4.8319839308133865"><ele>484.0</ele><time>2026-04-05T15:09:29.978Z</time></trkpt><trkpt lat="37.9572235923511" lon="-4.831906941603741"><ele>483.33333333333337</ele><time>2026-04-05T15:09:30.978Z</time></trkpt><trkpt lat="37.95707974612495" lon="-4.831796406960686"><ele>482.66666666666663</ele><time>2026-04-05T15:09:31.978Z</time></trkpt><trkpt lat="37.95693987988008" lon="-4.8316734413988165"><ele>482.0</ele><time>2026-04-05T15:09:32.978Z</time></trkpt><trkpt lat="37.95681058272272" lon="-4.831586599564083"><ele>485.0</ele><time>2026-04-05T15:09:33.978Z</time></trkpt><trkpt lat="37.95666644043315" lon="-4.831548903971613"><ele>488.0</ele><time>2026-04-05T15:09:34.978Z</time></trkpt><trkpt lat="37.956511051163496" lon="-4.831536120695065"><ele>491.0</ele><time>2026-04-05T15:09:35.978Z</time></trkpt><trkpt lat="37.9563279373678" lon="-4.8315374419097665"><ele>491.0</ele><time>2026-04-05T15:09:36.978Z</time></trkpt><trkpt lat="37.956133665747906" lon="-4.831539018623597"><ele>491.0</ele><time>2026-04-05T15:09:37.978Z</time></trkpt><trkpt lat="37.955959081738634" lon="-4.831513289973817"><ele>491.0</ele><time>2026-04-05T15:09:38.978Z</time></trkpt><trkpt lat="37.9557863083896" lon="-4.83150646467412"><ele>491.75</ele><time>2026-04-05T15:09:39.978Z</time></trkpt><trkpt lat="37.95562933673938" lon="-4.8314955713696"><ele>492.5</ele><time>2026-04-05T15:09:40.978Z</time></trkpt><trkpt lat="37.95548206173613" lon="-4.831508300897699"><ele>493.25</ele><time>2026-04-05T15:09:41.978Z</time></trkpt><trkpt lat="37.95534540435703" lon="-4.831553566973634"><ele>494.0</ele><time>2026-04-05T15:09:42.978Z</time></trkpt><trkpt lat="37.955231641926524" lon="-4.831609874999577"><ele>494.0</ele><time>2026-04-05T15:09:43.978Z</time></trkpt><trkpt lat="37.95511532890956" lon="-4.8316156892833"><ele>494.0</ele><time>2026-04-05T15:09:44.978Z</time></trkpt><trkpt lat="37.95500981514619" lon="-4.831568653334907"><ele>494.0</ele><time>2026-04-05T15:09:45.978Z</time></trkpt><trkpt lat="37.95489315305279" lon="-4.831504289789333"><ele>494.0</ele><time>2026-04-05T15:09:46.978Z</time></trkpt><trkpt lat="37.95476645987461" lon="-4.831452003902201"><ele>493.5</ele><time>2026-04-05T15:09:47.978Z</time></trkpt><trkpt lat="37.954632014124456" lon="-4.831452862791294"><ele>493.0</ele><time>2026-04-05T15:09:48.978Z</time></trkpt><trkpt lat="37.95449471204115" lon="-4.831488081061024"><ele>492.5</ele><time>2026-04-05T15:09:49.979Z</time></trkpt><trkpt lat="37.9543593341948" lon="-4.8314948019958965"><ele>492.0</ele><time>2026-04-05T15:09:50.979Z</time></trkpt><trkpt lat="37.954243211805846" lon="-4.8314592149881745"><ele>493.75</ele><time>2026-04-05T15:09:51.979Z</time></trkpt><trkpt lat="37.95413948467065" lon="-4.831370346982981"><ele>495.5</ele><time>2026-04-05T15:09:52.979Z</time></trkpt><trkpt lat="37.95401770612622" lon="-4.8312496964315175"><ele>497.25</ele><time>2026-04-05T15:09:53.979Z</time></trkpt><trkpt lat="37.95390238672788" lon="-4.83117611987632"><ele>499.0</ele><time>2026-04-05T15:09:54.979Z</time></trkpt><trkpt lat="37.95378629007127" lon="-4.831143465116278"><ele>499.0</ele><time>2026-04-05T15:09:55.979Z</time></trkpt><trkpt lat="37.95367210158016" lon="-4.8311302520120005"><ele>499.0</ele><time>2026-04-05T15:09:56.979Z</time></trkpt><trkpt lat="37.95355956542383" lon="-4.83110661454037"><ele>499.0</ele><time>2026-04-05T15:09:57.979Z</time></trkpt><trkpt lat="37.95347787506084" lon="-4.831007160962055"><ele>499.0</ele><time>2026-04-05T15:09:58.979Z</time></trkpt><trkpt lat="37.95345516193606" lon="-4.83085932833327"><ele>504.0</ele><time>2026-04-05T15:09:59.979Z</time></trkpt><trkpt lat="37.953536223347236" lon="-4.830243510753545"><ele>505.25</ele><time>2026-04-05T15:10:03.979Z</time></trkpt><trkpt lat="37.953555730637106" lon="-4.830090100774622"><ele>506.5</ele><time>2026-04-05T15:10:04.979Z</time></trkpt><trkpt lat="37.95350962773014" lon="-4.829945074938751"><ele>507.75</ele><time>2026-04-05T15:10:05.979Z</time></trkpt><trkpt lat="37.95342915005061" lon="-4.829812499405939"><ele>509.0</ele><time>2026-04-05T15:10:06.979Z</time></trkpt><trkpt lat="37.95333673352085" lon="-4.829669458953803"><ele>509.0</ele><time>2026-04-05T15:10:07.979Z</time></trkpt><trkpt lat="37.95323950894736" lon="-4.829525762940984"><ele>509.0</ele><time>2026-04-05T15:10:08.979Z</time></trkpt><trkpt lat="37.953149131396586" lon="-4.82937499730473"><ele>509.0</ele><time>2026-04-05T15:10:09.979Z</time></trkpt><trkpt lat="37.95307471852163" lon="-4.829232824091444"><ele>509.0</ele><time>2026-04-05T15:10:10.979Z</time></trkpt><trkpt lat="37.95299208553113" lon="-4.829108121831967"><ele>508.75</ele><time>2026-04-05T15:10:11.979Z</time></trkpt><trkpt lat="37.95290128357415" lon="-4.829013936952223"><ele>508.5</ele><time>2026-04-05T15:10:12.979Z</time></trkpt><trkpt lat="37.952787905360594" lon="-4.828961648712944"><ele>508.25</ele><time>2026-04-05T15:10:13.979Z</time></trkpt><trkpt lat="37.95267010118699" lon="-4.828924285778511"><ele>508.0</ele><time>2026-04-05T15:10:14.979Z</time></trkpt><trkpt lat="37.952551299622414" lon="-4.8288955763416155"><ele>508.4</ele><time>2026-04-05T15:10:15.979Z</time></trkpt><trkpt lat="37.95244704576335" lon="-4.8288587927752005"><ele>508.79999999999995</ele><time>2026-04-05T15:10:16.979Z</time></trkpt><trkpt lat="37.95236394232122" lon="-4.8287881572903215"><ele>509.2</ele><time>2026-04-05T15:10:17.979Z</time></trkpt><trkpt lat="37.95232172551219" lon="-4.828688206362365"><ele>509.6</ele><time>2026-04-05T15:10:18.979Z</time></trkpt><trkpt lat="37.9523209838734" lon="-4.828560489097232"><ele>510.0</ele><time>2026-04-05T15:10:19.979Z</time></trkpt><trkpt lat="37.95230691824837" lon="-4.8284220458072875"><ele>510.0</ele><time>2026-04-05T15:10:20.979Z</time></trkpt><trkpt lat="37.952295470168536" lon="-4.828294045785965"><ele>510.0</ele><time>2026-04-05T15:10:21.979Z</time></trkpt><trkpt lat="37.95222927891934" lon="-4.828197010251674"><ele>510.0</ele><time>2026-04-05T15:10:22.979Z</time></trkpt><trkpt lat="37.952131609654906" lon="-4.828119917332897"><ele>510.0</ele><time>2026-04-05T15:10:23.979Z</time></trkpt><trkpt lat="37.9520082901329" lon="-4.828065469553781"><ele>510.0</ele><time>2026-04-05T15:10:24.979Z</time></trkpt><trkpt lat="37.951879991358766" lon="-4.828035180134479"><ele>510.0</ele><time>2026-04-05T15:10:25.979Z</time></trkpt><trkpt lat="37.9517477677635" lon="-4.828029242182632"><ele>510.0</ele><time>2026-04-05T15:10:26.979Z</time></trkpt><trkpt lat="37.95160706717666" lon="-4.828030787068871"><ele>510.0</ele><time>2026-04-05T15:10:27.979Z</time></trkpt><trkpt lat="37.951470000859935" lon="-4.827955524360852"><ele>510.0</ele><time>2026-04-05T15:10:28.979Z</time></trkpt><trkpt lat="37.95135110343709" lon="-4.827864466762453"><ele>512.5</ele><time>2026-04-05T15:10:29.979Z</time></trkpt><trkpt lat="37.95125333407462" lon="-4.827776923384076"><ele>515.0</ele><time>2026-04-05T15:10:30.979Z</time></trkpt><trkpt lat="37.95113807542194" lon="-4.827744007902241"><ele>517.5</ele><time>2026-04-05T15:10:31.979Z</time></trkpt><trkpt lat="37.95101914555828" lon="-4.82775040516603"><ele>520.0</ele><time>2026-04-05T15:10:32.979Z</time></trkpt><trkpt lat="37.95088977610153" lon="-4.82778211078274"><ele>520.5</ele><time>2026-04-05T15:10:33.979Z</time></trkpt><trkpt lat="37.95075062300761" lon="-4.827830843252207"><ele>521.0</ele><time>2026-04-05T15:10:34.979Z</time></trkpt><trkpt lat="37.95060899415084" lon="-4.82787870430805"><ele>521.5</ele><time>2026-04-05T15:10:35.979Z</time></trkpt><trkpt lat="37.95047031065478" lon="-4.827926435625235"><ele>522.0</ele><time>2026-04-05T15:10:36.979Z</time></trkpt><trkpt lat="37.95034459162359" lon="-4.8279580756138785"><ele>522.0</ele><time>2026-04-05T15:10:37.979Z</time></trkpt><trkpt lat="37.950233454517466" lon="-4.827970647367417"><ele>522.0</ele><time>2026-04-05T15:10:38.979Z</time></trkpt><trkpt lat="37.95014632956003" lon="-4.8279422951250215"><ele>522.0</ele><time>2026-04-05T15:10:39.979Z</time></trkpt><trkpt lat="37.9500610330811" lon="-4.8278771047683335"><ele>522.0</ele><time>2026-04-05T15:10:40.979Z</time></trkpt><trkpt lat="37.95000658621347" lon="-4.827751921054969"><ele>522.0</ele><time>2026-04-05T15:10:41.979Z</time></trkpt><trkpt lat="37.94994844290609" lon="-4.82761902158575"><ele>524.0</ele><time>2026-04-05T15:10:42.979Z</time></trkpt><trkpt lat="37.94990041347632" lon="-4.827477735043368"><ele>526.0</ele><time>2026-04-05T15:10:43.979Z</time></trkpt><trkpt lat="37.949825719694516" lon="-4.82735949699486"><ele>528.0</ele><time>2026-04-05T15:10:44.979Z</time></trkpt><trkpt lat="37.949719958469984" lon="-4.8272931742100935"><ele>530.0</ele><time>2026-04-05T15:10:45.979Z</time></trkpt><trkpt lat="37.94960570941029" lon="-4.8272559480481085"><ele>530.0</ele><time>2026-04-05T15:10:46.979Z</time></trkpt><trkpt lat="37.94947520545795" lon="-4.827241120473478"><ele>530.0</ele><time>2026-04-05T15:10:47.979Z</time></trkpt><trkpt lat="37.94935003038008" lon="-4.827236413042335"><ele>530.0</ele><time>2026-04-05T15:10:48.979Z</time></trkpt><trkpt lat="37.94923217078882" lon="-4.827255819186321"><ele>530.0</ele><time>2026-04-05T15:10:49.979Z</time></trkpt><trkpt lat="37.94912105918705" lon="-4.827305429218675"><ele>532.0</ele><time>2026-04-05T15:10:50.979Z</time></trkpt><trkpt lat="37.9490379649914" lon="-4.827410937951626"><ele>534.0</ele><time>2026-04-05T15:10:51.979Z</time></trkpt><trkpt lat="37.948968264202364" lon="-4.827551300214219"><ele>536.0</ele><time>2026-04-05T15:10:52.979Z</time></trkpt><trkpt lat="37.94888810907248" lon="-4.827710423824578"><ele>538.0</ele><time>2026-04-05T15:10:53.979Z</time></trkpt><trkpt lat="37.94882048032278" lon="-4.827863272675168"><ele>538.25</ele><time>2026-04-05T15:10:54.979Z</time></trkpt><trkpt lat="37.948763084277864" lon="-4.828008140230314"><ele>538.5</ele><time>2026-04-05T15:10:55.979Z</time></trkpt><trkpt lat="37.94870630774954" lon="-4.828129105573276"><ele>538.75</ele><time>2026-04-05T15:10:56.979Z</time></trkpt><trkpt lat="37.948644190011734" lon="-4.828244533821117"><ele>539.0</ele><time>2026-04-05T15:10:57.979Z</time></trkpt><trkpt lat="37.94856992566307" lon="-4.828338819063336"><ele>539.0</ele><time>2026-04-05T15:10:58.979Z</time></trkpt><trkpt lat="37.94847624370304" lon="-4.828414406649811"><ele>539.0</ele><time>2026-04-05T15:10:59.979Z</time></trkpt><trkpt lat="37.94836473795943" lon="-4.828470088008411"><ele>539.0</ele><time>2026-04-05T15:11:00.979Z</time></trkpt><trkpt lat="37.94824253662686" lon="-4.828510128133717"><ele>539.0</ele><time>2026-04-05T15:11:01.976Z</time></trkpt><trkpt lat="37.948113943259024" lon="-4.82854222267103"><ele>541.0</ele><time>2026-04-05T15:11:02.975Z</time></trkpt><trkpt lat="37.94798100477598" lon="-4.8285672814621945"><ele>543.0</ele><time>2026-04-05T15:11:03.975Z</time></trkpt><trkpt lat="37.947847343848146" lon="-4.828588803268034"><ele>545.0</ele><time>2026-04-05T15:11:04.976Z</time></trkpt><trkpt lat="37.94771009676192" lon="-4.828590201510156"><ele>547.0</ele><time>2026-04-05T15:11:05.976Z</time></trkpt><trkpt lat="37.947573925952604" lon="-4.828571705528171"><ele>547.0</ele><time>2026-04-05T15:11:06.976Z</time></trkpt><trkpt lat="37.947436601181145" lon="-4.828529644277915"><ele>547.0</ele><time>2026-04-05T15:11:07.976Z</time></trkpt><trkpt lat="37.94730234651034" lon="-4.828482218989418"><ele>547.0</ele><time>2026-04-05T15:11:08.976Z</time></trkpt><trkpt lat="37.94718283001139" lon="-4.828411453885525"><ele>547.0</ele><time>2026-04-05T15:11:09.976Z</time></trkpt><trkpt lat="37.94706907567457" lon="-4.828334822396182"><ele>546.75</ele><time>2026-04-05T15:11:10.976Z</time></trkpt><trkpt lat="37.94698479170452" lon="-4.828205842348922"><ele>546.5</ele><time>2026-04-05T15:11:11.975Z</time></trkpt><trkpt lat="37.946905785664946" lon="-4.828052210965724"><ele>546.25</ele><time>2026-04-05T15:11:12.975Z</time></trkpt><trkpt lat="37.9468273432628" lon="-4.827870776065449"><ele>546.0</ele><time>2026-04-05T15:11:13.976Z</time></trkpt><trkpt lat="37.94674204614463" lon="-4.827688224244762"><ele>547.25</ele><time>2026-04-05T15:11:14.976Z</time></trkpt><trkpt lat="37.94665683517816" lon="-4.827528554889854"><ele>548.5</ele><time>2026-04-05T15:11:15.976Z</time></trkpt><trkpt lat="37.94656839592121" lon="-4.82739283986221"><ele>549.75</ele><time>2026-04-05T15:11:16.976Z</time></trkpt><trkpt lat="37.94646785640542" lon="-4.827280049999149"><ele>551.0</ele><time>2026-04-05T15:11:17.976Z</time></trkpt><trkpt lat="37.946342553545776" lon="-4.827205737984619"><ele>551.0</ele><time>2026-04-05T15:11:18.976Z</time></trkpt><trkpt lat="37.94619146529726" lon="-4.827143917006587"><ele>551.0</ele><time>2026-04-05T15:11:19.976Z</time></trkpt><trkpt lat="37.94602803118288" lon="-4.827082124854457"><ele>551.0</ele><time>2026-04-05T15:11:20.976Z</time></trkpt><trkpt lat="37.9458597927472" lon="-4.827018826706324"><ele>552.0</ele><time>2026-04-05T15:11:21.976Z</time></trkpt><trkpt lat="37.9456939581176" lon="-4.826956574966287"><ele>553.0</ele><time>2026-04-05T15:11:22.976Z</time></trkpt><trkpt lat="37.94553299386978" lon="-4.826893741518699"><ele>554.0</ele><time>2026-04-05T15:11:23.976Z</time></trkpt><trkpt lat="37.94536790578347" lon="-4.826832198935969"><ele>554.0</ele><time>2026-04-05T15:11:24.976Z</time></trkpt><trkpt lat="37.945206752379214" lon="-4.826769544679396"><ele>554.0</ele><time>2026-04-05T15:11:25.976Z</time></trkpt><trkpt lat="37.945039169524776" lon="-4.826707017143967"><ele>554.0</ele><time>2026-04-05T15:11:26.976Z</time></trkpt><trkpt lat="37.94487296857838" lon="-4.826643511111906"><ele>555.0</ele><time>2026-04-05T15:11:27.976Z</time></trkpt><trkpt lat="37.94469567110443" lon="-4.826577644687584"><ele>556.0</ele><time>2026-04-05T15:11:28.976Z</time></trkpt><trkpt lat="37.94451702661258" lon="-4.826512544978188"><ele>557.0</ele><time>2026-04-05T15:11:29.976Z</time></trkpt><trkpt lat="37.944340118067" lon="-4.8264501763039656"><ele>556.0</ele><time>2026-04-05T15:11:30.976Z</time></trkpt><trkpt lat="37.94416493971355" lon="-4.826389625454132"><ele>555.0</ele><time>2026-04-05T15:11:31.976Z</time></trkpt><trkpt lat="37.94399188927791" lon="-4.826326069696767"><ele>554.0</ele><time>2026-04-05T15:11:32.976Z</time></trkpt><trkpt lat="37.94382249831302" lon="-4.826262290391557"><ele>554.0</ele><time>2026-04-05T15:11:33.976Z</time></trkpt><trkpt lat="37.94365218071896" lon="-4.826201029906198"><ele>554.0</ele><time>2026-04-05T15:11:34.976Z</time></trkpt><trkpt lat="37.94348484591493" lon="-4.826139401083022"><ele>554.0</ele><time>2026-04-05T15:11:35.976Z</time></trkpt><trkpt lat="37.94331840793631" lon="-4.82607402258547"><ele>553.3333333333333</ele><time>2026-04-05T15:11:36.976Z</time></trkpt><trkpt lat="37.943158104276776" lon="-4.826009417012917"><ele>552.6666666666666</ele><time>2026-04-05T15:11:37.976Z</time></trkpt><trkpt lat="37.94300192571452" lon="-4.825952890780458"><ele>552.0</ele><time>2026-04-05T15:11:38.976Z</time></trkpt><trkpt lat="37.94285369495743" lon="-4.825890804656813"><ele>552.0</ele><time>2026-04-05T15:11:39.976Z</time></trkpt><trkpt lat="37.9427088127568" lon="-4.825843127767915"><ele>552.0</ele><time>2026-04-05T15:11:40.976Z</time></trkpt><trkpt lat="37.94256832693342" lon="-4.825797194528071"><ele>552.0</ele><time>2026-04-05T15:11:41.976Z</time></trkpt><trkpt lat="37.942424694806604" lon="-4.825759600552373"><ele>552.0</ele><time>2026-04-05T15:11:42.976Z</time></trkpt><trkpt lat="37.94229276924525" lon="-4.82573283793361"><ele>550.75</ele><time>2026-04-05T15:11:43.976Z</time></trkpt><trkpt lat="37.94216609566439" lon="-4.825710951954103"><ele>549.5</ele><time>2026-04-05T15:11:44.976Z</time></trkpt><trkpt lat="37.94204921892415" lon="-4.8256934505541915"><ele>548.25</ele><time>2026-04-05T15:11:45.976Z</time></trkpt><trkpt lat="37.941932122239045" lon="-4.8256960946554335"><ele>547.0</ele><time>2026-04-05T15:11:46.976Z</time></trkpt><trkpt lat="37.94182906715651" lon="-4.825683936432447"><ele>547.0</ele><time>2026-04-05T15:11:47.976Z</time></trkpt><trkpt lat="37.94173167299033" lon="-4.825671391778284"><ele>547.0</ele><time>2026-04-05T15:11:48.976Z</time></trkpt><trkpt lat="37.94164073099347" lon="-4.825664136172601"><ele>547.0</ele><time>2026-04-05T15:11:49.976Z</time></trkpt><trkpt lat="37.9415565339316" lon="-4.82565270614218"><ele>547.0</ele><time>2026-04-05T15:11:50.976Z</time></trkpt><trkpt lat="37.94147452134125" lon="-4.8256455864993315"><ele>547.0</ele><time>2026-04-05T15:11:51.976Z</time></trkpt><trkpt lat="37.94139688495067" lon="-4.82564483922121"><ele>547.0</ele><time>2026-04-05T15:11:52.976Z</time></trkpt><trkpt lat="37.94131821660794" lon="-4.8256461176162535"><ele>546.7142857142857</ele><time>2026-04-05T15:11:53.976Z</time></trkpt><trkpt lat="37.941247201354685" lon="-4.825646287031502"><ele>546.4285714285713</ele><time>2026-04-05T15:11:54.976Z</time></trkpt><trkpt lat="37.941169094200106" lon="-4.825647201843658"><ele>546.1428571428571</ele><time>2026-04-05T15:11:55.976Z</time></trkpt><trkpt lat="37.94109165931199" lon="-4.825642187726846"><ele>545.8571428571429</ele><time>2026-04-05T15:11:56.973Z</time></trkpt><trkpt lat="37.94101537959302" lon="-4.825634370658048"><ele>545.5714285714287</ele><time>2026-04-05T15:11:57.971Z</time></trkpt><trkpt lat="37.94094711780377" lon="-4.825633222163906"><ele>545.2857142857143</ele><time>2026-04-05T15:11:58.968Z</time></trkpt><trkpt lat="37.94088241457911" lon="-4.825633904487909"><ele>545.0</ele><time>2026-04-05T15:11:59.965Z</time></trkpt><trkpt lat="37.94078501767471" lon="-4.825649725000985"><ele>545.0</ele><time>2026-04-05T15:12:01.961Z</time></trkpt><trkpt lat="37.94072009941581" lon="-4.825659921235374"><ele>545.0</ele><time>2026-04-05T15:12:03.957Z</time></trkpt><trkpt lat="37.940660421192746" lon="-4.825624564779265"><ele>545.0</ele><time>2026-04-05T15:12:47.93Z</time></trkpt><trkpt lat="37.940594303848165" lon="-4.825576533200143"><ele>545.0</ele><time>2026-04-05T15:12:49.93Z</time></trkpt><trkpt lat="37.94051769626349" lon="-4.8255748123717295"><ele>545.0</ele><time>2026-04-05T15:12:51.93Z</time></trkpt><trkpt lat="37.94049364121131" lon="-4.8254147088026675"><ele>545.0</ele><time>2026-04-05T15:12:52.929Z</time></trkpt><trkpt lat="37.94051366143201" lon="-4.825302764556413"><ele>545.0</ele><time>2026-04-05T15:12:53.929Z</time></trkpt><trkpt lat="37.94054073472609" lon="-4.825172610175619"><ele>545.0</ele><time>2026-04-05T15:12:54.929Z</time></trkpt><trkpt lat="37.940569152645544" lon="-4.825033616826469"><ele>545.0</ele><time>2026-04-05T15:12:55.929Z</time></trkpt><trkpt lat="37.94059954239668" lon="-4.824886734260486"><ele>545.0</ele><time>2026-04-05T15:12:56.929Z</time></trkpt><trkpt lat="37.94063233082393" lon="-4.824728258158668"><ele>545.5</ele><time>2026-04-05T15:12:57.929Z</time></trkpt><trkpt lat="37.94066823163381" lon="-4.824556955081091"><ele>546.0</ele><time>2026-04-05T15:12:58.929Z</time></trkpt><trkpt lat="37.94070809073664" lon="-4.824370886949917"><ele>546.5</ele><time>2026-04-05T15:12:59.929Z</time></trkpt><trkpt lat="37.940746560048254" lon="-4.824191306608407"><ele>547.0</ele><time>2026-04-05T15:13:00.929Z</time></trkpt><trkpt lat="37.940784037562985" lon="-4.824016356095618"><ele>549.25</ele><time>2026-04-05T15:13:01.929Z</time></trkpt><trkpt lat="37.94083695372516" lon="-4.82383723754933"><ele>551.5</ele><time>2026-04-05T15:13:02.929Z</time></trkpt><trkpt lat="37.94086931186107" lon="-4.823662410201397"><ele>553.75</ele><time>2026-04-05T15:13:03.929Z</time></trkpt><trkpt lat="37.940903013908596" lon="-4.823501617793653"><ele>556.0</ele><time>2026-04-05T15:13:04.929Z</time></trkpt><trkpt lat="37.940944322612225" lon="-4.823336759914516"><ele>558.25</ele><time>2026-04-05T15:13:05.929Z</time></trkpt><trkpt lat="37.940978687695825" lon="-4.823173939578902"><ele>560.5</ele><time>2026-04-05T15:13:06.929Z</time></trkpt><trkpt lat="37.94102650404439" lon="-4.82301236953592"><ele>562.75</ele><time>2026-04-05T15:13:07.926Z</time></trkpt><trkpt lat="37.94108814389517" lon="-4.822855834179911"><ele>565.0</ele><time>2026-04-05T15:13:08.926Z</time></trkpt><trkpt lat="37.94118097111412" lon="-4.822701116832279"><ele>566.6666666666667</ele><time>2026-04-05T15:13:09.926Z</time></trkpt><trkpt lat="37.941299881921445" lon="-4.822551252688838"><ele>568.3333333333334</ele><time>2026-04-05T15:13:10.925Z</time></trkpt><trkpt lat="37.94140849286844" lon="-4.822407967328386"><ele>570.0</ele><time>2026-04-05T15:13:11.926Z</time></trkpt><trkpt lat="37.94149866579233" lon="-4.822269696274176"><ele>570.0</ele><time>2026-04-05T15:13:12.926Z</time></trkpt><trkpt lat="37.94157654868942" lon="-4.822132185257282"><ele>570.0</ele><time>2026-04-05T15:13:13.926Z</time></trkpt><trkpt lat="37.941625211253196" lon="-4.821969699198757"><ele>570.0</ele><time>2026-04-05T15:13:14.926Z</time></trkpt><trkpt lat="37.941641562920616" lon="-4.821807566256311"><ele>570.0</ele><time>2026-04-05T15:13:15.926Z</time></trkpt><trkpt lat="37.941615684983894" lon="-4.821652359726932"><ele>570.0</ele><time>2026-04-05T15:13:16.925Z</time></trkpt><trkpt lat="37.94155016354306" lon="-4.8215068259642395"><ele>570.0</ele><time>2026-04-05T15:13:17.925Z</time></trkpt><trkpt lat="37.94146264962496" lon="-4.821376227579922"><ele>570.0</ele><time>2026-04-05T15:13:18.925Z</time></trkpt><trkpt lat="37.94137243627538" lon="-4.821250664836406"><ele>570.0</ele><time>2026-04-05T15:13:19.926Z</time></trkpt><trkpt lat="37.94128730446084" lon="-4.821107968661266"><ele>573.5</ele><time>2026-04-05T15:13:20.925Z</time></trkpt><trkpt lat="37.9412056552631" lon="-4.820963831969794"><ele>577.0</ele><time>2026-04-05T15:13:21.925Z</time></trkpt><trkpt lat="37.94112232546059" lon="-4.820828039095038"><ele>580.5</ele><time>2026-04-05T15:13:22.925Z</time></trkpt><trkpt lat="37.94105796694973" lon="-4.820696209220797"><ele>584.0</ele><time>2026-04-05T15:13:23.925Z</time></trkpt><trkpt lat="37.94100742722424" lon="-4.820556195188607"><ele>584.0</ele><time>2026-04-05T15:13:24.925Z</time></trkpt><trkpt lat="37.94102776378394" lon="-4.820391612534709"><ele>584.0</ele><time>2026-04-05T15:13:25.925Z</time></trkpt><trkpt lat="37.94106072093624" lon="-4.820218162069182"><ele>584.0</ele><time>2026-04-05T15:13:26.925Z</time></trkpt><trkpt lat="37.94111069320796" lon="-4.820031539436222"><ele>584.0</ele><time>2026-04-05T15:13:27.925Z</time></trkpt><trkpt lat="37.94115605124834" lon="-4.819848912749314"><ele>586.5</ele><time>2026-04-05T15:13:28.925Z</time></trkpt><trkpt lat="37.94119423670278" lon="-4.819682794160309"><ele>589.0</ele><time>2026-04-05T15:13:29.925Z</time></trkpt><trkpt lat="37.94123804352533" lon="-4.819543213233475"><ele>591.5</ele><time>2026-04-05T15:13:30.925Z</time></trkpt><trkpt lat="37.94129824480574" lon="-4.81942524281822"><ele>594.0</ele><time>2026-04-05T15:13:31.925Z</time></trkpt><trkpt lat="37.941388286236084" lon="-4.81933260673876"><ele>594.25</ele><time>2026-04-05T15:13:32.925Z</time></trkpt><trkpt lat="37.941498027957635" lon="-4.819273441483107"><ele>594.5</ele><time>2026-04-05T15:13:33.925Z</time></trkpt><trkpt lat="37.94163908695706" lon="-4.819248685553569"><ele>594.75</ele><time>2026-04-05T15:13:34.925Z</time></trkpt><trkpt lat="37.94179172528236" lon="-4.819227077438668"><ele>595.0</ele><time>2026-04-05T15:13:35.925Z</time></trkpt><trkpt lat="37.94194041509739" lon="-4.819181448307978"><ele>595.0</ele><time>2026-04-05T15:13:36.925Z</time></trkpt><trkpt lat="37.942064144395395" lon="-4.819086974803439"><ele>595.0</ele><time>2026-04-05T15:13:37.925Z</time></trkpt><trkpt lat="37.94216293754177" lon="-4.818948051567293"><ele>595.0</ele><time>2026-04-05T15:13:38.925Z</time></trkpt><trkpt lat="37.94223607700446" lon="-4.818782263426413"><ele>595.0</ele><time>2026-04-05T15:13:39.925Z</time></trkpt><trkpt lat="37.9423137746415" lon="-4.81863216630695"><ele>595.0</ele><time>2026-04-05T15:13:40.925Z</time></trkpt><trkpt lat="37.94242478024212" lon="-4.8185134235241955"><ele>595.0</ele><time>2026-04-05T15:13:41.925Z</time></trkpt><trkpt lat="37.94256346728146" lon="-4.818420597095758"><ele>595.0</ele><time>2026-04-05T15:13:42.925Z</time></trkpt><trkpt lat="37.94272157930569" lon="-4.8183524766564565"><ele>593.3333333333334</ele><time>2026-04-05T15:13:43.925Z</time></trkpt><trkpt lat="37.94287900128572" lon="-4.8182857418157035"><ele>591.6666666666666</ele><time>2026-04-05T15:13:44.925Z</time></trkpt><trkpt lat="37.94302040705109" lon="-4.818221757661773"><ele>590.0</ele><time>2026-04-05T15:13:45.925Z</time></trkpt><trkpt lat="37.943141745148075" lon="-4.81812775735416"><ele>590.0</ele><time>2026-04-05T15:13:46.925Z</time></trkpt><trkpt lat="37.94325186510374" lon="-4.818046014306524"><ele>590.0</ele><time>2026-04-05T15:13:47.925Z</time></trkpt><trkpt lat="37.943369190149184" lon="-4.817976844006938"><ele>590.0</ele><time>2026-04-05T15:13:48.925Z</time></trkpt><trkpt lat="37.943462704536515" lon="-4.817868964395362"><ele>590.0</ele><time>2026-04-05T15:13:49.925Z</time></trkpt><trkpt lat="37.94357047089549" lon="-4.817765551830696"><ele>590.0</ele><time>2026-04-05T15:13:50.925Z</time></trkpt><trkpt lat="37.943675083847005" lon="-4.817660669401658"><ele>590.0</ele><time>2026-04-05T15:13:51.925Z</time></trkpt><trkpt lat="37.94377869183765" lon="-4.81755565873222"><ele>590.0</ele><time>2026-04-05T15:13:52.925Z</time></trkpt><trkpt lat="37.94388097353764" lon="-4.817451992303223"><ele>590.0</ele><time>2026-04-05T15:13:53.925Z</time></trkpt><trkpt lat="37.94398618073627" lon="-4.817345360739342"><ele>590.0</ele><time>2026-04-05T15:13:54.925Z</time></trkpt><trkpt lat="37.944091160254395" lon="-4.817238959985612"><ele>590.0</ele><time>2026-04-05T15:13:55.925Z</time></trkpt><trkpt lat="37.944193625237666" lon="-4.817135052708524"><ele>590.0</ele><time>2026-04-05T15:13:56.925Z</time></trkpt><trkpt lat="37.944293609265564" lon="-4.817032878627253"><ele>590.0</ele><time>2026-04-05T15:13:57.925Z</time></trkpt><trkpt lat="37.94439382085098" lon="-4.816933914411654"><ele>588.25</ele><time>2026-04-05T15:13:58.925Z</time></trkpt><trkpt lat="37.94450369870493" lon="-4.816852668446028"><ele>586.5</ele><time>2026-04-05T15:13:59.925Z</time></trkpt><trkpt lat="37.94461461594554" lon="-4.81677098119828"><ele>584.75</ele><time>2026-04-05T15:14:00.925Z</time></trkpt><trkpt lat="37.944740670399845" lon="-4.816728140317422"><ele>583.0</ele><time>2026-04-05T15:14:01.925Z</time></trkpt><trkpt lat="37.94487895119138" lon="-4.8167190941416225"><ele>583.0</ele><time>2026-04-05T15:14:02.925Z</time></trkpt><trkpt lat="37.94503244325402" lon="-4.816739113261789"><ele>583.0</ele><time>2026-04-05T15:14:03.925Z</time></trkpt><trkpt lat="37.94519859603832" lon="-4.8167742411069945"><ele>583.0</ele><time>2026-04-05T15:14:04.925Z</time></trkpt><trkpt lat="37.94535630776714" lon="-4.816809425597719"><ele>583.5</ele><time>2026-04-05T15:14:05.925Z</time></trkpt><trkpt lat="37.94551146018864" lon="-4.816834221348732"><ele>584.0</ele><time>2026-04-05T15:14:06.925Z</time></trkpt><trkpt lat="37.94565693820668" lon="-4.816852504165952"><ele>584.5</ele><time>2026-04-05T15:14:07.925Z</time></trkpt><trkpt lat="37.94579139428521" lon="-4.816868055582118"><ele>585.0</ele><time>2026-04-05T15:14:08.925Z</time></trkpt><trkpt lat="37.9459322290301" lon="-4.816866723389783"><ele>582.3333333333334</ele><time>2026-04-05T15:14:09.925Z</time></trkpt><trkpt lat="37.94607884250537" lon="-4.816847673098112"><ele>579.6666666666667</ele><time>2026-04-05T15:14:10.925Z</time></trkpt><trkpt lat="37.94622868492624" lon="-4.816813930368603"><ele>577.0</ele><time>2026-04-05T15:14:11.925Z</time></trkpt><trkpt lat="37.9463840396774" lon="-4.8167785453099095"><ele>574.6666666666667</ele><time>2026-04-05T15:14:12.925Z</time></trkpt><trkpt lat="37.94653974967861" lon="-4.816739968278312"><ele>572.3333333333334</ele><time>2026-04-05T15:14:13.925Z</time></trkpt><trkpt lat="37.94669712137012" lon="-4.8167077114270125"><ele>570.0</ele><time>2026-04-05T15:14:14.925Z</time></trkpt><trkpt lat="37.94685441896092" lon="-4.8166692490495455"><ele>570.0</ele><time>2026-04-05T15:14:15.925Z</time></trkpt><trkpt lat="37.94700589209456" lon="-4.816624203834925"><ele>570.0</ele><time>2026-04-05T15:14:16.925Z</time></trkpt><trkpt lat="37.94715942970212" lon="-4.816591279169905"><ele>570.0</ele><time>2026-04-05T15:14:17.925Z</time></trkpt><trkpt lat="37.9473134648788" lon="-4.816559854712282"><ele>570.0</ele><time>2026-04-05T15:14:18.925Z</time></trkpt><trkpt lat="37.947464641482576" lon="-4.816527291553306"><ele>570.0</ele><time>2026-04-05T15:14:19.925Z</time></trkpt><trkpt lat="37.94762055735227" lon="-4.816492508100286"><ele>570.0</ele><time>2026-04-05T15:14:20.925Z</time></trkpt><trkpt lat="37.94777185834504" lon="-4.816460447078796"><ele>568.6666666666666</ele><time>2026-04-05T15:14:21.925Z</time></trkpt><trkpt lat="37.9479166772932" lon="-4.816424614396974"><ele>567.3333333333333</ele><time>2026-04-05T15:14:22.925Z</time></trkpt><trkpt lat="37.94806705806567" lon="-4.816383619880685"><ele>566.0</ele><time>2026-04-05T15:14:23.925Z</time></trkpt><trkpt lat="37.94821611869601" lon="-4.816344811039064"><ele>566.0</ele><time>2026-04-05T15:14:24.925Z</time></trkpt><trkpt lat="37.94837058662044" lon="-4.816297057590748"><ele>566.0</ele><time>2026-04-05T15:14:25.925Z</time></trkpt><trkpt lat="37.948527796565095" lon="-4.8162370711236635"><ele>566.0</ele><time>2026-04-05T15:14:26.925Z</time></trkpt><trkpt lat="37.94868868256652" lon="-4.816168879269202"><ele>565.0</ele><time>2026-04-05T15:14:27.925Z</time></trkpt><trkpt lat="37.94884034983036" lon="-4.816098488452621"><ele>564.0</ele><time>2026-04-05T15:14:28.925Z</time></trkpt><trkpt lat="37.94898694002511" lon="-4.816024769804178"><ele>563.0</ele><time>2026-04-05T15:14:29.925Z</time></trkpt><trkpt lat="37.94912481999935" lon="-4.815950762445813"><ele>562.5</ele><time>2026-04-05T15:14:30.925Z</time></trkpt><trkpt lat="37.949252798630305" lon="-4.815873650800074"><ele>562.0</ele><time>2026-04-05T15:14:31.925Z</time></trkpt><trkpt lat="37.94937909535815" lon="-4.815798721744761"><ele>561.5</ele><time>2026-04-05T15:14:32.925Z</time></trkpt><trkpt lat="37.94950410753109" lon="-4.81571379913934"><ele>561.0</ele><time>2026-04-05T15:14:33.925Z</time></trkpt><trkpt lat="37.949629466909" lon="-4.815611552466298"><ele>561.0</ele><time>2026-04-05T15:14:34.925Z</time></trkpt><trkpt lat="37.9497456686046" lon="-4.815488480144546"><ele>561.0</ele><time>2026-04-05T15:14:35.925Z</time></trkpt><trkpt lat="37.949856735563394" lon="-4.815351454153903"><ele>561.0</ele><time>2026-04-05T15:14:36.925Z</time></trkpt><trkpt lat="37.94997533358378" lon="-4.815199322518063"><ele>561.6666666666666</ele><time>2026-04-05T15:14:37.925Z</time></trkpt><trkpt lat="37.950105165651074" lon="-4.815040609906759"><ele>562.3333333333333</ele><time>2026-04-05T15:14:38.925Z</time></trkpt><trkpt lat="37.950237693624686" lon="-4.814864615087846"><ele>563.0</ele><time>2026-04-05T15:14:39.925Z</time></trkpt><trkpt lat="37.950380823379405" lon="-4.81469123161034"><ele>563.0</ele><time>2026-04-05T15:14:40.925Z</time></trkpt><trkpt lat="37.9505321758948" lon="-4.814504890628885"><ele>563.0</ele><time>2026-04-05T15:14:41.925Z</time></trkpt><trkpt lat="37.950673470104974" lon="-4.8143001128254905"><ele>563.0</ele><time>2026-04-05T15:14:42.925Z</time></trkpt><trkpt lat="37.95082076007731" lon="-4.8141156192502965"><ele>561.3333333333333</ele><time>2026-04-05T15:14:43.925Z</time></trkpt><trkpt lat="37.95096466281964" lon="-4.813936032081321"><ele>559.6666666666666</ele><time>2026-04-05T15:14:44.925Z</time></trkpt><trkpt lat="37.95110019505675" lon="-4.8137636417097855"><ele>558.0</ele><time>2026-04-05T15:14:45.925Z</time></trkpt><trkpt lat="37.951228633548126" lon="-4.813596179634163"><ele>559.3333333333334</ele><time>2026-04-05T15:14:46.925Z</time></trkpt><trkpt lat="37.951359467999424" lon="-4.813441723607867"><ele>560.6666666666667</ele><time>2026-04-05T15:14:47.925Z</time></trkpt><trkpt lat="37.951460807142766" lon="-4.813263807953154"><ele>562.0</ele><time>2026-04-05T15:14:48.925Z</time></trkpt><trkpt lat="37.95154967356599" lon="-4.813072217972433"><ele>562.0</ele><time>2026-04-05T15:14:49.925Z</time></trkpt><trkpt lat="37.95161459907543" lon="-4.812861051856649"><ele>562.0</ele><time>2026-04-05T15:14:50.925Z</time></trkpt><trkpt lat="37.95168924264301" lon="-4.812663338450383"><ele>562.0</ele><time>2026-04-05T15:14:51.925Z</time></trkpt><trkpt lat="37.951753662022185" lon="-4.812477400835729"><ele>561.3333333333334</ele><time>2026-04-05T15:14:52.925Z</time></trkpt><trkpt lat="37.95180668524536" lon="-4.812294408778452"><ele>560.6666666666666</ele><time>2026-04-05T15:14:53.925Z</time></trkpt><trkpt lat="37.95184466601525" lon="-4.812100551980261"><ele>560.0</ele><time>2026-04-05T15:14:54.925Z</time></trkpt><trkpt lat="37.95188102002813" lon="-4.811897287411308"><ele>559.6666666666666</ele><time>2026-04-05T15:14:55.925Z</time></trkpt><trkpt lat="37.95189900244818" lon="-4.811694928890628"><ele>559.3333333333334</ele><time>2026-04-05T15:14:56.925Z</time></trkpt><trkpt lat="37.95190119220961" lon="-4.811497302862697"><ele>559.0</ele><time>2026-04-05T15:14:57.925Z</time></trkpt><trkpt lat="37.9519134568596" lon="-4.811312938461752"><ele>559.0</ele><time>2026-04-05T15:14:58.925Z</time></trkpt><trkpt lat="37.951917232730075" lon="-4.811152412020462"><ele>559.0</ele><time>2026-04-05T15:14:59.925Z</time></trkpt><trkpt lat="37.95190981141332" lon="-4.8110192941769405"><ele>559.0</ele><time>2026-04-05T15:15:00.925Z</time></trkpt><trkpt lat="37.9518858789586" lon="-4.810911818076802"><ele>559.0</ele><time>2026-04-05T15:15:01.925Z</time></trkpt><trkpt lat="37.95184877653242" lon="-4.8108393620818415"><ele>559.0</ele><time>2026-04-05T15:15:02.925Z</time></trkpt><trkpt lat="37.95180082968835" lon="-4.810784932727077"><ele>558.5</ele><time>2026-04-05T15:15:04.925Z</time></trkpt><trkpt lat="37.95168704358796" lon="-4.810702255209386"><ele>558.0</ele><time>2026-04-05T15:15:07.925Z</time></trkpt><trkpt lat="37.95159260823849" lon="-4.810661121328865"><ele>557.5</ele><time>2026-04-05T15:15:08.925Z</time></trkpt><trkpt lat="37.95149628199511" lon="-4.810606847385245"><ele>557.0</ele><time>2026-04-05T15:15:09.925Z</time></trkpt><trkpt lat="37.95139121542388" lon="-4.810538076047378"><ele>557.0</ele><time>2026-04-05T15:15:10.925Z</time></trkpt><trkpt lat="37.951299510474655" lon="-4.810438065937378"><ele>557.0</ele><time>2026-04-05T15:15:11.925Z</time></trkpt><trkpt lat="37.95121586595784" lon="-4.810320620144189"><ele>557.0</ele><time>2026-04-05T15:15:12.925Z</time></trkpt><trkpt lat="37.95113116884882" lon="-4.810180815547904"><ele>557.0</ele><time>2026-04-05T15:15:13.922Z</time></trkpt><trkpt lat="37.95108041068199" lon="-4.8100187173969315"><ele>556.0</ele><time>2026-04-05T15:15:14.923Z</time></trkpt><trkpt lat="37.951042391586185" lon="-4.809848503242536"><ele>555.0</ele><time>2026-04-05T15:15:15.923Z</time></trkpt><trkpt lat="37.95101223865543" lon="-4.809678376401246"><ele>554.0</ele><time>2026-04-05T15:15:16.922Z</time></trkpt><trkpt lat="37.950990396543645" lon="-4.809501956519044"><ele>553.0</ele><time>2026-04-05T15:15:17.922Z</time></trkpt><trkpt lat="37.950969686280686" lon="-4.80931701304101"><ele>552.25</ele><time>2026-04-05T15:15:18.922Z</time></trkpt><trkpt lat="37.95094847742541" lon="-4.809127616731525"><ele>551.5</ele><time>2026-04-05T15:15:19.922Z</time></trkpt><trkpt lat="37.950922113897015" lon="-4.808942432932613"><ele>550.75</ele><time>2026-04-05T15:15:20.922Z</time></trkpt><trkpt lat="37.95088459979486" lon="-4.808764722899907"><ele>550.0</ele><time>2026-04-05T15:15:21.922Z</time></trkpt><trkpt lat="37.95084024293794" lon="-4.808588536838617"><ele>546.5</ele><time>2026-04-05T15:15:22.922Z</time></trkpt><trkpt lat="37.95079567669119" lon="-4.808425686939405"><ele>543.0</ele><time>2026-04-05T15:15:23.922Z</time></trkpt><trkpt lat="37.95075453983204" lon="-4.80828008127186"><ele>539.5</ele><time>2026-04-05T15:15:24.922Z</time></trkpt><trkpt lat="37.95067965997648" lon="-4.808175446444121"><ele>536.0</ele><time>2026-04-05T15:15:25.922Z</time></trkpt><trkpt lat="37.950578685180844" lon="-4.808091790397142"><ele>536.0</ele><time>2026-04-05T15:15:26.921Z</time></trkpt><trkpt lat="37.95045838485516" lon="-4.808047801674616"><ele>536.0</ele><time>2026-04-05T15:15:27.921Z</time></trkpt><trkpt lat="37.95031698437718" lon="-4.808033662666918"><ele>536.0</ele><time>2026-04-05T15:15:28.921Z</time></trkpt><trkpt lat="37.950173844126766" lon="-4.808020147838287"><ele>536.0</ele><time>2026-04-05T15:15:29.921Z</time></trkpt><trkpt lat="37.95004351292483" lon="-4.808012026486168"><ele>535.75</ele><time>2026-04-05T15:15:30.921Z</time></trkpt><trkpt lat="37.94991887208763" lon="-4.80796814026474"><ele>535.5</ele><time>2026-04-05T15:15:31.921Z</time></trkpt><trkpt lat="37.94979860304398" lon="-4.807907740723403"><ele>535.25</ele><time>2026-04-05T15:15:32.921Z</time></trkpt><trkpt lat="37.949684141709106" lon="-4.8078519963309265"><ele>535.0</ele><time>2026-04-05T15:15:33.921Z</time></trkpt><trkpt lat="37.94956414625558" lon="-4.8078352962458375"><ele>535.0</ele><time>2026-04-05T15:15:34.921Z</time></trkpt><trkpt lat="37.94942485035782" lon="-4.807842998969109"><ele>535.0</ele><time>2026-04-05T15:15:35.921Z</time></trkpt><trkpt lat="37.94928860558458" lon="-4.807872295151911"><ele>535.0</ele><time>2026-04-05T15:15:36.921Z</time></trkpt><trkpt lat="37.94915597013537" lon="-4.807897462160887"><ele>535.0</ele><time>2026-04-05T15:15:37.921Z</time></trkpt><trkpt lat="37.949020690441365" lon="-4.807909608904541"><ele>533.0</ele><time>2026-04-05T15:15:38.921Z</time></trkpt><trkpt lat="37.94887996085938" lon="-4.807913593736831"><ele>531.0</ele><time>2026-04-05T15:15:39.921Z</time></trkpt><trkpt lat="37.94874499483155" lon="-4.8079020173787415"><ele>529.0</ele><time>2026-04-05T15:15:40.921Z</time></trkpt><trkpt lat="37.948615727691006" lon="-4.807895400980379"><ele>527.0</ele><time>2026-04-05T15:15:41.921Z</time></trkpt><trkpt lat="37.948485529193924" lon="-4.807894214447108"><ele>525.25</ele><time>2026-04-05T15:15:42.921Z</time></trkpt><trkpt lat="37.94835602791989" lon="-4.8079089618247055"><ele>523.5</ele><time>2026-04-05T15:15:43.921Z</time></trkpt><trkpt lat="37.94822705278964" lon="-4.807904205170368"><ele>521.75</ele><time>2026-04-05T15:15:44.921Z</time></trkpt><trkpt lat="37.94809893441003" lon="-4.807864082966108"><ele>520.0</ele><time>2026-04-05T15:15:45.921Z</time></trkpt><trkpt lat="37.9479819023342" lon="-4.80778552243606"><ele>520.0</ele><time>2026-04-05T15:15:46.921Z</time></trkpt><trkpt lat="37.94786491794836" lon="-4.807691910877758"><ele>520.0</ele><time>2026-04-05T15:15:47.921Z</time></trkpt><trkpt lat="37.947748883352986" lon="-4.80758417158608"><ele>520.0</ele><time>2026-04-05T15:15:48.921Z</time></trkpt><trkpt lat="37.947625290449935" lon="-4.807476764112913"><ele>520.0</ele><time>2026-04-05T15:15:49.921Z</time></trkpt><trkpt lat="37.94749141042355" lon="-4.807378270287383"><ele>513.0</ele><time>2026-04-05T15:15:50.921Z</time></trkpt><trkpt lat="37.947386919506556" lon="-4.807236182677819"><ele>506.0</ele><time>2026-04-05T15:15:51.921Z</time></trkpt><trkpt lat="37.947287500616525" lon="-4.8071068937818024"><ele>499.0</ele><time>2026-04-05T15:15:52.921Z</time></trkpt><trkpt lat="37.94719142463302" lon="-4.80698937964334"><ele>492.0</ele><time>2026-04-05T15:15:53.921Z</time></trkpt><trkpt lat="37.947102373761226" lon="-4.8068850599104485"><ele>483.75</ele><time>2026-04-05T15:15:54.921Z</time></trkpt><trkpt lat="37.94700955408535" lon="-4.806778584267781"><ele>475.5</ele><time>2026-04-05T15:15:55.921Z</time></trkpt><trkpt lat="37.94692406256729" lon="-4.806652657708414"><ele>467.25</ele><time>2026-04-05T15:15:56.921Z</time></trkpt><trkpt lat="37.94685542244433" lon="-4.806528248639669"><ele>459.0</ele><time>2026-04-05T15:15:57.921Z</time></trkpt><trkpt lat="37.94680118436927" lon="-4.806384366507953"><ele>459.0</ele><time>2026-04-05T15:15:58.921Z</time></trkpt><trkpt lat="37.94676215566806" lon="-4.80623237861658"><ele>459.0</ele><time>2026-04-05T15:15:59.921Z</time></trkpt><trkpt lat="37.94674256172284" lon="-4.80607077195689"><ele>459.0</ele><time>2026-04-05T15:16:00.921Z</time></trkpt><trkpt lat="37.946739971215635" lon="-4.805916437441504"><ele>459.0</ele><time>2026-04-05T15:16:01.921Z</time></trkpt><trkpt lat="37.946724137521656" lon="-4.805758679830169"><ele>457.25</ele><time>2026-04-05T15:16:02.921Z</time></trkpt><trkpt lat="37.94672458511801" lon="-4.805598107007628"><ele>455.5</ele><time>2026-04-05T15:16:03.921Z</time></trkpt><trkpt lat="37.94673425474348" lon="-4.805438716230141"><ele>453.75</ele><time>2026-04-05T15:16:04.921Z</time></trkpt><trkpt lat="37.946692587307425" lon="-4.805283564216856"><ele>452.0</ele><time>2026-04-05T15:16:05.921Z</time></trkpt><trkpt lat="37.946653320594386" lon="-4.805133986815905"><ele>452.0</ele><time>2026-04-05T15:16:06.921Z</time></trkpt><trkpt lat="37.94659969134085" lon="-4.804990868714473"><ele>452.0</ele><time>2026-04-05T15:16:07.921Z</time></trkpt><trkpt lat="37.946533721689825" lon="-4.80485094524117"><ele>452.0</ele><time>2026-04-05T15:16:08.921Z</time></trkpt><trkpt lat="37.94646234960474" lon="-4.804714870273234"><ele>452.0</ele><time>2026-04-05T15:16:09.921Z</time></trkpt><trkpt lat="37.946390366662406" lon="-4.804590679525443"><ele>452.0</ele><time>2026-04-05T15:16:10.921Z</time></trkpt><trkpt lat="37.9463174165876" lon="-4.804478734901094"><ele>452.00000000000006</ele><time>2026-04-05T15:16:11.921Z</time></trkpt><trkpt lat="37.94624614848672" lon="-4.804380040562961"><ele>452.00000000000006</ele><time>2026-04-05T15:16:12.921Z</time></trkpt><trkpt lat="37.946170840863694" lon="-4.8042856643087415"><ele>452.0</ele><time>2026-04-05T15:16:13.921Z</time></trkpt><trkpt lat="37.94606228565155" lon="-4.80423403681357"><ele>452.0</ele><time>2026-04-05T15:16:14.921Z</time></trkpt><trkpt lat="37.94593024714762" lon="-4.804218407231143"><ele>448.75</ele><time>2026-04-05T15:16:15.921Z</time></trkpt><trkpt lat="37.94579978827838" lon="-4.804197477528071"><ele>445.5</ele><time>2026-04-05T15:16:16.921Z</time></trkpt><trkpt lat="37.94567720303751" lon="-4.804168336223348"><ele>442.25</ele><time>2026-04-05T15:16:17.921Z</time></trkpt><trkpt lat="37.94555757751988" lon="-4.8041247932814475"><ele>439.0</ele><time>2026-04-05T15:16:18.921Z</time></trkpt><trkpt lat="37.94544174522685" lon="-4.804061179422576"><ele>439.0</ele><time>2026-04-05T15:16:19.921Z</time></trkpt><trkpt lat="37.9453289872977" lon="-4.80398444933504"><ele>439.0</ele><time>2026-04-05T15:16:20.921Z</time></trkpt><trkpt lat="37.94521575197735" lon="-4.803903664374595"><ele>439.0</ele><time>2026-04-05T15:16:21.921Z</time></trkpt><trkpt lat="37.94509468234206" lon="-4.803832352855577"><ele>439.0</ele><time>2026-04-05T15:16:22.921Z</time></trkpt><trkpt lat="37.944969034484444" lon="-4.803773337649667"><ele>437.25</ele><time>2026-04-05T15:16:23.921Z</time></trkpt><trkpt lat="37.944844413771854" lon="-4.8037296208254325"><ele>435.5</ele><time>2026-04-05T15:16:24.921Z</time></trkpt><trkpt lat="37.94471748647866" lon="-4.8037021586774715"><ele>433.75</ele><time>2026-04-05T15:16:25.921Z</time></trkpt><trkpt lat="37.94459562853861" lon="-4.803664415766845"><ele>432.0</ele><time>2026-04-05T15:16:26.921Z</time></trkpt><trkpt lat="37.94447682919191" lon="-4.803628886739397"><ele>432.0</ele><time>2026-04-05T15:16:27.921Z</time></trkpt><trkpt lat="37.94436648733847" lon="-4.803582135100794"><ele>432.0</ele><time>2026-04-05T15:16:28.921Z</time></trkpt><trkpt lat="37.944262761002314" lon="-4.803524790841139"><ele>432.0</ele><time>2026-04-05T15:16:29.921Z</time></trkpt><trkpt lat="37.944158086318936" lon="-4.803459382387319"><ele>432.0</ele><time>2026-04-05T15:16:30.921Z</time></trkpt><trkpt lat="37.94405860838418" lon="-4.8033802766009615"><ele>429.75</ele><time>2026-04-05T15:16:31.921Z</time></trkpt><trkpt lat="37.94395505986459" lon="-4.803293516078042"><ele>427.5</ele><time>2026-04-05T15:16:32.921Z</time></trkpt><trkpt lat="37.94387088501633" lon="-4.803168314139903"><ele>425.25</ele><time>2026-04-05T15:16:33.921Z</time></trkpt><trkpt lat="37.94380095290043" lon="-4.80302506932098"><ele>423.0</ele><time>2026-04-05T15:16:34.921Z</time></trkpt><trkpt lat="37.94376089915033" lon="-4.802871326748635"><ele>423.0</ele><time>2026-04-05T15:16:35.921Z</time></trkpt><trkpt lat="37.943698352099226" lon="-4.8027419967286775"><ele>423.0</ele><time>2026-04-05T15:16:36.921Z</time></trkpt><trkpt lat="37.94362137542508" lon="-4.802629749814119"><ele>423.0</ele><time>2026-04-05T15:16:37.921Z</time></trkpt><trkpt lat="37.94354371833996" lon="-4.802511986041692"><ele>423.0</ele><time>2026-04-05T15:16:38.921Z</time></trkpt><trkpt lat="37.94345440507534" lon="-4.80239668718321"><ele>418.5</ele><time>2026-04-05T15:16:39.921Z</time></trkpt><trkpt lat="37.94337616323432" lon="-4.802270060728609"><ele>414.0</ele><time>2026-04-05T15:16:40.921Z</time></trkpt><trkpt lat="37.943290393441245" lon="-4.80214679070283"><ele>409.5</ele><time>2026-04-05T15:16:41.921Z</time></trkpt><trkpt lat="37.94322163486353" lon="-4.802018939352257"><ele>405.0</ele><time>2026-04-05T15:16:42.921Z</time></trkpt><trkpt lat="37.94316293050201" lon="-4.801889880606064"><ele>407.5</ele><time>2026-04-05T15:16:43.921Z</time></trkpt><trkpt lat="37.94309558464654" lon="-4.801766688699938"><ele>410.0</ele><time>2026-04-05T15:16:44.921Z</time></trkpt><trkpt lat="37.943062608401746" lon="-4.801611899020375"><ele>412.5</ele><time>2026-04-05T15:16:45.921Z</time></trkpt><trkpt lat="37.943076257830576" lon="-4.801449088498189"><ele>415.0</ele><time>2026-04-05T15:16:46.921Z</time></trkpt><trkpt lat="37.943077566006494" lon="-4.8012947520942655"><ele>415.0</ele><time>2026-04-05T15:16:47.921Z</time></trkpt><trkpt lat="37.943140762073426" lon="-4.801153244095486"><ele>415.0</ele><time>2026-04-05T15:16:48.921Z</time></trkpt><trkpt lat="37.943185457359256" lon="-4.801010255509584"><ele>415.0</ele><time>2026-04-05T15:16:49.921Z</time></trkpt><trkpt lat="37.94324583327872" lon="-4.800879692694735"><ele>415.0</ele><time>2026-04-05T15:16:50.921Z</time></trkpt><trkpt lat="37.94332016796341" lon="-4.8007531595157005"><ele>413.75</ele><time>2026-04-05T15:16:51.921Z</time></trkpt><trkpt lat="37.9433667410762" lon="-4.800596525297079"><ele>412.5</ele><time>2026-04-05T15:16:52.921Z</time></trkpt><trkpt lat="37.94341297224598" lon="-4.800435894043"><ele>411.25</ele><time>2026-04-05T15:16:53.921Z</time></trkpt><trkpt lat="37.94344964464714" lon="-4.800277080687017"><ele>410.0</ele><time>2026-04-05T15:16:54.921Z</time></trkpt><trkpt lat="37.943454708908874" lon="-4.800118081943556"><ele>403.75</ele><time>2026-04-05T15:16:55.921Z</time></trkpt><trkpt lat="37.943459863394416" lon="-4.79995744676294"><ele>397.5</ele><time>2026-04-05T15:16:56.921Z</time></trkpt><trkpt lat="37.94344650996025" lon="-4.79979574320191"><ele>391.25</ele><time>2026-04-05T15:16:57.921Z</time></trkpt><trkpt lat="37.943425265210294" lon="-4.799632358644334"><ele>385.0</ele><time>2026-04-05T15:16:58.921Z</time></trkpt><trkpt lat="37.94339924980386" lon="-4.799477290700629"><ele>386.75</ele><time>2026-04-05T15:16:59.921Z</time></trkpt><trkpt lat="37.94336546606155" lon="-4.799315655864563"><ele>388.5</ele><time>2026-04-05T15:17:00.921Z</time></trkpt><trkpt lat="37.9433179022484" lon="-4.799158912875564"><ele>390.25</ele><time>2026-04-05T15:17:01.921Z</time></trkpt><trkpt lat="37.943248459476344" lon="-4.799001409088424"><ele>392.0</ele><time>2026-04-05T15:17:02.921Z</time></trkpt><trkpt lat="37.94316298989706" lon="-4.798843669356491"><ele>392.0</ele><time>2026-04-05T15:17:03.921Z</time></trkpt><trkpt lat="37.943066016049315" lon="-4.798702608528992"><ele>392.0</ele><time>2026-04-05T15:17:04.921Z</time></trkpt><trkpt lat="37.9429674457357" lon="-4.798572258307313"><ele>392.0</ele><time>2026-04-05T15:17:05.921Z</time></trkpt><trkpt lat="37.94287079222949" lon="-4.798450105461938"><ele>392.0</ele><time>2026-04-05T15:17:06.921Z</time></trkpt><trkpt lat="37.94277638173981" lon="-4.7983419814650645"><ele>390.75</ele><time>2026-04-05T15:17:07.921Z</time></trkpt><trkpt lat="37.94268115966011" lon="-4.7982487101412925"><ele>389.5</ele><time>2026-04-05T15:17:08.921Z</time></trkpt><trkpt lat="37.94258263324424" lon="-4.798162619543951"><ele>388.25</ele><time>2026-04-05T15:17:09.921Z</time></trkpt><trkpt lat="37.94247006573671" lon="-4.798130817896769"><ele>387.0</ele><time>2026-04-05T15:17:10.921Z</time></trkpt><trkpt lat="37.94236350679555" lon="-4.798144889771433"><ele>387.0</ele><time>2026-04-05T15:17:11.921Z</time></trkpt><trkpt lat="37.94228245898467" lon="-4.798207808854538"><ele>387.0</ele><time>2026-04-05T15:17:12.921Z</time></trkpt><trkpt lat="37.94222271490696" lon="-4.798314321856975"><ele>387.0</ele><time>2026-04-05T15:17:13.921Z</time></trkpt><trkpt lat="37.94216370408656" lon="-4.798446300663536"><ele>387.0</ele><time>2026-04-05T15:17:14.921Z</time></trkpt><trkpt lat="37.94209015974063" lon="-4.798574924096331"><ele>387.0</ele><time>2026-04-05T15:17:15.921Z</time></trkpt><trkpt lat="37.94200826129485" lon="-4.798691120025454"><ele>387.8</ele><time>2026-04-05T15:17:16.921Z</time></trkpt><trkpt lat="37.94192215597853" lon="-4.798786984655956"><ele>388.6</ele><time>2026-04-05T15:17:17.921Z</time></trkpt><trkpt lat="37.94183731295997" lon="-4.79887884726732"><ele>389.40000000000003</ele><time>2026-04-05T15:17:18.921Z</time></trkpt><trkpt lat="37.94176295591839" lon="-4.798970030341345"><ele>390.20000000000005</ele><time>2026-04-05T15:17:19.919Z</time></trkpt><trkpt lat="37.941716629615286" lon="-4.799063243312683"><ele>391.0</ele><time>2026-04-05T15:17:20.919Z</time></trkpt><trkpt lat="37.94169794338276" lon="-4.799178817931855"><ele>391.0</ele><time>2026-04-05T15:17:21.919Z</time></trkpt><trkpt lat="37.94171684573567" lon="-4.7993111457273505"><ele>391.0</ele><time>2026-04-05T15:17:22.919Z</time></trkpt><trkpt lat="37.941739278420634" lon="-4.799446810151309"><ele>391.0</ele><time>2026-04-05T15:17:23.919Z</time></trkpt><trkpt lat="37.94177731497387" lon="-4.799583057434511"><ele>391.0</ele><time>2026-04-05T15:17:24.919Z</time></trkpt><trkpt lat="37.94182540396586" lon="-4.799719985186794"><ele>391.0</ele><time>2026-04-05T15:17:25.919Z</time></trkpt><trkpt lat="37.94187966914734" lon="-4.7998567746527705"><ele>390.25</ele><time>2026-04-05T15:17:26.918Z</time></trkpt><trkpt lat="37.941933898366386" lon="-4.7999950670416265"><ele>389.5</ele><time>2026-04-05T15:17:27.918Z</time></trkpt><trkpt lat="37.941995918821966" lon="-4.800131837866642"><ele>388.75</ele><time>2026-04-05T15:17:28.919Z</time></trkpt><trkpt lat="37.94206243838361" lon="-4.800265652748547"><ele>388.0</ele><time>2026-04-05T15:17:29.918Z</time></trkpt><trkpt lat="37.94212979892422" lon="-4.800399517149201"><ele>386.0</ele><time>2026-04-05T15:17:30.918Z</time></trkpt><trkpt lat="37.94219605648334" lon="-4.800534606076933"><ele>384.0</ele><time>2026-04-05T15:17:31.918Z</time></trkpt><trkpt lat="37.94225821298426" lon="-4.800669872506149"><ele>382.0</ele><time>2026-04-05T15:17:32.918Z</time></trkpt><trkpt lat="37.94231750890548" lon="-4.800801057406512"><ele>380.0</ele><time>2026-04-05T15:17:33.918Z</time></trkpt><trkpt lat="37.942339840271806" lon="-4.80095075592218"><ele>380.0</ele><time>2026-04-05T15:17:34.918Z</time></trkpt><trkpt lat="37.94233877513121" lon="-4.801106859385208"><ele>380.0</ele><time>2026-04-05T15:17:35.918Z</time></trkpt><trkpt lat="37.94230637596355" lon="-4.8012596702562895"><ele>380.0</ele><time>2026-04-05T15:17:36.918Z</time></trkpt><trkpt lat="37.942257136327974" lon="-4.801404251608375"><ele>380.0</ele><time>2026-04-05T15:17:37.918Z</time></trkpt><trkpt lat="37.94219846042175" lon="-4.801537003375579"><ele>380.0</ele><time>2026-04-05T15:17:38.918Z</time></trkpt><trkpt lat="37.94212027188958" lon="-4.801642969383699"><ele>380.0</ele><time>2026-04-05T15:17:39.918Z</time></trkpt><trkpt lat="37.942028432645316" lon="-4.801700326981236"><ele>380.0</ele><time>2026-04-05T15:17:40.918Z</time></trkpt><trkpt lat="37.941930349347665" lon="-4.801698401767601"><ele>380.0</ele><time>2026-04-05T15:17:41.918Z</time></trkpt><trkpt lat="37.94181858252367" lon="-4.8016793422954605"><ele>380.0</ele><time>2026-04-05T15:17:42.918Z</time></trkpt><trkpt lat="37.941706797236684" lon="-4.801621186842665"><ele>377.5</ele><time>2026-04-05T15:17:43.918Z</time></trkpt><trkpt lat="37.94158592848245" lon="-4.801535523516312"><ele>375.0</ele><time>2026-04-05T15:17:44.918Z</time></trkpt><trkpt lat="37.94147202675848" lon="-4.801430178745423"><ele>372.5</ele><time>2026-04-05T15:17:45.918Z</time></trkpt><trkpt lat="37.94136805222773" lon="-4.801296522427502"><ele>370.0</ele><time>2026-04-05T15:17:46.918Z</time></trkpt><trkpt lat="37.94126035574727" lon="-4.801179465918289"><ele>370.0</ele><time>2026-04-05T15:17:47.918Z</time></trkpt><trkpt lat="37.941148780364244" lon="-4.801058469608292"><ele>370.0</ele><time>2026-04-05T15:17:48.918Z</time></trkpt><trkpt lat="37.94103491511545" lon="-4.8009366342241195"><ele>370.0</ele><time>2026-04-05T15:17:49.918Z</time></trkpt><trkpt lat="37.940912490436965" lon="-4.8008239392606855"><ele>370.0</ele><time>2026-04-05T15:17:50.918Z</time></trkpt><trkpt lat="37.940780335229704" lon="-4.800718726859797"><ele>367.5</ele><time>2026-04-05T15:17:51.918Z</time></trkpt><trkpt lat="37.940649129222656" lon="-4.800617149364159"><ele>365.0</ele><time>2026-04-05T15:17:52.918Z</time></trkpt><trkpt lat="37.94051586120811" lon="-4.8005345305682745"><ele>362.5</ele><time>2026-04-05T15:17:53.918Z</time></trkpt><trkpt lat="37.940397951276445" lon="-4.800439150430726"><ele>360.0</ele><time>2026-04-05T15:17:54.918Z</time></trkpt><trkpt lat="37.94028528233539" lon="-4.800347071282355"><ele>360.0</ele><time>2026-04-05T15:17:55.918Z</time></trkpt><trkpt lat="37.94017701639813" lon="-4.800253513165754"><ele>360.0</ele><time>2026-04-05T15:17:56.918Z</time></trkpt><trkpt lat="37.94007104613596" lon="-4.800156171678646"><ele>360.0</ele><time>2026-04-05T15:17:57.918Z</time></trkpt><trkpt lat="37.939967375237394" lon="-4.800049974099409"><ele>360.0</ele><time>2026-04-05T15:17:58.918Z</time></trkpt><trkpt lat="37.93986621568067" lon="-4.799940149476542"><ele>358.0</ele><time>2026-04-05T15:17:59.918Z</time></trkpt><trkpt lat="37.939773561374835" lon="-4.7998303750770965"><ele>356.0</ele><time>2026-04-05T15:18:00.918Z</time></trkpt><trkpt lat="37.93966581887741" lon="-4.799762197376988"><ele>354.0</ele><time>2026-04-05T15:18:01.918Z</time></trkpt><trkpt lat="37.93953752868025" lon="-4.799736292534963"><ele>352.0</ele><time>2026-04-05T15:18:02.918Z</time></trkpt><trkpt lat="37.93938629558578" lon="-4.799714711500748"><ele>352.0</ele><time>2026-04-05T15:18:03.918Z</time></trkpt><trkpt lat="37.93922412959582" lon="-4.799681680016548"><ele>352.0</ele><time>2026-04-05T15:18:04.918Z</time></trkpt><trkpt lat="37.939052154127815" lon="-4.799629049581145"><ele>352.0</ele><time>2026-04-05T15:18:05.918Z</time></trkpt><trkpt lat="37.938872051031574" lon="-4.799561632686436"><ele>350.66666666666663</ele><time>2026-04-05T15:18:06.918Z</time></trkpt><trkpt lat="37.938695513324134" lon="-4.799484313818066"><ele>349.3333333333333</ele><time>2026-04-05T15:18:07.918Z</time></trkpt><trkpt lat="37.93851782394355" lon="-4.799398024518724"><ele>348.0</ele><time>2026-04-05T15:18:08.918Z</time></trkpt><trkpt lat="37.938349825303305" lon="-4.79930042706111"><ele>346.0</ele><time>2026-04-05T15:18:09.918Z</time></trkpt><trkpt lat="37.93819710745731" lon="-4.799209173974887"><ele>344.0</ele><time>2026-04-05T15:18:10.918Z</time></trkpt><trkpt lat="37.93804862818719" lon="-4.799107427977462"><ele>342.0</ele><time>2026-04-05T15:18:11.918Z</time></trkpt><trkpt lat="37.937902761754785" lon="-4.798993235622939"><ele>342.0</ele><time>2026-04-05T15:18:12.918Z</time></trkpt><trkpt lat="37.937758758676885" lon="-4.798879449065781"><ele>342.0</ele><time>2026-04-05T15:18:13.918Z</time></trkpt><trkpt lat="37.93762248109773" lon="-4.798768193233017"><ele>342.0</ele><time>2026-04-05T15:18:14.918Z</time></trkpt><trkpt lat="37.93748729845375" lon="-4.798663616988164"><ele>343.3333333333333</ele><time>2026-04-05T15:18:15.918Z</time></trkpt><trkpt lat="37.93735023828716" lon="-4.79857404024589"><ele>344.66666666666663</ele><time>2026-04-05T15:18:16.918Z</time></trkpt><trkpt lat="37.93721093952702" lon="-4.798501844014173"><ele>346.0</ele><time>2026-04-05T15:18:17.918Z</time></trkpt><trkpt lat="37.93706970945088" lon="-4.798437309204654"><ele>344.0</ele><time>2026-04-05T15:18:18.918Z</time></trkpt><trkpt lat="37.93692765347284" lon="-4.79839829257603"><ele>342.0</ele><time>2026-04-05T15:18:19.918Z</time></trkpt><trkpt lat="37.93679053913949" lon="-4.798324214295485"><ele>340.0</ele><time>2026-04-05T15:18:20.918Z</time></trkpt><trkpt lat="37.936651180230484" lon="-4.7982247017331945"><ele>340.0</ele><time>2026-04-05T15:18:21.918Z</time></trkpt><trkpt lat="37.93650923838378" lon="-4.798103430119498"><ele>340.0</ele><time>2026-04-05T15:18:22.918Z</time></trkpt><trkpt lat="37.936366762998034" lon="-4.7979715869799975"><ele>340.0</ele><time>2026-04-05T15:18:23.918Z</time></trkpt><trkpt lat="37.93622259522446" lon="-4.797835663992606"><ele>340.0</ele><time>2026-04-05T15:18:24.918Z</time></trkpt><trkpt lat="37.93607459396678" lon="-4.797698763913469"><ele>340.0</ele><time>2026-04-05T15:18:25.918Z</time></trkpt><trkpt lat="37.93593044771031" lon="-4.7975674820215115"><ele>340.0</ele><time>2026-04-05T15:18:26.918Z</time></trkpt><trkpt lat="37.93578733314341" lon="-4.797439659048695"><ele>337.66666666666663</ele><time>2026-04-05T15:18:27.918Z</time></trkpt><trkpt lat="37.93564949722916" lon="-4.797302855070134"><ele>335.3333333333333</ele><time>2026-04-05T15:18:28.918Z</time></trkpt><trkpt lat="37.93548978807412" lon="-4.797215984827803"><ele>333.0</ele><time>2026-04-05T15:18:29.918Z</time></trkpt><trkpt lat="37.93531935666457" lon="-4.797141306273106"><ele>333.0</ele><time>2026-04-05T15:18:30.918Z</time></trkpt><trkpt lat="37.93513801881947" lon="-4.7970979426548555"><ele>333.0</ele><time>2026-04-05T15:18:31.918Z</time></trkpt><trkpt lat="37.93496762679671" lon="-4.797044207049488"><ele>333.0</ele><time>2026-04-05T15:18:32.918Z</time></trkpt><trkpt lat="37.93480425049069" lon="-4.7969897907005"><ele>331.6666666666667</ele><time>2026-04-05T15:18:33.918Z</time></trkpt><trkpt lat="37.934646715423746" lon="-4.796936379694839"><ele>330.33333333333337</ele><time>2026-04-05T15:18:34.918Z</time></trkpt><trkpt lat="37.934497127838746" lon="-4.796882590826058"><ele>329.0</ele><time>2026-04-05T15:18:35.918Z</time></trkpt><trkpt lat="37.93434906441745" lon="-4.796820920750792"><ele>327.0</ele><time>2026-04-05T15:18:36.918Z</time></trkpt><trkpt lat="37.93421123412387" lon="-4.796749640268563"><ele>325.0</ele><time>2026-04-05T15:18:37.918Z</time></trkpt><trkpt lat="37.93407293051358" lon="-4.796651468300737"><ele>323.0</ele><time>2026-04-05T15:18:38.918Z</time></trkpt><trkpt lat="37.93393933879001" lon="-4.796507159960781"><ele>323.0</ele><time>2026-04-05T15:18:39.918Z</time></trkpt><trkpt lat="37.93380857257601" lon="-4.796352946335042"><ele>323.0</ele><time>2026-04-05T15:18:40.918Z</time></trkpt><trkpt lat="37.93366914036919" lon="-4.796200307032939"><ele>323.0</ele><time>2026-04-05T15:18:41.918Z</time></trkpt><trkpt lat="37.93353228292262" lon="-4.79605114264674"><ele>321.6666666666667</ele><time>2026-04-05T15:18:42.918Z</time></trkpt><trkpt lat="37.933394801688834" lon="-4.79590100042607"><ele>320.3333333333333</ele><time>2026-04-05T15:18:43.918Z</time></trkpt><trkpt lat="37.93325759508841" lon="-4.795751536145212"><ele>319.0</ele><time>2026-04-05T15:18:44.918Z</time></trkpt><trkpt lat="37.93312355594001" lon="-4.795611423109847"><ele>317.66666666666663</ele><time>2026-04-05T15:18:45.918Z</time></trkpt><trkpt lat="37.932994815418915" lon="-4.7954722984287645"><ele>316.3333333333333</ele><time>2026-04-05T15:18:46.918Z</time></trkpt><trkpt lat="37.932876039733436" lon="-4.795326374550677"><ele>315.0</ele><time>2026-04-05T15:18:47.918Z</time></trkpt><trkpt lat="37.932766207106795" lon="-4.79518611454688"><ele>312.6666666666667</ele><time>2026-04-05T15:18:48.918Z</time></trkpt><trkpt lat="37.932646532705554" lon="-4.795042084712639"><ele>310.33333333333337</ele><time>2026-04-05T15:18:49.918Z</time></trkpt><trkpt lat="37.93249222694051" lon="-4.794935029870669"><ele>308.0</ele><time>2026-04-05T15:18:50.918Z</time></trkpt><trkpt lat="37.932349649176565" lon="-4.794787132125043"><ele>306.6666666666667</ele><time>2026-04-05T15:18:51.918Z</time></trkpt><trkpt lat="37.93223109214686" lon="-4.794615318407221"><ele>305.3333333333333</ele><time>2026-04-05T15:18:52.918Z</time></trkpt><trkpt lat="37.93212874750087" lon="-4.794455146417111"><ele>304.0</ele><time>2026-04-05T15:18:53.918Z</time></trkpt><trkpt lat="37.93203654704072" lon="-4.794297420734836"><ele>302.5</ele><time>2026-04-05T15:18:54.918Z</time></trkpt><trkpt lat="37.93192720767136" lon="-4.794159992846102"><ele>301.0</ele><time>2026-04-05T15:18:55.918Z</time></trkpt><trkpt lat="37.9318110338536" lon="-4.794040237698625"><ele>299.5</ele><time>2026-04-05T15:18:56.918Z</time></trkpt><trkpt lat="37.93171368530918" lon="-4.7939073330668815"><ele>298.0</ele><time>2026-04-05T15:18:57.918Z</time></trkpt><trkpt lat="37.93162780253494" lon="-4.793766718458824"><ele>298.0</ele><time>2026-04-05T15:18:58.918Z</time></trkpt><trkpt lat="37.9315565115777" lon="-4.793626862415515"><ele>298.0</ele><time>2026-04-05T15:18:59.918Z</time></trkpt><trkpt lat="37.93151100844873" lon="-4.793483087141709"><ele>298.0</ele><time>2026-04-05T15:19:00.918Z</time></trkpt><trkpt lat="37.931508539322195" lon="-4.793319920529365"><ele>298.0</ele><time>2026-04-05T15:19:01.918Z</time></trkpt><trkpt lat="37.93148821399265" lon="-4.793163011772897"><ele>295.75</ele><time>2026-04-05T15:19:02.918Z</time></trkpt><trkpt lat="37.93143249108562" lon="-4.7930187606292805"><ele>293.5</ele><time>2026-04-05T15:19:03.918Z</time></trkpt><trkpt lat="37.93135083802235" lon="-4.792878791897063"><ele>291.25</ele><time>2026-04-05T15:19:04.918Z</time></trkpt><trkpt lat="37.93123894493332" lon="-4.792764078031236"><ele>289.0</ele><time>2026-04-05T15:19:05.918Z</time></trkpt><trkpt lat="37.931137649765205" lon="-4.792645228847418"><ele>288.75</ele><time>2026-04-05T15:19:06.918Z</time></trkpt><trkpt lat="37.93103987111548" lon="-4.792532522574794"><ele>288.5</ele><time>2026-04-05T15:19:07.918Z</time></trkpt><trkpt lat="37.93097675507985" lon="-4.792379863705651"><ele>288.25</ele><time>2026-04-05T15:19:08.918Z</time></trkpt><trkpt lat="37.93092786761542" lon="-4.792219045503288"><ele>288.0</ele><time>2026-04-05T15:19:09.918Z</time></trkpt><trkpt lat="37.93087909877359" lon="-4.792050276364493"><ele>288.0</ele><time>2026-04-05T15:19:10.918Z</time></trkpt><trkpt lat="37.93079575187748" lon="-4.791915766334578"><ele>288.0</ele><time>2026-04-05T15:19:11.918Z</time></trkpt><trkpt lat="37.93070668157248" lon="-4.791817971931669"><ele>288.0</ele><time>2026-04-05T15:19:12.918Z</time></trkpt><trkpt lat="37.93060487960104" lon="-4.791749752492183"><ele>288.0</ele><time>2026-04-05T15:19:13.918Z</time></trkpt><trkpt lat="37.93048371550347" lon="-4.791732908918469"><ele>287.25</ele><time>2026-04-05T15:19:14.918Z</time></trkpt><trkpt lat="37.93035402207787" lon="-4.7917391980498945"><ele>286.5</ele><time>2026-04-05T15:19:15.918Z</time></trkpt><trkpt lat="37.93023244346904" lon="-4.791761554285572"><ele>285.75</ele><time>2026-04-05T15:19:16.918Z</time></trkpt><trkpt lat="37.93012584263036" lon="-4.79180681226905"><ele>285.0</ele><time>2026-04-05T15:19:17.918Z</time></trkpt><trkpt lat="37.93002995704412" lon="-4.791875344647286"><ele>285.0</ele><time>2026-04-05T15:19:18.918Z</time></trkpt><trkpt lat="37.92992974126655" lon="-4.791934070455362"><ele>285.0</ele><time>2026-04-05T15:19:19.918Z</time></trkpt><trkpt lat="37.92981012088728" lon="-4.791952446695961"><ele>285.0</ele><time>2026-04-05T15:19:20.918Z</time></trkpt><trkpt lat="37.92967988118182" lon="-4.791927743630895"><ele>285.0</ele><time>2026-04-05T15:19:21.918Z</time></trkpt><trkpt lat="37.92955411478446" lon="-4.791890805876359"><ele>285.0</ele><time>2026-04-05T15:19:22.918Z</time></trkpt><trkpt lat="37.929432588964715" lon="-4.791856186633357"><ele>285.0</ele><time>2026-04-05T15:19:23.918Z</time></trkpt><trkpt lat="37.929306503462094" lon="-4.791818275734688"><ele>285.0</ele><time>2026-04-05T15:19:24.918Z</time></trkpt><trkpt lat="37.929178551090736" lon="-4.79181452502681"><ele>285.0</ele><time>2026-04-05T15:19:25.915Z</time></trkpt><trkpt lat="37.929039119677334" lon="-4.791830255685922"><ele>282.5</ele><time>2026-04-05T15:19:26.916Z</time></trkpt><trkpt lat="37.92890595502139" lon="-4.791859666230407"><ele>280.0</ele><time>2026-04-05T15:19:27.916Z</time></trkpt><trkpt lat="37.92878143998066" lon="-4.79189006571704"><ele>277.5</ele><time>2026-04-05T15:19:28.915Z</time></trkpt><trkpt lat="37.92865423676474" lon="-4.791912804837765"><ele>275.0</ele><time>2026-04-05T15:19:29.916Z</time></trkpt><trkpt lat="37.928519977306074" lon="-4.791903274662414"><ele>273.25</ele><time>2026-04-05T15:19:30.916Z</time></trkpt><trkpt lat="37.92837402865131" lon="-4.79186522935143"><ele>271.5</ele><time>2026-04-05T15:19:31.916Z</time></trkpt><trkpt lat="37.928227704988984" lon="-4.791806144959707"><ele>269.75</ele><time>2026-04-05T15:19:32.915Z</time></trkpt><trkpt lat="37.92808837715304" lon="-4.791752350972715"><ele>268.0</ele><time>2026-04-05T15:19:33.915Z</time></trkpt><trkpt lat="37.927950929384416" lon="-4.791728991255133"><ele>268.0</ele><time>2026-04-05T15:19:34.915Z</time></trkpt><trkpt lat="37.92781201664694" lon="-4.7916938363061785"><ele>268.0</ele><time>2026-04-05T15:19:35.915Z</time></trkpt><trkpt lat="37.92767001066282" lon="-4.791661701055602"><ele>268.0</ele><time>2026-04-05T15:19:36.915Z</time></trkpt><trkpt lat="37.92752449056402" lon="-4.7916297976132824"><ele>268.0</ele><time>2026-04-05T15:19:37.916Z</time></trkpt><trkpt lat="37.927382067389836" lon="-4.791598573126919"><ele>267.0</ele><time>2026-04-05T15:19:38.916Z</time></trkpt><trkpt lat="37.92725124874059" lon="-4.791564388911187"><ele>266.0</ele><time>2026-04-05T15:19:39.916Z</time></trkpt><trkpt lat="37.92712741345587" lon="-4.791519169847282"><ele>265.0</ele><time>2026-04-05T15:19:40.916Z</time></trkpt><trkpt lat="37.92702005452456" lon="-4.791440460239752"><ele>264.0</ele><time>2026-04-05T15:19:41.916Z</time></trkpt><trkpt lat="37.9269274573405" lon="-4.791335107316171"><ele>264.0</ele><time>2026-04-05T15:19:42.916Z</time></trkpt><trkpt lat="37.92684504204404" lon="-4.791221467601992"><ele>264.0</ele><time>2026-04-05T15:19:43.916Z</time></trkpt><trkpt lat="37.92677095909741" lon="-4.7911011232854115"><ele>264.0</ele><time>2026-04-05T15:19:44.916Z</time></trkpt><trkpt lat="37.926704976594365" lon="-4.7909657804387775"><ele>264.0</ele><time>2026-04-05T15:19:45.916Z</time></trkpt><trkpt lat="37.92665868288529" lon="-4.790819664861886"><ele>262.5</ele><time>2026-04-05T15:19:46.916Z</time></trkpt><trkpt lat="37.92663283120392" lon="-4.790677941645737"><ele>261.0</ele><time>2026-04-05T15:19:47.916Z</time></trkpt><trkpt lat="37.926576075065626" lon="-4.790561183661801"><ele>259.5</ele><time>2026-04-05T15:19:48.916Z</time></trkpt><trkpt lat="37.92649342314522" lon="-4.790466893999162"><ele>258.0</ele><time>2026-04-05T15:19:49.916Z</time></trkpt><trkpt lat="37.92638283584573" lon="-4.7903986482600995"><ele>258.0</ele><time>2026-04-05T15:19:50.916Z</time></trkpt><trkpt lat="37.9262525933783" lon="-4.790339499449775"><ele>258.0</ele><time>2026-04-05T15:19:51.916Z</time></trkpt><trkpt lat="37.92612402500099" lon="-4.790288560177143"><ele>258.0</ele><time>2026-04-05T15:19:52.916Z</time></trkpt><trkpt lat="37.92599482579952" lon="-4.790233320780348"><ele>258.0</ele><time>2026-04-05T15:19:53.916Z</time></trkpt><trkpt lat="37.92586697285285" lon="-4.790173721267887"><ele>256.5</ele><time>2026-04-05T15:19:54.916Z</time></trkpt><trkpt lat="37.92574167226234" lon="-4.790108915838739"><ele>255.0</ele><time>2026-04-05T15:19:55.916Z</time></trkpt><trkpt lat="37.92561175379118" lon="-4.790043822637023"><ele>253.5</ele><time>2026-04-05T15:19:56.916Z</time></trkpt><trkpt lat="37.92547794996279" lon="-4.789978127357305"><ele>252.0</ele><time>2026-04-05T15:19:57.916Z</time></trkpt><trkpt lat="37.92534274390671" lon="-4.789910970494639"><ele>252.0</ele><time>2026-04-05T15:19:58.916Z</time></trkpt><trkpt lat="37.92520931997078" lon="-4.7898436960861694"><ele>252.0</ele><time>2026-04-05T15:19:59.916Z</time></trkpt><trkpt lat="37.92507900229525" lon="-4.789768016088384"><ele>252.0</ele><time>2026-04-05T15:20:00.916Z</time></trkpt><trkpt lat="37.92495150595078" lon="-4.789686232787455"><ele>252.0</ele><time>2026-04-05T15:20:01.916Z</time></trkpt><trkpt lat="37.92482228296557" lon="-4.789600155065536"><ele>249.33333333333331</ele><time>2026-04-05T15:20:02.916Z</time></trkpt><trkpt lat="37.92468998641388" lon="-4.7895094998674255"><ele>246.66666666666666</ele><time>2026-04-05T15:20:03.916Z</time></trkpt><trkpt lat="37.924551893689724" lon="-4.789423019991419"><ele>244.0</ele><time>2026-04-05T15:20:04.916Z</time></trkpt><trkpt lat="37.92441599014036" lon="-4.789348531175265"><ele>244.0</ele><time>2026-04-05T15:20:05.916Z</time></trkpt><trkpt lat="37.92428067629179" lon="-4.789294054261443"><ele>244.0</ele><time>2026-04-05T15:20:06.916Z</time></trkpt><trkpt lat="37.92414705754335" lon="-4.789243129251099"><ele>244.0</ele><time>2026-04-05T15:20:07.916Z</time></trkpt><trkpt lat="37.92401818657367" lon="-4.789180824364596"><ele>244.0</ele><time>2026-04-05T15:20:08.916Z</time></trkpt><trkpt lat="37.923906491106614" lon="-4.789081805719967"><ele>240.66666666666666</ele><time>2026-04-05T15:20:09.916Z</time></trkpt><trkpt lat="37.923814091252424" lon="-4.788948320649633"><ele>237.33333333333331</ele><time>2026-04-05T15:20:10.916Z</time></trkpt><trkpt lat="37.92373552608365" lon="-4.788773101083277"><ele>234.0</ele><time>2026-04-05T15:20:11.916Z</time></trkpt><trkpt lat="37.923655260193" lon="-4.788602376118092"><ele>233.5</ele><time>2026-04-05T15:20:12.916Z</time></trkpt><trkpt lat="37.923565343515996" lon="-4.7884459033856555"><ele>233.0</ele><time>2026-04-05T15:20:13.916Z</time></trkpt><trkpt lat="37.92346364618936" lon="-4.7883188162451225"><ele>232.5</ele><time>2026-04-05T15:20:14.916Z</time></trkpt><trkpt lat="37.923343130907526" lon="-4.788225810221832"><ele>232.0</ele><time>2026-04-05T15:20:15.916Z</time></trkpt><trkpt lat="37.92320140595778" lon="-4.788164695696459"><ele>232.0</ele><time>2026-04-05T15:20:16.916Z</time></trkpt><trkpt lat="37.923056178250434" lon="-4.788124802709103"><ele>232.0</ele><time>2026-04-05T15:20:17.916Z</time></trkpt><trkpt lat="37.92290167726486" lon="-4.788112335886139"><ele>232.0</ele><time>2026-04-05T15:20:18.916Z</time></trkpt><trkpt lat="37.922751488648686" lon="-4.788088535400585"><ele>232.0</ele><time>2026-04-05T15:20:19.916Z</time></trkpt><trkpt lat="37.922596287235436" lon="-4.788057350639388"><ele>232.0</ele><time>2026-04-05T15:20:20.916Z</time></trkpt><trkpt lat="37.92245159204191" lon="-4.788030899950034"><ele>232.0</ele><time>2026-04-05T15:20:21.916Z</time></trkpt><trkpt lat="37.92231345774633" lon="-4.788015338148593"><ele>232.0</ele><time>2026-04-05T15:20:22.916Z</time></trkpt><trkpt lat="37.92217720317849" lon="-4.787997522014044"><ele>231.25</ele><time>2026-04-05T15:20:23.916Z</time></trkpt><trkpt lat="37.9220398741371" lon="-4.787971796287782"><ele>230.5</ele><time>2026-04-05T15:20:24.916Z</time></trkpt><trkpt lat="37.92189547371796" lon="-4.787934705239273"><ele>229.75</ele><time>2026-04-05T15:20:25.916Z</time></trkpt><trkpt lat="37.92174731606622" lon="-4.787878707596113"><ele>229.0</ele><time>2026-04-05T15:20:26.916Z</time></trkpt><trkpt lat="37.921600360234414" lon="-4.787805042828594"><ele>229.0</ele><time>2026-04-05T15:20:27.916Z</time></trkpt><trkpt lat="37.921459116275216" lon="-4.787712033018256"><ele>229.0</ele><time>2026-04-05T15:20:28.916Z</time></trkpt><trkpt lat="37.92132547827056" lon="-4.787612977345557"><ele>229.0</ele><time>2026-04-05T15:20:29.916Z</time></trkpt><trkpt lat="37.92119962651239" lon="-4.787515623583567"><ele>229.0</ele><time>2026-04-05T15:20:30.916Z</time></trkpt><trkpt lat="37.92108187857515" lon="-4.787423406519497"><ele>229.0</ele><time>2026-04-05T15:20:31.916Z</time></trkpt><trkpt lat="37.920970094993756" lon="-4.787334435259248"><ele>229.0</ele><time>2026-04-05T15:20:32.916Z</time></trkpt><trkpt lat="37.92085979206921" lon="-4.787246564686008"><ele>229.0</ele><time>2026-04-05T15:20:33.916Z</time></trkpt><trkpt lat="37.92074776218006" lon="-4.787156926360264"><ele>229.25</ele><time>2026-04-05T15:20:34.916Z</time></trkpt><trkpt lat="37.920640594182736" lon="-4.787057864440167"><ele>229.5</ele><time>2026-04-05T15:20:35.916Z</time></trkpt><trkpt lat="37.92054291417462" lon="-4.78694389377303"><ele>229.75</ele><time>2026-04-05T15:20:36.916Z</time></trkpt><trkpt lat="37.92045446705879" lon="-4.7868266074740635"><ele>230.0</ele><time>2026-04-05T15:20:37.916Z</time></trkpt><trkpt lat="37.9203626662591" lon="-4.78669369319342"><ele>228.75</ele><time>2026-04-05T15:20:38.916Z</time></trkpt><trkpt lat="37.92026280886059" lon="-4.7865919548971"><ele>227.5</ele><time>2026-04-05T15:20:39.916Z</time></trkpt><trkpt lat="37.92016467982533" lon="-4.78647675370634"><ele>226.25</ele><time>2026-04-05T15:20:40.916Z</time></trkpt><trkpt lat="37.920065819220746" lon="-4.786372909645347"><ele>225.0</ele><time>2026-04-05T15:20:41.916Z</time></trkpt><trkpt lat="37.91997230446437" lon="-4.786277794830186"><ele>225.0</ele><time>2026-04-05T15:20:42.916Z</time></trkpt><trkpt lat="37.91987059386137" lon="-4.786187836226337"><ele>225.0</ele><time>2026-04-05T15:20:43.916Z</time></trkpt><trkpt lat="37.91976477572272" lon="-4.786105882985532"><ele>225.0</ele><time>2026-04-05T15:20:44.916Z</time></trkpt><trkpt lat="37.91965921600854" lon="-4.78603037862143"><ele>225.0</ele><time>2026-04-05T15:20:45.916Z</time></trkpt><trkpt lat="37.919550699620736" lon="-4.78597029946121"><ele>224.6</ele><time>2026-04-05T15:20:46.916Z</time></trkpt><trkpt lat="37.91944568011817" lon="-4.785919580518681"><ele>224.2</ele><time>2026-04-05T15:20:47.916Z</time></trkpt><trkpt lat="37.919342873671575" lon="-4.7858724799490195"><ele>223.8</ele><time>2026-04-05T15:20:48.916Z</time></trkpt><trkpt lat="37.91924669940232" lon="-4.785829064752127"><ele>223.4</ele><time>2026-04-05T15:20:49.916Z</time></trkpt><trkpt lat="37.919153307841746" lon="-4.7857842733860405"><ele>223.0</ele><time>2026-04-05T15:20:50.916Z</time></trkpt><trkpt lat="37.919065722375414" lon="-4.785737876594476"><ele>222.16666666666666</ele><time>2026-04-05T15:20:51.916Z</time></trkpt><trkpt lat="37.918978458840776" lon="-4.785695264805117"><ele>221.33333333333331</ele><time>2026-04-05T15:20:52.916Z</time></trkpt><trkpt lat="37.91889763074938" lon="-4.78565002254173"><ele>220.5</ele><time>2026-04-05T15:20:53.916Z</time></trkpt><trkpt lat="37.918825807351624" lon="-4.785609649267517"><ele>219.66666666666669</ele><time>2026-04-05T15:20:54.916Z</time></trkpt><trkpt lat="37.918760110772276" lon="-4.785573805311312"><ele>218.83333333333334</ele><time>2026-04-05T15:20:55.916Z</time></trkpt><trkpt lat="37.91869646846937" lon="-4.785542075645422"><ele>218.0</ele><time>2026-04-05T15:20:56.916Z</time></trkpt><trkpt lat="37.91857880185065" lon="-4.78548288813853"><ele>218.0</ele><time>2026-04-05T15:20:58.916Z</time></trkpt><trkpt lat="37.9184704653337" lon="-4.785435165141334"><ele>218.0</ele><time>2026-04-05T15:21:00.916Z</time></trkpt><trkpt lat="37.918357167724196" lon="-4.785388464515908"><ele>218.0</ele><time>2026-04-05T15:21:02.916Z</time></trkpt><trkpt lat="37.91827934277366" lon="-4.785362163342575"><ele>218.0</ele><time>2026-04-05T15:21:03.916Z</time></trkpt><trkpt lat="37.918192284095596" lon="-4.785340270396062"><ele>218.0</ele><time>2026-04-05T15:21:04.916Z</time></trkpt><trkpt lat="37.918102174984185" lon="-4.785330319554696"><ele>217.16666666666669</ele><time>2026-04-05T15:21:05.916Z</time></trkpt><trkpt lat="37.91802072097668" lon="-4.785335866700119"><ele>216.33333333333334</ele><time>2026-04-05T15:21:06.916Z</time></trkpt><trkpt lat="37.917948106212314" lon="-4.785341122935026"><ele>215.5</ele><time>2026-04-05T15:21:07.916Z</time></trkpt><trkpt lat="37.91788123192274" lon="-4.785350724119189"><ele>214.66666666666669</ele><time>2026-04-05T15:21:08.916Z</time></trkpt><trkpt lat="37.91781749827061" lon="-4.785363516520179"><ele>213.83333333333334</ele><time>2026-04-05T15:21:09.916Z</time></trkpt><trkpt lat="37.917692395895926" lon="-4.785388247202048"><ele>213.0</ele><time>2026-04-05T15:21:11.916Z</time></trkpt><trkpt lat="37.91761255654762" lon="-4.785400904444075"><ele>211.83333333333334</ele><time>2026-04-05T15:21:12.916Z</time></trkpt><trkpt lat="37.91753073491773" lon="-4.785410646637293"><ele>210.66666666666669</ele><time>2026-04-05T15:21:13.916Z</time></trkpt><trkpt lat="37.91744791642004" lon="-4.785416419251906"><ele>209.5</ele><time>2026-04-05T15:21:14.916Z</time></trkpt><trkpt lat="37.91737071615561" lon="-4.78541975713242"><ele>208.33333333333334</ele><time>2026-04-05T15:21:15.916Z</time></trkpt><trkpt lat="37.917295733687254" lon="-4.785421980804301"><ele>207.16666666666669</ele><time>2026-04-05T15:21:16.916Z</time></trkpt><trkpt lat="37.91722362604944" lon="-4.785420261297536"><ele>206.0</ele><time>2026-04-05T15:21:17.916Z</time></trkpt><trkpt lat="37.91714953949777" lon="-4.785421191054419"><ele>205.99999999999997</ele><time>2026-04-05T15:21:18.916Z</time></trkpt><trkpt lat="37.917072131546405" lon="-4.78542361415312"><ele>206.0</ele><time>2026-04-05T15:21:19.916Z</time></trkpt><trkpt lat="37.9170037970267" lon="-4.785419171967735"><ele>206.0</ele><time>2026-04-05T15:21:20.916Z</time></trkpt><trkpt lat="37.91693235989331" lon="-4.785417430890041"><ele>206.0</ele><time>2026-04-05T15:21:21.916Z</time></trkpt><trkpt lat="37.916864294131784" lon="-4.7854153523001965"><ele>206.0</ele><time>2026-04-05T15:21:22.916Z</time></trkpt><trkpt lat="37.916797092987274" lon="-4.785414009537447"><ele>205.99999999999997</ele><time>2026-04-05T15:21:23.916Z</time></trkpt><trkpt lat="37.91672609332468" lon="-4.785412206882111"><ele>206.0</ele><time>2026-04-05T15:21:24.916Z</time></trkpt><trkpt lat="37.91665834071599" lon="-4.78540824248535"><ele>204.99999999999997</ele><time>2026-04-05T15:21:25.916Z</time></trkpt><trkpt lat="37.91659360456267" lon="-4.78540498808241"><ele>204.0</ele><time>2026-04-05T15:21:26.916Z</time></trkpt><trkpt lat="37.916528040247805" lon="-4.7854049524194355"><ele>203.0</ele><time>2026-04-05T15:21:27.916Z</time></trkpt><trkpt lat="37.91645863851234" lon="-4.785401757406504"><ele>202.0</ele><time>2026-04-05T15:21:28.916Z</time></trkpt><trkpt lat="37.916385441809794" lon="-4.785393487934883"><ele>201.0</ele><time>2026-04-05T15:21:29.916Z</time></trkpt><trkpt lat="37.91631239996393" lon="-4.785386655532729"><ele>199.99999999999997</ele><time>2026-04-05T15:21:30.916Z</time></trkpt><trkpt lat="37.91623856078254" lon="-4.785383843912695"><ele>199.0</ele><time>2026-04-05T15:21:31.912Z</time></trkpt><trkpt lat="37.91616990255894" lon="-4.785381374171261"><ele>198.99999999999997</ele><time>2026-04-05T15:21:32.912Z</time></trkpt><trkpt lat="37.91610075113171" lon="-4.785375178456019"><ele>199.0</ele><time>2026-04-05T15:21:33.912Z</time></trkpt><trkpt lat="37.916034392828" lon="-4.785375178289228"><ele>199.0</ele><time>2026-04-05T15:21:34.912Z</time></trkpt><trkpt lat="37.91596807010419" lon="-4.7853710744561715"><ele>199.0</ele><time>2026-04-05T15:21:35.912Z</time></trkpt><trkpt lat="37.915889867639784" lon="-4.78536793121552"><ele>198.99999999999997</ele><time>2026-04-05T15:21:36.912Z</time></trkpt><trkpt lat="37.915805312536335" lon="-4.785361021546464"><ele>199.0</ele><time>2026-04-05T15:21:37.912Z</time></trkpt><trkpt lat="37.915715897004034" lon="-4.785354705985391"><ele>197.99999999999997</ele><time>2026-04-05T15:21:38.912Z</time></trkpt><trkpt lat="37.915622865273676" lon="-4.785347105769314"><ele>197.0</ele><time>2026-04-05T15:21:39.912Z</time></trkpt><trkpt lat="37.91553104949162" lon="-4.785340188630842"><ele>196.0</ele><time>2026-04-05T15:21:40.912Z</time></trkpt><trkpt lat="37.915442474438436" lon="-4.78533044695025"><ele>195.0</ele><time>2026-04-05T15:21:41.912Z</time></trkpt><trkpt lat="37.91536115689417" lon="-4.78532230656701"><ele>193.99999999999997</ele><time>2026-04-05T15:21:42.912Z</time></trkpt><trkpt lat="37.915282991132685" lon="-4.785318835648118"><ele>193.0</ele><time>2026-04-05T15:21:43.912Z</time></trkpt><trkpt lat="37.91520327534677" lon="-4.785318903363784"><ele>192.99999999999997</ele><time>2026-04-05T15:21:44.912Z</time></trkpt><trkpt lat="37.915119598339345" lon="-4.785317119628036"><ele>193.0</ele><time>2026-04-05T15:21:45.912Z</time></trkpt><trkpt lat="37.91503482896017" lon="-4.7853168821359695"><ele>193.0</ele><time>2026-04-05T15:21:46.912Z</time></trkpt><trkpt lat="37.91494931644142" lon="-4.785312847677098"><ele>193.0</ele><time>2026-04-05T15:21:47.912Z</time></trkpt><trkpt lat="37.914867574763456" lon="-4.785306263539787"><ele>192.99999999999997</ele><time>2026-04-05T15:21:48.912Z</time></trkpt><trkpt lat="37.91478995006665" lon="-4.785295791119953"><ele>193.0</ele><time>2026-04-05T15:21:49.912Z</time></trkpt><trkpt lat="37.914720558387216" lon="-4.78528730093868"><ele>191.99999999999997</ele><time>2026-04-05T15:21:50.912Z</time></trkpt><trkpt lat="37.914655022477675" lon="-4.7853001051083695"><ele>191.0</ele><time>2026-04-05T15:21:51.912Z</time></trkpt><trkpt lat="37.914570874458164" lon="-4.785292159923402"><ele>190.0</ele><time>2026-04-05T15:21:53.912Z</time></trkpt><trkpt lat="37.9145075031457" lon="-4.785288942493331"><ele>189.0</ele><time>2026-04-05T15:22:03.912Z</time></trkpt><trkpt lat="37.91442694199817" lon="-4.78528297104959"><ele>188.0</ele><time>2026-04-05T15:22:05.912Z</time></trkpt><trkpt lat="37.914334967343564" lon="-4.785276772999916"><ele>187.0</ele><time>2026-04-05T15:22:06.912Z</time></trkpt><trkpt lat="37.9142138860781" lon="-4.7852669240865096"><ele>185.75</ele><time>2026-04-05T15:22:07.912Z</time></trkpt><trkpt lat="37.914088866880846" lon="-4.785256507480895"><ele>184.5</ele><time>2026-04-05T15:22:08.912Z</time></trkpt><trkpt lat="37.91395803350566" lon="-4.785233477899005"><ele>183.25</ele><time>2026-04-05T15:22:09.912Z</time></trkpt><trkpt lat="37.9138365386331" lon="-4.78524488773145"><ele>182.0</ele><time>2026-04-05T15:22:10.912Z</time></trkpt><trkpt lat="37.913721060620254" lon="-4.7852376908703596"><ele>182.0</ele><time>2026-04-05T15:22:11.912Z</time></trkpt><trkpt lat="37.9136176347728" lon="-4.78522735762871"><ele>182.0</ele><time>2026-04-05T15:22:12.912Z</time></trkpt><trkpt lat="37.913521401548955" lon="-4.785215477838754"><ele>182.0</ele><time>2026-04-05T15:22:13.912Z</time></trkpt><trkpt lat="37.913433810974745" lon="-4.7852107718233965"><ele>182.0</ele><time>2026-04-05T15:22:14.912Z</time></trkpt><trkpt lat="37.913345815183284" lon="-4.785205046453873"><ele>182.0</ele><time>2026-04-05T15:22:15.912Z</time></trkpt><trkpt lat="37.91325141623465" lon="-4.785200221597162"><ele>181.0</ele><time>2026-04-05T15:22:16.912Z</time></trkpt><trkpt lat="37.91314958492931" lon="-4.785202944989987"><ele>180.0</ele><time>2026-04-05T15:22:17.912Z</time></trkpt><trkpt lat="37.91304873632433" lon="-4.785208469207945"><ele>179.0</ele><time>2026-04-05T15:22:18.912Z</time></trkpt><trkpt lat="37.91293577088985" lon="-4.785218678869829"><ele>178.0</ele><time>2026-04-05T15:22:19.912Z</time></trkpt><trkpt lat="37.91281789789729" lon="-4.785233799870144"><ele>177.0</ele><time>2026-04-05T15:22:20.912Z</time></trkpt><trkpt lat="37.91269828870028" lon="-4.785238947328064"><ele>176.75</ele><time>2026-04-05T15:22:21.912Z</time></trkpt><trkpt lat="37.91257248348584" lon="-4.7852507465853735"><ele>176.5</ele><time>2026-04-05T15:22:22.912Z</time></trkpt><trkpt lat="37.91244449376261" lon="-4.785263692283543"><ele>176.25</ele><time>2026-04-05T15:22:23.912Z</time></trkpt><trkpt lat="37.912318479246764" lon="-4.7852732973783985"><ele>176.0</ele><time>2026-04-05T15:22:24.912Z</time></trkpt><trkpt lat="37.91219335473005" lon="-4.785282670072361"><ele>176.0</ele><time>2026-04-05T15:22:25.912Z</time></trkpt><trkpt lat="37.91206985758149" lon="-4.785286545622449"><ele>176.0</ele><time>2026-04-05T15:22:26.912Z</time></trkpt><trkpt lat="37.91194960964093" lon="-4.78528459921485"><ele>176.0</ele><time>2026-04-05T15:22:27.912Z</time></trkpt><trkpt lat="37.911832390395254" lon="-4.785279551668882"><ele>176.0</ele><time>2026-04-05T15:22:28.912Z</time></trkpt><trkpt lat="37.91171869538973" lon="-4.785271850060206"><ele>175.8</ele><time>2026-04-05T15:22:29.912Z</time></trkpt><trkpt lat="37.9116064478019" lon="-4.785261767711541"><ele>175.60000000000002</ele><time>2026-04-05T15:22:30.912Z</time></trkpt><trkpt lat="37.91150132569983" lon="-4.785276494442983"><ele>175.4</ele><time>2026-04-05T15:22:31.912Z</time></trkpt><trkpt lat="37.911405081573115" lon="-4.78527314568702"><ele>175.2</ele><time>2026-04-05T15:22:32.912Z</time></trkpt><trkpt lat="37.91131120813306" lon="-4.7852698794078385"><ele>175.0</ele><time>2026-04-05T15:22:33.912Z</time></trkpt><trkpt lat="37.91122817132788" lon="-4.785255080465373"><ele>175.0</ele><time>2026-04-05T15:22:34.912Z</time></trkpt><trkpt lat="37.91116036850291" lon="-4.785305620605481"><ele>175.0</ele><time>2026-04-05T15:22:35.912Z</time></trkpt><trkpt lat="37.911112836658" lon="-4.785384146266031"><ele>175.0</ele><time>2026-04-05T15:22:36.912Z</time></trkpt><trkpt lat="37.91106580567962" lon="-4.7854680296701275"><ele>175.0</ele><time>2026-04-05T15:22:37.912Z</time></trkpt><trkpt lat="37.91099478922503" lon="-4.785532275995158"><ele>175.0</ele><time>2026-04-05T15:22:38.912Z</time></trkpt><trkpt lat="37.91089964792453" lon="-4.7855841008117315"><ele>175.0</ele><time>2026-04-05T15:22:39.912Z</time></trkpt><trkpt lat="37.91079237022623" lon="-4.785615026017244"><ele>174.5</ele><time>2026-04-05T15:22:40.912Z</time></trkpt><trkpt lat="37.91069688584881" lon="-4.785646337808143"><ele>174.0</ele><time>2026-04-05T15:22:41.912Z</time></trkpt><trkpt lat="37.91061654850226" lon="-4.78567039329154"><ele>173.5</ele><time>2026-04-05T15:22:42.912Z</time></trkpt><trkpt lat="37.910547448679885" lon="-4.785679713231574"><ele>173.0</ele><time>2026-04-05T15:22:43.912Z</time></trkpt><trkpt lat="37.910484831625844" lon="-4.785669718017273"><ele>172.5</ele><time>2026-04-05T15:22:44.912Z</time></trkpt><trkpt lat="37.91039252493756" lon="-4.785616849300188"><ele>172.0</ele><time>2026-04-05T15:22:46.912Z</time></trkpt><trkpt lat="37.91029161387047" lon="-4.785547309041698"><ele>172.0</ele><time>2026-04-05T15:22:48.912Z</time></trkpt><trkpt lat="37.910164123153976" lon="-4.785528552170928"><ele>172.0</ele><time>2026-04-05T15:22:50.912Z</time></trkpt><trkpt lat="37.91009812476487" lon="-4.785545645857746"><ele>172.0</ele><time>2026-04-05T15:22:51.912Z</time></trkpt><trkpt lat="37.91002412977328" lon="-4.78551788637807"><ele>172.0</ele><time>2026-04-05T15:22:52.912Z</time></trkpt><trkpt lat="37.90993995299642" lon="-4.785506934329025"><ele>172.0</ele><time>2026-04-05T15:22:53.912Z</time></trkpt><trkpt lat="37.909856551485106" lon="-4.785492061446111"><ele>172.0</ele><time>2026-04-05T15:22:54.912Z</time></trkpt><trkpt lat="37.90977933943406" lon="-4.785498298630375"><ele>171.66666666666669</ele><time>2026-04-05T15:22:55.912Z</time></trkpt><trkpt lat="37.909701384572735" lon="-4.785485391797358"><ele>171.33333333333334</ele><time>2026-04-05T15:22:56.912Z</time></trkpt><trkpt lat="37.909622287344" lon="-4.7854722958123155"><ele>171.0</ele><time>2026-04-05T15:22:57.912Z</time></trkpt><trkpt lat="37.909546289113074" lon="-4.7854402999992995"><ele>170.66666666666666</ele><time>2026-04-05T15:22:58.912Z</time></trkpt><trkpt lat="37.90946117637402" lon="-4.785429996908275"><ele>170.33333333333331</ele><time>2026-04-05T15:22:59.912Z</time></trkpt><trkpt lat="37.90937998380822" lon="-4.78541534982763"><ele>170.0</ele><time>2026-04-05T15:23:00.912Z</time></trkpt><trkpt lat="37.909302633162355" lon="-4.785401709645948"><ele>170.66666666666666</ele><time>2026-04-05T15:23:01.912Z</time></trkpt><trkpt lat="37.90922196969876" lon="-4.785389831108415"><ele>171.33333333333331</ele><time>2026-04-05T15:23:02.912Z</time></trkpt><trkpt lat="37.909131179175226" lon="-4.785399115033297"><ele>172.0</ele><time>2026-04-05T15:23:03.912Z</time></trkpt><trkpt lat="37.90904085589941" lon="-4.785392246762649"><ele>172.66666666666666</ele><time>2026-04-05T15:23:04.912Z</time></trkpt><trkpt lat="37.908952147349474" lon="-4.785403379702459"><ele>173.33333333333334</ele><time>2026-04-05T15:23:05.912Z</time></trkpt><trkpt lat="37.908859017397084" lon="-4.785412940242166"><ele>174.0</ele><time>2026-04-05T15:23:06.912Z</time></trkpt><trkpt lat="37.908776593239786" lon="-4.7854648511018265"><ele>174.0</ele><time>2026-04-05T15:23:07.912Z</time></trkpt><trkpt lat="37.90870339945497" lon="-4.785509570450198"><ele>174.0</ele><time>2026-04-05T15:23:08.912Z</time></trkpt><trkpt lat="37.90863933698839" lon="-4.78555250082054"><ele>174.0</ele><time>2026-04-05T15:23:09.912Z</time></trkpt><trkpt lat="37.90853595268772" lon="-4.785634901853661"><ele>174.0</ele><time>2026-04-05T15:23:11.912Z</time></trkpt><trkpt lat="37.9084360410836" lon="-4.785727635397452"><ele>174.0</ele><time>2026-04-05T15:23:13.912Z</time></trkpt><trkpt lat="37.90838631958945" lon="-4.785780463440893"><ele>173.6</ele><time>2026-04-05T15:23:14.912Z</time></trkpt><trkpt lat="37.90830808799578" lon="-4.785873086526761"><ele>173.2</ele><time>2026-04-05T15:23:16.912Z</time></trkpt><trkpt lat="37.90822184284122" lon="-4.785989109255795"><ele>172.79999999999998</ele><time>2026-04-05T15:23:18.912Z</time></trkpt><trkpt lat="37.90816938113404" lon="-4.7860664838660405"><ele>172.39999999999998</ele><time>2026-04-05T15:23:19.912Z</time></trkpt><trkpt lat="37.90811135370443" lon="-4.786164129653888"><ele>172.0</ele><time>2026-04-05T15:23:20.912Z</time></trkpt><trkpt lat="37.90804961834914" lon="-4.7862559654881505"><ele>172.0</ele><time>2026-04-05T15:23:21.912Z</time></trkpt><trkpt lat="37.90799292540681" lon="-4.786346084940513"><ele>172.0</ele><time>2026-04-05T15:23:22.912Z</time></trkpt><trkpt lat="37.907939736311654" lon="-4.786432094665985"><ele>172.0</ele><time>2026-04-05T15:23:23.912Z</time></trkpt><trkpt lat="37.90789029759564" lon="-4.786512942134445"><ele>172.0</ele><time>2026-04-05T15:23:24.912Z</time></trkpt><trkpt lat="37.907842612032944" lon="-4.786585207085741"><ele>172.0</ele><time>2026-04-05T15:23:25.912Z</time></trkpt><trkpt lat="37.90780064224959" lon="-4.786652512297059"><ele>172.0</ele><time>2026-04-05T15:23:26.912Z</time></trkpt><trkpt lat="37.90775790289014" lon="-4.786722034547599"><ele>172.00000000000003</ele><time>2026-04-05T15:23:27.912Z</time></trkpt><trkpt lat="37.90771199556772" lon="-4.786790329129021"><ele>172.0</ele><time>2026-04-05T15:23:28.912Z</time></trkpt><trkpt lat="37.907660721725065" lon="-4.786857522015034"><ele>172.0</ele><time>2026-04-05T15:23:29.912Z</time></trkpt><trkpt lat="37.907613220780156" lon="-4.786910109563693"><ele>172.0</ele><time>2026-04-05T15:23:30.912Z</time></trkpt><trkpt lat="37.90756116407261" lon="-4.786964855281531"><ele>172.0</ele><time>2026-04-05T15:23:31.912Z</time></trkpt><trkpt lat="37.90750664493086" lon="-4.787022622513381"><ele>172.00000000000003</ele><time>2026-04-05T15:23:32.912Z</time></trkpt><trkpt lat="37.90744797098272" lon="-4.787082770418108"><ele>172.0</ele><time>2026-04-05T15:23:33.912Z</time></trkpt><trkpt lat="37.90739680138325" lon="-4.787138770310472"><ele>171.2857142857143</ele><time>2026-04-05T15:23:34.912Z</time></trkpt><trkpt lat="37.90734259561902" lon="-4.7871940146655545"><ele>170.57142857142858</ele><time>2026-04-05T15:23:35.912Z</time></trkpt><trkpt lat="37.90729022842951" lon="-4.78725146173335"><ele>169.85714285714286</ele><time>2026-04-05T15:23:36.912Z</time></trkpt><trkpt lat="37.90723372646284" lon="-4.787311510756357"><ele>169.14285714285717</ele><time>2026-04-05T15:23:37.908Z</time></trkpt><trkpt lat="37.90718163844561" lon="-4.787369527746773"><ele>168.42857142857144</ele><time>2026-04-05T15:23:38.907Z</time></trkpt><trkpt lat="37.90712867800533" lon="-4.787420743320183"><ele>167.71428571428572</ele><time>2026-04-05T15:23:39.907Z</time></trkpt><trkpt lat="37.90707695192364" lon="-4.787480422959084"><ele>167.0</ele><time>2026-04-05T15:23:40.908Z</time></trkpt><trkpt lat="37.907010111686226" lon="-4.787542812133599"><ele>167.0</ele><time>2026-04-05T15:23:41.908Z</time></trkpt><trkpt lat="37.90694735396515" lon="-4.787617952467237"><ele>167.0</ele><time>2026-04-05T15:23:42.908Z</time></trkpt><trkpt lat="37.90687592397224" lon="-4.787694973707065"><ele>167.0</ele><time>2026-04-05T15:23:43.907Z</time></trkpt><trkpt lat="37.90679221953839" lon="-4.787780170177213"><ele>167.0</ele><time>2026-04-05T15:23:44.908Z</time></trkpt><trkpt lat="37.906684057205034" lon="-4.7878644478671095"><ele>167.0</ele><time>2026-04-05T15:23:45.908Z</time></trkpt><trkpt lat="37.90654612414183" lon="-4.78796281726635"><ele>165.0</ele><time>2026-04-05T15:23:46.908Z</time></trkpt><trkpt lat="37.90639602359944" lon="-4.788071618935791"><ele>163.0</ele><time>2026-04-05T15:23:47.908Z</time></trkpt><trkpt lat="37.90624763954431" lon="-4.788171779058052"><ele>161.0</ele><time>2026-04-05T15:23:48.908Z</time></trkpt><trkpt lat="37.906121461820845" lon="-4.78829317654049"><ele>161.0</ele><time>2026-04-05T15:23:49.907Z</time></trkpt><trkpt lat="37.90598800972626" lon="-4.78838616915531"><ele>161.0</ele><time>2026-04-05T15:23:50.907Z</time></trkpt><trkpt lat="37.9058675609438" lon="-4.788468739282831"><ele>161.0</ele><time>2026-04-05T15:23:51.907Z</time></trkpt><trkpt lat="37.905770861913894" lon="-4.788533476889645"><ele>161.0</ele><time>2026-04-05T15:23:52.907Z</time></trkpt><trkpt lat="37.905660364391665" lon="-4.788597748181572"><ele>159.8</ele><time>2026-04-05T15:23:53.907Z</time></trkpt><trkpt lat="37.90556237863259" lon="-4.788655436050111"><ele>158.60000000000002</ele><time>2026-04-05T15:23:54.907Z</time></trkpt><trkpt lat="37.90546683435406" lon="-4.788707921776728"><ele>157.4</ele><time>2026-04-05T15:23:55.907Z</time></trkpt><trkpt lat="37.9053687865103" lon="-4.788761481902476"><ele>156.2</ele><time>2026-04-05T15:23:56.907Z</time></trkpt><trkpt lat="37.90526965680625" lon="-4.788809538301073"><ele>155.0</ele><time>2026-04-05T15:23:57.907Z</time></trkpt><trkpt lat="37.90516913979973" lon="-4.7888577898072695"><ele>153.75</ele><time>2026-04-05T15:23:58.907Z</time></trkpt><trkpt lat="37.90505989626142" lon="-4.788905588483716"><ele>152.5</ele><time>2026-04-05T15:23:59.907Z</time></trkpt><trkpt lat="37.90493998119676" lon="-4.788955061872493"><ele>151.25</ele><time>2026-04-05T15:24:00.907Z</time></trkpt><trkpt lat="37.90482262240857" lon="-4.789001457689935"><ele>150.0</ele><time>2026-04-05T15:24:01.907Z</time></trkpt><trkpt lat="37.904702982533514" lon="-4.78903989577242"><ele>150.0</ele><time>2026-04-05T15:24:02.907Z</time></trkpt><trkpt lat="37.904587000499546" lon="-4.789067525840071"><ele>150.0</ele><time>2026-04-05T15:24:03.907Z</time></trkpt><trkpt lat="37.904476331557554" lon="-4.789084688697737"><ele>150.0</ele><time>2026-04-05T15:24:04.907Z</time></trkpt><trkpt lat="37.90436626818431" lon="-4.789105642651024"><ele>150.0</ele><time>2026-04-05T15:24:05.907Z</time></trkpt><trkpt lat="37.90425454091519" lon="-4.789130535397006"><ele>149.2</ele><time>2026-04-05T15:24:06.907Z</time></trkpt><trkpt lat="37.90414435399387" lon="-4.789160320928579"><ele>148.4</ele><time>2026-04-05T15:24:07.907Z</time></trkpt><trkpt lat="37.90404410849259" lon="-4.7891892260764655"><ele>147.6</ele><time>2026-04-05T15:24:08.907Z</time></trkpt><trkpt lat="37.903949538729165" lon="-4.789216528481888"><ele>146.8</ele><time>2026-04-05T15:24:09.907Z</time></trkpt><trkpt lat="37.903866463431214" lon="-4.789247134593144"><ele>146.0</ele><time>2026-04-05T15:24:10.907Z</time></trkpt><trkpt lat="37.90379333232587" lon="-4.789281054968107"><ele>146.0</ele><time>2026-04-05T15:24:11.907Z</time></trkpt><trkpt lat="37.90372825815025" lon="-4.789311838908851"><ele>146.0</ele><time>2026-04-05T15:24:12.907Z</time></trkpt><trkpt lat="37.90366469628488" lon="-4.789329227046446"><ele>146.0</ele><time>2026-04-05T15:24:14.907Z</time></trkpt><trkpt lat="37.90355967743206" lon="-4.789376838016657"><ele>146.0</ele><time>2026-04-05T15:25:14.907Z</time></trkpt><trkpt lat="37.90346754688263" lon="-4.789398664071286"><ele>146.0</ele><time>2026-04-05T15:25:16.907Z</time></trkpt><trkpt lat="37.90338193904623" lon="-4.7894527427955635"><ele>146.0</ele><time>2026-04-05T15:25:18.907Z</time></trkpt><trkpt lat="37.90325991444169" lon="-4.78948127493789"><ele>145.8</ele><time>2026-04-05T15:25:20.907Z</time></trkpt><trkpt lat="37.90321110332299" lon="-4.789533935569235"><ele>145.6</ele><time>2026-04-05T15:25:21.907Z</time></trkpt><trkpt lat="37.903129069748985" lon="-4.789609924982559"><ele>145.4</ele><time>2026-04-05T15:25:23.907Z</time></trkpt><trkpt lat="37.90302030624376" lon="-4.789651247933688"><ele>145.2</ele><time>2026-04-05T15:25:25.907Z</time></trkpt><trkpt lat="37.902973567493284" lon="-4.789769971573112"><ele>145.0</ele><time>2026-04-05T15:25:26.907Z</time></trkpt><trkpt lat="37.90291104403432" lon="-4.789855347495456"><ele>145.0</ele><time>2026-04-05T15:25:27.907Z</time></trkpt><trkpt lat="37.90283679215621" lon="-4.789963416987102"><ele>145.0</ele><time>2026-04-05T15:25:28.907Z</time></trkpt><trkpt lat="37.9027735287813" lon="-4.790073909194568"><ele>145.0</ele><time>2026-04-05T15:25:29.907Z</time></trkpt><trkpt lat="37.90272087662271" lon="-4.790201438541487"><ele>145.0</ele><time>2026-04-05T15:25:30.907Z</time></trkpt><trkpt lat="37.90265876365555" lon="-4.7903065046646525"><ele>145.0</ele><time>2026-04-05T15:25:31.907Z</time></trkpt><trkpt lat="37.90260007506724" lon="-4.790400367006687"><ele>144.66666666666669</ele><time>2026-04-05T15:25:32.907Z</time></trkpt><trkpt lat="37.90254722108783" lon="-4.790485150825929"><ele>144.33333333333334</ele><time>2026-04-05T15:25:33.907Z</time></trkpt><trkpt lat="37.90248844169869" lon="-4.790572017936522"><ele>144.0</ele><time>2026-04-05T15:25:34.907Z</time></trkpt><trkpt lat="37.902436962283204" lon="-4.790654427955673"><ele>143.66666666666666</ele><time>2026-04-05T15:25:35.907Z</time></trkpt><trkpt lat="37.90239506037536" lon="-4.790737418414985"><ele>143.33333333333331</ele><time>2026-04-05T15:25:36.907Z</time></trkpt><trkpt lat="37.9023553013935" lon="-4.790814351738995"><ele>143.0</ele><time>2026-04-05T15:25:37.907Z</time></trkpt><trkpt lat="37.90231271012583" lon="-4.790883880072777"><ele>143.0</ele><time>2026-04-05T15:25:38.907Z</time></trkpt><trkpt lat="37.902263209584454" lon="-4.79096722422659"><ele>143.0</ele><time>2026-04-05T15:25:39.907Z</time></trkpt><trkpt lat="37.90220381360418" lon="-4.791063454871775"><ele>143.0</ele><time>2026-04-05T15:25:40.907Z</time></trkpt><trkpt lat="37.902139415298386" lon="-4.791173483304172"><ele>143.0</ele><time>2026-04-05T15:25:41.907Z</time></trkpt><trkpt lat="37.9020771836343" lon="-4.7912945812965395"><ele>143.0</ele><time>2026-04-05T15:25:42.907Z</time></trkpt><trkpt lat="37.90201099109391" lon="-4.7914167267170376"><ele>143.0</ele><time>2026-04-05T15:25:43.904Z</time></trkpt><trkpt lat="37.9019531023808" lon="-4.791544596401834"><ele>143.0</ele><time>2026-04-05T15:25:44.903Z</time></trkpt><trkpt lat="37.901896336579604" lon="-4.791663562093396"><ele>143.0</ele><time>2026-04-05T15:25:45.903Z</time></trkpt><trkpt lat="37.90184405254155" lon="-4.7917747751596735"><ele>143.0</ele><time>2026-04-05T15:25:46.903Z</time></trkpt><trkpt lat="37.90179196809944" lon="-4.791880137981819"><ele>143.0</ele><time>2026-04-05T15:25:47.903Z</time></trkpt><trkpt lat="37.90173736196185" lon="-4.79198126463703"><ele>142.16666666666666</ele><time>2026-04-05T15:25:48.903Z</time></trkpt><trkpt lat="37.90168541866333" lon="-4.792074949478348"><ele>141.33333333333331</ele><time>2026-04-05T15:25:49.902Z</time></trkpt><trkpt lat="37.901640570275205" lon="-4.792158651924475"><ele>140.5</ele><time>2026-04-05T15:25:50.902Z</time></trkpt><trkpt lat="37.9016090677468" lon="-4.792253311217761"><ele>139.66666666666666</ele><time>2026-04-05T15:25:51.902Z</time></trkpt><trkpt lat="37.901584565256414" lon="-4.7923550508083075"><ele>138.83333333333334</ele><time>2026-04-05T15:25:52.903Z</time></trkpt><trkpt lat="37.9015627412321" lon="-4.792484780250224"><ele>138.0</ele><time>2026-04-05T15:25:53.902Z</time></trkpt><trkpt lat="37.90154067944346" lon="-4.792637795257165"><ele>138.5</ele><time>2026-04-05T15:25:54.902Z</time></trkpt><trkpt lat="37.901517246755965" lon="-4.792792950999972"><ele>139.0</ele><time>2026-04-05T15:25:55.902Z</time></trkpt><trkpt lat="37.90148914166444" lon="-4.792973211640023"><ele>139.5</ele><time>2026-04-05T15:25:56.902Z</time></trkpt><trkpt lat="37.901477926250614" lon="-4.793172610605018"><ele>140.0</ele><time>2026-04-05T15:25:57.902Z</time></trkpt><trkpt lat="37.90147977043586" lon="-4.793400653213257"><ele>140.0</ele><time>2026-04-05T15:25:58.902Z</time></trkpt><trkpt lat="37.90147990094594" lon="-4.79362475183835"><ele>140.0</ele><time>2026-04-05T15:25:59.902Z</time></trkpt><trkpt lat="37.90148361830068" lon="-4.793838081836636"><ele>140.0</ele><time>2026-04-05T15:26:00.902Z</time></trkpt><trkpt lat="37.901486364275634" lon="-4.794053969367166"><ele>140.0</ele><time>2026-04-05T15:26:01.902Z</time></trkpt><trkpt lat="37.90149126763834" lon="-4.794252656099014"><ele>140.0</ele><time>2026-04-05T15:26:02.902Z</time></trkpt><trkpt lat="37.90149344757104" lon="-4.794441368124114"><ele>140.0</ele><time>2026-04-05T15:26:03.902Z</time></trkpt><trkpt lat="37.90149100176135" lon="-4.7946224224352605"><ele>140.0</ele><time>2026-04-05T15:26:04.902Z</time></trkpt><trkpt lat="37.90149160263239" lon="-4.794792313542279"><ele>140.25</ele><time>2026-04-05T15:26:05.902Z</time></trkpt><trkpt lat="37.90149144088299" lon="-4.794952737149951"><ele>140.5</ele><time>2026-04-05T15:26:06.902Z</time></trkpt><trkpt lat="37.9014851945317" lon="-4.795106583869917"><ele>140.75</ele><time>2026-04-05T15:26:07.902Z</time></trkpt><trkpt lat="37.901470515674994" lon="-4.795262774584552"><ele>141.0</ele><time>2026-04-05T15:26:08.902Z</time></trkpt><trkpt lat="37.90145279058066" lon="-4.795407750378237"><ele>141.25</ele><time>2026-04-05T15:26:09.902Z</time></trkpt><trkpt lat="37.90142543966493" lon="-4.795553084330483"><ele>141.5</ele><time>2026-04-05T15:26:10.902Z</time></trkpt><trkpt lat="37.90138972244319" lon="-4.79571087107938"><ele>141.75</ele><time>2026-04-05T15:26:11.902Z</time></trkpt><trkpt lat="37.90134796963734" lon="-4.795851739727445"><ele>142.0</ele><time>2026-04-05T15:26:12.902Z</time></trkpt><trkpt lat="37.90129639952784" lon="-4.795994922355296"><ele>142.25</ele><time>2026-04-05T15:26:13.902Z</time></trkpt><trkpt lat="37.901232425525166" lon="-4.796146617972632"><ele>142.5</ele><time>2026-04-05T15:26:14.902Z</time></trkpt><trkpt lat="37.901162918708415" lon="-4.796299887161433"><ele>142.75</ele><time>2026-04-05T15:26:15.902Z</time></trkpt><trkpt lat="37.90108988665161" lon="-4.7964368819757395"><ele>143.0</ele><time>2026-04-05T15:26:16.902Z</time></trkpt><trkpt lat="37.90101717640506" lon="-4.796569598812769"><ele>143.0</ele><time>2026-04-05T15:26:17.902Z</time></trkpt><trkpt lat="37.900948072939535" lon="-4.796695957507758"><ele>143.0</ele><time>2026-04-05T15:26:18.902Z</time></trkpt><trkpt lat="37.900872623176525" lon="-4.796833511760032"><ele>143.0</ele><time>2026-04-05T15:26:19.902Z</time></trkpt><trkpt lat="37.90080520802792" lon="-4.796974538603631"><ele>143.0</ele><time>2026-04-05T15:26:20.902Z</time></trkpt><trkpt lat="37.90073949378571" lon="-4.797121268043048"><ele>142.0</ele><time>2026-04-05T15:26:21.902Z</time></trkpt><trkpt lat="37.90067383666203" lon="-4.797274479465874"><ele>141.0</ele><time>2026-04-05T15:26:22.902Z</time></trkpt><trkpt lat="37.900609800059435" lon="-4.7974274272386275"><ele>140.0</ele><time>2026-04-05T15:26:23.902Z</time></trkpt><trkpt lat="37.900553147931525" lon="-4.797568430788276"><ele>139.0</ele><time>2026-04-05T15:26:24.902Z</time></trkpt><trkpt lat="37.90049504848191" lon="-4.797709653503284"><ele>139.0</ele><time>2026-04-05T15:26:25.902Z</time></trkpt><trkpt lat="37.900432429264946" lon="-4.797856324582168"><ele>139.0</ele><time>2026-04-05T15:26:26.902Z</time></trkpt><trkpt lat="37.900366427634616" lon="-4.798003819211088"><ele>139.0</ele><time>2026-04-05T15:26:27.902Z</time></trkpt><trkpt lat="37.900301840942866" lon="-4.798148369234218"><ele>139.0</ele><time>2026-04-05T15:26:28.902Z</time></trkpt><trkpt lat="37.90024484399241" lon="-4.798282170126559"><ele>139.0</ele><time>2026-04-05T15:26:29.902Z</time></trkpt><trkpt lat="37.90018907885038" lon="-4.798410113433924"><ele>139.0</ele><time>2026-04-05T15:26:30.902Z</time></trkpt><trkpt lat="37.90013771305813" lon="-4.798532893784856"><ele>139.0</ele><time>2026-04-05T15:26:31.902Z</time></trkpt><trkpt lat="37.90009545357683" lon="-4.7986490885422475"><ele>139.0</ele><time>2026-04-05T15:26:32.902Z</time></trkpt><trkpt lat="37.90005595592815" lon="-4.798749017570551"><ele>139.0</ele><time>2026-04-05T15:26:33.902Z</time></trkpt><trkpt lat="37.900021709794004" lon="-4.7988562152743075"><ele>138.83333333333334</ele><time>2026-04-05T15:26:34.902Z</time></trkpt><trkpt lat="37.900006234279374" lon="-4.798962375551714"><ele>138.66666666666669</ele><time>2026-04-05T15:26:35.902Z</time></trkpt><trkpt lat="37.90001569225459" lon="-4.799079405805622"><ele>138.5</ele><time>2026-04-05T15:26:36.902Z</time></trkpt><trkpt lat="37.90003208875177" lon="-4.799191413400877"><ele>138.33333333333334</ele><time>2026-04-05T15:26:37.902Z</time></trkpt><trkpt lat="37.90002441230593" lon="-4.799297929530762"><ele>138.16666666666666</ele><time>2026-04-05T15:26:38.902Z</time></trkpt><trkpt lat="37.899981862793425" lon="-4.7993893117504145"><ele>138.0</ele><time>2026-04-05T15:26:39.902Z</time></trkpt><trkpt lat="37.899911275435656" lon="-4.799452229788166"><ele>138.0</ele><time>2026-04-05T15:26:40.902Z</time></trkpt><trkpt lat="37.899824882895636" lon="-4.799478913787328"><ele>138.0</ele><time>2026-04-05T15:26:41.902Z</time></trkpt><trkpt lat="37.89973685496335" lon="-4.799456929229771"><ele>138.0</ele><time>2026-04-05T15:26:42.902Z</time></trkpt><trkpt lat="37.89965211255326" lon="-4.799396735324833"><ele>138.0</ele><time>2026-04-05T15:26:43.902Z</time></trkpt><trkpt lat="37.899562975350285" lon="-4.799324317756676"><ele>138.0</ele><time>2026-04-05T15:26:44.902Z</time></trkpt><trkpt lat="37.899465940066456" lon="-4.799289122439285"><ele>138.0</ele><time>2026-04-05T15:26:45.902Z</time></trkpt><trkpt lat="37.89936852196721" lon="-4.799285558711095"><ele>138.0</ele><time>2026-04-05T15:26:46.902Z</time></trkpt><trkpt lat="37.89928181433538" lon="-4.799287641814525"><ele>138.0</ele><time>2026-04-05T15:26:47.902Z</time></trkpt><trkpt lat="37.89920857314297" lon="-4.799291706736962"><ele>138.0</ele><time>2026-04-05T15:26:48.902Z</time></trkpt><trkpt lat="37.89913894915555" lon="-4.7992988325675165"><ele>138.0</ele><time>2026-04-05T15:26:49.902Z</time></trkpt><trkpt lat="37.89907156883953" lon="-4.799308238575746"><ele>138.0</ele><time>2026-04-05T15:26:50.902Z</time></trkpt><trkpt lat="37.898999946058545" lon="-4.799327817181791"><ele>137.20000000000002</ele><time>2026-04-05T15:26:51.902Z</time></trkpt><trkpt lat="37.89892937249521" lon="-4.799370276967666"><ele>136.4</ele><time>2026-04-05T15:26:52.902Z</time></trkpt><trkpt lat="37.89886210965901" lon="-4.799456971916186"><ele>135.60000000000002</ele><time>2026-04-05T15:26:53.902Z</time></trkpt><trkpt lat="37.898805353221086" lon="-4.799577074056282"><ele>134.8</ele><time>2026-04-05T15:26:54.902Z</time></trkpt><trkpt lat="37.89874296328473" lon="-4.7997151685650525"><ele>134.0</ele><time>2026-04-05T15:26:55.902Z</time></trkpt><trkpt lat="37.89866871158652" lon="-4.799825274022101"><ele>134.0</ele><time>2026-04-05T15:26:56.902Z</time></trkpt><trkpt lat="37.898575175000516" lon="-4.799900473383123"><ele>134.0</ele><time>2026-04-05T15:26:57.902Z</time></trkpt><trkpt lat="37.89847557647304" lon="-4.799939359755387"><ele>134.0</ele><time>2026-04-05T15:26:58.902Z</time></trkpt><trkpt lat="37.89837344926049" lon="-4.799939784859284"><ele>134.0</ele><time>2026-04-05T15:26:59.902Z</time></trkpt><trkpt lat="37.898271875931655" lon="-4.799935514561821"><ele>134.0</ele><time>2026-04-05T15:27:00.902Z</time></trkpt><trkpt lat="37.89816158850005" lon="-4.799950889819946"><ele>134.0</ele><time>2026-04-05T15:27:01.902Z</time></trkpt><trkpt lat="37.89805470061414" lon="-4.799998153954921"><ele>134.0</ele><time>2026-04-05T15:27:02.902Z</time></trkpt><trkpt lat="37.89796182312189" lon="-4.800079507708154"><ele>134.0</ele><time>2026-04-05T15:27:03.902Z</time></trkpt><trkpt lat="37.897873445900146" lon="-4.800209343482034"><ele>134.0</ele><time>2026-04-05T15:27:04.902Z</time></trkpt><trkpt lat="37.89778852539902" lon="-4.800359809090753"><ele>133.66666666666666</ele><time>2026-04-05T15:27:05.902Z</time></trkpt><trkpt lat="37.89770668972726" lon="-4.800520904623837"><ele>133.33333333333334</ele><time>2026-04-05T15:27:06.902Z</time></trkpt><trkpt lat="37.897622827411574" lon="-4.80067835656184"><ele>133.0</ele><time>2026-04-05T15:27:07.902Z</time></trkpt><trkpt lat="37.89753479937266" lon="-4.800841644651415"><ele>133.33333333333334</ele><time>2026-04-05T15:27:08.902Z</time></trkpt><trkpt lat="37.897445416155435" lon="-4.801002065917727"><ele>133.66666666666666</ele><time>2026-04-05T15:27:09.902Z</time></trkpt><trkpt lat="37.897355441287175" lon="-4.8011677686812915"><ele>134.0</ele><time>2026-04-05T15:27:10.902Z</time></trkpt><trkpt lat="37.897261389612666" lon="-4.801336818480384"><ele>134.0</ele><time>2026-04-05T15:27:11.902Z</time></trkpt><trkpt lat="37.89716774536933" lon="-4.80150624763804"><ele>134.0</ele><time>2026-04-05T15:27:12.899Z</time></trkpt><trkpt lat="37.89707492271521" lon="-4.801675497991055"><ele>134.0</ele><time>2026-04-05T15:27:13.897Z</time></trkpt><trkpt lat="37.896984411148715" lon="-4.801841286357657"><ele>134.0</ele><time>2026-04-05T15:27:14.894Z</time></trkpt><trkpt lat="37.896895821653885" lon="-4.802009811842468"><ele>134.0</ele><time>2026-04-05T15:27:15.891Z</time></trkpt><trkpt lat="37.89680843409391" lon="-4.8021727122021804"><ele>134.0</ele><time>2026-04-05T15:27:16.889Z</time></trkpt><trkpt lat="37.896724970347194" lon="-4.802331094312698"><ele>133.33333333333331</ele><time>2026-04-05T15:27:17.887Z</time></trkpt><trkpt lat="37.89664021806303" lon="-4.802489361423985"><ele>132.66666666666666</ele><time>2026-04-05T15:27:18.885Z</time></trkpt><trkpt lat="37.89655321307908" lon="-4.802648281369042"><ele>132.0</ele><time>2026-04-05T15:27:19.883Z</time></trkpt><trkpt lat="37.89646547608809" lon="-4.80281262465374"><ele>132.0</ele><time>2026-04-05T15:27:20.881Z</time></trkpt><trkpt lat="37.89637784219482" lon="-4.802978653587185"><ele>132.0</ele><time>2026-04-05T15:27:21.879Z</time></trkpt><trkpt lat="37.89628895421593" lon="-4.803146452496488"><ele>132.0</ele><time>2026-04-05T15:27:22.878Z</time></trkpt><trkpt lat="37.89620120618841" lon="-4.80331004176548"><ele>132.0</ele><time>2026-04-05T15:27:23.876Z</time></trkpt><trkpt lat="37.8961150344001" lon="-4.803470649295532"><ele>132.0</ele><time>2026-04-05T15:27:24.875Z</time></trkpt><trkpt lat="37.896030111033596" lon="-4.803627781030044"><ele>132.0</ele><time>2026-04-05T15:27:25.873Z</time></trkpt><trkpt lat="37.895947138348546" lon="-4.803779681403206"><ele>132.0</ele><time>2026-04-05T15:27:26.872Z</time></trkpt><trkpt lat="37.89586516073655" lon="-4.803929993881714"><ele>132.0</ele><time>2026-04-05T15:27:27.871Z</time></trkpt><trkpt lat="37.89578420359606" lon="-4.804076973051199"><ele>132.0</ele><time>2026-04-05T15:27:28.87Z</time></trkpt><trkpt lat="37.895701016449365" lon="-4.804215466485993"><ele>132.0</ele><time>2026-04-05T15:27:29.869Z</time></trkpt><trkpt lat="37.89561865331089" lon="-4.804353809262844"><ele>132.0</ele><time>2026-04-05T15:27:30.868Z</time></trkpt><trkpt lat="37.89553582763671" lon="-4.804492630259718"><ele>132.0</ele><time>2026-04-05T15:27:31.867Z</time></trkpt><trkpt lat="37.8954550702511" lon="-4.804630056169714"><ele>132.0</ele><time>2026-04-05T15:27:32.866Z</time></trkpt><trkpt lat="37.89537571544205" lon="-4.804767127301961"><ele>132.0</ele><time>2026-04-05T15:27:33.865Z</time></trkpt><trkpt lat="37.89530230031279" lon="-4.80489394668175"><ele>132.0</ele><time>2026-04-05T15:27:34.865Z</time></trkpt><trkpt lat="37.895236102639004" lon="-4.805011248360763"><ele>132.0</ele><time>2026-04-05T15:27:35.864Z</time></trkpt><trkpt lat="37.895174127851206" lon="-4.805117692978792"><ele>132.0</ele><time>2026-04-05T15:27:36.863Z</time></trkpt><trkpt lat="37.89512516357878" lon="-4.805218123318253"><ele>132.0</ele><time>2026-04-05T15:27:37.863Z</time></trkpt><trkpt lat="37.89508168129865" lon="-4.805315533362086"><ele>132.0</ele><time>2026-04-05T15:27:38.862Z</time></trkpt><trkpt lat="37.89505610011174" lon="-4.805424577254536"><ele>132.0</ele><time>2026-04-05T15:27:39.861Z</time></trkpt><trkpt lat="37.89504878776374" lon="-4.805548852375508"><ele>131.79999999999998</ele><time>2026-04-05T15:27:40.861Z</time></trkpt><trkpt lat="37.89503991810095" lon="-4.80568146769236"><ele>131.6</ele><time>2026-04-05T15:27:41.86Z</time></trkpt><trkpt lat="37.895005892219935" lon="-4.805783222294259"><ele>131.39999999999998</ele><time>2026-04-05T15:27:42.86Z</time></trkpt><trkpt lat="37.89495585333419" lon="-4.805877281481644"><ele>131.2</ele><time>2026-04-05T15:27:43.86Z</time></trkpt><trkpt lat="37.89485478185979" lon="-4.805909458839267"><ele>131.0</ele><time>2026-04-05T15:27:44.859Z</time></trkpt><trkpt lat="37.894763577876134" lon="-4.805981556333251"><ele>131.25</ele><time>2026-04-05T15:27:45.859Z</time></trkpt><trkpt lat="37.89468093387668" lon="-4.806086263870024"><ele>131.5</ele><time>2026-04-05T15:27:46.859Z</time></trkpt><trkpt lat="37.894598324393655" lon="-4.8062315866201235"><ele>131.75</ele><time>2026-04-05T15:27:47.858Z</time></trkpt><trkpt lat="37.89450368025777" lon="-4.80639870786168"><ele>132.0</ele><time>2026-04-05T15:27:48.858Z</time></trkpt><trkpt lat="37.89441536025507" lon="-4.806565348921709"><ele>132.0</ele><time>2026-04-05T15:27:49.853Z</time></trkpt><trkpt lat="37.894322513560425" lon="-4.8067429717457175"><ele>132.0</ele><time>2026-04-05T15:27:50.853Z</time></trkpt><trkpt lat="37.89422809044625" lon="-4.80692554125594"><ele>132.0</ele><time>2026-04-05T15:27:51.852Z</time></trkpt><trkpt lat="37.89412883461931" lon="-4.8071116127353"><ele>132.33333333333334</ele><time>2026-04-05T15:27:52.853Z</time></trkpt><trkpt lat="37.89402323221717" lon="-4.807307942553069"><ele>132.66666666666669</ele><time>2026-04-05T15:27:53.852Z</time></trkpt><trkpt lat="37.89391714234421" lon="-4.807502965892935"><ele>133.0</ele><time>2026-04-05T15:27:54.852Z</time></trkpt><trkpt lat="37.89381116475732" lon="-4.807701132303802"><ele>133.33333333333334</ele><time>2026-04-05T15:27:55.852Z</time></trkpt><trkpt lat="37.893703583870284" lon="-4.8078997124083545"><ele>133.66666666666666</ele><time>2026-04-05T15:27:56.852Z</time></trkpt><trkpt lat="37.8935898717362" lon="-4.808092870421435"><ele>134.0</ele><time>2026-04-05T15:27:57.852Z</time></trkpt><trkpt lat="37.89347435573083" lon="-4.808268718819945"><ele>133.33333333333331</ele><time>2026-04-05T15:27:58.85Z</time></trkpt><trkpt lat="37.893352692232014" lon="-4.808425570076073"><ele>132.66666666666666</ele><time>2026-04-05T15:27:59.851Z</time></trkpt><trkpt lat="37.89322996537123" lon="-4.808560382100326"><ele>132.0</ele><time>2026-04-05T15:28:00.85Z</time></trkpt><trkpt lat="37.8931087871467" lon="-4.8086736711743105"><ele>132.0</ele><time>2026-04-05T15:28:01.851Z</time></trkpt><trkpt lat="37.89299738508635" lon="-4.808764518132113"><ele>132.0</ele><time>2026-04-05T15:28:02.85Z</time></trkpt><trkpt lat="37.892895257771166" lon="-4.808839976050376"><ele>132.0</ele><time>2026-04-05T15:28:03.85Z</time></trkpt><trkpt lat="37.89280986414326" lon="-4.80890996496193"><ele>132.0</ele><time>2026-04-05T15:28:04.85Z</time></trkpt><trkpt lat="37.89273493464685" lon="-4.808976945989842"><ele>132.0</ele><time>2026-04-05T15:28:05.85Z</time></trkpt><trkpt lat="37.89266802794227" lon="-4.809057698853418"><ele>132.0</ele><time>2026-04-05T15:28:06.85Z</time></trkpt><trkpt lat="37.89261138510126" lon="-4.809155394041763"><ele>132.0</ele><time>2026-04-05T15:28:07.849Z</time></trkpt><trkpt lat="37.89254366651902" lon="-4.8092349795431275"><ele>132.0</ele><time>2026-04-05T15:28:08.849Z</time></trkpt><trkpt lat="37.8924467979922" lon="-4.809281234825836"><ele>132.0</ele><time>2026-04-05T15:28:09.849Z</time></trkpt><trkpt lat="37.89233593354912" lon="-4.809285763331487"><ele>132.0</ele><time>2026-04-05T15:28:10.849Z</time></trkpt><trkpt lat="37.892209252443465" lon="-4.8092659923728105"><ele>131.0</ele><time>2026-04-05T15:28:11.849Z</time></trkpt><trkpt lat="37.89206581855418" lon="-4.809239470830441"><ele>130.0</ele><time>2026-04-05T15:28:12.849Z</time></trkpt><trkpt lat="37.891901381130936" lon="-4.8092244317527095"><ele>129.0</ele><time>2026-04-05T15:28:13.849Z</time></trkpt><trkpt lat="37.891726190267406" lon="-4.809210211411944"><ele>129.0</ele><time>2026-04-05T15:28:14.849Z</time></trkpt><trkpt lat="37.89154379001349" lon="-4.809197664863203"><ele>129.0</ele><time>2026-04-05T15:28:15.849Z</time></trkpt><trkpt lat="37.89135496093336" lon="-4.809175494597027"><ele>129.0</ele><time>2026-04-05T15:28:16.849Z</time></trkpt><trkpt lat="37.89114747420991" lon="-4.80914588209104"><ele>128.66666666666666</ele><time>2026-04-05T15:28:17.849Z</time></trkpt><trkpt lat="37.89091936046738" lon="-4.8091090147369195"><ele>128.33333333333331</ele><time>2026-04-05T15:28:18.849Z</time></trkpt><trkpt lat="37.89070199932553" lon="-4.809074657512365"><ele>128.0</ele><time>2026-04-05T15:28:19.849Z</time></trkpt><trkpt lat="37.8904804242168" lon="-4.809039582863028"><ele>128.0</ele><time>2026-04-05T15:28:20.849Z</time></trkpt><trkpt lat="37.89025575120962" lon="-4.809003484288857"><ele>128.0</ele><time>2026-04-05T15:28:21.849Z</time></trkpt><trkpt lat="37.89003058486023" lon="-4.8089660640057295"><ele>127.0</ele><time>2026-04-05T15:28:22.849Z</time></trkpt><trkpt lat="37.88979657015428" lon="-4.808930528965217"><ele>126.0</ele><time>2026-04-05T15:28:23.848Z</time></trkpt><trkpt lat="37.889565905760676" lon="-4.808892883886546"><ele>126.0</ele><time>2026-04-05T15:28:24.848Z</time></trkpt><trkpt lat="37.88933479114186" lon="-4.808852002948707"><ele>126.0</ele><time>2026-04-05T15:28:25.848Z</time></trkpt><trkpt lat="37.88910309490066" lon="-4.808814737520461"><ele>125.5</ele><time>2026-04-05T15:28:26.848Z</time></trkpt><trkpt lat="37.88887043988822" lon="-4.808777718284683"><ele>125.0</ele><time>2026-04-05T15:28:27.848Z</time></trkpt><trkpt lat="37.88863830398848" lon="-4.808742073357514"><ele>124.0</ele><time>2026-04-05T15:28:28.848Z</time></trkpt><trkpt lat="37.88840192581398" lon="-4.808706296772115"><ele>123.0</ele><time>2026-04-05T15:28:29.848Z</time></trkpt><trkpt lat="37.888165867713084" lon="-4.808669941829966"><ele>123.0</ele><time>2026-04-05T15:28:30.848Z</time></trkpt><trkpt lat="37.88792903981347" lon="-4.808632509773247"><ele>123.0</ele><time>2026-04-05T15:28:31.848Z</time></trkpt><trkpt lat="37.88769150884875" lon="-4.808595139190363"><ele>121.5</ele><time>2026-04-05T15:28:32.848Z</time></trkpt><trkpt lat="37.88745463361574" lon="-4.808558597418235"><ele>120.0</ele><time>2026-04-05T15:28:33.848Z</time></trkpt><trkpt lat="37.887218345285206" lon="-4.808522355186373"><ele>121.0</ele><time>2026-04-05T15:28:34.848Z</time></trkpt><trkpt lat="37.8869836179621" lon="-4.8084843397468475"><ele>122.0</ele><time>2026-04-05T15:28:35.848Z</time></trkpt><trkpt lat="37.88675354172911" lon="-4.808443337848277"><ele>122.0</ele><time>2026-04-05T15:28:36.848Z</time></trkpt><trkpt lat="37.88652185761659" lon="-4.808399464130529"><ele>122.0</ele><time>2026-04-05T15:28:37.848Z</time></trkpt><trkpt lat="37.88628456941095" lon="-4.8083494174789365"><ele>122.0</ele><time>2026-04-05T15:28:38.848Z</time></trkpt><trkpt lat="37.88604553156648" lon="-4.808290732907353"><ele>122.0</ele><time>2026-04-05T15:28:39.848Z</time></trkpt><trkpt lat="37.88580803567471" lon="-4.808219464692741"><ele>122.0</ele><time>2026-04-05T15:28:40.848Z</time></trkpt><trkpt lat="37.88556827128959" lon="-4.808141949451081"><ele>122.0</ele><time>2026-04-05T15:28:41.848Z</time></trkpt><trkpt lat="37.88532562527494" lon="-4.808055408953858"><ele>122.0</ele><time>2026-04-05T15:28:42.848Z</time></trkpt><trkpt lat="37.88508077573898" lon="-4.807957818455259"><ele>122.0</ele><time>2026-04-05T15:28:43.848Z</time></trkpt><trkpt lat="37.88484096438872" lon="-4.807846730229649"><ele>122.0</ele><time>2026-04-05T15:28:44.848Z</time></trkpt><trkpt lat="37.88459687741858" lon="-4.8077210121795275"><ele>122.0</ele><time>2026-04-05T15:28:45.848Z</time></trkpt><trkpt lat="37.88435606149789" lon="-4.8075821806330366"><ele>122.5</ele><time>2026-04-05T15:28:46.848Z</time></trkpt><trkpt lat="37.88411943222062" lon="-4.8074445184157755"><ele>123.0</ele><time>2026-04-05T15:28:47.848Z</time></trkpt><trkpt lat="37.88387311398442" lon="-4.807306545777228"><ele>123.0</ele><time>2026-04-05T15:28:48.848Z</time></trkpt><trkpt lat="37.883628145484025" lon="-4.80716892927301"><ele>123.0</ele><time>2026-04-05T15:28:49.848Z</time></trkpt><trkpt lat="37.883381350191165" lon="-4.8070304286675904"><ele>122.5</ele><time>2026-04-05T15:28:50.848Z</time></trkpt><trkpt lat="37.8831376057188" lon="-4.806888882010527"><ele>122.0</ele><time>2026-04-05T15:28:51.848Z</time></trkpt><trkpt lat="37.88289504675456" lon="-4.80674696007135"><ele>121.5</ele><time>2026-04-05T15:28:52.848Z</time></trkpt><trkpt lat="37.882657100818236" lon="-4.806602633538335"><ele>121.0</ele><time>2026-04-05T15:28:53.848Z</time></trkpt><trkpt lat="37.882423689929695" lon="-4.806458493857375"><ele>120.5</ele><time>2026-04-05T15:28:54.848Z</time></trkpt><trkpt lat="37.88218894464518" lon="-4.806317575759819"><ele>120.0</ele><time>2026-04-05T15:28:55.848Z</time></trkpt><trkpt lat="37.88195509573945" lon="-4.806177182290433"><ele>119.5</ele><time>2026-04-05T15:28:56.848Z</time></trkpt><trkpt lat="37.88172140664606" lon="-4.806036396680209"><ele>119.0</ele><time>2026-04-05T15:28:57.848Z</time></trkpt><trkpt lat="37.88148695502039" lon="-4.805895248079616"><ele>119.0</ele><time>2026-04-05T15:28:58.848Z</time></trkpt><trkpt lat="37.881251466500245" lon="-4.805753691781949"><ele>119.0</ele><time>2026-04-05T15:28:59.848Z</time></trkpt><trkpt lat="37.88101380755658" lon="-4.80561122059097"><ele>117.5</ele><time>2026-04-05T15:29:00.848Z</time></trkpt><trkpt lat="37.88074270752021" lon="-4.805448677571762"><ele>116.0</ele><time>2026-04-05T15:29:01.982Z</time></trkpt><trkpt lat="37.88050316464823" lon="-4.805302965595697"><ele>118.0</ele><time>2026-04-05T15:29:02.985Z</time></trkpt><trkpt lat="37.880072296399824" lon="-4.8050878680399505"><ele>118.0</ele><time>2026-04-05T15:29:04.848Z</time></trkpt><trkpt lat="37.879852319517305" lon="-4.8050001377130815"><ele>118.0</ele><time>2026-04-05T15:29:05.848Z</time></trkpt><trkpt lat="37.8795962977085" lon="-4.804873492928986"><ele>118.0</ele><time>2026-04-05T15:29:06.848Z</time></trkpt><trkpt lat="37.879373200251734" lon="-4.804763341919346"><ele>118.0</ele><time>2026-04-05T15:29:07.848Z</time></trkpt><trkpt lat="37.879139387132376" lon="-4.804641907875733"><ele>118.0</ele><time>2026-04-05T15:29:08.848Z</time></trkpt><trkpt lat="37.87890932807515" lon="-4.804509230753915"><ele>118.0</ele><time>2026-04-05T15:29:09.848Z</time></trkpt><trkpt lat="37.87867975252454" lon="-4.804374223450252"><ele>116.5</ele><time>2026-04-05T15:29:10.848Z</time></trkpt><trkpt lat="37.878436204523574" lon="-4.804235404335805"><ele>115.0</ele><time>2026-04-05T15:29:11.848Z</time></trkpt><trkpt lat="37.878199385519274" lon="-4.804116466963196"><ele>114.5</ele><time>2026-04-05T15:29:12.847Z</time></trkpt><trkpt lat="37.877944707545126" lon="-4.804011631696763"><ele>114.0</ele><time>2026-04-05T15:29:13.847Z</time></trkpt><trkpt lat="37.87768208408756" lon="-4.803922190220024"><ele>115.5</ele><time>2026-04-05T15:29:14.847Z</time></trkpt><trkpt lat="37.87741290799536" lon="-4.803845320052777"><ele>117.0</ele><time>2026-04-05T15:29:15.847Z</time></trkpt><trkpt lat="37.877130336806665" lon="-4.803798020320179"><ele>117.0</ele><time>2026-04-05T15:29:16.847Z</time></trkpt><trkpt lat="37.87684927974431" lon="-4.803750291199624"><ele>117.0</ele><time>2026-04-05T15:29:17.847Z</time></trkpt><trkpt lat="37.87657187077798" lon="-4.803715884196583"><ele>116.5</ele><time>2026-04-05T15:29:18.847Z</time></trkpt><trkpt lat="37.87629239990947" lon="-4.803697840188996"><ele>116.0</ele><time>2026-04-05T15:29:19.847Z</time></trkpt><trkpt lat="37.87601537346002" lon="-4.803700594397671"><ele>114.5</ele><time>2026-04-05T15:29:20.847Z</time></trkpt><trkpt lat="37.87573644062936" lon="-4.803716490523342"><ele>113.0</ele><time>2026-04-05T15:29:21.847Z</time></trkpt><trkpt lat="37.875463849779074" lon="-4.803741495803528"><ele>113.0</ele><time>2026-04-05T15:29:22.847Z</time></trkpt><trkpt lat="37.8751951978002" lon="-4.803773400512149"><ele>113.0</ele><time>2026-04-05T15:29:23.847Z</time></trkpt><trkpt lat="37.874933699434216" lon="-4.803808890794436"><ele>113.5</ele><time>2026-04-05T15:29:24.847Z</time></trkpt><trkpt lat="37.87467010632535" lon="-4.803842933356933"><ele>114.0</ele><time>2026-04-05T15:29:25.847Z</time></trkpt><trkpt lat="37.8744026426334" lon="-4.80388002693154"><ele>114.0</ele><time>2026-04-05T15:29:26.847Z</time></trkpt><trkpt lat="37.874137380983576" lon="-4.803919177083353"><ele>114.0</ele><time>2026-04-05T15:29:27.847Z</time></trkpt><trkpt lat="37.873872444688494" lon="-4.8039557393762"><ele>114.0</ele><time>2026-04-05T15:29:28.847Z</time></trkpt><trkpt lat="37.873605726406225" lon="-4.803993694952461"><ele>114.0</ele><time>2026-04-05T15:29:29.847Z</time></trkpt><trkpt lat="37.873337799473" lon="-4.804025058302817"><ele>115.0</ele><time>2026-04-05T15:29:30.847Z</time></trkpt><trkpt lat="37.873073353758166" lon="-4.804049792611077"><ele>116.0</ele><time>2026-04-05T15:29:31.847Z</time></trkpt><trkpt lat="37.87280434952611" lon="-4.804062469572804"><ele>115.5</ele><time>2026-04-05T15:29:32.847Z</time></trkpt><trkpt lat="37.8725327805699" lon="-4.804066041233186"><ele>115.0</ele><time>2026-04-05T15:29:33.847Z</time></trkpt><trkpt lat="37.872259673479405" lon="-4.804061574575499"><ele>115.0</ele><time>2026-04-05T15:29:34.847Z</time></trkpt><trkpt lat="37.87198483936229" lon="-4.8040464162117065"><ele>115.0</ele><time>2026-04-05T15:29:35.847Z</time></trkpt><trkpt lat="37.871710115560894" lon="-4.8040202752248"><ele>115.5</ele><time>2026-04-05T15:29:36.847Z</time></trkpt><trkpt lat="37.871435983813164" lon="-4.803983280008987"><ele>116.0</ele><time>2026-04-05T15:29:37.847Z</time></trkpt><trkpt lat="37.87115894089908" lon="-4.803941978951436"><ele>116.0</ele><time>2026-04-05T15:29:38.847Z</time></trkpt><trkpt lat="37.870882979593745" lon="-4.803884958901113"><ele>116.0</ele><time>2026-04-05T15:29:39.847Z</time></trkpt><trkpt lat="37.87060521553917" lon="-4.803816201263211"><ele>116.0</ele><time>2026-04-05T15:29:40.847Z</time></trkpt><trkpt lat="37.87032635162787" lon="-4.803740691119549"><ele>116.0</ele><time>2026-04-05T15:29:41.847Z</time></trkpt><trkpt lat="37.870052081192306" lon="-4.803659442311248"><ele>115.5</ele><time>2026-04-05T15:29:42.847Z</time></trkpt><trkpt lat="37.86978407609628" lon="-4.803560264859608"><ele>115.0</ele><time>2026-04-05T15:29:43.847Z</time></trkpt><trkpt lat="37.86952574147584" lon="-4.803440179082017"><ele>115.5</ele><time>2026-04-05T15:29:44.847Z</time></trkpt><trkpt lat="37.869271057450085" lon="-4.803310923604078"><ele>116.0</ele><time>2026-04-05T15:29:45.847Z</time></trkpt><trkpt lat="37.86901863318926" lon="-4.803171820776306"><ele>116.0</ele><time>2026-04-05T15:29:46.847Z</time></trkpt><trkpt lat="37.868768083202326" lon="-4.803030206269486"><ele>116.0</ele><time>2026-04-05T15:29:47.847Z</time></trkpt><trkpt lat="37.868517501606746" lon="-4.802880347558667"><ele>115.5</ele><time>2026-04-05T15:29:48.847Z</time></trkpt><trkpt lat="37.86827301492557" lon="-4.802720322452707"><ele>115.0</ele><time>2026-04-05T15:29:49.847Z</time></trkpt><trkpt lat="37.86803443583707" lon="-4.802544989445581"><ele>115.0</ele><time>2026-04-05T15:29:50.847Z</time></trkpt><trkpt lat="37.867802036586575" lon="-4.802359838865773"><ele>115.0</ele><time>2026-04-05T15:29:51.847Z</time></trkpt><trkpt lat="37.8675761755707" lon="-4.802165822876084"><ele>115.0</ele><time>2026-04-05T15:29:52.847Z</time></trkpt><trkpt lat="37.8673552727807" lon="-4.80196171227227"><ele>115.0</ele><time>2026-04-05T15:29:53.847Z</time></trkpt><trkpt lat="37.86713945186572" lon="-4.801748792297713"><ele>114.5</ele><time>2026-04-05T15:29:54.847Z</time></trkpt><trkpt lat="37.866928524723704" lon="-4.801529910165725"><ele>114.0</ele><time>2026-04-05T15:29:55.842Z</time></trkpt><trkpt lat="37.866722192501356" lon="-4.801302253932639"><ele>112.0</ele><time>2026-04-05T15:29:56.842Z</time></trkpt><trkpt lat="37.86651993436433" lon="-4.801066157203171"><ele>110.0</ele><time>2026-04-05T15:29:57.842Z</time></trkpt><trkpt lat="37.86632680954619" lon="-4.800819800774814"><ele>108.0</ele><time>2026-04-05T15:29:58.842Z</time></trkpt><trkpt lat="37.866141285847654" lon="-4.800567212491599"><ele>106.0</ele><time>2026-04-05T15:29:59.842Z</time></trkpt><trkpt lat="37.86596208681113" lon="-4.800307228945906"><ele>105.5</ele><time>2026-04-05T15:30:00.842Z</time></trkpt><trkpt lat="37.86578914126118" lon="-4.8000420944195215"><ele>105.0</ele><time>2026-04-05T15:30:01.842Z</time></trkpt><trkpt lat="37.86561804245306" lon="-4.7997722557283184"><ele>105.0</ele><time>2026-04-05T15:30:02.842Z</time></trkpt><trkpt lat="37.86545758421712" lon="-4.799497971071809"><ele>105.0</ele><time>2026-04-05T15:30:03.842Z</time></trkpt><trkpt lat="37.865296747076655" lon="-4.799221362939485"><ele>105.5</ele><time>2026-04-05T15:30:04.842Z</time></trkpt><trkpt lat="37.865136832200065" lon="-4.798941008665351"><ele>106.0</ele><time>2026-04-05T15:30:05.842Z</time></trkpt><trkpt lat="37.86497937967129" lon="-4.798658714151962"><ele>105.5</ele><time>2026-04-05T15:30:06.842Z</time></trkpt><trkpt lat="37.864821877740546" lon="-4.798374177392834"><ele>105.0</ele><time>2026-04-05T15:30:07.842Z</time></trkpt><trkpt lat="37.86466661781278" lon="-4.798088238270458"><ele>105.0</ele><time>2026-04-05T15:30:08.842Z</time></trkpt><trkpt lat="37.86451298813982" lon="-4.797799916192577"><ele>105.0</ele><time>2026-04-05T15:30:09.842Z</time></trkpt><trkpt lat="37.864363164766516" lon="-4.797507019635913"><ele>106.5</ele><time>2026-04-05T15:30:10.842Z</time></trkpt><trkpt lat="37.86421355998625" lon="-4.797210082581797"><ele>108.0</ele><time>2026-04-05T15:30:11.842Z</time></trkpt><trkpt lat="37.86406275756745" lon="-4.79691443022812"><ele>107.0</ele><time>2026-04-05T15:30:12.842Z</time></trkpt><trkpt lat="37.86391030503901" lon="-4.796619614363841"><ele>106.0</ele><time>2026-04-05T15:30:13.842Z</time></trkpt><trkpt lat="37.86375798215219" lon="-4.796326227485584"><ele>106.0</ele><time>2026-04-05T15:30:14.842Z</time></trkpt><trkpt lat="37.86360135229092" lon="-4.79603625415329"><ele>106.0</ele><time>2026-04-05T15:30:15.842Z</time></trkpt><trkpt lat="37.86343389496741" lon="-4.795748201224457"><ele>105.0</ele><time>2026-04-05T15:30:16.842Z</time></trkpt><trkpt lat="37.86326254279279" lon="-4.795468378127133"><ele>104.0</ele><time>2026-04-05T15:30:17.842Z</time></trkpt><trkpt lat="37.8630793656768" lon="-4.79519751242584"><ele>103.0</ele><time>2026-04-05T15:30:18.842Z</time></trkpt><trkpt lat="37.86289120522669" lon="-4.794937769172658"><ele>102.0</ele><time>2026-04-05T15:30:19.842Z</time></trkpt><trkpt lat="37.86270204132174" lon="-4.79468393594095"><ele>98.0</ele><time>2026-04-05T15:30:20.842Z</time></trkpt><trkpt lat="37.86251289090437" lon="-4.794435176842315"><ele>94.0</ele><time>2026-04-05T15:30:21.842Z</time></trkpt><trkpt lat="37.86232141131652" lon="-4.794189914180887"><ele>94.0</ele><time>2026-04-05T15:30:22.842Z</time></trkpt><trkpt lat="37.862131376304276" lon="-4.793945317744421"><ele>94.0</ele><time>2026-04-05T15:30:23.842Z</time></trkpt><trkpt lat="37.86194318603082" lon="-4.793700613947671"><ele>92.0</ele><time>2026-04-05T15:30:24.842Z</time></trkpt><trkpt lat="37.86175628017708" lon="-4.79346005338969"><ele>90.0</ele><time>2026-04-05T15:30:25.842Z</time></trkpt><trkpt lat="37.861568377701836" lon="-4.793223038600895"><ele>90.0</ele><time>2026-04-05T15:30:26.842Z</time></trkpt><trkpt lat="37.86138029027799" lon="-4.79298430450447"><ele>90.0</ele><time>2026-04-05T15:30:27.842Z</time></trkpt><trkpt lat="37.86119356141669" lon="-4.792748902355499"><ele>90.5</ele><time>2026-04-05T15:30:28.842Z</time></trkpt><trkpt lat="37.86100659727661" lon="-4.792513719589108"><ele>91.0</ele><time>2026-04-05T15:30:29.842Z</time></trkpt><trkpt lat="37.860820511541974" lon="-4.792280344974188"><ele>91.0</ele><time>2026-04-05T15:30:30.842Z</time></trkpt><trkpt lat="37.86063360163288" lon="-4.7920494252041825"><ele>91.0</ele><time>2026-04-05T15:30:31.842Z</time></trkpt><trkpt lat="37.86044662557397" lon="-4.791820373202034"><ele>90.5</ele><time>2026-04-05T15:30:32.842Z</time></trkpt><trkpt lat="37.86025820996057" lon="-4.791594847956286"><ele>90.0</ele><time>2026-04-05T15:30:33.842Z</time></trkpt><trkpt lat="37.86007160247348" lon="-4.7913694671801075"><ele>90.0</ele><time>2026-04-05T15:30:34.842Z</time></trkpt><trkpt lat="37.8598831151143" lon="-4.791141172938674"><ele>90.0</ele><time>2026-04-05T15:30:35.842Z</time></trkpt><trkpt lat="37.85969235428859" lon="-4.7909132467699695"><ele>89.0</ele><time>2026-04-05T15:30:36.842Z</time></trkpt><trkpt lat="37.85950283436121" lon="-4.790683063646699"><ele>88.0</ele><time>2026-04-05T15:30:37.842Z</time></trkpt><trkpt lat="37.85931269402329" lon="-4.790449542145058"><ele>90.0</ele><time>2026-04-05T15:30:38.842Z</time></trkpt><trkpt lat="37.859124166742575" lon="-4.7902181309199205"><ele>92.0</ele><time>2026-04-05T15:30:39.842Z</time></trkpt><trkpt lat="37.858935732233256" lon="-4.789988676916765"><ele>93.5</ele><time>2026-04-05T15:30:40.842Z</time></trkpt><trkpt lat="37.858753715394826" lon="-4.78975541579411"><ele>95.0</ele><time>2026-04-05T15:30:41.842Z</time></trkpt><trkpt lat="37.85857346935099" lon="-4.78952535306554"><ele>95.5</ele><time>2026-04-05T15:30:42.842Z</time></trkpt><trkpt lat="37.85840069680359" lon="-4.789289321645578"><ele>96.0</ele><time>2026-04-05T15:30:43.842Z</time></trkpt><trkpt lat="37.85822964411739" lon="-4.789047647548948"><ele>96.0</ele><time>2026-04-05T15:30:44.842Z</time></trkpt><trkpt lat="37.85805704283243" lon="-4.788799575465876"><ele>96.0</ele><time>2026-04-05T15:30:45.842Z</time></trkpt><trkpt lat="37.857886912942895" lon="-4.788544547904337"><ele>97.0</ele><time>2026-04-05T15:30:46.842Z</time></trkpt><trkpt lat="37.8577223613119" lon="-4.788299290666692"><ele>98.0</ele><time>2026-04-05T15:30:47.842Z</time></trkpt><trkpt lat="37.85755853370029" lon="-4.788050503980385"><ele>99.0</ele><time>2026-04-05T15:30:48.842Z</time></trkpt><trkpt lat="37.857394086512684" lon="-4.787796515421078"><ele>100.0</ele><time>2026-04-05T15:30:49.842Z</time></trkpt><trkpt lat="37.85722952084969" lon="-4.787544823602595"><ele>100.0</ele><time>2026-04-05T15:30:50.842Z</time></trkpt><trkpt lat="37.8570659463705" lon="-4.787299163334447"><ele>100.0</ele><time>2026-04-05T15:30:51.842Z</time></trkpt><trkpt lat="37.856900716868594" lon="-4.787047808450303"><ele>100.0</ele><time>2026-04-05T15:30:52.842Z</time></trkpt><trkpt lat="37.856734897082795" lon="-4.786794553482986"><ele>100.0</ele><time>2026-04-05T15:30:53.842Z</time></trkpt><trkpt lat="37.85656675587604" lon="-4.786540905974546"><ele>100.0</ele><time>2026-04-05T15:30:54.842Z</time></trkpt><trkpt lat="37.85639600264577" lon="-4.786288634256673"><ele>100.0</ele><time>2026-04-05T15:30:55.842Z</time></trkpt><trkpt lat="37.85622529441054" lon="-4.786033889712808"><ele>100.0</ele><time>2026-04-05T15:30:56.842Z</time></trkpt><trkpt lat="37.8560575461229" lon="-4.785775426133259"><ele>100.0</ele><time>2026-04-05T15:30:57.841Z</time></trkpt><trkpt lat="37.85589245600567" lon="-4.785519198399669"><ele>99.5</ele><time>2026-04-05T15:30:58.841Z</time></trkpt><trkpt lat="37.85572796554678" lon="-4.785263496446141"><ele>99.0</ele><time>2026-04-05T15:30:59.841Z</time></trkpt><trkpt lat="37.85556665177286" lon="-4.7850166993974845"><ele>100.0</ele><time>2026-04-05T15:31:00.841Z</time></trkpt><trkpt lat="37.855403720641036" lon="-4.784772329151776"><ele>101.0</ele><time>2026-04-05T15:31:01.841Z</time></trkpt><trkpt lat="37.85524156393102" lon="-4.784528188382709"><ele>101.0</ele><time>2026-04-05T15:31:02.841Z</time></trkpt><trkpt lat="37.85507887631478" lon="-4.784283056278146"><ele>101.0</ele><time>2026-04-05T15:31:03.841Z</time></trkpt><trkpt lat="37.854912678427446" lon="-4.7840376746650675"><ele>101.0</ele><time>2026-04-05T15:31:04.841Z</time></trkpt><trkpt lat="37.85473775102287" lon="-4.783797714549126"><ele>101.0</ele><time>2026-04-05T15:31:05.841Z</time></trkpt><trkpt lat="37.85455040283557" lon="-4.783567698135504"><ele>101.5</ele><time>2026-04-05T15:31:06.841Z</time></trkpt><trkpt lat="37.8543545047308" lon="-4.783353983751533"><ele>102.0</ele><time>2026-04-05T15:31:07.841Z</time></trkpt><trkpt lat="37.85414427930701" lon="-4.783157877510841"><ele>101.0</ele><time>2026-04-05T15:31:08.841Z</time></trkpt><trkpt lat="37.853922095142295" lon="-4.782979628643605"><ele>100.0</ele><time>2026-04-05T15:31:09.841Z</time></trkpt><trkpt lat="37.85369218647426" lon="-4.782820580754237"><ele>103.5</ele><time>2026-04-05T15:31:10.841Z</time></trkpt><trkpt lat="37.85345352119046" lon="-4.782675357558331"><ele>107.0</ele><time>2026-04-05T15:31:11.841Z</time></trkpt><trkpt lat="37.8532127108052" lon="-4.782541225876272"><ele>107.0</ele><time>2026-04-05T15:31:12.841Z</time></trkpt><trkpt lat="37.852966214282375" lon="-4.782423064235445"><ele>107.0</ele><time>2026-04-05T15:31:13.841Z</time></trkpt><trkpt lat="37.85271758122746" lon="-4.782324276009394"><ele>106.5</ele><time>2026-04-05T15:31:14.841Z</time></trkpt><trkpt lat="37.85246612456419" lon="-4.782248988117735"><ele>106.0</ele><time>2026-04-05T15:31:15.841Z</time></trkpt><trkpt lat="37.85221337552076" lon="-4.782192372336077"><ele>106.0</ele><time>2026-04-05T15:31:16.841Z</time></trkpt><trkpt lat="37.8519562908653" lon="-4.782148003353465"><ele>106.0</ele><time>2026-04-05T15:31:17.841Z</time></trkpt><trkpt lat="37.85170193042677" lon="-4.7821206067599675"><ele>106.5</ele><time>2026-04-05T15:31:18.841Z</time></trkpt><trkpt lat="37.851458108085595" lon="-4.782110503018725"><ele>107.0</ele><time>2026-04-05T15:31:19.841Z</time></trkpt><trkpt lat="37.851234245567014" lon="-4.782132343147893"><ele>107.0</ele><time>2026-04-05T15:31:20.841Z</time></trkpt><trkpt lat="37.851025106433866" lon="-4.782176187778936"><ele>107.0</ele><time>2026-04-05T15:31:21.841Z</time></trkpt><trkpt lat="37.85081729476948" lon="-4.782246384185143"><ele>107.0</ele><time>2026-04-05T15:31:22.841Z</time></trkpt><trkpt lat="37.85061444037892" lon="-4.782332441012819"><ele>107.0</ele><time>2026-04-05T15:31:23.841Z</time></trkpt><trkpt lat="37.85042585126975" lon="-4.782441963344669"><ele>107.0</ele><time>2026-04-05T15:31:24.841Z</time></trkpt><trkpt lat="37.8502403824071" lon="-4.782571840191472"><ele>107.0</ele><time>2026-04-05T15:31:25.841Z</time></trkpt><trkpt lat="37.85006936601787" lon="-4.782720302401549"><ele>107.33333333333333</ele><time>2026-04-05T15:31:26.841Z</time></trkpt><trkpt lat="37.84990699241583" lon="-4.782887394805172"><ele>107.66666666666666</ele><time>2026-04-05T15:31:27.841Z</time></trkpt><trkpt lat="37.849759426150236" lon="-4.7830688370606245"><ele>108.0</ele><time>2026-04-05T15:31:28.841Z</time></trkpt><trkpt lat="37.84963049951477" lon="-4.783262027568732"><ele>108.0</ele><time>2026-04-05T15:31:29.841Z</time></trkpt><trkpt lat="37.849522518161166" lon="-4.7834567770679035"><ele>108.0</ele><time>2026-04-05T15:31:30.841Z</time></trkpt><trkpt lat="37.84943411769242" lon="-4.783647298511655"><ele>108.0</ele><time>2026-04-05T15:31:31.841Z</time></trkpt><trkpt lat="37.849371967548706" lon="-4.783845265115891"><ele>107.66666666666666</ele><time>2026-04-05T15:31:32.841Z</time></trkpt><trkpt lat="37.849343081709094" lon="-4.7840424017998755"><ele>107.33333333333333</ele><time>2026-04-05T15:31:33.841Z</time></trkpt><trkpt lat="37.84935360878295" lon="-4.78424054198128"><ele>107.0</ele><time>2026-04-05T15:31:34.841Z</time></trkpt><trkpt lat="37.849403174374416" lon="-4.784425200196449"><ele>107.0</ele><time>2026-04-05T15:31:35.841Z</time></trkpt><trkpt lat="37.849483264519755" lon="-4.784592075628865"><ele>107.0</ele><time>2026-04-05T15:31:36.841Z</time></trkpt><trkpt lat="37.849591603069236" lon="-4.784727035547298"><ele>107.0</ele><time>2026-04-05T15:31:37.841Z</time></trkpt><trkpt lat="37.84972043932754" lon="-4.784814636993751"><ele>107.0</ele><time>2026-04-05T15:31:38.841Z</time></trkpt><trkpt lat="37.849864441543666" lon="-4.78485361101222"><ele>107.0</ele><time>2026-04-05T15:31:39.841Z</time></trkpt><trkpt lat="37.85001218578099" lon="-4.784839274489963"><ele>107.0</ele><time>2026-04-05T15:31:40.841Z</time></trkpt><trkpt lat="37.85016014240136" lon="-4.784773483911095"><ele>106.66666666666666</ele><time>2026-04-05T15:31:41.841Z</time></trkpt><trkpt lat="37.85029767727952" lon="-4.784665897332108"><ele>106.33333333333334</ele><time>2026-04-05T15:31:42.841Z</time></trkpt><trkpt lat="37.850422069848264" lon="-4.784512578385755"><ele>106.0</ele><time>2026-04-05T15:31:43.841Z</time></trkpt><trkpt lat="37.85053808641358" lon="-4.784325184123099"><ele>105.66666666666667</ele><time>2026-04-05T15:31:44.841Z</time></trkpt><trkpt lat="37.85066611049589" lon="-4.7841175217179845"><ele>105.33333333333334</ele><time>2026-04-05T15:31:45.841Z</time></trkpt><trkpt lat="37.850807365656884" lon="-4.78389784687199"><ele>105.0</ele><time>2026-04-05T15:31:46.841Z</time></trkpt><trkpt lat="37.8509599388253" lon="-4.7836578691230764"><ele>104.5</ele><time>2026-04-05T15:31:47.841Z</time></trkpt><trkpt lat="37.85112043726874" lon="-4.783405972196888"><ele>104.0</ele><time>2026-04-05T15:31:48.841Z</time></trkpt><trkpt lat="37.851279871216285" lon="-4.7831626383105865"><ele>104.0</ele><time>2026-04-05T15:31:49.841Z</time></trkpt><trkpt lat="37.85143965220879" lon="-4.782915655764719"><ele>104.0</ele><time>2026-04-05T15:31:50.841Z</time></trkpt><trkpt lat="37.85160032035539" lon="-4.782671595357977"><ele>105.0</ele><time>2026-04-05T15:31:51.841Z</time></trkpt><trkpt lat="37.85176375152712" lon="-4.782424056931162"><ele>106.0</ele><time>2026-04-05T15:31:52.841Z</time></trkpt><trkpt lat="37.85193321233098" lon="-4.782168645665508"><ele>106.0</ele><time>2026-04-05T15:31:53.841Z</time></trkpt><trkpt lat="37.852103075643214" lon="-4.781915512143336"><ele>106.0</ele><time>2026-04-05T15:31:54.841Z</time></trkpt><trkpt lat="37.852278760081184" lon="-4.78165530455726"><ele>108.5</ele><time>2026-04-05T15:31:55.841Z</time></trkpt><trkpt lat="37.85246317288285" lon="-4.781394654599773"><ele>111.0</ele><time>2026-04-05T15:31:56.841Z</time></trkpt><trkpt lat="37.85265462224449" lon="-4.781129984864541"><ele>117.0</ele><time>2026-04-05T15:31:57.841Z</time></trkpt><trkpt lat="37.85285061401961" lon="-4.780865751843327"><ele>123.0</ele><time>2026-04-05T15:31:58.841Z</time></trkpt><trkpt lat="37.85305309434403" lon="-4.780588142847996"><ele>123.0</ele><time>2026-04-05T15:31:59.841Z</time></trkpt><trkpt lat="37.85325201663356" lon="-4.780328418389676"><ele>123.0</ele><time>2026-04-05T15:32:00.841Z</time></trkpt><trkpt lat="37.85344524714809" lon="-4.780067931653671"><ele>121.0</ele><time>2026-04-05T15:32:01.837Z</time></trkpt><trkpt lat="37.85363963201772" lon="-4.779809004974749"><ele>119.0</ele><time>2026-04-05T15:32:02.836Z</time></trkpt><trkpt lat="37.853832487904334" lon="-4.779551830334177"><ele>120.0</ele><time>2026-04-05T15:32:03.836Z</time></trkpt><trkpt lat="37.85402709827473" lon="-4.779298075961692"><ele>121.0</ele><time>2026-04-05T15:32:04.836Z</time></trkpt><trkpt lat="37.854225316786184" lon="-4.77904214200317"><ele>119.5</ele><time>2026-04-05T15:32:05.836Z</time></trkpt><trkpt lat="37.85442411049612" lon="-4.778786822955562"><ele>118.0</ele><time>2026-04-05T15:32:06.836Z</time></trkpt><trkpt lat="37.85462532510712" lon="-4.77853200919788"><ele>119.5</ele><time>2026-04-05T15:32:07.836Z</time></trkpt><trkpt lat="37.854829971665424" lon="-4.778276677269335"><ele>121.0</ele><time>2026-04-05T15:32:08.836Z</time></trkpt><trkpt lat="37.855037575333284" lon="-4.778023034134784"><ele>118.0</ele><time>2026-04-05T15:32:09.836Z</time></trkpt><trkpt lat="37.85524935390876" lon="-4.777775002642756"><ele>115.0</ele><time>2026-04-05T15:32:10.836Z</time></trkpt><trkpt lat="37.855460228761565" lon="-4.777523235984931"><ele>115.0</ele><time>2026-04-05T15:32:11.835Z</time></trkpt><trkpt lat="37.8556734530922" lon="-4.777269516726776"><ele>115.0</ele><time>2026-04-05T15:32:12.835Z</time></trkpt><trkpt lat="37.8558851928262" lon="-4.7770133150888165"><ele>114.0</ele><time>2026-04-05T15:32:13.836Z</time></trkpt><trkpt lat="37.85609698384792" lon="-4.776753328680164"><ele>113.0</ele><time>2026-04-05T15:32:14.836Z</time></trkpt><trkpt lat="37.85630991829718" lon="-4.776492827860764"><ele>113.0</ele><time>2026-04-05T15:32:15.836Z</time></trkpt><trkpt lat="37.85652004162377" lon="-4.7762389911251075"><ele>113.0</ele><time>2026-04-05T15:32:16.836Z</time></trkpt><trkpt lat="37.8567285559837" lon="-4.775984330922704"><ele>112.0</ele><time>2026-04-05T15:32:17.836Z</time></trkpt><trkpt lat="37.85693412010531" lon="-4.775732142629471"><ele>111.0</ele><time>2026-04-05T15:32:18.836Z</time></trkpt><trkpt lat="37.85713779897819" lon="-4.775479839108132"><ele>111.0</ele><time>2026-04-05T15:32:19.836Z</time></trkpt><trkpt lat="37.85733890973536" lon="-4.775229714406898"><ele>111.0</ele><time>2026-04-05T15:32:20.836Z</time></trkpt><trkpt lat="37.85753558238333" lon="-4.774982211472013"><ele>110.0</ele><time>2026-04-05T15:32:21.836Z</time></trkpt><trkpt lat="37.85772867387624" lon="-4.774735454616502"><ele>109.0</ele><time>2026-04-05T15:32:22.836Z</time></trkpt><trkpt lat="37.85791567020236" lon="-4.774488328267717"><ele>109.5</ele><time>2026-04-05T15:32:23.836Z</time></trkpt><trkpt lat="37.858090386959226" lon="-4.774253378227128"><ele>110.0</ele><time>2026-04-05T15:32:24.836Z</time></trkpt><trkpt lat="37.85825706133659" lon="-4.774013839075232"><ele>110.0</ele><time>2026-04-05T15:32:25.836Z</time></trkpt><trkpt lat="37.85840355097355" lon="-4.773762179950125"><ele>110.0</ele><time>2026-04-05T15:32:26.836Z</time></trkpt><trkpt lat="37.858521908139764" lon="-4.773489426725002"><ele>110.0</ele><time>2026-04-05T15:32:27.836Z</time></trkpt><trkpt lat="37.858610910054544" lon="-4.773194510096326"><ele>110.0</ele><time>2026-04-05T15:32:28.836Z</time></trkpt><trkpt lat="37.858670284550044" lon="-4.7728898457603"><ele>111.5</ele><time>2026-04-05T15:32:29.836Z</time></trkpt><trkpt lat="37.858715241584555" lon="-4.772586852477755"><ele>113.0</ele><time>2026-04-05T15:32:30.836Z</time></trkpt><trkpt lat="37.858713017843016" lon="-4.77227721332072"><ele>113.0</ele><time>2026-04-05T15:32:31.836Z</time></trkpt><trkpt lat="37.858680927639305" lon="-4.771974844598133"><ele>113.0</ele><time>2026-04-05T15:32:32.836Z</time></trkpt><trkpt lat="37.85861782386006" lon="-4.7716923612925415"><ele>112.0</ele><time>2026-04-05T15:32:33.836Z</time></trkpt><trkpt lat="37.85853223620261" lon="-4.771423320671681"><ele>111.0</ele><time>2026-04-05T15:32:34.836Z</time></trkpt><trkpt lat="37.85842653747638" lon="-4.771168858940693"><ele>112.66666666666666</ele><time>2026-04-05T15:32:35.836Z</time></trkpt><trkpt lat="37.8583068355699" lon="-4.770929921637226"><ele>114.33333333333333</ele><time>2026-04-05T15:32:36.835Z</time></trkpt><trkpt lat="37.858166699765334" lon="-4.770706831674176"><ele>116.0</ele><time>2026-04-05T15:32:37.835Z</time></trkpt><trkpt lat="37.85800780990165" lon="-4.77049782327426"><ele>116.0</ele><time>2026-04-05T15:32:38.835Z</time></trkpt><trkpt lat="37.857826992986446" lon="-4.770308900732879"><ele>116.0</ele><time>2026-04-05T15:32:39.835Z</time></trkpt><trkpt lat="37.85762796916194" lon="-4.770140513528508"><ele>116.5</ele><time>2026-04-05T15:32:40.835Z</time></trkpt><trkpt lat="37.857413645064575" lon="-4.769987763731506"><ele>117.0</ele><time>2026-04-05T15:32:41.835Z</time></trkpt><trkpt lat="37.85718958904183" lon="-4.769839588234134"><ele>117.0</ele><time>2026-04-05T15:32:42.835Z</time></trkpt><trkpt lat="37.856955286288375" lon="-4.769684421338928"><ele>117.0</ele><time>2026-04-05T15:32:43.835Z</time></trkpt><trkpt lat="37.85671748406346" lon="-4.769526871605306"><ele>116.5</ele><time>2026-04-05T15:32:44.835Z</time></trkpt><trkpt lat="37.856474882834895" lon="-4.76936024485642"><ele>116.0</ele><time>2026-04-05T15:32:45.835Z</time></trkpt><trkpt lat="37.85623076390843" lon="-4.769181317898473"><ele>117.5</ele><time>2026-04-05T15:32:46.835Z</time></trkpt><trkpt lat="37.855989919082354" lon="-4.768993680873974"><ele>119.0</ele><time>2026-04-05T15:32:47.835Z</time></trkpt><trkpt lat="37.85575995933372" lon="-4.768805843800808"><ele>119.0</ele><time>2026-04-05T15:32:48.835Z</time></trkpt><trkpt lat="37.855531635413044" lon="-4.7686261641055046"><ele>119.0</ele><time>2026-04-05T15:32:49.835Z</time></trkpt><trkpt lat="37.85530055062417" lon="-4.768454803278066"><ele>119.5</ele><time>2026-04-05T15:32:50.835Z</time></trkpt><trkpt lat="37.85505643318805" lon="-4.7682927519003"><ele>120.0</ele><time>2026-04-05T15:32:51.835Z</time></trkpt><trkpt lat="37.85480494291135" lon="-4.7681374935271705"><ele>120.0</ele><time>2026-04-05T15:32:52.835Z</time></trkpt><trkpt lat="37.85454977204018" lon="-4.767980775029717"><ele>120.0</ele><time>2026-04-05T15:32:53.835Z</time></trkpt><trkpt lat="37.85429025798703" lon="-4.767814835146126"><ele>121.5</ele><time>2026-04-05T15:32:54.835Z</time></trkpt><trkpt lat="37.85403464799731" lon="-4.76766031748557"><ele>123.0</ele><time>2026-04-05T15:32:55.835Z</time></trkpt><trkpt lat="37.85379019640994" lon="-4.767493585903901"><ele>123.0</ele><time>2026-04-05T15:32:56.835Z</time></trkpt><trkpt lat="37.853559593628574" lon="-4.767311190867343"><ele>123.0</ele><time>2026-04-05T15:32:57.835Z</time></trkpt><trkpt lat="37.85333017766389" lon="-4.767121867762053"><ele>123.0</ele><time>2026-04-05T15:32:58.835Z</time></trkpt><trkpt lat="37.85312210769141" lon="-4.766890570245605"><ele>123.0</ele><time>2026-04-05T15:32:59.835Z</time></trkpt><trkpt lat="37.85292473942782" lon="-4.766644455507141"><ele>123.0</ele><time>2026-04-05T15:33:00.835Z</time></trkpt><trkpt lat="37.8527423771126" lon="-4.766379271514716"><ele>123.0</ele><time>2026-04-05T15:33:01.835Z</time></trkpt><trkpt lat="37.852540117792024" lon="-4.7661304713762815"><ele>123.5</ele><time>2026-04-05T15:33:02.835Z</time></trkpt><trkpt lat="37.85234686243286" lon="-4.765862711514389"><ele>124.0</ele><time>2026-04-05T15:33:03.835Z</time></trkpt><trkpt lat="37.85214859608149" lon="-4.7655948125017975"><ele>124.0</ele><time>2026-04-05T15:33:04.835Z</time></trkpt><trkpt lat="37.85194934712374" lon="-4.765325883506685"><ele>124.0</ele><time>2026-04-05T15:33:05.835Z</time></trkpt><trkpt lat="37.851748129257686" lon="-4.765056843808123"><ele>125.5</ele><time>2026-04-05T15:33:06.835Z</time></trkpt><trkpt lat="37.85154401924359" lon="-4.7647883840717755"><ele>127.0</ele><time>2026-04-05T15:33:07.835Z</time></trkpt><trkpt lat="37.85134391192839" lon="-4.7645178043150285"><ele>127.0</ele><time>2026-04-05T15:33:08.835Z</time></trkpt><trkpt lat="37.85112756055025" lon="-4.764256682009154"><ele>127.0</ele><time>2026-04-05T15:33:09.835Z</time></trkpt><trkpt lat="37.85091838307709" lon="-4.763978755110965"><ele>127.0</ele><time>2026-04-05T15:33:10.835Z</time></trkpt><trkpt lat="37.85070345464558" lon="-4.763693187100716"><ele>127.0</ele><time>2026-04-05T15:33:11.835Z</time></trkpt><trkpt lat="37.85048551086591" lon="-4.763403612743834"><ele>128.0</ele><time>2026-04-05T15:33:12.835Z</time></trkpt><trkpt lat="37.850260658484736" lon="-4.763104859155637"><ele>129.0</ele><time>2026-04-05T15:33:13.835Z</time></trkpt><trkpt lat="37.85005041729912" lon="-4.762778182651551"><ele>131.5</ele><time>2026-04-05T15:33:14.835Z</time></trkpt><trkpt lat="37.84982528245672" lon="-4.762474846939838"><ele>134.0</ele><time>2026-04-05T15:33:15.835Z</time></trkpt><trkpt lat="37.84960267385824" lon="-4.762177084590217"><ele>134.0</ele><time>2026-04-05T15:33:16.835Z</time></trkpt><trkpt lat="37.849384335087564" lon="-4.7618873640593025"><ele>134.0</ele><time>2026-04-05T15:33:17.835Z</time></trkpt><trkpt lat="37.84916623977751" lon="-4.761601966491124"><ele>134.0</ele><time>2026-04-05T15:33:18.835Z</time></trkpt><trkpt lat="37.84895138703633" lon="-4.761313891845462"><ele>134.0</ele><time>2026-04-05T15:33:19.835Z</time></trkpt><trkpt lat="37.84873694412235" lon="-4.761031487530555"><ele>134.5</ele><time>2026-04-05T15:33:20.835Z</time></trkpt><trkpt lat="37.84852485149768" lon="-4.760748794967077"><ele>135.0</ele><time>2026-04-05T15:33:21.835Z</time></trkpt><trkpt lat="37.84831147217022" lon="-4.760468678250104"><ele>136.5</ele><time>2026-04-05T15:33:22.835Z</time></trkpt><trkpt lat="37.848090505796904" lon="-4.760194246284342"><ele>138.0</ele><time>2026-04-05T15:33:23.835Z</time></trkpt><trkpt lat="37.84787960172371" lon="-4.7599202541145615"><ele>138.0</ele><time>2026-04-05T15:33:24.835Z</time></trkpt><trkpt lat="37.847685330566854" lon="-4.759628408123639"><ele>138.0</ele><time>2026-04-05T15:33:25.835Z</time></trkpt><trkpt lat="37.84751696646321" lon="-4.759313351558264"><ele>136.0</ele><time>2026-04-05T15:33:26.835Z</time></trkpt><trkpt lat="37.84736651650082" lon="-4.758973077813642"><ele>134.0</ele><time>2026-04-05T15:33:27.835Z</time></trkpt><trkpt lat="37.84723335389945" lon="-4.7586132067266025"><ele>137.0</ele><time>2026-04-05T15:33:28.835Z</time></trkpt><trkpt lat="37.847111392963164" lon="-4.7582412869267205"><ele>140.0</ele><time>2026-04-05T15:33:29.835Z</time></trkpt><trkpt lat="37.8469983978025" lon="-4.757858634952389"><ele>140.0</ele><time>2026-04-05T15:33:30.835Z</time></trkpt><trkpt lat="37.84688606933358" lon="-4.757470370985733"><ele>140.0</ele><time>2026-04-05T15:33:31.835Z</time></trkpt><trkpt lat="37.846767281118225" lon="-4.757069490903864"><ele>142.0</ele><time>2026-04-05T15:33:32.835Z</time></trkpt><trkpt lat="37.846637615843775" lon="-4.756660832300719"><ele>144.0</ele><time>2026-04-05T15:33:33.835Z</time></trkpt><trkpt lat="37.84650907625118" lon="-4.756253045117578"><ele>145.5</ele><time>2026-04-05T15:33:34.835Z</time></trkpt><trkpt lat="37.84638978373938" lon="-4.755861994678739"><ele>147.0</ele><time>2026-04-05T15:33:35.835Z</time></trkpt><trkpt lat="37.846279062509986" lon="-4.7554811252213565"><ele>148.0</ele><time>2026-04-05T15:33:36.835Z</time></trkpt><trkpt lat="37.84618052529079" lon="-4.755117342573279"><ele>149.0</ele><time>2026-04-05T15:33:37.835Z</time></trkpt><trkpt lat="37.846046987594704" lon="-4.754713887453752"><ele>147.0</ele><time>2026-04-05T15:33:38.835Z</time></trkpt><trkpt lat="37.84590544295746" lon="-4.754320331061952"><ele>145.0</ele><time>2026-04-05T15:33:39.835Z</time></trkpt><trkpt lat="37.84580675672936" lon="-4.754025643407013"><ele>145.0</ele><time>2026-04-05T15:33:40.835Z</time></trkpt><trkpt lat="37.84567310857962" lon="-4.753666450008347"><ele>145.0</ele><time>2026-04-05T15:33:41.835Z</time></trkpt><trkpt lat="37.845540029247715" lon="-4.753310703607835"><ele>145.5</ele><time>2026-04-05T15:33:42.835Z</time></trkpt><trkpt lat="37.84544687642952" lon="-4.75294175399615"><ele>146.0</ele><time>2026-04-05T15:33:43.835Z</time></trkpt><trkpt lat="37.84534067065081" lon="-4.752583371189519"><ele>146.0</ele><time>2026-04-05T15:33:44.835Z</time></trkpt><trkpt lat="37.8454679905802" lon="-4.752710193608958"><ele>146.0</ele><time>2026-04-05T15:33:45.835Z</time></trkpt><trkpt lat="37.845389103586754" lon="-4.752448097794199"><ele>146.0</ele><time>2026-04-05T15:33:46.835Z</time></trkpt><trkpt lat="37.84531629512839" lon="-4.752206109353348"><ele>149.0</ele><time>2026-04-05T15:33:47.835Z</time></trkpt><trkpt lat="37.8450727601347" lon="-4.75169300639905"><ele>149.0</ele><time>2026-04-05T15:33:48.835Z</time></trkpt><trkpt lat="37.84512169029051" lon="-4.751592397067614"><ele>149.0</ele><time>2026-04-05T15:33:50.835Z</time></trkpt><trkpt lat="37.84509823930261" lon="-4.751446431698702"><ele>149.0</ele><time>2026-04-05T15:33:51.835Z</time></trkpt><trkpt lat="37.84504518413591" lon="-4.751306047953235"><ele>149.0</ele><time>2026-04-05T15:33:52.835Z</time></trkpt><trkpt lat="37.8450058839307" lon="-4.751175886326002"><ele>149.0</ele><time>2026-04-05T15:33:53.835Z</time></trkpt><trkpt lat="37.84497252502488" lon="-4.751065402235298"><ele>149.6</ele><time>2026-04-05T15:33:54.835Z</time></trkpt><trkpt lat="37.84494960753738" lon="-4.750989499588147"><ele>150.2</ele><time>2026-04-05T15:33:55.835Z</time></trkpt><trkpt lat="37.8450943026693" lon="-4.750864684938422"><ele>150.79999999999998</ele><time>2026-04-05T15:33:56.835Z</time></trkpt><trkpt lat="37.84514185336051" lon="-4.750798466739602"><ele>151.4</ele><time>2026-04-05T15:33:57.835Z</time></trkpt><trkpt lat="37.845200472440396" lon="-4.750722469372344"><ele>152.0</ele><time>2026-04-05T15:33:58.835Z</time></trkpt><trkpt lat="37.845245502736844" lon="-4.750657297989567"><ele>152.0</ele><time>2026-04-05T15:33:59.835Z</time></trkpt><trkpt lat="37.84530284716223" lon="-4.750566027497707"><ele>152.0</ele><time>2026-04-05T15:34:01.835Z</time></trkpt><trkpt lat="37.84510395072309" lon="-4.750390344005962"><ele>152.0</ele><time>2026-04-05T15:34:02.835Z</time></trkpt><trkpt lat="37.84506653325598" lon="-4.750292268215236"><ele>152.0</ele><time>2026-04-05T15:34:03.835Z</time></trkpt><trkpt lat="37.84501890806204" lon="-4.750184534381214"><ele>153.0</ele><time>2026-04-05T15:34:04.835Z</time></trkpt><trkpt lat="37.844964726519784" lon="-4.7500868161304854"><ele>154.0</ele><time>2026-04-05T15:34:05.835Z</time></trkpt><trkpt lat="37.844907101593414" lon="-4.749982171583893"><ele>155.0</ele><time>2026-04-05T15:34:06.835Z</time></trkpt><trkpt lat="37.844849419781454" lon="-4.74986838520223"><ele>156.0</ele><time>2026-04-05T15:34:07.83Z</time></trkpt><trkpt lat="37.84479991908052" lon="-4.7497454980397675"><ele>157.0</ele><time>2026-04-05T15:34:08.83Z</time></trkpt><trkpt lat="37.844752949181434" lon="-4.749614858656765"><ele>157.0</ele><time>2026-04-05T15:34:09.83Z</time></trkpt><trkpt lat="37.84470719154008" lon="-4.7494841988685215"><ele>157.0</ele><time>2026-04-05T15:34:10.83Z</time></trkpt><trkpt lat="37.84466364266257" lon="-4.749347793660938"><ele>157.0</ele><time>2026-04-05T15:34:11.83Z</time></trkpt><trkpt lat="37.84462241056602" lon="-4.749206584675664"><ele>157.0</ele><time>2026-04-05T15:34:12.83Z</time></trkpt><trkpt lat="37.844584092853715" lon="-4.749066841939736"><ele>157.25</ele><time>2026-04-05T15:34:13.831Z</time></trkpt><trkpt lat="37.84454623017199" lon="-4.748924009831551"><ele>157.5</ele><time>2026-04-05T15:34:14.831Z</time></trkpt><trkpt lat="37.84450798213587" lon="-4.748779567172947"><ele>157.75</ele><time>2026-04-05T15:34:15.831Z</time></trkpt><trkpt lat="37.84448237805597" lon="-4.748629884503146"><ele>158.0</ele><time>2026-04-05T15:34:16.83Z</time></trkpt><trkpt lat="37.84441277712685" lon="-4.748499289114353"><ele>157.75</ele><time>2026-04-05T15:34:17.83Z</time></trkpt><trkpt lat="37.84436063696246" lon="-4.748354182410428"><ele>157.5</ele><time>2026-04-05T15:34:18.83Z</time></trkpt><trkpt lat="37.844315245941075" lon="-4.7482093003932855"><ele>157.25</ele><time>2026-04-05T15:34:19.83Z</time></trkpt><trkpt lat="37.84426984937956" lon="-4.748066503661646"><ele>157.0</ele><time>2026-04-05T15:34:20.83Z</time></trkpt><trkpt lat="37.84422433191699" lon="-4.7479259053150535"><ele>157.0</ele><time>2026-04-05T15:34:21.83Z</time></trkpt><trkpt lat="37.84417994448487" lon="-4.747788797493891"><ele>157.0</ele><time>2026-04-05T15:34:22.83Z</time></trkpt><trkpt lat="37.8441363792872" lon="-4.747648897005048"><ele>157.0</ele><time>2026-04-05T15:34:23.83Z</time></trkpt><trkpt lat="37.84410524513063" lon="-4.747498957571423"><ele>157.0</ele><time>2026-04-05T15:34:24.83Z</time></trkpt><trkpt lat="37.844088880903335" lon="-4.747346856171007"><ele>158.0</ele><time>2026-04-05T15:34:25.83Z</time></trkpt><trkpt lat="37.844076505964686" lon="-4.747208055304582"><ele>159.0</ele><time>2026-04-05T15:34:26.83Z</time></trkpt><trkpt lat="37.844150628522" lon="-4.747016094795307"><ele>160.0</ele><time>2026-04-05T15:34:27.83Z</time></trkpt><trkpt lat="37.84419801579016" lon="-4.746865583260909"><ele>161.0</ele><time>2026-04-05T15:34:28.83Z</time></trkpt><trkpt lat="37.84424526131025" lon="-4.746704895655717"><ele>161.0</ele><time>2026-04-05T15:34:29.83Z</time></trkpt><trkpt lat="37.844284250602755" lon="-4.74655624360974"><ele>161.0</ele><time>2026-04-05T15:34:30.83Z</time></trkpt><trkpt lat="37.84431608557674" lon="-4.7464026429007955"><ele>161.0</ele><time>2026-04-05T15:34:31.83Z</time></trkpt><trkpt lat="37.84433874528437" lon="-4.746257952892912"><ele>161.0</ele><time>2026-04-05T15:34:32.83Z</time></trkpt><trkpt lat="37.84435605095353" lon="-4.746109434346345"><ele>159.5</ele><time>2026-04-05T15:34:33.83Z</time></trkpt><trkpt lat="37.844371314476184" lon="-4.745955414945024"><ele>158.0</ele><time>2026-04-05T15:34:34.83Z</time></trkpt><trkpt lat="37.84438145303616" lon="-4.74580057241913"><ele>156.5</ele><time>2026-04-05T15:34:35.83Z</time></trkpt><trkpt lat="37.84438862367319" lon="-4.745643602169593"><ele>155.0</ele><time>2026-04-05T15:34:36.83Z</time></trkpt><trkpt lat="37.84438798806786" lon="-4.745493595376856"><ele>155.0</ele><time>2026-04-05T15:34:37.83Z</time></trkpt><trkpt lat="37.844381225391054" lon="-4.74535351440313"><ele>155.0</ele><time>2026-04-05T15:34:38.83Z</time></trkpt><trkpt lat="37.84436176272762" lon="-4.745210937616615"><ele>155.0</ele><time>2026-04-05T15:34:39.83Z</time></trkpt><trkpt lat="37.844336697443794" lon="-4.745069713931469"><ele>155.0</ele><time>2026-04-05T15:34:40.83Z</time></trkpt><trkpt lat="37.84431808611416" lon="-4.744919738593062"><ele>155.5</ele><time>2026-04-05T15:34:41.83Z</time></trkpt><trkpt lat="37.84428371731844" lon="-4.744784385302982"><ele>156.0</ele><time>2026-04-05T15:34:42.83Z</time></trkpt><trkpt lat="37.844243750732616" lon="-4.744650595591896"><ele>156.5</ele><time>2026-04-05T15:34:43.83Z</time></trkpt><trkpt lat="37.84419454742333" lon="-4.74451887039961"><ele>157.0</ele><time>2026-04-05T15:34:44.83Z</time></trkpt><trkpt lat="37.844133092223004" lon="-4.744388527994163"><ele>156.75</ele><time>2026-04-05T15:34:45.83Z</time></trkpt><trkpt lat="37.844060298053314" lon="-4.744268501541043"><ele>156.5</ele><time>2026-04-05T15:34:46.83Z</time></trkpt><trkpt lat="37.8439764423531" lon="-4.744150661654279"><ele>156.25</ele><time>2026-04-05T15:34:47.83Z</time></trkpt><trkpt lat="37.84389214154396" lon="-4.744027100059483"><ele>156.0</ele><time>2026-04-05T15:34:48.83Z</time></trkpt><trkpt lat="37.8438124635342" lon="-4.743901455275243"><ele>156.0</ele><time>2026-04-05T15:34:49.83Z</time></trkpt><trkpt lat="37.84373334706949" lon="-4.743772549303398"><ele>156.0</ele><time>2026-04-05T15:34:50.83Z</time></trkpt><trkpt lat="37.843659962899665" lon="-4.743638608629981"><ele>156.0</ele><time>2026-04-05T15:34:51.83Z</time></trkpt><trkpt lat="37.843589643692695" lon="-4.743507428592366"><ele>156.0</ele><time>2026-04-05T15:34:52.83Z</time></trkpt><trkpt lat="37.843504389915196" lon="-4.743394687706454"><ele>156.2</ele><time>2026-04-05T15:34:53.83Z</time></trkpt><trkpt lat="37.84343635959432" lon="-4.743280465457423"><ele>156.39999999999998</ele><time>2026-04-05T15:34:54.83Z</time></trkpt><trkpt lat="37.84337085941529" lon="-4.743170491567114"><ele>156.6</ele><time>2026-04-05T15:34:55.83Z</time></trkpt><trkpt lat="37.84330495681078" lon="-4.7430598419543655"><ele>156.79999999999998</ele><time>2026-04-05T15:34:56.83Z</time></trkpt><trkpt lat="37.843235036681264" lon="-4.742940856126863"><ele>157.0</ele><time>2026-04-05T15:34:57.83Z</time></trkpt><trkpt lat="37.84316388345709" lon="-4.7428160989042425"><ele>156.25</ele><time>2026-04-05T15:34:58.83Z</time></trkpt><trkpt lat="37.843092374047195" lon="-4.742690717301999"><ele>155.5</ele><time>2026-04-05T15:34:59.83Z</time></trkpt><trkpt lat="37.84302131588266" lon="-4.742566166078877"><ele>154.75</ele><time>2026-04-05T15:35:00.83Z</time></trkpt><trkpt lat="37.84294943811979" lon="-4.742443022295144"><ele>154.0</ele><time>2026-04-05T15:35:01.83Z</time></trkpt><trkpt lat="37.84287739088728" lon="-4.742321424222558"><ele>154.0</ele><time>2026-04-05T15:35:02.83Z</time></trkpt><trkpt lat="37.842812393380136" lon="-4.742193212932974"><ele>154.0</ele><time>2026-04-05T15:35:03.83Z</time></trkpt><trkpt lat="37.8427308827903" lon="-4.742080769691136"><ele>154.0</ele><time>2026-04-05T15:35:04.83Z</time></trkpt><trkpt lat="37.842647854441985" lon="-4.74197194102239"><ele>154.0</ele><time>2026-04-05T15:35:05.83Z</time></trkpt><trkpt lat="37.84256290142165" lon="-4.741871783254293"><ele>154.0</ele><time>2026-04-05T15:35:06.83Z</time></trkpt><trkpt lat="37.84247725269304" lon="-4.7417840881658675"><ele>154.0</ele><time>2026-04-05T15:35:07.829Z</time></trkpt><trkpt lat="37.84239007871553" lon="-4.741700928975999"><ele>154.0</ele><time>2026-04-05T15:35:08.829Z</time></trkpt><trkpt lat="37.84229869357014" lon="-4.741622046505083"><ele>154.0</ele><time>2026-04-05T15:35:09.829Z</time></trkpt><trkpt lat="37.84219993895869" lon="-4.7415584814015554"><ele>154.0</ele><time>2026-04-05T15:35:10.829Z</time></trkpt><trkpt lat="37.84210192937119" lon="-4.741505898367958"><ele>154.0</ele><time>2026-04-05T15:35:11.829Z</time></trkpt><trkpt lat="37.8420029315666" lon="-4.741454795917438"><ele>154.0</ele><time>2026-04-05T15:35:12.829Z</time></trkpt><trkpt lat="37.841898983624795" lon="-4.741414904333725"><ele>154.0</ele><time>2026-04-05T15:35:13.829Z</time></trkpt><trkpt lat="37.84180294150512" lon="-4.741389962379604"><ele>154.0</ele><time>2026-04-05T15:35:14.829Z</time></trkpt><trkpt lat="37.841717725236585" lon="-4.741372578140019"><ele>154.0</ele><time>2026-04-05T15:35:15.829Z</time></trkpt><trkpt lat="37.84163975717707" lon="-4.74135421542946"><ele>154.16666666666669</ele><time>2026-04-05T15:35:16.829Z</time></trkpt><trkpt lat="37.84157490561813" lon="-4.741331193148911"><ele>154.33333333333334</ele><time>2026-04-05T15:35:17.829Z</time></trkpt><trkpt lat="37.8414529286242" lon="-4.741298179586943"><ele>154.5</ele><time>2026-04-05T15:35:19.829Z</time></trkpt><trkpt lat="37.84140710074468" lon="-4.7412280701843"><ele>154.66666666666666</ele><time>2026-04-05T15:35:20.829Z</time></trkpt><trkpt lat="37.841398315168675" lon="-4.741136112446061"><ele>154.83333333333331</ele><time>2026-04-05T15:35:21.829Z</time></trkpt><trkpt lat="37.84143219207173" lon="-4.7410416903701655"><ele>155.0</ele><time>2026-04-05T15:35:22.829Z</time></trkpt><trkpt lat="37.841484603706014" lon="-4.74097759972676"><ele>154.5</ele><time>2026-04-05T15:35:23.829Z</time></trkpt><trkpt lat="37.84152230145813" lon="-4.740905560022769"><ele>154.0</ele><time>2026-04-05T15:35:24.829Z</time></trkpt><trkpt lat="37.841557076369554" lon="-4.740828547142998"><ele>153.5</ele><time>2026-04-05T15:35:25.829Z</time></trkpt><trkpt lat="37.84160248860149" lon="-4.7407317703260485"><ele>153.0</ele><time>2026-04-05T15:35:26.829Z</time></trkpt><trkpt lat="37.84163857101802" lon="-4.740639592544315"><ele>152.5</ele><time>2026-04-05T15:35:27.829Z</time></trkpt><trkpt lat="37.84166629530002" lon="-4.740545351193705"><ele>152.0</ele><time>2026-04-05T15:35:28.829Z</time></trkpt><trkpt lat="37.841688839269175" lon="-4.740439774986033"><ele>152.0</ele><time>2026-04-05T15:35:29.829Z</time></trkpt><trkpt lat="37.84169533370094" lon="-4.740328404451986"><ele>152.0</ele><time>2026-04-05T15:35:30.829Z</time></trkpt><trkpt lat="37.84169616609154" lon="-4.740220020188542"><ele>152.0</ele><time>2026-04-05T15:35:31.829Z</time></trkpt><trkpt lat="37.84169889029067" lon="-4.7401027331041865"><ele>152.0</ele><time>2026-04-05T15:35:32.829Z</time></trkpt><trkpt lat="37.84167352582432" lon="-4.739984682849829"><ele>152.0</ele><time>2026-04-05T15:35:33.829Z</time></trkpt><trkpt lat="37.84163780996305" lon="-4.739869527513104"><ele>151.6</ele><time>2026-04-05T15:35:34.829Z</time></trkpt><trkpt lat="37.84158916993706" lon="-4.739759103259965"><ele>151.2</ele><time>2026-04-05T15:35:35.829Z</time></trkpt><trkpt lat="37.8415323731193" lon="-4.739648792145708"><ele>150.8</ele><time>2026-04-05T15:35:36.829Z</time></trkpt><trkpt lat="37.84147011957087" lon="-4.739544676455632"><ele>150.4</ele><time>2026-04-05T15:35:37.829Z</time></trkpt><trkpt lat="37.841397816435894" lon="-4.739441336885999"><ele>150.0</ele><time>2026-04-05T15:35:38.829Z</time></trkpt><trkpt lat="37.841318094992666" lon="-4.739343088795746"><ele>149.0</ele><time>2026-04-05T15:35:39.829Z</time></trkpt><trkpt lat="37.841227724012505" lon="-4.739258998421375"><ele>148.0</ele><time>2026-04-05T15:35:40.829Z</time></trkpt><trkpt lat="37.841142504091074" lon="-4.739173039824589"><ele>147.0</ele><time>2026-04-05T15:35:41.829Z</time></trkpt><trkpt lat="37.84105590386426" lon="-4.739081532369674"><ele>146.0</ele><time>2026-04-05T15:35:42.829Z</time></trkpt><trkpt lat="37.840968069851996" lon="-4.738984052191459"><ele>147.75</ele><time>2026-04-05T15:35:43.829Z</time></trkpt><trkpt lat="37.84088180913363" lon="-4.738889309917249"><ele>149.5</ele><time>2026-04-05T15:35:44.829Z</time></trkpt><trkpt lat="37.84079476644583" lon="-4.738796529402339"><ele>151.25</ele><time>2026-04-05T15:35:45.829Z</time></trkpt><trkpt lat="37.84069889002736" lon="-4.738706979697611"><ele>153.0</ele><time>2026-04-05T15:35:46.829Z</time></trkpt><trkpt lat="37.84060065445431" lon="-4.738622284047353"><ele>152.0</ele><time>2026-04-05T15:35:47.829Z</time></trkpt><trkpt lat="37.84050270772103" lon="-4.73854427886733"><ele>151.0</ele><time>2026-04-05T15:35:48.829Z</time></trkpt><trkpt lat="37.84040313072946" lon="-4.738470827456179"><ele>150.0</ele><time>2026-04-05T15:35:49.829Z</time></trkpt><trkpt lat="37.840306387050724" lon="-4.738400218136659"><ele>149.0</ele><time>2026-04-05T15:35:50.829Z</time></trkpt><trkpt lat="37.840212320081406" lon="-4.738327010058892"><ele>150.0</ele><time>2026-04-05T15:35:51.829Z</time></trkpt><trkpt lat="37.84011679161453" lon="-4.7382578185129"><ele>151.0</ele><time>2026-04-05T15:35:52.829Z</time></trkpt><trkpt lat="37.84002331613838" lon="-4.738182518473709"><ele>152.0</ele><time>2026-04-05T15:35:53.829Z</time></trkpt><trkpt lat="37.83992185713929" lon="-4.738106522746525"><ele>153.0</ele><time>2026-04-05T15:35:54.829Z</time></trkpt><trkpt lat="37.83982301180088" lon="-4.738029185689761"><ele>153.0</ele><time>2026-04-05T15:35:55.829Z</time></trkpt><trkpt lat="37.839723397650545" lon="-4.737954901702778"><ele>153.0</ele><time>2026-04-05T15:35:56.829Z</time></trkpt><trkpt lat="37.83962223051458" lon="-4.737880724528015"><ele>153.0</ele><time>2026-04-05T15:35:57.829Z</time></trkpt><trkpt lat="37.83952928599829" lon="-4.737812725207176"><ele>153.0</ele><time>2026-04-05T15:35:58.829Z</time></trkpt><trkpt lat="37.83945124853094" lon="-4.7377437475072455"><ele>153.0</ele><time>2026-04-05T15:35:59.829Z</time></trkpt><trkpt lat="37.83939064280902" lon="-4.7376737964342945"><ele>153.0</ele><time>2026-04-05T15:36:00.829Z</time></trkpt><trkpt lat="37.83934947462373" lon="-4.737595043409365"><ele>153.0</ele><time>2026-04-05T15:36:01.829Z</time></trkpt><trkpt lat="37.83931896092596" lon="-4.737508780268277"><ele>153.0</ele><time>2026-04-05T15:36:02.829Z</time></trkpt><trkpt lat="37.839288371468164" lon="-4.737405037171399"><ele>153.0</ele><time>2026-04-05T15:36:03.829Z</time></trkpt><trkpt lat="37.83925061818114" lon="-4.737296043195618"><ele>153.0</ele><time>2026-04-05T15:36:04.829Z</time></trkpt><trkpt lat="37.839207254168564" lon="-4.737190132634972"><ele>153.0</ele><time>2026-04-05T15:36:05.829Z</time></trkpt><trkpt lat="37.839156982762965" lon="-4.737078767796993"><ele>153.0</ele><time>2026-04-05T15:36:06.829Z</time></trkpt><trkpt lat="37.83910098435493" lon="-4.736968563442232"><ele>153.0</ele><time>2026-04-05T15:36:07.829Z</time></trkpt><trkpt lat="37.83903831898606" lon="-4.736857450309059"><ele>153.0</ele><time>2026-04-05T15:36:08.829Z</time></trkpt><trkpt lat="37.83896882277413" lon="-4.7367512305683475"><ele>153.0</ele><time>2026-04-05T15:36:09.829Z</time></trkpt><trkpt lat="37.83890432359506" lon="-4.736654077724786"><ele>153.0</ele><time>2026-04-05T15:36:10.829Z</time></trkpt><trkpt lat="37.838827327785474" lon="-4.736560124212935"><ele>152.6</ele><time>2026-04-05T15:36:11.829Z</time></trkpt><trkpt lat="37.838739262407174" lon="-4.736460391276766"><ele>152.20000000000002</ele><time>2026-04-05T15:36:12.829Z</time></trkpt><trkpt lat="37.838661712920505" lon="-4.736377842134872"><ele>151.8</ele><time>2026-04-05T15:36:13.826Z</time></trkpt><trkpt lat="37.83858289487789" lon="-4.736286734986785"><ele>151.4</ele><time>2026-04-05T15:36:14.825Z</time></trkpt><trkpt lat="37.838515801017635" lon="-4.736199557297786"><ele>151.0</ele><time>2026-04-05T15:36:15.825Z</time></trkpt><trkpt lat="37.838451661719844" lon="-4.736098324031159"><ele>151.4</ele><time>2026-04-05T15:36:16.825Z</time></trkpt><trkpt lat="37.838397138135306" lon="-4.736003552866701"><ele>151.8</ele><time>2026-04-05T15:36:17.825Z</time></trkpt><trkpt lat="37.83833971237223" lon="-4.735900230004363"><ele>152.20000000000002</ele><time>2026-04-05T15:36:18.825Z</time></trkpt><trkpt lat="37.83828189384496" lon="-4.735813802934352"><ele>152.6</ele><time>2026-04-05T15:36:19.825Z</time></trkpt><trkpt lat="37.838233809883704" lon="-4.735732368537428"><ele>153.0</ele><time>2026-04-05T15:36:20.825Z</time></trkpt><trkpt lat="37.83818564554515" lon="-4.735637355869235"><ele>153.0</ele><time>2026-04-05T15:36:21.825Z</time></trkpt><trkpt lat="37.83814085953143" lon="-4.7355398102257125"><ele>153.0</ele><time>2026-04-05T15:36:22.825Z</time></trkpt><trkpt lat="37.83809244799043" lon="-4.735434064717662"><ele>153.0</ele><time>2026-04-05T15:36:23.824Z</time></trkpt><trkpt lat="37.838042569926046" lon="-4.73533108772116"><ele>153.0</ele><time>2026-04-05T15:36:24.824Z</time></trkpt><trkpt lat="37.837989632993136" lon="-4.735219590600933"><ele>153.0</ele><time>2026-04-05T15:36:25.825Z</time></trkpt><trkpt lat="37.837932711964605" lon="-4.735110329783718"><ele>153.0</ele><time>2026-04-05T15:36:26.825Z</time></trkpt><trkpt lat="37.837874503345624" lon="-4.735011492004208"><ele>153.0</ele><time>2026-04-05T15:36:27.825Z</time></trkpt><trkpt lat="37.83781695598299" lon="-4.734917197337865"><ele>153.0</ele><time>2026-04-05T15:36:28.825Z</time></trkpt><trkpt lat="37.83775738244183" lon="-4.734831636616192"><ele>153.0</ele><time>2026-04-05T15:36:29.825Z</time></trkpt><trkpt lat="37.83770142558675" lon="-4.734751668743482"><ele>153.0</ele><time>2026-04-05T15:36:30.825Z</time></trkpt><trkpt lat="37.83764643328282" lon="-4.734679115344936"><ele>153.0</ele><time>2026-04-05T15:36:31.825Z</time></trkpt><trkpt lat="37.8375781239801" lon="-4.734598731333045"><ele>153.5</ele><time>2026-04-05T15:36:32.825Z</time></trkpt><trkpt lat="37.837509799339855" lon="-4.734528517207736"><ele>154.0</ele><time>2026-04-05T15:36:33.825Z</time></trkpt><trkpt lat="37.837438209996485" lon="-4.734482429067493"><ele>154.5</ele><time>2026-04-05T15:36:34.825Z</time></trkpt><trkpt lat="37.83735323601903" lon="-4.734446438623243"><ele>155.0</ele><time>2026-04-05T15:36:35.825Z</time></trkpt><trkpt lat="37.83726744165332" lon="-4.734430690506842"><ele>155.5</ele><time>2026-04-05T15:36:36.825Z</time></trkpt><trkpt lat="37.83718199070756" lon="-4.734419053350006"><ele>156.0</ele><time>2026-04-05T15:36:37.825Z</time></trkpt><trkpt lat="37.83710018392253" lon="-4.734407082452318"><ele>155.83333333333334</ele><time>2026-04-05T15:36:38.825Z</time></trkpt><trkpt lat="37.8370177202138" lon="-4.734385604960904"><ele>155.66666666666666</ele><time>2026-04-05T15:36:39.825Z</time></trkpt><trkpt lat="37.836933599355945" lon="-4.734363970238225"><ele>155.5</ele><time>2026-04-05T15:36:40.825Z</time></trkpt><trkpt lat="37.836845160485844" lon="-4.734342255381522"><ele>155.33333333333331</ele><time>2026-04-05T15:36:41.825Z</time></trkpt><trkpt lat="37.836771076959636" lon="-4.734321347254437"><ele>155.16666666666666</ele><time>2026-04-05T15:36:42.825Z</time></trkpt><trkpt lat="37.83669471234791" lon="-4.7343001966649565"><ele>155.0</ele><time>2026-04-05T15:36:43.825Z</time></trkpt><trkpt lat="37.83661687061257" lon="-4.734279347022592"><ele>155.0</ele><time>2026-04-05T15:36:44.825Z</time></trkpt><trkpt lat="37.836538691666256" lon="-4.734249066520085"><ele>155.0</ele><time>2026-04-05T15:36:45.825Z</time></trkpt><trkpt lat="37.83646743781687" lon="-4.734225930820684"><ele>155.0</ele><time>2026-04-05T15:36:46.825Z</time></trkpt><trkpt lat="37.83639713382803" lon="-4.7342067876522025"><ele>155.0</ele><time>2026-04-05T15:36:47.825Z</time></trkpt><trkpt lat="37.83631992172358" lon="-4.734187003681039"><ele>155.0</ele><time>2026-04-05T15:36:48.825Z</time></trkpt><trkpt lat="37.8362488670097" lon="-4.7341724305141275"><ele>155.0</ele><time>2026-04-05T15:36:49.825Z</time></trkpt><trkpt lat="37.83618186495817" lon="-4.734142352946229"><ele>155.0</ele><time>2026-04-05T15:36:50.825Z</time></trkpt><trkpt lat="37.83610980354477" lon="-4.734103427259372"><ele>155.0</ele><time>2026-04-05T15:36:51.825Z</time></trkpt><trkpt lat="37.83603730418325" lon="-4.73403763065429"><ele>155.0</ele><time>2026-04-05T15:36:52.825Z</time></trkpt><trkpt lat="37.835982601094486" lon="-4.733962073616311"><ele>155.0</ele><time>2026-04-05T15:36:53.825Z</time></trkpt><trkpt lat="37.835939253630706" lon="-4.733890537948633"><ele>155.0</ele><time>2026-04-05T15:36:54.825Z</time></trkpt><trkpt lat="37.83590257888596" lon="-4.733813873629063"><ele>155.0</ele><time>2026-04-05T15:36:55.825Z</time></trkpt><trkpt lat="37.8358748617359" lon="-4.73373271135779"><ele>155.0</ele><time>2026-04-05T15:36:56.825Z</time></trkpt><trkpt lat="37.83585617607377" lon="-4.733628024566989"><ele>155.33333333333331</ele><time>2026-04-05T15:36:57.825Z</time></trkpt><trkpt lat="37.83584267086957" lon="-4.733511812695826"><ele>155.66666666666666</ele><time>2026-04-05T15:36:58.825Z</time></trkpt><trkpt lat="37.8358316604888" lon="-4.733400735146633"><ele>156.0</ele><time>2026-04-05T15:36:59.825Z</time></trkpt><trkpt lat="37.83581742236853" lon="-4.733293455413282"><ele>156.33333333333334</ele><time>2026-04-05T15:37:00.825Z</time></trkpt><trkpt lat="37.83580128394611" lon="-4.733186623558433"><ele>156.66666666666669</ele><time>2026-04-05T15:37:01.825Z</time></trkpt><trkpt lat="37.8357880291783" lon="-4.733091156456338"><ele>157.0</ele><time>2026-04-05T15:37:02.825Z</time></trkpt><trkpt lat="37.835782071075045" lon="-4.732937864167322"><ele>157.0</ele><time>2026-04-05T15:37:04.825Z</time></trkpt><trkpt lat="37.83582297387039" lon="-4.732811002591379"><ele>157.0</ele><time>2026-04-05T15:37:06.825Z</time></trkpt><trkpt lat="37.83585023216524" lon="-4.732728835323452"><ele>157.0</ele><time>2026-04-05T15:37:07.825Z</time></trkpt><trkpt lat="37.83587690285116" lon="-4.732636673216743"><ele>157.0</ele><time>2026-04-05T15:37:08.825Z</time></trkpt><trkpt lat="37.83590212942785" lon="-4.732530305676217"><ele>157.0</ele><time>2026-04-05T15:37:09.825Z</time></trkpt><trkpt lat="37.83592620315252" lon="-4.732415211468474"><ele>157.0</ele><time>2026-04-05T15:37:10.825Z</time></trkpt><trkpt lat="37.83593691723501" lon="-4.732289240209408"><ele>157.0</ele><time>2026-04-05T15:37:11.825Z</time></trkpt><trkpt lat="37.83593361027812" lon="-4.732176911118151"><ele>157.0</ele><time>2026-04-05T15:37:12.825Z</time></trkpt><trkpt lat="37.83593011273241" lon="-4.732070108300114"><ele>157.0</ele><time>2026-04-05T15:37:13.825Z</time></trkpt><trkpt lat="37.83591933152847" lon="-4.7319560000716026"><ele>157.0</ele><time>2026-04-05T15:37:14.825Z</time></trkpt><trkpt lat="37.83590345196122" lon="-4.7318453586717295"><ele>157.0</ele><time>2026-04-05T15:37:15.825Z</time></trkpt><trkpt lat="37.8358949811634" lon="-4.731722609340962"><ele>157.66666666666669</ele><time>2026-04-05T15:37:16.825Z</time></trkpt><trkpt lat="37.83587346479174" lon="-4.731604975158243"><ele>158.33333333333334</ele><time>2026-04-05T15:37:17.825Z</time></trkpt><trkpt lat="37.835853075891755" lon="-4.731497935331616"><ele>159.0</ele><time>2026-04-05T15:37:18.825Z</time></trkpt><trkpt lat="37.835827095569336" lon="-4.7313925766847245"><ele>159.66666666666666</ele><time>2026-04-05T15:37:19.825Z</time></trkpt><trkpt lat="37.83580674175985" lon="-4.731291222109935"><ele>160.33333333333331</ele><time>2026-04-05T15:37:20.825Z</time></trkpt><trkpt lat="37.83579244127627" lon="-4.731194975383025"><ele>161.0</ele><time>2026-04-05T15:37:21.825Z</time></trkpt><trkpt lat="37.83576972447187" lon="-4.73107918780496"><ele>161.33333333333331</ele><time>2026-04-05T15:37:22.825Z</time></trkpt><trkpt lat="37.835741261747145" lon="-4.730974721040222"><ele>161.66666666666666</ele><time>2026-04-05T15:37:23.825Z</time></trkpt><trkpt lat="37.83571462223078" lon="-4.730856527687346"><ele>162.0</ele><time>2026-04-05T15:37:24.825Z</time></trkpt><trkpt lat="37.83568811714287" lon="-4.730748840070866"><ele>162.33333333333334</ele><time>2026-04-05T15:37:25.825Z</time></trkpt><trkpt lat="37.835668717111936" lon="-4.730634785919328"><ele>162.66666666666669</ele><time>2026-04-05T15:37:26.825Z</time></trkpt><trkpt lat="37.835647777097144" lon="-4.73053630796251"><ele>163.0</ele><time>2026-04-05T15:37:27.825Z</time></trkpt><trkpt lat="37.83562716877323" lon="-4.730443456218398"><ele>163.0</ele><time>2026-04-05T15:37:28.825Z</time></trkpt><trkpt lat="37.835609576883705" lon="-4.730354329110224"><ele>163.0</ele><time>2026-04-05T15:37:29.825Z</time></trkpt><trkpt lat="37.83559458686926" lon="-4.730251733522411"><ele>163.0</ele><time>2026-04-05T15:37:30.825Z</time></trkpt><trkpt lat="37.83557699255087" lon="-4.730137857114133"><ele>163.0</ele><time>2026-04-05T15:37:31.825Z</time></trkpt><trkpt lat="37.83555610697059" lon="-4.730020343733574"><ele>163.0</ele><time>2026-04-05T15:37:32.825Z</time></trkpt><trkpt lat="37.83553722242033" lon="-4.729903914578273"><ele>163.0</ele><time>2026-04-05T15:37:33.825Z</time></trkpt><trkpt lat="37.83552021128604" lon="-4.729797002068715"><ele>163.33333333333334</ele><time>2026-04-05T15:37:34.825Z</time></trkpt><trkpt lat="37.83549863857779" lon="-4.729697128262009"><ele>163.66666666666669</ele><time>2026-04-05T15:37:35.825Z</time></trkpt><trkpt lat="37.83548251887266" lon="-4.7295962810944125"><ele>164.0</ele><time>2026-04-05T15:37:36.825Z</time></trkpt><trkpt lat="37.83546846933754" lon="-4.729498133716642"><ele>164.33333333333334</ele><time>2026-04-05T15:37:37.825Z</time></trkpt><trkpt lat="37.83545013849372" lon="-4.729398491690789"><ele>164.66666666666666</ele><time>2026-04-05T15:37:38.825Z</time></trkpt><trkpt lat="37.8354298108993" lon="-4.729301262827964"><ele>165.0</ele><time>2026-04-05T15:37:39.825Z</time></trkpt><trkpt lat="37.835415791008536" lon="-4.7292124525815185"><ele>165.8</ele><time>2026-04-05T15:37:40.824Z</time></trkpt><trkpt lat="37.83539080157461" lon="-4.729067541783415"><ele>166.6</ele><time>2026-04-05T15:37:42.824Z</time></trkpt><trkpt lat="37.83537073367525" lon="-4.728942617906962"><ele>167.39999999999998</ele><time>2026-04-05T15:37:44.824Z</time></trkpt><trkpt lat="37.835354146534684" lon="-4.7288454487042975"><ele>168.2</ele><time>2026-04-05T15:37:46.824Z</time></trkpt><trkpt lat="37.835338755679345" lon="-4.72874694905498"><ele>169.0</ele><time>2026-04-05T15:37:48.824Z</time></trkpt><trkpt lat="37.83531910825011" lon="-4.72864659595839"><ele>169.33333333333334</ele><time>2026-04-05T15:37:50.824Z</time></trkpt><trkpt lat="37.83529310413694" lon="-4.728538927469567"><ele>169.66666666666669</ele><time>2026-04-05T15:37:52.824Z</time></trkpt><trkpt lat="37.83526817815494" lon="-4.728442244163762"><ele>170.0</ele><time>2026-04-05T15:37:54.824Z</time></trkpt><trkpt lat="37.83523868008182" lon="-4.72834466746769"><ele>170.33333333333334</ele><time>2026-04-05T15:37:56.824Z</time></trkpt><trkpt lat="37.83520488850656" lon="-4.728251806010734"><ele>170.66666666666666</ele><time>2026-04-05T15:37:58.824Z</time></trkpt><trkpt lat="37.83517219111553" lon="-4.728166070007134"><ele>171.0</ele><time>2026-04-05T15:38:00.824Z</time></trkpt><trkpt lat="37.83512441067814" lon="-4.728064390196274"><ele>170.83333333333334</ele><time>2026-04-05T15:38:02.824Z</time></trkpt><trkpt lat="37.83508171447574" lon="-4.727993517824511"><ele>170.66666666666666</ele><time>2026-04-05T15:38:03.824Z</time></trkpt><trkpt lat="37.83503163410987" lon="-4.7279062167640715"><ele>170.5</ele><time>2026-04-05T15:38:04.824Z</time></trkpt><trkpt lat="37.83499093221605" lon="-4.727823342204296"><ele>170.33333333333331</ele><time>2026-04-05T15:38:05.824Z</time></trkpt><trkpt lat="37.83495456766022" lon="-4.72774035845471"><ele>170.16666666666666</ele><time>2026-04-05T15:38:06.824Z</time></trkpt><trkpt lat="37.834921542884544" lon="-4.7276705402751755"><ele>170.0</ele><time>2026-04-05T15:38:07.824Z</time></trkpt><trkpt lat="37.83485609447022" lon="-4.727539570570531"><ele>170.0</ele><time>2026-04-05T15:38:09.824Z</time></trkpt><trkpt lat="37.8347974982754" lon="-4.727386873931587"><ele>170.0</ele><time>2026-04-05T15:38:11.824Z</time></trkpt><trkpt lat="37.83476448292026" lon="-4.727303767458253"><ele>170.0</ele><time>2026-04-05T15:38:12.824Z</time></trkpt><trkpt lat="37.8347344938922" lon="-4.7272251334478606"><ele>170.0</ele><time>2026-04-05T15:38:13.824Z</time></trkpt><trkpt lat="37.83470660191088" lon="-4.727148419839763"><ele>170.0</ele><time>2026-04-05T15:38:14.824Z</time></trkpt><trkpt lat="37.83467834599636" lon="-4.727064200297947"><ele>170.0</ele><time>2026-04-05T15:38:15.824Z</time></trkpt><trkpt lat="37.8346537111764" lon="-4.726984503434"><ele>171.4</ele><time>2026-04-05T15:38:16.824Z</time></trkpt><trkpt lat="37.83461113419995" lon="-4.72683610404902"><ele>172.8</ele><time>2026-04-05T15:38:18.82Z</time></trkpt><trkpt lat="37.834576631153226" lon="-4.72670347582027"><ele>174.2</ele><time>2026-04-05T15:38:20.82Z</time></trkpt><trkpt lat="37.83454129458898" lon="-4.726585862774369"><ele>175.6</ele><time>2026-04-05T15:38:22.82Z</time></trkpt><trkpt lat="37.83450751417435" lon="-4.726506979930434"><ele>177.0</ele><time>2026-04-05T15:38:23.82Z</time></trkpt><trkpt lat="37.83446377467255" lon="-4.726436394425839"><ele>177.0</ele><time>2026-04-05T15:38:24.82Z</time></trkpt><trkpt lat="37.834420430720776" lon="-4.726375175776826"><ele>177.0</ele><time>2026-04-05T15:38:25.819Z</time></trkpt><trkpt lat="37.83433912210499" lon="-4.726265475130905"><ele>177.0</ele><time>2026-04-05T15:38:27.819Z</time></trkpt><trkpt lat="37.8342919433602" lon="-4.726198038038601"><ele>177.0</ele><time>2026-04-05T15:38:29.82Z</time></trkpt><trkpt lat="37.83434880142946" lon="-4.726236301032051"><ele>177.0</ele><time>2026-04-05T15:38:42.82Z</time></trkpt><trkpt lat="37.834400520701784" lon="-4.726311949522982"><ele>177.0</ele><time>2026-04-05T15:38:44.82Z</time></trkpt><trkpt lat="37.834457991383495" lon="-4.726391527999652"><ele>177.0</ele><time>2026-04-05T15:38:46.82Z</time></trkpt><trkpt lat="37.834504065912924" lon="-4.726479512583188"><ele>177.0</ele><time>2026-04-05T15:38:48.82Z</time></trkpt><trkpt lat="37.83455099245222" lon="-4.726577174529878"><ele>177.0</ele><time>2026-04-05T15:38:50.82Z</time></trkpt><trkpt lat="37.834591540646215" lon="-4.726687553404447"><ele>177.0</ele><time>2026-04-05T15:38:52.82Z</time></trkpt><trkpt lat="37.8346189024971" lon="-4.726805829619583"><ele>177.0</ele><time>2026-04-05T15:38:54.82Z</time></trkpt><trkpt lat="37.83463920586229" lon="-4.726888404044343"><ele>177.0</ele><time>2026-04-05T15:38:55.82Z</time></trkpt><trkpt lat="37.834669437495535" lon="-4.726986618364505"><ele>175.83333333333334</ele><time>2026-04-05T15:38:56.82Z</time></trkpt><trkpt lat="37.83469763283244" lon="-4.727087888574539"><ele>174.66666666666666</ele><time>2026-04-05T15:38:57.82Z</time></trkpt><trkpt lat="37.83473186251694" lon="-4.727189880314363"><ele>173.5</ele><time>2026-04-05T15:38:58.82Z</time></trkpt><trkpt lat="37.83476810093585" lon="-4.727284025348152"><ele>172.33333333333331</ele><time>2026-04-05T15:38:59.82Z</time></trkpt><trkpt lat="37.8348031363951" lon="-4.727369088511003"><ele>171.16666666666666</ele><time>2026-04-05T15:39:00.82Z</time></trkpt><trkpt lat="37.8348363279866" lon="-4.727454140153806"><ele>170.0</ele><time>2026-04-05T15:39:01.82Z</time></trkpt><trkpt lat="37.83487456850892" lon="-4.727544892796212"><ele>170.0</ele><time>2026-04-05T15:39:02.82Z</time></trkpt><trkpt lat="37.8349115949579" lon="-4.727628811633618"><ele>170.0</ele><time>2026-04-05T15:39:03.82Z</time></trkpt><trkpt lat="37.83494722908692" lon="-4.727699614091676"><ele>170.0</ele><time>2026-04-05T15:39:04.82Z</time></trkpt><trkpt lat="37.835003556919396" lon="-4.727827053952477"><ele>170.0</ele><time>2026-04-05T15:39:06.82Z</time></trkpt><trkpt lat="37.835070380457225" lon="-4.72796643177209"><ele>170.0</ele><time>2026-04-05T15:39:08.82Z</time></trkpt><trkpt lat="37.83510820878505" lon="-4.728036639894069"><ele>170.16666666666666</ele><time>2026-04-05T15:39:09.82Z</time></trkpt><trkpt lat="37.83514528251449" lon="-4.728112133489542"><ele>170.33333333333331</ele><time>2026-04-05T15:39:10.82Z</time></trkpt><trkpt lat="37.83518246360073" lon="-4.728183417266117"><ele>170.5</ele><time>2026-04-05T15:39:11.82Z</time></trkpt><trkpt lat="37.83522453032588" lon="-4.7283040831030485"><ele>170.66666666666666</ele><time>2026-04-05T15:39:13.82Z</time></trkpt><trkpt lat="37.8352703451212" lon="-4.728456687911452"><ele>170.83333333333334</ele><time>2026-04-05T15:39:15.82Z</time></trkpt><trkpt lat="37.835289725744985" lon="-4.728534551417653"><ele>171.0</ele><time>2026-04-05T15:39:16.82Z</time></trkpt><trkpt lat="37.83531730786002" lon="-4.728638586321135"><ele>170.66666666666666</ele><time>2026-04-05T15:39:18.82Z</time></trkpt><trkpt lat="37.83533552762492" lon="-4.7287332975203"><ele>170.33333333333334</ele><time>2026-04-05T15:39:20.82Z</time></trkpt><trkpt lat="37.835350349916546" lon="-4.728812000678101"><ele>170.0</ele><time>2026-04-05T15:39:22.819Z</time></trkpt><trkpt lat="37.835360858224895" lon="-4.728896632224433"><ele>169.66666666666669</ele><time>2026-04-05T15:39:25.819Z</time></trkpt><trkpt lat="37.835443457093874" lon="-4.728898974190151"><ele>169.33333333333334</ele><time>2026-04-05T15:39:28.819Z</time></trkpt><trkpt lat="37.83552957125933" lon="-4.7288745166033355"><ele>169.0</ele><time>2026-04-05T15:39:30.819Z</time></trkpt><trkpt lat="37.83561913487263" lon="-4.7288651786945834"><ele>169.0</ele><time>2026-04-05T15:39:32.819Z</time></trkpt><trkpt lat="37.835697606110564" lon="-4.728866652228508"><ele>169.0</ele><time>2026-04-05T15:39:34.819Z</time></trkpt><trkpt lat="37.83578308149001" lon="-4.728863316322036"><ele>169.0</ele><time>2026-04-05T15:39:36.819Z</time></trkpt><trkpt lat="37.83587530059813" lon="-4.728861742878725"><ele>169.0</ele><time>2026-04-05T15:39:38.819Z</time></trkpt><trkpt lat="37.83596634085444" lon="-4.728859562216738"><ele>169.0</ele><time>2026-04-05T15:39:40.819Z</time></trkpt><trkpt lat="37.83604987615619" lon="-4.7288588229857424"><ele>169.0</ele><time>2026-04-05T15:39:42.819Z</time></trkpt><trkpt lat="37.836133455445164" lon="-4.7288527611381825"><ele>169.16666666666669</ele><time>2026-04-05T15:39:44.819Z</time></trkpt><trkpt lat="37.83622089142605" lon="-4.728851541531562"><ele>169.33333333333334</ele><time>2026-04-05T15:39:46.819Z</time></trkpt><trkpt lat="37.83630812702424" lon="-4.728846565217191"><ele>169.5</ele><time>2026-04-05T15:39:48.819Z</time></trkpt><trkpt lat="37.83638038263549" lon="-4.728848427810354"><ele>169.66666666666666</ele><time>2026-04-05T15:39:50.819Z</time></trkpt><trkpt lat="37.83646240317949" lon="-4.728839523223555"><ele>169.83333333333331</ele><time>2026-04-05T15:39:52.819Z</time></trkpt><trkpt lat="37.83654032976524" lon="-4.728838545770448"><ele>170.0</ele><time>2026-04-05T15:39:54.819Z</time></trkpt><trkpt lat="37.83662380314892" lon="-4.728837624324753"><ele>170.0</ele><time>2026-04-05T15:39:56.819Z</time></trkpt><trkpt lat="37.83670695344161" lon="-4.728830999480149"><ele>170.0</ele><time>2026-04-05T15:39:58.819Z</time></trkpt><trkpt lat="37.83678970562651" lon="-4.728826646594799"><ele>170.0</ele><time>2026-04-05T15:40:00.819Z</time></trkpt><trkpt lat="37.836863675149104" lon="-4.728822098661918"><ele>170.0</ele><time>2026-04-05T15:40:02.819Z</time></trkpt><trkpt lat="37.83694248290816" lon="-4.728823251176363"><ele>170.0</ele><time>2026-04-05T15:40:04.819Z</time></trkpt><trkpt lat="37.83702018012125" lon="-4.728822536014807"><ele>170.0</ele><time>2026-04-05T15:40:06.819Z</time></trkpt><trkpt lat="37.8371030674126" lon="-4.728816331963527"><ele>170.2857142857143</ele><time>2026-04-05T15:40:08.819Z</time></trkpt><trkpt lat="37.83717175928493" lon="-4.728813518124807"><ele>170.57142857142856</ele><time>2026-04-05T15:40:10.819Z</time></trkpt><trkpt lat="37.83723766735369" lon="-4.728812956421098"><ele>170.85714285714286</ele><time>2026-04-05T15:40:12.819Z</time></trkpt><trkpt lat="37.83732283666165" lon="-4.728800414716134"><ele>171.14285714285717</ele><time>2026-04-05T15:40:15.819Z</time></trkpt><trkpt lat="37.83740696038923" lon="-4.728798486241095"><ele>171.42857142857144</ele><time>2026-04-05T15:40:17.819Z</time></trkpt><trkpt lat="37.83747655979962" lon="-4.728796910269908"><ele>171.71428571428572</ele><time>2026-04-05T15:40:19.819Z</time></trkpt><trkpt lat="37.83755090369745" lon="-4.728796302680431"><ele>172.0</ele><time>2026-04-05T15:40:21.819Z</time></trkpt><trkpt lat="37.83762860875759" lon="-4.728791154593652"><ele>172.0</ele><time>2026-04-05T15:40:23.819Z</time></trkpt><trkpt lat="37.837698353027704" lon="-4.728786248950051"><ele>172.0</ele><time>2026-04-05T15:40:25.814Z</time></trkpt><trkpt lat="37.837767351718824" lon="-4.7287829971919955"><ele>172.0</ele><time>2026-04-05T15:40:27.814Z</time></trkpt><trkpt lat="37.837849244501754" lon="-4.728796062119007"><ele>172.0</ele><time>2026-04-05T15:40:30.814Z</time></trkpt><trkpt lat="37.83775514268231" lon="-4.728786066405148"><ele>172.0</ele><time>2026-04-05T15:40:49.814Z</time></trkpt><trkpt lat="37.83767033996197" lon="-4.728793845373912"><ele>172.0</ele><time>2026-04-05T15:40:51.814Z</time></trkpt><trkpt lat="37.83754531183411" lon="-4.728797038759946"><ele>172.0</ele><time>2026-04-05T15:40:53.814Z</time></trkpt><trkpt lat="37.83746849076191" lon="-4.728799659173262"><ele>172.0</ele><time>2026-04-05T15:40:54.814Z</time></trkpt><trkpt lat="37.83738349914299" lon="-4.7288034730217445"><ele>172.0</ele><time>2026-04-05T15:40:55.814Z</time></trkpt><trkpt lat="37.83730543929993" lon="-4.7288075390043876"><ele>172.0</ele><time>2026-04-05T15:40:56.814Z</time></trkpt><trkpt lat="37.83723135887889" lon="-4.728815047617079"><ele>172.0</ele><time>2026-04-05T15:40:57.814Z</time></trkpt><trkpt lat="37.83715659938028" lon="-4.728817118451843"><ele>172.0</ele><time>2026-04-05T15:40:58.814Z</time></trkpt><trkpt lat="37.83708309734929" lon="-4.728817840776554"><ele>172.0</ele><time>2026-04-05T15:40:59.814Z</time></trkpt><trkpt lat="37.83700709850141" lon="-4.728819828663102"><ele>172.0</ele><time>2026-04-05T15:41:00.814Z</time></trkpt><trkpt lat="37.836941705867915" lon="-4.7288255601583264"><ele>172.0</ele><time>2026-04-05T15:41:01.814Z</time></trkpt><trkpt lat="37.836872666671724" lon="-4.728827646245543"><ele>172.0</ele><time>2026-04-05T15:41:02.814Z</time></trkpt><trkpt lat="37.83680443468388" lon="-4.728827703945447"><ele>172.0</ele><time>2026-04-05T15:41:03.814Z</time></trkpt><trkpt lat="37.83667403550732" lon="-4.728834742208393"><ele>172.0</ele><time>2026-04-05T15:41:05.814Z</time></trkpt><trkpt lat="37.836605714617605" lon="-4.72883613116031"><ele>171.66666666666669</ele><time>2026-04-05T15:41:06.814Z</time></trkpt><trkpt lat="37.83653342597457" lon="-4.728835155542603"><ele>171.33333333333334</ele><time>2026-04-05T15:41:07.814Z</time></trkpt><trkpt lat="37.836451893617955" lon="-4.728837420509667"><ele>171.0</ele><time>2026-04-05T15:41:08.814Z</time></trkpt><trkpt lat="37.836358788764414" lon="-4.728844325314974"><ele>170.66666666666666</ele><time>2026-04-05T15:41:09.814Z</time></trkpt><trkpt lat="37.83627869449137" lon="-4.728842198672328"><ele>170.33333333333331</ele><time>2026-04-05T15:41:10.814Z</time></trkpt><trkpt lat="37.8361898678641" lon="-4.7288459006859105"><ele>170.0</ele><time>2026-04-05T15:41:11.814Z</time></trkpt><trkpt lat="37.83610724022766" lon="-4.728853874568423"><ele>170.0</ele><time>2026-04-05T15:41:12.814Z</time></trkpt><trkpt lat="37.83603870464998" lon="-4.728855272142223"><ele>170.0</ele><time>2026-04-05T15:41:13.814Z</time></trkpt><trkpt lat="37.83591983576074" lon="-4.728860823066451"><ele>170.0</ele><time>2026-04-05T15:41:15.814Z</time></trkpt><trkpt lat="37.835815919323466" lon="-4.728866396475222"><ele>170.0</ele><time>2026-04-05T15:41:17.814Z</time></trkpt><trkpt lat="37.83572585325625" lon="-4.728874443400625"><ele>170.0</ele><time>2026-04-05T15:41:19.814Z</time></trkpt><trkpt lat="37.83564156068282" lon="-4.728874420052106"><ele>169.83333333333331</ele><time>2026-04-05T15:41:21.814Z</time></trkpt><trkpt lat="37.83556196360381" lon="-4.728885415964152"><ele>169.66666666666666</ele><time>2026-04-05T15:41:23.814Z</time></trkpt><trkpt lat="37.835483519620034" lon="-4.728884317291126"><ele>169.5</ele><time>2026-04-05T15:41:25.814Z</time></trkpt><trkpt lat="37.83541849036152" lon="-4.728896797929797"><ele>169.33333333333334</ele><time>2026-04-05T15:41:27.814Z</time></trkpt><trkpt lat="37.835358885510345" lon="-4.728963903008624"><ele>169.16666666666669</ele><time>2026-04-05T15:41:30.814Z</time></trkpt><trkpt lat="37.83536448720245" lon="-4.729056442090488"><ele>169.0</ele><time>2026-04-05T15:41:32.814Z</time></trkpt><trkpt lat="37.83539285407971" lon="-4.729153667332763"><ele>169.0</ele><time>2026-04-05T15:41:33.814Z</time></trkpt><trkpt lat="37.83541179439489" lon="-4.729236424298971"><ele>169.0</ele><time>2026-04-05T15:41:34.814Z</time></trkpt><trkpt lat="37.835423461862405" lon="-4.729329872337276"><ele>169.0</ele><time>2026-04-05T15:41:35.814Z</time></trkpt><trkpt lat="37.835441127215276" lon="-4.7294303070723664"><ele>169.0</ele><time>2026-04-05T15:41:36.814Z</time></trkpt><trkpt lat="37.835465042767346" lon="-4.7295437757564756"><ele>169.0</ele><time>2026-04-05T15:41:37.814Z</time></trkpt><trkpt lat="37.83548429783723" lon="-4.729647618363563"><ele>169.0</ele><time>2026-04-05T15:41:38.814Z</time></trkpt><trkpt lat="37.83549995435998" lon="-4.729740182548778"><ele>168.33333333333334</ele><time>2026-04-05T15:41:39.814Z</time></trkpt><trkpt lat="37.83551756838116" lon="-4.729835315162098"><ele>167.66666666666669</ele><time>2026-04-05T15:41:40.814Z</time></trkpt><trkpt lat="37.83553387149891" lon="-4.729937486225708"><ele>167.0</ele><time>2026-04-05T15:41:41.814Z</time></trkpt><trkpt lat="37.83554747269162" lon="-4.730023157172386"><ele>166.33333333333334</ele><time>2026-04-05T15:41:42.814Z</time></trkpt><trkpt lat="37.83555724613974" lon="-4.730107039095157"><ele>165.66666666666666</ele><time>2026-04-05T15:41:43.814Z</time></trkpt><trkpt lat="37.83558140073542" lon="-4.730247991552344"><ele>165.0</ele><time>2026-04-05T15:41:45.813Z</time></trkpt><trkpt lat="37.8355977020542" lon="-4.73033595213297"><ele>164.66666666666666</ele><time>2026-04-05T15:41:46.813Z</time></trkpt><trkpt lat="37.83561603516919" lon="-4.73043536411055"><ele>164.33333333333334</ele><time>2026-04-05T15:41:47.813Z</time></trkpt><trkpt lat="37.8356365419834" lon="-4.730533567139246"><ele>164.0</ele><time>2026-04-05T15:41:48.813Z</time></trkpt><trkpt lat="37.83566072171102" lon="-4.730627155898059"><ele>163.66666666666669</ele><time>2026-04-05T15:41:49.813Z</time></trkpt><trkpt lat="37.83567834737262" lon="-4.730715530369923"><ele>163.33333333333334</ele><time>2026-04-05T15:41:50.813Z</time></trkpt><trkpt lat="37.835697156638076" lon="-4.7308020341774535"><ele>163.0</ele><time>2026-04-05T15:41:51.813Z</time></trkpt><trkpt lat="37.83571406538018" lon="-4.730885956473775"><ele>163.0</ele><time>2026-04-05T15:41:52.813Z</time></trkpt><trkpt lat="37.83573082639288" lon="-4.73096713453689"><ele>163.0</ele><time>2026-04-05T15:41:53.813Z</time></trkpt><trkpt lat="37.83575041575071" lon="-4.731045708188853"><ele>163.0</ele><time>2026-04-05T15:41:54.813Z</time></trkpt><trkpt lat="37.835768553873734" lon="-4.731129468851524"><ele>163.0</ele><time>2026-04-05T15:41:55.813Z</time></trkpt><trkpt lat="37.835781473620834" lon="-4.731212274274388"><ele>163.0</ele><time>2026-04-05T15:41:56.813Z</time></trkpt><trkpt lat="37.835796215184324" lon="-4.731301916027253"><ele>163.0</ele><time>2026-04-05T15:41:57.813Z</time></trkpt><trkpt lat="37.8358157762883" lon="-4.731391879435762"><ele>163.0</ele><time>2026-04-05T15:41:58.813Z</time></trkpt><trkpt lat="37.835829840985184" lon="-4.731476913056608"><ele>162.71428571428572</ele><time>2026-04-05T15:41:59.813Z</time></trkpt><trkpt lat="37.835843310476896" lon="-4.731555896104705"><ele>162.42857142857142</ele><time>2026-04-05T15:42:00.813Z</time></trkpt><trkpt lat="37.83585744445991" lon="-4.731637154245271"><ele>162.14285714285714</ele><time>2026-04-05T15:42:01.813Z</time></trkpt><trkpt lat="37.83587480774928" lon="-4.731721102310843"><ele>161.85714285714286</ele><time>2026-04-05T15:42:02.813Z</time></trkpt><trkpt lat="37.83588925470774" lon="-4.731814178090801"><ele>161.57142857142856</ele><time>2026-04-05T15:42:03.813Z</time></trkpt><trkpt lat="37.83590170090266" lon="-4.731902545333245"><ele>161.28571428571428</ele><time>2026-04-05T15:42:04.813Z</time></trkpt><trkpt lat="37.83591263842982" lon="-4.731988272946754"><ele>161.0</ele><time>2026-04-05T15:42:05.813Z</time></trkpt><trkpt lat="37.83591887687113" lon="-4.732078747259315"><ele>160.33333333333331</ele><time>2026-04-05T15:42:06.813Z</time></trkpt><trkpt lat="37.835919291783696" lon="-4.732181624241642"><ele>159.66666666666666</ele><time>2026-04-05T15:42:07.813Z</time></trkpt><trkpt lat="37.83591412620921" lon="-4.7322796210659455"><ele>159.0</ele><time>2026-04-05T15:42:08.813Z</time></trkpt><trkpt lat="37.835907097725986" lon="-4.732374115610105"><ele>158.33333333333334</ele><time>2026-04-05T15:42:09.813Z</time></trkpt><trkpt lat="37.83590067074811" lon="-4.732466071199427"><ele>157.66666666666669</ele><time>2026-04-05T15:42:10.813Z</time></trkpt><trkpt lat="37.83589021612486" lon="-4.732549720332276"><ele>157.0</ele><time>2026-04-05T15:42:11.813Z</time></trkpt><trkpt lat="37.835849769769325" lon="-4.732682346315713"><ele>157.0</ele><time>2026-04-05T15:42:13.813Z</time></trkpt><trkpt lat="37.835818353616894" lon="-4.732791395539268"><ele>157.0</ele><time>2026-04-05T15:42:15.813Z</time></trkpt><trkpt lat="37.83577854580088" lon="-4.732919436304802"><ele>157.0</ele><time>2026-04-05T15:42:17.813Z</time></trkpt><trkpt lat="37.83577255991934" lon="-4.73307209756863"><ele>157.0</ele><time>2026-04-05T15:42:19.813Z</time></trkpt><trkpt lat="37.83578711286718" lon="-4.733173136350374"><ele>157.0</ele><time>2026-04-05T15:42:20.813Z</time></trkpt><trkpt lat="37.83580422924939" lon="-4.733273439915126"><ele>157.0</ele><time>2026-04-05T15:42:21.813Z</time></trkpt><trkpt lat="37.835821515742325" lon="-4.733370906855519"><ele>157.0</ele><time>2026-04-05T15:42:22.813Z</time></trkpt><trkpt lat="37.83583743669531" lon="-4.73347317305397"><ele>157.0</ele><time>2026-04-05T15:42:23.813Z</time></trkpt><trkpt lat="37.83585180901181" lon="-4.733572536475917"><ele>157.0</ele><time>2026-04-05T15:42:24.87Z</time></trkpt><trkpt lat="37.8358641749811" lon="-4.733668550274889"><ele>157.0</ele><time>2026-04-05T15:42:25.87Z</time></trkpt><trkpt lat="37.83588249759995" lon="-4.733762584525573"><ele>157.0</ele><time>2026-04-05T15:42:26.87Z</time></trkpt><trkpt lat="37.83591076051344" lon="-4.733843665147885"><ele>156.66666666666669</ele><time>2026-04-05T15:42:27.87Z</time></trkpt><trkpt lat="37.835953604037314" lon="-4.733924953109929"><ele>156.33333333333334</ele><time>2026-04-05T15:42:28.87Z</time></trkpt><trkpt lat="37.83600699747703" lon="-4.7339900908378985"><ele>156.0</ele><time>2026-04-05T15:42:29.87Z</time></trkpt><trkpt lat="37.83606135908018" lon="-4.734049176332083"><ele>155.66666666666666</ele><time>2026-04-05T15:42:30.866Z</time></trkpt><trkpt lat="37.83611457496094" lon="-4.734099121510576"><ele>155.33333333333331</ele><time>2026-04-05T15:42:31.866Z</time></trkpt><trkpt lat="37.83617588367553" lon="-4.734142950534239"><ele>155.0</ele><time>2026-04-05T15:42:32.866Z</time></trkpt><trkpt lat="37.83626311218689" lon="-4.734175533141769"><ele>155.0</ele><time>2026-04-05T15:42:33.866Z</time></trkpt><trkpt lat="37.83636342419151" lon="-4.734194802954001"><ele>155.0</ele><time>2026-04-05T15:42:34.866Z</time></trkpt><trkpt lat="37.83645337237386" lon="-4.734219333569862"><ele>155.0</ele><time>2026-04-05T15:42:35.866Z</time></trkpt><trkpt lat="37.8365370159471" lon="-4.734244279397139"><ele>155.0</ele><time>2026-04-05T15:42:36.866Z</time></trkpt><trkpt lat="37.83662014292137" lon="-4.734266677000511"><ele>155.0</ele><time>2026-04-05T15:42:37.866Z</time></trkpt><trkpt lat="37.83671546977611" lon="-4.734287960008665"><ele>154.8</ele><time>2026-04-05T15:42:38.866Z</time></trkpt><trkpt lat="37.83681136523599" lon="-4.734314269456641"><ele>154.6</ele><time>2026-04-05T15:42:39.866Z</time></trkpt><trkpt lat="37.836923903269785" lon="-4.734344796935577"><ele>154.4</ele><time>2026-04-05T15:42:40.865Z</time></trkpt><trkpt lat="37.83702922792893" lon="-4.734373939120452"><ele>154.2</ele><time>2026-04-05T15:42:41.865Z</time></trkpt><trkpt lat="37.83711871819615" lon="-4.734395115066414"><ele>154.0</ele><time>2026-04-05T15:42:42.866Z</time></trkpt><trkpt lat="37.837211421689936" lon="-4.734410618084224"><ele>154.4</ele><time>2026-04-05T15:42:43.865Z</time></trkpt><trkpt lat="37.83730215804278" lon="-4.734422299588247"><ele>154.8</ele><time>2026-04-05T15:42:44.865Z</time></trkpt><trkpt lat="37.83738599759519" lon="-4.734440098807795"><ele>155.2</ele><time>2026-04-05T15:42:45.865Z</time></trkpt><trkpt lat="37.83746616483966" lon="-4.734464014094341"><ele>155.6</ele><time>2026-04-05T15:42:46.865Z</time></trkpt><trkpt lat="37.837550255803535" lon="-4.734520067865415"><ele>156.0</ele><time>2026-04-05T15:42:47.865Z</time></trkpt><trkpt lat="37.83763223800679" lon="-4.734608126890547"><ele>155.4</ele><time>2026-04-05T15:42:48.865Z</time></trkpt><trkpt lat="37.83771088851585" lon="-4.734730265960863"><ele>154.8</ele><time>2026-04-05T15:42:49.865Z</time></trkpt><trkpt lat="37.837788839950406" lon="-4.734840232415445"><ele>154.20000000000002</ele><time>2026-04-05T15:42:50.865Z</time></trkpt><trkpt lat="37.83785569513954" lon="-4.734940178578513"><ele>153.6</ele><time>2026-04-05T15:42:51.865Z</time></trkpt><trkpt lat="37.83790682437733" lon="-4.7350260476486445"><ele>153.0</ele><time>2026-04-05T15:42:52.865Z</time></trkpt><trkpt lat="37.837962038445916" lon="-4.735117643116026"><ele>153.0</ele><time>2026-04-05T15:42:53.865Z</time></trkpt><trkpt lat="37.83802039361399" lon="-4.735221270975874"><ele>153.0</ele><time>2026-04-05T15:42:54.865Z</time></trkpt><trkpt lat="37.83808683658966" lon="-4.735343395807053"><ele>153.0</ele><time>2026-04-05T15:42:55.865Z</time></trkpt><trkpt lat="37.838142827464175" lon="-4.735472995780362"><ele>153.0</ele><time>2026-04-05T15:42:56.865Z</time></trkpt><trkpt lat="37.83819918980557" lon="-4.735596672172823"><ele>153.0</ele><time>2026-04-05T15:42:57.865Z</time></trkpt><trkpt lat="37.83825962126867" lon="-4.735719979254264"><ele>153.0</ele><time>2026-04-05T15:42:58.865Z</time></trkpt><trkpt lat="37.83832747187277" lon="-4.735837259801095"><ele>153.0</ele><time>2026-04-05T15:42:59.865Z</time></trkpt><trkpt lat="37.83839299346089" lon="-4.735949337263933"><ele>153.0</ele><time>2026-04-05T15:43:00.865Z</time></trkpt><trkpt lat="37.83845145782066" lon="-4.736054231042279"><ele>153.0</ele><time>2026-04-05T15:43:01.865Z</time></trkpt><trkpt lat="37.83851364085283" lon="-4.736157431002969"><ele>153.0</ele><time>2026-04-05T15:43:02.865Z</time></trkpt><trkpt lat="37.83858101645213" lon="-4.7362575036529995"><ele>152.6</ele><time>2026-04-05T15:43:03.865Z</time></trkpt><trkpt lat="37.83865234221819" lon="-4.736346494304908"><ele>152.20000000000002</ele><time>2026-04-05T15:43:04.865Z</time></trkpt><trkpt lat="37.838733032853696" lon="-4.736434396787297"><ele>151.8</ele><time>2026-04-05T15:43:05.865Z</time></trkpt><trkpt lat="37.83880559468983" lon="-4.736518094803255"><ele>151.4</ele><time>2026-04-05T15:43:06.865Z</time></trkpt><trkpt lat="37.838893149495" lon="-4.736600829153139"><ele>151.0</ele><time>2026-04-05T15:43:07.865Z</time></trkpt><trkpt lat="37.83896573031828" lon="-4.73669717332596"><ele>151.0</ele><time>2026-04-05T15:43:08.865Z</time></trkpt><trkpt lat="37.83903590446224" lon="-4.736793267549834"><ele>151.0</ele><time>2026-04-05T15:43:09.865Z</time></trkpt><trkpt lat="37.839098455964006" lon="-4.736889937963024"><ele>151.0</ele><time>2026-04-05T15:43:10.865Z</time></trkpt><trkpt lat="37.839154799976804" lon="-4.7369838146004595"><ele>151.0</ele><time>2026-04-05T15:43:11.865Z</time></trkpt><trkpt lat="37.839211660085034" lon="-4.737087682392636"><ele>151.0</ele><time>2026-04-05T15:43:12.865Z</time></trkpt><trkpt lat="37.83926074782599" lon="-4.7372049730431485"><ele>151.33333333333334</ele><time>2026-04-05T15:43:13.865Z</time></trkpt><trkpt lat="37.839297803953585" lon="-4.737321551819572"><ele>151.66666666666669</ele><time>2026-04-05T15:43:14.865Z</time></trkpt><trkpt lat="37.83933391021901" lon="-4.737435607672224"><ele>152.0</ele><time>2026-04-05T15:43:15.865Z</time></trkpt><trkpt lat="37.83936971069348" lon="-4.737533576479533"><ele>152.33333333333334</ele><time>2026-04-05T15:43:16.865Z</time></trkpt><trkpt lat="37.839400633529905" lon="-4.737622628507887"><ele>152.66666666666666</ele><time>2026-04-05T15:43:17.865Z</time></trkpt><trkpt lat="37.839447261234604" lon="-4.73770617611647"><ele>153.0</ele><time>2026-04-05T15:43:18.865Z</time></trkpt><trkpt lat="37.839518431006816" lon="-4.737787301973197"><ele>153.0</ele><time>2026-04-05T15:43:19.865Z</time></trkpt><trkpt lat="37.839622778814785" lon="-4.737829829185178"><ele>153.0</ele><time>2026-04-05T15:43:20.865Z</time></trkpt><trkpt lat="37.83973201901972" lon="-4.737901271630208"><ele>153.0</ele><time>2026-04-05T15:43:21.865Z</time></trkpt><trkpt lat="37.83983124850909" lon="-4.737973430153357"><ele>153.0</ele><time>2026-04-05T15:43:22.865Z</time></trkpt><trkpt lat="37.83992614520898" lon="-4.7380497890214"><ele>153.0</ele><time>2026-04-05T15:43:23.865Z</time></trkpt><trkpt lat="37.840011447247896" lon="-4.738142380763391"><ele>153.0</ele><time>2026-04-05T15:43:24.865Z</time></trkpt><trkpt lat="37.84009730214893" lon="-4.738208279472347"><ele>153.0</ele><time>2026-04-05T15:43:25.865Z</time></trkpt><trkpt lat="37.840177157920394" lon="-4.738270798193911"><ele>153.0</ele><time>2026-04-05T15:43:26.865Z</time></trkpt><trkpt lat="37.84025376689425" lon="-4.738334236523465"><ele>153.0</ele><time>2026-04-05T15:43:27.865Z</time></trkpt><trkpt lat="37.84034212778128" lon="-4.738399572272845"><ele>153.0</ele><time>2026-04-05T15:43:28.865Z</time></trkpt><trkpt lat="37.84043483236347" lon="-4.738460369525403"><ele>153.0</ele><time>2026-04-05T15:43:29.865Z</time></trkpt><trkpt lat="37.84052742663052" lon="-4.738523356290403"><ele>153.0</ele><time>2026-04-05T15:43:30.865Z</time></trkpt><trkpt lat="37.840613482974994" lon="-4.73859231215651"><ele>153.0</ele><time>2026-04-05T15:43:31.865Z</time></trkpt><trkpt lat="37.84070324269902" lon="-4.7386649593537316"><ele>153.0</ele><time>2026-04-05T15:43:32.865Z</time></trkpt><trkpt lat="37.84079455715636" lon="-4.738744864130056"><ele>153.0</ele><time>2026-04-05T15:43:33.865Z</time></trkpt><trkpt lat="37.84088786608714" lon="-4.738832593357635"><ele>153.0</ele><time>2026-04-05T15:43:34.865Z</time></trkpt><trkpt lat="37.84097876993655" lon="-4.738926390191042"><ele>153.0</ele><time>2026-04-05T15:43:35.865Z</time></trkpt><trkpt lat="37.841065739426334" lon="-4.739017486597528"><ele>153.0</ele><time>2026-04-05T15:43:36.865Z</time></trkpt><trkpt lat="37.84114758292954" lon="-4.739110231514721"><ele>152.4</ele><time>2026-04-05T15:43:37.865Z</time></trkpt><trkpt lat="37.84122219781978" lon="-4.739192963133474"><ele>151.8</ele><time>2026-04-05T15:43:38.865Z</time></trkpt><trkpt lat="37.8412981990392" lon="-4.7392717314723365"><ele>151.2</ele><time>2026-04-05T15:43:39.865Z</time></trkpt><trkpt lat="37.841364746368" lon="-4.739348959332731"><ele>150.6</ele><time>2026-04-05T15:43:40.865Z</time></trkpt><trkpt lat="37.841434928052195" lon="-4.739434448057671"><ele>150.0</ele><time>2026-04-05T15:43:41.865Z</time></trkpt><trkpt lat="37.84150277876355" lon="-4.739534615257392"><ele>150.0</ele><time>2026-04-05T15:43:42.865Z</time></trkpt><trkpt lat="37.84156545780474" lon="-4.7396447190357485"><ele>150.0</ele><time>2026-04-05T15:43:43.865Z</time></trkpt><trkpt lat="37.84162106219419" lon="-4.739763644019289"><ele>150.0</ele><time>2026-04-05T15:43:44.865Z</time></trkpt><trkpt lat="37.8416620645391" lon="-4.7398796158498735"><ele>150.0</ele><time>2026-04-05T15:43:45.865Z</time></trkpt><trkpt lat="37.841699949819834" lon="-4.739986163458898"><ele>150.0</ele><time>2026-04-05T15:43:46.865Z</time></trkpt><trkpt lat="37.84172682101524" lon="-4.74009758439766"><ele>150.0</ele><time>2026-04-05T15:43:47.865Z</time></trkpt><trkpt lat="37.84173955198625" lon="-4.740196432951944"><ele>150.0</ele><time>2026-04-05T15:43:48.865Z</time></trkpt><trkpt lat="37.841740182601214" lon="-4.740306939175666"><ele>150.0</ele><time>2026-04-05T15:43:49.865Z</time></trkpt><trkpt lat="37.84173038431237" lon="-4.740426909518861"><ele>150.0</ele><time>2026-04-05T15:43:50.865Z</time></trkpt><trkpt lat="37.84170443003844" lon="-4.740545387803131"><ele>150.0</ele><time>2026-04-05T15:43:51.865Z</time></trkpt><trkpt lat="37.84166796271812" lon="-4.740660744624712"><ele>150.4</ele><time>2026-04-05T15:43:52.865Z</time></trkpt><trkpt lat="37.84162534148015" lon="-4.7407719056791215"><ele>150.8</ele><time>2026-04-05T15:43:53.865Z</time></trkpt><trkpt lat="37.841576395964886" lon="-4.740869821227971"><ele>151.2</ele><time>2026-04-05T15:43:54.865Z</time></trkpt><trkpt lat="37.84153383562487" lon="-4.740960042919326"><ele>151.6</ele><time>2026-04-05T15:43:55.865Z</time></trkpt><trkpt lat="37.841500593586716" lon="-4.741034417029529"><ele>152.0</ele><time>2026-04-05T15:43:56.865Z</time></trkpt><trkpt lat="37.84145503558566" lon="-4.741163222920538"><ele>152.5</ele><time>2026-04-05T15:43:58.865Z</time></trkpt><trkpt lat="37.84152539481179" lon="-4.741310655090299"><ele>153.0</ele><time>2026-04-05T15:44:00.865Z</time></trkpt><trkpt lat="37.84162680132266" lon="-4.74130854234566"><ele>153.5</ele><time>2026-04-05T15:44:01.865Z</time></trkpt><trkpt lat="37.84172763419602" lon="-4.741328208603282"><ele>154.0</ele><time>2026-04-05T15:44:02.865Z</time></trkpt><trkpt lat="37.84186782319665" lon="-4.741359348283748"><ele>154.0</ele><time>2026-04-05T15:44:03.865Z</time></trkpt><trkpt lat="37.841992245458016" lon="-4.74140202143038"><ele>154.0</ele><time>2026-04-05T15:44:04.865Z</time></trkpt><trkpt lat="37.842101177490775" lon="-4.741451287366135"><ele>154.0</ele><time>2026-04-05T15:44:05.865Z</time></trkpt><trkpt lat="37.842197969304344" lon="-4.741520913856582"><ele>154.0</ele><time>2026-04-05T15:44:06.865Z</time></trkpt><trkpt lat="37.84230903921805" lon="-4.74158575238368"><ele>154.0</ele><time>2026-04-05T15:44:07.865Z</time></trkpt><trkpt lat="37.84241209761445" lon="-4.7416555318108005"><ele>154.0</ele><time>2026-04-05T15:44:08.865Z</time></trkpt><trkpt lat="37.84250598983816" lon="-4.7417415881470895"><ele>154.0</ele><time>2026-04-05T15:44:09.865Z</time></trkpt><trkpt lat="37.84259241696073" lon="-4.7418344222073125"><ele>154.0</ele><time>2026-04-05T15:44:10.865Z</time></trkpt><trkpt lat="37.84267263075509" lon="-4.741932955453357"><ele>154.0</ele><time>2026-04-05T15:44:11.865Z</time></trkpt><trkpt lat="37.84275152642117" lon="-4.742040135304803"><ele>154.0</ele><time>2026-04-05T15:44:12.865Z</time></trkpt><trkpt lat="37.842832921448306" lon="-4.742159833282399"><ele>154.0</ele><time>2026-04-05T15:44:13.865Z</time></trkpt><trkpt lat="37.842910645008814" lon="-4.742280111519899"><ele>154.0</ele><time>2026-04-05T15:44:14.865Z</time></trkpt><trkpt lat="37.842991936328836" lon="-4.74241308777111"><ele>154.0</ele><time>2026-04-05T15:44:15.865Z</time></trkpt><trkpt lat="37.84307047887844" lon="-4.742544976015744"><ele>154.0</ele><time>2026-04-05T15:44:16.865Z</time></trkpt><trkpt lat="37.84314622695464" lon="-4.742682797586137"><ele>154.0</ele><time>2026-04-05T15:44:17.865Z</time></trkpt><trkpt lat="37.84322558882156" lon="-4.74282852180756"><ele>154.0</ele><time>2026-04-05T15:44:18.865Z</time></trkpt><trkpt lat="37.843309156710085" lon="-4.742979429489786"><ele>153.5</ele><time>2026-04-05T15:44:19.865Z</time></trkpt><trkpt lat="37.84339554465651" lon="-4.743135107170568"><ele>153.0</ele><time>2026-04-05T15:44:20.865Z</time></trkpt><trkpt lat="37.84347499742257" lon="-4.743275865539237"><ele>152.5</ele><time>2026-04-05T15:44:21.865Z</time></trkpt><trkpt lat="37.84354591271057" lon="-4.743403378917612"><ele>152.0</ele><time>2026-04-05T15:44:22.865Z</time></trkpt><trkpt lat="37.84361485357821" lon="-4.7435304040433275"><ele>153.0</ele><time>2026-04-05T15:44:23.865Z</time></trkpt><trkpt lat="37.843685373493294" lon="-4.743660686413549"><ele>154.0</ele><time>2026-04-05T15:44:24.865Z</time></trkpt><trkpt lat="37.843756857814704" lon="-4.743792315510832"><ele>155.0</ele><time>2026-04-05T15:44:25.865Z</time></trkpt><trkpt lat="37.843835073993375" lon="-4.7439176333539885"><ele>156.0</ele><time>2026-04-05T15:44:26.865Z</time></trkpt><trkpt lat="37.843920228572564" lon="-4.744048440769734"><ele>156.0</ele><time>2026-04-05T15:44:27.865Z</time></trkpt><trkpt lat="37.84402801550339" lon="-4.74415509048634"><ele>156.0</ele><time>2026-04-05T15:44:28.865Z</time></trkpt><trkpt lat="37.84411026276177" lon="-4.744273722872833"><ele>156.0</ele><time>2026-04-05T15:44:29.865Z</time></trkpt><trkpt lat="37.84416880217463" lon="-4.7444073883243325"><ele>156.0</ele><time>2026-04-05T15:44:30.865Z</time></trkpt><trkpt lat="37.844228992428434" lon="-4.7445350079103505"><ele>156.25</ele><time>2026-04-05T15:44:31.865Z</time></trkpt><trkpt lat="37.84427816611589" lon="-4.7446685457293665"><ele>156.5</ele><time>2026-04-05T15:44:32.865Z</time></trkpt><trkpt lat="37.84432402954076" lon="-4.744815803350177"><ele>156.75</ele><time>2026-04-05T15:44:33.865Z</time></trkpt><trkpt lat="37.84436064882231" lon="-4.744964159198267"><ele>157.0</ele><time>2026-04-05T15:44:34.865Z</time></trkpt><trkpt lat="37.84439051913678" lon="-4.7451211302439935"><ele>156.5</ele><time>2026-04-05T15:44:35.865Z</time></trkpt><trkpt lat="37.84441300219812" lon="-4.745275910321077"><ele>156.0</ele><time>2026-04-05T15:44:36.862Z</time></trkpt><trkpt lat="37.84443465723069" lon="-4.745435599144717"><ele>155.5</ele><time>2026-04-05T15:44:37.862Z</time></trkpt><trkpt lat="37.84444262427474" lon="-4.74557850675343"><ele>155.0</ele><time>2026-04-05T15:44:38.862Z</time></trkpt><trkpt lat="37.84444342829177" lon="-4.745731852964161"><ele>155.0</ele><time>2026-04-05T15:44:39.862Z</time></trkpt><trkpt lat="37.84443646365128" lon="-4.745890009620555"><ele>155.0</ele><time>2026-04-05T15:44:40.862Z</time></trkpt><trkpt lat="37.844425613173854" lon="-4.7460467327709495"><ele>155.0</ele><time>2026-04-05T15:44:41.862Z</time></trkpt><trkpt lat="37.844397087004815" lon="-4.746196057677219"><ele>155.0</ele><time>2026-04-05T15:44:42.862Z</time></trkpt><trkpt lat="37.8443934585591" lon="-4.746346392917352"><ele>156.2</ele><time>2026-04-05T15:44:43.861Z</time></trkpt><trkpt lat="37.844350756803806" lon="-4.746488905484375"><ele>157.4</ele><time>2026-04-05T15:44:44.861Z</time></trkpt><trkpt lat="37.844317733622574" lon="-4.746632676515561"><ele>158.60000000000002</ele><time>2026-04-05T15:44:45.862Z</time></trkpt><trkpt lat="37.844292324349176" lon="-4.746766436759167"><ele>159.8</ele><time>2026-04-05T15:44:46.862Z</time></trkpt><trkpt lat="37.84425412687915" lon="-4.746884603985604"><ele>161.0</ele><time>2026-04-05T15:44:47.862Z</time></trkpt><trkpt lat="37.84421680470344" lon="-4.746988054818663"><ele>161.0</ele><time>2026-04-05T15:44:48.862Z</time></trkpt><trkpt lat="37.84417903683176" lon="-4.747080669175974"><ele>161.0</ele><time>2026-04-05T15:44:49.861Z</time></trkpt><trkpt lat="37.844141376757605" lon="-4.747166688723876"><ele>161.0</ele><time>2026-04-05T15:44:50.861Z</time></trkpt><trkpt lat="37.844103904321514" lon="-4.747238776194633"><ele>161.0</ele><time>2026-04-05T15:44:51.861Z</time></trkpt><trkpt lat="37.84406108750098" lon="-4.747311393344399"><ele>161.0</ele><time>2026-04-05T15:44:52.861Z</time></trkpt><trkpt lat="37.8439918058253" lon="-4.747414186551921"><ele>161.0</ele><time>2026-04-05T15:44:54.861Z</time></trkpt><trkpt lat="37.84391673710307" lon="-4.7474699800345235"><ele>161.0</ele><time>2026-04-05T15:44:57.861Z</time></trkpt><trkpt lat="37.843833702688336" lon="-4.747417497810767"><ele>161.0</ele><time>2026-04-05T15:44:59.861Z</time></trkpt><trkpt lat="37.84379975085667" lon="-4.747310725058063"><ele>161.0</ele><time>2026-04-05T15:45:00.861Z</time></trkpt><trkpt lat="37.84376470739045" lon="-4.7471750478622585"><ele>161.0</ele><time>2026-04-05T15:45:01.861Z</time></trkpt><trkpt lat="37.84372214109463" lon="-4.747026626434131"><ele>161.0</ele><time>2026-04-05T15:45:02.861Z</time></trkpt><trkpt lat="37.84367734879136" lon="-4.746896368316382"><ele>161.25</ele><time>2026-04-05T15:45:03.861Z</time></trkpt><trkpt lat="37.84361982569327" lon="-4.746742958504431"><ele>161.5</ele><time>2026-04-05T15:45:04.861Z</time></trkpt><trkpt lat="37.84354751905283" lon="-4.7465790055623245"><ele>161.75</ele><time>2026-04-05T15:45:05.861Z</time></trkpt><trkpt lat="37.84345616914007" lon="-4.746407426093573"><ele>162.0</ele><time>2026-04-05T15:45:06.861Z</time></trkpt><trkpt lat="37.84335091285224" lon="-4.746237590535258"><ele>163.66666666666666</ele><time>2026-04-05T15:45:07.861Z</time></trkpt><trkpt lat="37.8432316998149" lon="-4.746070930727591"><ele>165.33333333333331</ele><time>2026-04-05T15:45:08.861Z</time></trkpt><trkpt lat="37.84309568341014" lon="-4.7459040097094"><ele>167.0</ele><time>2026-04-05T15:45:09.861Z</time></trkpt><trkpt lat="37.84292960046801" lon="-4.745742797647318"><ele>167.0</ele><time>2026-04-05T15:45:10.861Z</time></trkpt><trkpt lat="37.84273360798066" lon="-4.74558822574881"><ele>167.0</ele><time>2026-04-05T15:45:11.861Z</time></trkpt><trkpt lat="37.8425260390162" lon="-4.745453992636889"><ele>168.0</ele><time>2026-04-05T15:45:12.861Z</time></trkpt><trkpt lat="37.84230186195781" lon="-4.745339560953615"><ele>169.0</ele><time>2026-04-05T15:45:13.861Z</time></trkpt><trkpt lat="37.84207617785883" lon="-4.745243614531751"><ele>169.0</ele><time>2026-04-05T15:45:14.861Z</time></trkpt><trkpt lat="37.84184514591875" lon="-4.7451498726158015"><ele>169.0</ele><time>2026-04-05T15:45:15.861Z</time></trkpt><trkpt lat="37.84161700959277" lon="-4.74505687361754"><ele>170.0</ele><time>2026-04-05T15:45:16.861Z</time></trkpt><trkpt lat="37.84139445039568" lon="-4.744965288603843"><ele>171.0</ele><time>2026-04-05T15:45:17.861Z</time></trkpt><trkpt lat="37.84117400375103" lon="-4.744873812349942"><ele>173.0</ele><time>2026-04-05T15:45:18.861Z</time></trkpt><trkpt lat="37.840952907709685" lon="-4.744781251049897"><ele>175.0</ele><time>2026-04-05T15:45:19.861Z</time></trkpt><trkpt lat="37.840735724101556" lon="-4.744689749231382"><ele>175.0</ele><time>2026-04-05T15:45:20.861Z</time></trkpt><trkpt lat="37.84052390113788" lon="-4.744589883168098"><ele>175.0</ele><time>2026-04-05T15:45:21.861Z</time></trkpt><trkpt lat="37.840314541460685" lon="-4.744479086556116"><ele>175.5</ele><time>2026-04-05T15:45:22.861Z</time></trkpt><trkpt lat="37.84010385430469" lon="-4.744352826698385"><ele>176.0</ele><time>2026-04-05T15:45:23.861Z</time></trkpt><trkpt lat="37.839892384600624" lon="-4.744212398153507"><ele>176.0</ele><time>2026-04-05T15:45:24.861Z</time></trkpt><trkpt lat="37.83968030964111" lon="-4.7440609507089615"><ele>176.0</ele><time>2026-04-05T15:45:25.861Z</time></trkpt><trkpt lat="37.83947472754442" lon="-4.743908845520012"><ele>180.5</ele><time>2026-04-05T15:45:26.861Z</time></trkpt><trkpt lat="37.839269611749955" lon="-4.743751846762764"><ele>185.0</ele><time>2026-04-05T15:45:27.861Z</time></trkpt><trkpt lat="37.83906742093996" lon="-4.743598622951495"><ele>182.5</ele><time>2026-04-05T15:45:28.861Z</time></trkpt><trkpt lat="37.83886740910015" lon="-4.743445987128273"><ele>180.0</ele><time>2026-04-05T15:45:29.861Z</time></trkpt><trkpt lat="37.83866910376681" lon="-4.743291763876197"><ele>180.0</ele><time>2026-04-05T15:45:30.861Z</time></trkpt><trkpt lat="37.83847037476024" lon="-4.743137203278565"><ele>180.0</ele><time>2026-04-05T15:45:31.861Z</time></trkpt><trkpt lat="37.83827019770198" lon="-4.742985162923662"><ele>184.0</ele><time>2026-04-05T15:45:32.861Z</time></trkpt><trkpt lat="37.8380683078864" lon="-4.742831443487543"><ele>188.0</ele><time>2026-04-05T15:45:33.861Z</time></trkpt><trkpt lat="37.83786562919922" lon="-4.742681003694141"><ele>188.0</ele><time>2026-04-05T15:45:34.861Z</time></trkpt><trkpt lat="37.837670345741905" lon="-4.742531365045081"><ele>188.0</ele><time>2026-04-05T15:45:35.861Z</time></trkpt><trkpt lat="37.83747859432453" lon="-4.74238514664621"><ele>191.0</ele><time>2026-04-05T15:45:36.861Z</time></trkpt><trkpt lat="37.83728804860434" lon="-4.742238754778718"><ele>194.0</ele><time>2026-04-05T15:45:37.861Z</time></trkpt><trkpt lat="37.8370989347115" lon="-4.742093329248765"><ele>197.0</ele><time>2026-04-05T15:45:38.861Z</time></trkpt><trkpt lat="37.83691009860766" lon="-4.741946406248482"><ele>197.66666666666669</ele><time>2026-04-05T15:45:39.861Z</time></trkpt><trkpt lat="37.83672340168938" lon="-4.74179715711425"><ele>198.33333333333331</ele><time>2026-04-05T15:45:40.861Z</time></trkpt><trkpt lat="37.83655112962429" lon="-4.7416492381996935"><ele>199.0</ele><time>2026-04-05T15:45:41.861Z</time></trkpt><trkpt lat="37.83637399893539" lon="-4.74149792341484"><ele>199.0</ele><time>2026-04-05T15:45:42.861Z</time></trkpt><trkpt lat="37.83621326906854" lon="-4.741324698861776"><ele>199.0</ele><time>2026-04-05T15:45:43.861Z</time></trkpt><trkpt lat="37.83605331612293" lon="-4.7411432402286735"><ele>199.0</ele><time>2026-04-05T15:45:44.861Z</time></trkpt><trkpt lat="37.83589350221096" lon="-4.740961730358671"><ele>199.0</ele><time>2026-04-05T15:45:45.861Z</time></trkpt><trkpt lat="37.83573691560957" lon="-4.74077560234648"><ele>199.0</ele><time>2026-04-05T15:45:46.861Z</time></trkpt><trkpt lat="37.8355717670497" lon="-4.740592816244535"><ele>199.0</ele><time>2026-04-05T15:45:47.861Z</time></trkpt><trkpt lat="37.835406493488314" lon="-4.7404189850160074"><ele>199.0</ele><time>2026-04-05T15:45:48.861Z</time></trkpt><trkpt lat="37.835233204187546" lon="-4.740255086775802"><ele>199.0</ele><time>2026-04-05T15:45:49.861Z</time></trkpt><trkpt lat="37.83504741161943" lon="-4.740095446563184"><ele>199.0</ele><time>2026-04-05T15:45:50.861Z</time></trkpt><trkpt lat="37.834852125442296" lon="-4.739953518571499"><ele>201.5</ele><time>2026-04-05T15:45:51.861Z</time></trkpt><trkpt lat="37.834646467321086" lon="-4.73982679128726"><ele>204.0</ele><time>2026-04-05T15:45:52.861Z</time></trkpt><trkpt lat="37.83443814987562" lon="-4.739717004887975"><ele>208.5</ele><time>2026-04-05T15:45:53.861Z</time></trkpt><trkpt lat="37.834225576970496" lon="-4.739619252519261"><ele>213.0</ele><time>2026-04-05T15:45:54.861Z</time></trkpt><trkpt lat="37.83400762873629" lon="-4.739539039868663"><ele>213.0</ele><time>2026-04-05T15:45:55.861Z</time></trkpt><trkpt lat="37.833791383145304" lon="-4.739457189173202"><ele>213.0</ele><time>2026-04-05T15:45:56.861Z</time></trkpt><trkpt lat="37.83357542370746" lon="-4.7393773539387105"><ele>212.0</ele><time>2026-04-05T15:45:57.861Z</time></trkpt><trkpt lat="37.83336009017081" lon="-4.739304303447098"><ele>211.0</ele><time>2026-04-05T15:45:58.861Z</time></trkpt><trkpt lat="37.8331447124411" lon="-4.7392447075379325"><ele>210.0</ele><time>2026-04-05T15:45:59.861Z</time></trkpt><trkpt lat="37.83292566088193" lon="-4.739225739819331"><ele>210.0</ele><time>2026-04-05T15:46:00.861Z</time></trkpt><trkpt lat="37.832699761879326" lon="-4.739246484294427"><ele>210.0</ele><time>2026-04-05T15:46:01.861Z</time></trkpt><trkpt lat="37.83247217344154" lon="-4.739285256932695"><ele>210.0</ele><time>2026-04-05T15:46:02.861Z</time></trkpt><trkpt lat="37.83223921773365" lon="-4.739332486806801"><ele>210.0</ele><time>2026-04-05T15:46:03.861Z</time></trkpt><trkpt lat="37.8319994664503" lon="-4.7393817899961865"><ele>213.0</ele><time>2026-04-05T15:46:04.861Z</time></trkpt><trkpt lat="37.831754038310805" lon="-4.73943182612277"><ele>216.0</ele><time>2026-04-05T15:46:05.861Z</time></trkpt><trkpt lat="37.83150828928118" lon="-4.739485312857645"><ele>216.0</ele><time>2026-04-05T15:46:06.861Z</time></trkpt><trkpt lat="37.831262650359385" lon="-4.739536677048009"><ele>216.0</ele><time>2026-04-05T15:46:07.861Z</time></trkpt><trkpt lat="37.83101812872766" lon="-4.739585890183095"><ele>212.5</ele><time>2026-04-05T15:46:08.861Z</time></trkpt><trkpt lat="37.8307741457088" lon="-4.739628843839493"><ele>209.0</ele><time>2026-04-05T15:46:09.861Z</time></trkpt><trkpt lat="37.830533273602946" lon="-4.739659771209641"><ele>209.0</ele><time>2026-04-05T15:46:10.861Z</time></trkpt><trkpt lat="37.830290467198715" lon="-4.739678641745141"><ele>209.0</ele><time>2026-04-05T15:46:11.861Z</time></trkpt><trkpt lat="37.83004918105954" lon="-4.739684500989847"><ele>209.5</ele><time>2026-04-05T15:46:12.861Z</time></trkpt><trkpt lat="37.82980747474034" lon="-4.739674223852679"><ele>210.0</ele><time>2026-04-05T15:46:13.861Z</time></trkpt><trkpt lat="37.82956750886209" lon="-4.739651295855271"><ele>210.0</ele><time>2026-04-05T15:46:14.861Z</time></trkpt><trkpt lat="37.82933141523706" lon="-4.739613648439563"><ele>210.0</ele><time>2026-04-05T15:46:15.861Z</time></trkpt><trkpt lat="37.829097115102314" lon="-4.739556296697164"><ele>211.5</ele><time>2026-04-05T15:46:16.861Z</time></trkpt><trkpt lat="37.82886638770782" lon="-4.739480188726727"><ele>213.0</ele><time>2026-04-05T15:46:17.861Z</time></trkpt><trkpt lat="37.82863860979145" lon="-4.739387613916454"><ele>216.5</ele><time>2026-04-05T15:46:18.861Z</time></trkpt><trkpt lat="37.828416098839924" lon="-4.73928283522888"><ele>220.0</ele><time>2026-04-05T15:46:19.861Z</time></trkpt><trkpt lat="37.828197425907554" lon="-4.739168705064258"><ele>220.0</ele><time>2026-04-05T15:46:20.861Z</time></trkpt><trkpt lat="37.827977232295595" lon="-4.739044813335063"><ele>220.0</ele><time>2026-04-05T15:46:21.861Z</time></trkpt><trkpt lat="37.827757728590576" lon="-4.738913523181669"><ele>222.0</ele><time>2026-04-05T15:46:22.861Z</time></trkpt><trkpt lat="37.8275350611576" lon="-4.7387816644059475"><ele>224.0</ele><time>2026-04-05T15:46:23.861Z</time></trkpt><trkpt lat="37.827313996874835" lon="-4.738642876406253"><ele>221.5</ele><time>2026-04-05T15:46:24.861Z</time></trkpt><trkpt lat="37.82708767632273" lon="-4.738505184812289"><ele>219.0</ele><time>2026-04-05T15:46:25.861Z</time></trkpt><trkpt lat="37.82686181470094" lon="-4.738364749019908"><ele>221.5</ele><time>2026-04-05T15:46:26.861Z</time></trkpt><trkpt lat="37.8266319882456" lon="-4.738226895481487"><ele>224.0</ele><time>2026-04-05T15:46:27.861Z</time></trkpt><trkpt lat="37.82640000572308" lon="-4.738092260679781"><ele>224.0</ele><time>2026-04-05T15:46:28.861Z</time></trkpt><trkpt lat="37.826164304123004" lon="-4.737959961295275"><ele>224.0</ele><time>2026-04-05T15:46:29.861Z</time></trkpt><trkpt lat="37.825927079124874" lon="-4.7378340521929125"><ele>223.0</ele><time>2026-04-05T15:46:30.861Z</time></trkpt><trkpt lat="37.82569058431925" lon="-4.737714355511451"><ele>222.0</ele><time>2026-04-05T15:46:31.861Z</time></trkpt><trkpt lat="37.82545036812162" lon="-4.737601371204419"><ele>222.0</ele><time>2026-04-05T15:46:32.861Z</time></trkpt><trkpt lat="37.82521267313129" lon="-4.737499282488917"><ele>222.0</ele><time>2026-04-05T15:46:33.861Z</time></trkpt><trkpt lat="37.82496830195049" lon="-4.737406502477195"><ele>221.5</ele><time>2026-04-05T15:46:34.861Z</time></trkpt><trkpt lat="37.824723993093976" lon="-4.737322861162075"><ele>221.0</ele><time>2026-04-05T15:46:35.861Z</time></trkpt><trkpt lat="37.824475178371124" lon="-4.737249849092326"><ele>223.0</ele><time>2026-04-05T15:46:36.861Z</time></trkpt><trkpt lat="37.82422246417935" lon="-4.73718392828585"><ele>225.0</ele><time>2026-04-05T15:46:37.861Z</time></trkpt><trkpt lat="37.82396787278334" lon="-4.737128856857528"><ele>225.0</ele><time>2026-04-05T15:46:38.861Z</time></trkpt><trkpt lat="37.8237130622764" lon="-4.737079555722385"><ele>225.0</ele><time>2026-04-05T15:46:39.861Z</time></trkpt><trkpt lat="37.823457205130474" lon="-4.737038375172473"><ele>227.5</ele><time>2026-04-05T15:46:40.861Z</time></trkpt><trkpt lat="37.823201866177534" lon="-4.737005231646578"><ele>230.0</ele><time>2026-04-05T15:46:41.861Z</time></trkpt><trkpt lat="37.822949760389335" lon="-4.736983098120759"><ele>230.0</ele><time>2026-04-05T15:46:42.859Z</time></trkpt><trkpt lat="37.82269624705733" lon="-4.73697242253937"><ele>230.0</ele><time>2026-04-05T15:46:43.859Z</time></trkpt><trkpt lat="37.822441475784764" lon="-4.736965949554253"><ele>230.5</ele><time>2026-04-05T15:46:44.859Z</time></trkpt><trkpt lat="37.82218402264899" lon="-4.7369619854922265"><ele>231.0</ele><time>2026-04-05T15:46:45.859Z</time></trkpt><trkpt lat="37.82192476525923" lon="-4.736958647839394"><ele>227.0</ele><time>2026-04-05T15:46:46.858Z</time></trkpt><trkpt lat="37.821664464767004" lon="-4.736955022981735"><ele>223.0</ele><time>2026-04-05T15:46:47.858Z</time></trkpt><trkpt lat="37.821404826512435" lon="-4.7369484320597275"><ele>223.0</ele><time>2026-04-05T15:46:48.858Z</time></trkpt><trkpt lat="37.82114297920528" lon="-4.73693076562418"><ele>223.0</ele><time>2026-04-05T15:46:49.858Z</time></trkpt><trkpt lat="37.82088091471704" lon="-4.736895595996247"><ele>220.5</ele><time>2026-04-05T15:46:50.858Z</time></trkpt><trkpt lat="37.82061685332405" lon="-4.736836639885134"><ele>218.0</ele><time>2026-04-05T15:46:51.859Z</time></trkpt><trkpt lat="37.82035234436518" lon="-4.736758456410449"><ele>219.5</ele><time>2026-04-05T15:46:52.858Z</time></trkpt><trkpt lat="37.82008478506281" lon="-4.736665684881802"><ele>221.0</ele><time>2026-04-05T15:46:53.858Z</time></trkpt><trkpt lat="37.81982115475878" lon="-4.736562464186145"><ele>221.0</ele><time>2026-04-05T15:46:54.858Z</time></trkpt><trkpt lat="37.81955784459699" lon="-4.736450696225766"><ele>221.0</ele><time>2026-04-05T15:46:55.858Z</time></trkpt><trkpt lat="37.81930359599884" lon="-4.736339230305463"><ele>225.0</ele><time>2026-04-05T15:46:56.858Z</time></trkpt><trkpt lat="37.81905398707637" lon="-4.736230458675631"><ele>229.0</ele><time>2026-04-05T15:46:57.858Z</time></trkpt><trkpt lat="37.81880581459024" lon="-4.736123452689495"><ele>230.5</ele><time>2026-04-05T15:46:58.858Z</time></trkpt><trkpt lat="37.81855712441623" lon="-4.736017731513144"><ele>232.0</ele><time>2026-04-05T15:46:59.858Z</time></trkpt><trkpt lat="37.818308489576246" lon="-4.73591156988887"><ele>232.0</ele><time>2026-04-05T15:47:00.858Z</time></trkpt><trkpt lat="37.81806053457955" lon="-4.735806284402475"><ele>232.0</ele><time>2026-04-05T15:47:01.858Z</time></trkpt><trkpt lat="37.81781167836889" lon="-4.735700385142499"><ele>235.0</ele><time>2026-04-05T15:47:02.858Z</time></trkpt><trkpt lat="37.817562225837456" lon="-4.73559531285915"><ele>238.0</ele><time>2026-04-05T15:47:03.858Z</time></trkpt><trkpt lat="37.81731484792007" lon="-4.735492055335853"><ele>238.0</ele><time>2026-04-05T15:47:04.858Z</time></trkpt><trkpt lat="37.81707068637305" lon="-4.735391326185887"><ele>238.0</ele><time>2026-04-05T15:47:05.858Z</time></trkpt><trkpt lat="37.81683643837223" lon="-4.735296024808494"><ele>236.5</ele><time>2026-04-05T15:47:06.858Z</time></trkpt><trkpt lat="37.81660743295979" lon="-4.735201010923164"><ele>235.0</ele><time>2026-04-05T15:47:07.858Z</time></trkpt><trkpt lat="37.81638018056359" lon="-4.735096114193006"><ele>235.0</ele><time>2026-04-05T15:47:08.858Z</time></trkpt><trkpt lat="37.81615734711053" lon="-4.73498096163273"><ele>235.0</ele><time>2026-04-05T15:47:09.858Z</time></trkpt><trkpt lat="37.81594157897604" lon="-4.734840220182214"><ele>228.5</ele><time>2026-04-05T15:47:10.858Z</time></trkpt><trkpt lat="37.8157374802884" lon="-4.734665273510331"><ele>222.0</ele><time>2026-04-05T15:47:11.858Z</time></trkpt><trkpt lat="37.81554563533366" lon="-4.734459369370296"><ele>226.0</ele><time>2026-04-05T15:47:12.858Z</time></trkpt><trkpt lat="37.81536463997434" lon="-4.734225578953775"><ele>230.0</ele><time>2026-04-05T15:47:13.858Z</time></trkpt><trkpt lat="37.815202464329666" lon="-4.7339715429467875"><ele>223.5</ele><time>2026-04-05T15:47:14.858Z</time></trkpt><trkpt lat="37.81505149802314" lon="-4.7337037283833"><ele>217.0</ele><time>2026-04-05T15:47:15.858Z</time></trkpt><trkpt lat="37.81490951920092" lon="-4.7334240305054935"><ele>217.0</ele><time>2026-04-05T15:47:16.858Z</time></trkpt><trkpt lat="37.81477008616542" lon="-4.733139052901729"><ele>217.0</ele><time>2026-04-05T15:47:17.858Z</time></trkpt><trkpt lat="37.814633083717396" lon="-4.732853803062808"><ele>215.5</ele><time>2026-04-05T15:47:18.858Z</time></trkpt><trkpt lat="37.81449558122033" lon="-4.732577215346818"><ele>214.0</ele><time>2026-04-05T15:47:19.858Z</time></trkpt><trkpt lat="37.814361575623906" lon="-4.732316631227618"><ele>208.0</ele><time>2026-04-05T15:47:20.858Z</time></trkpt><trkpt lat="37.81421333529359" lon="-4.73205891868463"><ele>202.0</ele><time>2026-04-05T15:47:21.858Z</time></trkpt><trkpt lat="37.81404514532593" lon="-4.7318188083766115"><ele>200.0</ele><time>2026-04-05T15:47:22.858Z</time></trkpt><trkpt lat="37.81384866207108" lon="-4.731600312644301"><ele>198.0</ele><time>2026-04-05T15:47:23.858Z</time></trkpt><trkpt lat="37.81363120725275" lon="-4.731414259626406"><ele>198.0</ele><time>2026-04-05T15:47:24.858Z</time></trkpt><trkpt lat="37.81339217096529" lon="-4.731245348040456"><ele>198.0</ele><time>2026-04-05T15:47:25.858Z</time></trkpt><trkpt lat="37.81313582705821" lon="-4.731094745911554"><ele>195.5</ele><time>2026-04-05T15:47:26.858Z</time></trkpt><trkpt lat="37.81287153365081" lon="-4.730953305878703"><ele>193.0</ele><time>2026-04-05T15:47:27.858Z</time></trkpt><trkpt lat="37.81260493854705" lon="-4.730812918507729"><ele>191.0</ele><time>2026-04-05T15:47:28.858Z</time></trkpt><trkpt lat="37.81233345043851" lon="-4.730665379225458"><ele>189.0</ele><time>2026-04-05T15:47:29.858Z</time></trkpt><trkpt lat="37.8120587083249" lon="-4.730515230391163"><ele>188.0</ele><time>2026-04-05T15:47:30.858Z</time></trkpt><trkpt lat="37.811783747029416" lon="-4.7303629657653925"><ele>187.0</ele><time>2026-04-05T15:47:31.858Z</time></trkpt><trkpt lat="37.811506012024545" lon="-4.7302117608184915"><ele>187.0</ele><time>2026-04-05T15:47:32.858Z</time></trkpt><trkpt lat="37.81122340162632" lon="-4.73005731116305"><ele>187.0</ele><time>2026-04-05T15:47:33.858Z</time></trkpt><trkpt lat="37.81093402809224" lon="-4.729904343470406"><ele>187.0</ele><time>2026-04-05T15:47:34.858Z</time></trkpt><trkpt lat="37.81064415925421" lon="-4.729750795540535"><ele>187.0</ele><time>2026-04-05T15:47:35.858Z</time></trkpt><trkpt lat="37.8103558535108" lon="-4.729599238537751"><ele>184.5</ele><time>2026-04-05T15:47:36.858Z</time></trkpt><trkpt lat="37.8100728646162" lon="-4.72944516298435"><ele>182.0</ele><time>2026-04-05T15:47:37.858Z</time></trkpt><trkpt lat="37.809786548990054" lon="-4.729296753079531"><ele>182.0</ele><time>2026-04-05T15:47:38.858Z</time></trkpt><trkpt lat="37.80949926842622" lon="-4.72914742824494"><ele>182.0</ele><time>2026-04-05T15:47:39.858Z</time></trkpt><trkpt lat="37.80921225316419" lon="-4.728998102682927"><ele>179.5</ele><time>2026-04-05T15:47:40.858Z</time></trkpt><trkpt lat="37.808924926011464" lon="-4.728845986017956"><ele>177.0</ele><time>2026-04-05T15:47:41.858Z</time></trkpt><trkpt lat="37.80863682998014" lon="-4.728691942134583"><ele>173.0</ele><time>2026-04-05T15:47:42.858Z</time></trkpt><trkpt lat="37.8083488932953" lon="-4.7285367555132805"><ele>169.0</ele><time>2026-04-05T15:47:43.858Z</time></trkpt><trkpt lat="37.8080582849641" lon="-4.728382947999882"><ele>169.0</ele><time>2026-04-05T15:47:44.858Z</time></trkpt><trkpt lat="37.80777010672495" lon="-4.728231691845869"><ele>169.0</ele><time>2026-04-05T15:47:45.858Z</time></trkpt><trkpt lat="37.807480658379134" lon="-4.728076567331727"><ele>167.0</ele><time>2026-04-05T15:47:46.858Z</time></trkpt><trkpt lat="37.80719349707761" lon="-4.727922486388918"><ele>165.0</ele><time>2026-04-05T15:47:47.858Z</time></trkpt><trkpt lat="37.80690792143392" lon="-4.7277684741814685"><ele>165.0</ele><time>2026-04-05T15:47:48.858Z</time></trkpt><trkpt lat="37.8066252455107" lon="-4.727615872937734"><ele>165.0</ele><time>2026-04-05T15:47:49.858Z</time></trkpt><trkpt lat="37.806341515581344" lon="-4.727464995204708"><ele>165.0</ele><time>2026-04-05T15:47:50.858Z</time></trkpt><trkpt lat="37.80605987609187" lon="-4.727314571058803"><ele>165.0</ele><time>2026-04-05T15:47:51.858Z</time></trkpt><trkpt lat="37.80577731484542" lon="-4.727164285149106"><ele>164.0</ele><time>2026-04-05T15:47:52.858Z</time></trkpt><trkpt lat="37.80549673441522" lon="-4.7270161541313955"><ele>163.0</ele><time>2026-04-05T15:47:53.858Z</time></trkpt><trkpt lat="37.80521618919654" lon="-4.726867800065795"><ele>162.0</ele><time>2026-04-05T15:47:54.858Z</time></trkpt><trkpt lat="37.80493626246946" lon="-4.726721285187068"><ele>161.0</ele><time>2026-04-05T15:47:55.858Z</time></trkpt><trkpt lat="37.80465513172192" lon="-4.726576474573711"><ele>161.0</ele><time>2026-04-05T15:47:56.858Z</time></trkpt><trkpt lat="37.80437512601332" lon="-4.726431838290012"><ele>161.0</ele><time>2026-04-05T15:47:57.858Z</time></trkpt><trkpt lat="37.80409499024603" lon="-4.726284377518467"><ele>159.0</ele><time>2026-04-05T15:47:58.858Z</time></trkpt><trkpt lat="37.803816381920065" lon="-4.726134787989852"><ele>157.0</ele><time>2026-04-05T15:47:59.858Z</time></trkpt><trkpt lat="37.80353870039329" lon="-4.725985575793517"><ele>155.5</ele><time>2026-04-05T15:48:00.858Z</time></trkpt><trkpt lat="37.803263731820444" lon="-4.725836922855707"><ele>154.0</ele><time>2026-04-05T15:48:01.858Z</time></trkpt><trkpt lat="37.80298936321636" lon="-4.725688711217488"><ele>154.0</ele><time>2026-04-05T15:48:02.858Z</time></trkpt><trkpt lat="37.802712399644655" lon="-4.725538302362807"><ele>154.0</ele><time>2026-04-05T15:48:03.858Z</time></trkpt><trkpt lat="37.802436814813824" lon="-4.725387875744432"><ele>154.0</ele><time>2026-04-05T15:48:04.858Z</time></trkpt><trkpt lat="37.80216129996935" lon="-4.725237289541948"><ele>154.0</ele><time>2026-04-05T15:48:05.858Z</time></trkpt><trkpt lat="37.8018838091811" lon="-4.725085313464818"><ele>155.0</ele><time>2026-04-05T15:48:06.858Z</time></trkpt><trkpt lat="37.801605199400484" lon="-4.7249324835737525"><ele>156.0</ele><time>2026-04-05T15:48:07.858Z</time></trkpt><trkpt lat="37.80132606621884" lon="-4.7247841205347925"><ele>156.0</ele><time>2026-04-05T15:48:08.858Z</time></trkpt><trkpt lat="37.80104614590536" lon="-4.724637347584931"><ele>156.0</ele><time>2026-04-05T15:48:09.858Z</time></trkpt><trkpt lat="37.80076501728489" lon="-4.724488429788043"><ele>157.0</ele><time>2026-04-05T15:48:10.858Z</time></trkpt><trkpt lat="37.80048435976484" lon="-4.724338153372571"><ele>158.0</ele><time>2026-04-05T15:48:11.858Z</time></trkpt><trkpt lat="37.80020319248362" lon="-4.724180955563975"><ele>158.5</ele><time>2026-04-05T15:48:12.858Z</time></trkpt><trkpt lat="37.79992521534146" lon="-4.724017482939688"><ele>159.0</ele><time>2026-04-05T15:48:13.858Z</time></trkpt><trkpt lat="37.799650496649754" lon="-4.723850207308337"><ele>159.0</ele><time>2026-04-05T15:48:14.858Z</time></trkpt><trkpt lat="37.79937924473856" lon="-4.723679251361831"><ele>159.0</ele><time>2026-04-05T15:48:15.858Z</time></trkpt><trkpt lat="37.79911851146893" lon="-4.72349454321771"><ele>162.5</ele><time>2026-04-05T15:48:16.858Z</time></trkpt><trkpt lat="37.79887196018273" lon="-4.723288930832543"><ele>166.0</ele><time>2026-04-05T15:48:17.858Z</time></trkpt><trkpt lat="37.79864050132424" lon="-4.723059001898064"><ele>166.0</ele><time>2026-04-05T15:48:18.858Z</time></trkpt><trkpt lat="37.798421329140176" lon="-4.722808809941759"><ele>166.0</ele><time>2026-04-05T15:48:19.858Z</time></trkpt><trkpt lat="37.7982127417293" lon="-4.722542516997659"><ele>164.0</ele><time>2026-04-05T15:48:20.858Z</time></trkpt><trkpt lat="37.798016526478705" lon="-4.722262868269416"><ele>162.0</ele><time>2026-04-05T15:48:21.858Z</time></trkpt><trkpt lat="37.79782307439663" lon="-4.72198192447995"><ele>157.0</ele><time>2026-04-05T15:48:22.858Z</time></trkpt><trkpt lat="37.7976547351509" lon="-4.721676240987194"><ele>152.0</ele><time>2026-04-05T15:48:23.858Z</time></trkpt><trkpt lat="37.797511200722305" lon="-4.721351031517382"><ele>150.5</ele><time>2026-04-05T15:48:24.858Z</time></trkpt><trkpt lat="37.79738024772921" lon="-4.721018534495222"><ele>149.0</ele><time>2026-04-05T15:48:25.858Z</time></trkpt><trkpt lat="37.79726635872845" lon="-4.720669038251951"><ele>149.0</ele><time>2026-04-05T15:48:26.858Z</time></trkpt><trkpt lat="37.79717350740735" lon="-4.72031065523186"><ele>149.0</ele><time>2026-04-05T15:48:27.858Z</time></trkpt><trkpt lat="37.79709202484501" lon="-4.71994526936863"><ele>149.0</ele><time>2026-04-05T15:48:28.858Z</time></trkpt><trkpt lat="37.797022162613885" lon="-4.719575084394898"><ele>149.0</ele><time>2026-04-05T15:48:29.858Z</time></trkpt><trkpt lat="37.796975605124274" lon="-4.719199384928579"><ele>149.0</ele><time>2026-04-05T15:48:30.858Z</time></trkpt><trkpt lat="37.796917477985595" lon="-4.7188322377391225"><ele>149.0</ele><time>2026-04-05T15:48:31.858Z</time></trkpt><trkpt lat="37.79684661396188" lon="-4.718468524463231"><ele>154.5</ele><time>2026-04-05T15:48:32.858Z</time></trkpt><trkpt lat="37.79679352410286" lon="-4.718102732749599"><ele>160.0</ele><time>2026-04-05T15:48:33.858Z</time></trkpt><trkpt lat="37.79674102644101" lon="-4.717741637151449"><ele>161.0</ele><time>2026-04-05T15:48:34.858Z</time></trkpt><trkpt lat="37.796687898923" lon="-4.717382934670791"><ele>162.0</ele><time>2026-04-05T15:48:35.858Z</time></trkpt><trkpt lat="37.79663315553793" lon="-4.717027066948957"><ele>163.5</ele><time>2026-04-05T15:48:36.858Z</time></trkpt><trkpt lat="37.796579006883555" lon="-4.716675065551004"><ele>165.0</ele><time>2026-04-05T15:48:37.858Z</time></trkpt><trkpt lat="37.796527229957306" lon="-4.716326815418027"><ele>166.0</ele><time>2026-04-05T15:48:38.858Z</time></trkpt><trkpt lat="37.79647649958344" lon="-4.715983133569966"><ele>167.0</ele><time>2026-04-05T15:48:39.858Z</time></trkpt><trkpt lat="37.79642862679795" lon="-4.715658812772223"><ele>167.0</ele><time>2026-04-05T15:48:40.858Z</time></trkpt><trkpt lat="37.79638229109159" lon="-4.71534569022826"><ele>167.0</ele><time>2026-04-05T15:48:41.858Z</time></trkpt><trkpt lat="37.79633628391495" lon="-4.715037452206798"><ele>168.0</ele><time>2026-04-05T15:48:42.858Z</time></trkpt><trkpt lat="37.79629019707799" lon="-4.7147309154516766"><ele>169.0</ele><time>2026-04-05T15:48:43.858Z</time></trkpt><trkpt lat="37.79624347067466" lon="-4.714426195414746"><ele>170.5</ele><time>2026-04-05T15:48:44.858Z</time></trkpt><trkpt lat="37.796197265390504" lon="-4.714124874007986"><ele>172.0</ele><time>2026-04-05T15:48:45.858Z</time></trkpt><trkpt lat="37.796150715886995" lon="-4.713829251382438"><ele>173.0</ele><time>2026-04-05T15:48:46.858Z</time></trkpt><trkpt lat="37.796106593837635" lon="-4.713551709429803"><ele>174.0</ele><time>2026-04-05T15:48:47.858Z</time></trkpt><trkpt lat="37.79606298534307" lon="-4.7132773981743386"><ele>175.0</ele><time>2026-04-05T15:48:48.855Z</time></trkpt><trkpt lat="37.7960194558548" lon="-4.71300122819274"><ele>175.0</ele><time>2026-04-05T15:48:49.855Z</time></trkpt><trkpt lat="37.795976184007245" lon="-4.712724294832154"><ele>175.0</ele><time>2026-04-05T15:48:50.855Z</time></trkpt><trkpt lat="37.79594714373286" lon="-4.712441455952886"><ele>175.0</ele><time>2026-04-05T15:48:51.855Z</time></trkpt><trkpt lat="37.79589429577584" lon="-4.712164888663893"><ele>175.0</ele><time>2026-04-05T15:48:52.855Z</time></trkpt><trkpt lat="37.79583095499919" lon="-4.711888490707508"><ele>175.0</ele><time>2026-04-05T15:48:53.855Z</time></trkpt><trkpt lat="37.79575600225304" lon="-4.71161672116443"><ele>175.0</ele><time>2026-04-05T15:48:54.855Z</time></trkpt><trkpt lat="37.79566008657431" lon="-4.711357082737712"><ele>175.0</ele><time>2026-04-05T15:48:55.855Z</time></trkpt><trkpt lat="37.795570637401944" lon="-4.711091889650189"><ele>174.0</ele><time>2026-04-05T15:48:56.855Z</time></trkpt><trkpt lat="37.79548265866162" lon="-4.710831055938045"><ele>173.0</ele><time>2026-04-05T15:48:57.855Z</time></trkpt><trkpt lat="37.79539378453648" lon="-4.710569639256873"><ele>172.0</ele><time>2026-04-05T15:48:58.854Z</time></trkpt><trkpt lat="37.79530264975814" lon="-4.710312109223"><ele>170.0</ele><time>2026-04-05T15:48:59.854Z</time></trkpt><trkpt lat="37.79520679929907" lon="-4.710053848957649"><ele>168.0</ele><time>2026-04-05T15:49:00.855Z</time></trkpt><trkpt lat="37.79510649068048" lon="-4.709809846228922"><ele>166.0</ele><time>2026-04-05T15:49:01.855Z</time></trkpt><trkpt lat="37.79499638869711" lon="-4.709576989054973"><ele>163.66666666666669</ele><time>2026-04-05T15:49:02.855Z</time></trkpt><trkpt lat="37.794883795963585" lon="-4.709347935215285"><ele>161.33333333333334</ele><time>2026-04-05T15:49:03.855Z</time></trkpt><trkpt lat="37.79476919522332" lon="-4.709120678941638"><ele>159.0</ele><time>2026-04-05T15:49:04.855Z</time></trkpt><trkpt lat="37.79465654121866" lon="-4.708897283020874"><ele>159.0</ele><time>2026-04-05T15:49:05.855Z</time></trkpt><trkpt lat="37.79454231077009" lon="-4.708670287610481"><ele>159.0</ele><time>2026-04-05T15:49:06.855Z</time></trkpt><trkpt lat="37.7944421604098" lon="-4.708433983977118"><ele>159.0</ele><time>2026-04-05T15:49:07.855Z</time></trkpt><trkpt lat="37.794327270818265" lon="-4.708213968437599"><ele>157.0</ele><time>2026-04-05T15:49:08.855Z</time></trkpt><trkpt lat="37.79421531441622" lon="-4.70799650749393"><ele>155.0</ele><time>2026-04-05T15:49:09.855Z</time></trkpt><trkpt lat="37.794109467783" lon="-4.707785982143203"><ele>153.0</ele><time>2026-04-05T15:49:10.855Z</time></trkpt><trkpt lat="37.79400549036655" lon="-4.707577744896427"><ele>153.0</ele><time>2026-04-05T15:49:11.855Z</time></trkpt><trkpt lat="37.79390285537585" lon="-4.707373954089087"><ele>153.0</ele><time>2026-04-05T15:49:12.855Z</time></trkpt><trkpt lat="37.79380139617769" lon="-4.707173084604044"><ele>153.0</ele><time>2026-04-05T15:49:13.855Z</time></trkpt><trkpt lat="37.793699435763706" lon="-4.7069726183832294"><ele>154.66666666666666</ele><time>2026-04-05T15:49:14.855Z</time></trkpt><trkpt lat="37.79359814377851" lon="-4.706774402028458"><ele>156.33333333333331</ele><time>2026-04-05T15:49:15.855Z</time></trkpt><trkpt lat="37.79350298188933" lon="-4.7065837226064495"><ele>158.0</ele><time>2026-04-05T15:49:16.855Z</time></trkpt><trkpt lat="37.79340555777325" lon="-4.706382204207311"><ele>158.33333333333331</ele><time>2026-04-05T15:49:17.855Z</time></trkpt><trkpt lat="37.79330285762004" lon="-4.706172836078115"><ele>158.66666666666666</ele><time>2026-04-05T15:49:18.855Z</time></trkpt><trkpt lat="37.793197726829206" lon="-4.705956499390129"><ele>159.0</ele><time>2026-04-05T15:49:19.855Z</time></trkpt><trkpt lat="37.793078138984434" lon="-4.705740708611121"><ele>158.0</ele><time>2026-04-05T15:49:20.855Z</time></trkpt><trkpt lat="37.792960715475985" lon="-4.705505867737964"><ele>157.0</ele><time>2026-04-05T15:49:21.855Z</time></trkpt><trkpt lat="37.7928421992272" lon="-4.705268841159446"><ele>156.0</ele><time>2026-04-05T15:49:22.855Z</time></trkpt><trkpt lat="37.79271844077625" lon="-4.705021330470964"><ele>152.0</ele><time>2026-04-05T15:49:23.855Z</time></trkpt><trkpt lat="37.792592883804964" lon="-4.7047708843555425"><ele>148.0</ele><time>2026-04-05T15:49:24.855Z</time></trkpt><trkpt lat="37.792464002176054" lon="-4.704514037591002"><ele>147.0</ele><time>2026-04-05T15:49:25.855Z</time></trkpt><trkpt lat="37.792341647256286" lon="-4.704270198008485"><ele>146.0</ele><time>2026-04-05T15:49:26.855Z</time></trkpt><trkpt lat="37.79222492381859" lon="-4.704036252039535"><ele>145.0</ele><time>2026-04-05T15:49:27.855Z</time></trkpt><trkpt lat="37.79211482522307" lon="-4.703812249650289"><ele>145.0</ele><time>2026-04-05T15:49:28.855Z</time></trkpt><trkpt lat="37.79198721319617" lon="-4.703610288465037"><ele>145.0</ele><time>2026-04-05T15:49:29.855Z</time></trkpt><trkpt lat="37.79185045005327" lon="-4.703418425956919"><ele>145.0</ele><time>2026-04-05T15:49:30.855Z</time></trkpt><trkpt lat="37.79170476477449" lon="-4.70323876284789"><ele>144.66666666666669</ele><time>2026-04-05T15:49:31.855Z</time></trkpt><trkpt lat="37.791552920731135" lon="-4.70307289315196"><ele>144.33333333333334</ele><time>2026-04-05T15:49:32.855Z</time></trkpt><trkpt lat="37.79140132169211" lon="-4.70291407247724"><ele>144.0</ele><time>2026-04-05T15:49:33.855Z</time></trkpt><trkpt lat="37.79125320441389" lon="-4.7027555825158505"><ele>145.66666666666666</ele><time>2026-04-05T15:49:34.855Z</time></trkpt><trkpt lat="37.79110981540338" lon="-4.702608262966224"><ele>147.33333333333331</ele><time>2026-04-05T15:49:35.855Z</time></trkpt><trkpt lat="37.79096977418274" lon="-4.702459900826849"><ele>149.0</ele><time>2026-04-05T15:49:36.855Z</time></trkpt><trkpt lat="37.79083043234245" lon="-4.7023114489542435"><ele>149.0</ele><time>2026-04-05T15:49:37.855Z</time></trkpt><trkpt lat="37.790691275551836" lon="-4.702158755780797"><ele>149.0</ele><time>2026-04-05T15:49:38.855Z</time></trkpt><trkpt lat="37.79055659034535" lon="-4.702008120207217"><ele>149.0</ele><time>2026-04-05T15:49:39.855Z</time></trkpt><trkpt lat="37.790425662058475" lon="-4.70185760009106"><ele>149.0</ele><time>2026-04-05T15:49:40.855Z</time></trkpt><trkpt lat="37.79030913715176" lon="-4.701692439326259"><ele>149.0</ele><time>2026-04-05T15:49:41.855Z</time></trkpt><trkpt lat="37.79020648919913" lon="-4.70151046435161"><ele>149.0</ele><time>2026-04-05T15:49:42.855Z</time></trkpt><trkpt lat="37.79011830858634" lon="-4.701321112631698"><ele>149.0</ele><time>2026-04-05T15:49:43.855Z</time></trkpt><trkpt lat="37.79002318725295" lon="-4.701141894414324"><ele>149.0</ele><time>2026-04-05T15:49:44.855Z</time></trkpt><trkpt lat="37.78994510067379" lon="-4.700949289292608"><ele>149.0</ele><time>2026-04-05T15:49:45.855Z</time></trkpt><trkpt lat="37.78986993181497" lon="-4.700756548164646"><ele>149.33333333333331</ele><time>2026-04-05T15:49:46.855Z</time></trkpt><trkpt lat="37.789804885624605" lon="-4.700551261408945"><ele>149.66666666666666</ele><time>2026-04-05T15:49:47.855Z</time></trkpt><trkpt lat="37.78972724171755" lon="-4.700351460073386"><ele>150.0</ele><time>2026-04-05T15:49:48.855Z</time></trkpt><trkpt lat="37.78964678700704" lon="-4.700153733301456"><ele>150.0</ele><time>2026-04-05T15:49:49.855Z</time></trkpt><trkpt lat="37.78956542527741" lon="-4.699949424740886"><ele>150.0</ele><time>2026-04-05T15:49:50.855Z</time></trkpt><trkpt lat="37.78948078753207" lon="-4.699747006448163"><ele>150.0</ele><time>2026-04-05T15:49:51.855Z</time></trkpt><trkpt lat="37.78939649933564" lon="-4.699546944793704"><ele>149.33333333333334</ele><time>2026-04-05T15:49:52.855Z</time></trkpt><trkpt lat="37.789313304558554" lon="-4.699353941577317"><ele>148.66666666666669</ele><time>2026-04-05T15:49:53.855Z</time></trkpt><trkpt lat="37.789233256330725" lon="-4.699166100110492"><ele>148.0</ele><time>2026-04-05T15:49:54.855Z</time></trkpt><trkpt lat="37.789157462313035" lon="-4.6989824831329186"><ele>148.0</ele><time>2026-04-05T15:49:55.855Z</time></trkpt><trkpt lat="37.78908464671231" lon="-4.698797093089724"><ele>148.0</ele><time>2026-04-05T15:49:56.855Z</time></trkpt><trkpt lat="37.78900905459992" lon="-4.6986110090416275"><ele>148.0</ele><time>2026-04-05T15:49:57.855Z</time></trkpt><trkpt lat="37.788933736396594" lon="-4.698422351224663"><ele>150.0</ele><time>2026-04-05T15:49:58.855Z</time></trkpt><trkpt lat="37.788864913733065" lon="-4.698243224841517"><ele>152.0</ele><time>2026-04-05T15:49:59.855Z</time></trkpt><trkpt lat="37.78880125704333" lon="-4.698062296584158"><ele>154.0</ele><time>2026-04-05T15:50:00.855Z</time></trkpt><trkpt lat="37.78873999277875" lon="-4.697878541804172"><ele>156.0</ele><time>2026-04-05T15:50:01.855Z</time></trkpt><trkpt lat="37.78868542182794" lon="-4.697687844961258"><ele>158.0</ele><time>2026-04-05T15:50:02.855Z</time></trkpt><trkpt lat="37.78864254724882" lon="-4.697494383743519"><ele>160.0</ele><time>2026-04-05T15:50:03.855Z</time></trkpt><trkpt lat="37.78860752806811" lon="-4.697297489005456"><ele>160.0</ele><time>2026-04-05T15:50:04.855Z</time></trkpt><trkpt lat="37.78857857358885" lon="-4.697092433245228"><ele>160.0</ele><time>2026-04-05T15:50:05.855Z</time></trkpt><trkpt lat="37.78855086230137" lon="-4.69688678469979"><ele>160.0</ele><time>2026-04-05T15:50:06.855Z</time></trkpt><trkpt lat="37.788526475956395" lon="-4.696687057107391"><ele>155.0</ele><time>2026-04-05T15:50:07.855Z</time></trkpt><trkpt lat="37.78847825477498" lon="-4.696487905998689"><ele>150.0</ele><time>2026-04-05T15:50:08.855Z</time></trkpt><trkpt lat="37.7884391662928" lon="-4.696278724760779"><ele>145.0</ele><time>2026-04-05T15:50:09.855Z</time></trkpt><trkpt lat="37.78839640783511" lon="-4.696079594049274"><ele>145.0</ele><time>2026-04-05T15:50:10.855Z</time></trkpt><trkpt lat="37.788343317866044" lon="-4.695885475779453"><ele>145.0</ele><time>2026-04-05T15:50:11.855Z</time></trkpt><trkpt lat="37.78829215447893" lon="-4.695683864338976"><ele>145.0</ele><time>2026-04-05T15:50:12.855Z</time></trkpt><trkpt lat="37.78820198235413" lon="-4.6954968757222675"><ele>145.0</ele><time>2026-04-05T15:50:13.855Z</time></trkpt><trkpt lat="37.78809750846061" lon="-4.695318084990447"><ele>145.0</ele><time>2026-04-05T15:50:14.855Z</time></trkpt><trkpt lat="37.787986588855894" lon="-4.695147548177263"><ele>145.0</ele><time>2026-04-05T15:50:15.855Z</time></trkpt><trkpt lat="37.787871579823985" lon="-4.694980774080652"><ele>144.66666666666669</ele><time>2026-04-05T15:50:16.855Z</time></trkpt><trkpt lat="37.78775671329454" lon="-4.694816964100958"><ele>144.33333333333334</ele><time>2026-04-05T15:50:17.855Z</time></trkpt><trkpt lat="37.78764507808858" lon="-4.694654301729488"><ele>144.0</ele><time>2026-04-05T15:50:18.855Z</time></trkpt><trkpt lat="37.787535669043585" lon="-4.694485825760426"><ele>143.33333333333334</ele><time>2026-04-05T15:50:19.855Z</time></trkpt><trkpt lat="37.78741769503207" lon="-4.694320753590366"><ele>142.66666666666669</ele><time>2026-04-05T15:50:20.855Z</time></trkpt><trkpt lat="37.787310947604844" lon="-4.694143827091563"><ele>142.0</ele><time>2026-04-05T15:50:21.855Z</time></trkpt><trkpt lat="37.787206458804874" lon="-4.693965367523909"><ele>142.0</ele><time>2026-04-05T15:50:22.855Z</time></trkpt><trkpt lat="37.787106407967606" lon="-4.693794375411771"><ele>142.0</ele><time>2026-04-05T15:50:23.855Z</time></trkpt><trkpt lat="37.78700747035646" lon="-4.693631734119961"><ele>142.0</ele><time>2026-04-05T15:50:24.855Z</time></trkpt><trkpt lat="37.78690816729352" lon="-4.693467706993813"><ele>141.33333333333334</ele><time>2026-04-05T15:50:25.855Z</time></trkpt><trkpt lat="37.78681023283403" lon="-4.693301900348972"><ele>140.66666666666666</ele><time>2026-04-05T15:50:26.855Z</time></trkpt><trkpt lat="37.78671265498429" lon="-4.6931333146832195"><ele>140.0</ele><time>2026-04-05T15:50:27.855Z</time></trkpt><trkpt lat="37.7866149901942" lon="-4.692956289989922"><ele>140.0</ele><time>2026-04-05T15:50:28.855Z</time></trkpt><trkpt lat="37.786512569962085" lon="-4.692780370250446"><ele>140.0</ele><time>2026-04-05T15:50:29.855Z</time></trkpt><trkpt lat="37.786408863517075" lon="-4.692607617393532"><ele>140.0</ele><time>2026-04-05T15:50:30.855Z</time></trkpt><trkpt lat="37.786297792125374" lon="-4.692437054554542"><ele>138.66666666666666</ele><time>2026-04-05T15:50:31.855Z</time></trkpt><trkpt lat="37.78618042540015" lon="-4.692271294781358"><ele>137.33333333333334</ele><time>2026-04-05T15:50:32.855Z</time></trkpt><trkpt lat="37.786053727582235" lon="-4.692118545234781"><ele>136.0</ele><time>2026-04-05T15:50:33.855Z</time></trkpt><trkpt lat="37.78591596824364" lon="-4.691981270469205"><ele>137.0</ele><time>2026-04-05T15:50:34.855Z</time></trkpt><trkpt lat="37.7857678488262" lon="-4.691860788936112"><ele>138.0</ele><time>2026-04-05T15:50:35.855Z</time></trkpt><trkpt lat="37.7856133584094" lon="-4.691753972799218"><ele>139.0</ele><time>2026-04-05T15:50:36.855Z</time></trkpt><trkpt lat="37.785450956605544" lon="-4.691658712644092"><ele>139.0</ele><time>2026-04-05T15:50:37.855Z</time></trkpt><trkpt lat="37.78528197876173" lon="-4.691581440298361"><ele>139.0</ele><time>2026-04-05T15:50:38.855Z</time></trkpt><trkpt lat="37.78511417069107" lon="-4.691511905864029"><ele>139.0</ele><time>2026-04-05T15:50:39.855Z</time></trkpt><trkpt lat="37.78494826713871" lon="-4.691440684911144"><ele>139.66666666666669</ele><time>2026-04-05T15:50:40.855Z</time></trkpt><trkpt lat="37.7847768043226" lon="-4.691370662164353"><ele>140.33333333333334</ele><time>2026-04-05T15:50:41.855Z</time></trkpt><trkpt lat="37.78459786755003" lon="-4.691297755363337"><ele>141.0</ele><time>2026-04-05T15:50:42.855Z</time></trkpt><trkpt lat="37.784421231523346" lon="-4.691224177722448"><ele>140.33333333333334</ele><time>2026-04-05T15:50:43.855Z</time></trkpt><trkpt lat="37.78424108655924" lon="-4.6911513435547505"><ele>139.66666666666669</ele><time>2026-04-05T15:50:44.855Z</time></trkpt><trkpt lat="37.78405768676992" lon="-4.691077673973405"><ele>139.0</ele><time>2026-04-05T15:50:45.855Z</time></trkpt><trkpt lat="37.78387144466922" lon="-4.691002081600727"><ele>138.66666666666669</ele><time>2026-04-05T15:50:46.855Z</time></trkpt><trkpt lat="37.78368302258561" lon="-4.690926441236094"><ele>138.33333333333334</ele><time>2026-04-05T15:50:47.855Z</time></trkpt><trkpt lat="37.78349344357592" lon="-4.690850883212076"><ele>138.0</ele><time>2026-04-05T15:50:48.855Z</time></trkpt><trkpt lat="37.78330219085832" lon="-4.690774248752129"><ele>138.0</ele><time>2026-04-05T15:50:49.855Z</time></trkpt><trkpt lat="37.78311073535164" lon="-4.690700405201925"><ele>138.0</ele><time>2026-04-05T15:50:50.855Z</time></trkpt><trkpt lat="37.782920521767885" lon="-4.690628002119559"><ele>138.0</ele><time>2026-04-05T15:50:51.855Z</time></trkpt><trkpt lat="37.78273184313744" lon="-4.6905424696560605"><ele>137.33333333333334</ele><time>2026-04-05T15:50:52.855Z</time></trkpt><trkpt lat="37.78254667439011" lon="-4.690441480183055"><ele>136.66666666666669</ele><time>2026-04-05T15:50:53.855Z</time></trkpt><trkpt lat="37.78236310028096" lon="-4.69032595450105"><ele>136.0</ele><time>2026-04-05T15:50:54.852Z</time></trkpt><trkpt lat="37.78217988765862" lon="-4.690199496902154"><ele>137.33333333333334</ele><time>2026-04-05T15:50:55.852Z</time></trkpt><trkpt lat="37.78200028274282" lon="-4.690061255440491"><ele>138.66666666666666</ele><time>2026-04-05T15:50:56.852Z</time></trkpt><trkpt lat="37.78182300000248" lon="-4.689914820925871"><ele>140.0</ele><time>2026-04-05T15:50:57.852Z</time></trkpt><trkpt lat="37.78165775797227" lon="-4.689764978591742"><ele>140.0</ele><time>2026-04-05T15:50:58.852Z</time></trkpt><trkpt lat="37.781501466826626" lon="-4.689617283179494"><ele>140.0</ele><time>2026-04-05T15:50:59.852Z</time></trkpt><trkpt lat="37.78135556112313" lon="-4.68947422012153"><ele>140.0</ele><time>2026-04-05T15:51:00.852Z</time></trkpt><trkpt lat="37.78121655486211" lon="-4.689338948319009"><ele>140.0</ele><time>2026-04-05T15:51:01.851Z</time></trkpt><trkpt lat="37.78107654219435" lon="-4.68920524777332"><ele>140.0</ele><time>2026-04-05T15:51:02.851Z</time></trkpt><trkpt lat="37.78093461669283" lon="-4.689064183065764"><ele>140.0</ele><time>2026-04-05T15:51:03.852Z</time></trkpt><trkpt lat="37.780799034188576" lon="-4.6889190306416335"><ele>140.0</ele><time>2026-04-05T15:51:04.852Z</time></trkpt><trkpt lat="37.780673123181316" lon="-4.688761595547513"><ele>140.0</ele><time>2026-04-05T15:51:05.852Z</time></trkpt><trkpt lat="37.780563711039" lon="-4.688594383967457"><ele>140.0</ele><time>2026-04-05T15:51:06.852Z</time></trkpt><trkpt lat="37.78045554334087" lon="-4.688408854457633"><ele>140.0</ele><time>2026-04-05T15:51:07.852Z</time></trkpt><trkpt lat="37.78036276299703" lon="-4.688178795013117"><ele>140.0</ele><time>2026-04-05T15:51:08.852Z</time></trkpt><trkpt lat="37.78027311713828" lon="-4.6879321577601125"><ele>140.0</ele><time>2026-04-05T15:51:09.852Z</time></trkpt><trkpt lat="37.780179759764934" lon="-4.68767191083094"><ele>140.0</ele><time>2026-04-05T15:51:10.852Z</time></trkpt><trkpt lat="37.78008501226991" lon="-4.687413371468078"><ele>140.0</ele><time>2026-04-05T15:51:11.852Z</time></trkpt><trkpt lat="37.779989661153486" lon="-4.687151610388226"><ele>140.0</ele><time>2026-04-05T15:51:12.852Z</time></trkpt><trkpt lat="37.77989546576511" lon="-4.686891566188364"><ele>140.0</ele><time>2026-04-05T15:51:13.852Z</time></trkpt><trkpt lat="37.77980856931856" lon="-4.686649282056704"><ele>140.0</ele><time>2026-04-05T15:51:14.852Z</time></trkpt><trkpt lat="37.779739560766785" lon="-4.686410587548151"><ele>140.0</ele><time>2026-04-05T15:51:15.852Z</time></trkpt><trkpt lat="37.77965208414996" lon="-4.686187294764677"><ele>140.0</ele><time>2026-04-05T15:51:16.852Z</time></trkpt><trkpt lat="37.77956465298774" lon="-4.685962358732295"><ele>140.0</ele><time>2026-04-05T15:51:17.852Z</time></trkpt><trkpt lat="37.77947551232809" lon="-4.6857322443931455"><ele>140.0</ele><time>2026-04-05T15:51:18.852Z</time></trkpt><trkpt lat="37.77938381668415" lon="-4.685504314645094"><ele>140.0</ele><time>2026-04-05T15:51:19.852Z</time></trkpt><trkpt lat="37.77928915955989" lon="-4.685290582938395"><ele>140.0</ele><time>2026-04-05T15:51:20.852Z</time></trkpt><trkpt lat="37.77918208460049" lon="-4.6851023253464925"><ele>142.0</ele><time>2026-04-05T15:51:21.852Z</time></trkpt><trkpt lat="37.779057471315234" lon="-4.684926318542216"><ele>144.0</ele><time>2026-04-05T15:51:22.852Z</time></trkpt><trkpt lat="37.77892011862173" lon="-4.684768269331302"><ele>146.0</ele><time>2026-04-05T15:51:23.852Z</time></trkpt><trkpt lat="37.77877875803397" lon="-4.684610727129477"><ele>146.0</ele><time>2026-04-05T15:51:24.852Z</time></trkpt><trkpt lat="37.77863744561566" lon="-4.6844588599644315"><ele>146.0</ele><time>2026-04-05T15:51:25.852Z</time></trkpt><trkpt lat="37.77849794972901" lon="-4.68431250255514"><ele>146.0</ele><time>2026-04-05T15:51:26.852Z</time></trkpt><trkpt lat="37.7783600515305" lon="-4.6841636810493155"><ele>145.66666666666666</ele><time>2026-04-05T15:51:27.852Z</time></trkpt><trkpt lat="37.77822529057431" lon="-4.684017957677433"><ele>145.33333333333334</ele><time>2026-04-05T15:51:28.852Z</time></trkpt><trkpt lat="37.778092890172125" lon="-4.6838767960005265"><ele>145.0</ele><time>2026-04-05T15:51:29.852Z</time></trkpt><trkpt lat="37.77796731471748" lon="-4.683729336144224"><ele>144.66666666666669</ele><time>2026-04-05T15:51:30.852Z</time></trkpt><trkpt lat="37.777852398528026" lon="-4.683569147916332"><ele>144.33333333333334</ele><time>2026-04-05T15:51:31.852Z</time></trkpt><trkpt lat="37.77775208938294" lon="-4.683391333143799"><ele>144.0</ele><time>2026-04-05T15:51:32.852Z</time></trkpt><trkpt lat="37.777652601400916" lon="-4.683204224967295"><ele>144.0</ele><time>2026-04-05T15:51:33.852Z</time></trkpt><trkpt lat="37.777561531103146" lon="-4.683010914886031"><ele>144.0</ele><time>2026-04-05T15:51:34.852Z</time></trkpt><trkpt lat="37.77747275310393" lon="-4.682818312149397"><ele>144.0</ele><time>2026-04-05T15:51:35.852Z</time></trkpt><trkpt lat="37.777387203162576" lon="-4.682626719588529"><ele>145.0</ele><time>2026-04-05T15:51:36.852Z</time></trkpt><trkpt lat="37.777300588199914" lon="-4.682433875035773"><ele>146.0</ele><time>2026-04-05T15:51:37.852Z</time></trkpt><trkpt lat="37.777210132528666" lon="-4.6822421835989445"><ele>147.0</ele><time>2026-04-05T15:51:38.852Z</time></trkpt><trkpt lat="37.77711375025237" lon="-4.682053210251043"><ele>147.33333333333334</ele><time>2026-04-05T15:51:39.852Z</time></trkpt><trkpt lat="37.777005826517474" lon="-4.681869834610946"><ele>147.66666666666669</ele><time>2026-04-05T15:51:40.852Z</time></trkpt><trkpt lat="37.77688629122852" lon="-4.681695238395121"><ele>148.0</ele><time>2026-04-05T15:51:41.852Z</time></trkpt><trkpt lat="37.77675329195605" lon="-4.681530244512261"><ele>148.0</ele><time>2026-04-05T15:51:42.852Z</time></trkpt><trkpt lat="37.77660730446042" lon="-4.681373626779796"><ele>148.0</ele><time>2026-04-05T15:51:43.852Z</time></trkpt><trkpt lat="37.776448070462045" lon="-4.681230632778762"><ele>148.0</ele><time>2026-04-05T15:51:44.852Z</time></trkpt><trkpt lat="37.776277123870706" lon="-4.681097357292871"><ele>148.0</ele><time>2026-04-05T15:51:45.852Z</time></trkpt><trkpt lat="37.77608272298361" lon="-4.68097383152666"><ele>148.0</ele><time>2026-04-05T15:51:46.852Z</time></trkpt><trkpt lat="37.7758691916459" lon="-4.680834300407976"><ele>147.5</ele><time>2026-04-05T15:51:47.852Z</time></trkpt><trkpt lat="37.77561358638587" lon="-4.680730278061626"><ele>147.0</ele><time>2026-04-05T15:51:48.852Z</time></trkpt><trkpt lat="37.77533938656147" lon="-4.68060144660336"><ele>146.0</ele><time>2026-04-05T15:51:49.852Z</time></trkpt><trkpt lat="37.77504319283576" lon="-4.680460166515706"><ele>145.0</ele><time>2026-04-05T15:51:50.852Z</time></trkpt><trkpt lat="37.77472730909122" lon="-4.680309121756155"><ele>145.5</ele><time>2026-04-05T15:51:51.852Z</time></trkpt><trkpt lat="37.774393063534426" lon="-4.680150271841098"><ele>146.0</ele><time>2026-04-05T15:51:52.852Z</time></trkpt><trkpt lat="37.77404915505262" lon="-4.679989078367215"><ele>146.0</ele><time>2026-04-05T15:51:53.852Z</time></trkpt><trkpt lat="37.77372751506522" lon="-4.67981458625064"><ele>146.0</ele><time>2026-04-05T15:51:54.852Z</time></trkpt><trkpt lat="37.77341105186413" lon="-4.679674310333067"><ele>146.0</ele><time>2026-04-05T15:51:55.852Z</time></trkpt><trkpt lat="37.773114905162245" lon="-4.679537687524864"><ele>146.0</ele><time>2026-04-05T15:51:56.852Z</time></trkpt><trkpt lat="37.77283250071733" lon="-4.679406619663096"><ele>146.5</ele><time>2026-04-05T15:51:57.852Z</time></trkpt><trkpt lat="37.77256407189965" lon="-4.679273528400284"><ele>147.0</ele><time>2026-04-05T15:51:58.852Z</time></trkpt><trkpt lat="37.77231269976739" lon="-4.679137853966049"><ele>147.0</ele><time>2026-04-05T15:51:59.852Z</time></trkpt><trkpt lat="37.77207705102382" lon="-4.6789857806882695"><ele>147.0</ele><time>2026-04-05T15:52:00.852Z</time></trkpt><trkpt lat="37.771853685800636" lon="-4.678828999489825"><ele>147.5</ele><time>2026-04-05T15:52:01.852Z</time></trkpt><trkpt lat="37.771634402324324" lon="-4.678692995642936"><ele>148.0</ele><time>2026-04-05T15:52:02.852Z</time></trkpt><trkpt lat="37.77142570479413" lon="-4.678546173360117"><ele>149.0</ele><time>2026-04-05T15:52:03.852Z</time></trkpt><trkpt lat="37.77122717205467" lon="-4.678391167274902"><ele>150.0</ele><time>2026-04-05T15:52:04.852Z</time></trkpt><trkpt lat="37.77103229924885" lon="-4.6782382918276575"><ele>150.5</ele><time>2026-04-05T15:52:05.852Z</time></trkpt><trkpt lat="37.770839637787816" lon="-4.678084167625728"><ele>151.0</ele><time>2026-04-05T15:52:06.852Z</time></trkpt><trkpt lat="37.770639641418626" lon="-4.677928441753292"><ele>151.0</ele><time>2026-04-05T15:52:07.852Z</time></trkpt><trkpt lat="37.77045014449049" lon="-4.677781000378066"><ele>151.0</ele><time>2026-04-05T15:52:08.852Z</time></trkpt><trkpt lat="37.770274009674985" lon="-4.677641501111338"><ele>151.0</ele><time>2026-04-05T15:52:09.852Z</time></trkpt><trkpt lat="37.77009667545801" lon="-4.677503314699981"><ele>152.0</ele><time>2026-04-05T15:52:10.852Z</time></trkpt><trkpt lat="37.7699170240729" lon="-4.6773619907549095"><ele>153.0</ele><time>2026-04-05T15:52:11.852Z</time></trkpt><trkpt lat="37.769734291279576" lon="-4.677219320002048"><ele>154.0</ele><time>2026-04-05T15:52:12.852Z</time></trkpt><trkpt lat="37.76954207580952" lon="-4.677070475904453"><ele>154.0</ele><time>2026-04-05T15:52:13.852Z</time></trkpt><trkpt lat="37.76934993165481" lon="-4.67691549578447"><ele>154.0</ele><time>2026-04-05T15:52:14.852Z</time></trkpt><trkpt lat="37.76917174012205" lon="-4.67676082452994"><ele>154.0</ele><time>2026-04-05T15:52:15.852Z</time></trkpt><trkpt lat="37.76899803174878" lon="-4.676596224829677"><ele>154.0</ele><time>2026-04-05T15:52:16.852Z</time></trkpt><trkpt lat="37.76882590962451" lon="-4.676412605591373"><ele>154.0</ele><time>2026-04-05T15:52:17.852Z</time></trkpt><trkpt lat="37.76864544807379" lon="-4.67620266681458"><ele>153.5</ele><time>2026-04-05T15:52:18.852Z</time></trkpt><trkpt lat="37.768449877896124" lon="-4.67596192981941"><ele>153.0</ele><time>2026-04-05T15:52:19.852Z</time></trkpt><trkpt lat="37.76824046377302" lon="-4.675698424393423"><ele>153.0</ele><time>2026-04-05T15:52:20.852Z</time></trkpt><trkpt lat="37.76802458169395" lon="-4.6754267804464265"><ele>153.0</ele><time>2026-04-05T15:52:21.852Z</time></trkpt><trkpt lat="37.767811934987186" lon="-4.675140853620246"><ele>151.0</ele><time>2026-04-05T15:52:22.852Z</time></trkpt><trkpt lat="37.767588370974835" lon="-4.674868745000845"><ele>149.0</ele><time>2026-04-05T15:52:23.852Z</time></trkpt><trkpt lat="37.76736022543674" lon="-4.674586600696779"><ele>150.0</ele><time>2026-04-05T15:52:24.852Z</time></trkpt><trkpt lat="37.76713142832185" lon="-4.67429360324943"><ele>151.0</ele><time>2026-04-05T15:52:25.852Z</time></trkpt><trkpt lat="37.7668891451461" lon="-4.6739962157293995"><ele>149.5</ele><time>2026-04-05T15:52:26.852Z</time></trkpt><trkpt lat="37.76665346099915" lon="-4.673709130990904"><ele>148.0</ele><time>2026-04-05T15:52:27.852Z</time></trkpt><trkpt lat="37.76643157330641" lon="-4.673424709071634"><ele>148.0</ele><time>2026-04-05T15:52:28.852Z</time></trkpt><trkpt lat="37.76621318411676" lon="-4.673143382200728"><ele>148.0</ele><time>2026-04-05T15:52:29.852Z</time></trkpt><trkpt lat="37.76599339923103" lon="-4.6728719932420155"><ele>149.0</ele><time>2026-04-05T15:52:30.852Z</time></trkpt><trkpt lat="37.76577739088699" lon="-4.672601798160311"><ele>150.0</ele><time>2026-04-05T15:52:31.852Z</time></trkpt><trkpt lat="37.7655618361663" lon="-4.6723363189135005"><ele>150.0</ele><time>2026-04-05T15:52:32.852Z</time></trkpt><trkpt lat="37.76535421474675" lon="-4.672077258157226"><ele>150.0</ele><time>2026-04-05T15:52:33.852Z</time></trkpt><trkpt lat="37.765151893483065" lon="-4.671823814344925"><ele>151.5</ele><time>2026-04-05T15:52:34.852Z</time></trkpt><trkpt lat="37.76495189438132" lon="-4.671574158734983"><ele>153.0</ele><time>2026-04-05T15:52:35.852Z</time></trkpt><trkpt lat="37.764753555680926" lon="-4.671330722662882"><ele>152.5</ele><time>2026-04-05T15:52:36.852Z</time></trkpt><trkpt lat="37.76455837506396" lon="-4.671096925267915"><ele>152.0</ele><time>2026-04-05T15:52:37.852Z</time></trkpt><trkpt lat="37.764353657900216" lon="-4.670874744618027"><ele>152.0</ele><time>2026-04-05T15:52:38.852Z</time></trkpt><trkpt lat="37.764134350034865" lon="-4.6706696259321046"><ele>152.0</ele><time>2026-04-05T15:52:39.852Z</time></trkpt><trkpt lat="37.76389829704641" lon="-4.670490738891589"><ele>152.0</ele><time>2026-04-05T15:52:40.852Z</time></trkpt><trkpt lat="37.76364633365276" lon="-4.670322696610462"><ele>152.0</ele><time>2026-04-05T15:52:41.852Z</time></trkpt><trkpt lat="37.76339138077885" lon="-4.6701497182061065"><ele>152.5</ele><time>2026-04-05T15:52:42.852Z</time></trkpt><trkpt lat="37.763136595887595" lon="-4.669975649449835"><ele>153.0</ele><time>2026-04-05T15:52:43.852Z</time></trkpt><trkpt lat="37.76287657457881" lon="-4.669800759057336"><ele>151.5</ele><time>2026-04-05T15:52:44.852Z</time></trkpt><trkpt lat="37.76261833410022" lon="-4.669628692783982"><ele>150.0</ele><time>2026-04-05T15:52:45.852Z</time></trkpt><trkpt lat="37.76236235837106" lon="-4.669457343956518"><ele>151.5</ele><time>2026-04-05T15:52:46.852Z</time></trkpt><trkpt lat="37.76210741162681" lon="-4.66928731794162"><ele>153.0</ele><time>2026-04-05T15:52:47.852Z</time></trkpt><trkpt lat="37.76185182272967" lon="-4.669115529428505"><ele>153.0</ele><time>2026-04-05T15:52:48.852Z</time></trkpt><trkpt lat="37.76160246505823" lon="-4.668946808671478"><ele>153.0</ele><time>2026-04-05T15:52:49.852Z</time></trkpt><trkpt lat="37.7613683005052" lon="-4.6687849848673855"><ele>153.0</ele><time>2026-04-05T15:52:50.852Z</time></trkpt><trkpt lat="37.76114364543564" lon="-4.668619863405961"><ele>153.0</ele><time>2026-04-05T15:52:51.852Z</time></trkpt><trkpt lat="37.76092846060495" lon="-4.668440632651601"><ele>154.5</ele><time>2026-04-05T15:52:52.852Z</time></trkpt><trkpt lat="37.760731065843224" lon="-4.668235385573006"><ele>156.0</ele><time>2026-04-05T15:52:53.852Z</time></trkpt><trkpt lat="37.76053857697433" lon="-4.668011340507265"><ele>159.0</ele><time>2026-04-05T15:52:54.852Z</time></trkpt><trkpt lat="37.76037523014626" lon="-4.667738355523739"><ele>162.0</ele><time>2026-04-05T15:52:55.852Z</time></trkpt><trkpt lat="37.76023916426659" lon="-4.66743118758971"><ele>159.0</ele><time>2026-04-05T15:52:56.852Z</time></trkpt><trkpt lat="37.76013826618517" lon="-4.667092116006926"><ele>156.0</ele><time>2026-04-05T15:52:57.852Z</time></trkpt><trkpt lat="37.76001584902183" lon="-4.666751206055536"><ele>156.0</ele><time>2026-04-05T15:52:58.852Z</time></trkpt><trkpt lat="37.75990877631973" lon="-4.6663924641653125"><ele>156.0</ele><time>2026-04-05T15:52:59.852Z</time></trkpt><trkpt lat="37.75981074682179" lon="-4.666054697674029"><ele>157.0</ele><time>2026-04-05T15:53:00.848Z</time></trkpt><trkpt lat="37.75972127611171" lon="-4.665721764930151"><ele>158.0</ele><time>2026-04-05T15:53:01.848Z</time></trkpt><trkpt lat="37.75965129615413" lon="-4.6653865093447875"><ele>159.5</ele><time>2026-04-05T15:53:02.848Z</time></trkpt><trkpt lat="37.759615174274536" lon="-4.66503226592851"><ele>161.0</ele><time>2026-04-05T15:53:03.848Z</time></trkpt><trkpt lat="37.75961437190792" lon="-4.664674572033488"><ele>163.0</ele><time>2026-04-05T15:53:04.848Z</time></trkpt><trkpt lat="37.759641827037704" lon="-4.664318101904278"><ele>165.0</ele><time>2026-04-05T15:53:05.848Z</time></trkpt><trkpt lat="37.759682164720324" lon="-4.663961732382075"><ele>166.5</ele><time>2026-04-05T15:53:06.849Z</time></trkpt><trkpt lat="37.75972368854817" lon="-4.663600312263969"><ele>168.0</ele><time>2026-04-05T15:53:07.848Z</time></trkpt><trkpt lat="37.759763840583474" lon="-4.66324934499456"><ele>168.0</ele><time>2026-04-05T15:53:08.848Z</time></trkpt><trkpt lat="37.759799791978345" lon="-4.662916532364082"><ele>168.0</ele><time>2026-04-05T15:53:09.849Z</time></trkpt><trkpt lat="37.759834802874146" lon="-4.662592426276715"><ele>170.0</ele><time>2026-04-05T15:53:10.848Z</time></trkpt><trkpt lat="37.75986769236709" lon="-4.6622763398542695"><ele>172.0</ele><time>2026-04-05T15:53:11.848Z</time></trkpt><trkpt lat="37.75989230891272" lon="-4.661970334697204"><ele>173.0</ele><time>2026-04-05T15:53:12.848Z</time></trkpt><trkpt lat="37.75989990202611" lon="-4.66166807259282"><ele>174.0</ele><time>2026-04-05T15:53:13.848Z</time></trkpt><trkpt lat="37.759882426473574" lon="-4.661387846567531"><ele>174.0</ele><time>2026-04-05T15:53:14.848Z</time></trkpt><trkpt lat="37.75984973297438" lon="-4.661122423486259"><ele>174.0</ele><time>2026-04-05T15:53:15.848Z</time></trkpt><trkpt lat="37.75981431417751" lon="-4.660869545682262"><ele>174.0</ele><time>2026-04-05T15:53:16.848Z</time></trkpt><trkpt lat="37.75978012537584" lon="-4.660635340528665"><ele>174.33333333333334</ele><time>2026-04-05T15:53:17.848Z</time></trkpt><trkpt lat="37.759745226062684" lon="-4.660401332613049"><ele>174.66666666666669</ele><time>2026-04-05T15:53:18.848Z</time></trkpt><trkpt lat="37.75971081117484" lon="-4.66017057309034"><ele>175.0</ele><time>2026-04-05T15:53:19.848Z</time></trkpt><trkpt lat="37.759677628811026" lon="-4.659941439776121"><ele>175.0</ele><time>2026-04-05T15:53:20.848Z</time></trkpt><trkpt lat="37.75964500371968" lon="-4.659714470991034"><ele>175.0</ele><time>2026-04-05T15:53:21.848Z</time></trkpt><trkpt lat="37.75961288108936" lon="-4.659490997737708"><ele>175.0</ele><time>2026-04-05T15:53:22.848Z</time></trkpt><trkpt lat="37.759580300487094" lon="-4.659264338396735"><ele>175.0</ele><time>2026-04-05T15:53:23.848Z</time></trkpt><trkpt lat="37.75954528165115" lon="-4.659036611492429"><ele>175.0</ele><time>2026-04-05T15:53:24.848Z</time></trkpt><trkpt lat="37.759500022972844" lon="-4.658816121011396"><ele>175.0</ele><time>2026-04-05T15:53:25.848Z</time></trkpt><trkpt lat="37.75944235590435" lon="-4.658594974016787"><ele>175.33333333333334</ele><time>2026-04-05T15:53:26.848Z</time></trkpt><trkpt lat="37.75936782056369" lon="-4.658376385272288"><ele>175.66666666666666</ele><time>2026-04-05T15:53:27.848Z</time></trkpt><trkpt lat="37.75927228746069" lon="-4.65815838203714"><ele>176.0</ele><time>2026-04-05T15:53:28.848Z</time></trkpt><trkpt lat="37.759166385730204" lon="-4.6579482584137955"><ele>178.33333333333331</ele><time>2026-04-05T15:53:29.848Z</time></trkpt><trkpt lat="37.75905859949693" lon="-4.657736372067943"><ele>180.66666666666666</ele><time>2026-04-05T15:53:30.848Z</time></trkpt><trkpt lat="37.75891883563974" lon="-4.657537722413226"><ele>183.0</ele><time>2026-04-05T15:53:31.848Z</time></trkpt><trkpt lat="37.75873943368497" lon="-4.657363691615556"><ele>183.0</ele><time>2026-04-05T15:53:32.848Z</time></trkpt><trkpt lat="37.75853901027877" lon="-4.65718320624908"><ele>183.0</ele><time>2026-04-05T15:53:33.848Z</time></trkpt><trkpt lat="37.75831517264386" lon="-4.656991330820519"><ele>182.0</ele><time>2026-04-05T15:53:34.848Z</time></trkpt><trkpt lat="37.75807090823947" lon="-4.656786418910394"><ele>181.0</ele><time>2026-04-05T15:53:35.848Z</time></trkpt><trkpt lat="37.75783027422156" lon="-4.656561783313026"><ele>180.0</ele><time>2026-04-05T15:53:36.848Z</time></trkpt><trkpt lat="37.757579010735284" lon="-4.656359080511987"><ele>179.0</ele><time>2026-04-05T15:53:37.848Z</time></trkpt><trkpt lat="37.75732790393345" lon="-4.656148687044691"><ele>180.0</ele><time>2026-04-05T15:53:38.848Z</time></trkpt><trkpt lat="37.7570807551842" lon="-4.655938397098478"><ele>181.0</ele><time>2026-04-05T15:53:39.848Z</time></trkpt><trkpt lat="37.75684389765757" lon="-4.655738167658385"><ele>178.0</ele><time>2026-04-05T15:53:40.848Z</time></trkpt><trkpt lat="37.756613620146034" lon="-4.655540678379344"><ele>175.0</ele><time>2026-04-05T15:53:41.848Z</time></trkpt><trkpt lat="37.75638313570867" lon="-4.655351099931556"><ele>175.5</ele><time>2026-04-05T15:53:42.848Z</time></trkpt><trkpt lat="37.75614897731235" lon="-4.655182932948706"><ele>176.0</ele><time>2026-04-05T15:53:43.848Z</time></trkpt><trkpt lat="37.75590452525488" lon="-4.655047530915951"><ele>176.0</ele><time>2026-04-05T15:53:44.848Z</time></trkpt><trkpt lat="37.75564427848659" lon="-4.6549521343179805"><ele>176.0</ele><time>2026-04-05T15:53:45.848Z</time></trkpt><trkpt lat="37.7553765569432" lon="-4.654896226281623"><ele>178.0</ele><time>2026-04-05T15:53:46.848Z</time></trkpt><trkpt lat="37.75510062932428" lon="-4.654879119328882"><ele>180.0</ele><time>2026-04-05T15:53:47.848Z</time></trkpt><trkpt lat="37.75482884351772" lon="-4.65490792902766"><ele>180.0</ele><time>2026-04-05T15:53:48.848Z</time></trkpt><trkpt lat="37.754562293042376" lon="-4.654978941489662"><ele>180.0</ele><time>2026-04-05T15:53:49.848Z</time></trkpt><trkpt lat="37.75429666637468" lon="-4.655093347841895"><ele>180.5</ele><time>2026-04-05T15:53:50.848Z</time></trkpt><trkpt lat="37.754030136965525" lon="-4.655241657919099"><ele>181.0</ele><time>2026-04-05T15:53:51.848Z</time></trkpt><trkpt lat="37.75376114071787" lon="-4.655408735463225"><ele>179.5</ele><time>2026-04-05T15:53:52.848Z</time></trkpt><trkpt lat="37.75348886655972" lon="-4.655571528246884"><ele>178.0</ele><time>2026-04-05T15:53:53.848Z</time></trkpt><trkpt lat="37.75321123938947" lon="-4.655731584374106"><ele>178.0</ele><time>2026-04-05T15:53:54.848Z</time></trkpt><trkpt lat="37.75293248286664" lon="-4.655896417946414"><ele>178.0</ele><time>2026-04-05T15:53:55.848Z</time></trkpt><trkpt lat="37.75265526988507" lon="-4.656061665278267"><ele>176.5</ele><time>2026-04-05T15:53:56.848Z</time></trkpt><trkpt lat="37.752383461303566" lon="-4.656225900790124"><ele>175.0</ele><time>2026-04-05T15:53:57.848Z</time></trkpt><trkpt lat="37.75212130803871" lon="-4.656386352970488"><ele>175.5</ele><time>2026-04-05T15:53:58.848Z</time></trkpt><trkpt lat="37.75185779270875" lon="-4.656546103673121"><ele>176.0</ele><time>2026-04-05T15:53:59.848Z</time></trkpt><trkpt lat="37.75159514758499" lon="-4.656702978704351"><ele>176.0</ele><time>2026-04-05T15:54:00.848Z</time></trkpt><trkpt lat="37.75133272199582" lon="-4.656859365769708"><ele>176.0</ele><time>2026-04-05T15:54:01.848Z</time></trkpt><trkpt lat="37.75108759936673" lon="-4.657000699080987"><ele>175.5</ele><time>2026-04-05T15:54:02.848Z</time></trkpt><trkpt lat="37.75085632527237" lon="-4.657135164867714"><ele>175.0</ele><time>2026-04-05T15:54:03.848Z</time></trkpt><trkpt lat="37.750629697975434" lon="-4.6572586157865095"><ele>175.0</ele><time>2026-04-05T15:54:04.848Z</time></trkpt><trkpt lat="37.75040398808303" lon="-4.6573618306992115"><ele>175.0</ele><time>2026-04-05T15:54:05.848Z</time></trkpt><trkpt lat="37.750173749165256" lon="-4.6574388664270945"><ele>174.5</ele><time>2026-04-05T15:54:06.848Z</time></trkpt><trkpt lat="37.74993408696695" lon="-4.657481259013205"><ele>174.0</ele><time>2026-04-05T15:54:07.848Z</time></trkpt><trkpt lat="37.749686906773356" lon="-4.657494654567763"><ele>174.0</ele><time>2026-04-05T15:54:08.848Z</time></trkpt><trkpt lat="37.749440108679316" lon="-4.657480075636772"><ele>174.0</ele><time>2026-04-05T15:54:09.848Z</time></trkpt><trkpt lat="37.749194442021555" lon="-4.6574292382420275"><ele>174.0</ele><time>2026-04-05T15:54:10.848Z</time></trkpt><trkpt lat="37.74895097805109" lon="-4.657331929024814"><ele>174.0</ele><time>2026-04-05T15:54:11.848Z</time></trkpt><trkpt lat="37.74871345954272" lon="-4.6571972476431664"><ele>174.5</ele><time>2026-04-05T15:54:12.848Z</time></trkpt><trkpt lat="37.74848239464707" lon="-4.657028237976364"><ele>175.0</ele><time>2026-04-05T15:54:13.848Z</time></trkpt><trkpt lat="37.748258028569275" lon="-4.656827987545219"><ele>175.0</ele><time>2026-04-05T15:54:14.848Z</time></trkpt><trkpt lat="37.74803961351727" lon="-4.6566115100489425"><ele>175.0</ele><time>2026-04-05T15:54:15.848Z</time></trkpt><trkpt lat="37.74782531526605" lon="-4.656365921174867"><ele>175.0</ele><time>2026-04-05T15:54:16.848Z</time></trkpt><trkpt lat="37.74760583122675" lon="-4.656120726873749"><ele>175.0</ele><time>2026-04-05T15:54:17.848Z</time></trkpt><trkpt lat="37.74738942013673" lon="-4.655875485366491"><ele>175.0</ele><time>2026-04-05T15:54:18.848Z</time></trkpt><trkpt lat="37.74717031145783" lon="-4.655626812544705"><ele>175.0</ele><time>2026-04-05T15:54:19.848Z</time></trkpt><trkpt lat="37.74695112330926" lon="-4.6553796812843355"><ele>174.0</ele><time>2026-04-05T15:54:20.848Z</time></trkpt><trkpt lat="37.746734553746386" lon="-4.655136237019704"><ele>173.0</ele><time>2026-04-05T15:54:21.848Z</time></trkpt><trkpt lat="37.746509479271424" lon="-4.6548953604421355"><ele>173.0</ele><time>2026-04-05T15:54:22.848Z</time></trkpt><trkpt lat="37.74627264570828" lon="-4.6546725404202824"><ele>173.0</ele><time>2026-04-05T15:54:23.848Z</time></trkpt><trkpt lat="37.74601963346935" lon="-4.654470818170524"><ele>168.5</ele><time>2026-04-05T15:54:24.848Z</time></trkpt><trkpt lat="37.74575628971319" lon="-4.65428966482923"><ele>164.0</ele><time>2026-04-05T15:54:25.848Z</time></trkpt><trkpt lat="37.74548972293439" lon="-4.654119941196131"><ele>164.0</ele><time>2026-04-05T15:54:26.848Z</time></trkpt><trkpt lat="37.7452238001023" lon="-4.653952318256648"><ele>164.0</ele><time>2026-04-05T15:54:27.848Z</time></trkpt><trkpt lat="37.74495568662334" lon="-4.653788858158341"><ele>165.0</ele><time>2026-04-05T15:54:28.848Z</time></trkpt><trkpt lat="37.744686398327815" lon="-4.653628986127608"><ele>166.0</ele><time>2026-04-05T15:54:29.848Z</time></trkpt><trkpt lat="37.74441787147995" lon="-4.653470376490414"><ele>169.5</ele><time>2026-04-05T15:54:30.848Z</time></trkpt><trkpt lat="37.744151583211014" lon="-4.6533092113238075"><ele>173.0</ele><time>2026-04-05T15:54:31.848Z</time></trkpt><trkpt lat="37.743884709924" lon="-4.653144533925177"><ele>173.0</ele><time>2026-04-05T15:54:32.848Z</time></trkpt><trkpt lat="37.74361907059351" lon="-4.6529793605983265"><ele>173.0</ele><time>2026-04-05T15:54:33.848Z</time></trkpt><trkpt lat="37.74335258034524" lon="-4.652819660556638"><ele>175.0</ele><time>2026-04-05T15:54:34.848Z</time></trkpt><trkpt lat="37.74308662176013" lon="-4.652659619185229"><ele>177.0</ele><time>2026-04-05T15:54:35.848Z</time></trkpt><trkpt lat="37.74281996877511" lon="-4.652499729652434"><ele>175.0</ele><time>2026-04-05T15:54:36.848Z</time></trkpt><trkpt lat="37.74254842975447" lon="-4.6523351897093255"><ele>173.0</ele><time>2026-04-05T15:54:37.848Z</time></trkpt><trkpt lat="37.742279873288226" lon="-4.652172913665837"><ele>173.0</ele><time>2026-04-05T15:54:38.848Z</time></trkpt><trkpt lat="37.74201197236632" lon="-4.652008632753068"><ele>173.0</ele><time>2026-04-05T15:54:39.848Z</time></trkpt><trkpt lat="37.7417478757855" lon="-4.651844741747016"><ele>174.5</ele><time>2026-04-05T15:54:40.848Z</time></trkpt><trkpt lat="37.7414829098172" lon="-4.651685744701431"><ele>176.0</ele><time>2026-04-05T15:54:41.848Z</time></trkpt><trkpt lat="37.74122162029236" lon="-4.651525471910642"><ele>176.5</ele><time>2026-04-05T15:54:42.848Z</time></trkpt><trkpt lat="37.740961716731675" lon="-4.651371301875146"><ele>177.0</ele><time>2026-04-05T15:54:43.848Z</time></trkpt><trkpt lat="37.74070585175802" lon="-4.651219936030723"><ele>179.5</ele><time>2026-04-05T15:54:44.848Z</time></trkpt><trkpt lat="37.74045466137011" lon="-4.6510680261187085"><ele>182.0</ele><time>2026-04-05T15:54:45.848Z</time></trkpt><trkpt lat="37.740206612253345" lon="-4.65091244474246"><ele>182.0</ele><time>2026-04-05T15:54:46.848Z</time></trkpt><trkpt lat="37.73995602051437" lon="-4.650764983165302"><ele>182.0</ele><time>2026-04-05T15:54:47.848Z</time></trkpt><trkpt lat="37.739720830837726" lon="-4.65058266635708"><ele>182.0</ele><time>2026-04-05T15:54:48.848Z</time></trkpt><trkpt lat="37.73950434274773" lon="-4.650360285044351"><ele>182.0</ele><time>2026-04-05T15:54:49.848Z</time></trkpt><trkpt lat="37.73930598530082" lon="-4.650107454869332"><ele>182.0</ele><time>2026-04-05T15:54:50.848Z</time></trkpt><trkpt lat="37.739126094814246" lon="-4.649819020672215"><ele>182.0</ele><time>2026-04-05T15:54:51.848Z</time></trkpt><trkpt lat="37.73895153624315" lon="-4.649514600660926"><ele>183.0</ele><time>2026-04-05T15:54:52.848Z</time></trkpt><trkpt lat="37.738776025382606" lon="-4.649201874793843"><ele>184.0</ele><time>2026-04-05T15:54:53.848Z</time></trkpt><trkpt lat="37.73860000047929" lon="-4.648885800028258"><ele>184.0</ele><time>2026-04-05T15:54:54.848Z</time></trkpt><trkpt lat="37.73842438661386" lon="-4.648570463560613"><ele>184.0</ele><time>2026-04-05T15:54:55.848Z</time></trkpt><trkpt lat="37.73825041962682" lon="-4.648259064751859"><ele>184.0</ele><time>2026-04-05T15:54:56.848Z</time></trkpt><trkpt lat="37.73807696007906" lon="-4.6479490878139895"><ele>184.0</ele><time>2026-04-05T15:54:57.848Z</time></trkpt><trkpt lat="37.73790561236712" lon="-4.647642885263717"><ele>184.5</ele><time>2026-04-05T15:54:58.848Z</time></trkpt><trkpt lat="37.737735794308676" lon="-4.647339416247152"><ele>185.0</ele><time>2026-04-05T15:54:59.848Z</time></trkpt><trkpt lat="37.73756642904437" lon="-4.647036678050307"><ele>184.5</ele><time>2026-04-05T15:55:00.848Z</time></trkpt><trkpt lat="37.737396530321824" lon="-4.646732425649669"><ele>184.0</ele><time>2026-04-05T15:55:01.848Z</time></trkpt><trkpt lat="37.73722674987782" lon="-4.64642819218015"><ele>185.5</ele><time>2026-04-05T15:55:02.848Z</time></trkpt><trkpt lat="37.73705632655064" lon="-4.646122758397387"><ele>187.0</ele><time>2026-04-05T15:55:03.848Z</time></trkpt><trkpt lat="37.73688555398163" lon="-4.645816594596683"><ele>185.5</ele><time>2026-04-05T15:55:04.848Z</time></trkpt><trkpt lat="37.736712723341" lon="-4.645506741954865"><ele>184.0</ele><time>2026-04-05T15:55:05.848Z</time></trkpt><trkpt lat="37.73654062480661" lon="-4.645198201871253"><ele>184.0</ele><time>2026-04-05T15:55:06.845Z</time></trkpt><trkpt lat="37.73638057192276" lon="-4.644875230382492"><ele>184.0</ele><time>2026-04-05T15:55:07.845Z</time></trkpt><trkpt lat="37.7362046360928" lon="-4.644564759371988"><ele>184.0</ele><time>2026-04-05T15:55:08.845Z</time></trkpt><trkpt lat="37.73603164699694" lon="-4.644255938146095"><ele>184.0</ele><time>2026-04-05T15:55:09.844Z</time></trkpt><trkpt lat="37.735861348382294" lon="-4.6439532241399615"><ele>184.0</ele><time>2026-04-05T15:55:10.845Z</time></trkpt><trkpt lat="37.735695974938935" lon="-4.6436573455037635"><ele>184.0</ele><time>2026-04-05T15:55:11.845Z</time></trkpt><trkpt lat="37.73553691765232" lon="-4.643370131148991"><ele>185.5</ele><time>2026-04-05T15:55:12.844Z</time></trkpt><trkpt lat="37.735367450997465" lon="-4.643091389407005"><ele>187.0</ele><time>2026-04-05T15:55:13.844Z</time></trkpt><trkpt lat="37.735225600537376" lon="-4.642781232499243"><ele>185.5</ele><time>2026-04-05T15:55:14.844Z</time></trkpt><trkpt lat="37.73512794094392" lon="-4.642437410299196"><ele>184.0</ele><time>2026-04-05T15:55:15.844Z</time></trkpt><trkpt lat="37.73505236459127" lon="-4.642075179501473"><ele>183.5</ele><time>2026-04-05T15:55:16.844Z</time></trkpt><trkpt lat="37.73497649001976" lon="-4.641706352939754"><ele>183.0</ele><time>2026-04-05T15:55:17.844Z</time></trkpt><trkpt lat="37.734900751126816" lon="-4.641337776925263"><ele>184.5</ele><time>2026-04-05T15:55:18.845Z</time></trkpt><trkpt lat="37.73482750103444" lon="-4.6409724556017276"><ele>186.0</ele><time>2026-04-05T15:55:19.844Z</time></trkpt><trkpt lat="37.73475411206036" lon="-4.640606441236343"><ele>187.0</ele><time>2026-04-05T15:55:20.844Z</time></trkpt><trkpt lat="37.734684155905086" lon="-4.640257547438"><ele>188.0</ele><time>2026-04-05T15:55:21.844Z</time></trkpt><trkpt lat="37.73461832109624" lon="-4.639929227536988"><ele>188.0</ele><time>2026-04-05T15:55:22.844Z</time></trkpt><trkpt lat="37.73455623365747" lon="-4.639623251381791"><ele>188.0</ele><time>2026-04-05T15:55:23.844Z</time></trkpt><trkpt lat="37.73449825600836" lon="-4.639331007250791"><ele>188.33333333333331</ele><time>2026-04-05T15:55:24.844Z</time></trkpt><trkpt lat="37.73444418409062" lon="-4.639062265755346"><ele>188.66666666666666</ele><time>2026-04-05T15:55:25.844Z</time></trkpt><trkpt lat="37.734379494528255" lon="-4.6388140653919345"><ele>189.0</ele><time>2026-04-05T15:55:26.844Z</time></trkpt><trkpt lat="37.734311873248814" lon="-4.638584235151867"><ele>189.0</ele><time>2026-04-05T15:55:27.844Z</time></trkpt><trkpt lat="37.7342085327823" lon="-4.638393802451191"><ele>189.0</ele><time>2026-04-05T15:55:28.844Z</time></trkpt><trkpt lat="37.73408023985958" lon="-4.638243203944376"><ele>189.0</ele><time>2026-04-05T15:55:29.844Z</time></trkpt><trkpt lat="37.733959970937256" lon="-4.638092048386319"><ele>189.0</ele><time>2026-04-05T15:55:30.844Z</time></trkpt><trkpt lat="37.733848344945585" lon="-4.637931073893523"><ele>189.0</ele><time>2026-04-05T15:55:31.844Z</time></trkpt><trkpt lat="37.73371521366694" lon="-4.637802049766464"><ele>189.0</ele><time>2026-04-05T15:55:32.844Z</time></trkpt><trkpt lat="37.73359203439977" lon="-4.637657297080337"><ele>188.33333333333334</ele><time>2026-04-05T15:55:33.844Z</time></trkpt><trkpt lat="37.73347214297744" lon="-4.637515575992265"><ele>187.66666666666669</ele><time>2026-04-05T15:55:34.844Z</time></trkpt><trkpt lat="37.733353992141616" lon="-4.637375912329433"><ele>187.0</ele><time>2026-04-05T15:55:35.844Z</time></trkpt><trkpt lat="37.7332370779819" lon="-4.637236242831421"><ele>187.0</ele><time>2026-04-05T15:55:36.844Z</time></trkpt><trkpt lat="37.73312377751818" lon="-4.637100443343265"><ele>187.0</ele><time>2026-04-05T15:55:37.844Z</time></trkpt><trkpt lat="37.73301258734486" lon="-4.636967172734938"><ele>187.0</ele><time>2026-04-05T15:55:38.844Z</time></trkpt><trkpt lat="37.7329026279823" lon="-4.636837396780565"><ele>187.25</ele><time>2026-04-05T15:55:39.844Z</time></trkpt><trkpt lat="37.73280526092792" lon="-4.636693403340599"><ele>187.5</ele><time>2026-04-05T15:55:40.844Z</time></trkpt><trkpt lat="37.73269783941387" lon="-4.636566655334833"><ele>187.75</ele><time>2026-04-05T15:55:41.844Z</time></trkpt><trkpt lat="37.73259091411344" lon="-4.636437569148087"><ele>188.0</ele><time>2026-04-05T15:55:42.844Z</time></trkpt><trkpt lat="37.732482800484135" lon="-4.636307232531977"><ele>188.0</ele><time>2026-04-05T15:55:43.844Z</time></trkpt><trkpt lat="37.732373359419114" lon="-4.6361749425129375"><ele>188.0</ele><time>2026-04-05T15:55:44.844Z</time></trkpt><trkpt lat="37.73224733465967" lon="-4.636056289177519"><ele>188.0</ele><time>2026-04-05T15:55:45.844Z</time></trkpt><trkpt lat="37.73212891514319" lon="-4.635915557794366"><ele>188.0</ele><time>2026-04-05T15:55:46.844Z</time></trkpt><trkpt lat="37.73200135120921" lon="-4.635768432147135"><ele>188.0</ele><time>2026-04-05T15:55:47.844Z</time></trkpt><trkpt lat="37.731861901768006" lon="-4.635617884699085"><ele>188.0</ele><time>2026-04-05T15:55:48.844Z</time></trkpt><trkpt lat="37.731712287734815" lon="-4.635458634463399"><ele>187.33333333333331</ele><time>2026-04-05T15:55:49.844Z</time></trkpt><trkpt lat="37.731529468357394" lon="-4.635330430139287"><ele>186.66666666666666</ele><time>2026-04-05T15:55:50.844Z</time></trkpt><trkpt lat="37.7313230655895" lon="-4.635222942738746"><ele>186.0</ele><time>2026-04-05T15:55:51.844Z</time></trkpt><trkpt lat="37.731099442219595" lon="-4.6351508674139374"><ele>181.0</ele><time>2026-04-05T15:55:52.844Z</time></trkpt><trkpt lat="37.73086604327325" lon="-4.6351085144183575"><ele>176.0</ele><time>2026-04-05T15:55:53.844Z</time></trkpt><trkpt lat="37.73063074828098" lon="-4.635106231424079"><ele>176.0</ele><time>2026-04-05T15:55:54.844Z</time></trkpt><trkpt lat="37.730394599612666" lon="-4.635143023189252"><ele>176.0</ele><time>2026-04-05T15:55:55.844Z</time></trkpt><trkpt lat="37.73015937185779" lon="-4.635215656118631"><ele>173.0</ele><time>2026-04-05T15:55:56.844Z</time></trkpt><trkpt lat="37.72993064447738" lon="-4.635328853894457"><ele>170.0</ele><time>2026-04-05T15:55:57.844Z</time></trkpt><trkpt lat="37.72970948834709" lon="-4.635472181570428"><ele>170.0</ele><time>2026-04-05T15:55:58.844Z</time></trkpt><trkpt lat="37.729482145548644" lon="-4.635628503980794"><ele>170.0</ele><time>2026-04-05T15:55:59.844Z</time></trkpt><trkpt lat="37.72923653943476" lon="-4.635800833285151"><ele>166.0</ele><time>2026-04-05T15:56:00.844Z</time></trkpt><trkpt lat="37.728974768667314" lon="-4.635984126783794"><ele>162.0</ele><time>2026-04-05T15:56:01.844Z</time></trkpt><trkpt lat="37.72871815573342" lon="-4.636165262646195"><ele>160.5</ele><time>2026-04-05T15:56:02.844Z</time></trkpt><trkpt lat="37.728468401008335" lon="-4.636346631703541"><ele>159.0</ele><time>2026-04-05T15:56:03.844Z</time></trkpt><trkpt lat="37.72822575861015" lon="-4.636521293081732"><ele>159.0</ele><time>2026-04-05T15:56:04.844Z</time></trkpt><trkpt lat="37.727987520179276" lon="-4.636688421184767"><ele>159.0</ele><time>2026-04-05T15:56:05.844Z</time></trkpt><trkpt lat="37.72775410772761" lon="-4.636846330135434"><ele>159.0</ele><time>2026-04-05T15:56:06.844Z</time></trkpt><trkpt lat="37.72752574882371" lon="-4.636998288395153"><ele>159.0</ele><time>2026-04-05T15:56:07.844Z</time></trkpt><trkpt lat="37.727302790348666" lon="-4.637149219790374"><ele>159.0</ele><time>2026-04-05T15:56:08.844Z</time></trkpt><trkpt lat="37.72708724162722" lon="-4.637299894753988"><ele>159.0</ele><time>2026-04-05T15:56:09.844Z</time></trkpt><trkpt lat="37.72687569454025" lon="-4.63744116941199"><ele>159.5</ele><time>2026-04-05T15:56:10.844Z</time></trkpt><trkpt lat="37.72666143557127" lon="-4.6375683664381935"><ele>160.0</ele><time>2026-04-05T15:56:11.844Z</time></trkpt><trkpt lat="37.726432337683086" lon="-4.637671934383751"><ele>160.0</ele><time>2026-04-05T15:56:12.844Z</time></trkpt><trkpt lat="37.7261872140593" lon="-4.637740169181026"><ele>160.0</ele><time>2026-04-05T15:56:13.844Z</time></trkpt><trkpt lat="37.72593078958293" lon="-4.637772557828053"><ele>160.5</ele><time>2026-04-05T15:56:14.844Z</time></trkpt><trkpt lat="37.725665876119876" lon="-4.637793439659439"><ele>161.0</ele><time>2026-04-05T15:56:15.844Z</time></trkpt><trkpt lat="37.72538956004813" lon="-4.637757220528709"><ele>160.0</ele><time>2026-04-05T15:56:16.844Z</time></trkpt><trkpt lat="37.72510785316555" lon="-4.637683237137214"><ele>159.0</ele><time>2026-04-05T15:56:17.844Z</time></trkpt><trkpt lat="37.724828530452264" lon="-4.637569721370072"><ele>159.0</ele><time>2026-04-05T15:56:18.844Z</time></trkpt><trkpt lat="37.72453954280818" lon="-4.6374741540017554"><ele>159.0</ele><time>2026-04-05T15:56:19.844Z</time></trkpt><trkpt lat="37.72424212121197" lon="-4.6373801285377585"><ele>157.0</ele><time>2026-04-05T15:56:20.844Z</time></trkpt><trkpt lat="37.72395258540623" lon="-4.637282980332435"><ele>155.0</ele><time>2026-04-05T15:56:21.844Z</time></trkpt><trkpt lat="37.72366426674768" lon="-4.637185888440331"><ele>155.5</ele><time>2026-04-05T15:56:22.844Z</time></trkpt><trkpt lat="37.72337401862516" lon="-4.6370911527949055"><ele>156.0</ele><time>2026-04-05T15:56:23.844Z</time></trkpt><trkpt lat="37.72308876506578" lon="-4.636997096848019"><ele>156.5</ele><time>2026-04-05T15:56:24.844Z</time></trkpt><trkpt lat="37.722812919495276" lon="-4.6369048903887515"><ele>157.0</ele><time>2026-04-05T15:56:25.844Z</time></trkpt><trkpt lat="37.72254422760858" lon="-4.63681462061289"><ele>157.0</ele><time>2026-04-05T15:56:26.844Z</time></trkpt><trkpt lat="37.72227947856222" lon="-4.6367217483446"><ele>157.0</ele><time>2026-04-05T15:56:27.844Z</time></trkpt><trkpt lat="37.722014242027264" lon="-4.636615793345118"><ele>157.0</ele><time>2026-04-05T15:56:28.844Z</time></trkpt><trkpt lat="37.721749973897246" lon="-4.636485728775255"><ele>157.0</ele><time>2026-04-05T15:56:29.844Z</time></trkpt><trkpt lat="37.72148745285477" lon="-4.636334372744908"><ele>157.0</ele><time>2026-04-05T15:56:30.844Z</time></trkpt><trkpt lat="37.72123821281551" lon="-4.636157138561883"><ele>157.0</ele><time>2026-04-05T15:56:31.844Z</time></trkpt><trkpt lat="37.721002804739484" lon="-4.635954531470782"><ele>157.5</ele><time>2026-04-05T15:56:32.844Z</time></trkpt><trkpt lat="37.72077619090577" lon="-4.635720254848487"><ele>158.0</ele><time>2026-04-05T15:56:33.844Z</time></trkpt><trkpt lat="37.720546831455614" lon="-4.635478244752075"><ele>157.0</ele><time>2026-04-05T15:56:34.844Z</time></trkpt><trkpt lat="37.72032039374152" lon="-4.635202512486476"><ele>156.0</ele><time>2026-04-05T15:56:35.844Z</time></trkpt><trkpt lat="37.720094351781576" lon="-4.6349222784610244"><ele>156.0</ele><time>2026-04-05T15:56:36.844Z</time></trkpt><trkpt lat="37.719870236605054" lon="-4.6346477670097705"><ele>156.0</ele><time>2026-04-05T15:56:37.844Z</time></trkpt><trkpt lat="37.719648346030944" lon="-4.634376070104456"><ele>156.0</ele><time>2026-04-05T15:56:38.844Z</time></trkpt><trkpt lat="37.71942782419595" lon="-4.634106462111828"><ele>156.0</ele><time>2026-04-05T15:56:39.844Z</time></trkpt><trkpt lat="37.71921183410052" lon="-4.6338427295995395"><ele>156.0</ele><time>2026-04-05T15:56:40.844Z</time></trkpt><trkpt lat="37.71899886692173" lon="-4.633582509771355"><ele>156.0</ele><time>2026-04-05T15:56:41.844Z</time></trkpt><trkpt lat="37.718787911759485" lon="-4.633323149626077"><ele>156.0</ele><time>2026-04-05T15:56:42.844Z</time></trkpt><trkpt lat="37.71857784419757" lon="-4.633065578631443"><ele>156.0</ele><time>2026-04-05T15:56:43.844Z</time></trkpt><trkpt lat="37.718368362240696" lon="-4.632807282980943"><ele>156.5</ele><time>2026-04-05T15:56:44.844Z</time></trkpt><trkpt lat="37.718156079874895" lon="-4.632545555600802"><ele>157.0</ele><time>2026-04-05T15:56:45.844Z</time></trkpt><trkpt lat="37.71794188701295" lon="-4.632283126011607"><ele>157.0</ele><time>2026-04-05T15:56:46.844Z</time></trkpt><trkpt lat="37.71774190551739" lon="-4.632005415951453"><ele>157.0</ele><time>2026-04-05T15:56:47.844Z</time></trkpt><trkpt lat="37.71753145657259" lon="-4.631750070153443"><ele>157.5</ele><time>2026-04-05T15:56:48.844Z</time></trkpt><trkpt lat="37.71732300948109" lon="-4.631495217236552"><ele>158.0</ele><time>2026-04-05T15:56:49.844Z</time></trkpt><trkpt lat="37.71711444018934" lon="-4.631238170253492"><ele>160.5</ele><time>2026-04-05T15:56:50.844Z</time></trkpt><trkpt lat="37.71689301094343" lon="-4.630995618010637"><ele>163.0</ele><time>2026-04-05T15:56:51.844Z</time></trkpt><trkpt lat="37.716686750774734" lon="-4.630747708968918"><ele>163.0</ele><time>2026-04-05T15:56:52.844Z</time></trkpt><trkpt lat="37.71649158636533" lon="-4.630497269265112"><ele>163.0</ele><time>2026-04-05T15:56:53.844Z</time></trkpt><trkpt lat="37.716273221826036" lon="-4.63027964590504"><ele>165.0</ele><time>2026-04-05T15:56:54.844Z</time></trkpt><trkpt lat="37.71603547082693" lon="-4.630089300595139"><ele>167.0</ele><time>2026-04-05T15:56:55.844Z</time></trkpt><trkpt lat="37.71578343371666" lon="-4.629930292364228"><ele>167.0</ele><time>2026-04-05T15:56:56.844Z</time></trkpt><trkpt lat="37.71552504873543" lon="-4.629784208920983"><ele>167.0</ele><time>2026-04-05T15:56:57.844Z</time></trkpt><trkpt lat="37.71526549320908" lon="-4.629634961386756"><ele>166.5</ele><time>2026-04-05T15:56:58.844Z</time></trkpt><trkpt lat="37.7150025516033" lon="-4.629480695913018"><ele>166.0</ele><time>2026-04-05T15:56:59.844Z</time></trkpt><trkpt lat="37.71473098651812" lon="-4.629348220089491"><ele>166.0</ele><time>2026-04-05T15:57:00.844Z</time></trkpt><trkpt lat="37.714465287854225" lon="-4.629200566336676"><ele>166.0</ele><time>2026-04-05T15:57:01.844Z</time></trkpt><trkpt lat="37.71420854659972" lon="-4.629057890384649"><ele>168.0</ele><time>2026-04-05T15:57:02.844Z</time></trkpt><trkpt lat="37.71396441655047" lon="-4.628922222716978"><ele>170.0</ele><time>2026-04-05T15:57:03.844Z</time></trkpt><trkpt lat="37.71373158458851" lon="-4.628792833610499"><ele>172.0</ele><time>2026-04-05T15:57:04.844Z</time></trkpt><trkpt lat="37.71350921198808" lon="-4.628647887519584"><ele>174.0</ele><time>2026-04-05T15:57:05.844Z</time></trkpt><trkpt lat="37.71328791290427" lon="-4.62852088353243"><ele>169.0</ele><time>2026-04-05T15:57:06.844Z</time></trkpt><trkpt lat="37.71307630095751" lon="-4.6283817222298005"><ele>164.0</ele><time>2026-04-05T15:57:07.844Z</time></trkpt><trkpt lat="37.71288092681079" lon="-4.628216871462663"><ele>164.5</ele><time>2026-04-05T15:57:08.844Z</time></trkpt><trkpt lat="37.712694868921396" lon="-4.628030246196023"><ele>165.0</ele><time>2026-04-05T15:57:09.844Z</time></trkpt><trkpt lat="37.71252357085998" lon="-4.627804089020113"><ele>163.5</ele><time>2026-04-05T15:57:10.844Z</time></trkpt><trkpt lat="37.7123727037463" lon="-4.627542007455264"><ele>162.0</ele><time>2026-04-05T15:57:11.844Z</time></trkpt><trkpt lat="37.71224764113604" lon="-4.627256693507049"><ele>161.5</ele><time>2026-04-05T15:57:12.842Z</time></trkpt><trkpt lat="37.71214459169582" lon="-4.6269425945109495"><ele>161.0</ele><time>2026-04-05T15:57:13.841Z</time></trkpt><trkpt lat="37.712046630735294" lon="-4.626615548329716"><ele>161.0</ele><time>2026-04-05T15:57:14.841Z</time></trkpt><trkpt lat="37.711955434029306" lon="-4.626279159353866"><ele>161.0</ele><time>2026-04-05T15:57:15.842Z</time></trkpt><trkpt lat="37.711865635035636" lon="-4.6259420101931195"><ele>163.5</ele><time>2026-04-05T15:57:16.842Z</time></trkpt><trkpt lat="37.71177843246294" lon="-4.6256123835084875"><ele>166.0</ele><time>2026-04-05T15:57:17.842Z</time></trkpt><trkpt lat="37.71169306382923" lon="-4.6252954629754575"><ele>166.0</ele><time>2026-04-05T15:57:18.841Z</time></trkpt><trkpt lat="37.711607014023954" lon="-4.624982509884878"><ele>166.0</ele><time>2026-04-05T15:57:19.841Z</time></trkpt><trkpt lat="37.71151462298912" lon="-4.624675365210148"><ele>164.5</ele><time>2026-04-05T15:57:20.841Z</time></trkpt><trkpt lat="37.71140851626813" lon="-4.624377598035728"><ele>163.0</ele><time>2026-04-05T15:57:21.842Z</time></trkpt><trkpt lat="37.71128077276012" lon="-4.624090014313257"><ele>163.0</ele><time>2026-04-05T15:57:22.841Z</time></trkpt><trkpt lat="37.711135793571756" lon="-4.623812269090039"><ele>163.0</ele><time>2026-04-05T15:57:23.841Z</time></trkpt><trkpt lat="37.710943366285306" lon="-4.62357167851582"><ele>164.0</ele><time>2026-04-05T15:57:24.842Z</time></trkpt><trkpt lat="37.710721784036586" lon="-4.623361816388596"><ele>165.0</ele><time>2026-04-05T15:57:25.841Z</time></trkpt><trkpt lat="37.710483715720315" lon="-4.623143038013195"><ele>165.5</ele><time>2026-04-05T15:57:26.841Z</time></trkpt><trkpt lat="37.710225677479826" lon="-4.622945768909004"><ele>166.0</ele><time>2026-04-05T15:57:27.841Z</time></trkpt><trkpt lat="37.70997463472328" lon="-4.622749565959599"><ele>164.0</ele><time>2026-04-05T15:57:28.841Z</time></trkpt><trkpt lat="37.70972390941666" lon="-4.622552256064038"><ele>162.0</ele><time>2026-04-05T15:57:29.841Z</time></trkpt><trkpt lat="37.709472908011875" lon="-4.622354282356346"><ele>163.0</ele><time>2026-04-05T15:57:30.841Z</time></trkpt><trkpt lat="37.70922082804664" lon="-4.6221795770484615"><ele>164.0</ele><time>2026-04-05T15:57:31.84Z</time></trkpt><trkpt lat="37.70898051654459" lon="-4.621991354592429"><ele>163.5</ele><time>2026-04-05T15:57:32.839Z</time></trkpt><trkpt lat="37.708735798018125" lon="-4.6217986583538195"><ele>163.0</ele><time>2026-04-05T15:57:33.838Z</time></trkpt><trkpt lat="37.708485250087584" lon="-4.621601371940385"><ele>164.5</ele><time>2026-04-05T15:57:34.837Z</time></trkpt><trkpt lat="37.70823017353225" lon="-4.621403030279103"><ele>166.0</ele><time>2026-04-05T15:57:35.837Z</time></trkpt><trkpt lat="37.707974485907926" lon="-4.621204785948263"><ele>165.5</ele><time>2026-04-05T15:57:36.836Z</time></trkpt><trkpt lat="37.707715883912606" lon="-4.621004283159014"><ele>165.0</ele><time>2026-04-05T15:57:37.835Z</time></trkpt><trkpt lat="37.70745549610587" lon="-4.620800648114738"><ele>165.0</ele><time>2026-04-05T15:57:38.835Z</time></trkpt><trkpt lat="37.70721154741991" lon="-4.620584575838385"><ele>165.0</ele><time>2026-04-05T15:57:39.834Z</time></trkpt><trkpt lat="37.70696277274948" lon="-4.620390617234956"><ele>165.5</ele><time>2026-04-05T15:57:40.834Z</time></trkpt><trkpt lat="37.70671818479312" lon="-4.620198428794004"><ele>166.0</ele><time>2026-04-05T15:57:41.833Z</time></trkpt><trkpt lat="37.70646803837967" lon="-4.620026738163938"><ele>166.0</ele><time>2026-04-05T15:57:42.833Z</time></trkpt><trkpt lat="37.70623260172186" lon="-4.619832500330904"><ele>166.0</ele><time>2026-04-05T15:57:43.832Z</time></trkpt><trkpt lat="37.70600846672967" lon="-4.619623203054354"><ele>164.5</ele><time>2026-04-05T15:57:44.832Z</time></trkpt><trkpt lat="37.705803801021226" lon="-4.619380612770023"><ele>163.0</ele><time>2026-04-05T15:57:45.831Z</time></trkpt><trkpt lat="37.705628031084814" lon="-4.619110735374328"><ele>163.0</ele><time>2026-04-05T15:57:46.831Z</time></trkpt><trkpt lat="37.70547040064495" lon="-4.618816769793257"><ele>163.0</ele><time>2026-04-05T15:57:47.831Z</time></trkpt><trkpt lat="37.70534183110319" lon="-4.618490367424732"><ele>163.5</ele><time>2026-04-05T15:57:48.83Z</time></trkpt><trkpt lat="37.705235723256905" lon="-4.618152514863638"><ele>164.0</ele><time>2026-04-05T15:57:49.83Z</time></trkpt><trkpt lat="37.705139725110854" lon="-4.6178040785644745"><ele>164.5</ele><time>2026-04-05T15:57:50.83Z</time></trkpt><trkpt lat="37.70504415186745" lon="-4.617447310621851"><ele>165.0</ele><time>2026-04-05T15:57:51.83Z</time></trkpt><trkpt lat="37.7049518988335" lon="-4.617093408980742"><ele>165.5</ele><time>2026-04-05T15:57:52.829Z</time></trkpt><trkpt lat="37.704858868968195" lon="-4.61673652728418"><ele>166.0</ele><time>2026-04-05T15:57:53.829Z</time></trkpt><trkpt lat="37.704766222263196" lon="-4.616379615409176"><ele>166.0</ele><time>2026-04-05T15:57:54.829Z</time></trkpt><trkpt lat="37.70467750584469" lon="-4.616022268179979"><ele>166.0</ele><time>2026-04-05T15:57:55.829Z</time></trkpt><trkpt lat="37.704592057840124" lon="-4.615671522380523"><ele>166.0</ele><time>2026-04-05T15:57:56.829Z</time></trkpt><trkpt lat="37.704501061776796" lon="-4.615325149741757"><ele>166.0</ele><time>2026-04-05T15:57:57.828Z</time></trkpt><trkpt lat="37.70440684141824" lon="-4.614979521182665"><ele>166.0</ele><time>2026-04-05T15:57:58.828Z</time></trkpt><trkpt lat="37.704309261138214" lon="-4.614638972975391"><ele>166.0</ele><time>2026-04-05T15:57:59.828Z</time></trkpt><trkpt lat="37.704198798125084" lon="-4.6143039591334025"><ele>166.0</ele><time>2026-04-05T15:58:00.828Z</time></trkpt><trkpt lat="37.7040622107392" lon="-4.613978379085163"><ele>166.0</ele><time>2026-04-05T15:58:01.828Z</time></trkpt><trkpt lat="37.70390488422525" lon="-4.613662615516476"><ele>165.5</ele><time>2026-04-05T15:58:02.828Z</time></trkpt><trkpt lat="37.703750533900006" lon="-4.613346968232929"><ele>165.0</ele><time>2026-04-05T15:58:03.828Z</time></trkpt><trkpt lat="37.70359780370978" lon="-4.613030909962062"><ele>168.5</ele><time>2026-04-05T15:58:04.827Z</time></trkpt><trkpt lat="37.7034450460184" lon="-4.612721509309954"><ele>172.0</ele><time>2026-04-05T15:58:05.827Z</time></trkpt><trkpt lat="37.703288003885426" lon="-4.612421762058086"><ele>172.0</ele><time>2026-04-05T15:58:06.827Z</time></trkpt><trkpt lat="37.70311623981866" lon="-4.612148502618379"><ele>172.0</ele><time>2026-04-05T15:58:07.827Z</time></trkpt><trkpt lat="37.70292226062454" lon="-4.61188202479569"><ele>172.0</ele><time>2026-04-05T15:58:08.827Z</time></trkpt><trkpt lat="37.70273508562062" lon="-4.611623984042538"><ele>172.0</ele><time>2026-04-05T15:58:09.827Z</time></trkpt><trkpt lat="37.702550835424866" lon="-4.611374949146683"><ele>172.0</ele><time>2026-04-05T15:58:10.827Z</time></trkpt><trkpt lat="37.70237321927908" lon="-4.611144101993808"><ele>172.0</ele><time>2026-04-05T15:58:11.827Z</time></trkpt><trkpt lat="37.702196166955034" lon="-4.610922247680155"><ele>172.0</ele><time>2026-04-05T15:58:12.827Z</time></trkpt><trkpt lat="37.70202777632683" lon="-4.610688626538388"><ele>172.0</ele><time>2026-04-05T15:58:13.827Z</time></trkpt><trkpt lat="37.70187173321723" lon="-4.6104495272170345"><ele>171.5</ele><time>2026-04-05T15:58:14.827Z</time></trkpt><trkpt lat="37.7017364676229" lon="-4.610217216915222"><ele>171.0</ele><time>2026-04-05T15:58:15.827Z</time></trkpt><trkpt lat="37.7016067971998" lon="-4.609983119552563"><ele>171.0</ele><time>2026-04-05T15:58:16.826Z</time></trkpt><trkpt lat="37.701480421234706" lon="-4.609746752440607"><ele>171.0</ele><time>2026-04-05T15:58:17.826Z</time></trkpt><trkpt lat="37.70135273660865" lon="-4.609504366886819"><ele>169.0</ele><time>2026-04-05T15:58:18.826Z</time></trkpt><trkpt lat="37.70122149774911" lon="-4.609255234319353"><ele>167.0</ele><time>2026-04-05T15:58:19.826Z</time></trkpt><trkpt lat="37.70108512046491" lon="-4.608994396510992"><ele>167.0</ele><time>2026-04-05T15:58:20.826Z</time></trkpt><trkpt lat="37.70094344859664" lon="-4.608726936446918"><ele>167.0</ele><time>2026-04-05T15:58:21.826Z</time></trkpt><trkpt lat="37.700800043355684" lon="-4.608457369567891"><ele>167.0</ele><time>2026-04-05T15:58:22.826Z</time></trkpt><trkpt lat="37.700655071774456" lon="-4.608184953585065"><ele>167.0</ele><time>2026-04-05T15:58:23.826Z</time></trkpt><trkpt lat="37.70050677884125" lon="-4.607906548355377"><ele>167.0</ele><time>2026-04-05T15:58:24.826Z</time></trkpt><trkpt lat="37.70035608933485" lon="-4.607624279371479"><ele>167.0</ele><time>2026-04-05T15:58:25.826Z</time></trkpt><trkpt lat="37.70020417361934" lon="-4.60733971345721"><ele>167.0</ele><time>2026-04-05T15:58:26.826Z</time></trkpt><trkpt lat="37.70004908612248" lon="-4.607049908019911"><ele>167.0</ele><time>2026-04-05T15:58:27.826Z</time></trkpt><trkpt lat="37.69989149345791" lon="-4.606756734812867"><ele>167.0</ele><time>2026-04-05T15:58:28.826Z</time></trkpt><trkpt lat="37.69973065791382" lon="-4.6064575287926095"><ele>167.0</ele><time>2026-04-05T15:58:29.826Z</time></trkpt><trkpt lat="37.69956519721021" lon="-4.606149443772814"><ele>168.5</ele><time>2026-04-05T15:58:30.826Z</time></trkpt><trkpt lat="37.69939862081117" lon="-4.605837923812297"><ele>170.0</ele><time>2026-04-05T15:58:31.826Z</time></trkpt><trkpt lat="37.69923754859335" lon="-4.605533022961497"><ele>169.0</ele><time>2026-04-05T15:58:32.826Z</time></trkpt><trkpt lat="37.69908224276437" lon="-4.605237396073776"><ele>168.0</ele><time>2026-04-05T15:58:33.826Z</time></trkpt><trkpt lat="37.69892002592376" lon="-4.6049583703245345"><ele>168.0</ele><time>2026-04-05T15:58:34.826Z</time></trkpt><trkpt lat="37.6987400215872" lon="-4.604693096176812"><ele>168.0</ele><time>2026-04-05T15:58:35.826Z</time></trkpt><trkpt lat="37.69852444379963" lon="-4.604450422196361"><ele>168.5</ele><time>2026-04-05T15:58:36.826Z</time></trkpt><trkpt lat="37.69829480963644" lon="-4.604208602668319"><ele>169.0</ele><time>2026-04-05T15:58:37.826Z</time></trkpt><trkpt lat="37.69805320694103" lon="-4.603973713553311"><ele>169.0</ele><time>2026-04-05T15:58:38.826Z</time></trkpt><trkpt lat="37.69780103854718" lon="-4.603749803319604"><ele>169.0</ele><time>2026-04-05T15:58:39.826Z</time></trkpt><trkpt lat="37.69756461885296" lon="-4.603492570875413"><ele>168.5</ele><time>2026-04-05T15:58:40.826Z</time></trkpt><trkpt lat="37.69731308140473" lon="-4.603247464995536"><ele>168.0</ele><time>2026-04-05T15:58:41.826Z</time></trkpt><trkpt lat="37.69706875856927" lon="-4.603039448674002"><ele>169.0</ele><time>2026-04-05T15:58:42.826Z</time></trkpt><trkpt lat="37.696843526438585" lon="-4.60282678412453"><ele>170.0</ele><time>2026-04-05T15:58:43.826Z</time></trkpt><trkpt lat="37.69661729444047" lon="-4.602618191009866"><ele>170.0</ele><time>2026-04-05T15:58:44.826Z</time></trkpt><trkpt lat="37.6963565918205" lon="-4.602460493430116"><ele>170.0</ele><time>2026-04-05T15:58:45.826Z</time></trkpt><trkpt lat="37.696083274145344" lon="-4.6023325034441624"><ele>170.5</ele><time>2026-04-05T15:58:46.826Z</time></trkpt><trkpt lat="37.695802864238374" lon="-4.602230852790649"><ele>171.0</ele><time>2026-04-05T15:58:47.826Z</time></trkpt><trkpt lat="37.695528916793236" lon="-4.602143842771516"><ele>171.0</ele><time>2026-04-05T15:58:48.826Z</time></trkpt><trkpt lat="37.695257342077795" lon="-4.602047082535471"><ele>171.0</ele><time>2026-04-05T15:58:49.826Z</time></trkpt><trkpt lat="37.69499555947955" lon="-4.601930603593251"><ele>174.5</ele><time>2026-04-05T15:58:50.826Z</time></trkpt><trkpt lat="37.69474554264915" lon="-4.601783107893521"><ele>178.0</ele><time>2026-04-05T15:58:51.826Z</time></trkpt><trkpt lat="37.69451213259405" lon="-4.601601001506138"><ele>178.0</ele><time>2026-04-05T15:58:52.826Z</time></trkpt><trkpt lat="37.6942813579307" lon="-4.601410199852139"><ele>178.0</ele><time>2026-04-05T15:58:53.826Z</time></trkpt><trkpt lat="37.694080822930275" lon="-4.601158540762944"><ele>180.0</ele><time>2026-04-05T15:58:54.826Z</time></trkpt><trkpt lat="37.69390517849294" lon="-4.600873388894537"><ele>182.0</ele><time>2026-04-05T15:58:55.826Z</time></trkpt><trkpt lat="37.69375055556442" lon="-4.600563716837502"><ele>183.5</ele><time>2026-04-05T15:58:56.826Z</time></trkpt><trkpt lat="37.69361038585299" lon="-4.600245173933599"><ele>185.0</ele><time>2026-04-05T15:58:57.826Z</time></trkpt><trkpt lat="37.693468870919915" lon="-4.599919292275927"><ele>180.5</ele><time>2026-04-05T15:58:58.826Z</time></trkpt><trkpt lat="37.69332296055524" lon="-4.5995942520756845"><ele>176.0</ele><time>2026-04-05T15:58:59.826Z</time></trkpt><trkpt lat="37.6931740995296" lon="-4.59928155771521"><ele>175.5</ele><time>2026-04-05T15:59:00.826Z</time></trkpt><trkpt lat="37.69301129253437" lon="-4.598987137198453"><ele>175.0</ele><time>2026-04-05T15:59:01.826Z</time></trkpt><trkpt lat="37.69283185490676" lon="-4.598699428121225"><ele>175.0</ele><time>2026-04-05T15:59:02.826Z</time></trkpt><trkpt lat="37.692604427188876" lon="-4.59846121894914"><ele>175.0</ele><time>2026-04-05T15:59:03.826Z</time></trkpt><trkpt lat="37.692349261182656" lon="-4.598246797887117"><ele>175.0</ele><time>2026-04-05T15:59:04.826Z</time></trkpt><trkpt lat="37.69207964631229" lon="-4.598054597793106"><ele>175.0</ele><time>2026-04-05T15:59:05.826Z</time></trkpt><trkpt lat="37.69180311959149" lon="-4.597868154983118"><ele>177.0</ele><time>2026-04-05T15:59:06.826Z</time></trkpt><trkpt lat="37.69151965634994" lon="-4.597678509093639"><ele>179.0</ele><time>2026-04-05T15:59:07.826Z</time></trkpt><trkpt lat="37.69123274767479" lon="-4.597483129061407"><ele>179.5</ele><time>2026-04-05T15:59:08.826Z</time></trkpt><trkpt lat="37.69094051806559" lon="-4.597281310949508"><ele>180.0</ele><time>2026-04-05T15:59:09.826Z</time></trkpt><trkpt lat="37.69063878520446" lon="-4.5970996071774"><ele>181.5</ele><time>2026-04-05T15:59:10.826Z</time></trkpt><trkpt lat="37.69035129946576" lon="-4.596904381743653"><ele>183.0</ele><time>2026-04-05T15:59:11.826Z</time></trkpt><trkpt lat="37.69007536730805" lon="-4.596717002060972"><ele>183.0</ele><time>2026-04-05T15:59:12.826Z</time></trkpt><trkpt lat="37.689806826009104" lon="-4.596534627517712"><ele>183.0</ele><time>2026-04-05T15:59:13.826Z</time></trkpt><trkpt lat="37.689543189367775" lon="-4.596355070536341"><ele>183.5</ele><time>2026-04-05T15:59:14.826Z</time></trkpt><trkpt lat="37.68928229338582" lon="-4.596177380081457"><ele>184.0</ele><time>2026-04-05T15:59:15.826Z</time></trkpt><trkpt lat="37.68902778035061" lon="-4.595983915356062"><ele>185.5</ele><time>2026-04-05T15:59:16.826Z</time></trkpt><trkpt lat="37.688765230298436" lon="-4.595808477215293"><ele>187.0</ele><time>2026-04-05T15:59:17.826Z</time></trkpt><trkpt lat="37.688500632130925" lon="-4.5956325496721595"><ele>188.0</ele><time>2026-04-05T15:59:18.823Z</time></trkpt><trkpt lat="37.68824068255629" lon="-4.595457045386335"><ele>189.0</ele><time>2026-04-05T15:59:19.823Z</time></trkpt><trkpt lat="37.68799690280627" lon="-4.5952885904002505"><ele>191.5</ele><time>2026-04-05T15:59:20.823Z</time></trkpt><trkpt lat="37.6877589095792" lon="-4.59514890541552"><ele>194.0</ele><time>2026-04-05T15:59:21.823Z</time></trkpt><trkpt lat="37.68754180515442" lon="-4.594973505900921"><ele>194.0</ele><time>2026-04-05T15:59:22.823Z</time></trkpt><trkpt lat="37.68734889717483" lon="-4.594757725364647"><ele>194.0</ele><time>2026-04-05T15:59:23.823Z</time></trkpt><trkpt lat="37.68718240843087" lon="-4.594516621256023"><ele>195.5</ele><time>2026-04-05T15:59:24.823Z</time></trkpt><trkpt lat="37.6870358032952" lon="-4.594243723078202"><ele>197.0</ele><time>2026-04-05T15:59:25.823Z</time></trkpt><trkpt lat="37.68692019844788" lon="-4.593931103378756"><ele>199.0</ele><time>2026-04-05T15:59:26.823Z</time></trkpt><trkpt lat="37.68682660631903" lon="-4.593599183651218"><ele>201.0</ele><time>2026-04-05T15:59:27.823Z</time></trkpt><trkpt lat="37.68676342104508" lon="-4.593245904299969"><ele>201.0</ele><time>2026-04-05T15:59:28.823Z</time></trkpt><trkpt lat="37.68672571907018" lon="-4.592882208205596"><ele>201.0</ele><time>2026-04-05T15:59:29.823Z</time></trkpt><trkpt lat="37.6866982921954" lon="-4.592509807436894"><ele>202.5</ele><time>2026-04-05T15:59:30.823Z</time></trkpt><trkpt lat="37.686671228692596" lon="-4.592129081850118"><ele>204.0</ele><time>2026-04-05T15:59:31.822Z</time></trkpt><trkpt lat="37.686643719182726" lon="-4.591741399544602"><ele>205.5</ele><time>2026-04-05T15:59:32.822Z</time></trkpt><trkpt lat="37.68661565421864" lon="-4.59134686306625"><ele>207.0</ele><time>2026-04-05T15:59:33.822Z</time></trkpt><trkpt lat="37.68658594392705" lon="-4.590936567803768"><ele>208.5</ele><time>2026-04-05T15:59:34.822Z</time></trkpt><trkpt lat="37.686555317418566" lon="-4.590515323228971"><ele>210.0</ele><time>2026-04-05T15:59:35.822Z</time></trkpt><trkpt lat="37.68652338305429" lon="-4.5900779776094485"><ele>211.0</ele><time>2026-04-05T15:59:36.822Z</time></trkpt><trkpt lat="37.68649011533433" lon="-4.589635940310112"><ele>212.0</ele><time>2026-04-05T15:59:37.822Z</time></trkpt><trkpt lat="37.68645613322566" lon="-4.589186048082429"><ele>213.0</ele><time>2026-04-05T15:59:38.822Z</time></trkpt><trkpt lat="37.68641675726297" lon="-4.588735058988795"><ele>214.0</ele><time>2026-04-05T15:59:39.822Z</time></trkpt><trkpt lat="37.68636022503816" lon="-4.588289213158598"><ele>215.0</ele><time>2026-04-05T15:59:40.822Z</time></trkpt><trkpt lat="37.6862787080935" lon="-4.587844422766091"><ele>216.0</ele><time>2026-04-05T15:59:41.822Z</time></trkpt><trkpt lat="37.686179395822236" lon="-4.5874009504766855"><ele>218.0</ele><time>2026-04-05T15:59:42.822Z</time></trkpt><trkpt lat="37.68607460737751" lon="-4.586959115187124"><ele>220.0</ele><time>2026-04-05T15:59:43.822Z</time></trkpt><trkpt lat="37.68596967910551" lon="-4.586514663875123"><ele>222.5</ele><time>2026-04-05T15:59:44.822Z</time></trkpt><trkpt lat="37.68586458445474" lon="-4.58606041213352"><ele>225.0</ele><time>2026-04-05T15:59:45.822Z</time></trkpt><trkpt lat="37.68575908591479" lon="-4.585604414473575"><ele>227.0</ele><time>2026-04-05T15:59:46.822Z</time></trkpt><trkpt lat="37.685652807430266" lon="-4.585144950150002"><ele>229.0</ele><time>2026-04-05T15:59:47.822Z</time></trkpt><trkpt lat="37.685546291527544" lon="-4.5846844614887905"><ele>232.0</ele><time>2026-04-05T15:59:48.822Z</time></trkpt><trkpt lat="37.685441818639845" lon="-4.5842328052278765"><ele>235.0</ele><time>2026-04-05T15:59:49.822Z</time></trkpt><trkpt lat="37.685340741397525" lon="-4.583795828860255"><ele>235.5</ele><time>2026-04-05T15:59:50.822Z</time></trkpt><trkpt lat="37.68523961796404" lon="-4.583359796251281"><ele>236.0</ele><time>2026-04-05T15:59:51.822Z</time></trkpt><trkpt lat="37.68513651374383" lon="-4.582919145609376"><ele>237.0</ele><time>2026-04-05T15:59:52.822Z</time></trkpt><trkpt lat="37.685033363163896" lon="-4.58247829688122"><ele>238.0</ele><time>2026-04-05T15:59:53.822Z</time></trkpt><trkpt lat="37.684936142562066" lon="-4.582058795687269"><ele>239.0</ele><time>2026-04-05T15:59:54.822Z</time></trkpt><trkpt lat="37.684842870871194" lon="-4.581652960858059"><ele>240.0</ele><time>2026-04-05T15:59:55.822Z</time></trkpt><trkpt lat="37.68475561639884" lon="-4.581273804585029"><ele>239.5</ele><time>2026-04-05T15:59:56.822Z</time></trkpt><trkpt lat="37.68467262028368" lon="-4.580918397866303"><ele>239.0</ele><time>2026-04-05T15:59:57.822Z</time></trkpt><trkpt lat="37.68459604102947" lon="-4.580590469593269"><ele>237.5</ele><time>2026-04-05T15:59:58.822Z</time></trkpt><trkpt lat="37.684522029868816" lon="-4.580273538505538"><ele>236.0</ele><time>2026-04-05T15:59:59.822Z</time></trkpt><trkpt lat="37.68445157171314" lon="-4.5799698204066495"><ele>242.0</ele><time>2026-04-05T16:00:00.822Z</time></trkpt><trkpt lat="37.68438483426998" lon="-4.579677360182995"><ele>248.0</ele><time>2026-04-05T16:00:01.822Z</time></trkpt><trkpt lat="37.68432222218668" lon="-4.5794007951626545"><ele>248.0</ele><time>2026-04-05T16:00:02.822Z</time></trkpt><trkpt lat="37.68426387892118" lon="-4.579130842248816"><ele>248.0</ele><time>2026-04-05T16:00:03.822Z</time></trkpt><trkpt lat="37.68422687214506" lon="-4.578848989330061"><ele>248.0</ele><time>2026-04-05T16:00:04.822Z</time></trkpt><trkpt lat="37.68423106882668" lon="-4.578565765105983"><ele>250.0</ele><time>2026-04-05T16:00:05.822Z</time></trkpt><trkpt lat="37.68428683540967" lon="-4.578294034408497"><ele>252.0</ele><time>2026-04-05T16:00:06.822Z</time></trkpt><trkpt lat="37.68436162997294" lon="-4.578025219199025"><ele>254.0</ele><time>2026-04-05T16:00:07.822Z</time></trkpt><trkpt lat="37.684416809574095" lon="-4.577752741791226"><ele>258.5</ele><time>2026-04-05T16:00:08.822Z</time></trkpt><trkpt lat="37.68442058957836" lon="-4.577467096371523"><ele>263.0</ele><time>2026-04-05T16:00:09.822Z</time></trkpt><trkpt lat="37.68440352595189" lon="-4.577156227828423"><ele>264.0</ele><time>2026-04-05T16:00:10.822Z</time></trkpt><trkpt lat="37.68438226655382" lon="-4.5768479813215865"><ele>265.0</ele><time>2026-04-05T16:00:11.822Z</time></trkpt><trkpt lat="37.684353410014815" lon="-4.5765390100019"><ele>265.0</ele><time>2026-04-05T16:00:12.822Z</time></trkpt><trkpt lat="37.684296911576645" lon="-4.57623592820306"><ele>265.0</ele><time>2026-04-05T16:00:13.822Z</time></trkpt><trkpt lat="37.68420267199902" lon="-4.575941889268771"><ele>265.0</ele><time>2026-04-05T16:00:14.822Z</time></trkpt><trkpt lat="37.68408910048719" lon="-4.575639778028466"><ele>265.0</ele><time>2026-04-05T16:00:15.822Z</time></trkpt><trkpt lat="37.6839728599563" lon="-4.575339245534826"><ele>264.5</ele><time>2026-04-05T16:00:16.822Z</time></trkpt><trkpt lat="37.68385880058952" lon="-4.575044352266453"><ele>264.0</ele><time>2026-04-05T16:00:17.822Z</time></trkpt><trkpt lat="37.68374623528379" lon="-4.574753106575181"><ele>265.0</ele><time>2026-04-05T16:00:18.822Z</time></trkpt><trkpt lat="37.68363971051135" lon="-4.57446392000163"><ele>266.0</ele><time>2026-04-05T16:00:19.822Z</time></trkpt><trkpt lat="37.683533623881985" lon="-4.574176481899215"><ele>271.0</ele><time>2026-04-05T16:00:20.822Z</time></trkpt><trkpt lat="37.68342723065421" lon="-4.573889456387071"><ele>276.0</ele><time>2026-04-05T16:00:21.822Z</time></trkpt><trkpt lat="37.68331834142433" lon="-4.573596660618563"><ele>277.0</ele><time>2026-04-05T16:00:22.822Z</time></trkpt><trkpt lat="37.683219726305516" lon="-4.573291931454888"><ele>278.0</ele><time>2026-04-05T16:00:23.822Z</time></trkpt><trkpt lat="37.68315062634886" lon="-4.572964405188265"><ele>278.5</ele><time>2026-04-05T16:00:24.822Z</time></trkpt><trkpt lat="37.68311099110676" lon="-4.57261695011429"><ele>279.0</ele><time>2026-04-05T16:00:25.822Z</time></trkpt><trkpt lat="37.6830745281181" lon="-4.572270225583095"><ele>280.5</ele><time>2026-04-05T16:00:26.822Z</time></trkpt><trkpt lat="37.683038765168114" lon="-4.571953224950352"><ele>282.0</ele><time>2026-04-05T16:00:27.822Z</time></trkpt><trkpt lat="37.6830062487213" lon="-4.571664653709977"><ele>282.0</ele><time>2026-04-05T16:00:28.822Z</time></trkpt><trkpt lat="37.68296878588922" lon="-4.571382654939406"><ele>282.0</ele><time>2026-04-05T16:00:29.822Z</time></trkpt><trkpt lat="37.68290720120623" lon="-4.571108681341531"><ele>283.5</ele><time>2026-04-05T16:00:30.822Z</time></trkpt><trkpt lat="37.6828078517164" lon="-4.570852432116274"><ele>285.0</ele><time>2026-04-05T16:00:31.822Z</time></trkpt><trkpt lat="37.68266845576354" lon="-4.570608801715526"><ele>290.5</ele><time>2026-04-05T16:00:32.822Z</time></trkpt><trkpt lat="37.68251285557116" lon="-4.570368920968303"><ele>296.0</ele><time>2026-04-05T16:00:33.822Z</time></trkpt><trkpt lat="37.68233951887494" lon="-4.570130783704884"><ele>296.0</ele><time>2026-04-05T16:00:34.822Z</time></trkpt><trkpt lat="37.68217007924268" lon="-4.569880243753401"><ele>296.0</ele><time>2026-04-05T16:00:35.822Z</time></trkpt><trkpt lat="37.68198358069354" lon="-4.569645130745367"><ele>299.5</ele><time>2026-04-05T16:00:36.822Z</time></trkpt><trkpt lat="37.681805431131444" lon="-4.5693963926689385"><ele>303.0</ele><time>2026-04-05T16:00:37.822Z</time></trkpt><trkpt lat="37.681642109098775" lon="-4.5691365595313"><ele>303.0</ele><time>2026-04-05T16:00:38.822Z</time></trkpt><trkpt lat="37.68143319118803" lon="-4.568941932242352"><ele>303.0</ele><time>2026-04-05T16:00:39.822Z</time></trkpt><trkpt lat="37.68122071149655" lon="-4.568753670205223"><ele>306.0</ele><time>2026-04-05T16:00:40.822Z</time></trkpt><trkpt lat="37.68100775432682" lon="-4.5685610465732625"><ele>309.0</ele><time>2026-04-05T16:00:41.822Z</time></trkpt><trkpt lat="37.68081305562277" lon="-4.568358765545421"><ele>309.0</ele><time>2026-04-05T16:00:42.822Z</time></trkpt><trkpt lat="37.680657745745094" lon="-4.568109777333453"><ele>309.0</ele><time>2026-04-05T16:00:43.822Z</time></trkpt><trkpt lat="37.680548638239046" lon="-4.5678300989589555"><ele>306.5</ele><time>2026-04-05T16:00:44.822Z</time></trkpt><trkpt lat="37.68043960626623" lon="-4.5675398588743485"><ele>304.0</ele><time>2026-04-05T16:00:45.822Z</time></trkpt><trkpt lat="37.68031923485648" lon="-4.5672552452040085"><ele>308.0</ele><time>2026-04-05T16:00:46.822Z</time></trkpt><trkpt lat="37.68015902530674" lon="-4.567003422612931"><ele>312.0</ele><time>2026-04-05T16:00:47.822Z</time></trkpt><trkpt lat="37.67998839874872" lon="-4.5667510635948965"><ele>312.0</ele><time>2026-04-05T16:00:48.822Z</time></trkpt><trkpt lat="37.67981882279718" lon="-4.566503749060796"><ele>312.0</ele><time>2026-04-05T16:00:49.822Z</time></trkpt><trkpt lat="37.67965276414363" lon="-4.566264351921479"><ele>311.0</ele><time>2026-04-05T16:00:50.822Z</time></trkpt><trkpt lat="37.67949141895253" lon="-4.5660322695163975"><ele>310.0</ele><time>2026-04-05T16:00:51.822Z</time></trkpt><trkpt lat="37.67933261563976" lon="-4.56580327835472"><ele>313.5</ele><time>2026-04-05T16:00:52.822Z</time></trkpt><trkpt lat="37.679179382986106" lon="-4.565576950679711"><ele>317.0</ele><time>2026-04-05T16:00:53.822Z</time></trkpt><trkpt lat="37.67902788847647" lon="-4.56535319027027"><ele>317.5</ele><time>2026-04-05T16:00:54.822Z</time></trkpt><trkpt lat="37.67887655967271" lon="-4.565129674210022"><ele>318.0</ele><time>2026-04-05T16:00:55.822Z</time></trkpt><trkpt lat="37.67872491754897" lon="-4.564906581806053"><ele>316.5</ele><time>2026-04-05T16:00:56.822Z</time></trkpt><trkpt lat="37.6785827603827" lon="-4.564670293011118"><ele>315.0</ele><time>2026-04-05T16:00:57.822Z</time></trkpt><trkpt lat="37.67842987573963" lon="-4.564448109332715"><ele>318.0</ele><time>2026-04-05T16:00:58.822Z</time></trkpt><trkpt lat="37.67826420746052" lon="-4.5642422463905215"><ele>321.0</ele><time>2026-04-05T16:00:59.822Z</time></trkpt><trkpt lat="37.67810962684964" lon="-4.564022133363596"><ele>321.0</ele><time>2026-04-05T16:01:00.822Z</time></trkpt><trkpt lat="37.67795244028683" lon="-4.563800753096255"><ele>321.0</ele><time>2026-04-05T16:01:01.822Z</time></trkpt><trkpt lat="37.677794348303586" lon="-4.5635783535502865"><ele>321.5</ele><time>2026-04-05T16:01:02.822Z</time></trkpt><trkpt lat="37.67763711520664" lon="-4.5633557497606825"><ele>322.0</ele><time>2026-04-05T16:01:03.822Z</time></trkpt><trkpt lat="37.67748337602405" lon="-4.563134728749283"><ele>322.0</ele><time>2026-04-05T16:01:04.822Z</time></trkpt><trkpt lat="37.677329181588995" lon="-4.562913053293361"><ele>322.0</ele><time>2026-04-05T16:01:05.822Z</time></trkpt><trkpt lat="37.67717360091483" lon="-4.5626886468269765"><ele>323.0</ele><time>2026-04-05T16:01:06.822Z</time></trkpt><trkpt lat="37.677014632100544" lon="-4.56246724063599"><ele>324.0</ele><time>2026-04-05T16:01:07.822Z</time></trkpt><trkpt lat="37.67684639456635" lon="-4.562253867319241"><ele>324.0</ele><time>2026-04-05T16:01:08.822Z</time></trkpt><trkpt lat="37.67666604410598" lon="-4.56203826527045"><ele>324.0</ele><time>2026-04-05T16:01:09.822Z</time></trkpt><trkpt lat="37.676456990917984" lon="-4.561847179107463"><ele>325.0</ele><time>2026-04-05T16:01:10.822Z</time></trkpt><trkpt lat="37.67622674475946" lon="-4.561646233008338"><ele>326.0</ele><time>2026-04-05T16:01:11.822Z</time></trkpt><trkpt lat="37.67599626467543" lon="-4.561449820717488"><ele>326.0</ele><time>2026-04-05T16:01:12.822Z</time></trkpt><trkpt lat="37.67577873424298" lon="-4.5612655378604465"><ele>326.0</ele><time>2026-04-05T16:01:13.822Z</time></trkpt><trkpt lat="37.67557828463213" lon="-4.561089278488205"><ele>328.33333333333337</ele><time>2026-04-05T16:01:14.822Z</time></trkpt><trkpt lat="37.675390535050454" lon="-4.560922875784231"><ele>330.6666666666667</ele><time>2026-04-05T16:01:15.822Z</time></trkpt><trkpt lat="37.67521713198672" lon="-4.560764009420958"><ele>333.0</ele><time>2026-04-05T16:01:16.822Z</time></trkpt><trkpt lat="37.675052650527775" lon="-4.560614770924103"><ele>334.0</ele><time>2026-04-05T16:01:17.822Z</time></trkpt><trkpt lat="37.674888098332644" lon="-4.560494810324736"><ele>335.0</ele><time>2026-04-05T16:01:18.822Z</time></trkpt><trkpt lat="37.67474207497824" lon="-4.560364428487615"><ele>336.0</ele><time>2026-04-05T16:01:19.822Z</time></trkpt><trkpt lat="37.67461177266283" lon="-4.560226453919861"><ele>336.3333333333333</ele><time>2026-04-05T16:01:20.822Z</time></trkpt><trkpt lat="37.674503856344835" lon="-4.560075351567423"><ele>336.66666666666663</ele><time>2026-04-05T16:01:21.822Z</time></trkpt><trkpt lat="37.67442150214486" lon="-4.559907731102916"><ele>337.0</ele><time>2026-04-05T16:01:22.822Z</time></trkpt><trkpt lat="37.674363063424046" lon="-4.559736200631787"><ele>337.0</ele><time>2026-04-05T16:01:23.822Z</time></trkpt><trkpt lat="37.674316934665235" lon="-4.559567686399646"><ele>337.0</ele><time>2026-04-05T16:01:24.82Z</time></trkpt><trkpt lat="37.674317507735054" lon="-4.559382266183862"><ele>337.0</ele><time>2026-04-05T16:01:25.82Z</time></trkpt><trkpt lat="37.67429129412671" lon="-4.559212833385207"><ele>337.0</ele><time>2026-04-05T16:01:26.82Z</time></trkpt><trkpt lat="37.674269084345646" lon="-4.559046667631112"><ele>336.25</ele><time>2026-04-05T16:01:27.82Z</time></trkpt><trkpt lat="37.674248943652394" lon="-4.558886558714794"><ele>335.5</ele><time>2026-04-05T16:01:28.82Z</time></trkpt><trkpt lat="37.67422759414515" lon="-4.558730927486907"><ele>334.75</ele><time>2026-04-05T16:01:29.82Z</time></trkpt><trkpt lat="37.67421182153869" lon="-4.558577240327261"><ele>334.0</ele><time>2026-04-05T16:01:30.82Z</time></trkpt><trkpt lat="37.6741988012015" lon="-4.558422844125574"><ele>333.0</ele><time>2026-04-05T16:01:31.82Z</time></trkpt><trkpt lat="37.67418709568416" lon="-4.558265912559243"><ele>332.0</ele><time>2026-04-05T16:01:32.82Z</time></trkpt><trkpt lat="37.674180255345206" lon="-4.558113588232977"><ele>331.0</ele><time>2026-04-05T16:01:33.819Z</time></trkpt><trkpt lat="37.674178099553046" lon="-4.557963647603072"><ele>330.0</ele><time>2026-04-05T16:01:34.82Z</time></trkpt><trkpt lat="37.674180216825334" lon="-4.557817439769183"><ele>328.5</ele><time>2026-04-05T16:01:35.82Z</time></trkpt><trkpt lat="37.6741936568764" lon="-4.557672961071688"><ele>327.0</ele><time>2026-04-05T16:01:36.819Z</time></trkpt><trkpt lat="37.674224612978975" lon="-4.5575271304337015"><ele>325.5</ele><time>2026-04-05T16:01:37.819Z</time></trkpt><trkpt lat="37.67427457256867" lon="-4.5573861420146065"><ele>324.0</ele><time>2026-04-05T16:01:38.819Z</time></trkpt><trkpt lat="37.67433543030244" lon="-4.557247430667299"><ele>324.0</ele><time>2026-04-05T16:01:39.819Z</time></trkpt><trkpt lat="37.674400953263145" lon="-4.557114731818596"><ele>324.0</ele><time>2026-04-05T16:01:40.819Z</time></trkpt><trkpt lat="37.67447191973529" lon="-4.556986735231953"><ele>324.0</ele><time>2026-04-05T16:01:41.819Z</time></trkpt><trkpt lat="37.674519319956396" lon="-4.556836953329125"><ele>324.0</ele><time>2026-04-05T16:01:42.819Z</time></trkpt><trkpt lat="37.67459081923104" lon="-4.556706663146361"><ele>326.0</ele><time>2026-04-05T16:01:43.819Z</time></trkpt><trkpt lat="37.67466281414078" lon="-4.556576759728135"><ele>328.0</ele><time>2026-04-05T16:01:44.819Z</time></trkpt><trkpt lat="37.67473234330872" lon="-4.556449606968611"><ele>330.0</ele><time>2026-04-05T16:01:45.819Z</time></trkpt><trkpt lat="37.67480047191058" lon="-4.556325015489667"><ele>332.0</ele><time>2026-04-05T16:01:46.819Z</time></trkpt><trkpt lat="37.67486580529923" lon="-4.556205535817589"><ele>331.8</ele><time>2026-04-05T16:01:47.819Z</time></trkpt><trkpt lat="37.67492821164729" lon="-4.556091408987014"><ele>331.6</ele><time>2026-04-05T16:01:48.819Z</time></trkpt><trkpt lat="37.674986467864244" lon="-4.555983562143064"><ele>331.40000000000003</ele><time>2026-04-05T16:01:49.819Z</time></trkpt><trkpt lat="37.675052352008294" lon="-4.555897466130722"><ele>331.20000000000005</ele><time>2026-04-05T16:01:50.819Z</time></trkpt><trkpt lat="37.675071088964174" lon="-4.5557920950972015"><ele>331.0</ele><time>2026-04-05T16:01:51.819Z</time></trkpt><trkpt lat="37.67508507567414" lon="-4.555701726024161"><ele>331.0</ele><time>2026-04-05T16:01:52.819Z</time></trkpt><trkpt lat="37.67514042970678" lon="-4.555590252002104"><ele>331.0</ele><time>2026-04-05T16:01:54.819Z</time></trkpt><trkpt lat="37.675202448926456" lon="-4.5555483035993305"><ele>331.0</ele><time>2026-04-05T16:01:56.819Z</time></trkpt><trkpt lat="37.6752745242191" lon="-4.555615754362243"><ele>331.0</ele><time>2026-04-05T16:01:58.819Z</time></trkpt><trkpt lat="37.67531170091923" lon="-4.5556823335911485"><ele>331.0</ele><time>2026-04-05T16:01:59.819Z</time></trkpt><trkpt lat="37.67545789561717" lon="-4.5556102604968025"><ele>332.3333333333333</ele><time>2026-04-05T16:02:01.819Z</time></trkpt><trkpt lat="37.67555724096473" lon="-4.555533608345314"><ele>333.66666666666663</ele><time>2026-04-05T16:02:03.819Z</time></trkpt><trkpt lat="37.6756179217325" lon="-4.555488918054883"><ele>335.0</ele><time>2026-04-05T16:02:04.819Z</time></trkpt><trkpt lat="37.675683844978465" lon="-4.55543528583719"><ele>336.3333333333333</ele><time>2026-04-05T16:02:05.819Z</time></trkpt><trkpt lat="37.6757541508258" lon="-4.555374552221032"><ele>337.6666666666667</ele><time>2026-04-05T16:02:06.819Z</time></trkpt><trkpt lat="37.67582703752585" lon="-4.55531158910767"><ele>339.0</ele><time>2026-04-05T16:02:07.819Z</time></trkpt><trkpt lat="37.67590002029976" lon="-4.555250855645864"><ele>339.0</ele><time>2026-04-05T16:02:08.819Z</time></trkpt><trkpt lat="37.67597229943721" lon="-4.555194386388294"><ele>339.0</ele><time>2026-04-05T16:02:09.819Z</time></trkpt><trkpt lat="37.67604698915583" lon="-4.555136033735565"><ele>339.0</ele><time>2026-04-05T16:02:10.819Z</time></trkpt><trkpt lat="37.676144102780604" lon="-4.555056258471947"><ele>339.0</ele><time>2026-04-05T16:02:11.819Z</time></trkpt><trkpt lat="37.67624224253295" lon="-4.554969775032219"><ele>339.0</ele><time>2026-04-05T16:02:12.819Z</time></trkpt><trkpt lat="37.676344448523075" lon="-4.5548792717354445"><ele>342.0</ele><time>2026-04-05T16:02:13.819Z</time></trkpt><trkpt lat="37.67643580065041" lon="-4.554804825791424"><ele>345.0</ele><time>2026-04-05T16:02:14.819Z</time></trkpt><trkpt lat="37.67651851441226" lon="-4.554744467978386"><ele>348.0</ele><time>2026-04-05T16:02:15.819Z</time></trkpt><trkpt lat="37.676595494297274" lon="-4.554689732095642"><ele>351.0</ele><time>2026-04-05T16:02:16.819Z</time></trkpt><trkpt lat="37.67667899019363" lon="-4.554630363057409"><ele>354.0</ele><time>2026-04-05T16:02:17.819Z</time></trkpt><trkpt lat="37.676758266650744" lon="-4.5545750071206985"><ele>353.0</ele><time>2026-04-05T16:02:18.819Z</time></trkpt><trkpt lat="37.67683869146263" lon="-4.554521565169792"><ele>352.0</ele><time>2026-04-05T16:02:19.819Z</time></trkpt><trkpt lat="37.67692173973628" lon="-4.554472113996301"><ele>351.0</ele><time>2026-04-05T16:02:20.819Z</time></trkpt><trkpt lat="37.67701056941744" lon="-4.554421741196892"><ele>350.0</ele><time>2026-04-05T16:02:21.819Z</time></trkpt><trkpt lat="37.67708290229982" lon="-4.554371045708434"><ele>349.0</ele><time>2026-04-05T16:02:22.819Z</time></trkpt><trkpt lat="37.677149412633305" lon="-4.554325356758167"><ele>348.0</ele><time>2026-04-05T16:02:23.819Z</time></trkpt><trkpt lat="37.67725595433117" lon="-4.554242536229637"><ele>350.3333333333333</ele><time>2026-04-05T16:02:25.819Z</time></trkpt><trkpt lat="37.67733033282597" lon="-4.554237922408397"><ele>352.6666666666667</ele><time>2026-04-05T16:02:26.819Z</time></trkpt><trkpt lat="37.67737303696245" lon="-4.554162888938266"><ele>355.0</ele><time>2026-04-05T16:02:27.819Z</time></trkpt><trkpt lat="37.677416009415" lon="-4.554087774905491"><ele>357.33333333333337</ele><time>2026-04-05T16:02:28.819Z</time></trkpt><trkpt lat="37.67749539602898" lon="-4.553968019175971"><ele>359.6666666666667</ele><time>2026-04-05T16:02:30.819Z</time></trkpt><trkpt lat="37.677541141272336" lon="-4.553898693255539"><ele>362.0</ele><time>2026-04-05T16:02:31.819Z</time></trkpt><trkpt lat="37.67753121184901" lon="-4.553761053008405"><ele>360.40000000000003</ele><time>2026-04-05T16:02:32.819Z</time></trkpt><trkpt lat="37.67758514413946" lon="-4.553673699951038"><ele>358.8</ele><time>2026-04-05T16:02:33.819Z</time></trkpt><trkpt lat="37.67764283472616" lon="-4.553582246029333"><ele>357.2</ele><time>2026-04-05T16:02:34.819Z</time></trkpt><trkpt lat="37.677699728288786" lon="-4.553493666440682"><ele>355.6</ele><time>2026-04-05T16:02:35.819Z</time></trkpt><trkpt lat="37.67775410369236" lon="-4.553399769273608"><ele>354.0</ele><time>2026-04-05T16:02:36.819Z</time></trkpt><trkpt lat="37.677810621436365" lon="-4.553313405427054"><ele>355.4</ele><time>2026-04-05T16:02:37.819Z</time></trkpt><trkpt lat="37.677859223280315" lon="-4.553217527958347"><ele>356.79999999999995</ele><time>2026-04-05T16:02:38.819Z</time></trkpt><trkpt lat="37.677926957845706" lon="-4.553117374968695"><ele>358.20000000000005</ele><time>2026-04-05T16:02:39.819Z</time></trkpt><trkpt lat="37.67798799486078" lon="-4.553019336626266"><ele>359.6</ele><time>2026-04-05T16:02:40.819Z</time></trkpt><trkpt lat="37.67805152710538" lon="-4.552926142210623"><ele>361.0</ele><time>2026-04-05T16:02:41.819Z</time></trkpt><trkpt lat="37.67811564526578" lon="-4.552844224851943"><ele>361.0</ele><time>2026-04-05T16:02:42.819Z</time></trkpt><trkpt lat="37.67816832219376" lon="-4.5527664984111835"><ele>361.0</ele><time>2026-04-05T16:02:43.819Z</time></trkpt><trkpt lat="37.67822158483427" lon="-4.552691832741416"><ele>361.0</ele><time>2026-04-05T16:02:44.819Z</time></trkpt><trkpt lat="37.6782771138751" lon="-4.5526176736871315"><ele>361.0</ele><time>2026-04-05T16:02:45.819Z</time></trkpt><trkpt lat="37.67833606054379" lon="-4.552537515981987"><ele>361.0</ele><time>2026-04-05T16:02:46.819Z</time></trkpt><trkpt lat="37.678382033459386" lon="-4.552441857632521"><ele>361.0</ele><time>2026-04-05T16:02:47.819Z</time></trkpt><trkpt lat="37.67843794157501" lon="-4.552361855699394"><ele>361.0</ele><time>2026-04-05T16:02:48.819Z</time></trkpt><trkpt lat="37.678483680887915" lon="-4.55227560193548"><ele>361.0</ele><time>2026-04-05T16:02:49.819Z</time></trkpt><trkpt lat="37.6785300687506" lon="-4.55218175131767"><ele>361.0</ele><time>2026-04-05T16:02:50.819Z</time></trkpt><trkpt lat="37.67856822506942" lon="-4.55211667981052"><ele>361.0</ele><time>2026-04-05T16:02:51.819Z</time></trkpt><trkpt lat="37.67861388611795" lon="-4.552052504469497"><ele>361.0</ele><time>2026-04-05T16:02:52.819Z</time></trkpt><trkpt lat="37.67867158595135" lon="-4.551994214510014"><ele>361.0</ele><time>2026-04-05T16:02:53.819Z</time></trkpt><trkpt lat="37.678743016974614" lon="-4.551934680683972"><ele>362.4</ele><time>2026-04-05T16:02:54.819Z</time></trkpt><trkpt lat="37.67882063071808" lon="-4.551863986669276"><ele>363.8</ele><time>2026-04-05T16:02:55.819Z</time></trkpt><trkpt lat="37.67889872473424" lon="-4.551800601565019"><ele>365.2</ele><time>2026-04-05T16:02:56.819Z</time></trkpt><trkpt lat="37.678966035253374" lon="-4.551732522959021"><ele>366.59999999999997</ele><time>2026-04-05T16:02:57.819Z</time></trkpt><trkpt lat="37.67903536809696" lon="-4.551661201355906"><ele>368.0</ele><time>2026-04-05T16:02:58.819Z</time></trkpt><trkpt lat="37.67910717816546" lon="-4.551595239768433"><ele>368.0</ele><time>2026-04-05T16:02:59.819Z</time></trkpt><trkpt lat="37.67917497238342" lon="-4.551540414475675"><ele>368.0</ele><time>2026-04-05T16:03:00.819Z</time></trkpt><trkpt lat="37.67923337612833" lon="-4.551467780522811"><ele>368.0</ele><time>2026-04-05T16:03:01.819Z</time></trkpt><trkpt lat="37.67930050521135" lon="-4.551404422287397"><ele>368.0</ele><time>2026-04-05T16:03:02.819Z</time></trkpt><trkpt lat="37.67936502667804" lon="-4.551343525135916"><ele>368.0</ele><time>2026-04-05T16:03:03.819Z</time></trkpt><trkpt lat="37.679427926020445" lon="-4.551285368155549"><ele>368.0</ele><time>2026-04-05T16:03:04.819Z</time></trkpt><trkpt lat="37.679483240108596" lon="-4.551235745978818"><ele>368.1666666666667</ele><time>2026-04-05T16:03:05.819Z</time></trkpt><trkpt lat="37.67954820259795" lon="-4.55117891484595"><ele>368.33333333333337</ele><time>2026-04-05T16:03:07.819Z</time></trkpt><trkpt lat="37.67963216281077" lon="-4.551108627665562"><ele>368.5</ele><time>2026-04-05T16:04:52.815Z</time></trkpt><trkpt lat="37.67970021041237" lon="-4.551098519415873"><ele>368.6666666666667</ele><time>2026-04-05T16:04:53.815Z</time></trkpt><trkpt lat="37.679736754495345" lon="-4.551022058372914"><ele>368.8333333333333</ele><time>2026-04-05T16:04:54.815Z</time></trkpt><trkpt lat="37.67982352061814" lon="-4.550948668754394"><ele>369.0</ele><time>2026-04-05T16:04:56.815Z</time></trkpt><trkpt lat="37.67988286063147" lon="-4.550859368026312"><ele>369.0</ele><time>2026-04-05T16:04:58.815Z</time></trkpt><trkpt lat="37.67994102685091" lon="-4.550770108413322"><ele>369.0</ele><time>2026-04-05T16:04:59.815Z</time></trkpt><trkpt lat="37.68000624533432" lon="-4.550689955733661"><ele>369.0</ele><time>2026-04-05T16:05:00.815Z</time></trkpt><trkpt lat="37.68007151830282" lon="-4.550648162878243"><ele>369.0</ele><time>2026-04-05T16:05:01.815Z</time></trkpt><trkpt lat="37.680150131428334" lon="-4.550609578673747"><ele>369.0</ele><time>2026-04-05T16:05:02.815Z</time></trkpt><trkpt lat="37.68024718699742" lon="-4.550586353775692"><ele>369.0</ele><time>2026-04-05T16:05:03.815Z</time></trkpt><trkpt lat="37.680358512803195" lon="-4.550566050348789"><ele>368.75</ele><time>2026-04-05T16:05:04.815Z</time></trkpt><trkpt lat="37.680481146734536" lon="-4.55053606012648"><ele>368.5</ele><time>2026-04-05T16:05:05.815Z</time></trkpt><trkpt lat="37.68059170861754" lon="-4.550535923797019"><ele>368.25</ele><time>2026-04-05T16:05:06.815Z</time></trkpt><trkpt lat="37.68070268246439" lon="-4.5505208413770095"><ele>368.0</ele><time>2026-04-05T16:05:07.815Z</time></trkpt><trkpt lat="37.68081277572357" lon="-4.55052183417208"><ele>368.0</ele><time>2026-04-05T16:05:08.815Z</time></trkpt><trkpt lat="37.68091874604854" lon="-4.550506643492823"><ele>368.0</ele><time>2026-04-05T16:05:09.815Z</time></trkpt><trkpt lat="37.681006888383585" lon="-4.550496411267921"><ele>368.0</ele><time>2026-04-05T16:05:10.815Z</time></trkpt><trkpt lat="37.6810812407923" lon="-4.5505016874886905"><ele>368.0</ele><time>2026-04-05T16:05:11.815Z</time></trkpt><trkpt lat="37.681149954438595" lon="-4.5505215655960765"><ele>368.0</ele><time>2026-04-05T16:05:12.815Z</time></trkpt><trkpt lat="37.681225152785025" lon="-4.550572996721176"><ele>368.0</ele><time>2026-04-05T16:05:13.815Z</time></trkpt><trkpt lat="37.681304131256184" lon="-4.550676657938771"><ele>366.33333333333337</ele><time>2026-04-05T16:05:14.815Z</time></trkpt><trkpt lat="37.68138303920614" lon="-4.550758170668418"><ele>364.6666666666667</ele><time>2026-04-05T16:05:15.815Z</time></trkpt><trkpt lat="37.68145196529101" lon="-4.550823732642901"><ele>363.0</ele><time>2026-04-05T16:05:16.815Z</time></trkpt><trkpt lat="37.68151760366112" lon="-4.5508673755413875"><ele>361.3333333333333</ele><time>2026-04-05T16:05:17.815Z</time></trkpt><trkpt lat="37.68158771490826" lon="-4.550855715515509"><ele>359.66666666666663</ele><time>2026-04-05T16:05:18.815Z</time></trkpt><trkpt lat="37.68167360258899" lon="-4.550841670690144"><ele>358.0</ele><time>2026-04-05T16:05:19.815Z</time></trkpt><trkpt lat="37.68176553951343" lon="-4.550816324085102"><ele>358.0</ele><time>2026-04-05T16:05:20.815Z</time></trkpt><trkpt lat="37.681851729687196" lon="-4.550794873301025"><ele>358.0</ele><time>2026-04-05T16:05:21.815Z</time></trkpt><trkpt lat="37.681929620691015" lon="-4.550778811265654"><ele>358.0</ele><time>2026-04-05T16:05:22.815Z</time></trkpt><trkpt lat="37.681996320906585" lon="-4.5507436368226815"><ele>358.0</ele><time>2026-04-05T16:05:23.815Z</time></trkpt><trkpt lat="37.68205919521269" lon="-4.550697991722437"><ele>358.0</ele><time>2026-04-05T16:05:24.815Z</time></trkpt><trkpt lat="37.682128070284165" lon="-4.550627177224731"><ele>358.0</ele><time>2026-04-05T16:05:25.815Z</time></trkpt><trkpt lat="37.68219344979785" lon="-4.550533299432937"><ele>358.2</ele><time>2026-04-05T16:05:26.815Z</time></trkpt><trkpt lat="37.682268926542804" lon="-4.550453297976809"><ele>358.4</ele><time>2026-04-05T16:05:27.815Z</time></trkpt><trkpt lat="37.68235478388768" lon="-4.550402420443793"><ele>358.59999999999997</ele><time>2026-04-05T16:05:28.815Z</time></trkpt><trkpt lat="37.68245487357448" lon="-4.550336179305558"><ele>358.79999999999995</ele><time>2026-04-05T16:05:29.815Z</time></trkpt><trkpt lat="37.682563701309256" lon="-4.550273305448883"><ele>359.0</ele><time>2026-04-05T16:05:30.815Z</time></trkpt><trkpt lat="37.68267227208132" lon="-4.550209628997199"><ele>355.79999999999995</ele><time>2026-04-05T16:05:31.815Z</time></trkpt><trkpt lat="37.6827749881591" lon="-4.5501547556415165"><ele>352.59999999999997</ele><time>2026-04-05T16:05:32.815Z</time></trkpt><trkpt lat="37.68287964862081" lon="-4.550092106044101"><ele>349.4</ele><time>2026-04-05T16:05:33.815Z</time></trkpt><trkpt lat="37.682978240569945" lon="-4.5500394142479115"><ele>346.2</ele><time>2026-04-05T16:05:34.815Z</time></trkpt><trkpt lat="37.683065577276366" lon="-4.549968074920942"><ele>343.0</ele><time>2026-04-05T16:05:35.815Z</time></trkpt><trkpt lat="37.683150253023264" lon="-4.549916658859179"><ele>343.0</ele><time>2026-04-05T16:05:36.812Z</time></trkpt><trkpt lat="37.68324555708465" lon="-4.549858775497231"><ele>343.0</ele><time>2026-04-05T16:05:37.812Z</time></trkpt><trkpt lat="37.683334110168104" lon="-4.549806338184671"><ele>343.0</ele><time>2026-04-05T16:05:38.812Z</time></trkpt><trkpt lat="37.68343292876501" lon="-4.549747822099934"><ele>343.0</ele><time>2026-04-05T16:05:39.812Z</time></trkpt><trkpt lat="37.6835446155762" lon="-4.549681970554232"><ele>343.0</ele><time>2026-04-05T16:05:40.812Z</time></trkpt><trkpt lat="37.6836499996382" lon="-4.549622397879064"><ele>343.0</ele><time>2026-04-05T16:05:41.812Z</time></trkpt><trkpt lat="37.683759282600036" lon="-4.549581581877167"><ele>343.0</ele><time>2026-04-05T16:05:42.812Z</time></trkpt><trkpt lat="37.683841575792925" lon="-4.549503255258243"><ele>343.0</ele><time>2026-04-05T16:05:43.811Z</time></trkpt><trkpt lat="37.683911344025574" lon="-4.549468722406347"><ele>343.0</ele><time>2026-04-05T16:05:44.811Z</time></trkpt><trkpt lat="37.68396722493131" lon="-4.549399246387241"><ele>343.0</ele><time>2026-04-05T16:05:45.812Z</time></trkpt><trkpt lat="37.68405060816043" lon="-4.549332809527647"><ele>340.59999999999997</ele><time>2026-04-05T16:05:47.811Z</time></trkpt><trkpt lat="37.68408562050224" lon="-4.549259646648371"><ele>338.2</ele><time>2026-04-05T16:05:49.811Z</time></trkpt><trkpt lat="37.68406750093146" lon="-4.549167455081566"><ele>335.8</ele><time>2026-04-05T16:05:52.811Z</time></trkpt><trkpt lat="37.68418632295407" lon="-4.549140964521258"><ele>333.4</ele><time>2026-04-05T16:05:54.811Z</time></trkpt><trkpt lat="37.68425091377363" lon="-4.54923533810703"><ele>331.0</ele><time>2026-04-05T16:05:56.811Z</time></trkpt><trkpt lat="37.68427019681912" lon="-4.5493564226407495"><ele>331.0</ele><time>2026-04-05T16:05:58.811Z</time></trkpt><trkpt lat="37.68433884982615" lon="-4.5494323343984435"><ele>331.0</ele><time>2026-04-05T16:06:00.811Z</time></trkpt><trkpt lat="37.684442628628105" lon="-4.54949670536051"><ele>331.0</ele><time>2026-04-05T16:06:02.811Z</time></trkpt><trkpt lat="37.68450937621026" lon="-4.549525014385833"><ele>331.0</ele><time>2026-04-05T16:06:03.811Z</time></trkpt><trkpt lat="37.68457331730834" lon="-4.549572870876801"><ele>331.0</ele><time>2026-04-05T16:06:04.811Z</time></trkpt><trkpt lat="37.68464802909303" lon="-4.549630945149824"><ele>331.0</ele><time>2026-04-05T16:06:05.811Z</time></trkpt><trkpt lat="37.68473370576691" lon="-4.549697052591057"><ele>347.0</ele><time>2026-04-05T16:06:07.811Z</time></trkpt></trkseg></trk></gpx>